<?xml version="1.0" encoding="UTF-8" standalone="no" ?>
<gpx xmlns="http://www.topografix.com/GPX/1/1" xmlns:xsi="http://www.w3.org/2001/XMLSchema-instance" xsi:schemaLocation="http://www.topografix.com/GPX/1/1 http://www.topografix.com/GPX/1/1/gpx.xsd" version="1.1" creator="VisuGPX - https://www.visugpx.com">
  <metadata>
    <name>test casteide 2</name>
  </metadata>
  <trk>
    <name><![CDATA[test casteide 2_1]]></name>
    <trkseg>
      <trkpt lat="43.42286" lon="-0.51775">
        <ele>244</ele>
        <time>2013-05-06T10:08:22Z</time>
      </trkpt>
      <trkpt lat="43.42286" lon="-0.51775">
        <ele>244</ele>
        <time>2013-05-06T10:08:22Z</time>
      </trkpt>
      <trkpt lat="43.42283" lon="-0.51777">
        <ele>244</ele>
        <time>2013-05-06T10:08:23Z</time>
      </trkpt>
      <trkpt lat="43.42278" lon="-0.51775">
        <ele>244</ele>
        <time>2013-05-06T10:08:24Z</time>
      </trkpt>
      <trkpt lat="43.42275" lon="-0.51773">
        <ele>247</ele>
        <time>2013-05-06T10:08:25Z</time>
      </trkpt>
      <trkpt lat="43.42271" lon="-0.51771">
        <ele>247</ele>
        <time>2013-05-06T10:08:26Z</time>
      </trkpt>
      <trkpt lat="43.42268" lon="-0.51768">
        <ele>248</ele>
        <time>2013-05-06T10:08:27Z</time>
      </trkpt>
      <trkpt lat="43.42265" lon="-0.51765">
        <ele>249</ele>
        <time>2013-05-06T10:08:28Z</time>
      </trkpt>
      <trkpt lat="43.42263" lon="-0.51762">
        <ele>249</ele>
        <time>2013-05-06T10:08:29Z</time>
      </trkpt>
      <trkpt lat="43.4226" lon="-0.51759">
        <ele>250</ele>
        <time>2013-05-06T10:08:30Z</time>
      </trkpt>
      <trkpt lat="43.42258" lon="-0.51755">
        <ele>250</ele>
        <time>2013-05-06T10:08:31Z</time>
      </trkpt>
      <trkpt lat="43.42255" lon="-0.51752">
        <ele>250</ele>
        <time>2013-05-06T10:08:32Z</time>
      </trkpt>
      <trkpt lat="43.42254" lon="-0.51748">
        <ele>250</ele>
        <time>2013-05-06T10:08:33Z</time>
      </trkpt>
      <trkpt lat="43.42252" lon="-0.51744">
        <ele>250</ele>
        <time>2013-05-06T10:08:34Z</time>
      </trkpt>
      <trkpt lat="43.4225" lon="-0.5174">
        <ele>250</ele>
        <time>2013-05-06T10:08:35Z</time>
      </trkpt>
      <trkpt lat="43.42249" lon="-0.51735">
        <ele>250</ele>
        <time>2013-05-06T10:08:36Z</time>
      </trkpt>
      <trkpt lat="43.42246" lon="-0.51731">
        <ele>249</ele>
        <time>2013-05-06T10:08:37Z</time>
      </trkpt>
      <trkpt lat="43.42243" lon="-0.51727">
        <ele>249</ele>
        <time>2013-05-06T10:08:38Z</time>
      </trkpt>
      <trkpt lat="43.4224" lon="-0.51724">
        <ele>249</ele>
        <time>2013-05-06T10:08:39Z</time>
      </trkpt>
      <trkpt lat="43.42237" lon="-0.51721">
        <ele>249</ele>
        <time>2013-05-06T10:08:40Z</time>
      </trkpt>
      <trkpt lat="43.42233" lon="-0.51718">
        <ele>248</ele>
        <time>2013-05-06T10:08:41Z</time>
      </trkpt>
      <trkpt lat="43.4223" lon="-0.51716">
        <ele>248</ele>
        <time>2013-05-06T10:08:42Z</time>
      </trkpt>
      <trkpt lat="43.42227" lon="-0.51715">
        <ele>242</ele>
        <time>2013-05-06T10:08:43Z</time>
      </trkpt>
      <trkpt lat="43.42224" lon="-0.51715">
        <ele>242</ele>
        <time>2013-05-06T10:08:44Z</time>
      </trkpt>
      <trkpt lat="43.42222" lon="-0.51713">
        <ele>241</ele>
        <time>2013-05-06T10:08:45Z</time>
      </trkpt>
      <trkpt lat="43.42219" lon="-0.51716">
        <ele>241</ele>
        <time>2013-05-06T10:08:46Z</time>
      </trkpt>
      <trkpt lat="43.42217" lon="-0.51716">
        <ele>241</ele>
        <time>2013-05-06T10:08:47Z</time>
      </trkpt>
      <trkpt lat="43.42215" lon="-0.51721">
        <ele>240</ele>
        <time>2013-05-06T10:08:48Z</time>
      </trkpt>
      <trkpt lat="43.42213" lon="-0.51724">
        <ele>240</ele>
        <time>2013-05-06T10:08:49Z</time>
      </trkpt>
      <trkpt lat="43.42211" lon="-0.51728">
        <ele>241</ele>
        <time>2013-05-06T10:08:50Z</time>
      </trkpt>
      <trkpt lat="43.4221" lon="-0.51731">
        <ele>241</ele>
        <time>2013-05-06T10:08:51Z</time>
      </trkpt>
      <trkpt lat="43.42208" lon="-0.51732">
        <ele>241</ele>
        <time>2013-05-06T10:08:52Z</time>
      </trkpt>
      <trkpt lat="43.42206" lon="-0.51735">
        <ele>241</ele>
        <time>2013-05-06T10:08:53Z</time>
      </trkpt>
      <trkpt lat="43.42205" lon="-0.51736">
        <ele>241</ele>
        <time>2013-05-06T10:08:54Z</time>
      </trkpt>
      <trkpt lat="43.42203" lon="-0.51739">
        <ele>241</ele>
        <time>2013-05-06T10:08:55Z</time>
      </trkpt>
      <trkpt lat="43.42202" lon="-0.51741">
        <ele>241</ele>
        <time>2013-05-06T10:08:56Z</time>
      </trkpt>
      <trkpt lat="43.42202" lon="-0.51743">
        <ele>241</ele>
        <time>2013-05-06T10:08:57Z</time>
      </trkpt>
      <trkpt lat="43.42202" lon="-0.51746">
        <ele>241</ele>
        <time>2013-05-06T10:08:58Z</time>
      </trkpt>
      <trkpt lat="43.42203" lon="-0.51748">
        <ele>241</ele>
        <time>2013-05-06T10:08:59Z</time>
      </trkpt>
      <trkpt lat="43.42204" lon="-0.51751">
        <ele>241</ele>
        <time>2013-05-06T10:09:00Z</time>
      </trkpt>
      <trkpt lat="43.42205" lon="-0.51755">
        <ele>241</ele>
        <time>2013-05-06T10:09:01Z</time>
      </trkpt>
      <trkpt lat="43.42207" lon="-0.51758">
        <ele>243</ele>
        <time>2013-05-06T10:09:02Z</time>
      </trkpt>
      <trkpt lat="43.42209" lon="-0.51763">
        <ele>242</ele>
        <time>2013-05-06T10:09:03Z</time>
      </trkpt>
      <trkpt lat="43.42211" lon="-0.51769">
        <ele>240</ele>
        <time>2013-05-06T10:09:04Z</time>
      </trkpt>
      <trkpt lat="43.42217" lon="-0.51796">
        <ele>240</ele>
        <time>2013-05-06T10:09:05Z</time>
      </trkpt>
      <trkpt lat="43.42211" lon="-0.51807">
        <ele>240</ele>
        <time>2013-05-06T10:09:06Z</time>
      </trkpt>
      <trkpt lat="43.42204" lon="-0.51815">
        <ele>239</ele>
        <time>2013-05-06T10:09:07Z</time>
      </trkpt>
      <trkpt lat="43.42197" lon="-0.51827">
        <ele>242</ele>
        <time>2013-05-06T10:09:08Z</time>
      </trkpt>
      <trkpt lat="43.42192" lon="-0.51835">
        <ele>242</ele>
        <time>2013-05-06T10:09:09Z</time>
      </trkpt>
      <trkpt lat="43.42186" lon="-0.5184">
        <ele>243</ele>
        <time>2013-05-06T10:09:10Z</time>
      </trkpt>
      <trkpt lat="43.4217" lon="-0.5184">
        <ele>242</ele>
        <time>2013-05-06T10:09:11Z</time>
      </trkpt>
      <trkpt lat="43.42165" lon="-0.51848">
        <ele>241</ele>
        <time>2013-05-06T10:09:12Z</time>
      </trkpt>
      <trkpt lat="43.42162" lon="-0.51852">
        <ele>239</ele>
        <time>2013-05-06T10:09:13Z</time>
      </trkpt>
      <trkpt lat="43.42151" lon="-0.51862">
        <ele>239</ele>
        <time>2013-05-06T10:09:14Z</time>
      </trkpt>
      <trkpt lat="43.42142" lon="-0.51871">
        <ele>239</ele>
        <time>2013-05-06T10:09:15Z</time>
      </trkpt>
      <trkpt lat="43.42133" lon="-0.5188">
        <ele>238</ele>
        <time>2013-05-06T10:09:16Z</time>
      </trkpt>
      <trkpt lat="43.42125" lon="-0.51886">
        <ele>238</ele>
        <time>2013-05-06T10:09:17Z</time>
      </trkpt>
      <trkpt lat="43.42117" lon="-0.51892">
        <ele>238</ele>
        <time>2013-05-06T10:09:18Z</time>
      </trkpt>
      <trkpt lat="43.42104" lon="-0.51901">
        <ele>237</ele>
        <time>2013-05-06T10:09:19Z</time>
      </trkpt>
      <trkpt lat="43.42101" lon="-0.51902">
        <ele>236</ele>
        <time>2013-05-06T10:09:20Z</time>
      </trkpt>
      <trkpt lat="43.42094" lon="-0.51906">
        <ele>234</ele>
        <time>2013-05-06T10:09:21Z</time>
      </trkpt>
      <trkpt lat="43.42088" lon="-0.51908">
        <ele>234</ele>
        <time>2013-05-06T10:09:22Z</time>
      </trkpt>
      <trkpt lat="43.42086" lon="-0.5191">
        <ele>233</ele>
        <time>2013-05-06T10:09:23Z</time>
      </trkpt>
      <trkpt lat="43.42085" lon="-0.5191">
        <ele>232</ele>
        <time>2013-05-06T10:09:25Z</time>
      </trkpt>
      <trkpt lat="43.42086" lon="-0.51909">
        <ele>232</ele>
        <time>2013-05-06T10:09:26Z</time>
      </trkpt>
      <trkpt lat="43.42085" lon="-0.51912">
        <ele>231</ele>
        <time>2013-05-06T10:09:27Z</time>
      </trkpt>
      <trkpt lat="43.42086" lon="-0.51912">
        <ele>230</ele>
        <time>2013-05-06T10:09:28Z</time>
      </trkpt>
      <trkpt lat="43.42094" lon="-0.51931">
        <ele>229</ele>
        <time>2013-05-06T10:09:29Z</time>
      </trkpt>
      <trkpt lat="43.42096" lon="-0.51934">
        <ele>229</ele>
        <time>2013-05-06T10:09:30Z</time>
      </trkpt>
      <trkpt lat="43.42104" lon="-0.5194">
        <ele>228</ele>
        <time>2013-05-06T10:09:31Z</time>
      </trkpt>
      <trkpt lat="43.42109" lon="-0.5195">
        <ele>227</ele>
        <time>2013-05-06T10:09:32Z</time>
      </trkpt>
      <trkpt lat="43.42115" lon="-0.51959">
        <ele>227</ele>
        <time>2013-05-06T10:09:33Z</time>
      </trkpt>
      <trkpt lat="43.42118" lon="-0.51968">
        <ele>226</ele>
        <time>2013-05-06T10:09:34Z</time>
      </trkpt>
      <trkpt lat="43.42119" lon="-0.51981">
        <ele>226</ele>
        <time>2013-05-06T10:09:35Z</time>
      </trkpt>
      <trkpt lat="43.42118" lon="-0.51996">
        <ele>226</ele>
        <time>2013-05-06T10:09:36Z</time>
      </trkpt>
      <trkpt lat="43.42117" lon="-0.5201">
        <ele>226</ele>
        <time>2013-05-06T10:09:37Z</time>
      </trkpt>
      <trkpt lat="43.42118" lon="-0.52025">
        <ele>227</ele>
        <time>2013-05-06T10:09:38Z</time>
      </trkpt>
      <trkpt lat="43.42118" lon="-0.52038">
        <ele>226</ele>
        <time>2013-05-06T10:09:39Z</time>
      </trkpt>
      <trkpt lat="43.42112" lon="-0.52051">
        <ele>225</ele>
        <time>2013-05-06T10:09:40Z</time>
      </trkpt>
      <trkpt lat="43.42108" lon="-0.52055">
        <ele>224</ele>
        <time>2013-05-06T10:09:41Z</time>
      </trkpt>
      <trkpt lat="43.42103" lon="-0.52064">
        <ele>222</ele>
        <time>2013-05-06T10:09:42Z</time>
      </trkpt>
      <trkpt lat="43.421" lon="-0.52075">
        <ele>221</ele>
        <time>2013-05-06T10:09:43Z</time>
      </trkpt>
      <trkpt lat="43.42096" lon="-0.52082">
        <ele>221</ele>
        <time>2013-05-06T10:09:44Z</time>
      </trkpt>
      <trkpt lat="43.42091" lon="-0.52091">
        <ele>220</ele>
        <time>2013-05-06T10:09:45Z</time>
      </trkpt>
      <trkpt lat="43.42087" lon="-0.52099">
        <ele>219</ele>
        <time>2013-05-06T10:09:46Z</time>
      </trkpt>
      <trkpt lat="43.42084" lon="-0.52105">
        <ele>219</ele>
        <time>2013-05-06T10:09:47Z</time>
      </trkpt>
      <trkpt lat="43.42082" lon="-0.52111">
        <ele>218</ele>
        <time>2013-05-06T10:09:48Z</time>
      </trkpt>
      <trkpt lat="43.42078" lon="-0.52119">
        <ele>216</ele>
        <time>2013-05-06T10:09:49Z</time>
      </trkpt>
      <trkpt lat="43.42073" lon="-0.52127">
        <ele>216</ele>
        <time>2013-05-06T10:09:50Z</time>
      </trkpt>
      <trkpt lat="43.42072" lon="-0.52135">
        <ele>214</ele>
        <time>2013-05-06T10:09:51Z</time>
      </trkpt>
      <trkpt lat="43.42068" lon="-0.52143">
        <ele>212</ele>
        <time>2013-05-06T10:09:52Z</time>
      </trkpt>
      <trkpt lat="43.42065" lon="-0.52151">
        <ele>211</ele>
        <time>2013-05-06T10:09:53Z</time>
      </trkpt>
      <trkpt lat="43.42062" lon="-0.5216">
        <ele>208</ele>
        <time>2013-05-06T10:09:54Z</time>
      </trkpt>
      <trkpt lat="43.42059" lon="-0.52168">
        <ele>207</ele>
        <time>2013-05-06T10:09:55Z</time>
      </trkpt>
      <trkpt lat="43.42055" lon="-0.52175">
        <ele>207</ele>
        <time>2013-05-06T10:09:56Z</time>
      </trkpt>
      <trkpt lat="43.42054" lon="-0.52186">
        <ele>204</ele>
        <time>2013-05-06T10:09:57Z</time>
      </trkpt>
      <trkpt lat="43.42052" lon="-0.52196">
        <ele>204</ele>
        <time>2013-05-06T10:09:58Z</time>
      </trkpt>
      <trkpt lat="43.4205" lon="-0.52204">
        <ele>204</ele>
        <time>2013-05-06T10:09:59Z</time>
      </trkpt>
      <trkpt lat="43.42049" lon="-0.52216">
        <ele>204</ele>
        <time>2013-05-06T10:10:00Z</time>
      </trkpt>
      <trkpt lat="43.42049" lon="-0.52226">
        <ele>204</ele>
        <time>2013-05-06T10:10:01Z</time>
      </trkpt>
      <trkpt lat="43.4204" lon="-0.52227">
        <ele>204</ele>
        <time>2013-05-06T10:10:02Z</time>
      </trkpt>
      <trkpt lat="43.42035" lon="-0.52232">
        <ele>202</ele>
        <time>2013-05-06T10:10:03Z</time>
      </trkpt>
      <trkpt lat="43.42032" lon="-0.52235">
        <ele>202</ele>
        <time>2013-05-06T10:10:04Z</time>
      </trkpt>
      <trkpt lat="43.42028" lon="-0.5224">
        <ele>201</ele>
        <time>2013-05-06T10:10:05Z</time>
      </trkpt>
      <trkpt lat="43.42023" lon="-0.52246">
        <ele>202</ele>
        <time>2013-05-06T10:10:06Z</time>
      </trkpt>
      <trkpt lat="43.42021" lon="-0.52251">
        <ele>202</ele>
        <time>2013-05-06T10:10:07Z</time>
      </trkpt>
      <trkpt lat="43.42024" lon="-0.52249">
        <ele>201</ele>
        <time>2013-05-06T10:10:08Z</time>
      </trkpt>
      <trkpt lat="43.42022" lon="-0.52264">
        <ele>199</ele>
        <time>2013-05-06T10:10:09Z</time>
      </trkpt>
      <trkpt lat="43.42022" lon="-0.52271">
        <ele>200</ele>
        <time>2013-05-06T10:10:10Z</time>
      </trkpt>
      <trkpt lat="43.4202" lon="-0.52281">
        <ele>199</ele>
        <time>2013-05-06T10:10:11Z</time>
      </trkpt>
      <trkpt lat="43.42017" lon="-0.52289">
        <ele>198</ele>
        <time>2013-05-06T10:10:12Z</time>
      </trkpt>
      <trkpt lat="43.42014" lon="-0.523">
        <ele>198</ele>
        <time>2013-05-06T10:10:13Z</time>
      </trkpt>
      <trkpt lat="43.42013" lon="-0.52308">
        <ele>198</ele>
        <time>2013-05-06T10:10:14Z</time>
      </trkpt>
      <trkpt lat="43.42012" lon="-0.52318">
        <ele>198</ele>
        <time>2013-05-06T10:10:15Z</time>
      </trkpt>
      <trkpt lat="43.42014" lon="-0.52324">
        <ele>198</ele>
        <time>2013-05-06T10:10:16Z</time>
      </trkpt>
      <trkpt lat="43.42009" lon="-0.52328">
        <ele>197</ele>
        <time>2013-05-06T10:10:17Z</time>
      </trkpt>
      <trkpt lat="43.4201" lon="-0.5233">
        <ele>197</ele>
        <time>2013-05-06T10:10:18Z</time>
      </trkpt>
      <trkpt lat="43.42011" lon="-0.52335">
        <ele>197</ele>
        <time>2013-05-06T10:10:19Z</time>
      </trkpt>
      <trkpt lat="43.42009" lon="-0.52337">
        <ele>197</ele>
        <time>2013-05-06T10:10:20Z</time>
      </trkpt>
      <trkpt lat="43.42012" lon="-0.52345">
        <ele>196</ele>
        <time>2013-05-06T10:10:21Z</time>
      </trkpt>
      <trkpt lat="43.42015" lon="-0.52352">
        <ele>197</ele>
        <time>2013-05-06T10:10:22Z</time>
      </trkpt>
      <trkpt lat="43.42017" lon="-0.52354">
        <ele>196</ele>
        <time>2013-05-06T10:10:23Z</time>
      </trkpt>
      <trkpt lat="43.42016" lon="-0.52356">
        <ele>196</ele>
        <time>2013-05-06T10:10:24Z</time>
      </trkpt>
      <trkpt lat="43.42014" lon="-0.52361">
        <ele>195</ele>
        <time>2013-05-06T10:10:25Z</time>
      </trkpt>
      <trkpt lat="43.42009" lon="-0.52362">
        <ele>195</ele>
        <time>2013-05-06T10:10:26Z</time>
      </trkpt>
      <trkpt lat="43.42011" lon="-0.52367">
        <ele>195</ele>
        <time>2013-05-06T10:10:27Z</time>
      </trkpt>
      <trkpt lat="43.42012" lon="-0.52371">
        <ele>195</ele>
        <time>2013-05-06T10:10:28Z</time>
      </trkpt>
      <trkpt lat="43.42011" lon="-0.52373">
        <ele>195</ele>
        <time>2013-05-06T10:10:29Z</time>
      </trkpt>
      <trkpt lat="43.42009" lon="-0.52377">
        <ele>195</ele>
        <time>2013-05-06T10:10:30Z</time>
      </trkpt>
      <trkpt lat="43.42009" lon="-0.52382">
        <ele>194</ele>
        <time>2013-05-06T10:10:31Z</time>
      </trkpt>
      <trkpt lat="43.42008" lon="-0.52387">
        <ele>195</ele>
        <time>2013-05-06T10:10:32Z</time>
      </trkpt>
      <trkpt lat="43.42007" lon="-0.52392">
        <ele>194</ele>
        <time>2013-05-06T10:10:33Z</time>
      </trkpt>
      <trkpt lat="43.42007" lon="-0.52397">
        <ele>194</ele>
        <time>2013-05-06T10:10:34Z</time>
      </trkpt>
      <trkpt lat="43.42006" lon="-0.52401">
        <ele>194</ele>
        <time>2013-05-06T10:10:35Z</time>
      </trkpt>
      <trkpt lat="43.42006" lon="-0.52404">
        <ele>194</ele>
        <time>2013-05-06T10:10:36Z</time>
      </trkpt>
      <trkpt lat="43.42004" lon="-0.52408">
        <ele>194</ele>
        <time>2013-05-06T10:10:37Z</time>
      </trkpt>
      <trkpt lat="43.42003" lon="-0.52411">
        <ele>193</ele>
        <time>2013-05-06T10:10:38Z</time>
      </trkpt>
      <trkpt lat="43.42001" lon="-0.52414">
        <ele>193</ele>
        <time>2013-05-06T10:10:39Z</time>
      </trkpt>
      <trkpt lat="43.42" lon="-0.52417">
        <ele>192</ele>
        <time>2013-05-06T10:10:40Z</time>
      </trkpt>
      <trkpt lat="43.41999" lon="-0.52421">
        <ele>192</ele>
        <time>2013-05-06T10:10:41Z</time>
      </trkpt>
      <trkpt lat="43.41998" lon="-0.52425">
        <ele>193</ele>
        <time>2013-05-06T10:10:42Z</time>
      </trkpt>
      <trkpt lat="43.41997" lon="-0.5243">
        <ele>192</ele>
        <time>2013-05-06T10:10:43Z</time>
      </trkpt>
      <trkpt lat="43.41996" lon="-0.52437">
        <ele>192</ele>
        <time>2013-05-06T10:10:44Z</time>
      </trkpt>
      <trkpt lat="43.41995" lon="-0.52442">
        <ele>192</ele>
        <time>2013-05-06T10:10:45Z</time>
      </trkpt>
      <trkpt lat="43.41993" lon="-0.52449">
        <ele>191</ele>
        <time>2013-05-06T10:10:46Z</time>
      </trkpt>
      <trkpt lat="43.41991" lon="-0.52455">
        <ele>191</ele>
        <time>2013-05-06T10:10:47Z</time>
      </trkpt>
      <trkpt lat="43.41989" lon="-0.52461">
        <ele>191</ele>
        <time>2013-05-06T10:10:48Z</time>
      </trkpt>
      <trkpt lat="43.41987" lon="-0.52466">
        <ele>191</ele>
        <time>2013-05-06T10:10:49Z</time>
      </trkpt>
      <trkpt lat="43.41985" lon="-0.52472">
        <ele>191</ele>
        <time>2013-05-06T10:10:50Z</time>
      </trkpt>
      <trkpt lat="43.41983" lon="-0.52478">
        <ele>189</ele>
        <time>2013-05-06T10:10:51Z</time>
      </trkpt>
      <trkpt lat="43.41981" lon="-0.52485">
        <ele>187</ele>
        <time>2013-05-06T10:10:52Z</time>
      </trkpt>
      <trkpt lat="43.4198" lon="-0.52492">
        <ele>184</ele>
        <time>2013-05-06T10:10:53Z</time>
      </trkpt>
      <trkpt lat="43.41978" lon="-0.52499">
        <ele>183</ele>
        <time>2013-05-06T10:10:54Z</time>
      </trkpt>
      <trkpt lat="43.41977" lon="-0.52505">
        <ele>181</ele>
        <time>2013-05-06T10:10:55Z</time>
      </trkpt>
      <trkpt lat="43.41975" lon="-0.52511">
        <ele>178</ele>
        <time>2013-05-06T10:10:56Z</time>
      </trkpt>
      <trkpt lat="43.41975" lon="-0.52517">
        <ele>178</ele>
        <time>2013-05-06T10:10:57Z</time>
      </trkpt>
      <trkpt lat="43.41974" lon="-0.52521">
        <ele>177</ele>
        <time>2013-05-06T10:10:58Z</time>
      </trkpt>
      <trkpt lat="43.41973" lon="-0.52525">
        <ele>177</ele>
        <time>2013-05-06T10:10:59Z</time>
      </trkpt>
      <trkpt lat="43.41972" lon="-0.52529">
        <ele>176</ele>
        <time>2013-05-06T10:11:00Z</time>
      </trkpt>
      <trkpt lat="43.41971" lon="-0.52532">
        <ele>175</ele>
        <time>2013-05-06T10:11:01Z</time>
      </trkpt>
      <trkpt lat="43.4197" lon="-0.52536">
        <ele>176</ele>
        <time>2013-05-06T10:11:02Z</time>
      </trkpt>
      <trkpt lat="43.41969" lon="-0.52539">
        <ele>176</ele>
        <time>2013-05-06T10:11:03Z</time>
      </trkpt>
      <trkpt lat="43.41967" lon="-0.52543">
        <ele>177</ele>
        <time>2013-05-06T10:11:04Z</time>
      </trkpt>
      <trkpt lat="43.41967" lon="-0.52547">
        <ele>177</ele>
        <time>2013-05-06T10:11:05Z</time>
      </trkpt>
      <trkpt lat="43.41966" lon="-0.52551">
        <ele>178</ele>
        <time>2013-05-06T10:11:06Z</time>
      </trkpt>
      <trkpt lat="43.41964" lon="-0.52556">
        <ele>178</ele>
        <time>2013-05-06T10:11:07Z</time>
      </trkpt>
      <trkpt lat="43.41963" lon="-0.52562">
        <ele>178</ele>
        <time>2013-05-06T10:11:08Z</time>
      </trkpt>
      <trkpt lat="43.41962" lon="-0.52567">
        <ele>178</ele>
        <time>2013-05-06T10:11:09Z</time>
      </trkpt>
      <trkpt lat="43.41961" lon="-0.52572">
        <ele>178</ele>
        <time>2013-05-06T10:11:10Z</time>
      </trkpt>
      <trkpt lat="43.41959" lon="-0.52577">
        <ele>178</ele>
        <time>2013-05-06T10:11:11Z</time>
      </trkpt>
      <trkpt lat="43.41957" lon="-0.52582">
        <ele>177</ele>
        <time>2013-05-06T10:11:12Z</time>
      </trkpt>
      <trkpt lat="43.41956" lon="-0.52586">
        <ele>177</ele>
        <time>2013-05-06T10:11:13Z</time>
      </trkpt>
      <trkpt lat="43.41954" lon="-0.5259">
        <ele>178</ele>
        <time>2013-05-06T10:11:14Z</time>
      </trkpt>
      <trkpt lat="43.41952" lon="-0.52593">
        <ele>177</ele>
        <time>2013-05-06T10:11:15Z</time>
      </trkpt>
      <trkpt lat="43.4195" lon="-0.52596">
        <ele>176</ele>
        <time>2013-05-06T10:11:16Z</time>
      </trkpt>
      <trkpt lat="43.41949" lon="-0.52599">
        <ele>177</ele>
        <time>2013-05-06T10:11:17Z</time>
      </trkpt>
      <trkpt lat="43.41948" lon="-0.52602">
        <ele>176</ele>
        <time>2013-05-06T10:11:18Z</time>
      </trkpt>
      <trkpt lat="43.41947" lon="-0.52606">
        <ele>177</ele>
        <time>2013-05-06T10:11:19Z</time>
      </trkpt>
      <trkpt lat="43.41946" lon="-0.5261">
        <ele>177</ele>
        <time>2013-05-06T10:11:20Z</time>
      </trkpt>
      <trkpt lat="43.41945" lon="-0.52614">
        <ele>176</ele>
        <time>2013-05-06T10:11:21Z</time>
      </trkpt>
      <trkpt lat="43.41943" lon="-0.52619">
        <ele>176</ele>
        <time>2013-05-06T10:11:22Z</time>
      </trkpt>
      <trkpt lat="43.41942" lon="-0.52624">
        <ele>176</ele>
        <time>2013-05-06T10:11:23Z</time>
      </trkpt>
      <trkpt lat="43.41942" lon="-0.52628">
        <ele>177</ele>
        <time>2013-05-06T10:11:24Z</time>
      </trkpt>
      <trkpt lat="43.41941" lon="-0.52633">
        <ele>177</ele>
        <time>2013-05-06T10:11:25Z</time>
      </trkpt>
      <trkpt lat="43.4194" lon="-0.52638">
        <ele>177</ele>
        <time>2013-05-06T10:11:26Z</time>
      </trkpt>
      <trkpt lat="43.4194" lon="-0.52643">
        <ele>176</ele>
        <time>2013-05-06T10:11:27Z</time>
      </trkpt>
      <trkpt lat="43.41938" lon="-0.52649">
        <ele>175</ele>
        <time>2013-05-06T10:11:28Z</time>
      </trkpt>
      <trkpt lat="43.41937" lon="-0.52656">
        <ele>174</ele>
        <time>2013-05-06T10:11:29Z</time>
      </trkpt>
      <trkpt lat="43.41935" lon="-0.52662">
        <ele>175</ele>
        <time>2013-05-06T10:11:30Z</time>
      </trkpt>
      <trkpt lat="43.41932" lon="-0.52669">
        <ele>172</ele>
        <time>2013-05-06T10:11:31Z</time>
      </trkpt>
      <trkpt lat="43.41929" lon="-0.52676">
        <ele>173</ele>
        <time>2013-05-06T10:11:32Z</time>
      </trkpt>
      <trkpt lat="43.41922" lon="-0.52685">
        <ele>173</ele>
        <time>2013-05-06T10:11:33Z</time>
      </trkpt>
      <trkpt lat="43.41918" lon="-0.52691">
        <ele>172</ele>
        <time>2013-05-06T10:11:34Z</time>
      </trkpt>
      <trkpt lat="43.41915" lon="-0.52697">
        <ele>173</ele>
        <time>2013-05-06T10:11:35Z</time>
      </trkpt>
      <trkpt lat="43.41912" lon="-0.52702">
        <ele>172</ele>
        <time>2013-05-06T10:11:36Z</time>
      </trkpt>
      <trkpt lat="43.4191" lon="-0.52706">
        <ele>173</ele>
        <time>2013-05-06T10:11:37Z</time>
      </trkpt>
      <trkpt lat="43.41908" lon="-0.52711">
        <ele>173</ele>
        <time>2013-05-06T10:11:38Z</time>
      </trkpt>
      <trkpt lat="43.41907" lon="-0.52714">
        <ele>173</ele>
        <time>2013-05-06T10:11:39Z</time>
      </trkpt>
      <trkpt lat="43.41905" lon="-0.52716">
        <ele>174</ele>
        <time>2013-05-06T10:11:40Z</time>
      </trkpt>
      <trkpt lat="43.41904" lon="-0.52719">
        <ele>175</ele>
        <time>2013-05-06T10:11:41Z</time>
      </trkpt>
      <trkpt lat="43.41904" lon="-0.52722">
        <ele>176</ele>
        <time>2013-05-06T10:11:42Z</time>
      </trkpt>
      <trkpt lat="43.41903" lon="-0.52724">
        <ele>177</ele>
        <time>2013-05-06T10:11:43Z</time>
      </trkpt>
      <trkpt lat="43.41903" lon="-0.52726">
        <ele>177</ele>
        <time>2013-05-06T10:11:44Z</time>
      </trkpt>
      <trkpt lat="43.41902" lon="-0.52729">
        <ele>177</ele>
        <time>2013-05-06T10:11:45Z</time>
      </trkpt>
      <trkpt lat="43.41901" lon="-0.52731">
        <ele>178</ele>
        <time>2013-05-06T10:11:46Z</time>
      </trkpt>
      <trkpt lat="43.41901" lon="-0.52733">
        <ele>177</ele>
        <time>2013-05-06T10:11:47Z</time>
      </trkpt>
      <trkpt lat="43.419" lon="-0.52736">
        <ele>177</ele>
        <time>2013-05-06T10:11:48Z</time>
      </trkpt>
      <trkpt lat="43.419" lon="-0.52739">
        <ele>175</ele>
        <time>2013-05-06T10:11:49Z</time>
      </trkpt>
      <trkpt lat="43.41898" lon="-0.52743">
        <ele>174</ele>
        <time>2013-05-06T10:11:50Z</time>
      </trkpt>
      <trkpt lat="43.41898" lon="-0.52747">
        <ele>177</ele>
        <time>2013-05-06T10:11:51Z</time>
      </trkpt>
      <trkpt lat="43.41897" lon="-0.52752">
        <ele>176</ele>
        <time>2013-05-06T10:11:52Z</time>
      </trkpt>
      <trkpt lat="43.41896" lon="-0.52756">
        <ele>176</ele>
        <time>2013-05-06T10:11:53Z</time>
      </trkpt>
      <trkpt lat="43.41896" lon="-0.5276">
        <ele>177</ele>
        <time>2013-05-06T10:11:54Z</time>
      </trkpt>
      <trkpt lat="43.41896" lon="-0.52766">
        <ele>178</ele>
        <time>2013-05-06T10:11:55Z</time>
      </trkpt>
      <trkpt lat="43.41896" lon="-0.52771">
        <ele>179</ele>
        <time>2013-05-06T10:11:56Z</time>
      </trkpt>
      <trkpt lat="43.41896" lon="-0.52775">
        <ele>179</ele>
        <time>2013-05-06T10:11:57Z</time>
      </trkpt>
      <trkpt lat="43.41896" lon="-0.52779">
        <ele>179</ele>
        <time>2013-05-06T10:11:58Z</time>
      </trkpt>
      <trkpt lat="43.41896" lon="-0.52782">
        <ele>179</ele>
        <time>2013-05-06T10:11:59Z</time>
      </trkpt>
      <trkpt lat="43.41895" lon="-0.52785">
        <ele>179</ele>
        <time>2013-05-06T10:12:00Z</time>
      </trkpt>
      <trkpt lat="43.41893" lon="-0.52787">
        <ele>180</ele>
        <time>2013-05-06T10:12:01Z</time>
      </trkpt>
      <trkpt lat="43.41892" lon="-0.5279">
        <ele>181</ele>
        <time>2013-05-06T10:12:02Z</time>
      </trkpt>
      <trkpt lat="43.4189" lon="-0.52792">
        <ele>181</ele>
        <time>2013-05-06T10:12:03Z</time>
      </trkpt>
      <trkpt lat="43.41888" lon="-0.52794">
        <ele>182</ele>
        <time>2013-05-06T10:12:04Z</time>
      </trkpt>
      <trkpt lat="43.41887" lon="-0.52796">
        <ele>181</ele>
        <time>2013-05-06T10:12:05Z</time>
      </trkpt>
      <trkpt lat="43.41885" lon="-0.52798">
        <ele>180</ele>
        <time>2013-05-06T10:12:06Z</time>
      </trkpt>
      <trkpt lat="43.41883" lon="-0.528">
        <ele>181</ele>
        <time>2013-05-06T10:12:07Z</time>
      </trkpt>
      <trkpt lat="43.41882" lon="-0.52801">
        <ele>180</ele>
        <time>2013-05-06T10:12:08Z</time>
      </trkpt>
      <trkpt lat="43.4188" lon="-0.52803">
        <ele>181</ele>
        <time>2013-05-06T10:12:09Z</time>
      </trkpt>
      <trkpt lat="43.41878" lon="-0.52804">
        <ele>180</ele>
        <time>2013-05-06T10:12:10Z</time>
      </trkpt>
      <trkpt lat="43.41876" lon="-0.52805">
        <ele>180</ele>
        <time>2013-05-06T10:12:11Z</time>
      </trkpt>
      <trkpt lat="43.41873" lon="-0.52806">
        <ele>180</ele>
        <time>2013-05-06T10:12:12Z</time>
      </trkpt>
      <trkpt lat="43.41871" lon="-0.52807">
        <ele>180</ele>
        <time>2013-05-06T10:12:13Z</time>
      </trkpt>
      <trkpt lat="43.41869" lon="-0.52809">
        <ele>181</ele>
        <time>2013-05-06T10:12:14Z</time>
      </trkpt>
      <trkpt lat="43.41867" lon="-0.5281">
        <ele>181</ele>
        <time>2013-05-06T10:12:15Z</time>
      </trkpt>
      <trkpt lat="43.41866" lon="-0.52812">
        <ele>182</ele>
        <time>2013-05-06T10:12:16Z</time>
      </trkpt>
      <trkpt lat="43.41864" lon="-0.52814">
        <ele>182</ele>
        <time>2013-05-06T10:12:17Z</time>
      </trkpt>
      <trkpt lat="43.41863" lon="-0.52815">
        <ele>183</ele>
        <time>2013-05-06T10:12:18Z</time>
      </trkpt>
      <trkpt lat="43.41861" lon="-0.52817">
        <ele>183</ele>
        <time>2013-05-06T10:12:19Z</time>
      </trkpt>
      <trkpt lat="43.41859" lon="-0.52819">
        <ele>182</ele>
        <time>2013-05-06T10:12:20Z</time>
      </trkpt>
      <trkpt lat="43.41857" lon="-0.52821">
        <ele>183</ele>
        <time>2013-05-06T10:12:21Z</time>
      </trkpt>
      <trkpt lat="43.41854" lon="-0.52824">
        <ele>183</ele>
        <time>2013-05-06T10:12:22Z</time>
      </trkpt>
      <trkpt lat="43.41851" lon="-0.52826">
        <ele>183</ele>
        <time>2013-05-06T10:12:23Z</time>
      </trkpt>
      <trkpt lat="43.41848" lon="-0.52828">
        <ele>183</ele>
        <time>2013-05-06T10:12:24Z</time>
      </trkpt>
      <trkpt lat="43.41846" lon="-0.52829">
        <ele>183</ele>
        <time>2013-05-06T10:12:25Z</time>
      </trkpt>
      <trkpt lat="43.41844" lon="-0.52831">
        <ele>183</ele>
        <time>2013-05-06T10:12:26Z</time>
      </trkpt>
      <trkpt lat="43.41842" lon="-0.52832">
        <ele>182</ele>
        <time>2013-05-06T10:12:27Z</time>
      </trkpt>
      <trkpt lat="43.4184" lon="-0.52834">
        <ele>182</ele>
        <time>2013-05-06T10:12:28Z</time>
      </trkpt>
      <trkpt lat="43.41837" lon="-0.52835">
        <ele>181</ele>
        <time>2013-05-06T10:12:29Z</time>
      </trkpt>
      <trkpt lat="43.41835" lon="-0.52837">
        <ele>182</ele>
        <time>2013-05-06T10:12:30Z</time>
      </trkpt>
      <trkpt lat="43.41833" lon="-0.52838">
        <ele>182</ele>
        <time>2013-05-06T10:12:31Z</time>
      </trkpt>
      <trkpt lat="43.41831" lon="-0.52838">
        <ele>183</ele>
        <time>2013-05-06T10:12:32Z</time>
      </trkpt>
      <trkpt lat="43.41829" lon="-0.5284">
        <ele>182</ele>
        <time>2013-05-06T10:12:33Z</time>
      </trkpt>
      <trkpt lat="43.41826" lon="-0.52841">
        <ele>183</ele>
        <time>2013-05-06T10:12:34Z</time>
      </trkpt>
      <trkpt lat="43.41823" lon="-0.52843">
        <ele>184</ele>
        <time>2013-05-06T10:12:35Z</time>
      </trkpt>
      <trkpt lat="43.4182" lon="-0.52845">
        <ele>183</ele>
        <time>2013-05-06T10:12:36Z</time>
      </trkpt>
      <trkpt lat="43.41816" lon="-0.52846">
        <ele>183</ele>
        <time>2013-05-06T10:12:37Z</time>
      </trkpt>
      <trkpt lat="43.4181" lon="-0.52847">
        <ele>182</ele>
        <time>2013-05-06T10:12:38Z</time>
      </trkpt>
      <trkpt lat="43.41805" lon="-0.52846">
        <ele>181</ele>
        <time>2013-05-06T10:12:39Z</time>
      </trkpt>
      <trkpt lat="43.41799" lon="-0.52845">
        <ele>182</ele>
        <time>2013-05-06T10:12:40Z</time>
      </trkpt>
      <trkpt lat="43.41793" lon="-0.52843">
        <ele>182</ele>
        <time>2013-05-06T10:12:41Z</time>
      </trkpt>
      <trkpt lat="43.41787" lon="-0.52841">
        <ele>182</ele>
        <time>2013-05-06T10:12:42Z</time>
      </trkpt>
      <trkpt lat="43.41781" lon="-0.52838">
        <ele>182</ele>
        <time>2013-05-06T10:12:43Z</time>
      </trkpt>
      <trkpt lat="43.41774" lon="-0.52836">
        <ele>182</ele>
        <time>2013-05-06T10:12:44Z</time>
      </trkpt>
      <trkpt lat="43.41768" lon="-0.52834">
        <ele>183</ele>
        <time>2013-05-06T10:12:45Z</time>
      </trkpt>
      <trkpt lat="43.41746" lon="-0.52832">
        <ele>185</ele>
        <time>2013-05-06T10:12:46Z</time>
      </trkpt>
      <trkpt lat="43.4174" lon="-0.52831">
        <ele>185</ele>
        <time>2013-05-06T10:12:47Z</time>
      </trkpt>
      <trkpt lat="43.41732" lon="-0.52828">
        <ele>184</ele>
        <time>2013-05-06T10:12:48Z</time>
      </trkpt>
      <trkpt lat="43.41726" lon="-0.52826">
        <ele>186</ele>
        <time>2013-05-06T10:12:49Z</time>
      </trkpt>
      <trkpt lat="43.41722" lon="-0.52819">
        <ele>186</ele>
        <time>2013-05-06T10:12:50Z</time>
      </trkpt>
      <trkpt lat="43.41718" lon="-0.52819">
        <ele>187</ele>
        <time>2013-05-06T10:12:51Z</time>
      </trkpt>
      <trkpt lat="43.41711" lon="-0.52818">
        <ele>187</ele>
        <time>2013-05-06T10:12:52Z</time>
      </trkpt>
      <trkpt lat="43.41707" lon="-0.52814">
        <ele>187</ele>
        <time>2013-05-06T10:12:53Z</time>
      </trkpt>
      <trkpt lat="43.41699" lon="-0.52809">
        <ele>187</ele>
        <time>2013-05-06T10:12:54Z</time>
      </trkpt>
      <trkpt lat="43.41692" lon="-0.52806">
        <ele>186</ele>
        <time>2013-05-06T10:12:55Z</time>
      </trkpt>
      <trkpt lat="43.41684" lon="-0.52814">
        <ele>187</ele>
        <time>2013-05-06T10:12:56Z</time>
      </trkpt>
      <trkpt lat="43.41681" lon="-0.5281">
        <ele>187</ele>
        <time>2013-05-06T10:12:57Z</time>
      </trkpt>
      <trkpt lat="43.41679" lon="-0.52804">
        <ele>188</ele>
        <time>2013-05-06T10:12:58Z</time>
      </trkpt>
      <trkpt lat="43.41676" lon="-0.52801">
        <ele>188</ele>
        <time>2013-05-06T10:12:59Z</time>
      </trkpt>
      <trkpt lat="43.41674" lon="-0.52799">
        <ele>187</ele>
        <time>2013-05-06T10:13:00Z</time>
      </trkpt>
      <trkpt lat="43.41672" lon="-0.52798">
        <ele>187</ele>
        <time>2013-05-06T10:13:01Z</time>
      </trkpt>
      <trkpt lat="43.41668" lon="-0.52798">
        <ele>186</ele>
        <time>2013-05-06T10:13:02Z</time>
      </trkpt>
      <trkpt lat="43.41665" lon="-0.52795">
        <ele>186</ele>
        <time>2013-05-06T10:13:03Z</time>
      </trkpt>
      <trkpt lat="43.41659" lon="-0.52794">
        <ele>186</ele>
        <time>2013-05-06T10:13:04Z</time>
      </trkpt>
      <trkpt lat="43.41655" lon="-0.52792">
        <ele>186</ele>
        <time>2013-05-06T10:13:05Z</time>
      </trkpt>
      <trkpt lat="43.4165" lon="-0.52792">
        <ele>186</ele>
        <time>2013-05-06T10:13:06Z</time>
      </trkpt>
      <trkpt lat="43.41645" lon="-0.52792">
        <ele>187</ele>
        <time>2013-05-06T10:13:07Z</time>
      </trkpt>
      <trkpt lat="43.41634" lon="-0.52789">
        <ele>187</ele>
        <time>2013-05-06T10:13:08Z</time>
      </trkpt>
      <trkpt lat="43.41627" lon="-0.52788">
        <ele>188</ele>
        <time>2013-05-06T10:13:09Z</time>
      </trkpt>
      <trkpt lat="43.41622" lon="-0.52781">
        <ele>187</ele>
        <time>2013-05-06T10:13:10Z</time>
      </trkpt>
      <trkpt lat="43.41614" lon="-0.52773">
        <ele>186</ele>
        <time>2013-05-06T10:13:11Z</time>
      </trkpt>
      <trkpt lat="43.41612" lon="-0.52764">
        <ele>185</ele>
        <time>2013-05-06T10:13:12Z</time>
      </trkpt>
      <trkpt lat="43.41609" lon="-0.52758">
        <ele>185</ele>
        <time>2013-05-06T10:13:13Z</time>
      </trkpt>
      <trkpt lat="43.41605" lon="-0.52754">
        <ele>185</ele>
        <time>2013-05-06T10:13:14Z</time>
      </trkpt>
      <trkpt lat="43.41596" lon="-0.52743">
        <ele>185</ele>
        <time>2013-05-06T10:13:15Z</time>
      </trkpt>
      <trkpt lat="43.41589" lon="-0.52737">
        <ele>184</ele>
        <time>2013-05-06T10:13:16Z</time>
      </trkpt>
      <trkpt lat="43.41583" lon="-0.52732">
        <ele>184</ele>
        <time>2013-05-06T10:13:17Z</time>
      </trkpt>
      <trkpt lat="43.41578" lon="-0.52725">
        <ele>183</ele>
        <time>2013-05-06T10:13:18Z</time>
      </trkpt>
      <trkpt lat="43.41575" lon="-0.52719">
        <ele>183</ele>
        <time>2013-05-06T10:13:19Z</time>
      </trkpt>
      <trkpt lat="43.41573" lon="-0.52715">
        <ele>183</ele>
        <time>2013-05-06T10:13:20Z</time>
      </trkpt>
      <trkpt lat="43.41568" lon="-0.52712">
        <ele>182</ele>
        <time>2013-05-06T10:13:21Z</time>
      </trkpt>
      <trkpt lat="43.41566" lon="-0.52709">
        <ele>182</ele>
        <time>2013-05-06T10:13:22Z</time>
      </trkpt>
      <trkpt lat="43.41563" lon="-0.52708">
        <ele>182</ele>
        <time>2013-05-06T10:13:23Z</time>
      </trkpt>
      <trkpt lat="43.41563" lon="-0.52706">
        <ele>182</ele>
        <time>2013-05-06T10:13:24Z</time>
      </trkpt>
      <trkpt lat="43.41562" lon="-0.52706">
        <ele>181</ele>
        <time>2013-05-06T10:13:25Z</time>
      </trkpt>
      <trkpt lat="43.4156" lon="-0.52705">
        <ele>181</ele>
        <time>2013-05-06T10:13:26Z</time>
      </trkpt>
      <trkpt lat="43.41559" lon="-0.52704">
        <ele>180</ele>
        <time>2013-05-06T10:13:27Z</time>
      </trkpt>
      <trkpt lat="43.41558" lon="-0.52703">
        <ele>180</ele>
        <time>2013-05-06T10:13:28Z</time>
      </trkpt>
      <trkpt lat="43.41557" lon="-0.52703">
        <ele>179</ele>
        <time>2013-05-06T10:13:29Z</time>
      </trkpt>
      <trkpt lat="43.41556" lon="-0.52702">
        <ele>179</ele>
        <time>2013-05-06T10:13:30Z</time>
      </trkpt>
      <trkpt lat="43.41556" lon="-0.52701">
        <ele>178</ele>
        <time>2013-05-06T10:13:31Z</time>
      </trkpt>
      <trkpt lat="43.41555" lon="-0.52701">
        <ele>179</ele>
        <time>2013-05-06T10:13:32Z</time>
      </trkpt>
      <trkpt lat="43.41555" lon="-0.52701">
        <ele>178</ele>
        <time>2013-05-06T10:13:33Z</time>
      </trkpt>
      <trkpt lat="43.41555" lon="-0.52701">
        <ele>178</ele>
        <time>2013-05-06T10:13:34Z</time>
      </trkpt>
      <trkpt lat="43.41554" lon="-0.52701">
        <ele>178</ele>
        <time>2013-05-06T10:13:35Z</time>
      </trkpt>
      <trkpt lat="43.41554" lon="-0.52702">
        <ele>178</ele>
        <time>2013-05-06T10:13:36Z</time>
      </trkpt>
      <trkpt lat="43.41554" lon="-0.52703">
        <ele>178</ele>
        <time>2013-05-06T10:13:37Z</time>
      </trkpt>
      <trkpt lat="43.41554" lon="-0.52704">
        <ele>178</ele>
        <time>2013-05-06T10:13:38Z</time>
      </trkpt>
      <trkpt lat="43.41554" lon="-0.52704">
        <ele>178</ele>
        <time>2013-05-06T10:13:39Z</time>
      </trkpt>
      <trkpt lat="43.41553" lon="-0.52704">
        <ele>179</ele>
        <time>2013-05-06T10:13:40Z</time>
      </trkpt>
      <trkpt lat="43.41553" lon="-0.52703">
        <ele>177</ele>
        <time>2013-05-06T10:13:41Z</time>
      </trkpt>
      <trkpt lat="43.41552" lon="-0.52702">
        <ele>178</ele>
        <time>2013-05-06T10:13:42Z</time>
      </trkpt>
      <trkpt lat="43.41551" lon="-0.52701">
        <ele>177</ele>
        <time>2013-05-06T10:13:43Z</time>
      </trkpt>
      <trkpt lat="43.4155" lon="-0.527">
        <ele>178</ele>
        <time>2013-05-06T10:13:44Z</time>
      </trkpt>
      <trkpt lat="43.4155" lon="-0.52701">
        <ele>178</ele>
        <time>2013-05-06T10:13:45Z</time>
      </trkpt>
      <trkpt lat="43.41548" lon="-0.527">
        <ele>180</ele>
        <time>2013-05-06T10:13:46Z</time>
      </trkpt>
      <trkpt lat="43.41547" lon="-0.52699">
        <ele>179</ele>
        <time>2013-05-06T10:13:47Z</time>
      </trkpt>
      <trkpt lat="43.41546" lon="-0.52698">
        <ele>179</ele>
        <time>2013-05-06T10:13:48Z</time>
      </trkpt>
      <trkpt lat="43.41544" lon="-0.52697">
        <ele>179</ele>
        <time>2013-05-06T10:13:49Z</time>
      </trkpt>
      <trkpt lat="43.41544" lon="-0.52697">
        <ele>179</ele>
        <time>2013-05-06T10:13:50Z</time>
      </trkpt>
      <trkpt lat="43.41544" lon="-0.52696">
        <ele>179</ele>
        <time>2013-05-06T10:13:51Z</time>
      </trkpt>
      <trkpt lat="43.41544" lon="-0.52696">
        <ele>179</ele>
        <time>2013-05-06T10:13:52Z</time>
      </trkpt>
      <trkpt lat="43.41543" lon="-0.52696">
        <ele>179</ele>
        <time>2013-05-06T10:13:53Z</time>
      </trkpt>
      <trkpt lat="43.41543" lon="-0.52695">
        <ele>179</ele>
        <time>2013-05-06T10:13:54Z</time>
      </trkpt>
      <trkpt lat="43.41542" lon="-0.52695">
        <ele>178</ele>
        <time>2013-05-06T10:13:55Z</time>
      </trkpt>
      <trkpt lat="43.41542" lon="-0.52696">
        <ele>179</ele>
        <time>2013-05-06T10:13:56Z</time>
      </trkpt>
      <trkpt lat="43.41541" lon="-0.52696">
        <ele>179</ele>
        <time>2013-05-06T10:13:57Z</time>
      </trkpt>
      <trkpt lat="43.41539" lon="-0.52697">
        <ele>179</ele>
        <time>2013-05-06T10:13:58Z</time>
      </trkpt>
      <trkpt lat="43.41538" lon="-0.52698">
        <ele>178</ele>
        <time>2013-05-06T10:13:59Z</time>
      </trkpt>
      <trkpt lat="43.41536" lon="-0.52699">
        <ele>179</ele>
        <time>2013-05-06T10:14:00Z</time>
      </trkpt>
      <trkpt lat="43.41534" lon="-0.527">
        <ele>178</ele>
        <time>2013-05-06T10:14:01Z</time>
      </trkpt>
      <trkpt lat="43.41533" lon="-0.52702">
        <ele>178</ele>
        <time>2013-05-06T10:14:02Z</time>
      </trkpt>
      <trkpt lat="43.41532" lon="-0.52704">
        <ele>178</ele>
        <time>2013-05-06T10:14:03Z</time>
      </trkpt>
      <trkpt lat="43.41531" lon="-0.52705">
        <ele>177</ele>
        <time>2013-05-06T10:14:04Z</time>
      </trkpt>
      <trkpt lat="43.4153" lon="-0.52707">
        <ele>176</ele>
        <time>2013-05-06T10:14:05Z</time>
      </trkpt>
      <trkpt lat="43.41529" lon="-0.52708">
        <ele>175</ele>
        <time>2013-05-06T10:14:06Z</time>
      </trkpt>
      <trkpt lat="43.41529" lon="-0.52708">
        <ele>176</ele>
        <time>2013-05-06T10:14:07Z</time>
      </trkpt>
      <trkpt lat="43.41528" lon="-0.52709">
        <ele>176</ele>
        <time>2013-05-06T10:14:08Z</time>
      </trkpt>
      <trkpt lat="43.41527" lon="-0.5271">
        <ele>175</ele>
        <time>2013-05-06T10:14:09Z</time>
      </trkpt>
      <trkpt lat="43.41526" lon="-0.52711">
        <ele>175</ele>
        <time>2013-05-06T10:14:10Z</time>
      </trkpt>
      <trkpt lat="43.41525" lon="-0.52712">
        <ele>175</ele>
        <time>2013-05-06T10:14:11Z</time>
      </trkpt>
      <trkpt lat="43.41525" lon="-0.52713">
        <ele>175</ele>
        <time>2013-05-06T10:14:12Z</time>
      </trkpt>
      <trkpt lat="43.41524" lon="-0.52715">
        <ele>174</ele>
        <time>2013-05-06T10:14:13Z</time>
      </trkpt>
      <trkpt lat="43.41523" lon="-0.52716">
        <ele>174</ele>
        <time>2013-05-06T10:14:14Z</time>
      </trkpt>
      <trkpt lat="43.41523" lon="-0.52718">
        <ele>174</ele>
        <time>2013-05-06T10:14:15Z</time>
      </trkpt>
      <trkpt lat="43.41522" lon="-0.52719">
        <ele>174</ele>
        <time>2013-05-06T10:14:16Z</time>
      </trkpt>
      <trkpt lat="43.41521" lon="-0.52721">
        <ele>174</ele>
        <time>2013-05-06T10:14:17Z</time>
      </trkpt>
      <trkpt lat="43.4152" lon="-0.52723">
        <ele>174</ele>
        <time>2013-05-06T10:14:18Z</time>
      </trkpt>
      <trkpt lat="43.41519" lon="-0.52725">
        <ele>173</ele>
        <time>2013-05-06T10:14:19Z</time>
      </trkpt>
      <trkpt lat="43.41518" lon="-0.52726">
        <ele>173</ele>
        <time>2013-05-06T10:14:20Z</time>
      </trkpt>
      <trkpt lat="43.41517" lon="-0.52727">
        <ele>173</ele>
        <time>2013-05-06T10:14:21Z</time>
      </trkpt>
      <trkpt lat="43.41516" lon="-0.52729">
        <ele>173</ele>
        <time>2013-05-06T10:14:22Z</time>
      </trkpt>
      <trkpt lat="43.41515" lon="-0.52731">
        <ele>173</ele>
        <time>2013-05-06T10:14:23Z</time>
      </trkpt>
      <trkpt lat="43.41513" lon="-0.52733">
        <ele>173</ele>
        <time>2013-05-06T10:14:24Z</time>
      </trkpt>
      <trkpt lat="43.41513" lon="-0.52735">
        <ele>173</ele>
        <time>2013-05-06T10:14:25Z</time>
      </trkpt>
      <trkpt lat="43.41512" lon="-0.52737">
        <ele>173</ele>
        <time>2013-05-06T10:14:26Z</time>
      </trkpt>
      <trkpt lat="43.41511" lon="-0.52739">
        <ele>172</ele>
        <time>2013-05-06T10:14:27Z</time>
      </trkpt>
      <trkpt lat="43.4151" lon="-0.52741">
        <ele>172</ele>
        <time>2013-05-06T10:14:28Z</time>
      </trkpt>
      <trkpt lat="43.41509" lon="-0.52744">
        <ele>172</ele>
        <time>2013-05-06T10:14:29Z</time>
      </trkpt>
      <trkpt lat="43.41509" lon="-0.52747">
        <ele>170</ele>
        <time>2013-05-06T10:14:30Z</time>
      </trkpt>
      <trkpt lat="43.41508" lon="-0.52751">
        <ele>170</ele>
        <time>2013-05-06T10:14:31Z</time>
      </trkpt>
      <trkpt lat="43.41507" lon="-0.52754">
        <ele>170</ele>
        <time>2013-05-06T10:14:32Z</time>
      </trkpt>
      <trkpt lat="43.41507" lon="-0.52758">
        <ele>169</ele>
        <time>2013-05-06T10:14:33Z</time>
      </trkpt>
      <trkpt lat="43.41506" lon="-0.52761">
        <ele>170</ele>
        <time>2013-05-06T10:14:34Z</time>
      </trkpt>
      <trkpt lat="43.41505" lon="-0.52765">
        <ele>168</ele>
        <time>2013-05-06T10:14:35Z</time>
      </trkpt>
      <trkpt lat="43.41504" lon="-0.52768">
        <ele>169</ele>
        <time>2013-05-06T10:14:36Z</time>
      </trkpt>
      <trkpt lat="43.41504" lon="-0.52772">
        <ele>171</ele>
        <time>2013-05-06T10:14:37Z</time>
      </trkpt>
      <trkpt lat="43.41502" lon="-0.52776">
        <ele>170</ele>
        <time>2013-05-06T10:14:38Z</time>
      </trkpt>
      <trkpt lat="43.41501" lon="-0.5278">
        <ele>169</ele>
        <time>2013-05-06T10:14:39Z</time>
      </trkpt>
      <trkpt lat="43.41501" lon="-0.52783">
        <ele>169</ele>
        <time>2013-05-06T10:14:40Z</time>
      </trkpt>
      <trkpt lat="43.415" lon="-0.52787">
        <ele>169</ele>
        <time>2013-05-06T10:14:41Z</time>
      </trkpt>
      <trkpt lat="43.41499" lon="-0.5279">
        <ele>169</ele>
        <time>2013-05-06T10:14:42Z</time>
      </trkpt>
      <trkpt lat="43.41499" lon="-0.52792">
        <ele>169</ele>
        <time>2013-05-06T10:14:43Z</time>
      </trkpt>
      <trkpt lat="43.41498" lon="-0.52795">
        <ele>168</ele>
        <time>2013-05-06T10:14:44Z</time>
      </trkpt>
      <trkpt lat="43.41497" lon="-0.52797">
        <ele>167</ele>
        <time>2013-05-06T10:14:45Z</time>
      </trkpt>
      <trkpt lat="43.41497" lon="-0.528">
        <ele>166</ele>
        <time>2013-05-06T10:14:46Z</time>
      </trkpt>
      <trkpt lat="43.41497" lon="-0.52802">
        <ele>165</ele>
        <time>2013-05-06T10:14:47Z</time>
      </trkpt>
      <trkpt lat="43.41497" lon="-0.52807">
        <ele>164</ele>
        <time>2013-05-06T10:14:48Z</time>
      </trkpt>
      <trkpt lat="43.41496" lon="-0.5281">
        <ele>165</ele>
        <time>2013-05-06T10:14:49Z</time>
      </trkpt>
      <trkpt lat="43.41496" lon="-0.52813">
        <ele>165</ele>
        <time>2013-05-06T10:14:50Z</time>
      </trkpt>
      <trkpt lat="43.41496" lon="-0.52817">
        <ele>165</ele>
        <time>2013-05-06T10:14:51Z</time>
      </trkpt>
      <trkpt lat="43.41495" lon="-0.5282">
        <ele>166</ele>
        <time>2013-05-06T10:14:52Z</time>
      </trkpt>
      <trkpt lat="43.41495" lon="-0.52823">
        <ele>166</ele>
        <time>2013-05-06T10:14:53Z</time>
      </trkpt>
      <trkpt lat="43.41495" lon="-0.52825">
        <ele>166</ele>
        <time>2013-05-06T10:14:54Z</time>
      </trkpt>
      <trkpt lat="43.41495" lon="-0.52827">
        <ele>165</ele>
        <time>2013-05-06T10:14:55Z</time>
      </trkpt>
      <trkpt lat="43.41495" lon="-0.52829">
        <ele>165</ele>
        <time>2013-05-06T10:14:56Z</time>
      </trkpt>
      <trkpt lat="43.41494" lon="-0.52831">
        <ele>164</ele>
        <time>2013-05-06T10:14:57Z</time>
      </trkpt>
      <trkpt lat="43.41494" lon="-0.52833">
        <ele>164</ele>
        <time>2013-05-06T10:14:58Z</time>
      </trkpt>
      <trkpt lat="43.41495" lon="-0.52835">
        <ele>164</ele>
        <time>2013-05-06T10:14:59Z</time>
      </trkpt>
      <trkpt lat="43.41496" lon="-0.52836">
        <ele>164</ele>
        <time>2013-05-06T10:15:00Z</time>
      </trkpt>
      <trkpt lat="43.41497" lon="-0.52838">
        <ele>163</ele>
        <time>2013-05-06T10:15:01Z</time>
      </trkpt>
      <trkpt lat="43.41497" lon="-0.52839">
        <ele>163</ele>
        <time>2013-05-06T10:15:02Z</time>
      </trkpt>
      <trkpt lat="43.41499" lon="-0.52841">
        <ele>162</ele>
        <time>2013-05-06T10:15:03Z</time>
      </trkpt>
      <trkpt lat="43.415" lon="-0.52842">
        <ele>162</ele>
        <time>2013-05-06T10:15:04Z</time>
      </trkpt>
      <trkpt lat="43.41501" lon="-0.52844">
        <ele>162</ele>
        <time>2013-05-06T10:15:05Z</time>
      </trkpt>
      <trkpt lat="43.41502" lon="-0.52846">
        <ele>162</ele>
        <time>2013-05-06T10:15:06Z</time>
      </trkpt>
      <trkpt lat="43.41504" lon="-0.52849">
        <ele>162</ele>
        <time>2013-05-06T10:15:07Z</time>
      </trkpt>
      <trkpt lat="43.41504" lon="-0.52851">
        <ele>161</ele>
        <time>2013-05-06T10:15:08Z</time>
      </trkpt>
      <trkpt lat="43.41505" lon="-0.52854">
        <ele>160</ele>
        <time>2013-05-06T10:15:09Z</time>
      </trkpt>
      <trkpt lat="43.41505" lon="-0.52857">
        <ele>161</ele>
        <time>2013-05-06T10:15:10Z</time>
      </trkpt>
      <trkpt lat="43.41506" lon="-0.5286">
        <ele>160</ele>
        <time>2013-05-06T10:15:11Z</time>
      </trkpt>
      <trkpt lat="43.41506" lon="-0.52864">
        <ele>161</ele>
        <time>2013-05-06T10:15:12Z</time>
      </trkpt>
      <trkpt lat="43.41506" lon="-0.52866">
        <ele>161</ele>
        <time>2013-05-06T10:15:13Z</time>
      </trkpt>
      <trkpt lat="43.41506" lon="-0.52868">
        <ele>162</ele>
        <time>2013-05-06T10:15:14Z</time>
      </trkpt>
      <trkpt lat="43.41506" lon="-0.5287">
        <ele>162</ele>
        <time>2013-05-06T10:15:15Z</time>
      </trkpt>
      <trkpt lat="43.41506" lon="-0.52872">
        <ele>163</ele>
        <time>2013-05-06T10:15:16Z</time>
      </trkpt>
      <trkpt lat="43.41506" lon="-0.52874">
        <ele>163</ele>
        <time>2013-05-06T10:15:17Z</time>
      </trkpt>
      <trkpt lat="43.41506" lon="-0.52877">
        <ele>162</ele>
        <time>2013-05-06T10:15:18Z</time>
      </trkpt>
      <trkpt lat="43.41507" lon="-0.52879">
        <ele>162</ele>
        <time>2013-05-06T10:15:19Z</time>
      </trkpt>
      <trkpt lat="43.41507" lon="-0.52884">
        <ele>162</ele>
        <time>2013-05-06T10:15:20Z</time>
      </trkpt>
      <trkpt lat="43.41508" lon="-0.52887">
        <ele>162</ele>
        <time>2013-05-06T10:15:21Z</time>
      </trkpt>
      <trkpt lat="43.41508" lon="-0.52889">
        <ele>163</ele>
        <time>2013-05-06T10:15:22Z</time>
      </trkpt>
      <trkpt lat="43.41508" lon="-0.52891">
        <ele>162</ele>
        <time>2013-05-06T10:15:23Z</time>
      </trkpt>
      <trkpt lat="43.41509" lon="-0.52894">
        <ele>163</ele>
        <time>2013-05-06T10:15:24Z</time>
      </trkpt>
      <trkpt lat="43.41511" lon="-0.52897">
        <ele>164</ele>
        <time>2013-05-06T10:15:25Z</time>
      </trkpt>
      <trkpt lat="43.41512" lon="-0.529">
        <ele>163</ele>
        <time>2013-05-06T10:15:26Z</time>
      </trkpt>
      <trkpt lat="43.41514" lon="-0.52904">
        <ele>158</ele>
        <time>2013-05-06T10:15:27Z</time>
      </trkpt>
      <trkpt lat="43.41516" lon="-0.52908">
        <ele>155</ele>
        <time>2013-05-06T10:15:28Z</time>
      </trkpt>
      <trkpt lat="43.41518" lon="-0.52912">
        <ele>155</ele>
        <time>2013-05-06T10:15:29Z</time>
      </trkpt>
      <trkpt lat="43.4152" lon="-0.52916">
        <ele>154</ele>
        <time>2013-05-06T10:15:30Z</time>
      </trkpt>
      <trkpt lat="43.41522" lon="-0.5292">
        <ele>154</ele>
        <time>2013-05-06T10:15:31Z</time>
      </trkpt>
      <trkpt lat="43.41523" lon="-0.52923">
        <ele>154</ele>
        <time>2013-05-06T10:15:32Z</time>
      </trkpt>
      <trkpt lat="43.41525" lon="-0.52926">
        <ele>153</ele>
        <time>2013-05-06T10:15:33Z</time>
      </trkpt>
      <trkpt lat="43.41525" lon="-0.52927">
        <ele>153</ele>
        <time>2013-05-06T10:15:34Z</time>
      </trkpt>
      <trkpt lat="43.41527" lon="-0.5293">
        <ele>154</ele>
        <time>2013-05-06T10:15:35Z</time>
      </trkpt>
      <trkpt lat="43.41529" lon="-0.52933">
        <ele>155</ele>
        <time>2013-05-06T10:15:36Z</time>
      </trkpt>
      <trkpt lat="43.4153" lon="-0.52935">
        <ele>155</ele>
        <time>2013-05-06T10:15:37Z</time>
      </trkpt>
      <trkpt lat="43.41531" lon="-0.52937">
        <ele>155</ele>
        <time>2013-05-06T10:15:38Z</time>
      </trkpt>
      <trkpt lat="43.41531" lon="-0.52938">
        <ele>155</ele>
        <time>2013-05-06T10:15:39Z</time>
      </trkpt>
      <trkpt lat="43.41532" lon="-0.52939">
        <ele>154</ele>
        <time>2013-05-06T10:15:40Z</time>
      </trkpt>
      <trkpt lat="43.41532" lon="-0.5294">
        <ele>155</ele>
        <time>2013-05-06T10:15:41Z</time>
      </trkpt>
      <trkpt lat="43.41532" lon="-0.52942">
        <ele>155</ele>
        <time>2013-05-06T10:15:42Z</time>
      </trkpt>
      <trkpt lat="43.41532" lon="-0.52943">
        <ele>156</ele>
        <time>2013-05-06T10:15:43Z</time>
      </trkpt>
      <trkpt lat="43.41531" lon="-0.52945">
        <ele>156</ele>
        <time>2013-05-06T10:15:44Z</time>
      </trkpt>
      <trkpt lat="43.41531" lon="-0.52947">
        <ele>156</ele>
        <time>2013-05-06T10:15:45Z</time>
      </trkpt>
      <trkpt lat="43.41531" lon="-0.52949">
        <ele>157</ele>
        <time>2013-05-06T10:15:46Z</time>
      </trkpt>
      <trkpt lat="43.41531" lon="-0.52951">
        <ele>158</ele>
        <time>2013-05-06T10:15:47Z</time>
      </trkpt>
      <trkpt lat="43.41531" lon="-0.52953">
        <ele>157</ele>
        <time>2013-05-06T10:15:48Z</time>
      </trkpt>
      <trkpt lat="43.41532" lon="-0.52956">
        <ele>157</ele>
        <time>2013-05-06T10:15:49Z</time>
      </trkpt>
      <trkpt lat="43.41532" lon="-0.52958">
        <ele>158</ele>
        <time>2013-05-06T10:15:50Z</time>
      </trkpt>
      <trkpt lat="43.41532" lon="-0.52962">
        <ele>158</ele>
        <time>2013-05-06T10:15:51Z</time>
      </trkpt>
      <trkpt lat="43.41532" lon="-0.52964">
        <ele>159</ele>
        <time>2013-05-06T10:15:52Z</time>
      </trkpt>
      <trkpt lat="43.41532" lon="-0.52966">
        <ele>159</ele>
        <time>2013-05-06T10:15:53Z</time>
      </trkpt>
      <trkpt lat="43.41533" lon="-0.52967">
        <ele>159</ele>
        <time>2013-05-06T10:15:54Z</time>
      </trkpt>
      <trkpt lat="43.41533" lon="-0.52968">
        <ele>159</ele>
        <time>2013-05-06T10:15:55Z</time>
      </trkpt>
      <trkpt lat="43.41534" lon="-0.5297">
        <ele>158</ele>
        <time>2013-05-06T10:15:56Z</time>
      </trkpt>
      <trkpt lat="43.41535" lon="-0.52971">
        <ele>158</ele>
        <time>2013-05-06T10:15:57Z</time>
      </trkpt>
      <trkpt lat="43.41536" lon="-0.52973">
        <ele>159</ele>
        <time>2013-05-06T10:15:58Z</time>
      </trkpt>
      <trkpt lat="43.41537" lon="-0.52975">
        <ele>160</ele>
        <time>2013-05-06T10:15:59Z</time>
      </trkpt>
      <trkpt lat="43.41538" lon="-0.52978">
        <ele>160</ele>
        <time>2013-05-06T10:16:00Z</time>
      </trkpt>
      <trkpt lat="43.41539" lon="-0.52981">
        <ele>161</ele>
        <time>2013-05-06T10:16:01Z</time>
      </trkpt>
      <trkpt lat="43.41541" lon="-0.52983">
        <ele>160</ele>
        <time>2013-05-06T10:16:02Z</time>
      </trkpt>
      <trkpt lat="43.41542" lon="-0.52986">
        <ele>161</ele>
        <time>2013-05-06T10:16:03Z</time>
      </trkpt>
      <trkpt lat="43.41544" lon="-0.52989">
        <ele>161</ele>
        <time>2013-05-06T10:16:04Z</time>
      </trkpt>
      <trkpt lat="43.41546" lon="-0.52992">
        <ele>161</ele>
        <time>2013-05-06T10:16:05Z</time>
      </trkpt>
      <trkpt lat="43.41547" lon="-0.52994">
        <ele>161</ele>
        <time>2013-05-06T10:16:06Z</time>
      </trkpt>
      <trkpt lat="43.41548" lon="-0.52997">
        <ele>162</ele>
        <time>2013-05-06T10:16:07Z</time>
      </trkpt>
      <trkpt lat="43.41549" lon="-0.53">
        <ele>162</ele>
        <time>2013-05-06T10:16:08Z</time>
      </trkpt>
      <trkpt lat="43.4155" lon="-0.53003">
        <ele>161</ele>
        <time>2013-05-06T10:16:09Z</time>
      </trkpt>
      <trkpt lat="43.41551" lon="-0.53007">
        <ele>162</ele>
        <time>2013-05-06T10:16:10Z</time>
      </trkpt>
      <trkpt lat="43.41552" lon="-0.53013">
        <ele>163</ele>
        <time>2013-05-06T10:16:11Z</time>
      </trkpt>
      <trkpt lat="43.41554" lon="-0.53017">
        <ele>163</ele>
        <time>2013-05-06T10:16:12Z</time>
      </trkpt>
      <trkpt lat="43.41555" lon="-0.53021">
        <ele>162</ele>
        <time>2013-05-06T10:16:13Z</time>
      </trkpt>
      <trkpt lat="43.41556" lon="-0.53025">
        <ele>163</ele>
        <time>2013-05-06T10:16:14Z</time>
      </trkpt>
      <trkpt lat="43.41557" lon="-0.53028">
        <ele>164</ele>
        <time>2013-05-06T10:16:15Z</time>
      </trkpt>
      <trkpt lat="43.41558" lon="-0.53032">
        <ele>163</ele>
        <time>2013-05-06T10:16:16Z</time>
      </trkpt>
      <trkpt lat="43.41559" lon="-0.53036">
        <ele>164</ele>
        <time>2013-05-06T10:16:17Z</time>
      </trkpt>
      <trkpt lat="43.4156" lon="-0.53041">
        <ele>164</ele>
        <time>2013-05-06T10:16:18Z</time>
      </trkpt>
      <trkpt lat="43.4156" lon="-0.53046">
        <ele>163</ele>
        <time>2013-05-06T10:16:19Z</time>
      </trkpt>
      <trkpt lat="43.41562" lon="-0.5305">
        <ele>163</ele>
        <time>2013-05-06T10:16:20Z</time>
      </trkpt>
      <trkpt lat="43.41563" lon="-0.53055">
        <ele>163</ele>
        <time>2013-05-06T10:16:21Z</time>
      </trkpt>
      <trkpt lat="43.41564" lon="-0.5306">
        <ele>164</ele>
        <time>2013-05-06T10:16:22Z</time>
      </trkpt>
      <trkpt lat="43.41565" lon="-0.53065">
        <ele>165</ele>
        <time>2013-05-06T10:16:23Z</time>
      </trkpt>
      <trkpt lat="43.41567" lon="-0.53071">
        <ele>163</ele>
        <time>2013-05-06T10:16:24Z</time>
      </trkpt>
      <trkpt lat="43.41568" lon="-0.53075">
        <ele>163</ele>
        <time>2013-05-06T10:16:25Z</time>
      </trkpt>
      <trkpt lat="43.41568" lon="-0.53081">
        <ele>163</ele>
        <time>2013-05-06T10:16:26Z</time>
      </trkpt>
      <trkpt lat="43.41569" lon="-0.53086">
        <ele>164</ele>
        <time>2013-05-06T10:16:27Z</time>
      </trkpt>
      <trkpt lat="43.41569" lon="-0.53091">
        <ele>165</ele>
        <time>2013-05-06T10:16:28Z</time>
      </trkpt>
      <trkpt lat="43.41568" lon="-0.53096">
        <ele>165</ele>
        <time>2013-05-06T10:16:29Z</time>
      </trkpt>
      <trkpt lat="43.41568" lon="-0.53101">
        <ele>164</ele>
        <time>2013-05-06T10:16:30Z</time>
      </trkpt>
      <trkpt lat="43.41566" lon="-0.53105">
        <ele>166</ele>
        <time>2013-05-06T10:16:31Z</time>
      </trkpt>
      <trkpt lat="43.41565" lon="-0.5311">
        <ele>166</ele>
        <time>2013-05-06T10:16:32Z</time>
      </trkpt>
      <trkpt lat="43.41563" lon="-0.53115">
        <ele>168</ele>
        <time>2013-05-06T10:16:33Z</time>
      </trkpt>
      <trkpt lat="43.41562" lon="-0.53119">
        <ele>169</ele>
        <time>2013-05-06T10:16:34Z</time>
      </trkpt>
      <trkpt lat="43.41562" lon="-0.53123">
        <ele>168</ele>
        <time>2013-05-06T10:16:35Z</time>
      </trkpt>
      <trkpt lat="43.41562" lon="-0.53126">
        <ele>168</ele>
        <time>2013-05-06T10:16:36Z</time>
      </trkpt>
      <trkpt lat="43.41563" lon="-0.5313">
        <ele>168</ele>
        <time>2013-05-06T10:16:37Z</time>
      </trkpt>
      <trkpt lat="43.41563" lon="-0.53134">
        <ele>169</ele>
        <time>2013-05-06T10:16:38Z</time>
      </trkpt>
      <trkpt lat="43.41565" lon="-0.53139">
        <ele>170</ele>
        <time>2013-05-06T10:16:39Z</time>
      </trkpt>
      <trkpt lat="43.41565" lon="-0.53142">
        <ele>170</ele>
        <time>2013-05-06T10:16:40Z</time>
      </trkpt>
      <trkpt lat="43.41566" lon="-0.53146">
        <ele>171</ele>
        <time>2013-05-06T10:16:41Z</time>
      </trkpt>
      <trkpt lat="43.41566" lon="-0.53148">
        <ele>171</ele>
        <time>2013-05-06T10:16:42Z</time>
      </trkpt>
      <trkpt lat="43.41567" lon="-0.53151">
        <ele>171</ele>
        <time>2013-05-06T10:16:43Z</time>
      </trkpt>
      <trkpt lat="43.41567" lon="-0.53154">
        <ele>172</ele>
        <time>2013-05-06T10:16:44Z</time>
      </trkpt>
      <trkpt lat="43.41568" lon="-0.53157">
        <ele>172</ele>
        <time>2013-05-06T10:16:45Z</time>
      </trkpt>
      <trkpt lat="43.41568" lon="-0.5316">
        <ele>172</ele>
        <time>2013-05-06T10:16:46Z</time>
      </trkpt>
      <trkpt lat="43.41568" lon="-0.53162">
        <ele>172</ele>
        <time>2013-05-06T10:16:47Z</time>
      </trkpt>
      <trkpt lat="43.41567" lon="-0.53164">
        <ele>171</ele>
        <time>2013-05-06T10:16:48Z</time>
      </trkpt>
      <trkpt lat="43.41567" lon="-0.53166">
        <ele>172</ele>
        <time>2013-05-06T10:16:49Z</time>
      </trkpt>
      <trkpt lat="43.41565" lon="-0.53169">
        <ele>172</ele>
        <time>2013-05-06T10:16:50Z</time>
      </trkpt>
      <trkpt lat="43.41565" lon="-0.53171">
        <ele>172</ele>
        <time>2013-05-06T10:16:51Z</time>
      </trkpt>
      <trkpt lat="43.41563" lon="-0.53174">
        <ele>172</ele>
        <time>2013-05-06T10:16:52Z</time>
      </trkpt>
      <trkpt lat="43.41562" lon="-0.53176">
        <ele>172</ele>
        <time>2013-05-06T10:16:53Z</time>
      </trkpt>
      <trkpt lat="43.41561" lon="-0.53179">
        <ele>174</ele>
        <time>2013-05-06T10:16:54Z</time>
      </trkpt>
      <trkpt lat="43.4156" lon="-0.53181">
        <ele>173</ele>
        <time>2013-05-06T10:16:55Z</time>
      </trkpt>
      <trkpt lat="43.41557" lon="-0.53184">
        <ele>174</ele>
        <time>2013-05-06T10:16:56Z</time>
      </trkpt>
      <trkpt lat="43.41555" lon="-0.53186">
        <ele>174</ele>
        <time>2013-05-06T10:16:57Z</time>
      </trkpt>
      <trkpt lat="43.41553" lon="-0.53189">
        <ele>175</ele>
        <time>2013-05-06T10:16:58Z</time>
      </trkpt>
      <trkpt lat="43.41551" lon="-0.53192">
        <ele>175</ele>
        <time>2013-05-06T10:16:59Z</time>
      </trkpt>
      <trkpt lat="43.4155" lon="-0.53194">
        <ele>175</ele>
        <time>2013-05-06T10:17:00Z</time>
      </trkpt>
      <trkpt lat="43.41548" lon="-0.53195">
        <ele>176</ele>
        <time>2013-05-06T10:17:01Z</time>
      </trkpt>
      <trkpt lat="43.41547" lon="-0.53196">
        <ele>177</ele>
        <time>2013-05-06T10:17:02Z</time>
      </trkpt>
      <trkpt lat="43.41545" lon="-0.53198">
        <ele>176</ele>
        <time>2013-05-06T10:17:03Z</time>
      </trkpt>
      <trkpt lat="43.41544" lon="-0.53199">
        <ele>178</ele>
        <time>2013-05-06T10:17:04Z</time>
      </trkpt>
      <trkpt lat="43.41542" lon="-0.53201">
        <ele>178</ele>
        <time>2013-05-06T10:17:05Z</time>
      </trkpt>
      <trkpt lat="43.41541" lon="-0.53201">
        <ele>180</ele>
        <time>2013-05-06T10:17:06Z</time>
      </trkpt>
      <trkpt lat="43.41539" lon="-0.53202">
        <ele>182</ele>
        <time>2013-05-06T10:17:07Z</time>
      </trkpt>
      <trkpt lat="43.41538" lon="-0.53202">
        <ele>183</ele>
        <time>2013-05-06T10:17:08Z</time>
      </trkpt>
      <trkpt lat="43.41537" lon="-0.53202">
        <ele>185</ele>
        <time>2013-05-06T10:17:09Z</time>
      </trkpt>
      <trkpt lat="43.41536" lon="-0.53201">
        <ele>187</ele>
        <time>2013-05-06T10:17:10Z</time>
      </trkpt>
      <trkpt lat="43.41535" lon="-0.53201">
        <ele>188</ele>
        <time>2013-05-06T10:17:11Z</time>
      </trkpt>
      <trkpt lat="43.41535" lon="-0.532">
        <ele>188</ele>
        <time>2013-05-06T10:17:12Z</time>
      </trkpt>
      <trkpt lat="43.41534" lon="-0.532">
        <ele>189</ele>
        <time>2013-05-06T10:17:13Z</time>
      </trkpt>
      <trkpt lat="43.41534" lon="-0.53199">
        <ele>190</ele>
        <time>2013-05-06T10:17:14Z</time>
      </trkpt>
      <trkpt lat="43.41533" lon="-0.53199">
        <ele>190</ele>
        <time>2013-05-06T10:17:15Z</time>
      </trkpt>
      <trkpt lat="43.41531" lon="-0.53199">
        <ele>191</ele>
        <time>2013-05-06T10:17:16Z</time>
      </trkpt>
      <trkpt lat="43.4153" lon="-0.53198">
        <ele>190</ele>
        <time>2013-05-06T10:17:17Z</time>
      </trkpt>
      <trkpt lat="43.41528" lon="-0.53198">
        <ele>190</ele>
        <time>2013-05-06T10:17:18Z</time>
      </trkpt>
      <trkpt lat="43.41524" lon="-0.53198">
        <ele>187</ele>
        <time>2013-05-06T10:17:19Z</time>
      </trkpt>
      <trkpt lat="43.41522" lon="-0.53198">
        <ele>187</ele>
        <time>2013-05-06T10:17:20Z</time>
      </trkpt>
      <trkpt lat="43.41518" lon="-0.53198">
        <ele>190</ele>
        <time>2013-05-06T10:17:21Z</time>
      </trkpt>
      <trkpt lat="43.41516" lon="-0.53198">
        <ele>190</ele>
        <time>2013-05-06T10:17:22Z</time>
      </trkpt>
      <trkpt lat="43.41513" lon="-0.53199">
        <ele>188</ele>
        <time>2013-05-06T10:17:23Z</time>
      </trkpt>
      <trkpt lat="43.4151" lon="-0.53199">
        <ele>188</ele>
        <time>2013-05-06T10:17:24Z</time>
      </trkpt>
      <trkpt lat="43.41508" lon="-0.53199">
        <ele>189</ele>
        <time>2013-05-06T10:17:25Z</time>
      </trkpt>
      <trkpt lat="43.41505" lon="-0.532">
        <ele>189</ele>
        <time>2013-05-06T10:17:26Z</time>
      </trkpt>
      <trkpt lat="43.41504" lon="-0.53199">
        <ele>188</ele>
        <time>2013-05-06T10:17:27Z</time>
      </trkpt>
      <trkpt lat="43.41501" lon="-0.53198">
        <ele>188</ele>
        <time>2013-05-06T10:17:28Z</time>
      </trkpt>
      <trkpt lat="43.41499" lon="-0.53197">
        <ele>188</ele>
        <time>2013-05-06T10:17:29Z</time>
      </trkpt>
      <trkpt lat="43.41498" lon="-0.53196">
        <ele>187</ele>
        <time>2013-05-06T10:17:30Z</time>
      </trkpt>
      <trkpt lat="43.41497" lon="-0.53195">
        <ele>187</ele>
        <time>2013-05-06T10:17:31Z</time>
      </trkpt>
      <trkpt lat="43.41496" lon="-0.53195">
        <ele>187</ele>
        <time>2013-05-06T10:17:32Z</time>
      </trkpt>
      <trkpt lat="43.41495" lon="-0.53194">
        <ele>187</ele>
        <time>2013-05-06T10:17:33Z</time>
      </trkpt>
      <trkpt lat="43.41495" lon="-0.53194">
        <ele>187</ele>
        <time>2013-05-06T10:17:34Z</time>
      </trkpt>
      <trkpt lat="43.41494" lon="-0.53195">
        <ele>186</ele>
        <time>2013-05-06T10:17:35Z</time>
      </trkpt>
      <trkpt lat="43.41493" lon="-0.53195">
        <ele>187</ele>
        <time>2013-05-06T10:17:36Z</time>
      </trkpt>
      <trkpt lat="43.41492" lon="-0.53196">
        <ele>187</ele>
        <time>2013-05-06T10:17:37Z</time>
      </trkpt>
      <trkpt lat="43.41491" lon="-0.53197">
        <ele>187</ele>
        <time>2013-05-06T10:17:38Z</time>
      </trkpt>
      <trkpt lat="43.41489" lon="-0.53197">
        <ele>188</ele>
        <time>2013-05-06T10:17:39Z</time>
      </trkpt>
      <trkpt lat="43.41487" lon="-0.53198">
        <ele>188</ele>
        <time>2013-05-06T10:17:40Z</time>
      </trkpt>
      <trkpt lat="43.41484" lon="-0.53198">
        <ele>188</ele>
        <time>2013-05-06T10:17:41Z</time>
      </trkpt>
      <trkpt lat="43.41482" lon="-0.53198">
        <ele>188</ele>
        <time>2013-05-06T10:17:42Z</time>
      </trkpt>
      <trkpt lat="43.4148" lon="-0.53197">
        <ele>187</ele>
        <time>2013-05-06T10:17:43Z</time>
      </trkpt>
      <trkpt lat="43.41478" lon="-0.53196">
        <ele>187</ele>
        <time>2013-05-06T10:17:44Z</time>
      </trkpt>
      <trkpt lat="43.41476" lon="-0.53195">
        <ele>187</ele>
        <time>2013-05-06T10:17:45Z</time>
      </trkpt>
      <trkpt lat="43.41475" lon="-0.53195">
        <ele>187</ele>
        <time>2013-05-06T10:17:46Z</time>
      </trkpt>
      <trkpt lat="43.41474" lon="-0.53195">
        <ele>187</ele>
        <time>2013-05-06T10:17:47Z</time>
      </trkpt>
      <trkpt lat="43.41473" lon="-0.53195">
        <ele>187</ele>
        <time>2013-05-06T10:17:48Z</time>
      </trkpt>
      <trkpt lat="43.41473" lon="-0.53196">
        <ele>185</ele>
        <time>2013-05-06T10:17:49Z</time>
      </trkpt>
      <trkpt lat="43.41473" lon="-0.53196">
        <ele>185</ele>
        <time>2013-05-06T10:17:50Z</time>
      </trkpt>
      <trkpt lat="43.41474" lon="-0.53197">
        <ele>185</ele>
        <time>2013-05-06T10:17:51Z</time>
      </trkpt>
      <trkpt lat="43.41474" lon="-0.53198">
        <ele>185</ele>
        <time>2013-05-06T10:17:52Z</time>
      </trkpt>
      <trkpt lat="43.41475" lon="-0.53199">
        <ele>185</ele>
        <time>2013-05-06T10:17:53Z</time>
      </trkpt>
      <trkpt lat="43.41475" lon="-0.53199">
        <ele>185</ele>
        <time>2013-05-06T10:17:54Z</time>
      </trkpt>
      <trkpt lat="43.41476" lon="-0.532">
        <ele>186</ele>
        <time>2013-05-06T10:17:55Z</time>
      </trkpt>
      <trkpt lat="43.41476" lon="-0.532">
        <ele>186</ele>
        <time>2013-05-06T10:17:56Z</time>
      </trkpt>
      <trkpt lat="43.41477" lon="-0.53201">
        <ele>185</ele>
        <time>2013-05-06T10:17:57Z</time>
      </trkpt>
      <trkpt lat="43.41477" lon="-0.53202">
        <ele>185</ele>
        <time>2013-05-06T10:17:58Z</time>
      </trkpt>
      <trkpt lat="43.41478" lon="-0.53203">
        <ele>186</ele>
        <time>2013-05-06T10:17:59Z</time>
      </trkpt>
      <trkpt lat="43.41478" lon="-0.53204">
        <ele>186</ele>
        <time>2013-05-06T10:18:00Z</time>
      </trkpt>
      <trkpt lat="43.41478" lon="-0.53205">
        <ele>187</ele>
        <time>2013-05-06T10:18:01Z</time>
      </trkpt>
      <trkpt lat="43.41477" lon="-0.53206">
        <ele>187</ele>
        <time>2013-05-06T10:18:02Z</time>
      </trkpt>
      <trkpt lat="43.41477" lon="-0.53208">
        <ele>188</ele>
        <time>2013-05-06T10:18:03Z</time>
      </trkpt>
      <trkpt lat="43.41478" lon="-0.53209">
        <ele>188</ele>
        <time>2013-05-06T10:18:04Z</time>
      </trkpt>
      <trkpt lat="43.41478" lon="-0.53211">
        <ele>187</ele>
        <time>2013-05-06T10:18:05Z</time>
      </trkpt>
      <trkpt lat="43.41478" lon="-0.53213">
        <ele>187</ele>
        <time>2013-05-06T10:18:06Z</time>
      </trkpt>
      <trkpt lat="43.41479" lon="-0.53214">
        <ele>187</ele>
        <time>2013-05-06T10:18:07Z</time>
      </trkpt>
      <trkpt lat="43.41479" lon="-0.53216">
        <ele>188</ele>
        <time>2013-05-06T10:18:08Z</time>
      </trkpt>
      <trkpt lat="43.41479" lon="-0.53218">
        <ele>189</ele>
        <time>2013-05-06T10:18:09Z</time>
      </trkpt>
      <trkpt lat="43.4148" lon="-0.5322">
        <ele>189</ele>
        <time>2013-05-06T10:18:10Z</time>
      </trkpt>
      <trkpt lat="43.4148" lon="-0.53222">
        <ele>188</ele>
        <time>2013-05-06T10:18:11Z</time>
      </trkpt>
      <trkpt lat="43.41479" lon="-0.53225">
        <ele>189</ele>
        <time>2013-05-06T10:18:12Z</time>
      </trkpt>
      <trkpt lat="43.41478" lon="-0.5323">
        <ele>187</ele>
        <time>2013-05-06T10:18:13Z</time>
      </trkpt>
      <trkpt lat="43.41476" lon="-0.53233">
        <ele>187</ele>
        <time>2013-05-06T10:18:14Z</time>
      </trkpt>
      <trkpt lat="43.41475" lon="-0.53237">
        <ele>188</ele>
        <time>2013-05-06T10:18:15Z</time>
      </trkpt>
      <trkpt lat="43.41473" lon="-0.53239">
        <ele>188</ele>
        <time>2013-05-06T10:18:16Z</time>
      </trkpt>
      <trkpt lat="43.41471" lon="-0.53242">
        <ele>189</ele>
        <time>2013-05-06T10:18:17Z</time>
      </trkpt>
      <trkpt lat="43.41469" lon="-0.53244">
        <ele>190</ele>
        <time>2013-05-06T10:18:18Z</time>
      </trkpt>
      <trkpt lat="43.41467" lon="-0.53245">
        <ele>191</ele>
        <time>2013-05-06T10:18:19Z</time>
      </trkpt>
      <trkpt lat="43.41465" lon="-0.53247">
        <ele>191</ele>
        <time>2013-05-06T10:18:20Z</time>
      </trkpt>
      <trkpt lat="43.41463" lon="-0.53249">
        <ele>191</ele>
        <time>2013-05-06T10:18:21Z</time>
      </trkpt>
      <trkpt lat="43.41462" lon="-0.53251">
        <ele>190</ele>
        <time>2013-05-06T10:18:22Z</time>
      </trkpt>
      <trkpt lat="43.4146" lon="-0.53253">
        <ele>191</ele>
        <time>2013-05-06T10:18:23Z</time>
      </trkpt>
      <trkpt lat="43.41459" lon="-0.53255">
        <ele>193</ele>
        <time>2013-05-06T10:18:24Z</time>
      </trkpt>
      <trkpt lat="43.41458" lon="-0.53258">
        <ele>193</ele>
        <time>2013-05-06T10:18:25Z</time>
      </trkpt>
      <trkpt lat="43.41457" lon="-0.5326">
        <ele>193</ele>
        <time>2013-05-06T10:18:26Z</time>
      </trkpt>
      <trkpt lat="43.41456" lon="-0.53262">
        <ele>193</ele>
        <time>2013-05-06T10:18:27Z</time>
      </trkpt>
      <trkpt lat="43.41455" lon="-0.53264">
        <ele>192</ele>
        <time>2013-05-06T10:18:28Z</time>
      </trkpt>
      <trkpt lat="43.41454" lon="-0.53266">
        <ele>191</ele>
        <time>2013-05-06T10:18:29Z</time>
      </trkpt>
      <trkpt lat="43.41453" lon="-0.53268">
        <ele>191</ele>
        <time>2013-05-06T10:18:30Z</time>
      </trkpt>
      <trkpt lat="43.41452" lon="-0.53271">
        <ele>191</ele>
        <time>2013-05-06T10:18:31Z</time>
      </trkpt>
      <trkpt lat="43.41452" lon="-0.53273">
        <ele>190</ele>
        <time>2013-05-06T10:18:32Z</time>
      </trkpt>
      <trkpt lat="43.4145" lon="-0.53276">
        <ele>191</ele>
        <time>2013-05-06T10:18:33Z</time>
      </trkpt>
      <trkpt lat="43.41449" lon="-0.53278">
        <ele>191</ele>
        <time>2013-05-06T10:18:34Z</time>
      </trkpt>
      <trkpt lat="43.41448" lon="-0.53281">
        <ele>191</ele>
        <time>2013-05-06T10:18:35Z</time>
      </trkpt>
      <trkpt lat="43.41447" lon="-0.53283">
        <ele>192</ele>
        <time>2013-05-06T10:18:36Z</time>
      </trkpt>
      <trkpt lat="43.41446" lon="-0.53285">
        <ele>192</ele>
        <time>2013-05-06T10:18:37Z</time>
      </trkpt>
      <trkpt lat="43.41445" lon="-0.53287">
        <ele>192</ele>
        <time>2013-05-06T10:18:38Z</time>
      </trkpt>
      <trkpt lat="43.41444" lon="-0.5329">
        <ele>192</ele>
        <time>2013-05-06T10:18:39Z</time>
      </trkpt>
      <trkpt lat="43.41444" lon="-0.53292">
        <ele>192</ele>
        <time>2013-05-06T10:18:40Z</time>
      </trkpt>
      <trkpt lat="43.41443" lon="-0.53294">
        <ele>193</ele>
        <time>2013-05-06T10:18:41Z</time>
      </trkpt>
      <trkpt lat="43.41442" lon="-0.53296">
        <ele>193</ele>
        <time>2013-05-06T10:18:42Z</time>
      </trkpt>
      <trkpt lat="43.41441" lon="-0.53298">
        <ele>193</ele>
        <time>2013-05-06T10:18:43Z</time>
      </trkpt>
      <trkpt lat="43.4144" lon="-0.533">
        <ele>193</ele>
        <time>2013-05-06T10:18:44Z</time>
      </trkpt>
      <trkpt lat="43.41439" lon="-0.53303">
        <ele>193</ele>
        <time>2013-05-06T10:18:45Z</time>
      </trkpt>
      <trkpt lat="43.41438" lon="-0.53305">
        <ele>192</ele>
        <time>2013-05-06T10:18:46Z</time>
      </trkpt>
      <trkpt lat="43.41438" lon="-0.53308">
        <ele>193</ele>
        <time>2013-05-06T10:18:47Z</time>
      </trkpt>
      <trkpt lat="43.41437" lon="-0.53311">
        <ele>193</ele>
        <time>2013-05-06T10:18:48Z</time>
      </trkpt>
      <trkpt lat="43.41436" lon="-0.53314">
        <ele>193</ele>
        <time>2013-05-06T10:18:49Z</time>
      </trkpt>
      <trkpt lat="43.41435" lon="-0.53317">
        <ele>193</ele>
        <time>2013-05-06T10:18:50Z</time>
      </trkpt>
      <trkpt lat="43.41434" lon="-0.5332">
        <ele>194</ele>
        <time>2013-05-06T10:18:51Z</time>
      </trkpt>
      <trkpt lat="43.41433" lon="-0.53322">
        <ele>193</ele>
        <time>2013-05-06T10:18:52Z</time>
      </trkpt>
      <trkpt lat="43.41433" lon="-0.53325">
        <ele>194</ele>
        <time>2013-05-06T10:18:53Z</time>
      </trkpt>
      <trkpt lat="43.41432" lon="-0.53327">
        <ele>194</ele>
        <time>2013-05-06T10:18:54Z</time>
      </trkpt>
      <trkpt lat="43.41431" lon="-0.53329">
        <ele>193</ele>
        <time>2013-05-06T10:18:55Z</time>
      </trkpt>
      <trkpt lat="43.4143" lon="-0.53331">
        <ele>194</ele>
        <time>2013-05-06T10:18:56Z</time>
      </trkpt>
      <trkpt lat="43.4143" lon="-0.53333">
        <ele>195</ele>
        <time>2013-05-06T10:18:57Z</time>
      </trkpt>
      <trkpt lat="43.41428" lon="-0.53336">
        <ele>196</ele>
        <time>2013-05-06T10:18:58Z</time>
      </trkpt>
      <trkpt lat="43.41427" lon="-0.53338">
        <ele>197</ele>
        <time>2013-05-06T10:18:59Z</time>
      </trkpt>
      <trkpt lat="43.41426" lon="-0.53341">
        <ele>197</ele>
        <time>2013-05-06T10:19:00Z</time>
      </trkpt>
      <trkpt lat="43.41423" lon="-0.53344">
        <ele>197</ele>
        <time>2013-05-06T10:19:01Z</time>
      </trkpt>
      <trkpt lat="43.41421" lon="-0.53346">
        <ele>196</ele>
        <time>2013-05-06T10:19:02Z</time>
      </trkpt>
      <trkpt lat="43.41419" lon="-0.53349">
        <ele>197</ele>
        <time>2013-05-06T10:19:03Z</time>
      </trkpt>
      <trkpt lat="43.41416" lon="-0.53352">
        <ele>196</ele>
        <time>2013-05-06T10:19:04Z</time>
      </trkpt>
      <trkpt lat="43.41413" lon="-0.53355">
        <ele>197</ele>
        <time>2013-05-06T10:19:05Z</time>
      </trkpt>
      <trkpt lat="43.41411" lon="-0.53357">
        <ele>197</ele>
        <time>2013-05-06T10:19:06Z</time>
      </trkpt>
      <trkpt lat="43.41407" lon="-0.53358">
        <ele>198</ele>
        <time>2013-05-06T10:19:07Z</time>
      </trkpt>
      <trkpt lat="43.41404" lon="-0.53359">
        <ele>198</ele>
        <time>2013-05-06T10:19:08Z</time>
      </trkpt>
      <trkpt lat="43.414" lon="-0.53359">
        <ele>199</ele>
        <time>2013-05-06T10:19:09Z</time>
      </trkpt>
      <trkpt lat="43.41398" lon="-0.5336">
        <ele>199</ele>
        <time>2013-05-06T10:19:10Z</time>
      </trkpt>
      <trkpt lat="43.41396" lon="-0.5336">
        <ele>199</ele>
        <time>2013-05-06T10:19:11Z</time>
      </trkpt>
      <trkpt lat="43.41393" lon="-0.53359">
        <ele>199</ele>
        <time>2013-05-06T10:19:12Z</time>
      </trkpt>
      <trkpt lat="43.41392" lon="-0.53358">
        <ele>199</ele>
        <time>2013-05-06T10:19:13Z</time>
      </trkpt>
      <trkpt lat="43.41391" lon="-0.53358">
        <ele>200</ele>
        <time>2013-05-06T10:19:14Z</time>
      </trkpt>
      <trkpt lat="43.4139" lon="-0.53358">
        <ele>201</ele>
        <time>2013-05-06T10:19:15Z</time>
      </trkpt>
      <trkpt lat="43.41388" lon="-0.53357">
        <ele>202</ele>
        <time>2013-05-06T10:19:16Z</time>
      </trkpt>
      <trkpt lat="43.41387" lon="-0.53357">
        <ele>202</ele>
        <time>2013-05-06T10:19:17Z</time>
      </trkpt>
      <trkpt lat="43.41385" lon="-0.53358">
        <ele>203</ele>
        <time>2013-05-06T10:19:18Z</time>
      </trkpt>
      <trkpt lat="43.41384" lon="-0.53359">
        <ele>203</ele>
        <time>2013-05-06T10:19:19Z</time>
      </trkpt>
      <trkpt lat="43.41383" lon="-0.5336">
        <ele>204</ele>
        <time>2013-05-06T10:19:20Z</time>
      </trkpt>
      <trkpt lat="43.41382" lon="-0.53362">
        <ele>205</ele>
        <time>2013-05-06T10:19:21Z</time>
      </trkpt>
      <trkpt lat="43.4138" lon="-0.53362">
        <ele>204</ele>
        <time>2013-05-06T10:19:22Z</time>
      </trkpt>
      <trkpt lat="43.4138" lon="-0.53362">
        <ele>204</ele>
        <time>2013-05-06T10:19:23Z</time>
      </trkpt>
      <trkpt lat="43.41378" lon="-0.53361">
        <ele>204</ele>
        <time>2013-05-06T10:19:24Z</time>
      </trkpt>
      <trkpt lat="43.41377" lon="-0.5336">
        <ele>205</ele>
        <time>2013-05-06T10:19:25Z</time>
      </trkpt>
      <trkpt lat="43.41376" lon="-0.53359">
        <ele>206</ele>
        <time>2013-05-06T10:19:26Z</time>
      </trkpt>
      <trkpt lat="43.41375" lon="-0.53358">
        <ele>206</ele>
        <time>2013-05-06T10:19:27Z</time>
      </trkpt>
      <trkpt lat="43.41374" lon="-0.53357">
        <ele>207</ele>
        <time>2013-05-06T10:19:28Z</time>
      </trkpt>
      <trkpt lat="43.41372" lon="-0.53354">
        <ele>207</ele>
        <time>2013-05-06T10:19:29Z</time>
      </trkpt>
      <trkpt lat="43.41372" lon="-0.53353">
        <ele>207</ele>
        <time>2013-05-06T10:19:30Z</time>
      </trkpt>
      <trkpt lat="43.41369" lon="-0.53352">
        <ele>210</ele>
        <time>2013-05-06T10:19:31Z</time>
      </trkpt>
      <trkpt lat="43.41366" lon="-0.53351">
        <ele>212</ele>
        <time>2013-05-06T10:19:32Z</time>
      </trkpt>
      <trkpt lat="43.41364" lon="-0.5335">
        <ele>213</ele>
        <time>2013-05-06T10:19:33Z</time>
      </trkpt>
      <trkpt lat="43.41362" lon="-0.53349">
        <ele>214</ele>
        <time>2013-05-06T10:19:34Z</time>
      </trkpt>
      <trkpt lat="43.41359" lon="-0.53349">
        <ele>214</ele>
        <time>2013-05-06T10:19:35Z</time>
      </trkpt>
      <trkpt lat="43.41357" lon="-0.53348">
        <ele>216</ele>
        <time>2013-05-06T10:19:36Z</time>
      </trkpt>
      <trkpt lat="43.41356" lon="-0.53347">
        <ele>217</ele>
        <time>2013-05-06T10:19:37Z</time>
      </trkpt>
      <trkpt lat="43.41353" lon="-0.53345">
        <ele>217</ele>
        <time>2013-05-06T10:19:38Z</time>
      </trkpt>
      <trkpt lat="43.41351" lon="-0.53345">
        <ele>218</ele>
        <time>2013-05-06T10:19:39Z</time>
      </trkpt>
      <trkpt lat="43.4135" lon="-0.53344">
        <ele>218</ele>
        <time>2013-05-06T10:19:40Z</time>
      </trkpt>
      <trkpt lat="43.41348" lon="-0.53344">
        <ele>219</ele>
        <time>2013-05-06T10:19:41Z</time>
      </trkpt>
      <trkpt lat="43.41346" lon="-0.53345">
        <ele>219</ele>
        <time>2013-05-06T10:19:42Z</time>
      </trkpt>
      <trkpt lat="43.41344" lon="-0.53345">
        <ele>219</ele>
        <time>2013-05-06T10:19:43Z</time>
      </trkpt>
      <trkpt lat="43.41343" lon="-0.53346">
        <ele>219</ele>
        <time>2013-05-06T10:19:44Z</time>
      </trkpt>
      <trkpt lat="43.41341" lon="-0.53346">
        <ele>219</ele>
        <time>2013-05-06T10:19:45Z</time>
      </trkpt>
      <trkpt lat="43.41339" lon="-0.53346">
        <ele>220</ele>
        <time>2013-05-06T10:19:46Z</time>
      </trkpt>
      <trkpt lat="43.41338" lon="-0.53346">
        <ele>219</ele>
        <time>2013-05-06T10:19:47Z</time>
      </trkpt>
      <trkpt lat="43.41336" lon="-0.53345">
        <ele>219</ele>
        <time>2013-05-06T10:19:48Z</time>
      </trkpt>
      <trkpt lat="43.41335" lon="-0.53344">
        <ele>219</ele>
        <time>2013-05-06T10:19:49Z</time>
      </trkpt>
      <trkpt lat="43.41334" lon="-0.53343">
        <ele>219</ele>
        <time>2013-05-06T10:19:50Z</time>
      </trkpt>
      <trkpt lat="43.41332" lon="-0.53343">
        <ele>219</ele>
        <time>2013-05-06T10:19:51Z</time>
      </trkpt>
      <trkpt lat="43.4133" lon="-0.53343">
        <ele>220</ele>
        <time>2013-05-06T10:19:52Z</time>
      </trkpt>
      <trkpt lat="43.41328" lon="-0.53343">
        <ele>219</ele>
        <time>2013-05-06T10:19:53Z</time>
      </trkpt>
      <trkpt lat="43.41325" lon="-0.53343">
        <ele>220</ele>
        <time>2013-05-06T10:19:54Z</time>
      </trkpt>
      <trkpt lat="43.41323" lon="-0.53343">
        <ele>221</ele>
        <time>2013-05-06T10:19:55Z</time>
      </trkpt>
      <trkpt lat="43.4132" lon="-0.53343">
        <ele>221</ele>
        <time>2013-05-06T10:19:56Z</time>
      </trkpt>
      <trkpt lat="43.41316" lon="-0.53343">
        <ele>221</ele>
        <time>2013-05-06T10:19:57Z</time>
      </trkpt>
      <trkpt lat="43.41314" lon="-0.53342">
        <ele>221</ele>
        <time>2013-05-06T10:19:58Z</time>
      </trkpt>
      <trkpt lat="43.41311" lon="-0.53342">
        <ele>221</ele>
        <time>2013-05-06T10:19:59Z</time>
      </trkpt>
      <trkpt lat="43.41307" lon="-0.53342">
        <ele>221</ele>
        <time>2013-05-06T10:20:00Z</time>
      </trkpt>
      <trkpt lat="43.41305" lon="-0.53342">
        <ele>220</ele>
        <time>2013-05-06T10:20:01Z</time>
      </trkpt>
      <trkpt lat="43.41303" lon="-0.53342">
        <ele>220</ele>
        <time>2013-05-06T10:20:02Z</time>
      </trkpt>
      <trkpt lat="43.41301" lon="-0.53342">
        <ele>220</ele>
        <time>2013-05-06T10:20:03Z</time>
      </trkpt>
      <trkpt lat="43.41299" lon="-0.53341">
        <ele>220</ele>
        <time>2013-05-06T10:20:04Z</time>
      </trkpt>
      <trkpt lat="43.41296" lon="-0.53341">
        <ele>220</ele>
        <time>2013-05-06T10:20:05Z</time>
      </trkpt>
      <trkpt lat="43.41294" lon="-0.5334">
        <ele>219</ele>
        <time>2013-05-06T10:20:06Z</time>
      </trkpt>
      <trkpt lat="43.41291" lon="-0.5334">
        <ele>221</ele>
        <time>2013-05-06T10:20:07Z</time>
      </trkpt>
      <trkpt lat="43.41289" lon="-0.53338">
        <ele>220</ele>
        <time>2013-05-06T10:20:08Z</time>
      </trkpt>
      <trkpt lat="43.41287" lon="-0.53338">
        <ele>220</ele>
        <time>2013-05-06T10:20:09Z</time>
      </trkpt>
      <trkpt lat="43.41285" lon="-0.53337">
        <ele>221</ele>
        <time>2013-05-06T10:20:10Z</time>
      </trkpt>
      <trkpt lat="43.41281" lon="-0.53336">
        <ele>219</ele>
        <time>2013-05-06T10:20:11Z</time>
      </trkpt>
      <trkpt lat="43.41279" lon="-0.53336">
        <ele>220</ele>
        <time>2013-05-06T10:20:12Z</time>
      </trkpt>
      <trkpt lat="43.41276" lon="-0.53336">
        <ele>221</ele>
        <time>2013-05-06T10:20:13Z</time>
      </trkpt>
      <trkpt lat="43.41274" lon="-0.53336">
        <ele>220</ele>
        <time>2013-05-06T10:20:14Z</time>
      </trkpt>
      <trkpt lat="43.41272" lon="-0.53336">
        <ele>220</ele>
        <time>2013-05-06T10:20:15Z</time>
      </trkpt>
      <trkpt lat="43.41271" lon="-0.53335">
        <ele>220</ele>
        <time>2013-05-06T10:20:16Z</time>
      </trkpt>
      <trkpt lat="43.4127" lon="-0.53334">
        <ele>219</ele>
        <time>2013-05-06T10:20:17Z</time>
      </trkpt>
      <trkpt lat="43.41269" lon="-0.53333">
        <ele>219</ele>
        <time>2013-05-06T10:20:18Z</time>
      </trkpt>
      <trkpt lat="43.41266" lon="-0.53332">
        <ele>219</ele>
        <time>2013-05-06T10:20:19Z</time>
      </trkpt>
      <trkpt lat="43.41264" lon="-0.53332">
        <ele>221</ele>
        <time>2013-05-06T10:20:20Z</time>
      </trkpt>
      <trkpt lat="43.41262" lon="-0.53332">
        <ele>221</ele>
        <time>2013-05-06T10:20:21Z</time>
      </trkpt>
      <trkpt lat="43.41259" lon="-0.53331">
        <ele>220</ele>
        <time>2013-05-06T10:20:22Z</time>
      </trkpt>
      <trkpt lat="43.41257" lon="-0.5333">
        <ele>219</ele>
        <time>2013-05-06T10:20:23Z</time>
      </trkpt>
      <trkpt lat="43.41255" lon="-0.53329">
        <ele>219</ele>
        <time>2013-05-06T10:20:24Z</time>
      </trkpt>
      <trkpt lat="43.41253" lon="-0.53327">
        <ele>219</ele>
        <time>2013-05-06T10:20:25Z</time>
      </trkpt>
      <trkpt lat="43.41251" lon="-0.53326">
        <ele>219</ele>
        <time>2013-05-06T10:20:26Z</time>
      </trkpt>
      <trkpt lat="43.41249" lon="-0.53324">
        <ele>218</ele>
        <time>2013-05-06T10:20:27Z</time>
      </trkpt>
      <trkpt lat="43.41247" lon="-0.53323">
        <ele>218</ele>
        <time>2013-05-06T10:20:28Z</time>
      </trkpt>
      <trkpt lat="43.41245" lon="-0.53322">
        <ele>216</ele>
        <time>2013-05-06T10:20:29Z</time>
      </trkpt>
      <trkpt lat="43.41244" lon="-0.53321">
        <ele>215</ele>
        <time>2013-05-06T10:20:30Z</time>
      </trkpt>
      <trkpt lat="43.41242" lon="-0.5332">
        <ele>215</ele>
        <time>2013-05-06T10:20:31Z</time>
      </trkpt>
      <trkpt lat="43.41239" lon="-0.53319">
        <ele>216</ele>
        <time>2013-05-06T10:20:32Z</time>
      </trkpt>
      <trkpt lat="43.41237" lon="-0.53318">
        <ele>216</ele>
        <time>2013-05-06T10:20:33Z</time>
      </trkpt>
      <trkpt lat="43.41235" lon="-0.53317">
        <ele>215</ele>
        <time>2013-05-06T10:20:34Z</time>
      </trkpt>
      <trkpt lat="43.41233" lon="-0.53316">
        <ele>213</ele>
        <time>2013-05-06T10:20:35Z</time>
      </trkpt>
      <trkpt lat="43.41232" lon="-0.53314">
        <ele>213</ele>
        <time>2013-05-06T10:20:36Z</time>
      </trkpt>
      <trkpt lat="43.41232" lon="-0.53313">
        <ele>214</ele>
        <time>2013-05-06T10:20:37Z</time>
      </trkpt>
      <trkpt lat="43.41231" lon="-0.53313">
        <ele>213</ele>
        <time>2013-05-06T10:20:38Z</time>
      </trkpt>
      <trkpt lat="43.4123" lon="-0.53312">
        <ele>213</ele>
        <time>2013-05-06T10:20:39Z</time>
      </trkpt>
      <trkpt lat="43.41228" lon="-0.53311">
        <ele>213</ele>
        <time>2013-05-06T10:20:40Z</time>
      </trkpt>
      <trkpt lat="43.41226" lon="-0.53311">
        <ele>213</ele>
        <time>2013-05-06T10:20:41Z</time>
      </trkpt>
      <trkpt lat="43.41225" lon="-0.5331">
        <ele>212</ele>
        <time>2013-05-06T10:20:42Z</time>
      </trkpt>
      <trkpt lat="43.41223" lon="-0.5331">
        <ele>212</ele>
        <time>2013-05-06T10:20:43Z</time>
      </trkpt>
      <trkpt lat="43.41221" lon="-0.5331">
        <ele>213</ele>
        <time>2013-05-06T10:20:44Z</time>
      </trkpt>
      <trkpt lat="43.41219" lon="-0.53311">
        <ele>214</ele>
        <time>2013-05-06T10:20:45Z</time>
      </trkpt>
      <trkpt lat="43.41218" lon="-0.53311">
        <ele>214</ele>
        <time>2013-05-06T10:20:46Z</time>
      </trkpt>
      <trkpt lat="43.41217" lon="-0.53311">
        <ele>215</ele>
        <time>2013-05-06T10:20:47Z</time>
      </trkpt>
      <trkpt lat="43.41215" lon="-0.53311">
        <ele>216</ele>
        <time>2013-05-06T10:20:48Z</time>
      </trkpt>
      <trkpt lat="43.41214" lon="-0.5331">
        <ele>216</ele>
        <time>2013-05-06T10:20:49Z</time>
      </trkpt>
      <trkpt lat="43.41212" lon="-0.5331">
        <ele>216</ele>
        <time>2013-05-06T10:20:50Z</time>
      </trkpt>
      <trkpt lat="43.4121" lon="-0.5331">
        <ele>216</ele>
        <time>2013-05-06T10:20:51Z</time>
      </trkpt>
      <trkpt lat="43.41209" lon="-0.53309">
        <ele>219</ele>
        <time>2013-05-06T10:20:52Z</time>
      </trkpt>
      <trkpt lat="43.41208" lon="-0.53308">
        <ele>221</ele>
        <time>2013-05-06T10:20:53Z</time>
      </trkpt>
      <trkpt lat="43.41206" lon="-0.53307">
        <ele>221</ele>
        <time>2013-05-06T10:20:54Z</time>
      </trkpt>
      <trkpt lat="43.41206" lon="-0.53306">
        <ele>222</ele>
        <time>2013-05-06T10:20:55Z</time>
      </trkpt>
      <trkpt lat="43.41205" lon="-0.53305">
        <ele>221</ele>
        <time>2013-05-06T10:20:56Z</time>
      </trkpt>
      <trkpt lat="43.41203" lon="-0.53303">
        <ele>223</ele>
        <time>2013-05-06T10:20:57Z</time>
      </trkpt>
      <trkpt lat="43.41202" lon="-0.53302">
        <ele>223</ele>
        <time>2013-05-06T10:20:58Z</time>
      </trkpt>
      <trkpt lat="43.412" lon="-0.53302">
        <ele>222</ele>
        <time>2013-05-06T10:20:59Z</time>
      </trkpt>
      <trkpt lat="43.41198" lon="-0.53302">
        <ele>222</ele>
        <time>2013-05-06T10:21:00Z</time>
      </trkpt>
      <trkpt lat="43.41196" lon="-0.53302">
        <ele>222</ele>
        <time>2013-05-06T10:21:01Z</time>
      </trkpt>
      <trkpt lat="43.41194" lon="-0.53303">
        <ele>223</ele>
        <time>2013-05-06T10:21:02Z</time>
      </trkpt>
      <trkpt lat="43.41193" lon="-0.53302">
        <ele>223</ele>
        <time>2013-05-06T10:21:03Z</time>
      </trkpt>
      <trkpt lat="43.41192" lon="-0.53302">
        <ele>223</ele>
        <time>2013-05-06T10:21:04Z</time>
      </trkpt>
      <trkpt lat="43.41189" lon="-0.53302">
        <ele>221</ele>
        <time>2013-05-06T10:21:05Z</time>
      </trkpt>
      <trkpt lat="43.41187" lon="-0.53302">
        <ele>222</ele>
        <time>2013-05-06T10:21:06Z</time>
      </trkpt>
      <trkpt lat="43.41184" lon="-0.53303">
        <ele>222</ele>
        <time>2013-05-06T10:21:07Z</time>
      </trkpt>
      <trkpt lat="43.41182" lon="-0.53303">
        <ele>221</ele>
        <time>2013-05-06T10:21:08Z</time>
      </trkpt>
      <trkpt lat="43.41179" lon="-0.53304">
        <ele>222</ele>
        <time>2013-05-06T10:21:09Z</time>
      </trkpt>
      <trkpt lat="43.41177" lon="-0.53304">
        <ele>222</ele>
        <time>2013-05-06T10:21:10Z</time>
      </trkpt>
      <trkpt lat="43.41176" lon="-0.53304">
        <ele>224</ele>
        <time>2013-05-06T10:21:11Z</time>
      </trkpt>
      <trkpt lat="43.41174" lon="-0.53303">
        <ele>224</ele>
        <time>2013-05-06T10:21:12Z</time>
      </trkpt>
      <trkpt lat="43.41172" lon="-0.53303">
        <ele>223</ele>
        <time>2013-05-06T10:21:13Z</time>
      </trkpt>
      <trkpt lat="43.4117" lon="-0.53302">
        <ele>224</ele>
        <time>2013-05-06T10:21:14Z</time>
      </trkpt>
      <trkpt lat="43.41168" lon="-0.53301">
        <ele>224</ele>
        <time>2013-05-06T10:21:15Z</time>
      </trkpt>
      <trkpt lat="43.41166" lon="-0.533">
        <ele>222</ele>
        <time>2013-05-06T10:21:16Z</time>
      </trkpt>
      <trkpt lat="43.41164" lon="-0.53299">
        <ele>222</ele>
        <time>2013-05-06T10:21:17Z</time>
      </trkpt>
      <trkpt lat="43.41161" lon="-0.53298">
        <ele>222</ele>
        <time>2013-05-06T10:21:18Z</time>
      </trkpt>
      <trkpt lat="43.41159" lon="-0.53297">
        <ele>223</ele>
        <time>2013-05-06T10:21:19Z</time>
      </trkpt>
      <trkpt lat="43.41158" lon="-0.53296">
        <ele>221</ele>
        <time>2013-05-06T10:21:20Z</time>
      </trkpt>
      <trkpt lat="43.41156" lon="-0.53295">
        <ele>221</ele>
        <time>2013-05-06T10:21:21Z</time>
      </trkpt>
      <trkpt lat="43.41155" lon="-0.53294">
        <ele>221</ele>
        <time>2013-05-06T10:21:22Z</time>
      </trkpt>
      <trkpt lat="43.41152" lon="-0.53293">
        <ele>220</ele>
        <time>2013-05-06T10:21:23Z</time>
      </trkpt>
      <trkpt lat="43.4115" lon="-0.53292">
        <ele>220</ele>
        <time>2013-05-06T10:21:24Z</time>
      </trkpt>
      <trkpt lat="43.41148" lon="-0.53292">
        <ele>220</ele>
        <time>2013-05-06T10:21:25Z</time>
      </trkpt>
      <trkpt lat="43.41146" lon="-0.53291">
        <ele>220</ele>
        <time>2013-05-06T10:21:26Z</time>
      </trkpt>
      <trkpt lat="43.41144" lon="-0.5329">
        <ele>218</ele>
        <time>2013-05-06T10:21:27Z</time>
      </trkpt>
      <trkpt lat="43.41143" lon="-0.5329">
        <ele>217</ele>
        <time>2013-05-06T10:21:28Z</time>
      </trkpt>
      <trkpt lat="43.41141" lon="-0.53289">
        <ele>218</ele>
        <time>2013-05-06T10:21:29Z</time>
      </trkpt>
      <trkpt lat="43.4114" lon="-0.53288">
        <ele>218</ele>
        <time>2013-05-06T10:21:30Z</time>
      </trkpt>
      <trkpt lat="43.41138" lon="-0.53287">
        <ele>219</ele>
        <time>2013-05-06T10:21:31Z</time>
      </trkpt>
      <trkpt lat="43.41136" lon="-0.53286">
        <ele>219</ele>
        <time>2013-05-06T10:21:32Z</time>
      </trkpt>
      <trkpt lat="43.41134" lon="-0.53285">
        <ele>219</ele>
        <time>2013-05-06T10:21:33Z</time>
      </trkpt>
      <trkpt lat="43.41133" lon="-0.53285">
        <ele>220</ele>
        <time>2013-05-06T10:21:34Z</time>
      </trkpt>
      <trkpt lat="43.41131" lon="-0.53284">
        <ele>220</ele>
        <time>2013-05-06T10:21:35Z</time>
      </trkpt>
      <trkpt lat="43.4113" lon="-0.53283">
        <ele>220</ele>
        <time>2013-05-06T10:21:36Z</time>
      </trkpt>
      <trkpt lat="43.41128" lon="-0.53283">
        <ele>220</ele>
        <time>2013-05-06T10:21:37Z</time>
      </trkpt>
      <trkpt lat="43.41127" lon="-0.53283">
        <ele>221</ele>
        <time>2013-05-06T10:21:38Z</time>
      </trkpt>
      <trkpt lat="43.41126" lon="-0.53283">
        <ele>221</ele>
        <time>2013-05-06T10:21:39Z</time>
      </trkpt>
      <trkpt lat="43.41124" lon="-0.53283">
        <ele>220</ele>
        <time>2013-05-06T10:21:40Z</time>
      </trkpt>
      <trkpt lat="43.41123" lon="-0.53282">
        <ele>221</ele>
        <time>2013-05-06T10:21:41Z</time>
      </trkpt>
      <trkpt lat="43.41122" lon="-0.53281">
        <ele>221</ele>
        <time>2013-05-06T10:21:42Z</time>
      </trkpt>
      <trkpt lat="43.41121" lon="-0.53281">
        <ele>222</ele>
        <time>2013-05-06T10:21:43Z</time>
      </trkpt>
      <trkpt lat="43.41119" lon="-0.53281">
        <ele>223</ele>
        <time>2013-05-06T10:21:44Z</time>
      </trkpt>
      <trkpt lat="43.41117" lon="-0.53282">
        <ele>223</ele>
        <time>2013-05-06T10:21:45Z</time>
      </trkpt>
      <trkpt lat="43.41115" lon="-0.53282">
        <ele>224</ele>
        <time>2013-05-06T10:21:46Z</time>
      </trkpt>
      <trkpt lat="43.41113" lon="-0.53281">
        <ele>225</ele>
        <time>2013-05-06T10:21:47Z</time>
      </trkpt>
      <trkpt lat="43.41111" lon="-0.53281">
        <ele>226</ele>
        <time>2013-05-06T10:21:48Z</time>
      </trkpt>
      <trkpt lat="43.4111" lon="-0.5328">
        <ele>226</ele>
        <time>2013-05-06T10:21:49Z</time>
      </trkpt>
      <trkpt lat="43.41108" lon="-0.5328">
        <ele>226</ele>
        <time>2013-05-06T10:21:50Z</time>
      </trkpt>
      <trkpt lat="43.41106" lon="-0.5328">
        <ele>227</ele>
        <time>2013-05-06T10:21:51Z</time>
      </trkpt>
      <trkpt lat="43.41104" lon="-0.5328">
        <ele>226</ele>
        <time>2013-05-06T10:21:52Z</time>
      </trkpt>
      <trkpt lat="43.41102" lon="-0.53279">
        <ele>227</ele>
        <time>2013-05-06T10:21:53Z</time>
      </trkpt>
      <trkpt lat="43.411" lon="-0.53279">
        <ele>225</ele>
        <time>2013-05-06T10:21:54Z</time>
      </trkpt>
      <trkpt lat="43.41098" lon="-0.53277">
        <ele>226</ele>
        <time>2013-05-06T10:21:55Z</time>
      </trkpt>
      <trkpt lat="43.41097" lon="-0.53275">
        <ele>226</ele>
        <time>2013-05-06T10:21:56Z</time>
      </trkpt>
      <trkpt lat="43.41097" lon="-0.53272">
        <ele>226</ele>
        <time>2013-05-06T10:21:57Z</time>
      </trkpt>
      <trkpt lat="43.41097" lon="-0.53269">
        <ele>225</ele>
        <time>2013-05-06T10:21:58Z</time>
      </trkpt>
      <trkpt lat="43.41097" lon="-0.53265">
        <ele>225</ele>
        <time>2013-05-06T10:21:59Z</time>
      </trkpt>
      <trkpt lat="43.41098" lon="-0.53262">
        <ele>230</ele>
        <time>2013-05-06T10:22:00Z</time>
      </trkpt>
      <trkpt lat="43.41098" lon="-0.53259">
        <ele>232</ele>
        <time>2013-05-06T10:22:01Z</time>
      </trkpt>
      <trkpt lat="43.41099" lon="-0.53257">
        <ele>233</ele>
        <time>2013-05-06T10:22:02Z</time>
      </trkpt>
      <trkpt lat="43.41099" lon="-0.53255">
        <ele>233</ele>
        <time>2013-05-06T10:22:03Z</time>
      </trkpt>
      <trkpt lat="43.41099" lon="-0.53253">
        <ele>234</ele>
        <time>2013-05-06T10:22:04Z</time>
      </trkpt>
      <trkpt lat="43.41099" lon="-0.5325">
        <ele>234</ele>
        <time>2013-05-06T10:22:05Z</time>
      </trkpt>
      <trkpt lat="43.41098" lon="-0.53247">
        <ele>235</ele>
        <time>2013-05-06T10:22:06Z</time>
      </trkpt>
      <trkpt lat="43.41098" lon="-0.53244">
        <ele>235</ele>
        <time>2013-05-06T10:22:07Z</time>
      </trkpt>
      <trkpt lat="43.41098" lon="-0.53242">
        <ele>235</ele>
        <time>2013-05-06T10:22:08Z</time>
      </trkpt>
      <trkpt lat="43.41098" lon="-0.53239">
        <ele>235</ele>
        <time>2013-05-06T10:22:09Z</time>
      </trkpt>
      <trkpt lat="43.41098" lon="-0.53237">
        <ele>235</ele>
        <time>2013-05-06T10:22:10Z</time>
      </trkpt>
      <trkpt lat="43.41098" lon="-0.53234">
        <ele>236</ele>
        <time>2013-05-06T10:22:11Z</time>
      </trkpt>
      <trkpt lat="43.41098" lon="-0.53232">
        <ele>236</ele>
        <time>2013-05-06T10:22:12Z</time>
      </trkpt>
      <trkpt lat="43.41098" lon="-0.5323">
        <ele>236</ele>
        <time>2013-05-06T10:22:13Z</time>
      </trkpt>
      <trkpt lat="43.41098" lon="-0.53228">
        <ele>236</ele>
        <time>2013-05-06T10:22:14Z</time>
      </trkpt>
      <trkpt lat="43.411" lon="-0.53225">
        <ele>237</ele>
        <time>2013-05-06T10:22:15Z</time>
      </trkpt>
      <trkpt lat="43.411" lon="-0.53222">
        <ele>236</ele>
        <time>2013-05-06T10:22:16Z</time>
      </trkpt>
      <trkpt lat="43.411" lon="-0.53219">
        <ele>236</ele>
        <time>2013-05-06T10:22:17Z</time>
      </trkpt>
      <trkpt lat="43.41101" lon="-0.53216">
        <ele>236</ele>
        <time>2013-05-06T10:22:18Z</time>
      </trkpt>
      <trkpt lat="43.41102" lon="-0.53213">
        <ele>236</ele>
        <time>2013-05-06T10:22:19Z</time>
      </trkpt>
      <trkpt lat="43.41103" lon="-0.53211">
        <ele>236</ele>
        <time>2013-05-06T10:22:20Z</time>
      </trkpt>
      <trkpt lat="43.41104" lon="-0.53209">
        <ele>240</ele>
        <time>2013-05-06T10:22:21Z</time>
      </trkpt>
      <trkpt lat="43.41105" lon="-0.53205">
        <ele>239</ele>
        <time>2013-05-06T10:22:22Z</time>
      </trkpt>
      <trkpt lat="43.41105" lon="-0.53203">
        <ele>239</ele>
        <time>2013-05-06T10:22:23Z</time>
      </trkpt>
      <trkpt lat="43.41105" lon="-0.53199">
        <ele>239</ele>
        <time>2013-05-06T10:22:24Z</time>
      </trkpt>
      <trkpt lat="43.41105" lon="-0.53195">
        <ele>239</ele>
        <time>2013-05-06T10:22:25Z</time>
      </trkpt>
      <trkpt lat="43.41105" lon="-0.53191">
        <ele>241</ele>
        <time>2013-05-06T10:22:26Z</time>
      </trkpt>
      <trkpt lat="43.41105" lon="-0.53188">
        <ele>243</ele>
        <time>2013-05-06T10:22:27Z</time>
      </trkpt>
      <trkpt lat="43.41105" lon="-0.53185">
        <ele>243</ele>
        <time>2013-05-06T10:22:28Z</time>
      </trkpt>
      <trkpt lat="43.41104" lon="-0.53183">
        <ele>244</ele>
        <time>2013-05-06T10:22:29Z</time>
      </trkpt>
      <trkpt lat="43.41104" lon="-0.53181">
        <ele>244</ele>
        <time>2013-05-06T10:22:30Z</time>
      </trkpt>
      <trkpt lat="43.41104" lon="-0.53176">
        <ele>246</ele>
        <time>2013-05-06T10:22:31Z</time>
      </trkpt>
      <trkpt lat="43.41104" lon="-0.53173">
        <ele>246</ele>
        <time>2013-05-06T10:22:32Z</time>
      </trkpt>
      <trkpt lat="43.41105" lon="-0.53164">
        <ele>245</ele>
        <time>2013-05-06T10:22:33Z</time>
      </trkpt>
      <trkpt lat="43.41105" lon="-0.53157">
        <ele>245</ele>
        <time>2013-05-06T10:22:34Z</time>
      </trkpt>
      <trkpt lat="43.41105" lon="-0.53151">
        <ele>245</ele>
        <time>2013-05-06T10:22:35Z</time>
      </trkpt>
      <trkpt lat="43.41105" lon="-0.53146">
        <ele>245</ele>
        <time>2013-05-06T10:22:36Z</time>
      </trkpt>
      <trkpt lat="43.41105" lon="-0.53142">
        <ele>245</ele>
        <time>2013-05-06T10:22:37Z</time>
      </trkpt>
      <trkpt lat="43.41099" lon="-0.53138">
        <ele>244</ele>
        <time>2013-05-06T10:22:38Z</time>
      </trkpt>
      <trkpt lat="43.41099" lon="-0.53135">
        <ele>244</ele>
        <time>2013-05-06T10:22:39Z</time>
      </trkpt>
      <trkpt lat="43.411" lon="-0.5313">
        <ele>243</ele>
        <time>2013-05-06T10:22:40Z</time>
      </trkpt>
      <trkpt lat="43.411" lon="-0.53129">
        <ele>243</ele>
        <time>2013-05-06T10:22:41Z</time>
      </trkpt>
      <trkpt lat="43.411" lon="-0.53126">
        <ele>243</ele>
        <time>2013-05-06T10:22:42Z</time>
      </trkpt>
      <trkpt lat="43.41101" lon="-0.53123">
        <ele>243</ele>
        <time>2013-05-06T10:22:43Z</time>
      </trkpt>
      <trkpt lat="43.41101" lon="-0.53119">
        <ele>242</ele>
        <time>2013-05-06T10:22:44Z</time>
      </trkpt>
      <trkpt lat="43.41102" lon="-0.53118">
        <ele>242</ele>
        <time>2013-05-06T10:22:45Z</time>
      </trkpt>
      <trkpt lat="43.41102" lon="-0.53116">
        <ele>241</ele>
        <time>2013-05-06T10:22:46Z</time>
      </trkpt>
      <trkpt lat="43.41102" lon="-0.53115">
        <ele>240</ele>
        <time>2013-05-06T10:22:47Z</time>
      </trkpt>
      <trkpt lat="43.41103" lon="-0.53112">
        <ele>240</ele>
        <time>2013-05-06T10:22:48Z</time>
      </trkpt>
      <trkpt lat="43.41103" lon="-0.5311">
        <ele>241</ele>
        <time>2013-05-06T10:22:49Z</time>
      </trkpt>
      <trkpt lat="43.41103" lon="-0.53107">
        <ele>241</ele>
        <time>2013-05-06T10:22:50Z</time>
      </trkpt>
      <trkpt lat="43.41105" lon="-0.53103">
        <ele>241</ele>
        <time>2013-05-06T10:22:51Z</time>
      </trkpt>
      <trkpt lat="43.41105" lon="-0.53101">
        <ele>241</ele>
        <time>2013-05-06T10:22:52Z</time>
      </trkpt>
      <trkpt lat="43.41107" lon="-0.53093">
        <ele>241</ele>
        <time>2013-05-06T10:22:53Z</time>
      </trkpt>
      <trkpt lat="43.41108" lon="-0.5309">
        <ele>240</ele>
        <time>2013-05-06T10:22:54Z</time>
      </trkpt>
      <trkpt lat="43.41108" lon="-0.53087">
        <ele>241</ele>
        <time>2013-05-06T10:22:55Z</time>
      </trkpt>
      <trkpt lat="43.41109" lon="-0.53084">
        <ele>241</ele>
        <time>2013-05-06T10:22:56Z</time>
      </trkpt>
      <trkpt lat="43.4111" lon="-0.53081">
        <ele>240</ele>
        <time>2013-05-06T10:22:57Z</time>
      </trkpt>
      <trkpt lat="43.41111" lon="-0.53074">
        <ele>241</ele>
        <time>2013-05-06T10:22:58Z</time>
      </trkpt>
      <trkpt lat="43.41111" lon="-0.53074">
        <ele>241</ele>
        <time>2013-05-06T10:22:59Z</time>
      </trkpt>
      <trkpt lat="43.41112" lon="-0.53071">
        <ele>241</ele>
        <time>2013-05-06T10:23:00Z</time>
      </trkpt>
      <trkpt lat="43.41112" lon="-0.53069">
        <ele>240</ele>
        <time>2013-05-06T10:23:01Z</time>
      </trkpt>
      <trkpt lat="43.41113" lon="-0.53064">
        <ele>240</ele>
        <time>2013-05-06T10:23:02Z</time>
      </trkpt>
      <trkpt lat="43.41113" lon="-0.53063">
        <ele>240</ele>
        <time>2013-05-06T10:23:03Z</time>
      </trkpt>
      <trkpt lat="43.41113" lon="-0.5306">
        <ele>240</ele>
        <time>2013-05-06T10:23:04Z</time>
      </trkpt>
      <trkpt lat="43.41114" lon="-0.53046">
        <ele>241</ele>
        <time>2013-05-06T10:23:05Z</time>
      </trkpt>
      <trkpt lat="43.41114" lon="-0.53046">
        <ele>240</ele>
        <time>2013-05-06T10:23:06Z</time>
      </trkpt>
      <trkpt lat="43.41114" lon="-0.53046">
        <ele>240</ele>
        <time>2013-05-06T10:23:07Z</time>
      </trkpt>
      <trkpt lat="43.41113" lon="-0.53043">
        <ele>241</ele>
        <time>2013-05-06T10:23:08Z</time>
      </trkpt>
      <trkpt lat="43.41113" lon="-0.5304">
        <ele>241</ele>
        <time>2013-05-06T10:23:09Z</time>
      </trkpt>
      <trkpt lat="43.41112" lon="-0.53036">
        <ele>241</ele>
        <time>2013-05-06T10:23:10Z</time>
      </trkpt>
      <trkpt lat="43.41111" lon="-0.53035">
        <ele>242</ele>
        <time>2013-05-06T10:23:11Z</time>
      </trkpt>
      <trkpt lat="43.41104" lon="-0.53035">
        <ele>241</ele>
        <time>2013-05-06T10:23:12Z</time>
      </trkpt>
      <trkpt lat="43.41103" lon="-0.53032">
        <ele>243</ele>
        <time>2013-05-06T10:23:13Z</time>
      </trkpt>
      <trkpt lat="43.41102" lon="-0.53029">
        <ele>242</ele>
        <time>2013-05-06T10:23:14Z</time>
      </trkpt>
      <trkpt lat="43.41101" lon="-0.53025">
        <ele>242</ele>
        <time>2013-05-06T10:23:15Z</time>
      </trkpt>
      <trkpt lat="43.411" lon="-0.53022">
        <ele>242</ele>
        <time>2013-05-06T10:23:16Z</time>
      </trkpt>
      <trkpt lat="43.41098" lon="-0.53018">
        <ele>242</ele>
        <time>2013-05-06T10:23:17Z</time>
      </trkpt>
      <trkpt lat="43.41097" lon="-0.53015">
        <ele>242</ele>
        <time>2013-05-06T10:23:18Z</time>
      </trkpt>
      <trkpt lat="43.41095" lon="-0.5301">
        <ele>241</ele>
        <time>2013-05-06T10:23:19Z</time>
      </trkpt>
      <trkpt lat="43.41092" lon="-0.53006">
        <ele>241</ele>
        <time>2013-05-06T10:23:20Z</time>
      </trkpt>
      <trkpt lat="43.41089" lon="-0.53001">
        <ele>241</ele>
        <time>2013-05-06T10:23:21Z</time>
      </trkpt>
      <trkpt lat="43.41086" lon="-0.52997">
        <ele>240</ele>
        <time>2013-05-06T10:23:22Z</time>
      </trkpt>
      <trkpt lat="43.41083" lon="-0.52993">
        <ele>241</ele>
        <time>2013-05-06T10:23:23Z</time>
      </trkpt>
      <trkpt lat="43.4108" lon="-0.52988">
        <ele>241</ele>
        <time>2013-05-06T10:23:24Z</time>
      </trkpt>
      <trkpt lat="43.41077" lon="-0.52983">
        <ele>241</ele>
        <time>2013-05-06T10:23:25Z</time>
      </trkpt>
      <trkpt lat="43.41075" lon="-0.52979">
        <ele>241</ele>
        <time>2013-05-06T10:23:26Z</time>
      </trkpt>
      <trkpt lat="43.41071" lon="-0.52972">
        <ele>242</ele>
        <time>2013-05-06T10:23:27Z</time>
      </trkpt>
      <trkpt lat="43.41067" lon="-0.52961">
        <ele>242</ele>
        <time>2013-05-06T10:23:28Z</time>
      </trkpt>
      <trkpt lat="43.41065" lon="-0.52953">
        <ele>242</ele>
        <time>2013-05-06T10:23:29Z</time>
      </trkpt>
      <trkpt lat="43.41061" lon="-0.52946">
        <ele>242</ele>
        <time>2013-05-06T10:23:30Z</time>
      </trkpt>
      <trkpt lat="43.41057" lon="-0.52939">
        <ele>241</ele>
        <time>2013-05-06T10:23:31Z</time>
      </trkpt>
      <trkpt lat="43.41066" lon="-0.5292">
        <ele>240</ele>
        <time>2013-05-06T10:23:32Z</time>
      </trkpt>
      <trkpt lat="43.41063" lon="-0.52913">
        <ele>240</ele>
        <time>2013-05-06T10:23:33Z</time>
      </trkpt>
      <trkpt lat="43.41059" lon="-0.52904">
        <ele>240</ele>
        <time>2013-05-06T10:23:34Z</time>
      </trkpt>
      <trkpt lat="43.41056" lon="-0.52898">
        <ele>240</ele>
        <time>2013-05-06T10:23:35Z</time>
      </trkpt>
      <trkpt lat="43.41053" lon="-0.52889">
        <ele>240</ele>
        <time>2013-05-06T10:23:36Z</time>
      </trkpt>
      <trkpt lat="43.4105" lon="-0.52882">
        <ele>240</ele>
        <time>2013-05-06T10:23:37Z</time>
      </trkpt>
      <trkpt lat="43.41046" lon="-0.5287">
        <ele>240</ele>
        <time>2013-05-06T10:23:38Z</time>
      </trkpt>
      <trkpt lat="43.41042" lon="-0.52858">
        <ele>239</ele>
        <time>2013-05-06T10:23:39Z</time>
      </trkpt>
      <trkpt lat="43.41038" lon="-0.52846">
        <ele>239</ele>
        <time>2013-05-06T10:23:40Z</time>
      </trkpt>
      <trkpt lat="43.41035" lon="-0.52836">
        <ele>240</ele>
        <time>2013-05-06T10:23:41Z</time>
      </trkpt>
      <trkpt lat="43.41032" lon="-0.52823">
        <ele>240</ele>
        <time>2013-05-06T10:23:42Z</time>
      </trkpt>
      <trkpt lat="43.41029" lon="-0.52812">
        <ele>240</ele>
        <time>2013-05-06T10:23:43Z</time>
      </trkpt>
      <trkpt lat="43.41027" lon="-0.52803">
        <ele>238</ele>
        <time>2013-05-06T10:23:44Z</time>
      </trkpt>
      <trkpt lat="43.41025" lon="-0.52791">
        <ele>237</ele>
        <time>2013-05-06T10:23:45Z</time>
      </trkpt>
      <trkpt lat="43.41024" lon="-0.5278">
        <ele>236</ele>
        <time>2013-05-06T10:23:46Z</time>
      </trkpt>
      <trkpt lat="43.41024" lon="-0.52763">
        <ele>235</ele>
        <time>2013-05-06T10:23:47Z</time>
      </trkpt>
      <trkpt lat="43.41024" lon="-0.52748">
        <ele>234</ele>
        <time>2013-05-06T10:23:48Z</time>
      </trkpt>
      <trkpt lat="43.41023" lon="-0.52736">
        <ele>234</ele>
        <time>2013-05-06T10:23:49Z</time>
      </trkpt>
      <trkpt lat="43.41023" lon="-0.52724">
        <ele>233</ele>
        <time>2013-05-06T10:23:50Z</time>
      </trkpt>
      <trkpt lat="43.41023" lon="-0.52711">
        <ele>233</ele>
        <time>2013-05-06T10:23:51Z</time>
      </trkpt>
      <trkpt lat="43.41023" lon="-0.52699">
        <ele>232</ele>
        <time>2013-05-06T10:23:52Z</time>
      </trkpt>
      <trkpt lat="43.41022" lon="-0.52683">
        <ele>232</ele>
        <time>2013-05-06T10:23:53Z</time>
      </trkpt>
      <trkpt lat="43.41021" lon="-0.52671">
        <ele>232</ele>
        <time>2013-05-06T10:23:54Z</time>
      </trkpt>
      <trkpt lat="43.41018" lon="-0.52655">
        <ele>231</ele>
        <time>2013-05-06T10:23:55Z</time>
      </trkpt>
      <trkpt lat="43.41015" lon="-0.52643">
        <ele>232</ele>
        <time>2013-05-06T10:23:56Z</time>
      </trkpt>
      <trkpt lat="43.41011" lon="-0.52631">
        <ele>232</ele>
        <time>2013-05-06T10:23:57Z</time>
      </trkpt>
      <trkpt lat="43.41007" lon="-0.52619">
        <ele>230</ele>
        <time>2013-05-06T10:23:58Z</time>
      </trkpt>
      <trkpt lat="43.41004" lon="-0.52606">
        <ele>228</ele>
        <time>2013-05-06T10:23:59Z</time>
      </trkpt>
      <trkpt lat="43.40999" lon="-0.52593">
        <ele>227</ele>
        <time>2013-05-06T10:24:00Z</time>
      </trkpt>
      <trkpt lat="43.40995" lon="-0.5258">
        <ele>227</ele>
        <time>2013-05-06T10:24:01Z</time>
      </trkpt>
      <trkpt lat="43.40991" lon="-0.52567">
        <ele>226</ele>
        <time>2013-05-06T10:24:02Z</time>
      </trkpt>
      <trkpt lat="43.40986" lon="-0.52555">
        <ele>225</ele>
        <time>2013-05-06T10:24:03Z</time>
      </trkpt>
      <trkpt lat="43.40982" lon="-0.52545">
        <ele>225</ele>
        <time>2013-05-06T10:24:04Z</time>
      </trkpt>
      <trkpt lat="43.40978" lon="-0.52534">
        <ele>225</ele>
        <time>2013-05-06T10:24:05Z</time>
      </trkpt>
      <trkpt lat="43.40974" lon="-0.52524">
        <ele>224</ele>
        <time>2013-05-06T10:24:06Z</time>
      </trkpt>
      <trkpt lat="43.4097" lon="-0.52512">
        <ele>224</ele>
        <time>2013-05-06T10:24:07Z</time>
      </trkpt>
      <trkpt lat="43.40967" lon="-0.52506">
        <ele>221</ele>
        <time>2013-05-06T10:24:08Z</time>
      </trkpt>
      <trkpt lat="43.40963" lon="-0.52496">
        <ele>220</ele>
        <time>2013-05-06T10:24:09Z</time>
      </trkpt>
      <trkpt lat="43.4096" lon="-0.52488">
        <ele>220</ele>
        <time>2013-05-06T10:24:10Z</time>
      </trkpt>
      <trkpt lat="43.40957" lon="-0.52481">
        <ele>220</ele>
        <time>2013-05-06T10:24:11Z</time>
      </trkpt>
      <trkpt lat="43.40953" lon="-0.52473">
        <ele>219</ele>
        <time>2013-05-06T10:24:12Z</time>
      </trkpt>
      <trkpt lat="43.4095" lon="-0.52465">
        <ele>220</ele>
        <time>2013-05-06T10:24:13Z</time>
      </trkpt>
      <trkpt lat="43.40947" lon="-0.52458">
        <ele>220</ele>
        <time>2013-05-06T10:24:14Z</time>
      </trkpt>
      <trkpt lat="43.40944" lon="-0.52451">
        <ele>220</ele>
        <time>2013-05-06T10:24:15Z</time>
      </trkpt>
      <trkpt lat="43.4094" lon="-0.52444">
        <ele>220</ele>
        <time>2013-05-06T10:24:16Z</time>
      </trkpt>
      <trkpt lat="43.40936" lon="-0.52436">
        <ele>219</ele>
        <time>2013-05-06T10:24:17Z</time>
      </trkpt>
      <trkpt lat="43.40932" lon="-0.52428">
        <ele>219</ele>
        <time>2013-05-06T10:24:18Z</time>
      </trkpt>
      <trkpt lat="43.40927" lon="-0.5242">
        <ele>219</ele>
        <time>2013-05-06T10:24:19Z</time>
      </trkpt>
      <trkpt lat="43.40923" lon="-0.52414">
        <ele>218</ele>
        <time>2013-05-06T10:24:20Z</time>
      </trkpt>
      <trkpt lat="43.4092" lon="-0.52408">
        <ele>218</ele>
        <time>2013-05-06T10:24:21Z</time>
      </trkpt>
      <trkpt lat="43.40917" lon="-0.52403">
        <ele>218</ele>
        <time>2013-05-06T10:24:22Z</time>
      </trkpt>
      <trkpt lat="43.40913" lon="-0.52398">
        <ele>218</ele>
        <time>2013-05-06T10:24:23Z</time>
      </trkpt>
      <trkpt lat="43.4091" lon="-0.52394">
        <ele>218</ele>
        <time>2013-05-06T10:24:24Z</time>
      </trkpt>
      <trkpt lat="43.40907" lon="-0.52389">
        <ele>218</ele>
        <time>2013-05-06T10:24:25Z</time>
      </trkpt>
      <trkpt lat="43.40904" lon="-0.52385">
        <ele>218</ele>
        <time>2013-05-06T10:24:26Z</time>
      </trkpt>
      <trkpt lat="43.40902" lon="-0.52382">
        <ele>218</ele>
        <time>2013-05-06T10:24:27Z</time>
      </trkpt>
      <trkpt lat="43.40897" lon="-0.52376">
        <ele>218</ele>
        <time>2013-05-06T10:24:28Z</time>
      </trkpt>
      <trkpt lat="43.40894" lon="-0.52372">
        <ele>217</ele>
        <time>2013-05-06T10:24:29Z</time>
      </trkpt>
      <trkpt lat="43.40892" lon="-0.5237">
        <ele>218</ele>
        <time>2013-05-06T10:24:30Z</time>
      </trkpt>
      <trkpt lat="43.40885" lon="-0.52362">
        <ele>217</ele>
        <time>2013-05-06T10:24:31Z</time>
      </trkpt>
      <trkpt lat="43.40881" lon="-0.52358">
        <ele>216</ele>
        <time>2013-05-06T10:24:32Z</time>
      </trkpt>
      <trkpt lat="43.40876" lon="-0.52353">
        <ele>216</ele>
        <time>2013-05-06T10:24:33Z</time>
      </trkpt>
      <trkpt lat="43.40874" lon="-0.5235">
        <ele>216</ele>
        <time>2013-05-06T10:24:34Z</time>
      </trkpt>
      <trkpt lat="43.40871" lon="-0.52348">
        <ele>215</ele>
        <time>2013-05-06T10:24:35Z</time>
      </trkpt>
      <trkpt lat="43.40868" lon="-0.52345">
        <ele>216</ele>
        <time>2013-05-06T10:24:36Z</time>
      </trkpt>
      <trkpt lat="43.40869" lon="-0.52345">
        <ele>216</ele>
        <time>2013-05-06T10:24:37Z</time>
      </trkpt>
      <trkpt lat="43.40863" lon="-0.52339">
        <ele>216</ele>
        <time>2013-05-06T10:24:38Z</time>
      </trkpt>
      <trkpt lat="43.40858" lon="-0.52334">
        <ele>217</ele>
        <time>2013-05-06T10:24:39Z</time>
      </trkpt>
      <trkpt lat="43.40853" lon="-0.5233">
        <ele>218</ele>
        <time>2013-05-06T10:24:40Z</time>
      </trkpt>
      <trkpt lat="43.40848" lon="-0.52325">
        <ele>218</ele>
        <time>2013-05-06T10:24:41Z</time>
      </trkpt>
      <trkpt lat="43.40843" lon="-0.52322">
        <ele>218</ele>
        <time>2013-05-06T10:24:42Z</time>
      </trkpt>
      <trkpt lat="43.40839" lon="-0.52318">
        <ele>217</ele>
        <time>2013-05-06T10:24:43Z</time>
      </trkpt>
      <trkpt lat="43.40834" lon="-0.52314">
        <ele>217</ele>
        <time>2013-05-06T10:24:44Z</time>
      </trkpt>
      <trkpt lat="43.40829" lon="-0.52315">
        <ele>217</ele>
        <time>2013-05-06T10:24:45Z</time>
      </trkpt>
      <trkpt lat="43.40823" lon="-0.52311">
        <ele>217</ele>
        <time>2013-05-06T10:24:46Z</time>
      </trkpt>
      <trkpt lat="43.40818" lon="-0.52309">
        <ele>217</ele>
        <time>2013-05-06T10:24:47Z</time>
      </trkpt>
      <trkpt lat="43.40813" lon="-0.52305">
        <ele>217</ele>
        <time>2013-05-06T10:24:48Z</time>
      </trkpt>
      <trkpt lat="43.40808" lon="-0.52302">
        <ele>217</ele>
        <time>2013-05-06T10:24:49Z</time>
      </trkpt>
      <trkpt lat="43.40803" lon="-0.523">
        <ele>216</ele>
        <time>2013-05-06T10:24:50Z</time>
      </trkpt>
      <trkpt lat="43.40797" lon="-0.52296">
        <ele>216</ele>
        <time>2013-05-06T10:24:51Z</time>
      </trkpt>
      <trkpt lat="43.40793" lon="-0.52292">
        <ele>216</ele>
        <time>2013-05-06T10:24:52Z</time>
      </trkpt>
      <trkpt lat="43.40789" lon="-0.52291">
        <ele>216</ele>
        <time>2013-05-06T10:24:53Z</time>
      </trkpt>
      <trkpt lat="43.40785" lon="-0.52291">
        <ele>217</ele>
        <time>2013-05-06T10:24:54Z</time>
      </trkpt>
      <trkpt lat="43.4078" lon="-0.52287">
        <ele>217</ele>
        <time>2013-05-06T10:24:55Z</time>
      </trkpt>
      <trkpt lat="43.40778" lon="-0.52285">
        <ele>216</ele>
        <time>2013-05-06T10:24:56Z</time>
      </trkpt>
      <trkpt lat="43.40774" lon="-0.52283">
        <ele>216</ele>
        <time>2013-05-06T10:24:57Z</time>
      </trkpt>
      <trkpt lat="43.4077" lon="-0.52285">
        <ele>215</ele>
        <time>2013-05-06T10:24:58Z</time>
      </trkpt>
      <trkpt lat="43.40765" lon="-0.52286">
        <ele>216</ele>
        <time>2013-05-06T10:24:59Z</time>
      </trkpt>
      <trkpt lat="43.40762" lon="-0.52284">
        <ele>217</ele>
        <time>2013-05-06T10:25:00Z</time>
      </trkpt>
      <trkpt lat="43.40758" lon="-0.52283">
        <ele>217</ele>
        <time>2013-05-06T10:25:01Z</time>
      </trkpt>
      <trkpt lat="43.40754" lon="-0.52282">
        <ele>217</ele>
        <time>2013-05-06T10:25:02Z</time>
      </trkpt>
      <trkpt lat="43.40749" lon="-0.52281">
        <ele>217</ele>
        <time>2013-05-06T10:25:03Z</time>
      </trkpt>
      <trkpt lat="43.40745" lon="-0.52281">
        <ele>217</ele>
        <time>2013-05-06T10:25:04Z</time>
      </trkpt>
      <trkpt lat="43.4074" lon="-0.52282">
        <ele>216</ele>
        <time>2013-05-06T10:25:05Z</time>
      </trkpt>
      <trkpt lat="43.40736" lon="-0.52282">
        <ele>216</ele>
        <time>2013-05-06T10:25:06Z</time>
      </trkpt>
      <trkpt lat="43.40733" lon="-0.52283">
        <ele>217</ele>
        <time>2013-05-06T10:25:07Z</time>
      </trkpt>
      <trkpt lat="43.4073" lon="-0.52283">
        <ele>217</ele>
        <time>2013-05-06T10:25:08Z</time>
      </trkpt>
      <trkpt lat="43.40727" lon="-0.52283">
        <ele>217</ele>
        <time>2013-05-06T10:25:09Z</time>
      </trkpt>
      <trkpt lat="43.40724" lon="-0.52281">
        <ele>217</ele>
        <time>2013-05-06T10:25:10Z</time>
      </trkpt>
      <trkpt lat="43.40722" lon="-0.5228">
        <ele>217</ele>
        <time>2013-05-06T10:25:11Z</time>
      </trkpt>
      <trkpt lat="43.40721" lon="-0.52279">
        <ele>220</ele>
        <time>2013-05-06T10:25:12Z</time>
      </trkpt>
      <trkpt lat="43.4072" lon="-0.52277">
        <ele>220</ele>
        <time>2013-05-06T10:25:13Z</time>
      </trkpt>
      <trkpt lat="43.40717" lon="-0.52275">
        <ele>220</ele>
        <time>2013-05-06T10:25:14Z</time>
      </trkpt>
      <trkpt lat="43.40715" lon="-0.52273">
        <ele>220</ele>
        <time>2013-05-06T10:25:15Z</time>
      </trkpt>
      <trkpt lat="43.40707" lon="-0.52257">
        <ele>217</ele>
        <time>2013-05-06T10:25:16Z</time>
      </trkpt>
      <trkpt lat="43.40705" lon="-0.52254">
        <ele>217</ele>
        <time>2013-05-06T10:25:17Z</time>
      </trkpt>
      <trkpt lat="43.40702" lon="-0.52251">
        <ele>217</ele>
        <time>2013-05-06T10:25:18Z</time>
      </trkpt>
      <trkpt lat="43.40699" lon="-0.52247">
        <ele>217</ele>
        <time>2013-05-06T10:25:19Z</time>
      </trkpt>
      <trkpt lat="43.40698" lon="-0.52246">
        <ele>217</ele>
        <time>2013-05-06T10:25:20Z</time>
      </trkpt>
      <trkpt lat="43.40694" lon="-0.52243">
        <ele>217</ele>
        <time>2013-05-06T10:25:21Z</time>
      </trkpt>
      <trkpt lat="43.40691" lon="-0.52242">
        <ele>217</ele>
        <time>2013-05-06T10:25:22Z</time>
      </trkpt>
      <trkpt lat="43.40688" lon="-0.52243">
        <ele>218</ele>
        <time>2013-05-06T10:25:23Z</time>
      </trkpt>
      <trkpt lat="43.40685" lon="-0.52244">
        <ele>219</ele>
        <time>2013-05-06T10:25:24Z</time>
      </trkpt>
      <trkpt lat="43.40682" lon="-0.52243">
        <ele>220</ele>
        <time>2013-05-06T10:25:25Z</time>
      </trkpt>
      <trkpt lat="43.4068" lon="-0.52242">
        <ele>219</ele>
        <time>2013-05-06T10:25:26Z</time>
      </trkpt>
      <trkpt lat="43.40678" lon="-0.52241">
        <ele>219</ele>
        <time>2013-05-06T10:25:27Z</time>
      </trkpt>
      <trkpt lat="43.40676" lon="-0.52239">
        <ele>219</ele>
        <time>2013-05-06T10:25:28Z</time>
      </trkpt>
      <trkpt lat="43.40675" lon="-0.52237">
        <ele>218</ele>
        <time>2013-05-06T10:25:29Z</time>
      </trkpt>
      <trkpt lat="43.40674" lon="-0.52234">
        <ele>217</ele>
        <time>2013-05-06T10:25:30Z</time>
      </trkpt>
      <trkpt lat="43.40672" lon="-0.52232">
        <ele>217</ele>
        <time>2013-05-06T10:25:31Z</time>
      </trkpt>
      <trkpt lat="43.40673" lon="-0.52228">
        <ele>217</ele>
        <time>2013-05-06T10:25:32Z</time>
      </trkpt>
      <trkpt lat="43.40673" lon="-0.52226">
        <ele>217</ele>
        <time>2013-05-06T10:25:33Z</time>
      </trkpt>
      <trkpt lat="43.40674" lon="-0.52222">
        <ele>217</ele>
        <time>2013-05-06T10:25:34Z</time>
      </trkpt>
      <trkpt lat="43.40676" lon="-0.5222">
        <ele>215</ele>
        <time>2013-05-06T10:25:35Z</time>
      </trkpt>
      <trkpt lat="43.40679" lon="-0.52218">
        <ele>213</ele>
        <time>2013-05-06T10:25:36Z</time>
      </trkpt>
      <trkpt lat="43.40682" lon="-0.52216">
        <ele>212</ele>
        <time>2013-05-06T10:25:37Z</time>
      </trkpt>
      <trkpt lat="43.40684" lon="-0.52216">
        <ele>212</ele>
        <time>2013-05-06T10:25:38Z</time>
      </trkpt>
      <trkpt lat="43.40685" lon="-0.52215">
        <ele>212</ele>
        <time>2013-05-06T10:25:39Z</time>
      </trkpt>
      <trkpt lat="43.40686" lon="-0.52216">
        <ele>211</ele>
        <time>2013-05-06T10:25:40Z</time>
      </trkpt>
      <trkpt lat="43.40686" lon="-0.52218">
        <ele>211</ele>
        <time>2013-05-06T10:25:41Z</time>
      </trkpt>
      <trkpt lat="43.40686" lon="-0.5222">
        <ele>211</ele>
        <time>2013-05-06T10:25:42Z</time>
      </trkpt>
      <trkpt lat="43.40685" lon="-0.52222">
        <ele>210</ele>
        <time>2013-05-06T10:25:43Z</time>
      </trkpt>
      <trkpt lat="43.40684" lon="-0.52224">
        <ele>209</ele>
        <time>2013-05-06T10:25:44Z</time>
      </trkpt>
      <trkpt lat="43.40683" lon="-0.52226">
        <ele>210</ele>
        <time>2013-05-06T10:25:45Z</time>
      </trkpt>
      <trkpt lat="43.40681" lon="-0.52228">
        <ele>210</ele>
        <time>2013-05-06T10:25:46Z</time>
      </trkpt>
      <trkpt lat="43.4068" lon="-0.5223">
        <ele>210</ele>
        <time>2013-05-06T10:25:47Z</time>
      </trkpt>
      <trkpt lat="43.40678" lon="-0.52233">
        <ele>209</ele>
        <time>2013-05-06T10:25:48Z</time>
      </trkpt>
      <trkpt lat="43.40676" lon="-0.52236">
        <ele>208</ele>
        <time>2013-05-06T10:25:49Z</time>
      </trkpt>
      <trkpt lat="43.40675" lon="-0.5224">
        <ele>208</ele>
        <time>2013-05-06T10:25:50Z</time>
      </trkpt>
      <trkpt lat="43.40673" lon="-0.52245">
        <ele>207</ele>
        <time>2013-05-06T10:25:51Z</time>
      </trkpt>
      <trkpt lat="43.40671" lon="-0.5225">
        <ele>207</ele>
        <time>2013-05-06T10:25:52Z</time>
      </trkpt>
      <trkpt lat="43.4067" lon="-0.52255">
        <ele>207</ele>
        <time>2013-05-06T10:25:53Z</time>
      </trkpt>
      <trkpt lat="43.40669" lon="-0.52261">
        <ele>207</ele>
        <time>2013-05-06T10:25:54Z</time>
      </trkpt>
      <trkpt lat="43.40668" lon="-0.52267">
        <ele>206</ele>
        <time>2013-05-06T10:25:55Z</time>
      </trkpt>
      <trkpt lat="43.40667" lon="-0.52273">
        <ele>206</ele>
        <time>2013-05-06T10:25:56Z</time>
      </trkpt>
      <trkpt lat="43.40666" lon="-0.52279">
        <ele>204</ele>
        <time>2013-05-06T10:25:57Z</time>
      </trkpt>
      <trkpt lat="43.40665" lon="-0.52285">
        <ele>204</ele>
        <time>2013-05-06T10:25:58Z</time>
      </trkpt>
      <trkpt lat="43.40665" lon="-0.52297">
        <ele>203</ele>
        <time>2013-05-06T10:25:59Z</time>
      </trkpt>
      <trkpt lat="43.40664" lon="-0.52303">
        <ele>203</ele>
        <time>2013-05-06T10:26:00Z</time>
      </trkpt>
      <trkpt lat="43.40662" lon="-0.5231">
        <ele>202</ele>
        <time>2013-05-06T10:26:01Z</time>
      </trkpt>
      <trkpt lat="43.40659" lon="-0.52318">
        <ele>203</ele>
        <time>2013-05-06T10:26:02Z</time>
      </trkpt>
      <trkpt lat="43.40657" lon="-0.52326">
        <ele>203</ele>
        <time>2013-05-06T10:26:03Z</time>
      </trkpt>
      <trkpt lat="43.40654" lon="-0.52333">
        <ele>202</ele>
        <time>2013-05-06T10:26:04Z</time>
      </trkpt>
      <trkpt lat="43.40653" lon="-0.52342">
        <ele>202</ele>
        <time>2013-05-06T10:26:05Z</time>
      </trkpt>
      <trkpt lat="43.4065" lon="-0.52352">
        <ele>202</ele>
        <time>2013-05-06T10:26:06Z</time>
      </trkpt>
      <trkpt lat="43.40648" lon="-0.52364">
        <ele>203</ele>
        <time>2013-05-06T10:26:07Z</time>
      </trkpt>
      <trkpt lat="43.40648" lon="-0.52374">
        <ele>203</ele>
        <time>2013-05-06T10:26:08Z</time>
      </trkpt>
      <trkpt lat="43.40648" lon="-0.52382">
        <ele>202</ele>
        <time>2013-05-06T10:26:09Z</time>
      </trkpt>
      <trkpt lat="43.40642" lon="-0.52394">
        <ele>202</ele>
        <time>2013-05-06T10:26:10Z</time>
      </trkpt>
      <trkpt lat="43.40638" lon="-0.524">
        <ele>200</ele>
        <time>2013-05-06T10:26:11Z</time>
      </trkpt>
      <trkpt lat="43.4063" lon="-0.52411">
        <ele>200</ele>
        <time>2013-05-06T10:26:12Z</time>
      </trkpt>
      <trkpt lat="43.40621" lon="-0.5242">
        <ele>202</ele>
        <time>2013-05-06T10:26:13Z</time>
      </trkpt>
      <trkpt lat="43.40616" lon="-0.52424">
        <ele>202</ele>
        <time>2013-05-06T10:26:14Z</time>
      </trkpt>
      <trkpt lat="43.40608" lon="-0.52431">
        <ele>202</ele>
        <time>2013-05-06T10:26:15Z</time>
      </trkpt>
      <trkpt lat="43.40602" lon="-0.52437">
        <ele>202</ele>
        <time>2013-05-06T10:26:16Z</time>
      </trkpt>
      <trkpt lat="43.40595" lon="-0.52448">
        <ele>202</ele>
        <time>2013-05-06T10:26:17Z</time>
      </trkpt>
      <trkpt lat="43.4059" lon="-0.52459">
        <ele>201</ele>
        <time>2013-05-06T10:26:18Z</time>
      </trkpt>
      <trkpt lat="43.40588" lon="-0.5247">
        <ele>201</ele>
        <time>2013-05-06T10:26:19Z</time>
      </trkpt>
      <trkpt lat="43.40587" lon="-0.52487">
        <ele>201</ele>
        <time>2013-05-06T10:26:20Z</time>
      </trkpt>
      <trkpt lat="43.40587" lon="-0.52498">
        <ele>200</ele>
        <time>2013-05-06T10:26:21Z</time>
      </trkpt>
      <trkpt lat="43.40588" lon="-0.52511">
        <ele>199</ele>
        <time>2013-05-06T10:26:22Z</time>
      </trkpt>
      <trkpt lat="43.40588" lon="-0.52526">
        <ele>199</ele>
        <time>2013-05-06T10:26:23Z</time>
      </trkpt>
      <trkpt lat="43.40591" lon="-0.52534">
        <ele>197</ele>
        <time>2013-05-06T10:26:24Z</time>
      </trkpt>
      <trkpt lat="43.40594" lon="-0.52546">
        <ele>197</ele>
        <time>2013-05-06T10:26:25Z</time>
      </trkpt>
      <trkpt lat="43.40595" lon="-0.52559">
        <ele>196</ele>
        <time>2013-05-06T10:26:26Z</time>
      </trkpt>
      <trkpt lat="43.40596" lon="-0.52569">
        <ele>196</ele>
        <time>2013-05-06T10:26:27Z</time>
      </trkpt>
      <trkpt lat="43.406" lon="-0.52585">
        <ele>196</ele>
        <time>2013-05-06T10:26:28Z</time>
      </trkpt>
      <trkpt lat="43.40604" lon="-0.52598">
        <ele>195</ele>
        <time>2013-05-06T10:26:29Z</time>
      </trkpt>
      <trkpt lat="43.40608" lon="-0.52607">
        <ele>195</ele>
        <time>2013-05-06T10:26:30Z</time>
      </trkpt>
      <trkpt lat="43.40612" lon="-0.52619">
        <ele>195</ele>
        <time>2013-05-06T10:26:31Z</time>
      </trkpt>
      <trkpt lat="43.40615" lon="-0.52633">
        <ele>194</ele>
        <time>2013-05-06T10:26:32Z</time>
      </trkpt>
      <trkpt lat="43.40618" lon="-0.52646">
        <ele>193</ele>
        <time>2013-05-06T10:26:33Z</time>
      </trkpt>
      <trkpt lat="43.40621" lon="-0.52657">
        <ele>192</ele>
        <time>2013-05-06T10:26:34Z</time>
      </trkpt>
      <trkpt lat="43.40624" lon="-0.52669">
        <ele>191</ele>
        <time>2013-05-06T10:26:35Z</time>
      </trkpt>
      <trkpt lat="43.40625" lon="-0.52681">
        <ele>191</ele>
        <time>2013-05-06T10:26:36Z</time>
      </trkpt>
      <trkpt lat="43.40628" lon="-0.52694">
        <ele>190</ele>
        <time>2013-05-06T10:26:37Z</time>
      </trkpt>
      <trkpt lat="43.4063" lon="-0.52705">
        <ele>190</ele>
        <time>2013-05-06T10:26:38Z</time>
      </trkpt>
      <trkpt lat="43.40635" lon="-0.5272">
        <ele>190</ele>
        <time>2013-05-06T10:26:39Z</time>
      </trkpt>
      <trkpt lat="43.40637" lon="-0.5273">
        <ele>190</ele>
        <time>2013-05-06T10:26:40Z</time>
      </trkpt>
      <trkpt lat="43.40641" lon="-0.52741">
        <ele>190</ele>
        <time>2013-05-06T10:26:41Z</time>
      </trkpt>
      <trkpt lat="43.40646" lon="-0.52755">
        <ele>189</ele>
        <time>2013-05-06T10:26:42Z</time>
      </trkpt>
      <trkpt lat="43.40651" lon="-0.52764">
        <ele>189</ele>
        <time>2013-05-06T10:26:43Z</time>
      </trkpt>
      <trkpt lat="43.40656" lon="-0.52772">
        <ele>190</ele>
        <time>2013-05-06T10:26:44Z</time>
      </trkpt>
      <trkpt lat="43.4066" lon="-0.52779">
        <ele>190</ele>
        <time>2013-05-06T10:26:45Z</time>
      </trkpt>
      <trkpt lat="43.40664" lon="-0.52781">
        <ele>189</ele>
        <time>2013-05-06T10:26:46Z</time>
      </trkpt>
      <trkpt lat="43.40669" lon="-0.52787">
        <ele>189</ele>
        <time>2013-05-06T10:26:47Z</time>
      </trkpt>
      <trkpt lat="43.40672" lon="-0.52789">
        <ele>189</ele>
        <time>2013-05-06T10:26:48Z</time>
      </trkpt>
      <trkpt lat="43.40674" lon="-0.52791">
        <ele>189</ele>
        <time>2013-05-06T10:26:49Z</time>
      </trkpt>
      <trkpt lat="43.40677" lon="-0.52793">
        <ele>188</ele>
        <time>2013-05-06T10:26:50Z</time>
      </trkpt>
      <trkpt lat="43.40678" lon="-0.52794">
        <ele>188</ele>
        <time>2013-05-06T10:26:51Z</time>
      </trkpt>
      <trkpt lat="43.4068" lon="-0.52795">
        <ele>188</ele>
        <time>2013-05-06T10:26:52Z</time>
      </trkpt>
      <trkpt lat="43.40683" lon="-0.52794">
        <ele>188</ele>
        <time>2013-05-06T10:26:53Z</time>
      </trkpt>
      <trkpt lat="43.40687" lon="-0.52794">
        <ele>188</ele>
        <time>2013-05-06T10:26:54Z</time>
      </trkpt>
      <trkpt lat="43.40691" lon="-0.52794">
        <ele>188</ele>
        <time>2013-05-06T10:26:55Z</time>
      </trkpt>
      <trkpt lat="43.40694" lon="-0.52795">
        <ele>188</ele>
        <time>2013-05-06T10:26:56Z</time>
      </trkpt>
      <trkpt lat="43.40698" lon="-0.52796">
        <ele>189</ele>
        <time>2013-05-06T10:26:57Z</time>
      </trkpt>
      <trkpt lat="43.40702" lon="-0.52798">
        <ele>189</ele>
        <time>2013-05-06T10:26:58Z</time>
      </trkpt>
      <trkpt lat="43.40705" lon="-0.52799">
        <ele>190</ele>
        <time>2013-05-06T10:26:59Z</time>
      </trkpt>
      <trkpt lat="43.4071" lon="-0.52801">
        <ele>190</ele>
        <time>2013-05-06T10:27:00Z</time>
      </trkpt>
      <trkpt lat="43.40718" lon="-0.52802">
        <ele>190</ele>
        <time>2013-05-06T10:27:01Z</time>
      </trkpt>
      <trkpt lat="43.40723" lon="-0.52803">
        <ele>190</ele>
        <time>2013-05-06T10:27:02Z</time>
      </trkpt>
      <trkpt lat="43.40728" lon="-0.52806">
        <ele>190</ele>
        <time>2013-05-06T10:27:03Z</time>
      </trkpt>
      <trkpt lat="43.40735" lon="-0.52806">
        <ele>190</ele>
        <time>2013-05-06T10:27:04Z</time>
      </trkpt>
      <trkpt lat="43.40742" lon="-0.52805">
        <ele>191</ele>
        <time>2013-05-06T10:27:05Z</time>
      </trkpt>
      <trkpt lat="43.4075" lon="-0.52803">
        <ele>191</ele>
        <time>2013-05-06T10:27:06Z</time>
      </trkpt>
      <trkpt lat="43.40756" lon="-0.52799">
        <ele>191</ele>
        <time>2013-05-06T10:27:07Z</time>
      </trkpt>
      <trkpt lat="43.40765" lon="-0.52794">
        <ele>191</ele>
        <time>2013-05-06T10:27:08Z</time>
      </trkpt>
      <trkpt lat="43.40772" lon="-0.5279">
        <ele>191</ele>
        <time>2013-05-06T10:27:09Z</time>
      </trkpt>
      <trkpt lat="43.40779" lon="-0.52784">
        <ele>191</ele>
        <time>2013-05-06T10:27:10Z</time>
      </trkpt>
      <trkpt lat="43.40786" lon="-0.52782">
        <ele>191</ele>
        <time>2013-05-06T10:27:11Z</time>
      </trkpt>
      <trkpt lat="43.40793" lon="-0.52778">
        <ele>191</ele>
        <time>2013-05-06T10:27:12Z</time>
      </trkpt>
      <trkpt lat="43.40802" lon="-0.52777">
        <ele>192</ele>
        <time>2013-05-06T10:27:13Z</time>
      </trkpt>
      <trkpt lat="43.40806" lon="-0.52779">
        <ele>192</ele>
        <time>2013-05-06T10:27:14Z</time>
      </trkpt>
      <trkpt lat="43.4081" lon="-0.52776">
        <ele>191</ele>
        <time>2013-05-06T10:27:15Z</time>
      </trkpt>
      <trkpt lat="43.40818" lon="-0.52781">
        <ele>190</ele>
        <time>2013-05-06T10:27:16Z</time>
      </trkpt>
      <trkpt lat="43.40822" lon="-0.52787">
        <ele>191</ele>
        <time>2013-05-06T10:27:17Z</time>
      </trkpt>
      <trkpt lat="43.40826" lon="-0.52795">
        <ele>192</ele>
        <time>2013-05-06T10:27:18Z</time>
      </trkpt>
      <trkpt lat="43.40829" lon="-0.52806">
        <ele>192</ele>
        <time>2013-05-06T10:27:19Z</time>
      </trkpt>
      <trkpt lat="43.40828" lon="-0.52813">
        <ele>192</ele>
        <time>2013-05-06T10:27:20Z</time>
      </trkpt>
      <trkpt lat="43.40823" lon="-0.52835">
        <ele>191</ele>
        <time>2013-05-06T10:27:21Z</time>
      </trkpt>
      <trkpt lat="43.40817" lon="-0.52844">
        <ele>191</ele>
        <time>2013-05-06T10:27:22Z</time>
      </trkpt>
      <trkpt lat="43.4081" lon="-0.52853">
        <ele>191</ele>
        <time>2013-05-06T10:27:23Z</time>
      </trkpt>
      <trkpt lat="43.40804" lon="-0.52864">
        <ele>191</ele>
        <time>2013-05-06T10:27:24Z</time>
      </trkpt>
      <trkpt lat="43.40794" lon="-0.52879">
        <ele>190</ele>
        <time>2013-05-06T10:27:25Z</time>
      </trkpt>
      <trkpt lat="43.40786" lon="-0.52894">
        <ele>188</ele>
        <time>2013-05-06T10:27:26Z</time>
      </trkpt>
      <trkpt lat="43.40779" lon="-0.52908">
        <ele>186</ele>
        <time>2013-05-06T10:27:27Z</time>
      </trkpt>
      <trkpt lat="43.40775" lon="-0.52918">
        <ele>183</ele>
        <time>2013-05-06T10:27:28Z</time>
      </trkpt>
      <trkpt lat="43.40768" lon="-0.52931">
        <ele>182</ele>
        <time>2013-05-06T10:27:29Z</time>
      </trkpt>
      <trkpt lat="43.4076" lon="-0.52946">
        <ele>180</ele>
        <time>2013-05-06T10:27:30Z</time>
      </trkpt>
      <trkpt lat="43.40755" lon="-0.52957">
        <ele>179</ele>
        <time>2013-05-06T10:27:31Z</time>
      </trkpt>
      <trkpt lat="43.40751" lon="-0.52967">
        <ele>178</ele>
        <time>2013-05-06T10:27:32Z</time>
      </trkpt>
      <trkpt lat="43.40748" lon="-0.52976">
        <ele>177</ele>
        <time>2013-05-06T10:27:33Z</time>
      </trkpt>
      <trkpt lat="43.40744" lon="-0.52985">
        <ele>177</ele>
        <time>2013-05-06T10:27:34Z</time>
      </trkpt>
      <trkpt lat="43.40738" lon="-0.52999">
        <ele>176</ele>
        <time>2013-05-06T10:27:35Z</time>
      </trkpt>
      <trkpt lat="43.40731" lon="-0.53013">
        <ele>176</ele>
        <time>2013-05-06T10:27:36Z</time>
      </trkpt>
      <trkpt lat="43.40727" lon="-0.53025">
        <ele>175</ele>
        <time>2013-05-06T10:27:37Z</time>
      </trkpt>
      <trkpt lat="43.40722" lon="-0.53037">
        <ele>176</ele>
        <time>2013-05-06T10:27:38Z</time>
      </trkpt>
      <trkpt lat="43.40717" lon="-0.53051">
        <ele>175</ele>
        <time>2013-05-06T10:27:39Z</time>
      </trkpt>
      <trkpt lat="43.40712" lon="-0.53067">
        <ele>175</ele>
        <time>2013-05-06T10:27:40Z</time>
      </trkpt>
      <trkpt lat="43.40709" lon="-0.53081">
        <ele>175</ele>
        <time>2013-05-06T10:27:41Z</time>
      </trkpt>
      <trkpt lat="43.40706" lon="-0.53094">
        <ele>175</ele>
        <time>2013-05-06T10:27:42Z</time>
      </trkpt>
      <trkpt lat="43.40703" lon="-0.53105">
        <ele>174</ele>
        <time>2013-05-06T10:27:43Z</time>
      </trkpt>
      <trkpt lat="43.40699" lon="-0.53119">
        <ele>174</ele>
        <time>2013-05-06T10:27:44Z</time>
      </trkpt>
      <trkpt lat="43.40695" lon="-0.53132">
        <ele>170</ele>
        <time>2013-05-06T10:27:45Z</time>
      </trkpt>
      <trkpt lat="43.40691" lon="-0.53144">
        <ele>170</ele>
        <time>2013-05-06T10:27:46Z</time>
      </trkpt>
      <trkpt lat="43.40688" lon="-0.53156">
        <ele>170</ele>
        <time>2013-05-06T10:27:47Z</time>
      </trkpt>
      <trkpt lat="43.40683" lon="-0.53168">
        <ele>169</ele>
        <time>2013-05-06T10:27:48Z</time>
      </trkpt>
      <trkpt lat="43.40679" lon="-0.53178">
        <ele>169</ele>
        <time>2013-05-06T10:27:49Z</time>
      </trkpt>
      <trkpt lat="43.40675" lon="-0.53188">
        <ele>168</ele>
        <time>2013-05-06T10:27:50Z</time>
      </trkpt>
      <trkpt lat="43.40669" lon="-0.53199">
        <ele>168</ele>
        <time>2013-05-06T10:27:51Z</time>
      </trkpt>
      <trkpt lat="43.40666" lon="-0.53205">
        <ele>168</ele>
        <time>2013-05-06T10:27:52Z</time>
      </trkpt>
      <trkpt lat="43.4066" lon="-0.53216">
        <ele>168</ele>
        <time>2013-05-06T10:27:53Z</time>
      </trkpt>
      <trkpt lat="43.40654" lon="-0.53226">
        <ele>167</ele>
        <time>2013-05-06T10:27:54Z</time>
      </trkpt>
      <trkpt lat="43.40649" lon="-0.53234">
        <ele>167</ele>
        <time>2013-05-06T10:27:55Z</time>
      </trkpt>
      <trkpt lat="43.40644" lon="-0.53244">
        <ele>167</ele>
        <time>2013-05-06T10:27:56Z</time>
      </trkpt>
      <trkpt lat="43.40635" lon="-0.53258">
        <ele>167</ele>
        <time>2013-05-06T10:27:57Z</time>
      </trkpt>
      <trkpt lat="43.40632" lon="-0.53264">
        <ele>166</ele>
        <time>2013-05-06T10:27:58Z</time>
      </trkpt>
      <trkpt lat="43.40627" lon="-0.53275">
        <ele>165</ele>
        <time>2013-05-06T10:27:59Z</time>
      </trkpt>
      <trkpt lat="43.4062" lon="-0.53288">
        <ele>164</ele>
        <time>2013-05-06T10:28:00Z</time>
      </trkpt>
      <trkpt lat="43.40618" lon="-0.53297">
        <ele>163</ele>
        <time>2013-05-06T10:28:01Z</time>
      </trkpt>
      <trkpt lat="43.40617" lon="-0.533">
        <ele>162</ele>
        <time>2013-05-06T10:28:02Z</time>
      </trkpt>
      <trkpt lat="43.40616" lon="-0.53308">
        <ele>162</ele>
        <time>2013-05-06T10:28:03Z</time>
      </trkpt>
      <trkpt lat="43.40614" lon="-0.53308">
        <ele>162</ele>
        <time>2013-05-06T10:28:04Z</time>
      </trkpt>
      <trkpt lat="43.40608" lon="-0.53307">
        <ele>161</ele>
        <time>2013-05-06T10:28:05Z</time>
      </trkpt>
      <trkpt lat="43.40607" lon="-0.53302">
        <ele>161</ele>
        <time>2013-05-06T10:28:06Z</time>
      </trkpt>
      <trkpt lat="43.40608" lon="-0.53298">
        <ele>160</ele>
        <time>2013-05-06T10:28:07Z</time>
      </trkpt>
      <trkpt lat="43.40609" lon="-0.53294">
        <ele>161</ele>
        <time>2013-05-06T10:28:08Z</time>
      </trkpt>
      <trkpt lat="43.40606" lon="-0.53288">
        <ele>160</ele>
        <time>2013-05-06T10:28:09Z</time>
      </trkpt>
      <trkpt lat="43.40605" lon="-0.53282">
        <ele>160</ele>
        <time>2013-05-06T10:28:10Z</time>
      </trkpt>
      <trkpt lat="43.40604" lon="-0.53278">
        <ele>160</ele>
        <time>2013-05-06T10:28:11Z</time>
      </trkpt>
      <trkpt lat="43.40605" lon="-0.53276">
        <ele>161</ele>
        <time>2013-05-06T10:28:12Z</time>
      </trkpt>
      <trkpt lat="43.40602" lon="-0.53275">
        <ele>160</ele>
        <time>2013-05-06T10:28:13Z</time>
      </trkpt>
      <trkpt lat="43.40601" lon="-0.53272">
        <ele>159</ele>
        <time>2013-05-06T10:28:14Z</time>
      </trkpt>
      <trkpt lat="43.40601" lon="-0.53269">
        <ele>159</ele>
        <time>2013-05-06T10:28:15Z</time>
      </trkpt>
      <trkpt lat="43.40601" lon="-0.53267">
        <ele>159</ele>
        <time>2013-05-06T10:28:16Z</time>
      </trkpt>
      <trkpt lat="43.406" lon="-0.53265">
        <ele>160</ele>
        <time>2013-05-06T10:28:17Z</time>
      </trkpt>
      <trkpt lat="43.406" lon="-0.53263">
        <ele>161</ele>
        <time>2013-05-06T10:28:18Z</time>
      </trkpt>
      <trkpt lat="43.40599" lon="-0.53261">
        <ele>160</ele>
        <time>2013-05-06T10:28:19Z</time>
      </trkpt>
      <trkpt lat="43.40598" lon="-0.53258">
        <ele>161</ele>
        <time>2013-05-06T10:28:20Z</time>
      </trkpt>
      <trkpt lat="43.40598" lon="-0.53254">
        <ele>162</ele>
        <time>2013-05-06T10:28:21Z</time>
      </trkpt>
      <trkpt lat="43.40597" lon="-0.5325">
        <ele>162</ele>
        <time>2013-05-06T10:28:22Z</time>
      </trkpt>
      <trkpt lat="43.40595" lon="-0.53246">
        <ele>162</ele>
        <time>2013-05-06T10:28:23Z</time>
      </trkpt>
      <trkpt lat="43.40594" lon="-0.53244">
        <ele>161</ele>
        <time>2013-05-06T10:28:24Z</time>
      </trkpt>
      <trkpt lat="43.40593" lon="-0.53242">
        <ele>161</ele>
        <time>2013-05-06T10:28:25Z</time>
      </trkpt>
      <trkpt lat="43.40591" lon="-0.53241">
        <ele>161</ele>
        <time>2013-05-06T10:28:26Z</time>
      </trkpt>
      <trkpt lat="43.40589" lon="-0.53242">
        <ele>160</ele>
        <time>2013-05-06T10:28:27Z</time>
      </trkpt>
      <trkpt lat="43.40587" lon="-0.53241">
        <ele>160</ele>
        <time>2013-05-06T10:28:28Z</time>
      </trkpt>
      <trkpt lat="43.40586" lon="-0.53241">
        <ele>160</ele>
        <time>2013-05-06T10:28:29Z</time>
      </trkpt>
      <trkpt lat="43.40585" lon="-0.53241">
        <ele>160</ele>
        <time>2013-05-06T10:28:30Z</time>
      </trkpt>
      <trkpt lat="43.40584" lon="-0.5324">
        <ele>160</ele>
        <time>2013-05-06T10:28:31Z</time>
      </trkpt>
      <trkpt lat="43.40584" lon="-0.53239">
        <ele>160</ele>
        <time>2013-05-06T10:28:32Z</time>
      </trkpt>
      <trkpt lat="43.40584" lon="-0.53239">
        <ele>161</ele>
        <time>2013-05-06T10:28:33Z</time>
      </trkpt>
      <trkpt lat="43.40585" lon="-0.53237">
        <ele>162</ele>
        <time>2013-05-06T10:28:34Z</time>
      </trkpt>
      <trkpt lat="43.40586" lon="-0.53236">
        <ele>161</ele>
        <time>2013-05-06T10:28:35Z</time>
      </trkpt>
      <trkpt lat="43.40588" lon="-0.53236">
        <ele>162</ele>
        <time>2013-05-06T10:28:36Z</time>
      </trkpt>
      <trkpt lat="43.40589" lon="-0.53236">
        <ele>162</ele>
        <time>2013-05-06T10:28:37Z</time>
      </trkpt>
      <trkpt lat="43.40589" lon="-0.53236">
        <ele>162</ele>
        <time>2013-05-06T10:28:38Z</time>
      </trkpt>
      <trkpt lat="43.40589" lon="-0.53236">
        <ele>162</ele>
        <time>2013-05-06T10:28:39Z</time>
      </trkpt>
      <trkpt lat="43.40587" lon="-0.53233">
        <ele>160</ele>
        <time>2013-05-06T10:28:44Z</time>
      </trkpt>
      <trkpt lat="43.40586" lon="-0.53232">
        <ele>160</ele>
        <time>2013-05-06T10:28:45Z</time>
      </trkpt>
      <trkpt lat="43.40585" lon="-0.53231">
        <ele>160</ele>
        <time>2013-05-06T10:28:46Z</time>
      </trkpt>
      <trkpt lat="43.40585" lon="-0.5323">
        <ele>161</ele>
        <time>2013-05-06T10:28:47Z</time>
      </trkpt>
      <trkpt lat="43.40584" lon="-0.53229">
        <ele>162</ele>
        <time>2013-05-06T10:28:48Z</time>
      </trkpt>
      <trkpt lat="43.40584" lon="-0.53228">
        <ele>161</ele>
        <time>2013-05-06T10:28:49Z</time>
      </trkpt>
      <trkpt lat="43.40584" lon="-0.53228">
        <ele>161</ele>
        <time>2013-05-06T10:28:50Z</time>
      </trkpt>
      <trkpt lat="43.40585" lon="-0.53228">
        <ele>160</ele>
        <time>2013-05-06T10:28:51Z</time>
      </trkpt>
      <trkpt lat="43.40585" lon="-0.53228">
        <ele>159</ele>
        <time>2013-05-06T10:28:53Z</time>
      </trkpt>
      <trkpt lat="43.40585" lon="-0.53228">
        <ele>160</ele>
        <time>2013-05-06T10:28:54Z</time>
      </trkpt>
      <trkpt lat="43.40583" lon="-0.53229">
        <ele>159</ele>
        <time>2013-05-06T10:29:00Z</time>
      </trkpt>
      <trkpt lat="43.40583" lon="-0.5323">
        <ele>159</ele>
        <time>2013-05-06T10:29:01Z</time>
      </trkpt>
      <trkpt lat="43.40585" lon="-0.53232">
        <ele>157</ele>
        <time>2013-05-06T10:29:02Z</time>
      </trkpt>
      <trkpt lat="43.40586" lon="-0.53233">
        <ele>156</ele>
        <time>2013-05-06T10:29:03Z</time>
      </trkpt>
      <trkpt lat="43.40587" lon="-0.53233">
        <ele>155</ele>
        <time>2013-05-06T10:29:04Z</time>
      </trkpt>
      <trkpt lat="43.40587" lon="-0.53233">
        <ele>155</ele>
        <time>2013-05-06T10:29:05Z</time>
      </trkpt>
      <trkpt lat="43.40587" lon="-0.53233">
        <ele>156</ele>
        <time>2013-05-06T10:29:06Z</time>
      </trkpt>
      <trkpt lat="43.40587" lon="-0.53233">
        <ele>156</ele>
        <time>2013-05-06T10:29:07Z</time>
      </trkpt>
      <trkpt lat="43.40586" lon="-0.53234">
        <ele>157</ele>
        <time>2013-05-06T10:29:08Z</time>
      </trkpt>
      <trkpt lat="43.40585" lon="-0.53235">
        <ele>159</ele>
        <time>2013-05-06T10:29:09Z</time>
      </trkpt>
      <trkpt lat="43.40583" lon="-0.53235">
        <ele>158</ele>
        <time>2013-05-06T10:29:10Z</time>
      </trkpt>
      <trkpt lat="43.40582" lon="-0.53235">
        <ele>156</ele>
        <time>2013-05-06T10:29:11Z</time>
      </trkpt>
      <trkpt lat="43.40582" lon="-0.53235">
        <ele>155</ele>
        <time>2013-05-06T10:29:12Z</time>
      </trkpt>
      <trkpt lat="43.40581" lon="-0.53235">
        <ele>156</ele>
        <time>2013-05-06T10:29:13Z</time>
      </trkpt>
      <trkpt lat="43.4058" lon="-0.53234">
        <ele>156</ele>
        <time>2013-05-06T10:29:14Z</time>
      </trkpt>
      <trkpt lat="43.4058" lon="-0.53233">
        <ele>157</ele>
        <time>2013-05-06T10:29:15Z</time>
      </trkpt>
      <trkpt lat="43.4058" lon="-0.53233">
        <ele>157</ele>
        <time>2013-05-06T10:29:16Z</time>
      </trkpt>
      <trkpt lat="43.4058" lon="-0.53234">
        <ele>156</ele>
        <time>2013-05-06T10:29:17Z</time>
      </trkpt>
      <trkpt lat="43.40579" lon="-0.53234">
        <ele>156</ele>
        <time>2013-05-06T10:29:18Z</time>
      </trkpt>
      <trkpt lat="43.40578" lon="-0.53234">
        <ele>156</ele>
        <time>2013-05-06T10:29:19Z</time>
      </trkpt>
      <trkpt lat="43.40576" lon="-0.53234">
        <ele>156</ele>
        <time>2013-05-06T10:29:20Z</time>
      </trkpt>
      <trkpt lat="43.40574" lon="-0.53232">
        <ele>156</ele>
        <time>2013-05-06T10:29:21Z</time>
      </trkpt>
      <trkpt lat="43.40572" lon="-0.53231">
        <ele>157</ele>
        <time>2013-05-06T10:29:22Z</time>
      </trkpt>
      <trkpt lat="43.40569" lon="-0.5323">
        <ele>157</ele>
        <time>2013-05-06T10:29:23Z</time>
      </trkpt>
      <trkpt lat="43.40567" lon="-0.53229">
        <ele>158</ele>
        <time>2013-05-06T10:29:24Z</time>
      </trkpt>
      <trkpt lat="43.40566" lon="-0.53229">
        <ele>159</ele>
        <time>2013-05-06T10:29:25Z</time>
      </trkpt>
      <trkpt lat="43.40564" lon="-0.53229">
        <ele>159</ele>
        <time>2013-05-06T10:29:26Z</time>
      </trkpt>
      <trkpt lat="43.40562" lon="-0.53229">
        <ele>160</ele>
        <time>2013-05-06T10:29:27Z</time>
      </trkpt>
      <trkpt lat="43.40561" lon="-0.53227">
        <ele>159</ele>
        <time>2013-05-06T10:29:28Z</time>
      </trkpt>
      <trkpt lat="43.40559" lon="-0.53225">
        <ele>160</ele>
        <time>2013-05-06T10:29:29Z</time>
      </trkpt>
      <trkpt lat="43.40558" lon="-0.53222">
        <ele>159</ele>
        <time>2013-05-06T10:29:30Z</time>
      </trkpt>
      <trkpt lat="43.40556" lon="-0.5322">
        <ele>160</ele>
        <time>2013-05-06T10:29:31Z</time>
      </trkpt>
      <trkpt lat="43.40554" lon="-0.53218">
        <ele>160</ele>
        <time>2013-05-06T10:29:32Z</time>
      </trkpt>
      <trkpt lat="43.40553" lon="-0.53216">
        <ele>160</ele>
        <time>2013-05-06T10:29:33Z</time>
      </trkpt>
      <trkpt lat="43.4055" lon="-0.53213">
        <ele>161</ele>
        <time>2013-05-06T10:29:34Z</time>
      </trkpt>
      <trkpt lat="43.40549" lon="-0.5321">
        <ele>160</ele>
        <time>2013-05-06T10:29:35Z</time>
      </trkpt>
      <trkpt lat="43.40548" lon="-0.53207">
        <ele>160</ele>
        <time>2013-05-06T10:29:36Z</time>
      </trkpt>
      <trkpt lat="43.40548" lon="-0.53204">
        <ele>160</ele>
        <time>2013-05-06T10:29:37Z</time>
      </trkpt>
      <trkpt lat="43.40548" lon="-0.53201">
        <ele>159</ele>
        <time>2013-05-06T10:29:38Z</time>
      </trkpt>
      <trkpt lat="43.40548" lon="-0.53197">
        <ele>160</ele>
        <time>2013-05-06T10:29:39Z</time>
      </trkpt>
      <trkpt lat="43.40548" lon="-0.53194">
        <ele>161</ele>
        <time>2013-05-06T10:29:40Z</time>
      </trkpt>
      <trkpt lat="43.40546" lon="-0.53191">
        <ele>162</ele>
        <time>2013-05-06T10:29:41Z</time>
      </trkpt>
      <trkpt lat="43.40546" lon="-0.53189">
        <ele>162</ele>
        <time>2013-05-06T10:29:42Z</time>
      </trkpt>
      <trkpt lat="43.40545" lon="-0.53187">
        <ele>162</ele>
        <time>2013-05-06T10:29:43Z</time>
      </trkpt>
      <trkpt lat="43.40543" lon="-0.53185">
        <ele>163</ele>
        <time>2013-05-06T10:29:44Z</time>
      </trkpt>
      <trkpt lat="43.40542" lon="-0.53182">
        <ele>164</ele>
        <time>2013-05-06T10:29:45Z</time>
      </trkpt>
      <trkpt lat="43.4054" lon="-0.53179">
        <ele>165</ele>
        <time>2013-05-06T10:29:46Z</time>
      </trkpt>
      <trkpt lat="43.40538" lon="-0.53176">
        <ele>164</ele>
        <time>2013-05-06T10:29:47Z</time>
      </trkpt>
      <trkpt lat="43.40537" lon="-0.53173">
        <ele>165</ele>
        <time>2013-05-06T10:29:48Z</time>
      </trkpt>
      <trkpt lat="43.40535" lon="-0.5317">
        <ele>164</ele>
        <time>2013-05-06T10:29:49Z</time>
      </trkpt>
      <trkpt lat="43.40534" lon="-0.53168">
        <ele>164</ele>
        <time>2013-05-06T10:29:50Z</time>
      </trkpt>
      <trkpt lat="43.40532" lon="-0.53164">
        <ele>163</ele>
        <time>2013-05-06T10:29:51Z</time>
      </trkpt>
      <trkpt lat="43.4053" lon="-0.53161">
        <ele>164</ele>
        <time>2013-05-06T10:29:52Z</time>
      </trkpt>
      <trkpt lat="43.40527" lon="-0.53158">
        <ele>163</ele>
        <time>2013-05-06T10:29:53Z</time>
      </trkpt>
      <trkpt lat="43.40526" lon="-0.53155">
        <ele>163</ele>
        <time>2013-05-06T10:29:54Z</time>
      </trkpt>
      <trkpt lat="43.40525" lon="-0.53152">
        <ele>163</ele>
        <time>2013-05-06T10:29:55Z</time>
      </trkpt>
      <trkpt lat="43.40524" lon="-0.53149">
        <ele>162</ele>
        <time>2013-05-06T10:29:56Z</time>
      </trkpt>
      <trkpt lat="43.40524" lon="-0.53146">
        <ele>162</ele>
        <time>2013-05-06T10:29:57Z</time>
      </trkpt>
      <trkpt lat="43.40523" lon="-0.53144">
        <ele>162</ele>
        <time>2013-05-06T10:29:58Z</time>
      </trkpt>
      <trkpt lat="43.40522" lon="-0.53141">
        <ele>161</ele>
        <time>2013-05-06T10:29:59Z</time>
      </trkpt>
      <trkpt lat="43.40522" lon="-0.53139">
        <ele>161</ele>
        <time>2013-05-06T10:30:00Z</time>
      </trkpt>
      <trkpt lat="43.40521" lon="-0.53136">
        <ele>161</ele>
        <time>2013-05-06T10:30:01Z</time>
      </trkpt>
      <trkpt lat="43.40521" lon="-0.53134">
        <ele>161</ele>
        <time>2013-05-06T10:30:02Z</time>
      </trkpt>
      <trkpt lat="43.4052" lon="-0.53132">
        <ele>161</ele>
        <time>2013-05-06T10:30:03Z</time>
      </trkpt>
      <trkpt lat="43.40519" lon="-0.5313">
        <ele>161</ele>
        <time>2013-05-06T10:30:04Z</time>
      </trkpt>
      <trkpt lat="43.40518" lon="-0.53128">
        <ele>162</ele>
        <time>2013-05-06T10:30:05Z</time>
      </trkpt>
      <trkpt lat="43.40517" lon="-0.53126">
        <ele>161</ele>
        <time>2013-05-06T10:30:06Z</time>
      </trkpt>
      <trkpt lat="43.40517" lon="-0.53124">
        <ele>161</ele>
        <time>2013-05-06T10:30:07Z</time>
      </trkpt>
      <trkpt lat="43.40516" lon="-0.53122">
        <ele>161</ele>
        <time>2013-05-06T10:30:08Z</time>
      </trkpt>
      <trkpt lat="43.40515" lon="-0.53119">
        <ele>161</ele>
        <time>2013-05-06T10:30:09Z</time>
      </trkpt>
      <trkpt lat="43.40514" lon="-0.53117">
        <ele>161</ele>
        <time>2013-05-06T10:30:10Z</time>
      </trkpt>
      <trkpt lat="43.40513" lon="-0.53114">
        <ele>160</ele>
        <time>2013-05-06T10:30:11Z</time>
      </trkpt>
      <trkpt lat="43.40512" lon="-0.53111">
        <ele>160</ele>
        <time>2013-05-06T10:30:12Z</time>
      </trkpt>
      <trkpt lat="43.40511" lon="-0.53109">
        <ele>160</ele>
        <time>2013-05-06T10:30:13Z</time>
      </trkpt>
      <trkpt lat="43.40511" lon="-0.53106">
        <ele>161</ele>
        <time>2013-05-06T10:30:14Z</time>
      </trkpt>
      <trkpt lat="43.4051" lon="-0.53103">
        <ele>162</ele>
        <time>2013-05-06T10:30:15Z</time>
      </trkpt>
      <trkpt lat="43.4051" lon="-0.531">
        <ele>163</ele>
        <time>2013-05-06T10:30:16Z</time>
      </trkpt>
      <trkpt lat="43.40509" lon="-0.53097">
        <ele>163</ele>
        <time>2013-05-06T10:30:17Z</time>
      </trkpt>
      <trkpt lat="43.40509" lon="-0.53095">
        <ele>163</ele>
        <time>2013-05-06T10:30:18Z</time>
      </trkpt>
      <trkpt lat="43.40508" lon="-0.53093">
        <ele>163</ele>
        <time>2013-05-06T10:30:19Z</time>
      </trkpt>
      <trkpt lat="43.40506" lon="-0.53091">
        <ele>163</ele>
        <time>2013-05-06T10:30:20Z</time>
      </trkpt>
      <trkpt lat="43.40505" lon="-0.53088">
        <ele>164</ele>
        <time>2013-05-06T10:30:21Z</time>
      </trkpt>
      <trkpt lat="43.40503" lon="-0.53085">
        <ele>163</ele>
        <time>2013-05-06T10:30:22Z</time>
      </trkpt>
      <trkpt lat="43.40502" lon="-0.53082">
        <ele>164</ele>
        <time>2013-05-06T10:30:23Z</time>
      </trkpt>
      <trkpt lat="43.405" lon="-0.53078">
        <ele>164</ele>
        <time>2013-05-06T10:30:24Z</time>
      </trkpt>
      <trkpt lat="43.40498" lon="-0.53075">
        <ele>165</ele>
        <time>2013-05-06T10:30:25Z</time>
      </trkpt>
      <trkpt lat="43.40497" lon="-0.53072">
        <ele>164</ele>
        <time>2013-05-06T10:30:26Z</time>
      </trkpt>
      <trkpt lat="43.40496" lon="-0.53069">
        <ele>164</ele>
        <time>2013-05-06T10:30:27Z</time>
      </trkpt>
      <trkpt lat="43.40494" lon="-0.53065">
        <ele>163</ele>
        <time>2013-05-06T10:30:28Z</time>
      </trkpt>
      <trkpt lat="43.40493" lon="-0.53062">
        <ele>162</ele>
        <time>2013-05-06T10:30:29Z</time>
      </trkpt>
      <trkpt lat="43.40491" lon="-0.53058">
        <ele>161</ele>
        <time>2013-05-06T10:30:30Z</time>
      </trkpt>
      <trkpt lat="43.4049" lon="-0.53055">
        <ele>161</ele>
        <time>2013-05-06T10:30:31Z</time>
      </trkpt>
      <trkpt lat="43.40488" lon="-0.53051">
        <ele>161</ele>
        <time>2013-05-06T10:30:32Z</time>
      </trkpt>
      <trkpt lat="43.40488" lon="-0.53049">
        <ele>160</ele>
        <time>2013-05-06T10:30:33Z</time>
      </trkpt>
      <trkpt lat="43.40487" lon="-0.53046">
        <ele>161</ele>
        <time>2013-05-06T10:30:34Z</time>
      </trkpt>
      <trkpt lat="43.40486" lon="-0.53044">
        <ele>161</ele>
        <time>2013-05-06T10:30:35Z</time>
      </trkpt>
      <trkpt lat="43.40486" lon="-0.53041">
        <ele>160</ele>
        <time>2013-05-06T10:30:36Z</time>
      </trkpt>
      <trkpt lat="43.40485" lon="-0.53039">
        <ele>161</ele>
        <time>2013-05-06T10:30:37Z</time>
      </trkpt>
      <trkpt lat="43.40483" lon="-0.53038">
        <ele>161</ele>
        <time>2013-05-06T10:30:38Z</time>
      </trkpt>
      <trkpt lat="43.40482" lon="-0.53036">
        <ele>162</ele>
        <time>2013-05-06T10:30:39Z</time>
      </trkpt>
      <trkpt lat="43.4048" lon="-0.53035">
        <ele>163</ele>
        <time>2013-05-06T10:30:40Z</time>
      </trkpt>
      <trkpt lat="43.40479" lon="-0.53035">
        <ele>163</ele>
        <time>2013-05-06T10:30:41Z</time>
      </trkpt>
      <trkpt lat="43.40477" lon="-0.53034">
        <ele>164</ele>
        <time>2013-05-06T10:30:42Z</time>
      </trkpt>
      <trkpt lat="43.40475" lon="-0.53033">
        <ele>166</ele>
        <time>2013-05-06T10:30:43Z</time>
      </trkpt>
      <trkpt lat="43.40474" lon="-0.53032">
        <ele>167</ele>
        <time>2013-05-06T10:30:44Z</time>
      </trkpt>
      <trkpt lat="43.40472" lon="-0.53032">
        <ele>167</ele>
        <time>2013-05-06T10:30:45Z</time>
      </trkpt>
      <trkpt lat="43.40471" lon="-0.53031">
        <ele>168</ele>
        <time>2013-05-06T10:30:46Z</time>
      </trkpt>
      <trkpt lat="43.40471" lon="-0.53029">
        <ele>168</ele>
        <time>2013-05-06T10:30:47Z</time>
      </trkpt>
      <trkpt lat="43.4047" lon="-0.53028">
        <ele>168</ele>
        <time>2013-05-06T10:30:48Z</time>
      </trkpt>
      <trkpt lat="43.40469" lon="-0.53026">
        <ele>168</ele>
        <time>2013-05-06T10:30:49Z</time>
      </trkpt>
      <trkpt lat="43.40469" lon="-0.53024">
        <ele>169</ele>
        <time>2013-05-06T10:30:50Z</time>
      </trkpt>
      <trkpt lat="43.40468" lon="-0.53023">
        <ele>168</ele>
        <time>2013-05-06T10:30:51Z</time>
      </trkpt>
      <trkpt lat="43.40466" lon="-0.53021">
        <ele>168</ele>
        <time>2013-05-06T10:30:52Z</time>
      </trkpt>
      <trkpt lat="43.40464" lon="-0.53019">
        <ele>168</ele>
        <time>2013-05-06T10:30:53Z</time>
      </trkpt>
      <trkpt lat="43.40463" lon="-0.53015">
        <ele>166</ele>
        <time>2013-05-06T10:30:54Z</time>
      </trkpt>
      <trkpt lat="43.40461" lon="-0.53013">
        <ele>167</ele>
        <time>2013-05-06T10:30:55Z</time>
      </trkpt>
      <trkpt lat="43.4046" lon="-0.5301">
        <ele>168</ele>
        <time>2013-05-06T10:30:56Z</time>
      </trkpt>
      <trkpt lat="43.40459" lon="-0.53007">
        <ele>168</ele>
        <time>2013-05-06T10:30:57Z</time>
      </trkpt>
      <trkpt lat="43.40459" lon="-0.53005">
        <ele>169</ele>
        <time>2013-05-06T10:30:58Z</time>
      </trkpt>
      <trkpt lat="43.40458" lon="-0.53003">
        <ele>170</ele>
        <time>2013-05-06T10:30:59Z</time>
      </trkpt>
      <trkpt lat="43.40457" lon="-0.53001">
        <ele>170</ele>
        <time>2013-05-06T10:31:00Z</time>
      </trkpt>
      <trkpt lat="43.40456" lon="-0.53">
        <ele>170</ele>
        <time>2013-05-06T10:31:01Z</time>
      </trkpt>
      <trkpt lat="43.40455" lon="-0.52998">
        <ele>170</ele>
        <time>2013-05-06T10:31:02Z</time>
      </trkpt>
      <trkpt lat="43.40455" lon="-0.52997">
        <ele>170</ele>
        <time>2013-05-06T10:31:03Z</time>
      </trkpt>
      <trkpt lat="43.40454" lon="-0.52994">
        <ele>170</ele>
        <time>2013-05-06T10:31:04Z</time>
      </trkpt>
      <trkpt lat="43.40453" lon="-0.52992">
        <ele>171</ele>
        <time>2013-05-06T10:31:05Z</time>
      </trkpt>
      <trkpt lat="43.40452" lon="-0.52989">
        <ele>171</ele>
        <time>2013-05-06T10:31:06Z</time>
      </trkpt>
      <trkpt lat="43.40451" lon="-0.52988">
        <ele>171</ele>
        <time>2013-05-06T10:31:07Z</time>
      </trkpt>
      <trkpt lat="43.4045" lon="-0.52985">
        <ele>172</ele>
        <time>2013-05-06T10:31:08Z</time>
      </trkpt>
      <trkpt lat="43.40448" lon="-0.52983">
        <ele>172</ele>
        <time>2013-05-06T10:31:09Z</time>
      </trkpt>
      <trkpt lat="43.40446" lon="-0.52981">
        <ele>171</ele>
        <time>2013-05-06T10:31:10Z</time>
      </trkpt>
      <trkpt lat="43.40443" lon="-0.5298">
        <ele>170</ele>
        <time>2013-05-06T10:31:11Z</time>
      </trkpt>
      <trkpt lat="43.40442" lon="-0.52978">
        <ele>169</ele>
        <time>2013-05-06T10:31:12Z</time>
      </trkpt>
      <trkpt lat="43.4044" lon="-0.52976">
        <ele>169</ele>
        <time>2013-05-06T10:31:13Z</time>
      </trkpt>
      <trkpt lat="43.40438" lon="-0.52974">
        <ele>170</ele>
        <time>2013-05-06T10:31:14Z</time>
      </trkpt>
      <trkpt lat="43.40437" lon="-0.52972">
        <ele>171</ele>
        <time>2013-05-06T10:31:15Z</time>
      </trkpt>
      <trkpt lat="43.40436" lon="-0.5297">
        <ele>171</ele>
        <time>2013-05-06T10:31:16Z</time>
      </trkpt>
      <trkpt lat="43.40435" lon="-0.52967">
        <ele>169</ele>
        <time>2013-05-06T10:31:17Z</time>
      </trkpt>
      <trkpt lat="43.40434" lon="-0.52965">
        <ele>169</ele>
        <time>2013-05-06T10:31:18Z</time>
      </trkpt>
      <trkpt lat="43.40433" lon="-0.52963">
        <ele>170</ele>
        <time>2013-05-06T10:31:19Z</time>
      </trkpt>
      <trkpt lat="43.40432" lon="-0.52962">
        <ele>171</ele>
        <time>2013-05-06T10:31:20Z</time>
      </trkpt>
      <trkpt lat="43.4043" lon="-0.52961">
        <ele>172</ele>
        <time>2013-05-06T10:31:21Z</time>
      </trkpt>
      <trkpt lat="43.40426" lon="-0.52959">
        <ele>172</ele>
        <time>2013-05-06T10:31:22Z</time>
      </trkpt>
      <trkpt lat="43.40424" lon="-0.52957">
        <ele>171</ele>
        <time>2013-05-06T10:31:23Z</time>
      </trkpt>
      <trkpt lat="43.40421" lon="-0.52954">
        <ele>172</ele>
        <time>2013-05-06T10:31:24Z</time>
      </trkpt>
      <trkpt lat="43.4042" lon="-0.52951">
        <ele>172</ele>
        <time>2013-05-06T10:31:25Z</time>
      </trkpt>
      <trkpt lat="43.40418" lon="-0.5295">
        <ele>172</ele>
        <time>2013-05-06T10:31:26Z</time>
      </trkpt>
      <trkpt lat="43.40416" lon="-0.52948">
        <ele>172</ele>
        <time>2013-05-06T10:31:27Z</time>
      </trkpt>
      <trkpt lat="43.40415" lon="-0.52947">
        <ele>171</ele>
        <time>2013-05-06T10:31:28Z</time>
      </trkpt>
      <trkpt lat="43.40414" lon="-0.52946">
        <ele>172</ele>
        <time>2013-05-06T10:31:29Z</time>
      </trkpt>
      <trkpt lat="43.40414" lon="-0.52946">
        <ele>172</ele>
        <time>2013-05-06T10:31:30Z</time>
      </trkpt>
      <trkpt lat="43.40415" lon="-0.52944">
        <ele>174</ele>
        <time>2013-05-06T10:31:31Z</time>
      </trkpt>
      <trkpt lat="43.40415" lon="-0.52943">
        <ele>174</ele>
        <time>2013-05-06T10:31:32Z</time>
      </trkpt>
      <trkpt lat="43.40416" lon="-0.52942">
        <ele>174</ele>
        <time>2013-05-06T10:31:33Z</time>
      </trkpt>
      <trkpt lat="43.40416" lon="-0.5294">
        <ele>174</ele>
        <time>2013-05-06T10:31:34Z</time>
      </trkpt>
      <trkpt lat="43.40415" lon="-0.52938">
        <ele>174</ele>
        <time>2013-05-06T10:31:35Z</time>
      </trkpt>
      <trkpt lat="43.40414" lon="-0.52935">
        <ele>173</ele>
        <time>2013-05-06T10:31:36Z</time>
      </trkpt>
      <trkpt lat="43.40413" lon="-0.52933">
        <ele>173</ele>
        <time>2013-05-06T10:31:37Z</time>
      </trkpt>
      <trkpt lat="43.40413" lon="-0.5293">
        <ele>173</ele>
        <time>2013-05-06T10:31:38Z</time>
      </trkpt>
      <trkpt lat="43.40411" lon="-0.52927">
        <ele>172</ele>
        <time>2013-05-06T10:31:39Z</time>
      </trkpt>
      <trkpt lat="43.4041" lon="-0.52925">
        <ele>172</ele>
        <time>2013-05-06T10:31:40Z</time>
      </trkpt>
      <trkpt lat="43.40409" lon="-0.52924">
        <ele>172</ele>
        <time>2013-05-06T10:31:41Z</time>
      </trkpt>
      <trkpt lat="43.40408" lon="-0.52922">
        <ele>172</ele>
        <time>2013-05-06T10:31:42Z</time>
      </trkpt>
      <trkpt lat="43.40407" lon="-0.52919">
        <ele>172</ele>
        <time>2013-05-06T10:31:43Z</time>
      </trkpt>
      <trkpt lat="43.40406" lon="-0.52918">
        <ele>172</ele>
        <time>2013-05-06T10:31:44Z</time>
      </trkpt>
      <trkpt lat="43.40406" lon="-0.52916">
        <ele>172</ele>
        <time>2013-05-06T10:31:45Z</time>
      </trkpt>
      <trkpt lat="43.40405" lon="-0.52914">
        <ele>171</ele>
        <time>2013-05-06T10:31:46Z</time>
      </trkpt>
      <trkpt lat="43.40405" lon="-0.52913">
        <ele>173</ele>
        <time>2013-05-06T10:31:47Z</time>
      </trkpt>
      <trkpt lat="43.40403" lon="-0.52911">
        <ele>174</ele>
        <time>2013-05-06T10:31:48Z</time>
      </trkpt>
      <trkpt lat="43.40402" lon="-0.52909">
        <ele>174</ele>
        <time>2013-05-06T10:31:49Z</time>
      </trkpt>
      <trkpt lat="43.40401" lon="-0.52907">
        <ele>174</ele>
        <time>2013-05-06T10:31:50Z</time>
      </trkpt>
      <trkpt lat="43.404" lon="-0.52905">
        <ele>175</ele>
        <time>2013-05-06T10:31:51Z</time>
      </trkpt>
      <trkpt lat="43.40399" lon="-0.52903">
        <ele>175</ele>
        <time>2013-05-06T10:31:52Z</time>
      </trkpt>
      <trkpt lat="43.40398" lon="-0.52901">
        <ele>176</ele>
        <time>2013-05-06T10:31:53Z</time>
      </trkpt>
      <trkpt lat="43.40398" lon="-0.52899">
        <ele>177</ele>
        <time>2013-05-06T10:31:54Z</time>
      </trkpt>
      <trkpt lat="43.40397" lon="-0.52897">
        <ele>177</ele>
        <time>2013-05-06T10:31:55Z</time>
      </trkpt>
      <trkpt lat="43.40395" lon="-0.52895">
        <ele>177</ele>
        <time>2013-05-06T10:31:56Z</time>
      </trkpt>
      <trkpt lat="43.40394" lon="-0.52892">
        <ele>177</ele>
        <time>2013-05-06T10:31:57Z</time>
      </trkpt>
      <trkpt lat="43.40393" lon="-0.5289">
        <ele>175</ele>
        <time>2013-05-06T10:31:58Z</time>
      </trkpt>
      <trkpt lat="43.40391" lon="-0.52888">
        <ele>176</ele>
        <time>2013-05-06T10:31:59Z</time>
      </trkpt>
      <trkpt lat="43.4039" lon="-0.52887">
        <ele>176</ele>
        <time>2013-05-06T10:32:00Z</time>
      </trkpt>
      <trkpt lat="43.40388" lon="-0.52884">
        <ele>176</ele>
        <time>2013-05-06T10:32:01Z</time>
      </trkpt>
      <trkpt lat="43.40387" lon="-0.52882">
        <ele>175</ele>
        <time>2013-05-06T10:32:02Z</time>
      </trkpt>
      <trkpt lat="43.40386" lon="-0.52881">
        <ele>175</ele>
        <time>2013-05-06T10:32:03Z</time>
      </trkpt>
      <trkpt lat="43.40385" lon="-0.52879">
        <ele>176</ele>
        <time>2013-05-06T10:32:04Z</time>
      </trkpt>
      <trkpt lat="43.40384" lon="-0.52876">
        <ele>176</ele>
        <time>2013-05-06T10:32:05Z</time>
      </trkpt>
      <trkpt lat="43.40384" lon="-0.52874">
        <ele>177</ele>
        <time>2013-05-06T10:32:06Z</time>
      </trkpt>
      <trkpt lat="43.40383" lon="-0.52871">
        <ele>178</ele>
        <time>2013-05-06T10:32:07Z</time>
      </trkpt>
      <trkpt lat="43.40382" lon="-0.52869">
        <ele>177</ele>
        <time>2013-05-06T10:32:08Z</time>
      </trkpt>
      <trkpt lat="43.4038" lon="-0.52866">
        <ele>176</ele>
        <time>2013-05-06T10:32:09Z</time>
      </trkpt>
      <trkpt lat="43.40378" lon="-0.52864">
        <ele>177</ele>
        <time>2013-05-06T10:32:10Z</time>
      </trkpt>
      <trkpt lat="43.40377" lon="-0.52861">
        <ele>177</ele>
        <time>2013-05-06T10:32:11Z</time>
      </trkpt>
      <trkpt lat="43.40375" lon="-0.52858">
        <ele>179</ele>
        <time>2013-05-06T10:32:12Z</time>
      </trkpt>
      <trkpt lat="43.40373" lon="-0.52854">
        <ele>182</ele>
        <time>2013-05-06T10:32:13Z</time>
      </trkpt>
      <trkpt lat="43.40372" lon="-0.52851">
        <ele>183</ele>
        <time>2013-05-06T10:32:14Z</time>
      </trkpt>
      <trkpt lat="43.4037" lon="-0.5285">
        <ele>184</ele>
        <time>2013-05-06T10:32:15Z</time>
      </trkpt>
      <trkpt lat="43.40369" lon="-0.52848">
        <ele>184</ele>
        <time>2013-05-06T10:32:16Z</time>
      </trkpt>
      <trkpt lat="43.40367" lon="-0.52847">
        <ele>185</ele>
        <time>2013-05-06T10:32:17Z</time>
      </trkpt>
      <trkpt lat="43.40366" lon="-0.52846">
        <ele>185</ele>
        <time>2013-05-06T10:32:18Z</time>
      </trkpt>
      <trkpt lat="43.40365" lon="-0.52844">
        <ele>186</ele>
        <time>2013-05-06T10:32:19Z</time>
      </trkpt>
      <trkpt lat="43.40363" lon="-0.52843">
        <ele>186</ele>
        <time>2013-05-06T10:32:20Z</time>
      </trkpt>
      <trkpt lat="43.40363" lon="-0.52841">
        <ele>187</ele>
        <time>2013-05-06T10:32:21Z</time>
      </trkpt>
      <trkpt lat="43.40362" lon="-0.52839">
        <ele>187</ele>
        <time>2013-05-06T10:32:22Z</time>
      </trkpt>
      <trkpt lat="43.40361" lon="-0.52837">
        <ele>187</ele>
        <time>2013-05-06T10:32:23Z</time>
      </trkpt>
      <trkpt lat="43.4036" lon="-0.52835">
        <ele>186</ele>
        <time>2013-05-06T10:32:24Z</time>
      </trkpt>
      <trkpt lat="43.40359" lon="-0.52833">
        <ele>186</ele>
        <time>2013-05-06T10:32:25Z</time>
      </trkpt>
      <trkpt lat="43.40358" lon="-0.52831">
        <ele>186</ele>
        <time>2013-05-06T10:32:26Z</time>
      </trkpt>
      <trkpt lat="43.40356" lon="-0.5283">
        <ele>186</ele>
        <time>2013-05-06T10:32:27Z</time>
      </trkpt>
      <trkpt lat="43.40355" lon="-0.52827">
        <ele>185</ele>
        <time>2013-05-06T10:32:28Z</time>
      </trkpt>
      <trkpt lat="43.40354" lon="-0.52825">
        <ele>185</ele>
        <time>2013-05-06T10:32:29Z</time>
      </trkpt>
      <trkpt lat="43.40353" lon="-0.52822">
        <ele>185</ele>
        <time>2013-05-06T10:32:30Z</time>
      </trkpt>
      <trkpt lat="43.40352" lon="-0.5282">
        <ele>185</ele>
        <time>2013-05-06T10:32:31Z</time>
      </trkpt>
      <trkpt lat="43.4035" lon="-0.52817">
        <ele>185</ele>
        <time>2013-05-06T10:32:32Z</time>
      </trkpt>
      <trkpt lat="43.40349" lon="-0.52814">
        <ele>184</ele>
        <time>2013-05-06T10:32:33Z</time>
      </trkpt>
      <trkpt lat="43.40348" lon="-0.52811">
        <ele>184</ele>
        <time>2013-05-06T10:32:34Z</time>
      </trkpt>
      <trkpt lat="43.40347" lon="-0.52806">
        <ele>183</ele>
        <time>2013-05-06T10:32:35Z</time>
      </trkpt>
      <trkpt lat="43.40346" lon="-0.52802">
        <ele>183</ele>
        <time>2013-05-06T10:32:36Z</time>
      </trkpt>
      <trkpt lat="43.40345" lon="-0.52799">
        <ele>183</ele>
        <time>2013-05-06T10:32:37Z</time>
      </trkpt>
      <trkpt lat="43.40345" lon="-0.52795">
        <ele>182</ele>
        <time>2013-05-06T10:32:38Z</time>
      </trkpt>
      <trkpt lat="43.40344" lon="-0.52792">
        <ele>182</ele>
        <time>2013-05-06T10:32:39Z</time>
      </trkpt>
      <trkpt lat="43.40344" lon="-0.52789">
        <ele>183</ele>
        <time>2013-05-06T10:32:40Z</time>
      </trkpt>
      <trkpt lat="43.40343" lon="-0.52785">
        <ele>183</ele>
        <time>2013-05-06T10:32:41Z</time>
      </trkpt>
      <trkpt lat="43.40341" lon="-0.52782">
        <ele>183</ele>
        <time>2013-05-06T10:32:42Z</time>
      </trkpt>
      <trkpt lat="43.4034" lon="-0.52779">
        <ele>183</ele>
        <time>2013-05-06T10:32:43Z</time>
      </trkpt>
      <trkpt lat="43.40338" lon="-0.52777">
        <ele>184</ele>
        <time>2013-05-06T10:32:44Z</time>
      </trkpt>
      <trkpt lat="43.40337" lon="-0.52774">
        <ele>184</ele>
        <time>2013-05-06T10:32:45Z</time>
      </trkpt>
      <trkpt lat="43.40335" lon="-0.5277">
        <ele>185</ele>
        <time>2013-05-06T10:32:46Z</time>
      </trkpt>
      <trkpt lat="43.40334" lon="-0.52767">
        <ele>185</ele>
        <time>2013-05-06T10:32:47Z</time>
      </trkpt>
      <trkpt lat="43.40332" lon="-0.52764">
        <ele>185</ele>
        <time>2013-05-06T10:32:48Z</time>
      </trkpt>
      <trkpt lat="43.40331" lon="-0.5276">
        <ele>185</ele>
        <time>2013-05-06T10:32:49Z</time>
      </trkpt>
      <trkpt lat="43.40331" lon="-0.52757">
        <ele>185</ele>
        <time>2013-05-06T10:32:50Z</time>
      </trkpt>
      <trkpt lat="43.40329" lon="-0.52752">
        <ele>186</ele>
        <time>2013-05-06T10:32:51Z</time>
      </trkpt>
      <trkpt lat="43.40327" lon="-0.52745">
        <ele>185</ele>
        <time>2013-05-06T10:32:52Z</time>
      </trkpt>
      <trkpt lat="43.40325" lon="-0.5274">
        <ele>183</ele>
        <time>2013-05-06T10:32:53Z</time>
      </trkpt>
      <trkpt lat="43.40321" lon="-0.52733">
        <ele>183</ele>
        <time>2013-05-06T10:32:54Z</time>
      </trkpt>
      <trkpt lat="43.40319" lon="-0.52727">
        <ele>182</ele>
        <time>2013-05-06T10:32:55Z</time>
      </trkpt>
      <trkpt lat="43.40318" lon="-0.5272">
        <ele>181</ele>
        <time>2013-05-06T10:32:56Z</time>
      </trkpt>
      <trkpt lat="43.40318" lon="-0.52712">
        <ele>180</ele>
        <time>2013-05-06T10:32:57Z</time>
      </trkpt>
      <trkpt lat="43.40342" lon="-0.52675">
        <ele>176</ele>
        <time>2013-05-06T10:32:58Z</time>
      </trkpt>
      <trkpt lat="43.40345" lon="-0.52666">
        <ele>176</ele>
        <time>2013-05-06T10:32:59Z</time>
      </trkpt>
      <trkpt lat="43.40345" lon="-0.52659">
        <ele>175</ele>
        <time>2013-05-06T10:33:00Z</time>
      </trkpt>
      <trkpt lat="43.40346" lon="-0.52653">
        <ele>176</ele>
        <time>2013-05-06T10:33:01Z</time>
      </trkpt>
      <trkpt lat="43.40345" lon="-0.52645">
        <ele>176</ele>
        <time>2013-05-06T10:33:02Z</time>
      </trkpt>
      <trkpt lat="43.40341" lon="-0.5264">
        <ele>176</ele>
        <time>2013-05-06T10:33:03Z</time>
      </trkpt>
      <trkpt lat="43.40339" lon="-0.52635">
        <ele>176</ele>
        <time>2013-05-06T10:33:04Z</time>
      </trkpt>
      <trkpt lat="43.40337" lon="-0.52628">
        <ele>176</ele>
        <time>2013-05-06T10:33:05Z</time>
      </trkpt>
      <trkpt lat="43.40336" lon="-0.52623">
        <ele>176</ele>
        <time>2013-05-06T10:33:06Z</time>
      </trkpt>
      <trkpt lat="43.40334" lon="-0.52617">
        <ele>176</ele>
        <time>2013-05-06T10:33:07Z</time>
      </trkpt>
      <trkpt lat="43.40333" lon="-0.52613">
        <ele>175</ele>
        <time>2013-05-06T10:33:08Z</time>
      </trkpt>
      <trkpt lat="43.40332" lon="-0.52607">
        <ele>176</ele>
        <time>2013-05-06T10:33:09Z</time>
      </trkpt>
      <trkpt lat="43.40331" lon="-0.52602">
        <ele>176</ele>
        <time>2013-05-06T10:33:10Z</time>
      </trkpt>
      <trkpt lat="43.40331" lon="-0.52595">
        <ele>177</ele>
        <time>2013-05-06T10:33:11Z</time>
      </trkpt>
      <trkpt lat="43.40329" lon="-0.52589">
        <ele>178</ele>
        <time>2013-05-06T10:33:12Z</time>
      </trkpt>
      <trkpt lat="43.40328" lon="-0.52583">
        <ele>181</ele>
        <time>2013-05-06T10:33:13Z</time>
      </trkpt>
      <trkpt lat="43.40326" lon="-0.52578">
        <ele>182</ele>
        <time>2013-05-06T10:33:14Z</time>
      </trkpt>
      <trkpt lat="43.40324" lon="-0.52573">
        <ele>182</ele>
        <time>2013-05-06T10:33:15Z</time>
      </trkpt>
      <trkpt lat="43.40323" lon="-0.5257">
        <ele>181</ele>
        <time>2013-05-06T10:33:16Z</time>
      </trkpt>
      <trkpt lat="43.40321" lon="-0.52567">
        <ele>181</ele>
        <time>2013-05-06T10:33:17Z</time>
      </trkpt>
      <trkpt lat="43.4032" lon="-0.52564">
        <ele>179</ele>
        <time>2013-05-06T10:33:18Z</time>
      </trkpt>
      <trkpt lat="43.40319" lon="-0.52562">
        <ele>180</ele>
        <time>2013-05-06T10:33:19Z</time>
      </trkpt>
      <trkpt lat="43.40318" lon="-0.5256">
        <ele>180</ele>
        <time>2013-05-06T10:33:20Z</time>
      </trkpt>
      <trkpt lat="43.40317" lon="-0.52558">
        <ele>179</ele>
        <time>2013-05-06T10:33:21Z</time>
      </trkpt>
      <trkpt lat="43.40316" lon="-0.52556">
        <ele>179</ele>
        <time>2013-05-06T10:33:22Z</time>
      </trkpt>
      <trkpt lat="43.40316" lon="-0.52555">
        <ele>179</ele>
        <time>2013-05-06T10:33:23Z</time>
      </trkpt>
      <trkpt lat="43.40316" lon="-0.52554">
        <ele>179</ele>
        <time>2013-05-06T10:33:24Z</time>
      </trkpt>
      <trkpt lat="43.40315" lon="-0.52552">
        <ele>180</ele>
        <time>2013-05-06T10:33:25Z</time>
      </trkpt>
      <trkpt lat="43.40315" lon="-0.52551">
        <ele>181</ele>
        <time>2013-05-06T10:33:26Z</time>
      </trkpt>
      <trkpt lat="43.40315" lon="-0.52549">
        <ele>182</ele>
        <time>2013-05-06T10:33:27Z</time>
      </trkpt>
      <trkpt lat="43.40314" lon="-0.52547">
        <ele>181</ele>
        <time>2013-05-06T10:33:28Z</time>
      </trkpt>
      <trkpt lat="43.40315" lon="-0.52544">
        <ele>182</ele>
        <time>2013-05-06T10:33:29Z</time>
      </trkpt>
      <trkpt lat="43.40316" lon="-0.5254">
        <ele>182</ele>
        <time>2013-05-06T10:33:30Z</time>
      </trkpt>
      <trkpt lat="43.40316" lon="-0.52538">
        <ele>183</ele>
        <time>2013-05-06T10:33:31Z</time>
      </trkpt>
      <trkpt lat="43.40318" lon="-0.52535">
        <ele>183</ele>
        <time>2013-05-06T10:33:32Z</time>
      </trkpt>
      <trkpt lat="43.40322" lon="-0.52531">
        <ele>183</ele>
        <time>2013-05-06T10:33:33Z</time>
      </trkpt>
      <trkpt lat="43.40323" lon="-0.52528">
        <ele>183</ele>
        <time>2013-05-06T10:33:34Z</time>
      </trkpt>
      <trkpt lat="43.40324" lon="-0.52526">
        <ele>182</ele>
        <time>2013-05-06T10:33:35Z</time>
      </trkpt>
      <trkpt lat="43.40324" lon="-0.52523">
        <ele>181</ele>
        <time>2013-05-06T10:33:36Z</time>
      </trkpt>
      <trkpt lat="43.40323" lon="-0.5252">
        <ele>181</ele>
        <time>2013-05-06T10:33:37Z</time>
      </trkpt>
      <trkpt lat="43.40322" lon="-0.52519">
        <ele>182</ele>
        <time>2013-05-06T10:33:38Z</time>
      </trkpt>
      <trkpt lat="43.40321" lon="-0.52517">
        <ele>182</ele>
        <time>2013-05-06T10:33:39Z</time>
      </trkpt>
      <trkpt lat="43.40319" lon="-0.52516">
        <ele>182</ele>
        <time>2013-05-06T10:33:40Z</time>
      </trkpt>
      <trkpt lat="43.40317" lon="-0.52515">
        <ele>183</ele>
        <time>2013-05-06T10:33:41Z</time>
      </trkpt>
      <trkpt lat="43.40316" lon="-0.52514">
        <ele>184</ele>
        <time>2013-05-06T10:33:42Z</time>
      </trkpt>
      <trkpt lat="43.40315" lon="-0.52513">
        <ele>185</ele>
        <time>2013-05-06T10:33:43Z</time>
      </trkpt>
      <trkpt lat="43.40314" lon="-0.52511">
        <ele>185</ele>
        <time>2013-05-06T10:33:44Z</time>
      </trkpt>
      <trkpt lat="43.40313" lon="-0.5251">
        <ele>185</ele>
        <time>2013-05-06T10:33:45Z</time>
      </trkpt>
      <trkpt lat="43.40311" lon="-0.52509">
        <ele>183</ele>
        <time>2013-05-06T10:33:46Z</time>
      </trkpt>
      <trkpt lat="43.40309" lon="-0.52507">
        <ele>183</ele>
        <time>2013-05-06T10:33:47Z</time>
      </trkpt>
      <trkpt lat="43.40307" lon="-0.52506">
        <ele>183</ele>
        <time>2013-05-06T10:33:48Z</time>
      </trkpt>
      <trkpt lat="43.40305" lon="-0.52505">
        <ele>183</ele>
        <time>2013-05-06T10:33:49Z</time>
      </trkpt>
      <trkpt lat="43.40304" lon="-0.52504">
        <ele>183</ele>
        <time>2013-05-06T10:33:50Z</time>
      </trkpt>
      <trkpt lat="43.40302" lon="-0.52503">
        <ele>182</ele>
        <time>2013-05-06T10:33:51Z</time>
      </trkpt>
      <trkpt lat="43.40301" lon="-0.52502">
        <ele>183</ele>
        <time>2013-05-06T10:33:52Z</time>
      </trkpt>
      <trkpt lat="43.403" lon="-0.52501">
        <ele>184</ele>
        <time>2013-05-06T10:33:53Z</time>
      </trkpt>
      <trkpt lat="43.40299" lon="-0.52499">
        <ele>185</ele>
        <time>2013-05-06T10:33:54Z</time>
      </trkpt>
      <trkpt lat="43.40298" lon="-0.52498">
        <ele>184</ele>
        <time>2013-05-06T10:33:55Z</time>
      </trkpt>
      <trkpt lat="43.40297" lon="-0.52496">
        <ele>185</ele>
        <time>2013-05-06T10:33:56Z</time>
      </trkpt>
      <trkpt lat="43.40295" lon="-0.52493">
        <ele>184</ele>
        <time>2013-05-06T10:33:57Z</time>
      </trkpt>
      <trkpt lat="43.40293" lon="-0.52491">
        <ele>184</ele>
        <time>2013-05-06T10:33:58Z</time>
      </trkpt>
      <trkpt lat="43.40291" lon="-0.52488">
        <ele>184</ele>
        <time>2013-05-06T10:33:59Z</time>
      </trkpt>
      <trkpt lat="43.40289" lon="-0.52485">
        <ele>185</ele>
        <time>2013-05-06T10:34:00Z</time>
      </trkpt>
      <trkpt lat="43.40286" lon="-0.52481">
        <ele>184</ele>
        <time>2013-05-06T10:34:01Z</time>
      </trkpt>
      <trkpt lat="43.40283" lon="-0.52476">
        <ele>184</ele>
        <time>2013-05-06T10:34:02Z</time>
      </trkpt>
      <trkpt lat="43.40279" lon="-0.52471">
        <ele>183</ele>
        <time>2013-05-06T10:34:03Z</time>
      </trkpt>
      <trkpt lat="43.40276" lon="-0.52466">
        <ele>182</ele>
        <time>2013-05-06T10:34:04Z</time>
      </trkpt>
      <trkpt lat="43.40273" lon="-0.52462">
        <ele>182</ele>
        <time>2013-05-06T10:34:05Z</time>
      </trkpt>
      <trkpt lat="43.4027" lon="-0.52459">
        <ele>181</ele>
        <time>2013-05-06T10:34:06Z</time>
      </trkpt>
      <trkpt lat="43.40268" lon="-0.52457">
        <ele>180</ele>
        <time>2013-05-06T10:34:07Z</time>
      </trkpt>
      <trkpt lat="43.40266" lon="-0.52455">
        <ele>181</ele>
        <time>2013-05-06T10:34:08Z</time>
      </trkpt>
      <trkpt lat="43.40265" lon="-0.52453">
        <ele>181</ele>
        <time>2013-05-06T10:34:09Z</time>
      </trkpt>
      <trkpt lat="43.40263" lon="-0.52452">
        <ele>182</ele>
        <time>2013-05-06T10:34:10Z</time>
      </trkpt>
      <trkpt lat="43.40262" lon="-0.52451">
        <ele>182</ele>
        <time>2013-05-06T10:34:11Z</time>
      </trkpt>
      <trkpt lat="43.40259" lon="-0.52449">
        <ele>182</ele>
        <time>2013-05-06T10:34:12Z</time>
      </trkpt>
      <trkpt lat="43.40257" lon="-0.52447">
        <ele>182</ele>
        <time>2013-05-06T10:34:13Z</time>
      </trkpt>
      <trkpt lat="43.40256" lon="-0.52444">
        <ele>181</ele>
        <time>2013-05-06T10:34:14Z</time>
      </trkpt>
      <trkpt lat="43.40254" lon="-0.52442">
        <ele>182</ele>
        <time>2013-05-06T10:34:15Z</time>
      </trkpt>
      <trkpt lat="43.40252" lon="-0.52439">
        <ele>182</ele>
        <time>2013-05-06T10:34:16Z</time>
      </trkpt>
      <trkpt lat="43.40251" lon="-0.52437">
        <ele>181</ele>
        <time>2013-05-06T10:34:17Z</time>
      </trkpt>
      <trkpt lat="43.40251" lon="-0.52436">
        <ele>181</ele>
        <time>2013-05-06T10:34:18Z</time>
      </trkpt>
      <trkpt lat="43.4025" lon="-0.52434">
        <ele>180</ele>
        <time>2013-05-06T10:34:19Z</time>
      </trkpt>
      <trkpt lat="43.40249" lon="-0.52432">
        <ele>181</ele>
        <time>2013-05-06T10:34:20Z</time>
      </trkpt>
      <trkpt lat="43.40248" lon="-0.52429">
        <ele>180</ele>
        <time>2013-05-06T10:34:21Z</time>
      </trkpt>
      <trkpt lat="43.40248" lon="-0.52426">
        <ele>180</ele>
        <time>2013-05-06T10:34:22Z</time>
      </trkpt>
      <trkpt lat="43.40247" lon="-0.52424">
        <ele>180</ele>
        <time>2013-05-06T10:34:23Z</time>
      </trkpt>
      <trkpt lat="43.40247" lon="-0.52421">
        <ele>180</ele>
        <time>2013-05-06T10:34:24Z</time>
      </trkpt>
      <trkpt lat="43.40247" lon="-0.52419">
        <ele>181</ele>
        <time>2013-05-06T10:34:25Z</time>
      </trkpt>
      <trkpt lat="43.40247" lon="-0.52417">
        <ele>182</ele>
        <time>2013-05-06T10:34:26Z</time>
      </trkpt>
      <trkpt lat="43.40247" lon="-0.52415">
        <ele>182</ele>
        <time>2013-05-06T10:34:27Z</time>
      </trkpt>
      <trkpt lat="43.40247" lon="-0.52413">
        <ele>182</ele>
        <time>2013-05-06T10:34:28Z</time>
      </trkpt>
      <trkpt lat="43.40247" lon="-0.52411">
        <ele>182</ele>
        <time>2013-05-06T10:34:29Z</time>
      </trkpt>
      <trkpt lat="43.40246" lon="-0.52408">
        <ele>182</ele>
        <time>2013-05-06T10:34:30Z</time>
      </trkpt>
      <trkpt lat="43.40245" lon="-0.52404">
        <ele>182</ele>
        <time>2013-05-06T10:34:31Z</time>
      </trkpt>
      <trkpt lat="43.40243" lon="-0.524">
        <ele>181</ele>
        <time>2013-05-06T10:34:32Z</time>
      </trkpt>
      <trkpt lat="43.40241" lon="-0.52396">
        <ele>181</ele>
        <time>2013-05-06T10:34:33Z</time>
      </trkpt>
      <trkpt lat="43.4024" lon="-0.52392">
        <ele>180</ele>
        <time>2013-05-06T10:34:34Z</time>
      </trkpt>
      <trkpt lat="43.40239" lon="-0.52388">
        <ele>180</ele>
        <time>2013-05-06T10:34:35Z</time>
      </trkpt>
      <trkpt lat="43.40237" lon="-0.52384">
        <ele>180</ele>
        <time>2013-05-06T10:34:36Z</time>
      </trkpt>
      <trkpt lat="43.40236" lon="-0.5238">
        <ele>180</ele>
        <time>2013-05-06T10:34:37Z</time>
      </trkpt>
      <trkpt lat="43.40235" lon="-0.52376">
        <ele>180</ele>
        <time>2013-05-06T10:34:38Z</time>
      </trkpt>
      <trkpt lat="43.40233" lon="-0.52373">
        <ele>180</ele>
        <time>2013-05-06T10:34:39Z</time>
      </trkpt>
      <trkpt lat="43.40231" lon="-0.52371">
        <ele>179</ele>
        <time>2013-05-06T10:34:40Z</time>
      </trkpt>
      <trkpt lat="43.40229" lon="-0.5237">
        <ele>178</ele>
        <time>2013-05-06T10:34:41Z</time>
      </trkpt>
      <trkpt lat="43.40227" lon="-0.52368">
        <ele>178</ele>
        <time>2013-05-06T10:34:42Z</time>
      </trkpt>
      <trkpt lat="43.40225" lon="-0.52367">
        <ele>177</ele>
        <time>2013-05-06T10:34:43Z</time>
      </trkpt>
      <trkpt lat="43.40223" lon="-0.52365">
        <ele>177</ele>
        <time>2013-05-06T10:34:44Z</time>
      </trkpt>
      <trkpt lat="43.40221" lon="-0.52363">
        <ele>178</ele>
        <time>2013-05-06T10:34:45Z</time>
      </trkpt>
      <trkpt lat="43.4022" lon="-0.52361">
        <ele>178</ele>
        <time>2013-05-06T10:34:46Z</time>
      </trkpt>
      <trkpt lat="43.40219" lon="-0.52359">
        <ele>179</ele>
        <time>2013-05-06T10:34:47Z</time>
      </trkpt>
      <trkpt lat="43.40218" lon="-0.52358">
        <ele>180</ele>
        <time>2013-05-06T10:34:48Z</time>
      </trkpt>
      <trkpt lat="43.40217" lon="-0.52356">
        <ele>178</ele>
        <time>2013-05-06T10:34:49Z</time>
      </trkpt>
      <trkpt lat="43.40216" lon="-0.52355">
        <ele>178</ele>
        <time>2013-05-06T10:34:50Z</time>
      </trkpt>
      <trkpt lat="43.40216" lon="-0.52354">
        <ele>178</ele>
        <time>2013-05-06T10:34:51Z</time>
      </trkpt>
      <trkpt lat="43.40216" lon="-0.52353">
        <ele>179</ele>
        <time>2013-05-06T10:34:52Z</time>
      </trkpt>
      <trkpt lat="43.40216" lon="-0.52353">
        <ele>181</ele>
        <time>2013-05-06T10:34:53Z</time>
      </trkpt>
      <trkpt lat="43.40216" lon="-0.52352">
        <ele>181</ele>
        <time>2013-05-06T10:34:54Z</time>
      </trkpt>
      <trkpt lat="43.40216" lon="-0.52351">
        <ele>180</ele>
        <time>2013-05-06T10:34:55Z</time>
      </trkpt>
      <trkpt lat="43.40215" lon="-0.52351">
        <ele>180</ele>
        <time>2013-05-06T10:34:56Z</time>
      </trkpt>
      <trkpt lat="43.40214" lon="-0.5235">
        <ele>180</ele>
        <time>2013-05-06T10:34:57Z</time>
      </trkpt>
      <trkpt lat="43.40213" lon="-0.52349">
        <ele>181</ele>
        <time>2013-05-06T10:34:58Z</time>
      </trkpt>
      <trkpt lat="43.40212" lon="-0.52348">
        <ele>180</ele>
        <time>2013-05-06T10:34:59Z</time>
      </trkpt>
      <trkpt lat="43.4021" lon="-0.52346">
        <ele>181</ele>
        <time>2013-05-06T10:35:00Z</time>
      </trkpt>
      <trkpt lat="43.4021" lon="-0.52345">
        <ele>181</ele>
        <time>2013-05-06T10:35:01Z</time>
      </trkpt>
      <trkpt lat="43.4021" lon="-0.52342">
        <ele>180</ele>
        <time>2013-05-06T10:35:02Z</time>
      </trkpt>
      <trkpt lat="43.4021" lon="-0.5234">
        <ele>180</ele>
        <time>2013-05-06T10:35:03Z</time>
      </trkpt>
      <trkpt lat="43.4021" lon="-0.52338">
        <ele>180</ele>
        <time>2013-05-06T10:35:04Z</time>
      </trkpt>
      <trkpt lat="43.4021" lon="-0.52336">
        <ele>181</ele>
        <time>2013-05-06T10:35:05Z</time>
      </trkpt>
      <trkpt lat="43.4021" lon="-0.52334">
        <ele>181</ele>
        <time>2013-05-06T10:35:06Z</time>
      </trkpt>
      <trkpt lat="43.40209" lon="-0.52332">
        <ele>181</ele>
        <time>2013-05-06T10:35:07Z</time>
      </trkpt>
      <trkpt lat="43.40208" lon="-0.5233">
        <ele>180</ele>
        <time>2013-05-06T10:35:08Z</time>
      </trkpt>
      <trkpt lat="43.40207" lon="-0.52328">
        <ele>180</ele>
        <time>2013-05-06T10:35:09Z</time>
      </trkpt>
      <trkpt lat="43.40206" lon="-0.52325">
        <ele>180</ele>
        <time>2013-05-06T10:35:10Z</time>
      </trkpt>
      <trkpt lat="43.40206" lon="-0.52323">
        <ele>179</ele>
        <time>2013-05-06T10:35:11Z</time>
      </trkpt>
      <trkpt lat="43.40206" lon="-0.52321">
        <ele>179</ele>
        <time>2013-05-06T10:35:12Z</time>
      </trkpt>
      <trkpt lat="43.40206" lon="-0.52318">
        <ele>179</ele>
        <time>2013-05-06T10:35:13Z</time>
      </trkpt>
      <trkpt lat="43.40206" lon="-0.52314">
        <ele>178</ele>
        <time>2013-05-06T10:35:14Z</time>
      </trkpt>
      <trkpt lat="43.40205" lon="-0.52312">
        <ele>177</ele>
        <time>2013-05-06T10:35:15Z</time>
      </trkpt>
      <trkpt lat="43.40204" lon="-0.52309">
        <ele>177</ele>
        <time>2013-05-06T10:35:16Z</time>
      </trkpt>
      <trkpt lat="43.40203" lon="-0.52306">
        <ele>177</ele>
        <time>2013-05-06T10:35:17Z</time>
      </trkpt>
      <trkpt lat="43.40202" lon="-0.52302">
        <ele>177</ele>
        <time>2013-05-06T10:35:18Z</time>
      </trkpt>
      <trkpt lat="43.402" lon="-0.52298">
        <ele>176</ele>
        <time>2013-05-06T10:35:19Z</time>
      </trkpt>
      <trkpt lat="43.40199" lon="-0.52295">
        <ele>175</ele>
        <time>2013-05-06T10:35:20Z</time>
      </trkpt>
      <trkpt lat="43.40198" lon="-0.52292">
        <ele>175</ele>
        <time>2013-05-06T10:35:21Z</time>
      </trkpt>
      <trkpt lat="43.40196" lon="-0.52288">
        <ele>175</ele>
        <time>2013-05-06T10:35:22Z</time>
      </trkpt>
      <trkpt lat="43.40194" lon="-0.52285">
        <ele>174</ele>
        <time>2013-05-06T10:35:23Z</time>
      </trkpt>
      <trkpt lat="43.40191" lon="-0.52281">
        <ele>175</ele>
        <time>2013-05-06T10:35:24Z</time>
      </trkpt>
      <trkpt lat="43.40189" lon="-0.52279">
        <ele>174</ele>
        <time>2013-05-06T10:35:25Z</time>
      </trkpt>
      <trkpt lat="43.40187" lon="-0.52277">
        <ele>174</ele>
        <time>2013-05-06T10:35:26Z</time>
      </trkpt>
      <trkpt lat="43.40185" lon="-0.52276">
        <ele>174</ele>
        <time>2013-05-06T10:35:27Z</time>
      </trkpt>
      <trkpt lat="43.40184" lon="-0.52276">
        <ele>175</ele>
        <time>2013-05-06T10:35:28Z</time>
      </trkpt>
      <trkpt lat="43.40182" lon="-0.52276">
        <ele>175</ele>
        <time>2013-05-06T10:35:29Z</time>
      </trkpt>
      <trkpt lat="43.40181" lon="-0.52276">
        <ele>176</ele>
        <time>2013-05-06T10:35:30Z</time>
      </trkpt>
      <trkpt lat="43.40181" lon="-0.52275">
        <ele>176</ele>
        <time>2013-05-06T10:35:31Z</time>
      </trkpt>
      <trkpt lat="43.40179" lon="-0.52275">
        <ele>177</ele>
        <time>2013-05-06T10:35:32Z</time>
      </trkpt>
      <trkpt lat="43.40178" lon="-0.52275">
        <ele>177</ele>
        <time>2013-05-06T10:35:33Z</time>
      </trkpt>
      <trkpt lat="43.40177" lon="-0.52275">
        <ele>176</ele>
        <time>2013-05-06T10:35:34Z</time>
      </trkpt>
      <trkpt lat="43.40175" lon="-0.52275">
        <ele>175</ele>
        <time>2013-05-06T10:35:35Z</time>
      </trkpt>
      <trkpt lat="43.40174" lon="-0.52275">
        <ele>176</ele>
        <time>2013-05-06T10:35:36Z</time>
      </trkpt>
      <trkpt lat="43.40173" lon="-0.52275">
        <ele>176</ele>
        <time>2013-05-06T10:35:37Z</time>
      </trkpt>
      <trkpt lat="43.4017" lon="-0.52276">
        <ele>176</ele>
        <time>2013-05-06T10:35:38Z</time>
      </trkpt>
      <trkpt lat="43.40168" lon="-0.52276">
        <ele>176</ele>
        <time>2013-05-06T10:35:39Z</time>
      </trkpt>
      <trkpt lat="43.40164" lon="-0.52275">
        <ele>175</ele>
        <time>2013-05-06T10:35:40Z</time>
      </trkpt>
      <trkpt lat="43.4016" lon="-0.52275">
        <ele>176</ele>
        <time>2013-05-06T10:35:41Z</time>
      </trkpt>
      <trkpt lat="43.40156" lon="-0.52275">
        <ele>176</ele>
        <time>2013-05-06T10:35:42Z</time>
      </trkpt>
      <trkpt lat="43.40153" lon="-0.52274">
        <ele>176</ele>
        <time>2013-05-06T10:35:43Z</time>
      </trkpt>
      <trkpt lat="43.4015" lon="-0.52272">
        <ele>176</ele>
        <time>2013-05-06T10:35:44Z</time>
      </trkpt>
      <trkpt lat="43.40147" lon="-0.52271">
        <ele>176</ele>
        <time>2013-05-06T10:35:45Z</time>
      </trkpt>
      <trkpt lat="43.40144" lon="-0.52268">
        <ele>176</ele>
        <time>2013-05-06T10:35:46Z</time>
      </trkpt>
      <trkpt lat="43.40142" lon="-0.52267">
        <ele>177</ele>
        <time>2013-05-06T10:35:47Z</time>
      </trkpt>
      <trkpt lat="43.40141" lon="-0.52266">
        <ele>177</ele>
        <time>2013-05-06T10:35:48Z</time>
      </trkpt>
      <trkpt lat="43.4014" lon="-0.52266">
        <ele>177</ele>
        <time>2013-05-06T10:35:49Z</time>
      </trkpt>
      <trkpt lat="43.40139" lon="-0.52266">
        <ele>177</ele>
        <time>2013-05-06T10:35:50Z</time>
      </trkpt>
      <trkpt lat="43.40139" lon="-0.52267">
        <ele>177</ele>
        <time>2013-05-06T10:35:51Z</time>
      </trkpt>
      <trkpt lat="43.4014" lon="-0.52267">
        <ele>176</ele>
        <time>2013-05-06T10:35:52Z</time>
      </trkpt>
      <trkpt lat="43.4014" lon="-0.52266">
        <ele>177</ele>
        <time>2013-05-06T10:35:53Z</time>
      </trkpt>
      <trkpt lat="43.4014" lon="-0.52264">
        <ele>177</ele>
        <time>2013-05-06T10:35:54Z</time>
      </trkpt>
      <trkpt lat="43.4014" lon="-0.52261">
        <ele>177</ele>
        <time>2013-05-06T10:35:55Z</time>
      </trkpt>
      <trkpt lat="43.4014" lon="-0.52258">
        <ele>177</ele>
        <time>2013-05-06T10:35:56Z</time>
      </trkpt>
      <trkpt lat="43.40139" lon="-0.52254">
        <ele>177</ele>
        <time>2013-05-06T10:35:57Z</time>
      </trkpt>
      <trkpt lat="43.40139" lon="-0.5225">
        <ele>178</ele>
        <time>2013-05-06T10:35:58Z</time>
      </trkpt>
      <trkpt lat="43.40139" lon="-0.52246">
        <ele>178</ele>
        <time>2013-05-06T10:35:59Z</time>
      </trkpt>
      <trkpt lat="43.40139" lon="-0.52242">
        <ele>179</ele>
        <time>2013-05-06T10:36:00Z</time>
      </trkpt>
      <trkpt lat="43.40138" lon="-0.52238">
        <ele>180</ele>
        <time>2013-05-06T10:36:01Z</time>
      </trkpt>
      <trkpt lat="43.40138" lon="-0.52233">
        <ele>181</ele>
        <time>2013-05-06T10:36:02Z</time>
      </trkpt>
      <trkpt lat="43.40138" lon="-0.52229">
        <ele>182</ele>
        <time>2013-05-06T10:36:03Z</time>
      </trkpt>
      <trkpt lat="43.40138" lon="-0.52225">
        <ele>183</ele>
        <time>2013-05-06T10:36:04Z</time>
      </trkpt>
      <trkpt lat="43.40137" lon="-0.52222">
        <ele>184</ele>
        <time>2013-05-06T10:36:05Z</time>
      </trkpt>
      <trkpt lat="43.40137" lon="-0.52221">
        <ele>184</ele>
        <time>2013-05-06T10:36:06Z</time>
      </trkpt>
      <trkpt lat="43.40138" lon="-0.52219">
        <ele>185</ele>
        <time>2013-05-06T10:36:07Z</time>
      </trkpt>
      <trkpt lat="43.40138" lon="-0.52219">
        <ele>186</ele>
        <time>2013-05-06T10:36:08Z</time>
      </trkpt>
      <trkpt lat="43.40137" lon="-0.52219">
        <ele>185</ele>
        <time>2013-05-06T10:36:09Z</time>
      </trkpt>
      <trkpt lat="43.40137" lon="-0.5222">
        <ele>185</ele>
        <time>2013-05-06T10:36:10Z</time>
      </trkpt>
      <trkpt lat="43.40138" lon="-0.5222">
        <ele>185</ele>
        <time>2013-05-06T10:36:11Z</time>
      </trkpt>
      <trkpt lat="43.40138" lon="-0.5222">
        <ele>185</ele>
        <time>2013-05-06T10:36:12Z</time>
      </trkpt>
      <trkpt lat="43.40138" lon="-0.5222">
        <ele>184</ele>
        <time>2013-05-06T10:36:13Z</time>
      </trkpt>
      <trkpt lat="43.40138" lon="-0.52219">
        <ele>184</ele>
        <time>2013-05-06T10:36:14Z</time>
      </trkpt>
      <trkpt lat="43.40138" lon="-0.52218">
        <ele>183</ele>
        <time>2013-05-06T10:36:15Z</time>
      </trkpt>
      <trkpt lat="43.40138" lon="-0.52217">
        <ele>183</ele>
        <time>2013-05-06T10:36:16Z</time>
      </trkpt>
      <trkpt lat="43.40139" lon="-0.52216">
        <ele>182</ele>
        <time>2013-05-06T10:36:17Z</time>
      </trkpt>
      <trkpt lat="43.40139" lon="-0.52215">
        <ele>182</ele>
        <time>2013-05-06T10:36:18Z</time>
      </trkpt>
      <trkpt lat="43.40138" lon="-0.52214">
        <ele>183</ele>
        <time>2013-05-06T10:36:19Z</time>
      </trkpt>
      <trkpt lat="43.40138" lon="-0.52213">
        <ele>183</ele>
        <time>2013-05-06T10:36:20Z</time>
      </trkpt>
      <trkpt lat="43.40137" lon="-0.52212">
        <ele>184</ele>
        <time>2013-05-06T10:36:21Z</time>
      </trkpt>
      <trkpt lat="43.40137" lon="-0.52212">
        <ele>184</ele>
        <time>2013-05-06T10:36:22Z</time>
      </trkpt>
      <trkpt lat="43.40137" lon="-0.52212">
        <ele>184</ele>
        <time>2013-05-06T10:36:23Z</time>
      </trkpt>
      <trkpt lat="43.40136" lon="-0.52213">
        <ele>185</ele>
        <time>2013-05-06T10:36:25Z</time>
      </trkpt>
      <trkpt lat="43.40136" lon="-0.52214">
        <ele>185</ele>
        <time>2013-05-06T10:36:26Z</time>
      </trkpt>
      <trkpt lat="43.40136" lon="-0.52216">
        <ele>184</ele>
        <time>2013-05-06T10:36:27Z</time>
      </trkpt>
      <trkpt lat="43.40136" lon="-0.52216">
        <ele>185</ele>
        <time>2013-05-06T10:36:28Z</time>
      </trkpt>
      <trkpt lat="43.40136" lon="-0.52216">
        <ele>187</ele>
        <time>2013-05-06T10:36:29Z</time>
      </trkpt>
      <trkpt lat="43.40135" lon="-0.52216">
        <ele>187</ele>
        <time>2013-05-06T10:36:30Z</time>
      </trkpt>
      <trkpt lat="43.40134" lon="-0.52215">
        <ele>187</ele>
        <time>2013-05-06T10:36:31Z</time>
      </trkpt>
      <trkpt lat="43.40134" lon="-0.52213">
        <ele>187</ele>
        <time>2013-05-06T10:36:32Z</time>
      </trkpt>
      <trkpt lat="43.40133" lon="-0.5221">
        <ele>187</ele>
        <time>2013-05-06T10:36:33Z</time>
      </trkpt>
      <trkpt lat="43.40132" lon="-0.52208">
        <ele>187</ele>
        <time>2013-05-06T10:36:34Z</time>
      </trkpt>
      <trkpt lat="43.4013" lon="-0.52206">
        <ele>187</ele>
        <time>2013-05-06T10:36:35Z</time>
      </trkpt>
      <trkpt lat="43.40129" lon="-0.52203">
        <ele>187</ele>
        <time>2013-05-06T10:36:36Z</time>
      </trkpt>
      <trkpt lat="43.40128" lon="-0.522">
        <ele>187</ele>
        <time>2013-05-06T10:36:37Z</time>
      </trkpt>
      <trkpt lat="43.40125" lon="-0.52195">
        <ele>187</ele>
        <time>2013-05-06T10:36:38Z</time>
      </trkpt>
      <trkpt lat="43.40124" lon="-0.52192">
        <ele>188</ele>
        <time>2013-05-06T10:36:39Z</time>
      </trkpt>
      <trkpt lat="43.40123" lon="-0.5219">
        <ele>189</ele>
        <time>2013-05-06T10:36:40Z</time>
      </trkpt>
      <trkpt lat="43.40122" lon="-0.52187">
        <ele>189</ele>
        <time>2013-05-06T10:36:41Z</time>
      </trkpt>
      <trkpt lat="43.40121" lon="-0.52185">
        <ele>190</ele>
        <time>2013-05-06T10:36:42Z</time>
      </trkpt>
      <trkpt lat="43.4012" lon="-0.52183">
        <ele>190</ele>
        <time>2013-05-06T10:36:43Z</time>
      </trkpt>
      <trkpt lat="43.4012" lon="-0.52181">
        <ele>190</ele>
        <time>2013-05-06T10:36:44Z</time>
      </trkpt>
      <trkpt lat="43.40119" lon="-0.52179">
        <ele>191</ele>
        <time>2013-05-06T10:36:45Z</time>
      </trkpt>
      <trkpt lat="43.40118" lon="-0.52177">
        <ele>191</ele>
        <time>2013-05-06T10:36:46Z</time>
      </trkpt>
      <trkpt lat="43.40117" lon="-0.52176">
        <ele>190</ele>
        <time>2013-05-06T10:36:47Z</time>
      </trkpt>
      <trkpt lat="43.40115" lon="-0.52174">
        <ele>190</ele>
        <time>2013-05-06T10:36:48Z</time>
      </trkpt>
      <trkpt lat="43.40113" lon="-0.52172">
        <ele>189</ele>
        <time>2013-05-06T10:36:49Z</time>
      </trkpt>
      <trkpt lat="43.40112" lon="-0.5217">
        <ele>189</ele>
        <time>2013-05-06T10:36:50Z</time>
      </trkpt>
      <trkpt lat="43.4011" lon="-0.52168">
        <ele>189</ele>
        <time>2013-05-06T10:36:51Z</time>
      </trkpt>
      <trkpt lat="43.40107" lon="-0.52167">
        <ele>190</ele>
        <time>2013-05-06T10:36:52Z</time>
      </trkpt>
      <trkpt lat="43.40105" lon="-0.52165">
        <ele>189</ele>
        <time>2013-05-06T10:36:53Z</time>
      </trkpt>
      <trkpt lat="43.40104" lon="-0.52163">
        <ele>189</ele>
        <time>2013-05-06T10:36:54Z</time>
      </trkpt>
      <trkpt lat="43.40103" lon="-0.52161">
        <ele>190</ele>
        <time>2013-05-06T10:36:55Z</time>
      </trkpt>
      <trkpt lat="43.40101" lon="-0.5216">
        <ele>190</ele>
        <time>2013-05-06T10:36:56Z</time>
      </trkpt>
      <trkpt lat="43.40099" lon="-0.52158">
        <ele>189</ele>
        <time>2013-05-06T10:36:57Z</time>
      </trkpt>
      <trkpt lat="43.40098" lon="-0.52156">
        <ele>189</ele>
        <time>2013-05-06T10:36:58Z</time>
      </trkpt>
      <trkpt lat="43.40097" lon="-0.52154">
        <ele>189</ele>
        <time>2013-05-06T10:36:59Z</time>
      </trkpt>
      <trkpt lat="43.40097" lon="-0.52151">
        <ele>188</ele>
        <time>2013-05-06T10:37:00Z</time>
      </trkpt>
      <trkpt lat="43.40097" lon="-0.52149">
        <ele>188</ele>
        <time>2013-05-06T10:37:01Z</time>
      </trkpt>
      <trkpt lat="43.40096" lon="-0.52146">
        <ele>188</ele>
        <time>2013-05-06T10:37:02Z</time>
      </trkpt>
      <trkpt lat="43.40096" lon="-0.52144">
        <ele>188</ele>
        <time>2013-05-06T10:37:03Z</time>
      </trkpt>
      <trkpt lat="43.40096" lon="-0.52143">
        <ele>189</ele>
        <time>2013-05-06T10:37:04Z</time>
      </trkpt>
      <trkpt lat="43.40096" lon="-0.52142">
        <ele>190</ele>
        <time>2013-05-06T10:37:05Z</time>
      </trkpt>
      <trkpt lat="43.40096" lon="-0.52142">
        <ele>190</ele>
        <time>2013-05-06T10:37:06Z</time>
      </trkpt>
      <trkpt lat="43.40095" lon="-0.52141">
        <ele>190</ele>
        <time>2013-05-06T10:37:07Z</time>
      </trkpt>
      <trkpt lat="43.40094" lon="-0.5214">
        <ele>190</ele>
        <time>2013-05-06T10:37:08Z</time>
      </trkpt>
      <trkpt lat="43.40093" lon="-0.5214">
        <ele>190</ele>
        <time>2013-05-06T10:37:09Z</time>
      </trkpt>
      <trkpt lat="43.40093" lon="-0.52139">
        <ele>190</ele>
        <time>2013-05-06T10:37:10Z</time>
      </trkpt>
      <trkpt lat="43.40092" lon="-0.52138">
        <ele>189</ele>
        <time>2013-05-06T10:37:11Z</time>
      </trkpt>
      <trkpt lat="43.40091" lon="-0.52137">
        <ele>189</ele>
        <time>2013-05-06T10:37:12Z</time>
      </trkpt>
      <trkpt lat="43.40091" lon="-0.52138">
        <ele>189</ele>
        <time>2013-05-06T10:37:13Z</time>
      </trkpt>
      <trkpt lat="43.4009" lon="-0.52141">
        <ele>189</ele>
        <time>2013-05-06T10:37:25Z</time>
      </trkpt>
      <trkpt lat="43.40091" lon="-0.52141">
        <ele>190</ele>
        <time>2013-05-06T10:37:27Z</time>
      </trkpt>
      <trkpt lat="43.40092" lon="-0.52139">
        <ele>189</ele>
        <time>2013-05-06T10:37:28Z</time>
      </trkpt>
      <trkpt lat="43.40091" lon="-0.52138">
        <ele>190</ele>
        <time>2013-05-06T10:37:29Z</time>
      </trkpt>
      <trkpt lat="43.40091" lon="-0.52137">
        <ele>189</ele>
        <time>2013-05-06T10:37:30Z</time>
      </trkpt>
      <trkpt lat="43.4009" lon="-0.52136">
        <ele>190</ele>
        <time>2013-05-06T10:37:31Z</time>
      </trkpt>
      <trkpt lat="43.40089" lon="-0.52137">
        <ele>192</ele>
        <time>2013-05-06T10:37:33Z</time>
      </trkpt>
      <trkpt lat="43.40088" lon="-0.52137">
        <ele>192</ele>
        <time>2013-05-06T10:37:34Z</time>
      </trkpt>
      <trkpt lat="43.40088" lon="-0.52137">
        <ele>190</ele>
        <time>2013-05-06T10:37:35Z</time>
      </trkpt>
      <trkpt lat="43.40087" lon="-0.52137">
        <ele>190</ele>
        <time>2013-05-06T10:37:36Z</time>
      </trkpt>
      <trkpt lat="43.40086" lon="-0.52135">
        <ele>190</ele>
        <time>2013-05-06T10:37:38Z</time>
      </trkpt>
      <trkpt lat="43.40086" lon="-0.52134">
        <ele>190</ele>
        <time>2013-05-06T10:37:39Z</time>
      </trkpt>
      <trkpt lat="43.40085" lon="-0.52133">
        <ele>190</ele>
        <time>2013-05-06T10:37:40Z</time>
      </trkpt>
      <trkpt lat="43.40084" lon="-0.52133">
        <ele>189</ele>
        <time>2013-05-06T10:37:41Z</time>
      </trkpt>
      <trkpt lat="43.40083" lon="-0.52133">
        <ele>187</ele>
        <time>2013-05-06T10:37:42Z</time>
      </trkpt>
      <trkpt lat="43.40083" lon="-0.52134">
        <ele>186</ele>
        <time>2013-05-06T10:37:43Z</time>
      </trkpt>
      <trkpt lat="43.40082" lon="-0.52135">
        <ele>186</ele>
        <time>2013-05-06T10:37:44Z</time>
      </trkpt>
      <trkpt lat="43.40082" lon="-0.52135">
        <ele>186</ele>
        <time>2013-05-06T10:37:45Z</time>
      </trkpt>
      <trkpt lat="43.40081" lon="-0.52135">
        <ele>185</ele>
        <time>2013-05-06T10:37:46Z</time>
      </trkpt>
      <trkpt lat="43.4008" lon="-0.52134">
        <ele>187</ele>
        <time>2013-05-06T10:37:47Z</time>
      </trkpt>
      <trkpt lat="43.40079" lon="-0.52134">
        <ele>187</ele>
        <time>2013-05-06T10:37:48Z</time>
      </trkpt>
      <trkpt lat="43.40078" lon="-0.52133">
        <ele>187</ele>
        <time>2013-05-06T10:37:49Z</time>
      </trkpt>
      <trkpt lat="43.40076" lon="-0.52133">
        <ele>187</ele>
        <time>2013-05-06T10:37:50Z</time>
      </trkpt>
      <trkpt lat="43.40073" lon="-0.52132">
        <ele>186</ele>
        <time>2013-05-06T10:37:51Z</time>
      </trkpt>
      <trkpt lat="43.40071" lon="-0.52131">
        <ele>186</ele>
        <time>2013-05-06T10:37:52Z</time>
      </trkpt>
      <trkpt lat="43.40069" lon="-0.52129">
        <ele>186</ele>
        <time>2013-05-06T10:37:53Z</time>
      </trkpt>
      <trkpt lat="43.40068" lon="-0.52128">
        <ele>187</ele>
        <time>2013-05-06T10:37:54Z</time>
      </trkpt>
      <trkpt lat="43.40067" lon="-0.52127">
        <ele>187</ele>
        <time>2013-05-06T10:37:55Z</time>
      </trkpt>
      <trkpt lat="43.40065" lon="-0.52126">
        <ele>187</ele>
        <time>2013-05-06T10:37:56Z</time>
      </trkpt>
      <trkpt lat="43.40065" lon="-0.52124">
        <ele>188</ele>
        <time>2013-05-06T10:37:57Z</time>
      </trkpt>
      <trkpt lat="43.40065" lon="-0.52122">
        <ele>188</ele>
        <time>2013-05-06T10:37:58Z</time>
      </trkpt>
      <trkpt lat="43.40064" lon="-0.52121">
        <ele>188</ele>
        <time>2013-05-06T10:37:59Z</time>
      </trkpt>
      <trkpt lat="43.40063" lon="-0.5212">
        <ele>188</ele>
        <time>2013-05-06T10:38:00Z</time>
      </trkpt>
      <trkpt lat="43.40062" lon="-0.52118">
        <ele>188</ele>
        <time>2013-05-06T10:38:01Z</time>
      </trkpt>
      <trkpt lat="43.40062" lon="-0.52117">
        <ele>187</ele>
        <time>2013-05-06T10:38:02Z</time>
      </trkpt>
      <trkpt lat="43.40061" lon="-0.52116">
        <ele>188</ele>
        <time>2013-05-06T10:38:03Z</time>
      </trkpt>
      <trkpt lat="43.40061" lon="-0.52115">
        <ele>187</ele>
        <time>2013-05-06T10:38:04Z</time>
      </trkpt>
      <trkpt lat="43.4006" lon="-0.52114">
        <ele>187</ele>
        <time>2013-05-06T10:38:05Z</time>
      </trkpt>
      <trkpt lat="43.4006" lon="-0.52113">
        <ele>187</ele>
        <time>2013-05-06T10:38:06Z</time>
      </trkpt>
      <trkpt lat="43.40059" lon="-0.52112">
        <ele>188</ele>
        <time>2013-05-06T10:38:07Z</time>
      </trkpt>
      <trkpt lat="43.40058" lon="-0.5211">
        <ele>187</ele>
        <time>2013-05-06T10:38:08Z</time>
      </trkpt>
      <trkpt lat="43.40057" lon="-0.52108">
        <ele>187</ele>
        <time>2013-05-06T10:38:09Z</time>
      </trkpt>
      <trkpt lat="43.40055" lon="-0.52106">
        <ele>188</ele>
        <time>2013-05-06T10:38:10Z</time>
      </trkpt>
      <trkpt lat="43.40053" lon="-0.52103">
        <ele>188</ele>
        <time>2013-05-06T10:38:11Z</time>
      </trkpt>
      <trkpt lat="43.4005" lon="-0.52098">
        <ele>187</ele>
        <time>2013-05-06T10:38:12Z</time>
      </trkpt>
      <trkpt lat="43.40047" lon="-0.52095">
        <ele>186</ele>
        <time>2013-05-06T10:38:13Z</time>
      </trkpt>
      <trkpt lat="43.40045" lon="-0.52091">
        <ele>186</ele>
        <time>2013-05-06T10:38:14Z</time>
      </trkpt>
      <trkpt lat="43.40043" lon="-0.52089">
        <ele>186</ele>
        <time>2013-05-06T10:38:15Z</time>
      </trkpt>
      <trkpt lat="43.4004" lon="-0.52085">
        <ele>187</ele>
        <time>2013-05-06T10:38:16Z</time>
      </trkpt>
      <trkpt lat="43.40038" lon="-0.52082">
        <ele>187</ele>
        <time>2013-05-06T10:38:17Z</time>
      </trkpt>
      <trkpt lat="43.40035" lon="-0.5208">
        <ele>187</ele>
        <time>2013-05-06T10:38:18Z</time>
      </trkpt>
      <trkpt lat="43.40033" lon="-0.52078">
        <ele>187</ele>
        <time>2013-05-06T10:38:19Z</time>
      </trkpt>
      <trkpt lat="43.40031" lon="-0.52075">
        <ele>187</ele>
        <time>2013-05-06T10:38:20Z</time>
      </trkpt>
      <trkpt lat="43.4003" lon="-0.52073">
        <ele>188</ele>
        <time>2013-05-06T10:38:21Z</time>
      </trkpt>
      <trkpt lat="43.40029" lon="-0.52072">
        <ele>188</ele>
        <time>2013-05-06T10:38:22Z</time>
      </trkpt>
      <trkpt lat="43.40028" lon="-0.52072">
        <ele>187</ele>
        <time>2013-05-06T10:38:23Z</time>
      </trkpt>
      <trkpt lat="43.40028" lon="-0.52071">
        <ele>187</ele>
        <time>2013-05-06T10:38:24Z</time>
      </trkpt>
      <trkpt lat="43.40027" lon="-0.52071">
        <ele>187</ele>
        <time>2013-05-06T10:38:25Z</time>
      </trkpt>
      <trkpt lat="43.40027" lon="-0.5207">
        <ele>187</ele>
        <time>2013-05-06T10:38:26Z</time>
      </trkpt>
      <trkpt lat="43.40027" lon="-0.5207">
        <ele>187</ele>
        <time>2013-05-06T10:38:27Z</time>
      </trkpt>
      <trkpt lat="43.40027" lon="-0.5207">
        <ele>188</ele>
        <time>2013-05-06T10:38:28Z</time>
      </trkpt>
      <trkpt lat="43.40028" lon="-0.5207">
        <ele>188</ele>
        <time>2013-05-06T10:38:29Z</time>
      </trkpt>
      <trkpt lat="43.40028" lon="-0.52071">
        <ele>189</ele>
        <time>2013-05-06T10:38:30Z</time>
      </trkpt>
      <trkpt lat="43.40028" lon="-0.52071">
        <ele>189</ele>
        <time>2013-05-06T10:38:31Z</time>
      </trkpt>
      <trkpt lat="43.40028" lon="-0.5207">
        <ele>188</ele>
        <time>2013-05-06T10:38:32Z</time>
      </trkpt>
      <trkpt lat="43.4003" lon="-0.52069">
        <ele>189</ele>
        <time>2013-05-06T10:38:34Z</time>
      </trkpt>
      <trkpt lat="43.4003" lon="-0.52069">
        <ele>189</ele>
        <time>2013-05-06T10:38:35Z</time>
      </trkpt>
      <trkpt lat="43.40031" lon="-0.52069">
        <ele>189</ele>
        <time>2013-05-06T10:38:36Z</time>
      </trkpt>
      <trkpt lat="43.40032" lon="-0.52069">
        <ele>189</ele>
        <time>2013-05-06T10:38:37Z</time>
      </trkpt>
      <trkpt lat="43.40032" lon="-0.52069">
        <ele>188</ele>
        <time>2013-05-06T10:38:38Z</time>
      </trkpt>
      <trkpt lat="43.40033" lon="-0.52068">
        <ele>190</ele>
        <time>2013-05-06T10:38:39Z</time>
      </trkpt>
      <trkpt lat="43.40031" lon="-0.52061">
        <ele>191</ele>
        <time>2013-05-06T10:38:52Z</time>
      </trkpt>
      <trkpt lat="43.40033" lon="-0.5206">
        <ele>191</ele>
        <time>2013-05-06T10:38:53Z</time>
      </trkpt>
      <trkpt lat="43.40033" lon="-0.5206">
        <ele>191</ele>
        <time>2013-05-06T10:38:54Z</time>
      </trkpt>
      <trkpt lat="43.40034" lon="-0.52059">
        <ele>191</ele>
        <time>2013-05-06T10:38:55Z</time>
      </trkpt>
      <trkpt lat="43.40034" lon="-0.52061">
        <ele>191</ele>
        <time>2013-05-06T10:38:56Z</time>
      </trkpt>
      <trkpt lat="43.40033" lon="-0.52062">
        <ele>192</ele>
        <time>2013-05-06T10:38:57Z</time>
      </trkpt>
      <trkpt lat="43.4003" lon="-0.52063">
        <ele>192</ele>
        <time>2013-05-06T10:38:58Z</time>
      </trkpt>
      <trkpt lat="43.40027" lon="-0.52062">
        <ele>192</ele>
        <time>2013-05-06T10:38:59Z</time>
      </trkpt>
      <trkpt lat="43.40024" lon="-0.52061">
        <ele>192</ele>
        <time>2013-05-06T10:39:00Z</time>
      </trkpt>
      <trkpt lat="43.40021" lon="-0.52061">
        <ele>193</ele>
        <time>2013-05-06T10:39:01Z</time>
      </trkpt>
      <trkpt lat="43.4002" lon="-0.52059">
        <ele>194</ele>
        <time>2013-05-06T10:39:02Z</time>
      </trkpt>
      <trkpt lat="43.40019" lon="-0.52059">
        <ele>194</ele>
        <time>2013-05-06T10:39:03Z</time>
      </trkpt>
      <trkpt lat="43.40019" lon="-0.52059">
        <ele>194</ele>
        <time>2013-05-06T10:39:04Z</time>
      </trkpt>
      <trkpt lat="43.4002" lon="-0.5206">
        <ele>195</ele>
        <time>2013-05-06T10:39:05Z</time>
      </trkpt>
      <trkpt lat="43.4002" lon="-0.5206">
        <ele>195</ele>
        <time>2013-05-06T10:39:06Z</time>
      </trkpt>
      <trkpt lat="43.40022" lon="-0.52061">
        <ele>195</ele>
        <time>2013-05-06T10:39:07Z</time>
      </trkpt>
      <trkpt lat="43.40022" lon="-0.52062">
        <ele>195</ele>
        <time>2013-05-06T10:39:08Z</time>
      </trkpt>
      <trkpt lat="43.40023" lon="-0.52063">
        <ele>196</ele>
        <time>2013-05-06T10:39:09Z</time>
      </trkpt>
      <trkpt lat="43.40023" lon="-0.52063">
        <ele>197</ele>
        <time>2013-05-06T10:39:10Z</time>
      </trkpt>
      <trkpt lat="43.40024" lon="-0.52063">
        <ele>198</ele>
        <time>2013-05-06T10:39:11Z</time>
      </trkpt>
      <trkpt lat="43.40024" lon="-0.52062">
        <ele>199</ele>
        <time>2013-05-06T10:39:12Z</time>
      </trkpt>
      <trkpt lat="43.40023" lon="-0.52058">
        <ele>198</ele>
        <time>2013-05-06T10:39:16Z</time>
      </trkpt>
      <trkpt lat="43.40022" lon="-0.52056">
        <ele>198</ele>
        <time>2013-05-06T10:39:17Z</time>
      </trkpt>
      <trkpt lat="43.40021" lon="-0.52055">
        <ele>199</ele>
        <time>2013-05-06T10:39:18Z</time>
      </trkpt>
      <trkpt lat="43.4002" lon="-0.52054">
        <ele>199</ele>
        <time>2013-05-06T10:39:19Z</time>
      </trkpt>
      <trkpt lat="43.40018" lon="-0.52054">
        <ele>199</ele>
        <time>2013-05-06T10:39:20Z</time>
      </trkpt>
      <trkpt lat="43.40017" lon="-0.52053">
        <ele>198</ele>
        <time>2013-05-06T10:39:21Z</time>
      </trkpt>
      <trkpt lat="43.40016" lon="-0.52053">
        <ele>198</ele>
        <time>2013-05-06T10:39:22Z</time>
      </trkpt>
      <trkpt lat="43.40015" lon="-0.52053">
        <ele>198</ele>
        <time>2013-05-06T10:39:23Z</time>
      </trkpt>
      <trkpt lat="43.40015" lon="-0.52052">
        <ele>198</ele>
        <time>2013-05-06T10:39:24Z</time>
      </trkpt>
      <trkpt lat="43.40014" lon="-0.52052">
        <ele>197</ele>
        <time>2013-05-06T10:39:25Z</time>
      </trkpt>
      <trkpt lat="43.40014" lon="-0.52052">
        <ele>197</ele>
        <time>2013-05-06T10:39:26Z</time>
      </trkpt>
      <trkpt lat="43.40013" lon="-0.52051">
        <ele>197</ele>
        <time>2013-05-06T10:39:27Z</time>
      </trkpt>
      <trkpt lat="43.40012" lon="-0.52051">
        <ele>197</ele>
        <time>2013-05-06T10:39:28Z</time>
      </trkpt>
      <trkpt lat="43.40012" lon="-0.5205">
        <ele>196</ele>
        <time>2013-05-06T10:39:29Z</time>
      </trkpt>
      <trkpt lat="43.40011" lon="-0.5205">
        <ele>196</ele>
        <time>2013-05-06T10:39:30Z</time>
      </trkpt>
      <trkpt lat="43.40011" lon="-0.5205">
        <ele>197</ele>
        <time>2013-05-06T10:39:31Z</time>
      </trkpt>
      <trkpt lat="43.40009" lon="-0.5205">
        <ele>196</ele>
        <time>2013-05-06T10:39:32Z</time>
      </trkpt>
      <trkpt lat="43.40008" lon="-0.5205">
        <ele>195</ele>
        <time>2013-05-06T10:39:33Z</time>
      </trkpt>
      <trkpt lat="43.40007" lon="-0.5205">
        <ele>196</ele>
        <time>2013-05-06T10:39:34Z</time>
      </trkpt>
      <trkpt lat="43.40005" lon="-0.5205">
        <ele>196</ele>
        <time>2013-05-06T10:39:35Z</time>
      </trkpt>
      <trkpt lat="43.40004" lon="-0.5205">
        <ele>197</ele>
        <time>2013-05-06T10:39:36Z</time>
      </trkpt>
      <trkpt lat="43.40002" lon="-0.5205">
        <ele>198</ele>
        <time>2013-05-06T10:39:37Z</time>
      </trkpt>
      <trkpt lat="43.40002" lon="-0.52049">
        <ele>197</ele>
        <time>2013-05-06T10:39:38Z</time>
      </trkpt>
      <trkpt lat="43.40002" lon="-0.52049">
        <ele>197</ele>
        <time>2013-05-06T10:39:39Z</time>
      </trkpt>
      <trkpt lat="43.40002" lon="-0.52049">
        <ele>197</ele>
        <time>2013-05-06T10:39:40Z</time>
      </trkpt>
      <trkpt lat="43.40002" lon="-0.52049">
        <ele>197</ele>
        <time>2013-05-06T10:39:41Z</time>
      </trkpt>
      <trkpt lat="43.40004" lon="-0.52047">
        <ele>200</ele>
        <time>2013-05-06T10:39:42Z</time>
      </trkpt>
      <trkpt lat="43.40004" lon="-0.52046">
        <ele>199</ele>
        <time>2013-05-06T10:39:43Z</time>
      </trkpt>
      <trkpt lat="43.40005" lon="-0.52045">
        <ele>200</ele>
        <time>2013-05-06T10:39:44Z</time>
      </trkpt>
      <trkpt lat="43.40006" lon="-0.52045">
        <ele>201</ele>
        <time>2013-05-06T10:39:45Z</time>
      </trkpt>
      <trkpt lat="43.40007" lon="-0.52045">
        <ele>201</ele>
        <time>2013-05-06T10:39:46Z</time>
      </trkpt>
      <trkpt lat="43.40007" lon="-0.52045">
        <ele>202</ele>
        <time>2013-05-06T10:39:47Z</time>
      </trkpt>
      <trkpt lat="43.40009" lon="-0.52047">
        <ele>201</ele>
        <time>2013-05-06T10:39:48Z</time>
      </trkpt>
      <trkpt lat="43.40011" lon="-0.52048">
        <ele>200</ele>
        <time>2013-05-06T10:39:49Z</time>
      </trkpt>
      <trkpt lat="43.40012" lon="-0.5205">
        <ele>201</ele>
        <time>2013-05-06T10:39:50Z</time>
      </trkpt>
      <trkpt lat="43.40013" lon="-0.52051">
        <ele>201</ele>
        <time>2013-05-06T10:39:51Z</time>
      </trkpt>
      <trkpt lat="43.40013" lon="-0.52052">
        <ele>201</ele>
        <time>2013-05-06T10:39:52Z</time>
      </trkpt>
      <trkpt lat="43.40013" lon="-0.52052">
        <ele>201</ele>
        <time>2013-05-06T10:39:53Z</time>
      </trkpt>
      <trkpt lat="43.40012" lon="-0.52052">
        <ele>201</ele>
        <time>2013-05-06T10:39:54Z</time>
      </trkpt>
      <trkpt lat="43.4001" lon="-0.52051">
        <ele>201</ele>
        <time>2013-05-06T10:39:55Z</time>
      </trkpt>
      <trkpt lat="43.40007" lon="-0.5205">
        <ele>200</ele>
        <time>2013-05-06T10:39:56Z</time>
      </trkpt>
      <trkpt lat="43.40004" lon="-0.52048">
        <ele>199</ele>
        <time>2013-05-06T10:39:57Z</time>
      </trkpt>
      <trkpt lat="43.40001" lon="-0.52046">
        <ele>199</ele>
        <time>2013-05-06T10:39:58Z</time>
      </trkpt>
      <trkpt lat="43.39997" lon="-0.52044">
        <ele>200</ele>
        <time>2013-05-06T10:39:59Z</time>
      </trkpt>
      <trkpt lat="43.39994" lon="-0.52042">
        <ele>200</ele>
        <time>2013-05-06T10:40:00Z</time>
      </trkpt>
      <trkpt lat="43.39993" lon="-0.5204">
        <ele>200</ele>
        <time>2013-05-06T10:40:01Z</time>
      </trkpt>
      <trkpt lat="43.39991" lon="-0.52038">
        <ele>201</ele>
        <time>2013-05-06T10:40:02Z</time>
      </trkpt>
      <trkpt lat="43.39989" lon="-0.52036">
        <ele>201</ele>
        <time>2013-05-06T10:40:03Z</time>
      </trkpt>
      <trkpt lat="43.39988" lon="-0.52035">
        <ele>201</ele>
        <time>2013-05-06T10:40:04Z</time>
      </trkpt>
      <trkpt lat="43.39987" lon="-0.52034">
        <ele>202</ele>
        <time>2013-05-06T10:40:05Z</time>
      </trkpt>
      <trkpt lat="43.39986" lon="-0.52033">
        <ele>202</ele>
        <time>2013-05-06T10:40:06Z</time>
      </trkpt>
      <trkpt lat="43.39985" lon="-0.52032">
        <ele>202</ele>
        <time>2013-05-06T10:40:07Z</time>
      </trkpt>
      <trkpt lat="43.39983" lon="-0.52031">
        <ele>202</ele>
        <time>2013-05-06T10:40:08Z</time>
      </trkpt>
      <trkpt lat="43.39982" lon="-0.5203">
        <ele>202</ele>
        <time>2013-05-06T10:40:09Z</time>
      </trkpt>
      <trkpt lat="43.39981" lon="-0.52029">
        <ele>202</ele>
        <time>2013-05-06T10:40:10Z</time>
      </trkpt>
      <trkpt lat="43.3998" lon="-0.52028">
        <ele>202</ele>
        <time>2013-05-06T10:40:11Z</time>
      </trkpt>
      <trkpt lat="43.39979" lon="-0.52028">
        <ele>202</ele>
        <time>2013-05-06T10:40:12Z</time>
      </trkpt>
      <trkpt lat="43.39977" lon="-0.52027">
        <ele>202</ele>
        <time>2013-05-06T10:40:13Z</time>
      </trkpt>
      <trkpt lat="43.39976" lon="-0.52026">
        <ele>202</ele>
        <time>2013-05-06T10:40:14Z</time>
      </trkpt>
      <trkpt lat="43.39975" lon="-0.52024">
        <ele>202</ele>
        <time>2013-05-06T10:40:15Z</time>
      </trkpt>
      <trkpt lat="43.39974" lon="-0.52023">
        <ele>202</ele>
        <time>2013-05-06T10:40:16Z</time>
      </trkpt>
      <trkpt lat="43.39972" lon="-0.52021">
        <ele>202</ele>
        <time>2013-05-06T10:40:17Z</time>
      </trkpt>
      <trkpt lat="43.39971" lon="-0.5202">
        <ele>202</ele>
        <time>2013-05-06T10:40:18Z</time>
      </trkpt>
      <trkpt lat="43.3997" lon="-0.52019">
        <ele>202</ele>
        <time>2013-05-06T10:40:19Z</time>
      </trkpt>
      <trkpt lat="43.39969" lon="-0.52018">
        <ele>201</ele>
        <time>2013-05-06T10:40:20Z</time>
      </trkpt>
      <trkpt lat="43.39968" lon="-0.52017">
        <ele>202</ele>
        <time>2013-05-06T10:40:21Z</time>
      </trkpt>
      <trkpt lat="43.39967" lon="-0.52017">
        <ele>201</ele>
        <time>2013-05-06T10:40:22Z</time>
      </trkpt>
      <trkpt lat="43.39966" lon="-0.52016">
        <ele>200</ele>
        <time>2013-05-06T10:40:23Z</time>
      </trkpt>
      <trkpt lat="43.39966" lon="-0.52015">
        <ele>200</ele>
        <time>2013-05-06T10:40:24Z</time>
      </trkpt>
      <trkpt lat="43.39964" lon="-0.52015">
        <ele>200</ele>
        <time>2013-05-06T10:40:25Z</time>
      </trkpt>
      <trkpt lat="43.39963" lon="-0.52014">
        <ele>200</ele>
        <time>2013-05-06T10:40:26Z</time>
      </trkpt>
      <trkpt lat="43.39961" lon="-0.52014">
        <ele>200</ele>
        <time>2013-05-06T10:40:27Z</time>
      </trkpt>
      <trkpt lat="43.3996" lon="-0.52014">
        <ele>200</ele>
        <time>2013-05-06T10:40:28Z</time>
      </trkpt>
      <trkpt lat="43.39957" lon="-0.52014">
        <ele>200</ele>
        <time>2013-05-06T10:40:29Z</time>
      </trkpt>
      <trkpt lat="43.39955" lon="-0.52014">
        <ele>199</ele>
        <time>2013-05-06T10:40:30Z</time>
      </trkpt>
      <trkpt lat="43.39953" lon="-0.52014">
        <ele>199</ele>
        <time>2013-05-06T10:40:31Z</time>
      </trkpt>
      <trkpt lat="43.39952" lon="-0.52014">
        <ele>199</ele>
        <time>2013-05-06T10:40:32Z</time>
      </trkpt>
      <trkpt lat="43.39951" lon="-0.52013">
        <ele>200</ele>
        <time>2013-05-06T10:40:33Z</time>
      </trkpt>
      <trkpt lat="43.3995" lon="-0.52012">
        <ele>200</ele>
        <time>2013-05-06T10:40:34Z</time>
      </trkpt>
      <trkpt lat="43.39949" lon="-0.52012">
        <ele>200</ele>
        <time>2013-05-06T10:40:35Z</time>
      </trkpt>
      <trkpt lat="43.39949" lon="-0.52011">
        <ele>200</ele>
        <time>2013-05-06T10:40:36Z</time>
      </trkpt>
      <trkpt lat="43.39949" lon="-0.5201">
        <ele>202</ele>
        <time>2013-05-06T10:40:37Z</time>
      </trkpt>
      <trkpt lat="43.39948" lon="-0.5201">
        <ele>201</ele>
        <time>2013-05-06T10:40:38Z</time>
      </trkpt>
      <trkpt lat="43.39948" lon="-0.5201">
        <ele>200</ele>
        <time>2013-05-06T10:40:39Z</time>
      </trkpt>
      <trkpt lat="43.39947" lon="-0.5201">
        <ele>200</ele>
        <time>2013-05-06T10:40:40Z</time>
      </trkpt>
      <trkpt lat="43.39947" lon="-0.52009">
        <ele>201</ele>
        <time>2013-05-06T10:40:41Z</time>
      </trkpt>
      <trkpt lat="43.39946" lon="-0.52009">
        <ele>202</ele>
        <time>2013-05-06T10:40:42Z</time>
      </trkpt>
      <trkpt lat="43.39946" lon="-0.52009">
        <ele>202</ele>
        <time>2013-05-06T10:40:43Z</time>
      </trkpt>
      <trkpt lat="43.39945" lon="-0.5201">
        <ele>202</ele>
        <time>2013-05-06T10:40:44Z</time>
      </trkpt>
      <trkpt lat="43.39943" lon="-0.52009">
        <ele>202</ele>
        <time>2013-05-06T10:40:45Z</time>
      </trkpt>
      <trkpt lat="43.39941" lon="-0.52009">
        <ele>202</ele>
        <time>2013-05-06T10:40:46Z</time>
      </trkpt>
      <trkpt lat="43.3994" lon="-0.52008">
        <ele>203</ele>
        <time>2013-05-06T10:40:47Z</time>
      </trkpt>
      <trkpt lat="43.39938" lon="-0.52007">
        <ele>203</ele>
        <time>2013-05-06T10:40:48Z</time>
      </trkpt>
      <trkpt lat="43.39938" lon="-0.52006">
        <ele>203</ele>
        <time>2013-05-06T10:40:49Z</time>
      </trkpt>
      <trkpt lat="43.39936" lon="-0.52006">
        <ele>202</ele>
        <time>2013-05-06T10:40:50Z</time>
      </trkpt>
      <trkpt lat="43.39936" lon="-0.52005">
        <ele>200</ele>
        <time>2013-05-06T10:40:51Z</time>
      </trkpt>
      <trkpt lat="43.39936" lon="-0.52005">
        <ele>199</ele>
        <time>2013-05-06T10:40:52Z</time>
      </trkpt>
      <trkpt lat="43.39936" lon="-0.52004">
        <ele>199</ele>
        <time>2013-05-06T10:40:53Z</time>
      </trkpt>
      <trkpt lat="43.39936" lon="-0.52002">
        <ele>198</ele>
        <time>2013-05-06T10:40:54Z</time>
      </trkpt>
      <trkpt lat="43.39936" lon="-0.52001">
        <ele>197</ele>
        <time>2013-05-06T10:40:55Z</time>
      </trkpt>
      <trkpt lat="43.39936" lon="-0.51999">
        <ele>197</ele>
        <time>2013-05-06T10:40:56Z</time>
      </trkpt>
      <trkpt lat="43.39936" lon="-0.52">
        <ele>196</ele>
        <time>2013-05-06T10:40:57Z</time>
      </trkpt>
      <trkpt lat="43.39935" lon="-0.52001">
        <ele>196</ele>
        <time>2013-05-06T10:40:58Z</time>
      </trkpt>
      <trkpt lat="43.39935" lon="-0.52002">
        <ele>194</ele>
        <time>2013-05-06T10:40:59Z</time>
      </trkpt>
      <trkpt lat="43.39935" lon="-0.52005">
        <ele>193</ele>
        <time>2013-05-06T10:41:00Z</time>
      </trkpt>
      <trkpt lat="43.39935" lon="-0.52008">
        <ele>194</ele>
        <time>2013-05-06T10:41:01Z</time>
      </trkpt>
      <trkpt lat="43.39936" lon="-0.5201">
        <ele>193</ele>
        <time>2013-05-06T10:41:02Z</time>
      </trkpt>
      <trkpt lat="43.39938" lon="-0.52013">
        <ele>195</ele>
        <time>2013-05-06T10:41:03Z</time>
      </trkpt>
      <trkpt lat="43.3994" lon="-0.52015">
        <ele>194</ele>
        <time>2013-05-06T10:41:04Z</time>
      </trkpt>
      <trkpt lat="43.39943" lon="-0.52018">
        <ele>194</ele>
        <time>2013-05-06T10:41:05Z</time>
      </trkpt>
      <trkpt lat="43.39944" lon="-0.5202">
        <ele>194</ele>
        <time>2013-05-06T10:41:06Z</time>
      </trkpt>
      <trkpt lat="43.39945" lon="-0.52021">
        <ele>195</ele>
        <time>2013-05-06T10:41:07Z</time>
      </trkpt>
      <trkpt lat="43.39945" lon="-0.52021">
        <ele>195</ele>
        <time>2013-05-06T10:41:08Z</time>
      </trkpt>
      <trkpt lat="43.39945" lon="-0.52022">
        <ele>194</ele>
        <time>2013-05-06T10:41:09Z</time>
      </trkpt>
      <trkpt lat="43.39946" lon="-0.52022">
        <ele>194</ele>
        <time>2013-05-06T10:41:10Z</time>
      </trkpt>
      <trkpt lat="43.39946" lon="-0.52022">
        <ele>194</ele>
        <time>2013-05-06T10:41:11Z</time>
      </trkpt>
      <trkpt lat="43.39947" lon="-0.52023">
        <ele>195</ele>
        <time>2013-05-06T10:41:12Z</time>
      </trkpt>
      <trkpt lat="43.39948" lon="-0.52023">
        <ele>195</ele>
        <time>2013-05-06T10:41:13Z</time>
      </trkpt>
      <trkpt lat="43.39948" lon="-0.52024">
        <ele>195</ele>
        <time>2013-05-06T10:41:14Z</time>
      </trkpt>
      <trkpt lat="43.39949" lon="-0.52025">
        <ele>195</ele>
        <time>2013-05-06T10:41:15Z</time>
      </trkpt>
      <trkpt lat="43.3995" lon="-0.52026">
        <ele>196</ele>
        <time>2013-05-06T10:41:16Z</time>
      </trkpt>
      <trkpt lat="43.39951" lon="-0.52028">
        <ele>195</ele>
        <time>2013-05-06T10:41:17Z</time>
      </trkpt>
      <trkpt lat="43.39953" lon="-0.52029">
        <ele>195</ele>
        <time>2013-05-06T10:41:18Z</time>
      </trkpt>
      <trkpt lat="43.39954" lon="-0.5203">
        <ele>196</ele>
        <time>2013-05-06T10:41:19Z</time>
      </trkpt>
      <trkpt lat="43.39955" lon="-0.52031">
        <ele>197</ele>
        <time>2013-05-06T10:41:20Z</time>
      </trkpt>
      <trkpt lat="43.39956" lon="-0.52031">
        <ele>197</ele>
        <time>2013-05-06T10:41:21Z</time>
      </trkpt>
      <trkpt lat="43.39957" lon="-0.52031">
        <ele>198</ele>
        <time>2013-05-06T10:41:22Z</time>
      </trkpt>
      <trkpt lat="43.39958" lon="-0.5203">
        <ele>199</ele>
        <time>2013-05-06T10:41:23Z</time>
      </trkpt>
      <trkpt lat="43.39959" lon="-0.5203">
        <ele>198</ele>
        <time>2013-05-06T10:41:24Z</time>
      </trkpt>
      <trkpt lat="43.39959" lon="-0.5203">
        <ele>197</ele>
        <time>2013-05-06T10:41:25Z</time>
      </trkpt>
      <trkpt lat="43.3996" lon="-0.52031">
        <ele>197</ele>
        <time>2013-05-06T10:41:26Z</time>
      </trkpt>
      <trkpt lat="43.39961" lon="-0.52032">
        <ele>198</ele>
        <time>2013-05-06T10:41:27Z</time>
      </trkpt>
      <trkpt lat="43.39961" lon="-0.52035">
        <ele>197</ele>
        <time>2013-05-06T10:41:28Z</time>
      </trkpt>
      <trkpt lat="43.39962" lon="-0.52038">
        <ele>196</ele>
        <time>2013-05-06T10:41:29Z</time>
      </trkpt>
      <trkpt lat="43.39962" lon="-0.52041">
        <ele>197</ele>
        <time>2013-05-06T10:41:30Z</time>
      </trkpt>
      <trkpt lat="43.39962" lon="-0.52043">
        <ele>197</ele>
        <time>2013-05-06T10:41:31Z</time>
      </trkpt>
      <trkpt lat="43.39962" lon="-0.52046">
        <ele>197</ele>
        <time>2013-05-06T10:41:32Z</time>
      </trkpt>
      <trkpt lat="43.39963" lon="-0.52047">
        <ele>197</ele>
        <time>2013-05-06T10:41:33Z</time>
      </trkpt>
      <trkpt lat="43.39963" lon="-0.52049">
        <ele>197</ele>
        <time>2013-05-06T10:41:34Z</time>
      </trkpt>
      <trkpt lat="43.39964" lon="-0.52051">
        <ele>197</ele>
        <time>2013-05-06T10:41:35Z</time>
      </trkpt>
      <trkpt lat="43.39964" lon="-0.52056">
        <ele>193</ele>
        <time>2013-05-06T10:41:36Z</time>
      </trkpt>
      <trkpt lat="43.39965" lon="-0.52059">
        <ele>192</ele>
        <time>2013-05-06T10:41:37Z</time>
      </trkpt>
      <trkpt lat="43.39966" lon="-0.52062">
        <ele>191</ele>
        <time>2013-05-06T10:41:38Z</time>
      </trkpt>
      <trkpt lat="43.39967" lon="-0.52064">
        <ele>191</ele>
        <time>2013-05-06T10:41:39Z</time>
      </trkpt>
      <trkpt lat="43.39968" lon="-0.52065">
        <ele>191</ele>
        <time>2013-05-06T10:41:40Z</time>
      </trkpt>
      <trkpt lat="43.39969" lon="-0.52067">
        <ele>191</ele>
        <time>2013-05-06T10:41:41Z</time>
      </trkpt>
      <trkpt lat="43.3997" lon="-0.52067">
        <ele>190</ele>
        <time>2013-05-06T10:41:42Z</time>
      </trkpt>
      <trkpt lat="43.3997" lon="-0.52068">
        <ele>191</ele>
        <time>2013-05-06T10:41:43Z</time>
      </trkpt>
      <trkpt lat="43.3997" lon="-0.5207">
        <ele>190</ele>
        <time>2013-05-06T10:41:44Z</time>
      </trkpt>
      <trkpt lat="43.39971" lon="-0.52071">
        <ele>190</ele>
        <time>2013-05-06T10:41:45Z</time>
      </trkpt>
      <trkpt lat="43.39971" lon="-0.52074">
        <ele>189</ele>
        <time>2013-05-06T10:41:46Z</time>
      </trkpt>
      <trkpt lat="43.39971" lon="-0.52075">
        <ele>189</ele>
        <time>2013-05-06T10:41:47Z</time>
      </trkpt>
      <trkpt lat="43.39971" lon="-0.52078">
        <ele>187</ele>
        <time>2013-05-06T10:41:48Z</time>
      </trkpt>
      <trkpt lat="43.3997" lon="-0.5208">
        <ele>187</ele>
        <time>2013-05-06T10:41:49Z</time>
      </trkpt>
      <trkpt lat="43.3997" lon="-0.52083">
        <ele>187</ele>
        <time>2013-05-06T10:41:50Z</time>
      </trkpt>
      <trkpt lat="43.39971" lon="-0.52085">
        <ele>186</ele>
        <time>2013-05-06T10:41:51Z</time>
      </trkpt>
      <trkpt lat="43.39972" lon="-0.52087">
        <ele>186</ele>
        <time>2013-05-06T10:41:52Z</time>
      </trkpt>
      <trkpt lat="43.39972" lon="-0.52089">
        <ele>186</ele>
        <time>2013-05-06T10:41:53Z</time>
      </trkpt>
      <trkpt lat="43.39972" lon="-0.52091">
        <ele>186</ele>
        <time>2013-05-06T10:41:54Z</time>
      </trkpt>
      <trkpt lat="43.39973" lon="-0.52093">
        <ele>186</ele>
        <time>2013-05-06T10:41:55Z</time>
      </trkpt>
      <trkpt lat="43.39973" lon="-0.52094">
        <ele>187</ele>
        <time>2013-05-06T10:41:56Z</time>
      </trkpt>
      <trkpt lat="43.39973" lon="-0.52096">
        <ele>187</ele>
        <time>2013-05-06T10:41:57Z</time>
      </trkpt>
      <trkpt lat="43.39973" lon="-0.52098">
        <ele>187</ele>
        <time>2013-05-06T10:41:58Z</time>
      </trkpt>
      <trkpt lat="43.39973" lon="-0.521">
        <ele>187</ele>
        <time>2013-05-06T10:41:59Z</time>
      </trkpt>
      <trkpt lat="43.39973" lon="-0.52101">
        <ele>187</ele>
        <time>2013-05-06T10:42:00Z</time>
      </trkpt>
      <trkpt lat="43.39974" lon="-0.52104">
        <ele>188</ele>
        <time>2013-05-06T10:42:01Z</time>
      </trkpt>
      <trkpt lat="43.39975" lon="-0.52106">
        <ele>188</ele>
        <time>2013-05-06T10:42:02Z</time>
      </trkpt>
      <trkpt lat="43.39974" lon="-0.52108">
        <ele>188</ele>
        <time>2013-05-06T10:42:03Z</time>
      </trkpt>
      <trkpt lat="43.39974" lon="-0.5211">
        <ele>188</ele>
        <time>2013-05-06T10:42:04Z</time>
      </trkpt>
      <trkpt lat="43.39974" lon="-0.52112">
        <ele>189</ele>
        <time>2013-05-06T10:42:05Z</time>
      </trkpt>
      <trkpt lat="43.39973" lon="-0.52114">
        <ele>190</ele>
        <time>2013-05-06T10:42:06Z</time>
      </trkpt>
      <trkpt lat="43.39971" lon="-0.52117">
        <ele>192</ele>
        <time>2013-05-06T10:42:07Z</time>
      </trkpt>
      <trkpt lat="43.3997" lon="-0.52119">
        <ele>193</ele>
        <time>2013-05-06T10:42:08Z</time>
      </trkpt>
      <trkpt lat="43.39969" lon="-0.52121">
        <ele>193</ele>
        <time>2013-05-06T10:42:09Z</time>
      </trkpt>
      <trkpt lat="43.39968" lon="-0.52124">
        <ele>194</ele>
        <time>2013-05-06T10:42:10Z</time>
      </trkpt>
      <trkpt lat="43.39967" lon="-0.52126">
        <ele>195</ele>
        <time>2013-05-06T10:42:11Z</time>
      </trkpt>
      <trkpt lat="43.39966" lon="-0.52127">
        <ele>195</ele>
        <time>2013-05-06T10:42:12Z</time>
      </trkpt>
      <trkpt lat="43.39965" lon="-0.52128">
        <ele>196</ele>
        <time>2013-05-06T10:42:13Z</time>
      </trkpt>
      <trkpt lat="43.39964" lon="-0.52129">
        <ele>197</ele>
        <time>2013-05-06T10:42:14Z</time>
      </trkpt>
      <trkpt lat="43.39962" lon="-0.52129">
        <ele>197</ele>
        <time>2013-05-06T10:42:15Z</time>
      </trkpt>
      <trkpt lat="43.39961" lon="-0.52129">
        <ele>200</ele>
        <time>2013-05-06T10:42:16Z</time>
      </trkpt>
      <trkpt lat="43.39959" lon="-0.52129">
        <ele>200</ele>
        <time>2013-05-06T10:42:17Z</time>
      </trkpt>
      <trkpt lat="43.39958" lon="-0.52129">
        <ele>200</ele>
        <time>2013-05-06T10:42:18Z</time>
      </trkpt>
      <trkpt lat="43.39958" lon="-0.52129">
        <ele>202</ele>
        <time>2013-05-06T10:42:19Z</time>
      </trkpt>
      <trkpt lat="43.39957" lon="-0.52129">
        <ele>203</ele>
        <time>2013-05-06T10:42:20Z</time>
      </trkpt>
      <trkpt lat="43.39957" lon="-0.52129">
        <ele>203</ele>
        <time>2013-05-06T10:42:21Z</time>
      </trkpt>
      <trkpt lat="43.39957" lon="-0.52129">
        <ele>203</ele>
        <time>2013-05-06T10:42:22Z</time>
      </trkpt>
      <trkpt lat="43.39957" lon="-0.52129">
        <ele>204</ele>
        <time>2013-05-06T10:42:23Z</time>
      </trkpt>
      <trkpt lat="43.39956" lon="-0.52129">
        <ele>205</ele>
        <time>2013-05-06T10:42:24Z</time>
      </trkpt>
      <trkpt lat="43.39956" lon="-0.52129">
        <ele>205</ele>
        <time>2013-05-06T10:42:25Z</time>
      </trkpt>
      <trkpt lat="43.39955" lon="-0.52128">
        <ele>205</ele>
        <time>2013-05-06T10:42:26Z</time>
      </trkpt>
      <trkpt lat="43.39954" lon="-0.52128">
        <ele>204</ele>
        <time>2013-05-06T10:42:27Z</time>
      </trkpt>
      <trkpt lat="43.39954" lon="-0.52128">
        <ele>205</ele>
        <time>2013-05-06T10:42:28Z</time>
      </trkpt>
      <trkpt lat="43.39954" lon="-0.52129">
        <ele>205</ele>
        <time>2013-05-06T10:42:29Z</time>
      </trkpt>
      <trkpt lat="43.39953" lon="-0.52129">
        <ele>206</ele>
        <time>2013-05-06T10:42:30Z</time>
      </trkpt>
      <trkpt lat="43.39951" lon="-0.52129">
        <ele>206</ele>
        <time>2013-05-06T10:42:31Z</time>
      </trkpt>
      <trkpt lat="43.39949" lon="-0.52129">
        <ele>206</ele>
        <time>2013-05-06T10:42:32Z</time>
      </trkpt>
      <trkpt lat="43.39948" lon="-0.52128">
        <ele>206</ele>
        <time>2013-05-06T10:42:33Z</time>
      </trkpt>
      <trkpt lat="43.39946" lon="-0.52128">
        <ele>207</ele>
        <time>2013-05-06T10:42:34Z</time>
      </trkpt>
      <trkpt lat="43.39945" lon="-0.52127">
        <ele>206</ele>
        <time>2013-05-06T10:42:35Z</time>
      </trkpt>
      <trkpt lat="43.39943" lon="-0.52125">
        <ele>206</ele>
        <time>2013-05-06T10:42:36Z</time>
      </trkpt>
      <trkpt lat="43.39941" lon="-0.52124">
        <ele>206</ele>
        <time>2013-05-06T10:42:37Z</time>
      </trkpt>
      <trkpt lat="43.39939" lon="-0.52123">
        <ele>208</ele>
        <time>2013-05-06T10:42:38Z</time>
      </trkpt>
      <trkpt lat="43.39937" lon="-0.52123">
        <ele>208</ele>
        <time>2013-05-06T10:42:39Z</time>
      </trkpt>
      <trkpt lat="43.39935" lon="-0.52122">
        <ele>209</ele>
        <time>2013-05-06T10:42:40Z</time>
      </trkpt>
      <trkpt lat="43.39934" lon="-0.52122">
        <ele>210</ele>
        <time>2013-05-06T10:42:41Z</time>
      </trkpt>
      <trkpt lat="43.39933" lon="-0.52122">
        <ele>211</ele>
        <time>2013-05-06T10:42:42Z</time>
      </trkpt>
      <trkpt lat="43.39932" lon="-0.52121">
        <ele>213</ele>
        <time>2013-05-06T10:42:43Z</time>
      </trkpt>
      <trkpt lat="43.3993" lon="-0.52121">
        <ele>213</ele>
        <time>2013-05-06T10:42:44Z</time>
      </trkpt>
      <trkpt lat="43.39928" lon="-0.52121">
        <ele>213</ele>
        <time>2013-05-06T10:42:45Z</time>
      </trkpt>
      <trkpt lat="43.39927" lon="-0.52121">
        <ele>214</ele>
        <time>2013-05-06T10:42:46Z</time>
      </trkpt>
      <trkpt lat="43.39925" lon="-0.5212">
        <ele>215</ele>
        <time>2013-05-06T10:42:47Z</time>
      </trkpt>
      <trkpt lat="43.39924" lon="-0.52119">
        <ele>214</ele>
        <time>2013-05-06T10:42:48Z</time>
      </trkpt>
      <trkpt lat="43.39923" lon="-0.52118">
        <ele>214</ele>
        <time>2013-05-06T10:42:49Z</time>
      </trkpt>
      <trkpt lat="43.39922" lon="-0.52116">
        <ele>214</ele>
        <time>2013-05-06T10:42:50Z</time>
      </trkpt>
      <trkpt lat="43.39921" lon="-0.52115">
        <ele>214</ele>
        <time>2013-05-06T10:42:51Z</time>
      </trkpt>
      <trkpt lat="43.3992" lon="-0.52113">
        <ele>215</ele>
        <time>2013-05-06T10:42:52Z</time>
      </trkpt>
      <trkpt lat="43.39919" lon="-0.52112">
        <ele>215</ele>
        <time>2013-05-06T10:42:53Z</time>
      </trkpt>
      <trkpt lat="43.39919" lon="-0.5211">
        <ele>216</ele>
        <time>2013-05-06T10:42:54Z</time>
      </trkpt>
      <trkpt lat="43.39918" lon="-0.52109">
        <ele>215</ele>
        <time>2013-05-06T10:42:55Z</time>
      </trkpt>
      <trkpt lat="43.39917" lon="-0.52107">
        <ele>215</ele>
        <time>2013-05-06T10:42:56Z</time>
      </trkpt>
      <trkpt lat="43.39917" lon="-0.52106">
        <ele>215</ele>
        <time>2013-05-06T10:42:57Z</time>
      </trkpt>
      <trkpt lat="43.39917" lon="-0.52105">
        <ele>217</ele>
        <time>2013-05-06T10:42:58Z</time>
      </trkpt>
      <trkpt lat="43.39917" lon="-0.52104">
        <ele>218</ele>
        <time>2013-05-06T10:42:59Z</time>
      </trkpt>
      <trkpt lat="43.39917" lon="-0.52103">
        <ele>218</ele>
        <time>2013-05-06T10:43:00Z</time>
      </trkpt>
      <trkpt lat="43.39916" lon="-0.52102">
        <ele>218</ele>
        <time>2013-05-06T10:43:01Z</time>
      </trkpt>
      <trkpt lat="43.39916" lon="-0.52101">
        <ele>218</ele>
        <time>2013-05-06T10:43:02Z</time>
      </trkpt>
      <trkpt lat="43.39915" lon="-0.521">
        <ele>218</ele>
        <time>2013-05-06T10:43:03Z</time>
      </trkpt>
      <trkpt lat="43.39914" lon="-0.52098">
        <ele>217</ele>
        <time>2013-05-06T10:43:04Z</time>
      </trkpt>
      <trkpt lat="43.39912" lon="-0.52097">
        <ele>218</ele>
        <time>2013-05-06T10:43:05Z</time>
      </trkpt>
      <trkpt lat="43.39909" lon="-0.52095">
        <ele>218</ele>
        <time>2013-05-06T10:43:06Z</time>
      </trkpt>
      <trkpt lat="43.39906" lon="-0.52094">
        <ele>218</ele>
        <time>2013-05-06T10:43:07Z</time>
      </trkpt>
      <trkpt lat="43.39903" lon="-0.52092">
        <ele>219</ele>
        <time>2013-05-06T10:43:08Z</time>
      </trkpt>
      <trkpt lat="43.39899" lon="-0.5209">
        <ele>219</ele>
        <time>2013-05-06T10:43:09Z</time>
      </trkpt>
      <trkpt lat="43.39896" lon="-0.52089">
        <ele>220</ele>
        <time>2013-05-06T10:43:10Z</time>
      </trkpt>
      <trkpt lat="43.39893" lon="-0.52088">
        <ele>220</ele>
        <time>2013-05-06T10:43:11Z</time>
      </trkpt>
      <trkpt lat="43.39892" lon="-0.52087">
        <ele>221</ele>
        <time>2013-05-06T10:43:12Z</time>
      </trkpt>
      <trkpt lat="43.3989" lon="-0.52086">
        <ele>221</ele>
        <time>2013-05-06T10:43:13Z</time>
      </trkpt>
      <trkpt lat="43.39889" lon="-0.52086">
        <ele>223</ele>
        <time>2013-05-06T10:43:14Z</time>
      </trkpt>
      <trkpt lat="43.39888" lon="-0.52086">
        <ele>223</ele>
        <time>2013-05-06T10:43:15Z</time>
      </trkpt>
      <trkpt lat="43.39888" lon="-0.52087">
        <ele>225</ele>
        <time>2013-05-06T10:43:16Z</time>
      </trkpt>
      <trkpt lat="43.39887" lon="-0.52087">
        <ele>225</ele>
        <time>2013-05-06T10:43:17Z</time>
      </trkpt>
      <trkpt lat="43.39887" lon="-0.52088">
        <ele>225</ele>
        <time>2013-05-06T10:43:18Z</time>
      </trkpt>
      <trkpt lat="43.39886" lon="-0.52088">
        <ele>225</ele>
        <time>2013-05-06T10:43:19Z</time>
      </trkpt>
      <trkpt lat="43.39886" lon="-0.52088">
        <ele>226</ele>
        <time>2013-05-06T10:43:20Z</time>
      </trkpt>
      <trkpt lat="43.39885" lon="-0.52088">
        <ele>227</ele>
        <time>2013-05-06T10:43:21Z</time>
      </trkpt>
      <trkpt lat="43.39884" lon="-0.52088">
        <ele>228</ele>
        <time>2013-05-06T10:43:22Z</time>
      </trkpt>
      <trkpt lat="43.39883" lon="-0.52088">
        <ele>229</ele>
        <time>2013-05-06T10:43:23Z</time>
      </trkpt>
      <trkpt lat="43.39882" lon="-0.52087">
        <ele>230</ele>
        <time>2013-05-06T10:43:24Z</time>
      </trkpt>
      <trkpt lat="43.39881" lon="-0.52087">
        <ele>231</ele>
        <time>2013-05-06T10:43:25Z</time>
      </trkpt>
      <trkpt lat="43.3988" lon="-0.52086">
        <ele>229</ele>
        <time>2013-05-06T10:43:26Z</time>
      </trkpt>
      <trkpt lat="43.3988" lon="-0.52085">
        <ele>230</ele>
        <time>2013-05-06T10:43:27Z</time>
      </trkpt>
      <trkpt lat="43.39879" lon="-0.52084">
        <ele>229</ele>
        <time>2013-05-06T10:43:28Z</time>
      </trkpt>
      <trkpt lat="43.39879" lon="-0.52083">
        <ele>229</ele>
        <time>2013-05-06T10:43:29Z</time>
      </trkpt>
      <trkpt lat="43.39878" lon="-0.52083">
        <ele>230</ele>
        <time>2013-05-06T10:43:30Z</time>
      </trkpt>
      <trkpt lat="43.39877" lon="-0.52083">
        <ele>230</ele>
        <time>2013-05-06T10:43:31Z</time>
      </trkpt>
      <trkpt lat="43.39876" lon="-0.52083">
        <ele>230</ele>
        <time>2013-05-06T10:43:32Z</time>
      </trkpt>
      <trkpt lat="43.39875" lon="-0.52084">
        <ele>231</ele>
        <time>2013-05-06T10:43:33Z</time>
      </trkpt>
      <trkpt lat="43.39874" lon="-0.52084">
        <ele>231</ele>
        <time>2013-05-06T10:43:34Z</time>
      </trkpt>
      <trkpt lat="43.39874" lon="-0.52085">
        <ele>231</ele>
        <time>2013-05-06T10:43:35Z</time>
      </trkpt>
      <trkpt lat="43.39873" lon="-0.52085">
        <ele>231</ele>
        <time>2013-05-06T10:43:36Z</time>
      </trkpt>
      <trkpt lat="43.39872" lon="-0.52086">
        <ele>232</ele>
        <time>2013-05-06T10:43:37Z</time>
      </trkpt>
      <trkpt lat="43.39871" lon="-0.52087">
        <ele>231</ele>
        <time>2013-05-06T10:43:38Z</time>
      </trkpt>
      <trkpt lat="43.3987" lon="-0.52088">
        <ele>232</ele>
        <time>2013-05-06T10:43:39Z</time>
      </trkpt>
      <trkpt lat="43.39869" lon="-0.52089">
        <ele>232</ele>
        <time>2013-05-06T10:43:40Z</time>
      </trkpt>
      <trkpt lat="43.39868" lon="-0.52089">
        <ele>232</ele>
        <time>2013-05-06T10:43:41Z</time>
      </trkpt>
      <trkpt lat="43.39867" lon="-0.5209">
        <ele>233</ele>
        <time>2013-05-06T10:43:42Z</time>
      </trkpt>
      <trkpt lat="43.39867" lon="-0.5209">
        <ele>233</ele>
        <time>2013-05-06T10:43:43Z</time>
      </trkpt>
      <trkpt lat="43.39866" lon="-0.52091">
        <ele>234</ele>
        <time>2013-05-06T10:43:44Z</time>
      </trkpt>
      <trkpt lat="43.39866" lon="-0.52092">
        <ele>234</ele>
        <time>2013-05-06T10:43:45Z</time>
      </trkpt>
      <trkpt lat="43.39865" lon="-0.52093">
        <ele>234</ele>
        <time>2013-05-06T10:43:46Z</time>
      </trkpt>
      <trkpt lat="43.39864" lon="-0.52094">
        <ele>233</ele>
        <time>2013-05-06T10:43:47Z</time>
      </trkpt>
      <trkpt lat="43.39864" lon="-0.52094">
        <ele>234</ele>
        <time>2013-05-06T10:43:48Z</time>
      </trkpt>
      <trkpt lat="43.39863" lon="-0.52095">
        <ele>234</ele>
        <time>2013-05-06T10:43:49Z</time>
      </trkpt>
      <trkpt lat="43.39862" lon="-0.52097">
        <ele>234</ele>
        <time>2013-05-06T10:43:50Z</time>
      </trkpt>
      <trkpt lat="43.39861" lon="-0.52098">
        <ele>233</ele>
        <time>2013-05-06T10:43:51Z</time>
      </trkpt>
      <trkpt lat="43.39861" lon="-0.52099">
        <ele>233</ele>
        <time>2013-05-06T10:43:52Z</time>
      </trkpt>
      <trkpt lat="43.3986" lon="-0.521">
        <ele>233</ele>
        <time>2013-05-06T10:43:53Z</time>
      </trkpt>
      <trkpt lat="43.39859" lon="-0.52101">
        <ele>233</ele>
        <time>2013-05-06T10:43:54Z</time>
      </trkpt>
      <trkpt lat="43.39859" lon="-0.52102">
        <ele>232</ele>
        <time>2013-05-06T10:43:55Z</time>
      </trkpt>
      <trkpt lat="43.39858" lon="-0.52102">
        <ele>232</ele>
        <time>2013-05-06T10:43:56Z</time>
      </trkpt>
      <trkpt lat="43.39858" lon="-0.52103">
        <ele>233</ele>
        <time>2013-05-06T10:43:57Z</time>
      </trkpt>
      <trkpt lat="43.39856" lon="-0.52103">
        <ele>230</ele>
        <time>2013-05-06T10:43:58Z</time>
      </trkpt>
      <trkpt lat="43.39855" lon="-0.52103">
        <ele>229</ele>
        <time>2013-05-06T10:43:59Z</time>
      </trkpt>
      <trkpt lat="43.39855" lon="-0.52103">
        <ele>229</ele>
        <time>2013-05-06T10:44:00Z</time>
      </trkpt>
      <trkpt lat="43.39855" lon="-0.52103">
        <ele>230</ele>
        <time>2013-05-06T10:44:01Z</time>
      </trkpt>
      <trkpt lat="43.39854" lon="-0.52104">
        <ele>231</ele>
        <time>2013-05-06T10:44:02Z</time>
      </trkpt>
      <trkpt lat="43.39854" lon="-0.52104">
        <ele>229</ele>
        <time>2013-05-06T10:44:03Z</time>
      </trkpt>
      <trkpt lat="43.39853" lon="-0.52103">
        <ele>230</ele>
        <time>2013-05-06T10:44:04Z</time>
      </trkpt>
      <trkpt lat="43.39852" lon="-0.52102">
        <ele>229</ele>
        <time>2013-05-06T10:44:05Z</time>
      </trkpt>
      <trkpt lat="43.39851" lon="-0.521">
        <ele>229</ele>
        <time>2013-05-06T10:44:06Z</time>
      </trkpt>
      <trkpt lat="43.39849" lon="-0.52098">
        <ele>229</ele>
        <time>2013-05-06T10:44:07Z</time>
      </trkpt>
      <trkpt lat="43.39848" lon="-0.52095">
        <ele>229</ele>
        <time>2013-05-06T10:44:08Z</time>
      </trkpt>
      <trkpt lat="43.39846" lon="-0.52093">
        <ele>229</ele>
        <time>2013-05-06T10:44:09Z</time>
      </trkpt>
      <trkpt lat="43.39844" lon="-0.5209">
        <ele>231</ele>
        <time>2013-05-06T10:44:10Z</time>
      </trkpt>
      <trkpt lat="43.39842" lon="-0.52087">
        <ele>231</ele>
        <time>2013-05-06T10:44:11Z</time>
      </trkpt>
      <trkpt lat="43.3984" lon="-0.52085">
        <ele>232</ele>
        <time>2013-05-06T10:44:12Z</time>
      </trkpt>
      <trkpt lat="43.39837" lon="-0.52084">
        <ele>233</ele>
        <time>2013-05-06T10:44:13Z</time>
      </trkpt>
      <trkpt lat="43.39834" lon="-0.52082">
        <ele>233</ele>
        <time>2013-05-06T10:44:14Z</time>
      </trkpt>
      <trkpt lat="43.3983" lon="-0.5208">
        <ele>234</ele>
        <time>2013-05-06T10:44:15Z</time>
      </trkpt>
      <trkpt lat="43.39827" lon="-0.52078">
        <ele>235</ele>
        <time>2013-05-06T10:44:16Z</time>
      </trkpt>
      <trkpt lat="43.39823" lon="-0.52075">
        <ele>235</ele>
        <time>2013-05-06T10:44:17Z</time>
      </trkpt>
      <trkpt lat="43.3982" lon="-0.52071">
        <ele>235</ele>
        <time>2013-05-06T10:44:18Z</time>
      </trkpt>
      <trkpt lat="43.39817" lon="-0.52067">
        <ele>235</ele>
        <time>2013-05-06T10:44:19Z</time>
      </trkpt>
      <trkpt lat="43.39815" lon="-0.52064">
        <ele>235</ele>
        <time>2013-05-06T10:44:20Z</time>
      </trkpt>
      <trkpt lat="43.39811" lon="-0.52057">
        <ele>235</ele>
        <time>2013-05-06T10:44:21Z</time>
      </trkpt>
      <trkpt lat="43.39808" lon="-0.52053">
        <ele>235</ele>
        <time>2013-05-06T10:44:22Z</time>
      </trkpt>
      <trkpt lat="43.39805" lon="-0.52048">
        <ele>235</ele>
        <time>2013-05-06T10:44:23Z</time>
      </trkpt>
      <trkpt lat="43.398" lon="-0.52044">
        <ele>233</ele>
        <time>2013-05-06T10:44:24Z</time>
      </trkpt>
      <trkpt lat="43.39798" lon="-0.52041">
        <ele>233</ele>
        <time>2013-05-06T10:44:25Z</time>
      </trkpt>
      <trkpt lat="43.39792" lon="-0.52037">
        <ele>235</ele>
        <time>2013-05-06T10:44:26Z</time>
      </trkpt>
      <trkpt lat="43.39789" lon="-0.52032">
        <ele>235</ele>
        <time>2013-05-06T10:44:27Z</time>
      </trkpt>
      <trkpt lat="43.39785" lon="-0.52027">
        <ele>234</ele>
        <time>2013-05-06T10:44:28Z</time>
      </trkpt>
      <trkpt lat="43.39782" lon="-0.52021">
        <ele>233</ele>
        <time>2013-05-06T10:44:29Z</time>
      </trkpt>
      <trkpt lat="43.39779" lon="-0.52015">
        <ele>232</ele>
        <time>2013-05-06T10:44:30Z</time>
      </trkpt>
      <trkpt lat="43.39777" lon="-0.52009">
        <ele>232</ele>
        <time>2013-05-06T10:44:31Z</time>
      </trkpt>
      <trkpt lat="43.39775" lon="-0.52">
        <ele>231</ele>
        <time>2013-05-06T10:44:32Z</time>
      </trkpt>
      <trkpt lat="43.39773" lon="-0.51993">
        <ele>231</ele>
        <time>2013-05-06T10:44:33Z</time>
      </trkpt>
      <trkpt lat="43.39772" lon="-0.51986">
        <ele>231</ele>
        <time>2013-05-06T10:44:34Z</time>
      </trkpt>
      <trkpt lat="43.3977" lon="-0.51979">
        <ele>231</ele>
        <time>2013-05-06T10:44:35Z</time>
      </trkpt>
      <trkpt lat="43.39769" lon="-0.51974">
        <ele>231</ele>
        <time>2013-05-06T10:44:36Z</time>
      </trkpt>
      <trkpt lat="43.39768" lon="-0.51969">
        <ele>232</ele>
        <time>2013-05-06T10:44:37Z</time>
      </trkpt>
      <trkpt lat="43.39767" lon="-0.51965">
        <ele>232</ele>
        <time>2013-05-06T10:44:38Z</time>
      </trkpt>
      <trkpt lat="43.39766" lon="-0.51961">
        <ele>232</ele>
        <time>2013-05-06T10:44:39Z</time>
      </trkpt>
      <trkpt lat="43.39765" lon="-0.51958">
        <ele>232</ele>
        <time>2013-05-06T10:44:40Z</time>
      </trkpt>
      <trkpt lat="43.39764" lon="-0.51954">
        <ele>235</ele>
        <time>2013-05-06T10:44:41Z</time>
      </trkpt>
      <trkpt lat="43.39763" lon="-0.51951">
        <ele>235</ele>
        <time>2013-05-06T10:44:42Z</time>
      </trkpt>
      <trkpt lat="43.39762" lon="-0.51947">
        <ele>235</ele>
        <time>2013-05-06T10:44:43Z</time>
      </trkpt>
      <trkpt lat="43.39761" lon="-0.51942">
        <ele>235</ele>
        <time>2013-05-06T10:44:44Z</time>
      </trkpt>
      <trkpt lat="43.3976" lon="-0.51938">
        <ele>235</ele>
        <time>2013-05-06T10:44:45Z</time>
      </trkpt>
      <trkpt lat="43.39759" lon="-0.51935">
        <ele>235</ele>
        <time>2013-05-06T10:44:46Z</time>
      </trkpt>
      <trkpt lat="43.39758" lon="-0.51932">
        <ele>235</ele>
        <time>2013-05-06T10:44:47Z</time>
      </trkpt>
      <trkpt lat="43.39757" lon="-0.51929">
        <ele>234</ele>
        <time>2013-05-06T10:44:48Z</time>
      </trkpt>
      <trkpt lat="43.39755" lon="-0.51926">
        <ele>234</ele>
        <time>2013-05-06T10:44:49Z</time>
      </trkpt>
      <trkpt lat="43.39753" lon="-0.51923">
        <ele>234</ele>
        <time>2013-05-06T10:44:50Z</time>
      </trkpt>
      <trkpt lat="43.3975" lon="-0.51921">
        <ele>233</ele>
        <time>2013-05-06T10:44:51Z</time>
      </trkpt>
      <trkpt lat="43.39748" lon="-0.51919">
        <ele>233</ele>
        <time>2013-05-06T10:44:52Z</time>
      </trkpt>
      <trkpt lat="43.39747" lon="-0.51918">
        <ele>234</ele>
        <time>2013-05-06T10:44:53Z</time>
      </trkpt>
      <trkpt lat="43.39746" lon="-0.51917">
        <ele>235</ele>
        <time>2013-05-06T10:44:54Z</time>
      </trkpt>
      <trkpt lat="43.39744" lon="-0.51916">
        <ele>235</ele>
        <time>2013-05-06T10:44:55Z</time>
      </trkpt>
      <trkpt lat="43.39743" lon="-0.51916">
        <ele>234</ele>
        <time>2013-05-06T10:44:56Z</time>
      </trkpt>
      <trkpt lat="43.39741" lon="-0.51914">
        <ele>234</ele>
        <time>2013-05-06T10:44:57Z</time>
      </trkpt>
      <trkpt lat="43.39739" lon="-0.51912">
        <ele>234</ele>
        <time>2013-05-06T10:44:58Z</time>
      </trkpt>
      <trkpt lat="43.39737" lon="-0.5191">
        <ele>235</ele>
        <time>2013-05-06T10:44:59Z</time>
      </trkpt>
      <trkpt lat="43.39736" lon="-0.51909">
        <ele>234</ele>
        <time>2013-05-06T10:45:00Z</time>
      </trkpt>
      <trkpt lat="43.39734" lon="-0.51907">
        <ele>234</ele>
        <time>2013-05-06T10:45:01Z</time>
      </trkpt>
      <trkpt lat="43.39733" lon="-0.51905">
        <ele>234</ele>
        <time>2013-05-06T10:45:02Z</time>
      </trkpt>
      <trkpt lat="43.39731" lon="-0.51903">
        <ele>235</ele>
        <time>2013-05-06T10:45:03Z</time>
      </trkpt>
      <trkpt lat="43.3973" lon="-0.51901">
        <ele>235</ele>
        <time>2013-05-06T10:45:04Z</time>
      </trkpt>
      <trkpt lat="43.39729" lon="-0.51899">
        <ele>236</ele>
        <time>2013-05-06T10:45:05Z</time>
      </trkpt>
      <trkpt lat="43.39727" lon="-0.51897">
        <ele>236</ele>
        <time>2013-05-06T10:45:06Z</time>
      </trkpt>
      <trkpt lat="43.39726" lon="-0.51896">
        <ele>236</ele>
        <time>2013-05-06T10:45:07Z</time>
      </trkpt>
      <trkpt lat="43.39725" lon="-0.51893">
        <ele>237</ele>
        <time>2013-05-06T10:45:08Z</time>
      </trkpt>
      <trkpt lat="43.39724" lon="-0.51892">
        <ele>237</ele>
        <time>2013-05-06T10:45:09Z</time>
      </trkpt>
      <trkpt lat="43.39722" lon="-0.51891">
        <ele>235</ele>
        <time>2013-05-06T10:45:10Z</time>
      </trkpt>
      <trkpt lat="43.39721" lon="-0.5189">
        <ele>235</ele>
        <time>2013-05-06T10:45:11Z</time>
      </trkpt>
      <trkpt lat="43.39719" lon="-0.51889">
        <ele>236</ele>
        <time>2013-05-06T10:45:12Z</time>
      </trkpt>
      <trkpt lat="43.39718" lon="-0.51888">
        <ele>239</ele>
        <time>2013-05-06T10:45:13Z</time>
      </trkpt>
      <trkpt lat="43.39718" lon="-0.51886">
        <ele>239</ele>
        <time>2013-05-06T10:45:14Z</time>
      </trkpt>
      <trkpt lat="43.39718" lon="-0.51883">
        <ele>239</ele>
        <time>2013-05-06T10:45:15Z</time>
      </trkpt>
      <trkpt lat="43.39716" lon="-0.51882">
        <ele>239</ele>
        <time>2013-05-06T10:45:16Z</time>
      </trkpt>
      <trkpt lat="43.39716" lon="-0.51878">
        <ele>239</ele>
        <time>2013-05-06T10:45:17Z</time>
      </trkpt>
      <trkpt lat="43.39714" lon="-0.51875">
        <ele>238</ele>
        <time>2013-05-06T10:45:18Z</time>
      </trkpt>
      <trkpt lat="43.39713" lon="-0.51873">
        <ele>238</ele>
        <time>2013-05-06T10:45:19Z</time>
      </trkpt>
      <trkpt lat="43.39711" lon="-0.51871">
        <ele>237</ele>
        <time>2013-05-06T10:45:20Z</time>
      </trkpt>
      <trkpt lat="43.3971" lon="-0.51868">
        <ele>239</ele>
        <time>2013-05-06T10:45:21Z</time>
      </trkpt>
      <trkpt lat="43.39709" lon="-0.51866">
        <ele>239</ele>
        <time>2013-05-06T10:45:22Z</time>
      </trkpt>
      <trkpt lat="43.39708" lon="-0.51864">
        <ele>238</ele>
        <time>2013-05-06T10:45:23Z</time>
      </trkpt>
      <trkpt lat="43.39707" lon="-0.51861">
        <ele>239</ele>
        <time>2013-05-06T10:45:24Z</time>
      </trkpt>
      <trkpt lat="43.39705" lon="-0.5186">
        <ele>240</ele>
        <time>2013-05-06T10:45:25Z</time>
      </trkpt>
      <trkpt lat="43.39703" lon="-0.51858">
        <ele>240</ele>
        <time>2013-05-06T10:45:26Z</time>
      </trkpt>
      <trkpt lat="43.39701" lon="-0.51856">
        <ele>240</ele>
        <time>2013-05-06T10:45:27Z</time>
      </trkpt>
      <trkpt lat="43.39699" lon="-0.51855">
        <ele>241</ele>
        <time>2013-05-06T10:45:28Z</time>
      </trkpt>
      <trkpt lat="43.39697" lon="-0.51852">
        <ele>238</ele>
        <time>2013-05-06T10:45:29Z</time>
      </trkpt>
      <trkpt lat="43.39695" lon="-0.51851">
        <ele>237</ele>
        <time>2013-05-06T10:45:30Z</time>
      </trkpt>
      <trkpt lat="43.39695" lon="-0.51847">
        <ele>236</ele>
        <time>2013-05-06T10:45:31Z</time>
      </trkpt>
      <trkpt lat="43.39694" lon="-0.51842">
        <ele>237</ele>
        <time>2013-05-06T10:45:32Z</time>
      </trkpt>
      <trkpt lat="43.39694" lon="-0.51838">
        <ele>237</ele>
        <time>2013-05-06T10:45:33Z</time>
      </trkpt>
      <trkpt lat="43.39693" lon="-0.51834">
        <ele>237</ele>
        <time>2013-05-06T10:45:34Z</time>
      </trkpt>
      <trkpt lat="43.39693" lon="-0.51831">
        <ele>236</ele>
        <time>2013-05-06T10:45:35Z</time>
      </trkpt>
      <trkpt lat="43.39692" lon="-0.51828">
        <ele>236</ele>
        <time>2013-05-06T10:45:36Z</time>
      </trkpt>
      <trkpt lat="43.39691" lon="-0.51825">
        <ele>236</ele>
        <time>2013-05-06T10:45:37Z</time>
      </trkpt>
      <trkpt lat="43.39691" lon="-0.51821">
        <ele>236</ele>
        <time>2013-05-06T10:45:38Z</time>
      </trkpt>
      <trkpt lat="43.3969" lon="-0.51817">
        <ele>235</ele>
        <time>2013-05-06T10:45:39Z</time>
      </trkpt>
      <trkpt lat="43.3969" lon="-0.51814">
        <ele>235</ele>
        <time>2013-05-06T10:45:40Z</time>
      </trkpt>
      <trkpt lat="43.3969" lon="-0.51811">
        <ele>235</ele>
        <time>2013-05-06T10:45:41Z</time>
      </trkpt>
      <trkpt lat="43.39689" lon="-0.51808">
        <ele>236</ele>
        <time>2013-05-06T10:45:42Z</time>
      </trkpt>
      <trkpt lat="43.39688" lon="-0.51805">
        <ele>236</ele>
        <time>2013-05-06T10:45:43Z</time>
      </trkpt>
      <trkpt lat="43.39687" lon="-0.51802">
        <ele>236</ele>
        <time>2013-05-06T10:45:44Z</time>
      </trkpt>
      <trkpt lat="43.39687" lon="-0.51798">
        <ele>236</ele>
        <time>2013-05-06T10:45:45Z</time>
      </trkpt>
      <trkpt lat="43.39686" lon="-0.51794">
        <ele>236</ele>
        <time>2013-05-06T10:45:46Z</time>
      </trkpt>
      <trkpt lat="43.39685" lon="-0.51791">
        <ele>236</ele>
        <time>2013-05-06T10:45:47Z</time>
      </trkpt>
      <trkpt lat="43.39685" lon="-0.51787">
        <ele>236</ele>
        <time>2013-05-06T10:45:48Z</time>
      </trkpt>
      <trkpt lat="43.39684" lon="-0.51785">
        <ele>236</ele>
        <time>2013-05-06T10:45:49Z</time>
      </trkpt>
      <trkpt lat="43.39684" lon="-0.51783">
        <ele>236</ele>
        <time>2013-05-06T10:45:50Z</time>
      </trkpt>
      <trkpt lat="43.39683" lon="-0.51781">
        <ele>235</ele>
        <time>2013-05-06T10:45:51Z</time>
      </trkpt>
      <trkpt lat="43.39682" lon="-0.51779">
        <ele>235</ele>
        <time>2013-05-06T10:45:52Z</time>
      </trkpt>
      <trkpt lat="43.39681" lon="-0.51777">
        <ele>235</ele>
        <time>2013-05-06T10:45:53Z</time>
      </trkpt>
      <trkpt lat="43.39681" lon="-0.51775">
        <ele>236</ele>
        <time>2013-05-06T10:45:54Z</time>
      </trkpt>
      <trkpt lat="43.39679" lon="-0.51773">
        <ele>235</ele>
        <time>2013-05-06T10:45:55Z</time>
      </trkpt>
      <trkpt lat="43.39679" lon="-0.51771">
        <ele>235</ele>
        <time>2013-05-06T10:45:56Z</time>
      </trkpt>
      <trkpt lat="43.39679" lon="-0.51768">
        <ele>236</ele>
        <time>2013-05-06T10:45:57Z</time>
      </trkpt>
      <trkpt lat="43.39678" lon="-0.51765">
        <ele>235</ele>
        <time>2013-05-06T10:45:58Z</time>
      </trkpt>
      <trkpt lat="43.39677" lon="-0.51762">
        <ele>235</ele>
        <time>2013-05-06T10:45:59Z</time>
      </trkpt>
      <trkpt lat="43.39677" lon="-0.51759">
        <ele>235</ele>
        <time>2013-05-06T10:46:00Z</time>
      </trkpt>
      <trkpt lat="43.39677" lon="-0.51756">
        <ele>236</ele>
        <time>2013-05-06T10:46:01Z</time>
      </trkpt>
      <trkpt lat="43.39676" lon="-0.51754">
        <ele>237</ele>
        <time>2013-05-06T10:46:02Z</time>
      </trkpt>
      <trkpt lat="43.39675" lon="-0.51751">
        <ele>237</ele>
        <time>2013-05-06T10:46:03Z</time>
      </trkpt>
      <trkpt lat="43.39674" lon="-0.51748">
        <ele>237</ele>
        <time>2013-05-06T10:46:04Z</time>
      </trkpt>
      <trkpt lat="43.39674" lon="-0.51745">
        <ele>237</ele>
        <time>2013-05-06T10:46:05Z</time>
      </trkpt>
      <trkpt lat="43.39673" lon="-0.51743">
        <ele>237</ele>
        <time>2013-05-06T10:46:06Z</time>
      </trkpt>
      <trkpt lat="43.39672" lon="-0.5174">
        <ele>237</ele>
        <time>2013-05-06T10:46:07Z</time>
      </trkpt>
      <trkpt lat="43.39671" lon="-0.51738">
        <ele>237</ele>
        <time>2013-05-06T10:46:08Z</time>
      </trkpt>
      <trkpt lat="43.3967" lon="-0.51736">
        <ele>236</ele>
        <time>2013-05-06T10:46:09Z</time>
      </trkpt>
      <trkpt lat="43.39669" lon="-0.51733">
        <ele>236</ele>
        <time>2013-05-06T10:46:10Z</time>
      </trkpt>
      <trkpt lat="43.39668" lon="-0.51731">
        <ele>235</ele>
        <time>2013-05-06T10:46:11Z</time>
      </trkpt>
      <trkpt lat="43.39666" lon="-0.51728">
        <ele>234</ele>
        <time>2013-05-06T10:46:12Z</time>
      </trkpt>
      <trkpt lat="43.39665" lon="-0.51725">
        <ele>234</ele>
        <time>2013-05-06T10:46:13Z</time>
      </trkpt>
      <trkpt lat="43.39663" lon="-0.51722">
        <ele>233</ele>
        <time>2013-05-06T10:46:14Z</time>
      </trkpt>
      <trkpt lat="43.39661" lon="-0.5172">
        <ele>233</ele>
        <time>2013-05-06T10:46:15Z</time>
      </trkpt>
      <trkpt lat="43.39659" lon="-0.51717">
        <ele>233</ele>
        <time>2013-05-06T10:46:16Z</time>
      </trkpt>
      <trkpt lat="43.39656" lon="-0.51713">
        <ele>233</ele>
        <time>2013-05-06T10:46:17Z</time>
      </trkpt>
      <trkpt lat="43.39655" lon="-0.5171">
        <ele>233</ele>
        <time>2013-05-06T10:46:18Z</time>
      </trkpt>
      <trkpt lat="43.39652" lon="-0.51706">
        <ele>233</ele>
        <time>2013-05-06T10:46:19Z</time>
      </trkpt>
      <trkpt lat="43.3965" lon="-0.51703">
        <ele>233</ele>
        <time>2013-05-06T10:46:20Z</time>
      </trkpt>
      <trkpt lat="43.39647" lon="-0.51699">
        <ele>232</ele>
        <time>2013-05-06T10:46:21Z</time>
      </trkpt>
      <trkpt lat="43.39644" lon="-0.51696">
        <ele>233</ele>
        <time>2013-05-06T10:46:22Z</time>
      </trkpt>
      <trkpt lat="43.39641" lon="-0.51693">
        <ele>238</ele>
        <time>2013-05-06T10:46:23Z</time>
      </trkpt>
      <trkpt lat="43.39639" lon="-0.51692">
        <ele>239</ele>
        <time>2013-05-06T10:46:24Z</time>
      </trkpt>
      <trkpt lat="43.39637" lon="-0.5169">
        <ele>240</ele>
        <time>2013-05-06T10:46:25Z</time>
      </trkpt>
      <trkpt lat="43.39635" lon="-0.51689">
        <ele>241</ele>
        <time>2013-05-06T10:46:26Z</time>
      </trkpt>
      <trkpt lat="43.39633" lon="-0.51688">
        <ele>241</ele>
        <time>2013-05-06T10:46:27Z</time>
      </trkpt>
      <trkpt lat="43.39632" lon="-0.51687">
        <ele>241</ele>
        <time>2013-05-06T10:46:28Z</time>
      </trkpt>
      <trkpt lat="43.3963" lon="-0.51686">
        <ele>242</ele>
        <time>2013-05-06T10:46:29Z</time>
      </trkpt>
      <trkpt lat="43.39629" lon="-0.51684">
        <ele>241</ele>
        <time>2013-05-06T10:46:30Z</time>
      </trkpt>
      <trkpt lat="43.39628" lon="-0.51683">
        <ele>240</ele>
        <time>2013-05-06T10:46:31Z</time>
      </trkpt>
      <trkpt lat="43.39626" lon="-0.51681">
        <ele>241</ele>
        <time>2013-05-06T10:46:32Z</time>
      </trkpt>
      <trkpt lat="43.39624" lon="-0.5168">
        <ele>241</ele>
        <time>2013-05-06T10:46:33Z</time>
      </trkpt>
      <trkpt lat="43.39623" lon="-0.51678">
        <ele>241</ele>
        <time>2013-05-06T10:46:34Z</time>
      </trkpt>
      <trkpt lat="43.39621" lon="-0.51676">
        <ele>242</ele>
        <time>2013-05-06T10:46:35Z</time>
      </trkpt>
      <trkpt lat="43.39619" lon="-0.51674">
        <ele>242</ele>
        <time>2013-05-06T10:46:36Z</time>
      </trkpt>
      <trkpt lat="43.39618" lon="-0.51672">
        <ele>242</ele>
        <time>2013-05-06T10:46:37Z</time>
      </trkpt>
      <trkpt lat="43.39616" lon="-0.5167">
        <ele>242</ele>
        <time>2013-05-06T10:46:38Z</time>
      </trkpt>
      <trkpt lat="43.39615" lon="-0.51668">
        <ele>242</ele>
        <time>2013-05-06T10:46:39Z</time>
      </trkpt>
      <trkpt lat="43.39613" lon="-0.51666">
        <ele>242</ele>
        <time>2013-05-06T10:46:40Z</time>
      </trkpt>
      <trkpt lat="43.39611" lon="-0.51664">
        <ele>243</ele>
        <time>2013-05-06T10:46:41Z</time>
      </trkpt>
      <trkpt lat="43.3961" lon="-0.51662">
        <ele>243</ele>
        <time>2013-05-06T10:46:42Z</time>
      </trkpt>
      <trkpt lat="43.39608" lon="-0.51661">
        <ele>243</ele>
        <time>2013-05-06T10:46:43Z</time>
      </trkpt>
      <trkpt lat="43.39606" lon="-0.5166">
        <ele>243</ele>
        <time>2013-05-06T10:46:44Z</time>
      </trkpt>
      <trkpt lat="43.39604" lon="-0.51658">
        <ele>243</ele>
        <time>2013-05-06T10:46:45Z</time>
      </trkpt>
      <trkpt lat="43.39602" lon="-0.51657">
        <ele>243</ele>
        <time>2013-05-06T10:46:46Z</time>
      </trkpt>
      <trkpt lat="43.39599" lon="-0.51655">
        <ele>243</ele>
        <time>2013-05-06T10:46:47Z</time>
      </trkpt>
      <trkpt lat="43.39597" lon="-0.51654">
        <ele>246</ele>
        <time>2013-05-06T10:46:48Z</time>
      </trkpt>
      <trkpt lat="43.39594" lon="-0.51654">
        <ele>247</ele>
        <time>2013-05-06T10:46:49Z</time>
      </trkpt>
      <trkpt lat="43.39591" lon="-0.51655">
        <ele>248</ele>
        <time>2013-05-06T10:46:50Z</time>
      </trkpt>
      <trkpt lat="43.39589" lon="-0.51655">
        <ele>248</ele>
        <time>2013-05-06T10:46:51Z</time>
      </trkpt>
      <trkpt lat="43.39586" lon="-0.51655">
        <ele>246</ele>
        <time>2013-05-06T10:46:52Z</time>
      </trkpt>
      <trkpt lat="43.39583" lon="-0.51654">
        <ele>245</ele>
        <time>2013-05-06T10:46:53Z</time>
      </trkpt>
      <trkpt lat="43.3958" lon="-0.51653">
        <ele>245</ele>
        <time>2013-05-06T10:46:54Z</time>
      </trkpt>
      <trkpt lat="43.39577" lon="-0.51652">
        <ele>246</ele>
        <time>2013-05-06T10:46:55Z</time>
      </trkpt>
      <trkpt lat="43.39574" lon="-0.51651">
        <ele>246</ele>
        <time>2013-05-06T10:46:56Z</time>
      </trkpt>
      <trkpt lat="43.39573" lon="-0.5165">
        <ele>246</ele>
        <time>2013-05-06T10:46:57Z</time>
      </trkpt>
      <trkpt lat="43.39571" lon="-0.51649">
        <ele>245</ele>
        <time>2013-05-06T10:46:58Z</time>
      </trkpt>
      <trkpt lat="43.3957" lon="-0.51647">
        <ele>245</ele>
        <time>2013-05-06T10:46:59Z</time>
      </trkpt>
      <trkpt lat="43.39568" lon="-0.51646">
        <ele>246</ele>
        <time>2013-05-06T10:47:00Z</time>
      </trkpt>
      <trkpt lat="43.39567" lon="-0.51645">
        <ele>246</ele>
        <time>2013-05-06T10:47:01Z</time>
      </trkpt>
      <trkpt lat="43.39565" lon="-0.51644">
        <ele>247</ele>
        <time>2013-05-06T10:47:02Z</time>
      </trkpt>
      <trkpt lat="43.39564" lon="-0.51643">
        <ele>249</ele>
        <time>2013-05-06T10:47:03Z</time>
      </trkpt>
      <trkpt lat="43.39562" lon="-0.51641">
        <ele>249</ele>
        <time>2013-05-06T10:47:04Z</time>
      </trkpt>
      <trkpt lat="43.3956" lon="-0.5164">
        <ele>249</ele>
        <time>2013-05-06T10:47:05Z</time>
      </trkpt>
      <trkpt lat="43.39557" lon="-0.51638">
        <ele>250</ele>
        <time>2013-05-06T10:47:06Z</time>
      </trkpt>
      <trkpt lat="43.39555" lon="-0.51637">
        <ele>250</ele>
        <time>2013-05-06T10:47:07Z</time>
      </trkpt>
      <trkpt lat="43.39553" lon="-0.51635">
        <ele>250</ele>
        <time>2013-05-06T10:47:08Z</time>
      </trkpt>
      <trkpt lat="43.39551" lon="-0.51633">
        <ele>249</ele>
        <time>2013-05-06T10:47:09Z</time>
      </trkpt>
      <trkpt lat="43.3955" lon="-0.51632">
        <ele>250</ele>
        <time>2013-05-06T10:47:10Z</time>
      </trkpt>
      <trkpt lat="43.39549" lon="-0.51631">
        <ele>250</ele>
        <time>2013-05-06T10:47:11Z</time>
      </trkpt>
      <trkpt lat="43.39547" lon="-0.5163">
        <ele>250</ele>
        <time>2013-05-06T10:47:12Z</time>
      </trkpt>
      <trkpt lat="43.39545" lon="-0.51629">
        <ele>250</ele>
        <time>2013-05-06T10:47:13Z</time>
      </trkpt>
      <trkpt lat="43.39543" lon="-0.51627">
        <ele>250</ele>
        <time>2013-05-06T10:47:14Z</time>
      </trkpt>
      <trkpt lat="43.39548" lon="-0.51614">
        <ele>254.4</ele>
      </trkpt>
      <trkpt lat="43.39548" lon="-0.51616">
        <ele>254</ele>
        <time>2013-05-06T08:10:55Z</time>
      </trkpt>
      <trkpt lat="43.3955" lon="-0.51618">
        <ele>254</ele>
        <time>2013-05-06T08:10:56Z</time>
      </trkpt>
      <trkpt lat="43.39552" lon="-0.5162">
        <ele>255</ele>
        <time>2013-05-06T08:10:57Z</time>
      </trkpt>
      <trkpt lat="43.39555" lon="-0.51621">
        <ele>256</ele>
        <time>2013-05-06T08:10:58Z</time>
      </trkpt>
      <trkpt lat="43.39557" lon="-0.51622">
        <ele>256</ele>
        <time>2013-05-06T08:10:59Z</time>
      </trkpt>
      <trkpt lat="43.39559" lon="-0.51622">
        <ele>255</ele>
        <time>2013-05-06T08:11:00Z</time>
      </trkpt>
      <trkpt lat="43.3956" lon="-0.51623">
        <ele>255</ele>
        <time>2013-05-06T08:11:01Z</time>
      </trkpt>
      <trkpt lat="43.39565" lon="-0.51621">
        <ele>255</ele>
        <time>2013-05-06T08:11:02Z</time>
      </trkpt>
      <trkpt lat="43.39567" lon="-0.5162">
        <ele>254</ele>
        <time>2013-05-06T08:11:03Z</time>
      </trkpt>
      <trkpt lat="43.39571" lon="-0.51619">
        <ele>254</ele>
        <time>2013-05-06T08:11:04Z</time>
      </trkpt>
      <trkpt lat="43.39571" lon="-0.51619">
        <ele>254</ele>
        <time>2013-05-06T08:11:04Z</time>
      </trkpt>
      <trkpt lat="43.39574" lon="-0.51618">
        <ele>254</ele>
        <time>2013-05-06T08:11:05Z</time>
      </trkpt>
      <trkpt lat="43.39578" lon="-0.51616">
        <ele>254</ele>
        <time>2013-05-06T08:11:06Z</time>
      </trkpt>
      <trkpt lat="43.39581" lon="-0.51614">
        <ele>254</ele>
        <time>2013-05-06T08:11:07Z</time>
      </trkpt>
      <trkpt lat="43.39584" lon="-0.51613">
        <ele>254</ele>
        <time>2013-05-06T08:11:08Z</time>
      </trkpt>
      <trkpt lat="43.39587" lon="-0.51612">
        <ele>254</ele>
        <time>2013-05-06T08:11:09Z</time>
      </trkpt>
      <trkpt lat="43.39591" lon="-0.51611">
        <ele>254</ele>
        <time>2013-05-06T08:11:10Z</time>
      </trkpt>
      <trkpt lat="43.39594" lon="-0.51611">
        <ele>255</ele>
        <time>2013-05-06T08:11:11Z</time>
      </trkpt>
      <trkpt lat="43.39598" lon="-0.51609">
        <ele>255</ele>
        <time>2013-05-06T08:11:12Z</time>
      </trkpt>
      <trkpt lat="43.39602" lon="-0.51608">
        <ele>255</ele>
        <time>2013-05-06T08:11:13Z</time>
      </trkpt>
      <trkpt lat="43.39615" lon="-0.51609">
        <ele>253</ele>
        <time>2013-05-06T08:11:14Z</time>
      </trkpt>
      <trkpt lat="43.39621" lon="-0.51609">
        <ele>253</ele>
        <time>2013-05-06T08:11:15Z</time>
      </trkpt>
      <trkpt lat="43.39626" lon="-0.51608">
        <ele>254</ele>
        <time>2013-05-06T08:11:16Z</time>
      </trkpt>
      <trkpt lat="43.39631" lon="-0.51608">
        <ele>254</ele>
        <time>2013-05-06T08:11:17Z</time>
      </trkpt>
      <trkpt lat="43.39633" lon="-0.5161">
        <ele>255</ele>
        <time>2013-05-06T08:11:18Z</time>
      </trkpt>
      <trkpt lat="43.39636" lon="-0.51608">
        <ele>254</ele>
        <time>2013-05-06T08:11:19Z</time>
      </trkpt>
      <trkpt lat="43.39639" lon="-0.51609">
        <ele>254</ele>
        <time>2013-05-06T08:11:20Z</time>
      </trkpt>
      <trkpt lat="43.3964" lon="-0.51607">
        <ele>254</ele>
        <time>2013-05-06T08:11:21Z</time>
      </trkpt>
      <trkpt lat="43.39645" lon="-0.51611">
        <ele>250</ele>
        <time>2013-05-06T08:11:22Z</time>
      </trkpt>
      <trkpt lat="43.39647" lon="-0.51613">
        <ele>248</ele>
        <time>2013-05-06T08:11:23Z</time>
      </trkpt>
      <trkpt lat="43.39648" lon="-0.51614">
        <ele>247</ele>
        <time>2013-05-06T08:11:24Z</time>
      </trkpt>
      <trkpt lat="43.39653" lon="-0.51616">
        <ele>247</ele>
        <time>2013-05-06T08:11:25Z</time>
      </trkpt>
      <trkpt lat="43.39655" lon="-0.51616">
        <ele>247</ele>
        <time>2013-05-06T08:11:26Z</time>
      </trkpt>
      <trkpt lat="43.39658" lon="-0.51617">
        <ele>247</ele>
        <time>2013-05-06T08:11:27Z</time>
      </trkpt>
      <trkpt lat="43.39662" lon="-0.51617">
        <ele>247</ele>
        <time>2013-05-06T08:11:28Z</time>
      </trkpt>
      <trkpt lat="43.39665" lon="-0.51616">
        <ele>247</ele>
        <time>2013-05-06T08:11:29Z</time>
      </trkpt>
      <trkpt lat="43.39668" lon="-0.51616">
        <ele>246</ele>
        <time>2013-05-06T08:11:30Z</time>
      </trkpt>
      <trkpt lat="43.3967" lon="-0.51616">
        <ele>246</ele>
        <time>2013-05-06T08:11:31Z</time>
      </trkpt>
      <trkpt lat="43.39672" lon="-0.51616">
        <ele>242</ele>
        <time>2013-05-06T08:11:32Z</time>
      </trkpt>
      <trkpt lat="43.39674" lon="-0.51616">
        <ele>241</ele>
        <time>2013-05-06T08:11:33Z</time>
      </trkpt>
      <trkpt lat="43.39676" lon="-0.51617">
        <ele>240</ele>
        <time>2013-05-06T08:11:34Z</time>
      </trkpt>
      <trkpt lat="43.39679" lon="-0.51616">
        <ele>240</ele>
        <time>2013-05-06T08:11:35Z</time>
      </trkpt>
      <trkpt lat="43.39681" lon="-0.51616">
        <ele>241</ele>
        <time>2013-05-06T08:11:36Z</time>
      </trkpt>
      <trkpt lat="43.39684" lon="-0.51615">
        <ele>241</ele>
        <time>2013-05-06T08:11:37Z</time>
      </trkpt>
      <trkpt lat="43.39686" lon="-0.51614">
        <ele>242</ele>
        <time>2013-05-06T08:11:38Z</time>
      </trkpt>
      <trkpt lat="43.39689" lon="-0.51614">
        <ele>242</ele>
        <time>2013-05-06T08:11:39Z</time>
      </trkpt>
      <trkpt lat="43.39691" lon="-0.51613">
        <ele>240</ele>
        <time>2013-05-06T08:11:40Z</time>
      </trkpt>
      <trkpt lat="43.39693" lon="-0.51614">
        <ele>239</ele>
        <time>2013-05-06T08:11:41Z</time>
      </trkpt>
      <trkpt lat="43.39695" lon="-0.51614">
        <ele>239</ele>
        <time>2013-05-06T08:11:42Z</time>
      </trkpt>
      <trkpt lat="43.39697" lon="-0.51614">
        <ele>240</ele>
        <time>2013-05-06T08:11:43Z</time>
      </trkpt>
      <trkpt lat="43.39699" lon="-0.51613">
        <ele>240</ele>
        <time>2013-05-06T08:11:44Z</time>
      </trkpt>
      <trkpt lat="43.397" lon="-0.51611">
        <ele>239</ele>
        <time>2013-05-06T08:11:45Z</time>
      </trkpt>
      <trkpt lat="43.39702" lon="-0.51609">
        <ele>238</ele>
        <time>2013-05-06T08:11:46Z</time>
      </trkpt>
      <trkpt lat="43.39703" lon="-0.51607">
        <ele>238</ele>
        <time>2013-05-06T08:11:47Z</time>
      </trkpt>
      <trkpt lat="43.39705" lon="-0.51605">
        <ele>239</ele>
        <time>2013-05-06T08:11:48Z</time>
      </trkpt>
      <trkpt lat="43.39706" lon="-0.51605">
        <ele>238</ele>
        <time>2013-05-06T08:11:49Z</time>
      </trkpt>
      <trkpt lat="43.39708" lon="-0.51604">
        <ele>237</ele>
        <time>2013-05-06T08:11:50Z</time>
      </trkpt>
      <trkpt lat="43.39709" lon="-0.51604">
        <ele>238</ele>
        <time>2013-05-06T08:11:51Z</time>
      </trkpt>
      <trkpt lat="43.39711" lon="-0.51604">
        <ele>238</ele>
        <time>2013-05-06T08:11:52Z</time>
      </trkpt>
      <trkpt lat="43.39713" lon="-0.51604">
        <ele>238</ele>
        <time>2013-05-06T08:11:53Z</time>
      </trkpt>
      <trkpt lat="43.39714" lon="-0.51604">
        <ele>236</ele>
        <time>2013-05-06T08:11:54Z</time>
      </trkpt>
      <trkpt lat="43.39716" lon="-0.51603">
        <ele>235</ele>
        <time>2013-05-06T08:11:55Z</time>
      </trkpt>
      <trkpt lat="43.39718" lon="-0.51602">
        <ele>234</ele>
        <time>2013-05-06T08:11:56Z</time>
      </trkpt>
      <trkpt lat="43.39719" lon="-0.516">
        <ele>234</ele>
        <time>2013-05-06T08:11:57Z</time>
      </trkpt>
      <trkpt lat="43.39722" lon="-0.51599">
        <ele>233</ele>
        <time>2013-05-06T08:11:58Z</time>
      </trkpt>
      <trkpt lat="43.39724" lon="-0.51598">
        <ele>232</ele>
        <time>2013-05-06T08:11:59Z</time>
      </trkpt>
      <trkpt lat="43.39727" lon="-0.51599">
        <ele>232</ele>
        <time>2013-05-06T08:12:00Z</time>
      </trkpt>
      <trkpt lat="43.39729" lon="-0.51599">
        <ele>231</ele>
        <time>2013-05-06T08:12:01Z</time>
      </trkpt>
      <trkpt lat="43.39732" lon="-0.51601">
        <ele>231</ele>
        <time>2013-05-06T08:12:02Z</time>
      </trkpt>
      <trkpt lat="43.39734" lon="-0.51604">
        <ele>230</ele>
        <time>2013-05-06T08:12:03Z</time>
      </trkpt>
      <trkpt lat="43.39736" lon="-0.51607">
        <ele>228</ele>
        <time>2013-05-06T08:12:04Z</time>
      </trkpt>
      <trkpt lat="43.39738" lon="-0.51609">
        <ele>228</ele>
        <time>2013-05-06T08:12:05Z</time>
      </trkpt>
      <trkpt lat="43.3974" lon="-0.51612">
        <ele>227</ele>
        <time>2013-05-06T08:12:06Z</time>
      </trkpt>
      <trkpt lat="43.39743" lon="-0.51615">
        <ele>228</ele>
        <time>2013-05-06T08:12:07Z</time>
      </trkpt>
      <trkpt lat="43.39746" lon="-0.51617">
        <ele>228</ele>
        <time>2013-05-06T08:12:08Z</time>
      </trkpt>
      <trkpt lat="43.39748" lon="-0.51619">
        <ele>227</ele>
        <time>2013-05-06T08:12:09Z</time>
      </trkpt>
      <trkpt lat="43.3975" lon="-0.5162">
        <ele>227</ele>
        <time>2013-05-06T08:12:10Z</time>
      </trkpt>
      <trkpt lat="43.39753" lon="-0.5162">
        <ele>226</ele>
        <time>2013-05-06T08:12:11Z</time>
      </trkpt>
      <trkpt lat="43.39754" lon="-0.51622">
        <ele>225</ele>
        <time>2013-05-06T08:12:12Z</time>
      </trkpt>
      <trkpt lat="43.39756" lon="-0.51624">
        <ele>224</ele>
        <time>2013-05-06T08:12:13Z</time>
      </trkpt>
      <trkpt lat="43.39758" lon="-0.51626">
        <ele>223</ele>
        <time>2013-05-06T08:12:14Z</time>
      </trkpt>
      <trkpt lat="43.39759" lon="-0.51628">
        <ele>223</ele>
        <time>2013-05-06T08:12:15Z</time>
      </trkpt>
      <trkpt lat="43.39761" lon="-0.51631">
        <ele>223</ele>
        <time>2013-05-06T08:12:16Z</time>
      </trkpt>
      <trkpt lat="43.39763" lon="-0.51634">
        <ele>223</ele>
        <time>2013-05-06T08:12:17Z</time>
      </trkpt>
      <trkpt lat="43.39765" lon="-0.51637">
        <ele>221</ele>
        <time>2013-05-06T08:12:18Z</time>
      </trkpt>
      <trkpt lat="43.39767" lon="-0.51641">
        <ele>220</ele>
        <time>2013-05-06T08:12:19Z</time>
      </trkpt>
      <trkpt lat="43.39768" lon="-0.51645">
        <ele>220</ele>
        <time>2013-05-06T08:12:20Z</time>
      </trkpt>
      <trkpt lat="43.39771" lon="-0.5165">
        <ele>219</ele>
        <time>2013-05-06T08:12:21Z</time>
      </trkpt>
      <trkpt lat="43.39774" lon="-0.51655">
        <ele>218</ele>
        <time>2013-05-06T08:12:22Z</time>
      </trkpt>
      <trkpt lat="43.39776" lon="-0.5166">
        <ele>217</ele>
        <time>2013-05-06T08:12:23Z</time>
      </trkpt>
      <trkpt lat="43.39779" lon="-0.51665">
        <ele>216</ele>
        <time>2013-05-06T08:12:24Z</time>
      </trkpt>
      <trkpt lat="43.39783" lon="-0.51669">
        <ele>214</ele>
        <time>2013-05-06T08:12:25Z</time>
      </trkpt>
      <trkpt lat="43.39786" lon="-0.51673">
        <ele>213</ele>
        <time>2013-05-06T08:12:26Z</time>
      </trkpt>
      <trkpt lat="43.3979" lon="-0.51676">
        <ele>212</ele>
        <time>2013-05-06T08:12:27Z</time>
      </trkpt>
      <trkpt lat="43.39793" lon="-0.51679">
        <ele>212</ele>
        <time>2013-05-06T08:12:28Z</time>
      </trkpt>
      <trkpt lat="43.39795" lon="-0.51681">
        <ele>212</ele>
        <time>2013-05-06T08:12:29Z</time>
      </trkpt>
      <trkpt lat="43.39796" lon="-0.51682">
        <ele>212</ele>
        <time>2013-05-06T08:12:30Z</time>
      </trkpt>
      <trkpt lat="43.39797" lon="-0.51684">
        <ele>212</ele>
        <time>2013-05-06T08:12:31Z</time>
      </trkpt>
      <trkpt lat="43.39798" lon="-0.51686">
        <ele>212</ele>
        <time>2013-05-06T08:12:32Z</time>
      </trkpt>
      <trkpt lat="43.39799" lon="-0.51688">
        <ele>211</ele>
        <time>2013-05-06T08:12:33Z</time>
      </trkpt>
      <trkpt lat="43.39799" lon="-0.51691">
        <ele>210</ele>
        <time>2013-05-06T08:12:34Z</time>
      </trkpt>
      <trkpt lat="43.39799" lon="-0.51694">
        <ele>210</ele>
        <time>2013-05-06T08:12:35Z</time>
      </trkpt>
      <trkpt lat="43.398" lon="-0.51696">
        <ele>210</ele>
        <time>2013-05-06T08:12:36Z</time>
      </trkpt>
      <trkpt lat="43.398" lon="-0.51699">
        <ele>210</ele>
        <time>2013-05-06T08:12:37Z</time>
      </trkpt>
      <trkpt lat="43.39801" lon="-0.51702">
        <ele>210</ele>
        <time>2013-05-06T08:12:38Z</time>
      </trkpt>
      <trkpt lat="43.39801" lon="-0.51704">
        <ele>210</ele>
        <time>2013-05-06T08:12:39Z</time>
      </trkpt>
      <trkpt lat="43.39802" lon="-0.51706">
        <ele>210</ele>
        <time>2013-05-06T08:12:40Z</time>
      </trkpt>
      <trkpt lat="43.39802" lon="-0.51708">
        <ele>210</ele>
        <time>2013-05-06T08:12:41Z</time>
      </trkpt>
      <trkpt lat="43.39802" lon="-0.5171">
        <ele>210</ele>
        <time>2013-05-06T08:12:42Z</time>
      </trkpt>
      <trkpt lat="43.39803" lon="-0.51712">
        <ele>210</ele>
        <time>2013-05-06T08:12:43Z</time>
      </trkpt>
      <trkpt lat="43.39803" lon="-0.51715">
        <ele>210</ele>
        <time>2013-05-06T08:12:44Z</time>
      </trkpt>
      <trkpt lat="43.39805" lon="-0.51719">
        <ele>209</ele>
        <time>2013-05-06T08:12:45Z</time>
      </trkpt>
      <trkpt lat="43.39805" lon="-0.51722">
        <ele>208</ele>
        <time>2013-05-06T08:12:46Z</time>
      </trkpt>
      <trkpt lat="43.39806" lon="-0.51726">
        <ele>207</ele>
        <time>2013-05-06T08:12:47Z</time>
      </trkpt>
      <trkpt lat="43.39807" lon="-0.51729">
        <ele>206</ele>
        <time>2013-05-06T08:12:48Z</time>
      </trkpt>
      <trkpt lat="43.39808" lon="-0.51732">
        <ele>206</ele>
        <time>2013-05-06T08:12:49Z</time>
      </trkpt>
      <trkpt lat="43.39808" lon="-0.51735">
        <ele>206</ele>
        <time>2013-05-06T08:12:50Z</time>
      </trkpt>
      <trkpt lat="43.39809" lon="-0.51738">
        <ele>207</ele>
        <time>2013-05-06T08:12:51Z</time>
      </trkpt>
      <trkpt lat="43.39811" lon="-0.5174">
        <ele>207</ele>
        <time>2013-05-06T08:12:52Z</time>
      </trkpt>
      <trkpt lat="43.39812" lon="-0.51741">
        <ele>207</ele>
        <time>2013-05-06T08:12:53Z</time>
      </trkpt>
      <trkpt lat="43.39814" lon="-0.51743">
        <ele>207</ele>
        <time>2013-05-06T08:12:54Z</time>
      </trkpt>
      <trkpt lat="43.39815" lon="-0.51744">
        <ele>206</ele>
        <time>2013-05-06T08:12:55Z</time>
      </trkpt>
      <trkpt lat="43.39816" lon="-0.51746">
        <ele>206</ele>
        <time>2013-05-06T08:12:56Z</time>
      </trkpt>
      <trkpt lat="43.39817" lon="-0.51747">
        <ele>206</ele>
        <time>2013-05-06T08:12:57Z</time>
      </trkpt>
      <trkpt lat="43.39819" lon="-0.51749">
        <ele>206</ele>
        <time>2013-05-06T08:12:58Z</time>
      </trkpt>
      <trkpt lat="43.3982" lon="-0.51751">
        <ele>206</ele>
        <time>2013-05-06T08:12:59Z</time>
      </trkpt>
      <trkpt lat="43.39821" lon="-0.51754">
        <ele>207</ele>
        <time>2013-05-06T08:13:00Z</time>
      </trkpt>
      <trkpt lat="43.39822" lon="-0.51756">
        <ele>205</ele>
        <time>2013-05-06T08:13:01Z</time>
      </trkpt>
      <trkpt lat="43.39824" lon="-0.51758">
        <ele>205</ele>
        <time>2013-05-06T08:13:02Z</time>
      </trkpt>
      <trkpt lat="43.39824" lon="-0.5176">
        <ele>204</ele>
        <time>2013-05-06T08:13:03Z</time>
      </trkpt>
      <trkpt lat="43.39825" lon="-0.51761">
        <ele>204</ele>
        <time>2013-05-06T08:13:04Z</time>
      </trkpt>
      <trkpt lat="43.39825" lon="-0.51762">
        <ele>204</ele>
        <time>2013-05-06T08:13:05Z</time>
      </trkpt>
      <trkpt lat="43.39825" lon="-0.51763">
        <ele>205</ele>
        <time>2013-05-06T08:13:06Z</time>
      </trkpt>
      <trkpt lat="43.39825" lon="-0.51763">
        <ele>205</ele>
        <time>2013-05-06T08:13:07Z</time>
      </trkpt>
      <trkpt lat="43.39824" lon="-0.51764">
        <ele>204</ele>
        <time>2013-05-06T08:13:08Z</time>
      </trkpt>
      <trkpt lat="43.39824" lon="-0.51764">
        <ele>204</ele>
        <time>2013-05-06T08:13:09Z</time>
      </trkpt>
      <trkpt lat="43.39823" lon="-0.51765">
        <ele>203</ele>
        <time>2013-05-06T08:13:10Z</time>
      </trkpt>
      <trkpt lat="43.39823" lon="-0.51765">
        <ele>204</ele>
        <time>2013-05-06T08:13:11Z</time>
      </trkpt>
      <trkpt lat="43.39822" lon="-0.51765">
        <ele>204</ele>
        <time>2013-05-06T08:13:12Z</time>
      </trkpt>
      <trkpt lat="43.39821" lon="-0.51765">
        <ele>204</ele>
        <time>2013-05-06T08:13:13Z</time>
      </trkpt>
      <trkpt lat="43.39821" lon="-0.51765">
        <ele>205</ele>
        <time>2013-05-06T08:13:14Z</time>
      </trkpt>
      <trkpt lat="43.39821" lon="-0.51765">
        <ele>205</ele>
        <time>2013-05-06T08:13:15Z</time>
      </trkpt>
      <trkpt lat="43.39821" lon="-0.51765">
        <ele>205</ele>
        <time>2013-05-06T08:13:16Z</time>
      </trkpt>
      <trkpt lat="43.39821" lon="-0.51765">
        <ele>205</ele>
        <time>2013-05-06T08:13:17Z</time>
      </trkpt>
      <trkpt lat="43.39822" lon="-0.51765">
        <ele>204</ele>
        <time>2013-05-06T08:13:18Z</time>
      </trkpt>
      <trkpt lat="43.39822" lon="-0.51766">
        <ele>203</ele>
        <time>2013-05-06T08:13:19Z</time>
      </trkpt>
      <trkpt lat="43.39822" lon="-0.51766">
        <ele>204</ele>
        <time>2013-05-06T08:13:20Z</time>
      </trkpt>
      <trkpt lat="43.39823" lon="-0.51768">
        <ele>202</ele>
        <time>2013-05-06T08:13:21Z</time>
      </trkpt>
      <trkpt lat="43.39824" lon="-0.5177">
        <ele>202</ele>
        <time>2013-05-06T08:13:22Z</time>
      </trkpt>
      <trkpt lat="43.39824" lon="-0.51772">
        <ele>202</ele>
        <time>2013-05-06T08:13:23Z</time>
      </trkpt>
      <trkpt lat="43.39825" lon="-0.51775">
        <ele>202</ele>
        <time>2013-05-06T08:13:24Z</time>
      </trkpt>
      <trkpt lat="43.39825" lon="-0.51777">
        <ele>202</ele>
        <time>2013-05-06T08:13:25Z</time>
      </trkpt>
      <trkpt lat="43.39825" lon="-0.51778">
        <ele>202</ele>
        <time>2013-05-06T08:13:26Z</time>
      </trkpt>
      <trkpt lat="43.39826" lon="-0.51778">
        <ele>202</ele>
        <time>2013-05-06T08:13:27Z</time>
      </trkpt>
      <trkpt lat="43.39826" lon="-0.51779">
        <ele>202</ele>
        <time>2013-05-06T08:13:28Z</time>
      </trkpt>
      <trkpt lat="43.39827" lon="-0.51779">
        <ele>203</ele>
        <time>2013-05-06T08:13:29Z</time>
      </trkpt>
      <trkpt lat="43.39829" lon="-0.51779">
        <ele>204</ele>
        <time>2013-05-06T08:13:30Z</time>
      </trkpt>
      <trkpt lat="43.3983" lon="-0.51779">
        <ele>203</ele>
        <time>2013-05-06T08:13:31Z</time>
      </trkpt>
      <trkpt lat="43.39831" lon="-0.5178">
        <ele>202</ele>
        <time>2013-05-06T08:13:32Z</time>
      </trkpt>
      <trkpt lat="43.39832" lon="-0.5178">
        <ele>202</ele>
        <time>2013-05-06T08:13:33Z</time>
      </trkpt>
      <trkpt lat="43.39835" lon="-0.5178">
        <ele>203</ele>
        <time>2013-05-06T08:13:34Z</time>
      </trkpt>
      <trkpt lat="43.39836" lon="-0.5178">
        <ele>203</ele>
        <time>2013-05-06T08:13:35Z</time>
      </trkpt>
      <trkpt lat="43.39838" lon="-0.51779">
        <ele>203</ele>
        <time>2013-05-06T08:13:36Z</time>
      </trkpt>
      <trkpt lat="43.39839" lon="-0.51779">
        <ele>202</ele>
        <time>2013-05-06T08:13:37Z</time>
      </trkpt>
      <trkpt lat="43.3984" lon="-0.51779">
        <ele>202</ele>
        <time>2013-05-06T08:13:38Z</time>
      </trkpt>
      <trkpt lat="43.3984" lon="-0.51779">
        <ele>204</ele>
        <time>2013-05-06T08:13:39Z</time>
      </trkpt>
      <trkpt lat="43.3984" lon="-0.51781">
        <ele>204</ele>
        <time>2013-05-06T08:13:40Z</time>
      </trkpt>
      <trkpt lat="43.3984" lon="-0.51783">
        <ele>203</ele>
        <time>2013-05-06T08:13:41Z</time>
      </trkpt>
      <trkpt lat="43.39841" lon="-0.51786">
        <ele>203</ele>
        <time>2013-05-06T08:13:42Z</time>
      </trkpt>
      <trkpt lat="43.39842" lon="-0.51789">
        <ele>203</ele>
        <time>2013-05-06T08:13:43Z</time>
      </trkpt>
      <trkpt lat="43.39843" lon="-0.51793">
        <ele>203</ele>
        <time>2013-05-06T08:13:44Z</time>
      </trkpt>
      <trkpt lat="43.39844" lon="-0.51797">
        <ele>203</ele>
        <time>2013-05-06T08:13:45Z</time>
      </trkpt>
      <trkpt lat="43.39845" lon="-0.51801">
        <ele>203</ele>
        <time>2013-05-06T08:13:46Z</time>
      </trkpt>
      <trkpt lat="43.39846" lon="-0.51805">
        <ele>203</ele>
        <time>2013-05-06T08:13:47Z</time>
      </trkpt>
      <trkpt lat="43.39848" lon="-0.51809">
        <ele>202</ele>
        <time>2013-05-06T08:13:48Z</time>
      </trkpt>
      <trkpt lat="43.39849" lon="-0.51813">
        <ele>201</ele>
        <time>2013-05-06T08:13:49Z</time>
      </trkpt>
      <trkpt lat="43.39851" lon="-0.51816">
        <ele>202</ele>
        <time>2013-05-06T08:13:50Z</time>
      </trkpt>
      <trkpt lat="43.39852" lon="-0.51819">
        <ele>202</ele>
        <time>2013-05-06T08:13:51Z</time>
      </trkpt>
      <trkpt lat="43.39853" lon="-0.51822">
        <ele>201</ele>
        <time>2013-05-06T08:13:52Z</time>
      </trkpt>
      <trkpt lat="43.39854" lon="-0.51824">
        <ele>200</ele>
        <time>2013-05-06T08:13:53Z</time>
      </trkpt>
      <trkpt lat="43.39855" lon="-0.51826">
        <ele>200</ele>
        <time>2013-05-06T08:13:54Z</time>
      </trkpt>
      <trkpt lat="43.39856" lon="-0.51829">
        <ele>200</ele>
        <time>2013-05-06T08:13:55Z</time>
      </trkpt>
      <trkpt lat="43.39857" lon="-0.51832">
        <ele>201</ele>
        <time>2013-05-06T08:13:56Z</time>
      </trkpt>
      <trkpt lat="43.39859" lon="-0.51835">
        <ele>200</ele>
        <time>2013-05-06T08:13:57Z</time>
      </trkpt>
      <trkpt lat="43.39861" lon="-0.51838">
        <ele>200</ele>
        <time>2013-05-06T08:13:58Z</time>
      </trkpt>
      <trkpt lat="43.39862" lon="-0.5184">
        <ele>199</ele>
        <time>2013-05-06T08:13:59Z</time>
      </trkpt>
      <trkpt lat="43.39864" lon="-0.51843">
        <ele>199</ele>
        <time>2013-05-06T08:14:00Z</time>
      </trkpt>
      <trkpt lat="43.39867" lon="-0.51847">
        <ele>199</ele>
        <time>2013-05-06T08:14:01Z</time>
      </trkpt>
      <trkpt lat="43.39869" lon="-0.51849">
        <ele>198</ele>
        <time>2013-05-06T08:14:02Z</time>
      </trkpt>
      <trkpt lat="43.39871" lon="-0.51852">
        <ele>198</ele>
        <time>2013-05-06T08:14:03Z</time>
      </trkpt>
      <trkpt lat="43.39872" lon="-0.51855">
        <ele>198</ele>
        <time>2013-05-06T08:14:04Z</time>
      </trkpt>
      <trkpt lat="43.39874" lon="-0.51858">
        <ele>198</ele>
        <time>2013-05-06T08:14:05Z</time>
      </trkpt>
      <trkpt lat="43.39875" lon="-0.51861">
        <ele>198</ele>
        <time>2013-05-06T08:14:06Z</time>
      </trkpt>
      <trkpt lat="43.39877" lon="-0.51864">
        <ele>199</ele>
        <time>2013-05-06T08:14:07Z</time>
      </trkpt>
      <trkpt lat="43.39879" lon="-0.51866">
        <ele>198</ele>
        <time>2013-05-06T08:14:08Z</time>
      </trkpt>
      <trkpt lat="43.39882" lon="-0.51869">
        <ele>198</ele>
        <time>2013-05-06T08:14:09Z</time>
      </trkpt>
      <trkpt lat="43.39884" lon="-0.51872">
        <ele>198</ele>
        <time>2013-05-06T08:14:10Z</time>
      </trkpt>
      <trkpt lat="43.39887" lon="-0.51874">
        <ele>198</ele>
        <time>2013-05-06T08:14:11Z</time>
      </trkpt>
      <trkpt lat="43.3989" lon="-0.51877">
        <ele>197</ele>
        <time>2013-05-06T08:14:12Z</time>
      </trkpt>
      <trkpt lat="43.39892" lon="-0.51879">
        <ele>197</ele>
        <time>2013-05-06T08:14:13Z</time>
      </trkpt>
      <trkpt lat="43.39894" lon="-0.5188">
        <ele>197</ele>
        <time>2013-05-06T08:14:14Z</time>
      </trkpt>
      <trkpt lat="43.39896" lon="-0.51882">
        <ele>197</ele>
        <time>2013-05-06T08:14:15Z</time>
      </trkpt>
      <trkpt lat="43.39898" lon="-0.51883">
        <ele>196</ele>
        <time>2013-05-06T08:14:16Z</time>
      </trkpt>
      <trkpt lat="43.39901" lon="-0.51885">
        <ele>196</ele>
        <time>2013-05-06T08:14:17Z</time>
      </trkpt>
      <trkpt lat="43.39903" lon="-0.51886">
        <ele>196</ele>
        <time>2013-05-06T08:14:18Z</time>
      </trkpt>
      <trkpt lat="43.39905" lon="-0.51888">
        <ele>196</ele>
        <time>2013-05-06T08:14:19Z</time>
      </trkpt>
      <trkpt lat="43.39908" lon="-0.5189">
        <ele>196</ele>
        <time>2013-05-06T08:14:20Z</time>
      </trkpt>
      <trkpt lat="43.3991" lon="-0.51893">
        <ele>196</ele>
        <time>2013-05-06T08:14:21Z</time>
      </trkpt>
      <trkpt lat="43.39912" lon="-0.51895">
        <ele>195</ele>
        <time>2013-05-06T08:14:22Z</time>
      </trkpt>
      <trkpt lat="43.39914" lon="-0.51898">
        <ele>195</ele>
        <time>2013-05-06T08:14:23Z</time>
      </trkpt>
      <trkpt lat="43.39917" lon="-0.51901">
        <ele>195</ele>
        <time>2013-05-06T08:14:24Z</time>
      </trkpt>
      <trkpt lat="43.39919" lon="-0.51903">
        <ele>196</ele>
        <time>2013-05-06T08:14:25Z</time>
      </trkpt>
      <trkpt lat="43.39922" lon="-0.51905">
        <ele>195</ele>
        <time>2013-05-06T08:14:26Z</time>
      </trkpt>
      <trkpt lat="43.39925" lon="-0.51908">
        <ele>194</ele>
        <time>2013-05-06T08:14:27Z</time>
      </trkpt>
      <trkpt lat="43.39928" lon="-0.51909">
        <ele>195</ele>
        <time>2013-05-06T08:14:28Z</time>
      </trkpt>
      <trkpt lat="43.3993" lon="-0.5191">
        <ele>194</ele>
        <time>2013-05-06T08:14:29Z</time>
      </trkpt>
      <trkpt lat="43.39932" lon="-0.5191">
        <ele>195</ele>
        <time>2013-05-06T08:14:30Z</time>
      </trkpt>
      <trkpt lat="43.39932" lon="-0.5191">
        <ele>197</ele>
        <time>2013-05-06T08:14:31Z</time>
      </trkpt>
      <trkpt lat="43.39932" lon="-0.51909">
        <ele>197</ele>
        <time>2013-05-06T08:14:32Z</time>
      </trkpt>
      <trkpt lat="43.39932" lon="-0.51909">
        <ele>198</ele>
        <time>2013-05-06T08:14:33Z</time>
      </trkpt>
      <trkpt lat="43.39932" lon="-0.51909">
        <ele>197</ele>
        <time>2013-05-06T08:14:34Z</time>
      </trkpt>
      <trkpt lat="43.39932" lon="-0.5191">
        <ele>198</ele>
        <time>2013-05-06T08:14:35Z</time>
      </trkpt>
      <trkpt lat="43.39932" lon="-0.51911">
        <ele>197</ele>
        <time>2013-05-06T08:14:36Z</time>
      </trkpt>
      <trkpt lat="43.39932" lon="-0.51913">
        <ele>196</ele>
        <time>2013-05-06T08:14:37Z</time>
      </trkpt>
      <trkpt lat="43.39932" lon="-0.51916">
        <ele>197</ele>
        <time>2013-05-06T08:14:38Z</time>
      </trkpt>
      <trkpt lat="43.39932" lon="-0.51919">
        <ele>197</ele>
        <time>2013-05-06T08:14:39Z</time>
      </trkpt>
      <trkpt lat="43.39931" lon="-0.5192">
        <ele>197</ele>
        <time>2013-05-06T08:14:40Z</time>
      </trkpt>
      <trkpt lat="43.39932" lon="-0.51922">
        <ele>198</ele>
        <time>2013-05-06T08:14:41Z</time>
      </trkpt>
      <trkpt lat="43.39932" lon="-0.51924">
        <ele>198</ele>
        <time>2013-05-06T08:14:42Z</time>
      </trkpt>
      <trkpt lat="43.39932" lon="-0.51926">
        <ele>197</ele>
        <time>2013-05-06T08:14:43Z</time>
      </trkpt>
      <trkpt lat="43.39933" lon="-0.51929">
        <ele>197</ele>
        <time>2013-05-06T08:14:44Z</time>
      </trkpt>
      <trkpt lat="43.39933" lon="-0.51931">
        <ele>195</ele>
        <time>2013-05-06T08:14:45Z</time>
      </trkpt>
      <trkpt lat="43.39934" lon="-0.51932">
        <ele>195</ele>
        <time>2013-05-06T08:14:46Z</time>
      </trkpt>
      <trkpt lat="43.39935" lon="-0.51933">
        <ele>196</ele>
        <time>2013-05-06T08:14:47Z</time>
      </trkpt>
      <trkpt lat="43.39935" lon="-0.51934">
        <ele>197</ele>
        <time>2013-05-06T08:14:48Z</time>
      </trkpt>
      <trkpt lat="43.39936" lon="-0.51935">
        <ele>198</ele>
        <time>2013-05-06T08:14:49Z</time>
      </trkpt>
      <trkpt lat="43.39936" lon="-0.51936">
        <ele>199</ele>
        <time>2013-05-06T08:14:50Z</time>
      </trkpt>
      <trkpt lat="43.39936" lon="-0.51937">
        <ele>198</ele>
        <time>2013-05-06T08:14:51Z</time>
      </trkpt>
      <trkpt lat="43.39937" lon="-0.51938">
        <ele>199</ele>
        <time>2013-05-06T08:14:52Z</time>
      </trkpt>
      <trkpt lat="43.39938" lon="-0.51939">
        <ele>199</ele>
        <time>2013-05-06T08:14:53Z</time>
      </trkpt>
      <trkpt lat="43.39939" lon="-0.51939">
        <ele>199</ele>
        <time>2013-05-06T08:14:54Z</time>
      </trkpt>
      <trkpt lat="43.3994" lon="-0.51938">
        <ele>199</ele>
        <time>2013-05-06T08:14:55Z</time>
      </trkpt>
      <trkpt lat="43.39941" lon="-0.51938">
        <ele>200</ele>
        <time>2013-05-06T08:14:56Z</time>
      </trkpt>
      <trkpt lat="43.39943" lon="-0.51937">
        <ele>199</ele>
        <time>2013-05-06T08:14:57Z</time>
      </trkpt>
      <trkpt lat="43.39944" lon="-0.51935">
        <ele>199</ele>
        <time>2013-05-06T08:14:58Z</time>
      </trkpt>
      <trkpt lat="43.39946" lon="-0.51934">
        <ele>198</ele>
        <time>2013-05-06T08:14:59Z</time>
      </trkpt>
      <trkpt lat="43.39947" lon="-0.51933">
        <ele>197</ele>
        <time>2013-05-06T08:15:00Z</time>
      </trkpt>
      <trkpt lat="43.39949" lon="-0.51932">
        <ele>198</ele>
        <time>2013-05-06T08:15:01Z</time>
      </trkpt>
      <trkpt lat="43.39951" lon="-0.51933">
        <ele>197</ele>
        <time>2013-05-06T08:15:02Z</time>
      </trkpt>
      <trkpt lat="43.39955" lon="-0.51934">
        <ele>197</ele>
        <time>2013-05-06T08:15:03Z</time>
      </trkpt>
      <trkpt lat="43.39957" lon="-0.51934">
        <ele>196</ele>
        <time>2013-05-06T08:15:04Z</time>
      </trkpt>
      <trkpt lat="43.39959" lon="-0.51935">
        <ele>196</ele>
        <time>2013-05-06T08:15:05Z</time>
      </trkpt>
      <trkpt lat="43.39961" lon="-0.51937">
        <ele>196</ele>
        <time>2013-05-06T08:15:06Z</time>
      </trkpt>
      <trkpt lat="43.39962" lon="-0.51938">
        <ele>196</ele>
        <time>2013-05-06T08:15:07Z</time>
      </trkpt>
      <trkpt lat="43.39964" lon="-0.5194">
        <ele>197</ele>
        <time>2013-05-06T08:15:08Z</time>
      </trkpt>
      <trkpt lat="43.39965" lon="-0.51941">
        <ele>197</ele>
        <time>2013-05-06T08:15:09Z</time>
      </trkpt>
      <trkpt lat="43.39966" lon="-0.51943">
        <ele>197</ele>
        <time>2013-05-06T08:15:10Z</time>
      </trkpt>
      <trkpt lat="43.39967" lon="-0.51944">
        <ele>197</ele>
        <time>2013-05-06T08:15:11Z</time>
      </trkpt>
      <trkpt lat="43.39969" lon="-0.51946">
        <ele>197</ele>
        <time>2013-05-06T08:15:12Z</time>
      </trkpt>
      <trkpt lat="43.3997" lon="-0.51947">
        <ele>197</ele>
        <time>2013-05-06T08:15:13Z</time>
      </trkpt>
      <trkpt lat="43.39971" lon="-0.51949">
        <ele>196</ele>
        <time>2013-05-06T08:15:14Z</time>
      </trkpt>
      <trkpt lat="43.39973" lon="-0.51951">
        <ele>197</ele>
        <time>2013-05-06T08:15:15Z</time>
      </trkpt>
      <trkpt lat="43.39973" lon="-0.51954">
        <ele>196</ele>
        <time>2013-05-06T08:15:16Z</time>
      </trkpt>
      <trkpt lat="43.39975" lon="-0.51957">
        <ele>196</ele>
        <time>2013-05-06T08:15:17Z</time>
      </trkpt>
      <trkpt lat="43.39976" lon="-0.5196">
        <ele>196</ele>
        <time>2013-05-06T08:15:18Z</time>
      </trkpt>
      <trkpt lat="43.39978" lon="-0.51963">
        <ele>196</ele>
        <time>2013-05-06T08:15:19Z</time>
      </trkpt>
      <trkpt lat="43.3998" lon="-0.51966">
        <ele>196</ele>
        <time>2013-05-06T08:15:20Z</time>
      </trkpt>
      <trkpt lat="43.39982" lon="-0.5197">
        <ele>196</ele>
        <time>2013-05-06T08:15:21Z</time>
      </trkpt>
      <trkpt lat="43.39985" lon="-0.51974">
        <ele>195</ele>
        <time>2013-05-06T08:15:22Z</time>
      </trkpt>
      <trkpt lat="43.39988" lon="-0.51977">
        <ele>194</ele>
        <time>2013-05-06T08:15:23Z</time>
      </trkpt>
      <trkpt lat="43.39991" lon="-0.51981">
        <ele>194</ele>
        <time>2013-05-06T08:15:24Z</time>
      </trkpt>
      <trkpt lat="43.39994" lon="-0.51983">
        <ele>195</ele>
        <time>2013-05-06T08:15:25Z</time>
      </trkpt>
      <trkpt lat="43.39997" lon="-0.51985">
        <ele>194</ele>
        <time>2013-05-06T08:15:26Z</time>
      </trkpt>
      <trkpt lat="43.39999" lon="-0.51987">
        <ele>194</ele>
        <time>2013-05-06T08:15:27Z</time>
      </trkpt>
      <trkpt lat="43.40001" lon="-0.51989">
        <ele>193</ele>
        <time>2013-05-06T08:15:28Z</time>
      </trkpt>
      <trkpt lat="43.40004" lon="-0.51993">
        <ele>194</ele>
        <time>2013-05-06T08:15:29Z</time>
      </trkpt>
      <trkpt lat="43.40005" lon="-0.51996">
        <ele>193</ele>
        <time>2013-05-06T08:15:30Z</time>
      </trkpt>
      <trkpt lat="43.40007" lon="-0.51999">
        <ele>193</ele>
        <time>2013-05-06T08:15:31Z</time>
      </trkpt>
      <trkpt lat="43.40009" lon="-0.52002">
        <ele>193</ele>
        <time>2013-05-06T08:15:32Z</time>
      </trkpt>
      <trkpt lat="43.4001" lon="-0.52005">
        <ele>192</ele>
        <time>2013-05-06T08:15:33Z</time>
      </trkpt>
      <trkpt lat="43.40012" lon="-0.52009">
        <ele>191</ele>
        <time>2013-05-06T08:15:34Z</time>
      </trkpt>
      <trkpt lat="43.40014" lon="-0.52012">
        <ele>191</ele>
        <time>2013-05-06T08:15:35Z</time>
      </trkpt>
      <trkpt lat="43.40016" lon="-0.52016">
        <ele>191</ele>
        <time>2013-05-06T08:15:36Z</time>
      </trkpt>
      <trkpt lat="43.40019" lon="-0.52019">
        <ele>191</ele>
        <time>2013-05-06T08:15:37Z</time>
      </trkpt>
      <trkpt lat="43.40022" lon="-0.52023">
        <ele>191</ele>
        <time>2013-05-06T08:15:38Z</time>
      </trkpt>
      <trkpt lat="43.40024" lon="-0.52026">
        <ele>191</ele>
        <time>2013-05-06T08:15:39Z</time>
      </trkpt>
      <trkpt lat="43.40027" lon="-0.5203">
        <ele>191</ele>
        <time>2013-05-06T08:15:40Z</time>
      </trkpt>
      <trkpt lat="43.40029" lon="-0.52032">
        <ele>191</ele>
        <time>2013-05-06T08:15:41Z</time>
      </trkpt>
      <trkpt lat="43.40031" lon="-0.52034">
        <ele>191</ele>
        <time>2013-05-06T08:15:42Z</time>
      </trkpt>
      <trkpt lat="43.40033" lon="-0.52037">
        <ele>191</ele>
        <time>2013-05-06T08:15:43Z</time>
      </trkpt>
      <trkpt lat="43.40033" lon="-0.52039">
        <ele>191</ele>
        <time>2013-05-06T08:15:44Z</time>
      </trkpt>
      <trkpt lat="43.40033" lon="-0.52041">
        <ele>192</ele>
        <time>2013-05-06T08:15:45Z</time>
      </trkpt>
      <trkpt lat="43.40033" lon="-0.52043">
        <ele>191</ele>
        <time>2013-05-06T08:15:46Z</time>
      </trkpt>
      <trkpt lat="43.40031" lon="-0.52045">
        <ele>191</ele>
        <time>2013-05-06T08:15:47Z</time>
      </trkpt>
      <trkpt lat="43.40029" lon="-0.52046">
        <ele>192</ele>
        <time>2013-05-06T08:15:48Z</time>
      </trkpt>
      <trkpt lat="43.40027" lon="-0.52046">
        <ele>193</ele>
        <time>2013-05-06T08:15:49Z</time>
      </trkpt>
      <trkpt lat="43.40023" lon="-0.52045">
        <ele>193</ele>
        <time>2013-05-06T08:15:50Z</time>
      </trkpt>
      <trkpt lat="43.4002" lon="-0.52044">
        <ele>194</ele>
        <time>2013-05-06T08:15:51Z</time>
      </trkpt>
      <trkpt lat="43.40018" lon="-0.52043">
        <ele>194</ele>
        <time>2013-05-06T08:15:52Z</time>
      </trkpt>
      <trkpt lat="43.40015" lon="-0.52041">
        <ele>193</ele>
        <time>2013-05-06T08:15:53Z</time>
      </trkpt>
      <trkpt lat="43.40012" lon="-0.52041">
        <ele>194</ele>
        <time>2013-05-06T08:15:54Z</time>
      </trkpt>
      <trkpt lat="43.4001" lon="-0.5204">
        <ele>194</ele>
        <time>2013-05-06T08:15:55Z</time>
      </trkpt>
      <trkpt lat="43.40007" lon="-0.52039">
        <ele>195</ele>
        <time>2013-05-06T08:15:56Z</time>
      </trkpt>
      <trkpt lat="43.40005" lon="-0.52038">
        <ele>196</ele>
        <time>2013-05-06T08:15:57Z</time>
      </trkpt>
      <trkpt lat="43.40004" lon="-0.52037">
        <ele>197</ele>
        <time>2013-05-06T08:15:58Z</time>
      </trkpt>
      <trkpt lat="43.40002" lon="-0.52037">
        <ele>198</ele>
        <time>2013-05-06T08:15:59Z</time>
      </trkpt>
      <trkpt lat="43.40001" lon="-0.52036">
        <ele>198</ele>
        <time>2013-05-06T08:16:00Z</time>
      </trkpt>
      <trkpt lat="43.39998" lon="-0.52036">
        <ele>197</ele>
        <time>2013-05-06T08:16:01Z</time>
      </trkpt>
      <trkpt lat="43.39996" lon="-0.52036">
        <ele>197</ele>
        <time>2013-05-06T08:16:02Z</time>
      </trkpt>
      <trkpt lat="43.39993" lon="-0.52036">
        <ele>198</ele>
        <time>2013-05-06T08:16:03Z</time>
      </trkpt>
      <trkpt lat="43.39991" lon="-0.52036">
        <ele>199</ele>
        <time>2013-05-06T08:16:04Z</time>
      </trkpt>
      <trkpt lat="43.39988" lon="-0.52038">
        <ele>199</ele>
        <time>2013-05-06T08:16:05Z</time>
      </trkpt>
      <trkpt lat="43.39985" lon="-0.52038">
        <ele>199</ele>
        <time>2013-05-06T08:16:06Z</time>
      </trkpt>
      <trkpt lat="43.39983" lon="-0.52038">
        <ele>199</ele>
        <time>2013-05-06T08:16:07Z</time>
      </trkpt>
      <trkpt lat="43.39981" lon="-0.52037">
        <ele>199</ele>
        <time>2013-05-06T08:16:08Z</time>
      </trkpt>
      <trkpt lat="43.3998" lon="-0.52036">
        <ele>199</ele>
        <time>2013-05-06T08:16:09Z</time>
      </trkpt>
      <trkpt lat="43.39979" lon="-0.52035">
        <ele>199</ele>
        <time>2013-05-06T08:16:10Z</time>
      </trkpt>
      <trkpt lat="43.39978" lon="-0.52034">
        <ele>199</ele>
        <time>2013-05-06T08:16:11Z</time>
      </trkpt>
      <trkpt lat="43.39978" lon="-0.52034">
        <ele>199</ele>
        <time>2013-05-06T08:16:12Z</time>
      </trkpt>
      <trkpt lat="43.39977" lon="-0.52033">
        <ele>199</ele>
        <time>2013-05-06T08:16:13Z</time>
      </trkpt>
      <trkpt lat="43.39976" lon="-0.52033">
        <ele>199</ele>
        <time>2013-05-06T08:16:14Z</time>
      </trkpt>
      <trkpt lat="43.39975" lon="-0.52031">
        <ele>199</ele>
        <time>2013-05-06T08:16:15Z</time>
      </trkpt>
      <trkpt lat="43.39974" lon="-0.5203">
        <ele>199</ele>
        <time>2013-05-06T08:16:16Z</time>
      </trkpt>
      <trkpt lat="43.39972" lon="-0.52028">
        <ele>199</ele>
        <time>2013-05-06T08:16:17Z</time>
      </trkpt>
      <trkpt lat="43.3997" lon="-0.52026">
        <ele>199</ele>
        <time>2013-05-06T08:16:18Z</time>
      </trkpt>
      <trkpt lat="43.39968" lon="-0.52024">
        <ele>199</ele>
        <time>2013-05-06T08:16:19Z</time>
      </trkpt>
      <trkpt lat="43.39966" lon="-0.52023">
        <ele>199</ele>
        <time>2013-05-06T08:16:20Z</time>
      </trkpt>
      <trkpt lat="43.39964" lon="-0.52021">
        <ele>199</ele>
        <time>2013-05-06T08:16:21Z</time>
      </trkpt>
      <trkpt lat="43.39962" lon="-0.52019">
        <ele>200</ele>
        <time>2013-05-06T08:16:22Z</time>
      </trkpt>
      <trkpt lat="43.3996" lon="-0.52018">
        <ele>200</ele>
        <time>2013-05-06T08:16:23Z</time>
      </trkpt>
      <trkpt lat="43.39959" lon="-0.52017">
        <ele>201</ele>
        <time>2013-05-06T08:16:24Z</time>
      </trkpt>
      <trkpt lat="43.39957" lon="-0.52016">
        <ele>200</ele>
        <time>2013-05-06T08:16:25Z</time>
      </trkpt>
      <trkpt lat="43.39955" lon="-0.52015">
        <ele>200</ele>
        <time>2013-05-06T08:16:26Z</time>
      </trkpt>
      <trkpt lat="43.39953" lon="-0.52014">
        <ele>199</ele>
        <time>2013-05-06T08:16:27Z</time>
      </trkpt>
      <trkpt lat="43.39951" lon="-0.52012">
        <ele>200</ele>
        <time>2013-05-06T08:16:28Z</time>
      </trkpt>
      <trkpt lat="43.39949" lon="-0.52011">
        <ele>200</ele>
        <time>2013-05-06T08:16:29Z</time>
      </trkpt>
      <trkpt lat="43.39946" lon="-0.52011">
        <ele>200</ele>
        <time>2013-05-06T08:16:30Z</time>
      </trkpt>
      <trkpt lat="43.39944" lon="-0.5201">
        <ele>200</ele>
        <time>2013-05-06T08:16:31Z</time>
      </trkpt>
      <trkpt lat="43.39942" lon="-0.5201">
        <ele>201</ele>
        <time>2013-05-06T08:16:32Z</time>
      </trkpt>
      <trkpt lat="43.39941" lon="-0.5201">
        <ele>201</ele>
        <time>2013-05-06T08:16:33Z</time>
      </trkpt>
      <trkpt lat="43.39939" lon="-0.5201">
        <ele>202</ele>
        <time>2013-05-06T08:16:34Z</time>
      </trkpt>
      <trkpt lat="43.39938" lon="-0.5201">
        <ele>203</ele>
        <time>2013-05-06T08:16:35Z</time>
      </trkpt>
      <trkpt lat="43.39936" lon="-0.5201">
        <ele>203</ele>
        <time>2013-05-06T08:16:36Z</time>
      </trkpt>
      <trkpt lat="43.39936" lon="-0.5201">
        <ele>204</ele>
        <time>2013-05-06T08:16:37Z</time>
      </trkpt>
      <trkpt lat="43.39934" lon="-0.5201">
        <ele>203</ele>
        <time>2013-05-06T08:16:38Z</time>
      </trkpt>
      <trkpt lat="43.39934" lon="-0.52008">
        <ele>201</ele>
        <time>2013-05-06T08:16:39Z</time>
      </trkpt>
      <trkpt lat="43.39933" lon="-0.52007">
        <ele>200</ele>
        <time>2013-05-06T08:16:40Z</time>
      </trkpt>
      <trkpt lat="43.39933" lon="-0.52005">
        <ele>200</ele>
        <time>2013-05-06T08:16:41Z</time>
      </trkpt>
      <trkpt lat="43.39933" lon="-0.52004">
        <ele>201</ele>
        <time>2013-05-06T08:16:42Z</time>
      </trkpt>
      <trkpt lat="43.39934" lon="-0.52003">
        <ele>201</ele>
        <time>2013-05-06T08:16:43Z</time>
      </trkpt>
      <trkpt lat="43.39935" lon="-0.52003">
        <ele>200</ele>
        <time>2013-05-06T08:16:44Z</time>
      </trkpt>
      <trkpt lat="43.39935" lon="-0.52004">
        <ele>200</ele>
        <time>2013-05-06T08:16:45Z</time>
      </trkpt>
      <trkpt lat="43.39936" lon="-0.52004">
        <ele>202</ele>
        <time>2013-05-06T08:16:46Z</time>
      </trkpt>
      <trkpt lat="43.39937" lon="-0.52005">
        <ele>203</ele>
        <time>2013-05-06T08:16:47Z</time>
      </trkpt>
      <trkpt lat="43.39938" lon="-0.52006">
        <ele>203</ele>
        <time>2013-05-06T08:16:48Z</time>
      </trkpt>
      <trkpt lat="43.3994" lon="-0.52008">
        <ele>204</ele>
        <time>2013-05-06T08:16:49Z</time>
      </trkpt>
      <trkpt lat="43.39941" lon="-0.52009">
        <ele>204</ele>
        <time>2013-05-06T08:16:50Z</time>
      </trkpt>
      <trkpt lat="43.39943" lon="-0.5201">
        <ele>204</ele>
        <time>2013-05-06T08:16:51Z</time>
      </trkpt>
      <trkpt lat="43.39944" lon="-0.52011">
        <ele>205</ele>
        <time>2013-05-06T08:16:52Z</time>
      </trkpt>
      <trkpt lat="43.39945" lon="-0.52013">
        <ele>205</ele>
        <time>2013-05-06T08:16:53Z</time>
      </trkpt>
      <trkpt lat="43.39946" lon="-0.52015">
        <ele>205</ele>
        <time>2013-05-06T08:16:54Z</time>
      </trkpt>
      <trkpt lat="43.39947" lon="-0.52017">
        <ele>205</ele>
        <time>2013-05-06T08:16:55Z</time>
      </trkpt>
      <trkpt lat="43.39948" lon="-0.52019">
        <ele>205</ele>
        <time>2013-05-06T08:16:56Z</time>
      </trkpt>
      <trkpt lat="43.39949" lon="-0.52021">
        <ele>205</ele>
        <time>2013-05-06T08:16:57Z</time>
      </trkpt>
      <trkpt lat="43.3995" lon="-0.52024">
        <ele>205</ele>
        <time>2013-05-06T08:16:58Z</time>
      </trkpt>
      <trkpt lat="43.39951" lon="-0.52025">
        <ele>205</ele>
        <time>2013-05-06T08:16:59Z</time>
      </trkpt>
      <trkpt lat="43.39951" lon="-0.52027">
        <ele>206</ele>
        <time>2013-05-06T08:17:00Z</time>
      </trkpt>
      <trkpt lat="43.39952" lon="-0.52029">
        <ele>204</ele>
        <time>2013-05-06T08:17:01Z</time>
      </trkpt>
      <trkpt lat="43.39952" lon="-0.52031">
        <ele>204</ele>
        <time>2013-05-06T08:17:02Z</time>
      </trkpt>
      <trkpt lat="43.39953" lon="-0.52032">
        <ele>204</ele>
        <time>2013-05-06T08:17:03Z</time>
      </trkpt>
      <trkpt lat="43.39953" lon="-0.52033">
        <ele>204</ele>
        <time>2013-05-06T08:17:04Z</time>
      </trkpt>
      <trkpt lat="43.39953" lon="-0.52034">
        <ele>203</ele>
        <time>2013-05-06T08:17:05Z</time>
      </trkpt>
      <trkpt lat="43.39954" lon="-0.52035">
        <ele>204</ele>
        <time>2013-05-06T08:17:06Z</time>
      </trkpt>
      <trkpt lat="43.39954" lon="-0.52036">
        <ele>204</ele>
        <time>2013-05-06T08:17:07Z</time>
      </trkpt>
      <trkpt lat="43.39955" lon="-0.52037">
        <ele>205</ele>
        <time>2013-05-06T08:17:08Z</time>
      </trkpt>
      <trkpt lat="43.39955" lon="-0.5204">
        <ele>205</ele>
        <time>2013-05-06T08:17:09Z</time>
      </trkpt>
      <trkpt lat="43.39956" lon="-0.52042">
        <ele>205</ele>
        <time>2013-05-06T08:17:10Z</time>
      </trkpt>
      <trkpt lat="43.39956" lon="-0.52044">
        <ele>206</ele>
        <time>2013-05-06T08:17:11Z</time>
      </trkpt>
      <trkpt lat="43.39957" lon="-0.52047">
        <ele>206</ele>
        <time>2013-05-06T08:17:12Z</time>
      </trkpt>
      <trkpt lat="43.39957" lon="-0.52049">
        <ele>206</ele>
        <time>2013-05-06T08:17:13Z</time>
      </trkpt>
      <trkpt lat="43.39957" lon="-0.52051">
        <ele>207</ele>
        <time>2013-05-06T08:17:14Z</time>
      </trkpt>
      <trkpt lat="43.39958" lon="-0.52053">
        <ele>208</ele>
        <time>2013-05-06T08:17:15Z</time>
      </trkpt>
      <trkpt lat="43.39958" lon="-0.52055">
        <ele>208</ele>
        <time>2013-05-06T08:17:16Z</time>
      </trkpt>
      <trkpt lat="43.39959" lon="-0.52057">
        <ele>209</ele>
        <time>2013-05-06T08:17:17Z</time>
      </trkpt>
      <trkpt lat="43.39959" lon="-0.52059">
        <ele>209</ele>
        <time>2013-05-06T08:17:18Z</time>
      </trkpt>
      <trkpt lat="43.3996" lon="-0.52061">
        <ele>209</ele>
        <time>2013-05-06T08:17:19Z</time>
      </trkpt>
      <trkpt lat="43.39961" lon="-0.52063">
        <ele>209</ele>
        <time>2013-05-06T08:17:20Z</time>
      </trkpt>
      <trkpt lat="43.39962" lon="-0.52065">
        <ele>209</ele>
        <time>2013-05-06T08:17:21Z</time>
      </trkpt>
      <trkpt lat="43.39964" lon="-0.52066">
        <ele>210</ele>
        <time>2013-05-06T08:17:22Z</time>
      </trkpt>
      <trkpt lat="43.39965" lon="-0.52068">
        <ele>211</ele>
        <time>2013-05-06T08:17:23Z</time>
      </trkpt>
      <trkpt lat="43.39967" lon="-0.5207">
        <ele>210</ele>
        <time>2013-05-06T08:17:24Z</time>
      </trkpt>
      <trkpt lat="43.39968" lon="-0.52073">
        <ele>212</ele>
        <time>2013-05-06T08:17:25Z</time>
      </trkpt>
      <trkpt lat="43.39969" lon="-0.52075">
        <ele>212</ele>
        <time>2013-05-06T08:17:26Z</time>
      </trkpt>
      <trkpt lat="43.39969" lon="-0.52076">
        <ele>211</ele>
        <time>2013-05-06T08:17:27Z</time>
      </trkpt>
      <trkpt lat="43.3997" lon="-0.52078">
        <ele>211</ele>
        <time>2013-05-06T08:17:28Z</time>
      </trkpt>
      <trkpt lat="43.3997" lon="-0.5208">
        <ele>211</ele>
        <time>2013-05-06T08:17:29Z</time>
      </trkpt>
      <trkpt lat="43.39971" lon="-0.52082">
        <ele>210</ele>
        <time>2013-05-06T08:17:30Z</time>
      </trkpt>
      <trkpt lat="43.39972" lon="-0.52084">
        <ele>210</ele>
        <time>2013-05-06T08:17:31Z</time>
      </trkpt>
      <trkpt lat="43.39972" lon="-0.52086">
        <ele>210</ele>
        <time>2013-05-06T08:17:32Z</time>
      </trkpt>
      <trkpt lat="43.39972" lon="-0.52088">
        <ele>209</ele>
        <time>2013-05-06T08:17:33Z</time>
      </trkpt>
      <trkpt lat="43.39973" lon="-0.5209">
        <ele>209</ele>
        <time>2013-05-06T08:17:34Z</time>
      </trkpt>
      <trkpt lat="43.39973" lon="-0.52092">
        <ele>210</ele>
        <time>2013-05-06T08:17:35Z</time>
      </trkpt>
      <trkpt lat="43.39974" lon="-0.52094">
        <ele>210</ele>
        <time>2013-05-06T08:17:36Z</time>
      </trkpt>
      <trkpt lat="43.39975" lon="-0.52096">
        <ele>211</ele>
        <time>2013-05-06T08:17:37Z</time>
      </trkpt>
      <trkpt lat="43.39977" lon="-0.52099">
        <ele>212</ele>
        <time>2013-05-06T08:17:38Z</time>
      </trkpt>
      <trkpt lat="43.39978" lon="-0.52102">
        <ele>213</ele>
        <time>2013-05-06T08:17:39Z</time>
      </trkpt>
      <trkpt lat="43.3998" lon="-0.52104">
        <ele>212</ele>
        <time>2013-05-06T08:17:40Z</time>
      </trkpt>
      <trkpt lat="43.39981" lon="-0.52107">
        <ele>213</ele>
        <time>2013-05-06T08:17:41Z</time>
      </trkpt>
      <trkpt lat="43.39982" lon="-0.52109">
        <ele>213</ele>
        <time>2013-05-06T08:17:42Z</time>
      </trkpt>
      <trkpt lat="43.39982" lon="-0.52112">
        <ele>213</ele>
        <time>2013-05-06T08:17:43Z</time>
      </trkpt>
      <trkpt lat="43.39982" lon="-0.52115">
        <ele>213</ele>
        <time>2013-05-06T08:17:44Z</time>
      </trkpt>
      <trkpt lat="43.39982" lon="-0.52119">
        <ele>212</ele>
        <time>2013-05-06T08:17:45Z</time>
      </trkpt>
      <trkpt lat="43.39982" lon="-0.52122">
        <ele>212</ele>
        <time>2013-05-06T08:17:46Z</time>
      </trkpt>
      <trkpt lat="43.39982" lon="-0.52125">
        <ele>210</ele>
        <time>2013-05-06T08:17:47Z</time>
      </trkpt>
      <trkpt lat="43.39982" lon="-0.52127">
        <ele>211</ele>
        <time>2013-05-06T08:17:48Z</time>
      </trkpt>
      <trkpt lat="43.39982" lon="-0.52128">
        <ele>211</ele>
        <time>2013-05-06T08:17:49Z</time>
      </trkpt>
      <trkpt lat="43.39981" lon="-0.52129">
        <ele>211</ele>
        <time>2013-05-06T08:17:50Z</time>
      </trkpt>
      <trkpt lat="43.39981" lon="-0.5213">
        <ele>211</ele>
        <time>2013-05-06T08:17:51Z</time>
      </trkpt>
      <trkpt lat="43.3998" lon="-0.5213">
        <ele>212</ele>
        <time>2013-05-06T08:17:52Z</time>
      </trkpt>
      <trkpt lat="43.39978" lon="-0.52131">
        <ele>212</ele>
        <time>2013-05-06T08:17:53Z</time>
      </trkpt>
      <trkpt lat="43.39975" lon="-0.52131">
        <ele>211</ele>
        <time>2013-05-06T08:17:54Z</time>
      </trkpt>
      <trkpt lat="43.39972" lon="-0.52132">
        <ele>211</ele>
        <time>2013-05-06T08:17:55Z</time>
      </trkpt>
      <trkpt lat="43.39969" lon="-0.52133">
        <ele>212</ele>
        <time>2013-05-06T08:17:56Z</time>
      </trkpt>
      <trkpt lat="43.39965" lon="-0.52134">
        <ele>213</ele>
        <time>2013-05-06T08:17:57Z</time>
      </trkpt>
      <trkpt lat="43.39962" lon="-0.52136">
        <ele>213</ele>
        <time>2013-05-06T08:17:58Z</time>
      </trkpt>
      <trkpt lat="43.39961" lon="-0.52137">
        <ele>214</ele>
        <time>2013-05-06T08:17:59Z</time>
      </trkpt>
      <trkpt lat="43.39959" lon="-0.52139">
        <ele>214</ele>
        <time>2013-05-06T08:18:00Z</time>
      </trkpt>
      <trkpt lat="43.39957" lon="-0.5214">
        <ele>215</ele>
        <time>2013-05-06T08:18:01Z</time>
      </trkpt>
      <trkpt lat="43.39955" lon="-0.5214">
        <ele>215</ele>
        <time>2013-05-06T08:18:02Z</time>
      </trkpt>
      <trkpt lat="43.39952" lon="-0.5214">
        <ele>217</ele>
        <time>2013-05-06T08:18:03Z</time>
      </trkpt>
      <trkpt lat="43.39949" lon="-0.5214">
        <ele>218</ele>
        <time>2013-05-06T08:18:04Z</time>
      </trkpt>
      <trkpt lat="43.39947" lon="-0.5214">
        <ele>218</ele>
        <time>2013-05-06T08:18:05Z</time>
      </trkpt>
      <trkpt lat="43.39945" lon="-0.52139">
        <ele>220</ele>
        <time>2013-05-06T08:18:06Z</time>
      </trkpt>
      <trkpt lat="43.39943" lon="-0.52139">
        <ele>220</ele>
        <time>2013-05-06T08:18:07Z</time>
      </trkpt>
      <trkpt lat="43.39942" lon="-0.52139">
        <ele>221</ele>
        <time>2013-05-06T08:18:08Z</time>
      </trkpt>
      <trkpt lat="43.39941" lon="-0.5214">
        <ele>222</ele>
        <time>2013-05-06T08:18:09Z</time>
      </trkpt>
      <trkpt lat="43.3994" lon="-0.52141">
        <ele>222</ele>
        <time>2013-05-06T08:18:10Z</time>
      </trkpt>
      <trkpt lat="43.3994" lon="-0.52141">
        <ele>223</ele>
        <time>2013-05-06T08:18:11Z</time>
      </trkpt>
      <trkpt lat="43.39939" lon="-0.5214">
        <ele>223</ele>
        <time>2013-05-06T08:18:12Z</time>
      </trkpt>
      <trkpt lat="43.39938" lon="-0.52139">
        <ele>223</ele>
        <time>2013-05-06T08:18:13Z</time>
      </trkpt>
      <trkpt lat="43.39937" lon="-0.52138">
        <ele>224</ele>
        <time>2013-05-06T08:18:14Z</time>
      </trkpt>
      <trkpt lat="43.39936" lon="-0.52137">
        <ele>225</ele>
        <time>2013-05-06T08:18:15Z</time>
      </trkpt>
      <trkpt lat="43.39936" lon="-0.52136">
        <ele>226</ele>
        <time>2013-05-06T08:18:16Z</time>
      </trkpt>
      <trkpt lat="43.39935" lon="-0.52135">
        <ele>226</ele>
        <time>2013-05-06T08:18:17Z</time>
      </trkpt>
      <trkpt lat="43.39934" lon="-0.52134">
        <ele>226</ele>
        <time>2013-05-06T08:18:18Z</time>
      </trkpt>
      <trkpt lat="43.39934" lon="-0.52133">
        <ele>226</ele>
        <time>2013-05-06T08:18:19Z</time>
      </trkpt>
      <trkpt lat="43.39934" lon="-0.52132">
        <ele>226</ele>
        <time>2013-05-06T08:18:20Z</time>
      </trkpt>
      <trkpt lat="43.39935" lon="-0.52132">
        <ele>226</ele>
        <time>2013-05-06T08:18:21Z</time>
      </trkpt>
      <trkpt lat="43.39935" lon="-0.52132">
        <ele>226</ele>
        <time>2013-05-06T08:18:22Z</time>
      </trkpt>
      <trkpt lat="43.39935" lon="-0.52131">
        <ele>226</ele>
        <time>2013-05-06T08:18:23Z</time>
      </trkpt>
      <trkpt lat="43.39934" lon="-0.5213">
        <ele>227</ele>
        <time>2013-05-06T08:18:24Z</time>
      </trkpt>
      <trkpt lat="43.39934" lon="-0.52129">
        <ele>226</ele>
        <time>2013-05-06T08:18:25Z</time>
      </trkpt>
      <trkpt lat="43.39933" lon="-0.52127">
        <ele>225</ele>
        <time>2013-05-06T08:18:26Z</time>
      </trkpt>
      <trkpt lat="43.39932" lon="-0.52124">
        <ele>226</ele>
        <time>2013-05-06T08:18:27Z</time>
      </trkpt>
      <trkpt lat="43.39931" lon="-0.52122">
        <ele>226</ele>
        <time>2013-05-06T08:18:28Z</time>
      </trkpt>
      <trkpt lat="43.39929" lon="-0.5212">
        <ele>225</ele>
        <time>2013-05-06T08:18:29Z</time>
      </trkpt>
      <trkpt lat="43.39928" lon="-0.52117">
        <ele>225</ele>
        <time>2013-05-06T08:18:30Z</time>
      </trkpt>
      <trkpt lat="43.39926" lon="-0.52116">
        <ele>226</ele>
        <time>2013-05-06T08:18:31Z</time>
      </trkpt>
      <trkpt lat="43.39925" lon="-0.52115">
        <ele>226</ele>
        <time>2013-05-06T08:18:32Z</time>
      </trkpt>
      <trkpt lat="43.39922" lon="-0.52114">
        <ele>226</ele>
        <time>2013-05-06T08:18:33Z</time>
      </trkpt>
      <trkpt lat="43.3992" lon="-0.52114">
        <ele>226</ele>
        <time>2013-05-06T08:18:34Z</time>
      </trkpt>
      <trkpt lat="43.39919" lon="-0.52113">
        <ele>226</ele>
        <time>2013-05-06T08:18:35Z</time>
      </trkpt>
      <trkpt lat="43.39917" lon="-0.52112">
        <ele>226</ele>
        <time>2013-05-06T08:18:36Z</time>
      </trkpt>
      <trkpt lat="43.39915" lon="-0.5211">
        <ele>227</ele>
        <time>2013-05-06T08:18:37Z</time>
      </trkpt>
      <trkpt lat="43.39913" lon="-0.52109">
        <ele>227</ele>
        <time>2013-05-06T08:18:38Z</time>
      </trkpt>
      <trkpt lat="43.39911" lon="-0.52109">
        <ele>227</ele>
        <time>2013-05-06T08:18:39Z</time>
      </trkpt>
      <trkpt lat="43.39911" lon="-0.52108">
        <ele>228</ele>
        <time>2013-05-06T08:18:40Z</time>
      </trkpt>
      <trkpt lat="43.3991" lon="-0.52107">
        <ele>228</ele>
        <time>2013-05-06T08:18:41Z</time>
      </trkpt>
      <trkpt lat="43.39909" lon="-0.52107">
        <ele>229</ele>
        <time>2013-05-06T08:18:42Z</time>
      </trkpt>
      <trkpt lat="43.39908" lon="-0.52106">
        <ele>230</ele>
        <time>2013-05-06T08:18:43Z</time>
      </trkpt>
      <trkpt lat="43.39907" lon="-0.52104">
        <ele>230</ele>
        <time>2013-05-06T08:18:44Z</time>
      </trkpt>
      <trkpt lat="43.39906" lon="-0.52102">
        <ele>230</ele>
        <time>2013-05-06T08:18:45Z</time>
      </trkpt>
      <trkpt lat="43.39904" lon="-0.52101">
        <ele>230</ele>
        <time>2013-05-06T08:18:46Z</time>
      </trkpt>
      <trkpt lat="43.39903" lon="-0.52099">
        <ele>230</ele>
        <time>2013-05-06T08:18:47Z</time>
      </trkpt>
      <trkpt lat="43.39901" lon="-0.52098">
        <ele>229</ele>
        <time>2013-05-06T08:18:48Z</time>
      </trkpt>
      <trkpt lat="43.399" lon="-0.52098">
        <ele>229</ele>
        <time>2013-05-06T08:18:49Z</time>
      </trkpt>
      <trkpt lat="43.39899" lon="-0.52097">
        <ele>229</ele>
        <time>2013-05-06T08:18:50Z</time>
      </trkpt>
      <trkpt lat="43.39898" lon="-0.52096">
        <ele>230</ele>
        <time>2013-05-06T08:18:51Z</time>
      </trkpt>
      <trkpt lat="43.39896" lon="-0.52095">
        <ele>230</ele>
        <time>2013-05-06T08:18:52Z</time>
      </trkpt>
      <trkpt lat="43.39896" lon="-0.52094">
        <ele>229</ele>
        <time>2013-05-06T08:18:53Z</time>
      </trkpt>
      <trkpt lat="43.39895" lon="-0.52092">
        <ele>230</ele>
        <time>2013-05-06T08:18:54Z</time>
      </trkpt>
      <trkpt lat="43.39893" lon="-0.5209">
        <ele>229</ele>
        <time>2013-05-06T08:18:55Z</time>
      </trkpt>
      <trkpt lat="43.39892" lon="-0.52088">
        <ele>229</ele>
        <time>2013-05-06T08:18:56Z</time>
      </trkpt>
      <trkpt lat="43.3989" lon="-0.52086">
        <ele>228</ele>
        <time>2013-05-06T08:18:57Z</time>
      </trkpt>
      <trkpt lat="43.39888" lon="-0.52084">
        <ele>229</ele>
        <time>2013-05-06T08:18:58Z</time>
      </trkpt>
      <trkpt lat="43.39886" lon="-0.52083">
        <ele>229</ele>
        <time>2013-05-06T08:18:59Z</time>
      </trkpt>
      <trkpt lat="43.39884" lon="-0.52082">
        <ele>229</ele>
        <time>2013-05-06T08:19:00Z</time>
      </trkpt>
      <trkpt lat="43.39882" lon="-0.52081">
        <ele>229</ele>
        <time>2013-05-06T08:19:01Z</time>
      </trkpt>
      <trkpt lat="43.3988" lon="-0.5208">
        <ele>230</ele>
        <time>2013-05-06T08:19:02Z</time>
      </trkpt>
      <trkpt lat="43.39879" lon="-0.5208">
        <ele>230</ele>
        <time>2013-05-06T08:19:03Z</time>
      </trkpt>
      <trkpt lat="43.39877" lon="-0.52079">
        <ele>230</ele>
        <time>2013-05-06T08:19:04Z</time>
      </trkpt>
      <trkpt lat="43.39875" lon="-0.52079">
        <ele>231</ele>
        <time>2013-05-06T08:19:05Z</time>
      </trkpt>
      <trkpt lat="43.39874" lon="-0.52079">
        <ele>230</ele>
        <time>2013-05-06T08:19:06Z</time>
      </trkpt>
      <trkpt lat="43.39872" lon="-0.5208">
        <ele>231</ele>
        <time>2013-05-06T08:19:07Z</time>
      </trkpt>
      <trkpt lat="43.39872" lon="-0.52081">
        <ele>231</ele>
        <time>2013-05-06T08:19:08Z</time>
      </trkpt>
      <trkpt lat="43.39871" lon="-0.52083">
        <ele>231</ele>
        <time>2013-05-06T08:19:09Z</time>
      </trkpt>
      <trkpt lat="43.3987" lon="-0.52084">
        <ele>232</ele>
        <time>2013-05-06T08:19:10Z</time>
      </trkpt>
      <trkpt lat="43.39869" lon="-0.52084">
        <ele>232</ele>
        <time>2013-05-06T08:19:11Z</time>
      </trkpt>
      <trkpt lat="43.39868" lon="-0.52085">
        <ele>231</ele>
        <time>2013-05-06T08:19:12Z</time>
      </trkpt>
      <trkpt lat="43.39868" lon="-0.52086">
        <ele>231</ele>
        <time>2013-05-06T08:19:13Z</time>
      </trkpt>
      <trkpt lat="43.39867" lon="-0.52088">
        <ele>232</ele>
        <time>2013-05-06T08:19:14Z</time>
      </trkpt>
      <trkpt lat="43.39867" lon="-0.52089">
        <ele>233</ele>
        <time>2013-05-06T08:19:15Z</time>
      </trkpt>
      <trkpt lat="43.39866" lon="-0.5209">
        <ele>233</ele>
        <time>2013-05-06T08:19:16Z</time>
      </trkpt>
      <trkpt lat="43.39865" lon="-0.52092">
        <ele>233</ele>
        <time>2013-05-06T08:19:17Z</time>
      </trkpt>
      <trkpt lat="43.39864" lon="-0.52094">
        <ele>233</ele>
        <time>2013-05-06T08:19:18Z</time>
      </trkpt>
      <trkpt lat="43.39863" lon="-0.52096">
        <ele>234</ele>
        <time>2013-05-06T08:19:19Z</time>
      </trkpt>
      <trkpt lat="43.39862" lon="-0.52097">
        <ele>234</ele>
        <time>2013-05-06T08:19:20Z</time>
      </trkpt>
      <trkpt lat="43.39861" lon="-0.52098">
        <ele>235</ele>
        <time>2013-05-06T08:19:21Z</time>
      </trkpt>
      <trkpt lat="43.3986" lon="-0.521">
        <ele>235</ele>
        <time>2013-05-06T08:19:22Z</time>
      </trkpt>
      <trkpt lat="43.39859" lon="-0.52101">
        <ele>235</ele>
        <time>2013-05-06T08:19:23Z</time>
      </trkpt>
      <trkpt lat="43.39858" lon="-0.52102">
        <ele>236</ele>
        <time>2013-05-06T08:19:24Z</time>
      </trkpt>
      <trkpt lat="43.39857" lon="-0.52103">
        <ele>236</ele>
        <time>2013-05-06T08:19:25Z</time>
      </trkpt>
      <trkpt lat="43.39856" lon="-0.52105">
        <ele>237</ele>
        <time>2013-05-06T08:19:26Z</time>
      </trkpt>
      <trkpt lat="43.39854" lon="-0.52106">
        <ele>237</ele>
        <time>2013-05-06T08:19:27Z</time>
      </trkpt>
      <trkpt lat="43.39853" lon="-0.52107">
        <ele>237</ele>
        <time>2013-05-06T08:19:28Z</time>
      </trkpt>
      <trkpt lat="43.39851" lon="-0.52109">
        <ele>237</ele>
        <time>2013-05-06T08:19:29Z</time>
      </trkpt>
      <trkpt lat="43.39851" lon="-0.5211">
        <ele>237</ele>
        <time>2013-05-06T08:19:30Z</time>
      </trkpt>
      <trkpt lat="43.3985" lon="-0.52111">
        <ele>236</ele>
        <time>2013-05-06T08:19:31Z</time>
      </trkpt>
      <trkpt lat="43.3985" lon="-0.52112">
        <ele>237</ele>
        <time>2013-05-06T08:19:32Z</time>
      </trkpt>
      <trkpt lat="43.39849" lon="-0.52113">
        <ele>237</ele>
        <time>2013-05-06T08:19:33Z</time>
      </trkpt>
      <trkpt lat="43.3985" lon="-0.52114">
        <ele>236</ele>
        <time>2013-05-06T08:19:34Z</time>
      </trkpt>
      <trkpt lat="43.3985" lon="-0.52115">
        <ele>237</ele>
        <time>2013-05-06T08:19:35Z</time>
      </trkpt>
      <trkpt lat="43.39851" lon="-0.52116">
        <ele>236</ele>
        <time>2013-05-06T08:19:36Z</time>
      </trkpt>
      <trkpt lat="43.39852" lon="-0.52117">
        <ele>236</ele>
        <time>2013-05-06T08:19:37Z</time>
      </trkpt>
      <trkpt lat="43.39853" lon="-0.52118">
        <ele>237</ele>
        <time>2013-05-06T08:19:38Z</time>
      </trkpt>
      <trkpt lat="43.39854" lon="-0.5212">
        <ele>238</ele>
        <time>2013-05-06T08:19:39Z</time>
      </trkpt>
      <trkpt lat="43.39855" lon="-0.52122">
        <ele>239</ele>
        <time>2013-05-06T08:19:40Z</time>
      </trkpt>
      <trkpt lat="43.39856" lon="-0.52124">
        <ele>239</ele>
        <time>2013-05-06T08:19:41Z</time>
      </trkpt>
      <trkpt lat="43.39857" lon="-0.52126">
        <ele>239</ele>
        <time>2013-05-06T08:19:42Z</time>
      </trkpt>
      <trkpt lat="43.39857" lon="-0.52127">
        <ele>238</ele>
        <time>2013-05-06T08:19:43Z</time>
      </trkpt>
      <trkpt lat="43.39858" lon="-0.52129">
        <ele>238</ele>
        <time>2013-05-06T08:19:44Z</time>
      </trkpt>
      <trkpt lat="43.39859" lon="-0.52131">
        <ele>238</ele>
        <time>2013-05-06T08:19:45Z</time>
      </trkpt>
      <trkpt lat="43.39859" lon="-0.52134">
        <ele>238</ele>
        <time>2013-05-06T08:19:46Z</time>
      </trkpt>
      <trkpt lat="43.3986" lon="-0.52136">
        <ele>239</ele>
        <time>2013-05-06T08:19:47Z</time>
      </trkpt>
      <trkpt lat="43.3986" lon="-0.52139">
        <ele>239</ele>
        <time>2013-05-06T08:19:48Z</time>
      </trkpt>
      <trkpt lat="43.39859" lon="-0.52142">
        <ele>240</ele>
        <time>2013-05-06T08:19:49Z</time>
      </trkpt>
      <trkpt lat="43.39859" lon="-0.52145">
        <ele>239</ele>
        <time>2013-05-06T08:19:50Z</time>
      </trkpt>
      <trkpt lat="43.39859" lon="-0.52149">
        <ele>238</ele>
        <time>2013-05-06T08:19:51Z</time>
      </trkpt>
      <trkpt lat="43.3986" lon="-0.52151">
        <ele>237</ele>
        <time>2013-05-06T08:19:52Z</time>
      </trkpt>
      <trkpt lat="43.39861" lon="-0.52154">
        <ele>237</ele>
        <time>2013-05-06T08:19:53Z</time>
      </trkpt>
      <trkpt lat="43.39861" lon="-0.52157">
        <ele>235</ele>
        <time>2013-05-06T08:19:54Z</time>
      </trkpt>
      <trkpt lat="43.39862" lon="-0.52161">
        <ele>235</ele>
        <time>2013-05-06T08:19:55Z</time>
      </trkpt>
      <trkpt lat="43.39862" lon="-0.52164">
        <ele>234</ele>
        <time>2013-05-06T08:19:56Z</time>
      </trkpt>
      <trkpt lat="43.39863" lon="-0.52167">
        <ele>234</ele>
        <time>2013-05-06T08:19:57Z</time>
      </trkpt>
      <trkpt lat="43.39865" lon="-0.5217">
        <ele>235</ele>
        <time>2013-05-06T08:19:58Z</time>
      </trkpt>
      <trkpt lat="43.39866" lon="-0.52172">
        <ele>236</ele>
        <time>2013-05-06T08:19:59Z</time>
      </trkpt>
      <trkpt lat="43.39867" lon="-0.52174">
        <ele>237</ele>
        <time>2013-05-06T08:20:00Z</time>
      </trkpt>
      <trkpt lat="43.39869" lon="-0.52176">
        <ele>236</ele>
        <time>2013-05-06T08:20:01Z</time>
      </trkpt>
      <trkpt lat="43.3987" lon="-0.52178">
        <ele>237</ele>
        <time>2013-05-06T08:20:02Z</time>
      </trkpt>
      <trkpt lat="43.39872" lon="-0.5218">
        <ele>236</ele>
        <time>2013-05-06T08:20:03Z</time>
      </trkpt>
      <trkpt lat="43.39873" lon="-0.52181">
        <ele>236</ele>
        <time>2013-05-06T08:20:04Z</time>
      </trkpt>
      <trkpt lat="43.39874" lon="-0.52183">
        <ele>237</ele>
        <time>2013-05-06T08:20:05Z</time>
      </trkpt>
      <trkpt lat="43.39875" lon="-0.52184">
        <ele>237</ele>
        <time>2013-05-06T08:20:06Z</time>
      </trkpt>
      <trkpt lat="43.39876" lon="-0.52187">
        <ele>237</ele>
        <time>2013-05-06T08:20:07Z</time>
      </trkpt>
      <trkpt lat="43.39876" lon="-0.5219">
        <ele>236</ele>
        <time>2013-05-06T08:20:08Z</time>
      </trkpt>
      <trkpt lat="43.39877" lon="-0.52193">
        <ele>237</ele>
        <time>2013-05-06T08:20:09Z</time>
      </trkpt>
      <trkpt lat="43.39878" lon="-0.52196">
        <ele>237</ele>
        <time>2013-05-06T08:20:10Z</time>
      </trkpt>
      <trkpt lat="43.39879" lon="-0.52199">
        <ele>238</ele>
        <time>2013-05-06T08:20:11Z</time>
      </trkpt>
      <trkpt lat="43.39881" lon="-0.52201">
        <ele>238</ele>
        <time>2013-05-06T08:20:12Z</time>
      </trkpt>
      <trkpt lat="43.39882" lon="-0.52203">
        <ele>238</ele>
        <time>2013-05-06T08:20:13Z</time>
      </trkpt>
      <trkpt lat="43.39883" lon="-0.52205">
        <ele>239</ele>
        <time>2013-05-06T08:20:14Z</time>
      </trkpt>
      <trkpt lat="43.39883" lon="-0.52206">
        <ele>240</ele>
        <time>2013-05-06T08:20:15Z</time>
      </trkpt>
      <trkpt lat="43.39884" lon="-0.52207">
        <ele>240</ele>
        <time>2013-05-06T08:20:16Z</time>
      </trkpt>
      <trkpt lat="43.39885" lon="-0.52209">
        <ele>238</ele>
        <time>2013-05-06T08:20:17Z</time>
      </trkpt>
      <trkpt lat="43.39887" lon="-0.52211">
        <ele>239</ele>
        <time>2013-05-06T08:20:18Z</time>
      </trkpt>
      <trkpt lat="43.3989" lon="-0.52214">
        <ele>238</ele>
        <time>2013-05-06T08:20:19Z</time>
      </trkpt>
      <trkpt lat="43.39892" lon="-0.52217">
        <ele>238</ele>
        <time>2013-05-06T08:20:20Z</time>
      </trkpt>
      <trkpt lat="43.39895" lon="-0.5222">
        <ele>238</ele>
        <time>2013-05-06T08:20:21Z</time>
      </trkpt>
      <trkpt lat="43.39896" lon="-0.52223">
        <ele>238</ele>
        <time>2013-05-06T08:20:22Z</time>
      </trkpt>
      <trkpt lat="43.39897" lon="-0.52226">
        <ele>239</ele>
        <time>2013-05-06T08:20:23Z</time>
      </trkpt>
      <trkpt lat="43.39898" lon="-0.52229">
        <ele>238</ele>
        <time>2013-05-06T08:20:24Z</time>
      </trkpt>
      <trkpt lat="43.39899" lon="-0.52232">
        <ele>238</ele>
        <time>2013-05-06T08:20:25Z</time>
      </trkpt>
      <trkpt lat="43.399" lon="-0.52235">
        <ele>238</ele>
        <time>2013-05-06T08:20:26Z</time>
      </trkpt>
      <trkpt lat="43.39901" lon="-0.52239">
        <ele>237</ele>
        <time>2013-05-06T08:20:27Z</time>
      </trkpt>
      <trkpt lat="43.39903" lon="-0.52242">
        <ele>238</ele>
        <time>2013-05-06T08:20:28Z</time>
      </trkpt>
      <trkpt lat="43.39903" lon="-0.52245">
        <ele>237</ele>
        <time>2013-05-06T08:20:29Z</time>
      </trkpt>
      <trkpt lat="43.39904" lon="-0.52249">
        <ele>237</ele>
        <time>2013-05-06T08:20:30Z</time>
      </trkpt>
      <trkpt lat="43.39905" lon="-0.52252">
        <ele>237</ele>
        <time>2013-05-06T08:20:31Z</time>
      </trkpt>
      <trkpt lat="43.39906" lon="-0.52255">
        <ele>238</ele>
        <time>2013-05-06T08:20:32Z</time>
      </trkpt>
      <trkpt lat="43.39908" lon="-0.52257">
        <ele>238</ele>
        <time>2013-05-06T08:20:33Z</time>
      </trkpt>
      <trkpt lat="43.39909" lon="-0.5226">
        <ele>239</ele>
        <time>2013-05-06T08:20:34Z</time>
      </trkpt>
      <trkpt lat="43.3991" lon="-0.52262">
        <ele>239</ele>
        <time>2013-05-06T08:20:35Z</time>
      </trkpt>
      <trkpt lat="43.39911" lon="-0.52264">
        <ele>239</ele>
        <time>2013-05-06T08:20:36Z</time>
      </trkpt>
      <trkpt lat="43.39913" lon="-0.52266">
        <ele>239</ele>
        <time>2013-05-06T08:20:37Z</time>
      </trkpt>
      <trkpt lat="43.39914" lon="-0.52268">
        <ele>239</ele>
        <time>2013-05-06T08:20:38Z</time>
      </trkpt>
      <trkpt lat="43.39916" lon="-0.5227">
        <ele>239</ele>
        <time>2013-05-06T08:20:39Z</time>
      </trkpt>
      <trkpt lat="43.39918" lon="-0.52271">
        <ele>239</ele>
        <time>2013-05-06T08:20:40Z</time>
      </trkpt>
      <trkpt lat="43.3992" lon="-0.52273">
        <ele>239</ele>
        <time>2013-05-06T08:20:41Z</time>
      </trkpt>
      <trkpt lat="43.39922" lon="-0.52275">
        <ele>239</ele>
        <time>2013-05-06T08:20:42Z</time>
      </trkpt>
      <trkpt lat="43.39924" lon="-0.52277">
        <ele>239</ele>
        <time>2013-05-06T08:20:43Z</time>
      </trkpt>
      <trkpt lat="43.39926" lon="-0.52279">
        <ele>240</ele>
        <time>2013-05-06T08:20:44Z</time>
      </trkpt>
      <trkpt lat="43.39927" lon="-0.52281">
        <ele>239</ele>
        <time>2013-05-06T08:20:45Z</time>
      </trkpt>
      <trkpt lat="43.39929" lon="-0.52284">
        <ele>240</ele>
        <time>2013-05-06T08:20:46Z</time>
      </trkpt>
      <trkpt lat="43.39931" lon="-0.52286">
        <ele>240</ele>
        <time>2013-05-06T08:20:47Z</time>
      </trkpt>
      <trkpt lat="43.39932" lon="-0.52289">
        <ele>240</ele>
        <time>2013-05-06T08:20:48Z</time>
      </trkpt>
      <trkpt lat="43.39934" lon="-0.52291">
        <ele>239</ele>
        <time>2013-05-06T08:20:49Z</time>
      </trkpt>
      <trkpt lat="43.39936" lon="-0.52292">
        <ele>239</ele>
        <time>2013-05-06T08:20:50Z</time>
      </trkpt>
      <trkpt lat="43.39938" lon="-0.52293">
        <ele>239</ele>
        <time>2013-05-06T08:20:51Z</time>
      </trkpt>
      <trkpt lat="43.3994" lon="-0.52294">
        <ele>240</ele>
        <time>2013-05-06T08:20:52Z</time>
      </trkpt>
      <trkpt lat="43.39942" lon="-0.52293">
        <ele>240</ele>
        <time>2013-05-06T08:20:53Z</time>
      </trkpt>
      <trkpt lat="43.39945" lon="-0.52293">
        <ele>241</ele>
        <time>2013-05-06T08:20:54Z</time>
      </trkpt>
      <trkpt lat="43.39947" lon="-0.52292">
        <ele>241</ele>
        <time>2013-05-06T08:20:55Z</time>
      </trkpt>
      <trkpt lat="43.39949" lon="-0.52292">
        <ele>242</ele>
        <time>2013-05-06T08:20:56Z</time>
      </trkpt>
      <trkpt lat="43.39951" lon="-0.52292">
        <ele>242</ele>
        <time>2013-05-06T08:20:57Z</time>
      </trkpt>
      <trkpt lat="43.39952" lon="-0.52291">
        <ele>241</ele>
        <time>2013-05-06T08:20:58Z</time>
      </trkpt>
      <trkpt lat="43.39954" lon="-0.5229">
        <ele>239</ele>
        <time>2013-05-06T08:20:59Z</time>
      </trkpt>
      <trkpt lat="43.39956" lon="-0.5229">
        <ele>239</ele>
        <time>2013-05-06T08:21:00Z</time>
      </trkpt>
      <trkpt lat="43.39958" lon="-0.5229">
        <ele>239</ele>
        <time>2013-05-06T08:21:01Z</time>
      </trkpt>
      <trkpt lat="43.3996" lon="-0.52291">
        <ele>242</ele>
        <time>2013-05-06T08:21:02Z</time>
      </trkpt>
      <trkpt lat="43.39963" lon="-0.52292">
        <ele>241</ele>
        <time>2013-05-06T08:21:03Z</time>
      </trkpt>
      <trkpt lat="43.39965" lon="-0.52293">
        <ele>242</ele>
        <time>2013-05-06T08:21:04Z</time>
      </trkpt>
      <trkpt lat="43.39967" lon="-0.52292">
        <ele>242</ele>
        <time>2013-05-06T08:21:05Z</time>
      </trkpt>
      <trkpt lat="43.39969" lon="-0.52291">
        <ele>243</ele>
        <time>2013-05-06T08:21:06Z</time>
      </trkpt>
      <trkpt lat="43.39971" lon="-0.5229">
        <ele>243</ele>
        <time>2013-05-06T08:21:07Z</time>
      </trkpt>
      <trkpt lat="43.39973" lon="-0.52288">
        <ele>243</ele>
        <time>2013-05-06T08:21:08Z</time>
      </trkpt>
      <trkpt lat="43.39975" lon="-0.52286">
        <ele>243</ele>
        <time>2013-05-06T08:21:09Z</time>
      </trkpt>
      <trkpt lat="43.39977" lon="-0.52285">
        <ele>244</ele>
        <time>2013-05-06T08:21:10Z</time>
      </trkpt>
      <trkpt lat="43.39978" lon="-0.52284">
        <ele>244</ele>
        <time>2013-05-06T08:21:11Z</time>
      </trkpt>
      <trkpt lat="43.3998" lon="-0.52283">
        <ele>244</ele>
        <time>2013-05-06T08:21:12Z</time>
      </trkpt>
      <trkpt lat="43.39981" lon="-0.52282">
        <ele>243</ele>
        <time>2013-05-06T08:21:13Z</time>
      </trkpt>
      <trkpt lat="43.39982" lon="-0.5228">
        <ele>242</ele>
        <time>2013-05-06T08:21:14Z</time>
      </trkpt>
      <trkpt lat="43.39984" lon="-0.52278">
        <ele>242</ele>
        <time>2013-05-06T08:21:15Z</time>
      </trkpt>
      <trkpt lat="43.39986" lon="-0.52276">
        <ele>242</ele>
        <time>2013-05-06T08:21:16Z</time>
      </trkpt>
      <trkpt lat="43.39988" lon="-0.52274">
        <ele>242</ele>
        <time>2013-05-06T08:21:17Z</time>
      </trkpt>
      <trkpt lat="43.39991" lon="-0.52272">
        <ele>242</ele>
        <time>2013-05-06T08:21:18Z</time>
      </trkpt>
      <trkpt lat="43.39993" lon="-0.52269">
        <ele>243</ele>
        <time>2013-05-06T08:21:19Z</time>
      </trkpt>
      <trkpt lat="43.39995" lon="-0.52266">
        <ele>242</ele>
        <time>2013-05-06T08:21:20Z</time>
      </trkpt>
      <trkpt lat="43.39999" lon="-0.52262">
        <ele>241</ele>
        <time>2013-05-06T08:21:21Z</time>
      </trkpt>
      <trkpt lat="43.40002" lon="-0.52259">
        <ele>240</ele>
        <time>2013-05-06T08:21:22Z</time>
      </trkpt>
      <trkpt lat="43.40006" lon="-0.52256">
        <ele>238</ele>
        <time>2013-05-06T08:21:23Z</time>
      </trkpt>
      <trkpt lat="43.40009" lon="-0.52254">
        <ele>238</ele>
        <time>2013-05-06T08:21:24Z</time>
      </trkpt>
      <trkpt lat="43.40014" lon="-0.52249">
        <ele>239</ele>
        <time>2013-05-06T08:21:25Z</time>
      </trkpt>
      <trkpt lat="43.40017" lon="-0.52246">
        <ele>240</ele>
        <time>2013-05-06T08:21:26Z</time>
      </trkpt>
      <trkpt lat="43.4002" lon="-0.52243">
        <ele>239</ele>
        <time>2013-05-06T08:21:27Z</time>
      </trkpt>
      <trkpt lat="43.40022" lon="-0.52241">
        <ele>238</ele>
        <time>2013-05-06T08:21:28Z</time>
      </trkpt>
      <trkpt lat="43.40024" lon="-0.52239">
        <ele>238</ele>
        <time>2013-05-06T08:21:29Z</time>
      </trkpt>
      <trkpt lat="43.40025" lon="-0.52236">
        <ele>238</ele>
        <time>2013-05-06T08:21:30Z</time>
      </trkpt>
      <trkpt lat="43.40026" lon="-0.52233">
        <ele>237</ele>
        <time>2013-05-06T08:21:31Z</time>
      </trkpt>
      <trkpt lat="43.40027" lon="-0.52231">
        <ele>237</ele>
        <time>2013-05-06T08:21:32Z</time>
      </trkpt>
      <trkpt lat="43.40028" lon="-0.52228">
        <ele>237</ele>
        <time>2013-05-06T08:21:33Z</time>
      </trkpt>
      <trkpt lat="43.40029" lon="-0.52226">
        <ele>237</ele>
        <time>2013-05-06T08:21:34Z</time>
      </trkpt>
      <trkpt lat="43.4003" lon="-0.52225">
        <ele>237</ele>
        <time>2013-05-06T08:21:35Z</time>
      </trkpt>
      <trkpt lat="43.40031" lon="-0.52224">
        <ele>236</ele>
        <time>2013-05-06T08:21:36Z</time>
      </trkpt>
      <trkpt lat="43.40032" lon="-0.52224">
        <ele>236</ele>
        <time>2013-05-06T08:21:37Z</time>
      </trkpt>
      <trkpt lat="43.40033" lon="-0.52225">
        <ele>236</ele>
        <time>2013-05-06T08:21:38Z</time>
      </trkpt>
      <trkpt lat="43.40033" lon="-0.52226">
        <ele>235</ele>
        <time>2013-05-06T08:21:39Z</time>
      </trkpt>
      <trkpt lat="43.40034" lon="-0.52227">
        <ele>234</ele>
        <time>2013-05-06T08:21:40Z</time>
      </trkpt>
      <trkpt lat="43.40035" lon="-0.5223">
        <ele>234</ele>
        <time>2013-05-06T08:21:41Z</time>
      </trkpt>
      <trkpt lat="43.40035" lon="-0.52232">
        <ele>234</ele>
        <time>2013-05-06T08:21:42Z</time>
      </trkpt>
      <trkpt lat="43.40036" lon="-0.52235">
        <ele>232</ele>
        <time>2013-05-06T08:21:43Z</time>
      </trkpt>
      <trkpt lat="43.40036" lon="-0.52238">
        <ele>232</ele>
        <time>2013-05-06T08:21:44Z</time>
      </trkpt>
      <trkpt lat="43.40037" lon="-0.52241">
        <ele>233</ele>
        <time>2013-05-06T08:21:45Z</time>
      </trkpt>
      <trkpt lat="43.40037" lon="-0.52245">
        <ele>232</ele>
        <time>2013-05-06T08:21:46Z</time>
      </trkpt>
      <trkpt lat="43.40037" lon="-0.52248">
        <ele>233</ele>
        <time>2013-05-06T08:21:47Z</time>
      </trkpt>
      <trkpt lat="43.40038" lon="-0.52251">
        <ele>232</ele>
        <time>2013-05-06T08:21:48Z</time>
      </trkpt>
      <trkpt lat="43.4004" lon="-0.52256">
        <ele>231</ele>
        <time>2013-05-06T08:21:49Z</time>
      </trkpt>
      <trkpt lat="43.40042" lon="-0.52261">
        <ele>232</ele>
        <time>2013-05-06T08:21:50Z</time>
      </trkpt>
      <trkpt lat="43.40043" lon="-0.52267">
        <ele>232</ele>
        <time>2013-05-06T08:21:51Z</time>
      </trkpt>
      <trkpt lat="43.40044" lon="-0.52273">
        <ele>232</ele>
        <time>2013-05-06T08:21:52Z</time>
      </trkpt>
      <trkpt lat="43.40044" lon="-0.52279">
        <ele>231</ele>
        <time>2013-05-06T08:21:53Z</time>
      </trkpt>
      <trkpt lat="43.40046" lon="-0.52284">
        <ele>231</ele>
        <time>2013-05-06T08:21:54Z</time>
      </trkpt>
      <trkpt lat="43.40046" lon="-0.52286">
        <ele>230</ele>
        <time>2013-05-06T08:21:55Z</time>
      </trkpt>
      <trkpt lat="43.40048" lon="-0.52289">
        <ele>230</ele>
        <time>2013-05-06T08:21:56Z</time>
      </trkpt>
      <trkpt lat="43.40048" lon="-0.52293">
        <ele>230</ele>
        <time>2013-05-06T08:21:57Z</time>
      </trkpt>
      <trkpt lat="43.4005" lon="-0.52297">
        <ele>229</ele>
        <time>2013-05-06T08:21:58Z</time>
      </trkpt>
      <trkpt lat="43.40051" lon="-0.52302">
        <ele>229</ele>
        <time>2013-05-06T08:21:59Z</time>
      </trkpt>
      <trkpt lat="43.40052" lon="-0.52306">
        <ele>229</ele>
        <time>2013-05-06T08:22:00Z</time>
      </trkpt>
      <trkpt lat="43.40052" lon="-0.5231">
        <ele>229</ele>
        <time>2013-05-06T08:22:01Z</time>
      </trkpt>
      <trkpt lat="43.40052" lon="-0.52314">
        <ele>229</ele>
        <time>2013-05-06T08:22:02Z</time>
      </trkpt>
      <trkpt lat="43.40053" lon="-0.52318">
        <ele>228</ele>
        <time>2013-05-06T08:22:03Z</time>
      </trkpt>
      <trkpt lat="43.40053" lon="-0.52321">
        <ele>228</ele>
        <time>2013-05-06T08:22:04Z</time>
      </trkpt>
      <trkpt lat="43.40054" lon="-0.52324">
        <ele>227</ele>
        <time>2013-05-06T08:22:05Z</time>
      </trkpt>
      <trkpt lat="43.40054" lon="-0.52328">
        <ele>227</ele>
        <time>2013-05-06T08:22:06Z</time>
      </trkpt>
      <trkpt lat="43.40054" lon="-0.52331">
        <ele>226</ele>
        <time>2013-05-06T08:22:07Z</time>
      </trkpt>
      <trkpt lat="43.40055" lon="-0.52333">
        <ele>226</ele>
        <time>2013-05-06T08:22:08Z</time>
      </trkpt>
      <trkpt lat="43.40055" lon="-0.52336">
        <ele>227</ele>
        <time>2013-05-06T08:22:09Z</time>
      </trkpt>
      <trkpt lat="43.40055" lon="-0.52338">
        <ele>226</ele>
        <time>2013-05-06T08:22:10Z</time>
      </trkpt>
      <trkpt lat="43.40055" lon="-0.52339">
        <ele>226</ele>
        <time>2013-05-06T08:22:11Z</time>
      </trkpt>
      <trkpt lat="43.40055" lon="-0.5234">
        <ele>226</ele>
        <time>2013-05-06T08:22:12Z</time>
      </trkpt>
      <trkpt lat="43.40056" lon="-0.52341">
        <ele>225</ele>
        <time>2013-05-06T08:22:13Z</time>
      </trkpt>
      <trkpt lat="43.40057" lon="-0.52343">
        <ele>225</ele>
        <time>2013-05-06T08:22:14Z</time>
      </trkpt>
      <trkpt lat="43.40059" lon="-0.52344">
        <ele>224</ele>
        <time>2013-05-06T08:22:15Z</time>
      </trkpt>
      <trkpt lat="43.40061" lon="-0.52346">
        <ele>224</ele>
        <time>2013-05-06T08:22:16Z</time>
      </trkpt>
      <trkpt lat="43.40064" lon="-0.52348">
        <ele>224</ele>
        <time>2013-05-06T08:22:17Z</time>
      </trkpt>
      <trkpt lat="43.40067" lon="-0.5235">
        <ele>223</ele>
        <time>2013-05-06T08:22:18Z</time>
      </trkpt>
      <trkpt lat="43.4007" lon="-0.52352">
        <ele>222</ele>
        <time>2013-05-06T08:22:19Z</time>
      </trkpt>
      <trkpt lat="43.40073" lon="-0.52355">
        <ele>221</ele>
        <time>2013-05-06T08:22:20Z</time>
      </trkpt>
      <trkpt lat="43.40075" lon="-0.52358">
        <ele>220</ele>
        <time>2013-05-06T08:22:21Z</time>
      </trkpt>
      <trkpt lat="43.40076" lon="-0.5236">
        <ele>221</ele>
        <time>2013-05-06T08:22:22Z</time>
      </trkpt>
      <trkpt lat="43.40078" lon="-0.52362">
        <ele>221</ele>
        <time>2013-05-06T08:22:23Z</time>
      </trkpt>
      <trkpt lat="43.4008" lon="-0.52364">
        <ele>221</ele>
        <time>2013-05-06T08:22:24Z</time>
      </trkpt>
      <trkpt lat="43.40082" lon="-0.52365">
        <ele>220</ele>
        <time>2013-05-06T08:22:25Z</time>
      </trkpt>
      <trkpt lat="43.40084" lon="-0.52366">
        <ele>218</ele>
        <time>2013-05-06T08:22:26Z</time>
      </trkpt>
      <trkpt lat="43.40085" lon="-0.52367">
        <ele>219</ele>
        <time>2013-05-06T08:22:27Z</time>
      </trkpt>
      <trkpt lat="43.40087" lon="-0.52368">
        <ele>219</ele>
        <time>2013-05-06T08:22:28Z</time>
      </trkpt>
      <trkpt lat="43.4009" lon="-0.52369">
        <ele>219</ele>
        <time>2013-05-06T08:22:29Z</time>
      </trkpt>
      <trkpt lat="43.40091" lon="-0.52369">
        <ele>218</ele>
        <time>2013-05-06T08:22:30Z</time>
      </trkpt>
      <trkpt lat="43.40093" lon="-0.52368">
        <ele>218</ele>
        <time>2013-05-06T08:22:31Z</time>
      </trkpt>
      <trkpt lat="43.40093" lon="-0.52367">
        <ele>218</ele>
        <time>2013-05-06T08:22:32Z</time>
      </trkpt>
      <trkpt lat="43.40094" lon="-0.52365">
        <ele>218</ele>
        <time>2013-05-06T08:22:33Z</time>
      </trkpt>
      <trkpt lat="43.40095" lon="-0.52364">
        <ele>218</ele>
        <time>2013-05-06T08:22:34Z</time>
      </trkpt>
      <trkpt lat="43.40096" lon="-0.52362">
        <ele>216</ele>
        <time>2013-05-06T08:22:35Z</time>
      </trkpt>
      <trkpt lat="43.40097" lon="-0.52361">
        <ele>216</ele>
        <time>2013-05-06T08:22:36Z</time>
      </trkpt>
      <trkpt lat="43.40098" lon="-0.52358">
        <ele>215</ele>
        <time>2013-05-06T08:22:37Z</time>
      </trkpt>
      <trkpt lat="43.401" lon="-0.52356">
        <ele>215</ele>
        <time>2013-05-06T08:22:38Z</time>
      </trkpt>
      <trkpt lat="43.40101" lon="-0.52353">
        <ele>215</ele>
        <time>2013-05-06T08:22:39Z</time>
      </trkpt>
      <trkpt lat="43.40102" lon="-0.52351">
        <ele>215</ele>
        <time>2013-05-06T08:22:40Z</time>
      </trkpt>
      <trkpt lat="43.40104" lon="-0.5235">
        <ele>215</ele>
        <time>2013-05-06T08:22:41Z</time>
      </trkpt>
      <trkpt lat="43.40105" lon="-0.52348">
        <ele>215</ele>
        <time>2013-05-06T08:22:42Z</time>
      </trkpt>
      <trkpt lat="43.40106" lon="-0.52347">
        <ele>215</ele>
        <time>2013-05-06T08:22:43Z</time>
      </trkpt>
      <trkpt lat="43.40105" lon="-0.52347">
        <ele>214</ele>
        <time>2013-05-06T08:22:44Z</time>
      </trkpt>
      <trkpt lat="43.40105" lon="-0.52346">
        <ele>214</ele>
        <time>2013-05-06T08:22:45Z</time>
      </trkpt>
      <trkpt lat="43.40105" lon="-0.52346">
        <ele>215</ele>
        <time>2013-05-06T08:22:46Z</time>
      </trkpt>
      <trkpt lat="43.40105" lon="-0.52343">
        <ele>215</ele>
        <time>2013-05-06T08:22:47Z</time>
      </trkpt>
      <trkpt lat="43.40105" lon="-0.5234">
        <ele>216</ele>
        <time>2013-05-06T08:22:48Z</time>
      </trkpt>
      <trkpt lat="43.40104" lon="-0.52336">
        <ele>216</ele>
        <time>2013-05-06T08:22:49Z</time>
      </trkpt>
      <trkpt lat="43.40104" lon="-0.52332">
        <ele>217</ele>
        <time>2013-05-06T08:22:50Z</time>
      </trkpt>
      <trkpt lat="43.40104" lon="-0.52329">
        <ele>217</ele>
        <time>2013-05-06T08:22:51Z</time>
      </trkpt>
      <trkpt lat="43.40105" lon="-0.52327">
        <ele>217</ele>
        <time>2013-05-06T08:22:52Z</time>
      </trkpt>
      <trkpt lat="43.40107" lon="-0.52325">
        <ele>216</ele>
        <time>2013-05-06T08:22:53Z</time>
      </trkpt>
      <trkpt lat="43.40111" lon="-0.52324">
        <ele>214</ele>
        <time>2013-05-06T08:22:54Z</time>
      </trkpt>
      <trkpt lat="43.40115" lon="-0.52323">
        <ele>213</ele>
        <time>2013-05-06T08:22:55Z</time>
      </trkpt>
      <trkpt lat="43.40118" lon="-0.52323">
        <ele>211</ele>
        <time>2013-05-06T08:22:56Z</time>
      </trkpt>
      <trkpt lat="43.40121" lon="-0.52323">
        <ele>211</ele>
        <time>2013-05-06T08:22:57Z</time>
      </trkpt>
      <trkpt lat="43.40123" lon="-0.52323">
        <ele>210</ele>
        <time>2013-05-06T08:22:58Z</time>
      </trkpt>
      <trkpt lat="43.40125" lon="-0.52324">
        <ele>211</ele>
        <time>2013-05-06T08:22:59Z</time>
      </trkpt>
      <trkpt lat="43.40127" lon="-0.52326">
        <ele>210</ele>
        <time>2013-05-06T08:23:00Z</time>
      </trkpt>
      <trkpt lat="43.40128" lon="-0.52327">
        <ele>210</ele>
        <time>2013-05-06T08:23:01Z</time>
      </trkpt>
      <trkpt lat="43.4013" lon="-0.52328">
        <ele>210</ele>
        <time>2013-05-06T08:23:02Z</time>
      </trkpt>
      <trkpt lat="43.40132" lon="-0.52329">
        <ele>208</ele>
        <time>2013-05-06T08:23:03Z</time>
      </trkpt>
      <trkpt lat="43.40134" lon="-0.5233">
        <ele>208</ele>
        <time>2013-05-06T08:23:04Z</time>
      </trkpt>
      <trkpt lat="43.40135" lon="-0.52331">
        <ele>208</ele>
        <time>2013-05-06T08:23:05Z</time>
      </trkpt>
      <trkpt lat="43.40138" lon="-0.52332">
        <ele>208</ele>
        <time>2013-05-06T08:23:06Z</time>
      </trkpt>
      <trkpt lat="43.4014" lon="-0.52332">
        <ele>208</ele>
        <time>2013-05-06T08:23:07Z</time>
      </trkpt>
      <trkpt lat="43.40142" lon="-0.52333">
        <ele>209</ele>
        <time>2013-05-06T08:23:08Z</time>
      </trkpt>
      <trkpt lat="43.40143" lon="-0.52333">
        <ele>209</ele>
        <time>2013-05-06T08:23:09Z</time>
      </trkpt>
      <trkpt lat="43.40145" lon="-0.52333">
        <ele>208</ele>
        <time>2013-05-06T08:23:10Z</time>
      </trkpt>
      <trkpt lat="43.40146" lon="-0.52333">
        <ele>207</ele>
        <time>2013-05-06T08:23:11Z</time>
      </trkpt>
      <trkpt lat="43.40148" lon="-0.52334">
        <ele>207</ele>
        <time>2013-05-06T08:23:12Z</time>
      </trkpt>
      <trkpt lat="43.4015" lon="-0.52335">
        <ele>207</ele>
        <time>2013-05-06T08:23:13Z</time>
      </trkpt>
      <trkpt lat="43.40152" lon="-0.52335">
        <ele>207</ele>
        <time>2013-05-06T08:23:14Z</time>
      </trkpt>
      <trkpt lat="43.40155" lon="-0.52335">
        <ele>205</ele>
        <time>2013-05-06T08:23:15Z</time>
      </trkpt>
      <trkpt lat="43.40159" lon="-0.52335">
        <ele>205</ele>
        <time>2013-05-06T08:23:16Z</time>
      </trkpt>
      <trkpt lat="43.4016" lon="-0.52335">
        <ele>205</ele>
        <time>2013-05-06T08:23:17Z</time>
      </trkpt>
      <trkpt lat="43.40164" lon="-0.52334">
        <ele>205</ele>
        <time>2013-05-06T08:23:18Z</time>
      </trkpt>
      <trkpt lat="43.40167" lon="-0.52333">
        <ele>204</ele>
        <time>2013-05-06T08:23:19Z</time>
      </trkpt>
      <trkpt lat="43.4017" lon="-0.52333">
        <ele>204</ele>
        <time>2013-05-06T08:23:20Z</time>
      </trkpt>
      <trkpt lat="43.40173" lon="-0.52333">
        <ele>204</ele>
        <time>2013-05-06T08:23:21Z</time>
      </trkpt>
      <trkpt lat="43.40175" lon="-0.52333">
        <ele>205</ele>
        <time>2013-05-06T08:23:22Z</time>
      </trkpt>
      <trkpt lat="43.40176" lon="-0.52333">
        <ele>205</ele>
        <time>2013-05-06T08:23:23Z</time>
      </trkpt>
      <trkpt lat="43.40179" lon="-0.52332">
        <ele>204</ele>
        <time>2013-05-06T08:23:24Z</time>
      </trkpt>
      <trkpt lat="43.4018" lon="-0.52332">
        <ele>204</ele>
        <time>2013-05-06T08:23:25Z</time>
      </trkpt>
      <trkpt lat="43.40181" lon="-0.5233">
        <ele>204</ele>
        <time>2013-05-06T08:23:26Z</time>
      </trkpt>
      <trkpt lat="43.40182" lon="-0.52326">
        <ele>203</ele>
        <time>2013-05-06T08:23:27Z</time>
      </trkpt>
      <trkpt lat="43.40184" lon="-0.52325">
        <ele>202</ele>
        <time>2013-05-06T08:23:28Z</time>
      </trkpt>
      <trkpt lat="43.40186" lon="-0.52326">
        <ele>202</ele>
        <time>2013-05-06T08:23:29Z</time>
      </trkpt>
      <trkpt lat="43.40188" lon="-0.52327">
        <ele>202</ele>
        <time>2013-05-06T08:23:30Z</time>
      </trkpt>
      <trkpt lat="43.40189" lon="-0.52329">
        <ele>202</ele>
        <time>2013-05-06T08:23:31Z</time>
      </trkpt>
      <trkpt lat="43.40191" lon="-0.5233">
        <ele>202</ele>
        <time>2013-05-06T08:23:32Z</time>
      </trkpt>
      <trkpt lat="43.40192" lon="-0.52333">
        <ele>201</ele>
        <time>2013-05-06T08:23:33Z</time>
      </trkpt>
      <trkpt lat="43.40194" lon="-0.52337">
        <ele>199</ele>
        <time>2013-05-06T08:23:34Z</time>
      </trkpt>
      <trkpt lat="43.40195" lon="-0.5234">
        <ele>199</ele>
        <time>2013-05-06T08:23:35Z</time>
      </trkpt>
      <trkpt lat="43.40197" lon="-0.52344">
        <ele>200</ele>
        <time>2013-05-06T08:23:36Z</time>
      </trkpt>
      <trkpt lat="43.40199" lon="-0.52348">
        <ele>199</ele>
        <time>2013-05-06T08:23:37Z</time>
      </trkpt>
      <trkpt lat="43.402" lon="-0.52351">
        <ele>198</ele>
        <time>2013-05-06T08:23:38Z</time>
      </trkpt>
      <trkpt lat="43.40202" lon="-0.52355">
        <ele>198</ele>
        <time>2013-05-06T08:23:39Z</time>
      </trkpt>
      <trkpt lat="43.40205" lon="-0.52359">
        <ele>197</ele>
        <time>2013-05-06T08:23:40Z</time>
      </trkpt>
      <trkpt lat="43.40207" lon="-0.52363">
        <ele>197</ele>
        <time>2013-05-06T08:23:41Z</time>
      </trkpt>
      <trkpt lat="43.4021" lon="-0.52366">
        <ele>196</ele>
        <time>2013-05-06T08:23:42Z</time>
      </trkpt>
      <trkpt lat="43.40213" lon="-0.5237">
        <ele>196</ele>
        <time>2013-05-06T08:23:43Z</time>
      </trkpt>
      <trkpt lat="43.40216" lon="-0.52374">
        <ele>195</ele>
        <time>2013-05-06T08:23:44Z</time>
      </trkpt>
      <trkpt lat="43.40218" lon="-0.52378">
        <ele>195</ele>
        <time>2013-05-06T08:23:45Z</time>
      </trkpt>
      <trkpt lat="43.4022" lon="-0.52382">
        <ele>195</ele>
        <time>2013-05-06T08:23:46Z</time>
      </trkpt>
      <trkpt lat="43.40221" lon="-0.52386">
        <ele>195</ele>
        <time>2013-05-06T08:23:47Z</time>
      </trkpt>
      <trkpt lat="43.40223" lon="-0.52391">
        <ele>195</ele>
        <time>2013-05-06T08:23:48Z</time>
      </trkpt>
      <trkpt lat="43.40223" lon="-0.52395">
        <ele>194</ele>
        <time>2013-05-06T08:23:49Z</time>
      </trkpt>
      <trkpt lat="43.40224" lon="-0.52399">
        <ele>194</ele>
        <time>2013-05-06T08:23:50Z</time>
      </trkpt>
      <trkpt lat="43.40223" lon="-0.52402">
        <ele>194</ele>
        <time>2013-05-06T08:23:51Z</time>
      </trkpt>
      <trkpt lat="43.40223" lon="-0.52404">
        <ele>194</ele>
        <time>2013-05-06T08:23:52Z</time>
      </trkpt>
      <trkpt lat="43.40222" lon="-0.52406">
        <ele>193</ele>
        <time>2013-05-06T08:23:53Z</time>
      </trkpt>
      <trkpt lat="43.40222" lon="-0.52407">
        <ele>194</ele>
        <time>2013-05-06T08:23:54Z</time>
      </trkpt>
      <trkpt lat="43.4022" lon="-0.52407">
        <ele>194</ele>
        <time>2013-05-06T08:23:55Z</time>
      </trkpt>
      <trkpt lat="43.40218" lon="-0.52407">
        <ele>193</ele>
        <time>2013-05-06T08:23:56Z</time>
      </trkpt>
      <trkpt lat="43.40218" lon="-0.52406">
        <ele>193</ele>
        <time>2013-05-06T08:23:57Z</time>
      </trkpt>
      <trkpt lat="43.40217" lon="-0.52404">
        <ele>194</ele>
        <time>2013-05-06T08:23:58Z</time>
      </trkpt>
      <trkpt lat="43.40216" lon="-0.52403">
        <ele>194</ele>
        <time>2013-05-06T08:23:59Z</time>
      </trkpt>
      <trkpt lat="43.40216" lon="-0.52402">
        <ele>193</ele>
        <time>2013-05-06T08:24:00Z</time>
      </trkpt>
      <trkpt lat="43.40215" lon="-0.52402">
        <ele>194</ele>
        <time>2013-05-06T08:24:01Z</time>
      </trkpt>
      <trkpt lat="43.40215" lon="-0.52401">
        <ele>195</ele>
        <time>2013-05-06T08:24:02Z</time>
      </trkpt>
      <trkpt lat="43.40214" lon="-0.52402">
        <ele>195</ele>
        <time>2013-05-06T08:24:03Z</time>
      </trkpt>
      <trkpt lat="43.40213" lon="-0.52403">
        <ele>196</ele>
        <time>2013-05-06T08:24:04Z</time>
      </trkpt>
      <trkpt lat="43.40212" lon="-0.52404">
        <ele>195</ele>
        <time>2013-05-06T08:24:05Z</time>
      </trkpt>
      <trkpt lat="43.40212" lon="-0.52404">
        <ele>195</ele>
        <time>2013-05-06T08:24:06Z</time>
      </trkpt>
      <trkpt lat="43.40212" lon="-0.52405">
        <ele>195</ele>
        <time>2013-05-06T08:24:07Z</time>
      </trkpt>
      <trkpt lat="43.40213" lon="-0.52404">
        <ele>194</ele>
        <time>2013-05-06T08:24:09Z</time>
      </trkpt>
      <trkpt lat="43.40213" lon="-0.52404">
        <ele>195</ele>
        <time>2013-05-06T08:24:10Z</time>
      </trkpt>
      <trkpt lat="43.40214" lon="-0.52404">
        <ele>195</ele>
        <time>2013-05-06T08:24:11Z</time>
      </trkpt>
      <trkpt lat="43.40215" lon="-0.52405">
        <ele>195</ele>
        <time>2013-05-06T08:24:12Z</time>
      </trkpt>
      <trkpt lat="43.40215" lon="-0.52405">
        <ele>196</ele>
        <time>2013-05-06T08:24:13Z</time>
      </trkpt>
      <trkpt lat="43.40214" lon="-0.52406">
        <ele>195</ele>
        <time>2013-05-06T08:24:15Z</time>
      </trkpt>
      <trkpt lat="43.40213" lon="-0.52407">
        <ele>195</ele>
        <time>2013-05-06T08:24:16Z</time>
      </trkpt>
      <trkpt lat="43.40213" lon="-0.52407">
        <ele>195</ele>
        <time>2013-05-06T08:24:17Z</time>
      </trkpt>
      <trkpt lat="43.40213" lon="-0.52406">
        <ele>195</ele>
        <time>2013-05-06T08:24:18Z</time>
      </trkpt>
      <trkpt lat="43.40212" lon="-0.52407">
        <ele>196</ele>
        <time>2013-05-06T08:24:19Z</time>
      </trkpt>
      <trkpt lat="43.40211" lon="-0.52407">
        <ele>196</ele>
        <time>2013-05-06T08:24:20Z</time>
      </trkpt>
      <trkpt lat="43.4021" lon="-0.52408">
        <ele>196</ele>
        <time>2013-05-06T08:24:21Z</time>
      </trkpt>
      <trkpt lat="43.40209" lon="-0.52409">
        <ele>196</ele>
        <time>2013-05-06T08:24:22Z</time>
      </trkpt>
      <trkpt lat="43.40207" lon="-0.5241">
        <ele>197</ele>
        <time>2013-05-06T08:24:23Z</time>
      </trkpt>
      <trkpt lat="43.40205" lon="-0.52412">
        <ele>198</ele>
        <time>2013-05-06T08:24:24Z</time>
      </trkpt>
      <trkpt lat="43.40203" lon="-0.52414">
        <ele>200</ele>
        <time>2013-05-06T08:24:25Z</time>
      </trkpt>
      <trkpt lat="43.40202" lon="-0.52415">
        <ele>200</ele>
        <time>2013-05-06T08:24:26Z</time>
      </trkpt>
      <trkpt lat="43.402" lon="-0.52418">
        <ele>200</ele>
        <time>2013-05-06T08:24:27Z</time>
      </trkpt>
      <trkpt lat="43.40199" lon="-0.5242">
        <ele>200</ele>
        <time>2013-05-06T08:24:28Z</time>
      </trkpt>
      <trkpt lat="43.40197" lon="-0.52422">
        <ele>200</ele>
        <time>2013-05-06T08:24:29Z</time>
      </trkpt>
      <trkpt lat="43.40197" lon="-0.52424">
        <ele>199</ele>
        <time>2013-05-06T08:24:30Z</time>
      </trkpt>
      <trkpt lat="43.40197" lon="-0.52425">
        <ele>199</ele>
        <time>2013-05-06T08:24:31Z</time>
      </trkpt>
      <trkpt lat="43.40197" lon="-0.52426">
        <ele>199</ele>
        <time>2013-05-06T08:24:32Z</time>
      </trkpt>
      <trkpt lat="43.40197" lon="-0.52427">
        <ele>198</ele>
        <time>2013-05-06T08:24:33Z</time>
      </trkpt>
      <trkpt lat="43.40198" lon="-0.52428">
        <ele>198</ele>
        <time>2013-05-06T08:24:34Z</time>
      </trkpt>
      <trkpt lat="43.40198" lon="-0.5243">
        <ele>197</ele>
        <time>2013-05-06T08:24:35Z</time>
      </trkpt>
      <trkpt lat="43.40198" lon="-0.52432">
        <ele>197</ele>
        <time>2013-05-06T08:24:36Z</time>
      </trkpt>
      <trkpt lat="43.40199" lon="-0.52434">
        <ele>197</ele>
        <time>2013-05-06T08:24:37Z</time>
      </trkpt>
      <trkpt lat="43.40199" lon="-0.52435">
        <ele>198</ele>
        <time>2013-05-06T08:24:38Z</time>
      </trkpt>
      <trkpt lat="43.40197" lon="-0.52436">
        <ele>197</ele>
        <time>2013-05-06T08:24:39Z</time>
      </trkpt>
      <trkpt lat="43.40197" lon="-0.52437">
        <ele>197</ele>
        <time>2013-05-06T08:24:40Z</time>
      </trkpt>
      <trkpt lat="43.40197" lon="-0.52438">
        <ele>196</ele>
        <time>2013-05-06T08:24:41Z</time>
      </trkpt>
      <trkpt lat="43.40197" lon="-0.52438">
        <ele>195</ele>
        <time>2013-05-06T08:24:42Z</time>
      </trkpt>
      <trkpt lat="43.40199" lon="-0.52438">
        <ele>195</ele>
        <time>2013-05-06T08:24:43Z</time>
      </trkpt>
      <trkpt lat="43.40199" lon="-0.52437">
        <ele>194</ele>
        <time>2013-05-06T08:24:44Z</time>
      </trkpt>
      <trkpt lat="43.40201" lon="-0.52437">
        <ele>195</ele>
        <time>2013-05-06T08:24:45Z</time>
      </trkpt>
      <trkpt lat="43.40203" lon="-0.52436">
        <ele>196</ele>
        <time>2013-05-06T08:24:46Z</time>
      </trkpt>
      <trkpt lat="43.40205" lon="-0.52435">
        <ele>196</ele>
        <time>2013-05-06T08:24:47Z</time>
      </trkpt>
      <trkpt lat="43.40207" lon="-0.52433">
        <ele>196</ele>
        <time>2013-05-06T08:24:48Z</time>
      </trkpt>
      <trkpt lat="43.40209" lon="-0.52431">
        <ele>196</ele>
        <time>2013-05-06T08:24:49Z</time>
      </trkpt>
      <trkpt lat="43.40211" lon="-0.52429">
        <ele>196</ele>
        <time>2013-05-06T08:24:50Z</time>
      </trkpt>
      <trkpt lat="43.40212" lon="-0.52427">
        <ele>196</ele>
        <time>2013-05-06T08:24:51Z</time>
      </trkpt>
      <trkpt lat="43.40214" lon="-0.52425">
        <ele>196</ele>
        <time>2013-05-06T08:24:52Z</time>
      </trkpt>
      <trkpt lat="43.40215" lon="-0.52422">
        <ele>198</ele>
        <time>2013-05-06T08:24:53Z</time>
      </trkpt>
      <trkpt lat="43.40216" lon="-0.5242">
        <ele>198</ele>
        <time>2013-05-06T08:24:54Z</time>
      </trkpt>
      <trkpt lat="43.40217" lon="-0.52418">
        <ele>197</ele>
        <time>2013-05-06T08:24:55Z</time>
      </trkpt>
      <trkpt lat="43.40219" lon="-0.52417">
        <ele>197</ele>
        <time>2013-05-06T08:24:56Z</time>
      </trkpt>
      <trkpt lat="43.40221" lon="-0.52418">
        <ele>196</ele>
        <time>2013-05-06T08:24:57Z</time>
      </trkpt>
      <trkpt lat="43.40223" lon="-0.52421">
        <ele>196</ele>
        <time>2013-05-06T08:24:58Z</time>
      </trkpt>
      <trkpt lat="43.40224" lon="-0.52424">
        <ele>195</ele>
        <time>2013-05-06T08:24:59Z</time>
      </trkpt>
      <trkpt lat="43.40224" lon="-0.52426">
        <ele>194</ele>
        <time>2013-05-06T08:25:00Z</time>
      </trkpt>
      <trkpt lat="43.40224" lon="-0.52429">
        <ele>194</ele>
        <time>2013-05-06T08:25:01Z</time>
      </trkpt>
      <trkpt lat="43.40224" lon="-0.52432">
        <ele>193</ele>
        <time>2013-05-06T08:25:02Z</time>
      </trkpt>
      <trkpt lat="43.40224" lon="-0.52435">
        <ele>193</ele>
        <time>2013-05-06T08:25:03Z</time>
      </trkpt>
      <trkpt lat="43.40225" lon="-0.52437">
        <ele>194</ele>
        <time>2013-05-06T08:25:04Z</time>
      </trkpt>
      <trkpt lat="43.40225" lon="-0.52438">
        <ele>193</ele>
        <time>2013-05-06T08:25:05Z</time>
      </trkpt>
      <trkpt lat="43.40226" lon="-0.52441">
        <ele>193</ele>
        <time>2013-05-06T08:25:06Z</time>
      </trkpt>
      <trkpt lat="43.40227" lon="-0.52443">
        <ele>193</ele>
        <time>2013-05-06T08:25:07Z</time>
      </trkpt>
      <trkpt lat="43.40228" lon="-0.52444">
        <ele>193</ele>
        <time>2013-05-06T08:25:08Z</time>
      </trkpt>
      <trkpt lat="43.40229" lon="-0.52445">
        <ele>193</ele>
        <time>2013-05-06T08:25:09Z</time>
      </trkpt>
      <trkpt lat="43.40229" lon="-0.52447">
        <ele>193</ele>
        <time>2013-05-06T08:25:10Z</time>
      </trkpt>
      <trkpt lat="43.40231" lon="-0.52448">
        <ele>194</ele>
        <time>2013-05-06T08:25:11Z</time>
      </trkpt>
      <trkpt lat="43.40231" lon="-0.52449">
        <ele>193</ele>
        <time>2013-05-06T08:25:12Z</time>
      </trkpt>
      <trkpt lat="43.40232" lon="-0.5245">
        <ele>193</ele>
        <time>2013-05-06T08:25:13Z</time>
      </trkpt>
      <trkpt lat="43.40233" lon="-0.52451">
        <ele>192</ele>
        <time>2013-05-06T08:25:14Z</time>
      </trkpt>
      <trkpt lat="43.40234" lon="-0.52451">
        <ele>192</ele>
        <time>2013-05-06T08:25:15Z</time>
      </trkpt>
      <trkpt lat="43.40234" lon="-0.52452">
        <ele>192</ele>
        <time>2013-05-06T08:25:16Z</time>
      </trkpt>
      <trkpt lat="43.40234" lon="-0.52453">
        <ele>193</ele>
        <time>2013-05-06T08:25:17Z</time>
      </trkpt>
      <trkpt lat="43.40235" lon="-0.52453">
        <ele>193</ele>
        <time>2013-05-06T08:25:18Z</time>
      </trkpt>
      <trkpt lat="43.40236" lon="-0.52453">
        <ele>193</ele>
        <time>2013-05-06T08:25:19Z</time>
      </trkpt>
      <trkpt lat="43.40237" lon="-0.52454">
        <ele>193</ele>
        <time>2013-05-06T08:25:20Z</time>
      </trkpt>
      <trkpt lat="43.40237" lon="-0.52456">
        <ele>192</ele>
        <time>2013-05-06T08:25:21Z</time>
      </trkpt>
      <trkpt lat="43.40239" lon="-0.52458">
        <ele>193</ele>
        <time>2013-05-06T08:25:22Z</time>
      </trkpt>
      <trkpt lat="43.4024" lon="-0.5246">
        <ele>193</ele>
        <time>2013-05-06T08:25:23Z</time>
      </trkpt>
      <trkpt lat="43.40241" lon="-0.52463">
        <ele>194</ele>
        <time>2013-05-06T08:25:24Z</time>
      </trkpt>
      <trkpt lat="43.40242" lon="-0.52465">
        <ele>194</ele>
        <time>2013-05-06T08:25:25Z</time>
      </trkpt>
      <trkpt lat="43.40243" lon="-0.52467">
        <ele>194</ele>
        <time>2013-05-06T08:25:26Z</time>
      </trkpt>
      <trkpt lat="43.40245" lon="-0.52467">
        <ele>195</ele>
        <time>2013-05-06T08:25:27Z</time>
      </trkpt>
      <trkpt lat="43.40246" lon="-0.52467">
        <ele>195</ele>
        <time>2013-05-06T08:25:28Z</time>
      </trkpt>
      <trkpt lat="43.40248" lon="-0.52466">
        <ele>194</ele>
        <time>2013-05-06T08:25:29Z</time>
      </trkpt>
      <trkpt lat="43.4025" lon="-0.52464">
        <ele>195</ele>
        <time>2013-05-06T08:25:30Z</time>
      </trkpt>
      <trkpt lat="43.40252" lon="-0.5246">
        <ele>195</ele>
        <time>2013-05-06T08:25:31Z</time>
      </trkpt>
      <trkpt lat="43.40256" lon="-0.52456">
        <ele>196</ele>
        <time>2013-05-06T08:25:32Z</time>
      </trkpt>
      <trkpt lat="43.4026" lon="-0.52451">
        <ele>196</ele>
        <time>2013-05-06T08:25:33Z</time>
      </trkpt>
      <trkpt lat="43.40263" lon="-0.52446">
        <ele>198</ele>
        <time>2013-05-06T08:25:34Z</time>
      </trkpt>
      <trkpt lat="43.40267" lon="-0.52441">
        <ele>197</ele>
        <time>2013-05-06T08:25:35Z</time>
      </trkpt>
      <trkpt lat="43.4027" lon="-0.52436">
        <ele>198</ele>
        <time>2013-05-06T08:25:36Z</time>
      </trkpt>
      <trkpt lat="43.40273" lon="-0.52432">
        <ele>195</ele>
        <time>2013-05-06T08:25:37Z</time>
      </trkpt>
      <trkpt lat="43.40276" lon="-0.52429">
        <ele>195</ele>
        <time>2013-05-06T08:25:38Z</time>
      </trkpt>
      <trkpt lat="43.40279" lon="-0.52428">
        <ele>194</ele>
        <time>2013-05-06T08:25:39Z</time>
      </trkpt>
      <trkpt lat="43.40281" lon="-0.52428">
        <ele>194</ele>
        <time>2013-05-06T08:25:40Z</time>
      </trkpt>
      <trkpt lat="43.40282" lon="-0.52428">
        <ele>194</ele>
        <time>2013-05-06T08:25:41Z</time>
      </trkpt>
      <trkpt lat="43.40282" lon="-0.5243">
        <ele>193</ele>
        <time>2013-05-06T08:25:42Z</time>
      </trkpt>
      <trkpt lat="43.40283" lon="-0.52433">
        <ele>192</ele>
        <time>2013-05-06T08:25:43Z</time>
      </trkpt>
      <trkpt lat="43.40285" lon="-0.52437">
        <ele>192</ele>
        <time>2013-05-06T08:25:44Z</time>
      </trkpt>
      <trkpt lat="43.40287" lon="-0.52442">
        <ele>193</ele>
        <time>2013-05-06T08:25:45Z</time>
      </trkpt>
      <trkpt lat="43.40289" lon="-0.52447">
        <ele>192</ele>
        <time>2013-05-06T08:25:46Z</time>
      </trkpt>
      <trkpt lat="43.40291" lon="-0.52452">
        <ele>192</ele>
        <time>2013-05-06T08:25:47Z</time>
      </trkpt>
      <trkpt lat="43.40292" lon="-0.52456">
        <ele>192</ele>
        <time>2013-05-06T08:25:48Z</time>
      </trkpt>
      <trkpt lat="43.40294" lon="-0.52459">
        <ele>190</ele>
        <time>2013-05-06T08:25:49Z</time>
      </trkpt>
      <trkpt lat="43.40295" lon="-0.52461">
        <ele>189</ele>
        <time>2013-05-06T08:25:50Z</time>
      </trkpt>
      <trkpt lat="43.40296" lon="-0.52464">
        <ele>187</ele>
        <time>2013-05-06T08:25:51Z</time>
      </trkpt>
      <trkpt lat="43.40297" lon="-0.52467">
        <ele>186</ele>
        <time>2013-05-06T08:25:52Z</time>
      </trkpt>
      <trkpt lat="43.40299" lon="-0.52469">
        <ele>185</ele>
        <time>2013-05-06T08:25:53Z</time>
      </trkpt>
      <trkpt lat="43.403" lon="-0.52472">
        <ele>185</ele>
        <time>2013-05-06T08:25:54Z</time>
      </trkpt>
      <trkpt lat="43.40302" lon="-0.52474">
        <ele>185</ele>
        <time>2013-05-06T08:25:55Z</time>
      </trkpt>
      <trkpt lat="43.40303" lon="-0.52476">
        <ele>184</ele>
        <time>2013-05-06T08:25:56Z</time>
      </trkpt>
      <trkpt lat="43.40305" lon="-0.52479">
        <ele>183</ele>
        <time>2013-05-06T08:25:57Z</time>
      </trkpt>
      <trkpt lat="43.40306" lon="-0.52482">
        <ele>183</ele>
        <time>2013-05-06T08:25:58Z</time>
      </trkpt>
      <trkpt lat="43.40307" lon="-0.52486">
        <ele>183</ele>
        <time>2013-05-06T08:25:59Z</time>
      </trkpt>
      <trkpt lat="43.40309" lon="-0.5249">
        <ele>182</ele>
        <time>2013-05-06T08:26:00Z</time>
      </trkpt>
      <trkpt lat="43.4031" lon="-0.52495">
        <ele>182</ele>
        <time>2013-05-06T08:26:01Z</time>
      </trkpt>
      <trkpt lat="43.40311" lon="-0.525">
        <ele>180</ele>
        <time>2013-05-06T08:26:02Z</time>
      </trkpt>
      <trkpt lat="43.40313" lon="-0.52505">
        <ele>180</ele>
        <time>2013-05-06T08:26:03Z</time>
      </trkpt>
      <trkpt lat="43.40315" lon="-0.5251">
        <ele>180</ele>
        <time>2013-05-06T08:26:04Z</time>
      </trkpt>
      <trkpt lat="43.40316" lon="-0.52514">
        <ele>180</ele>
        <time>2013-05-06T08:26:05Z</time>
      </trkpt>
      <trkpt lat="43.40317" lon="-0.52519">
        <ele>180</ele>
        <time>2013-05-06T08:26:06Z</time>
      </trkpt>
      <trkpt lat="43.40318" lon="-0.52523">
        <ele>180</ele>
        <time>2013-05-06T08:26:07Z</time>
      </trkpt>
      <trkpt lat="43.40318" lon="-0.52528">
        <ele>180</ele>
        <time>2013-05-06T08:26:08Z</time>
      </trkpt>
      <trkpt lat="43.40319" lon="-0.52532">
        <ele>181</ele>
        <time>2013-05-06T08:26:09Z</time>
      </trkpt>
      <trkpt lat="43.4032" lon="-0.52536">
        <ele>180</ele>
        <time>2013-05-06T08:26:10Z</time>
      </trkpt>
      <trkpt lat="43.40322" lon="-0.52539">
        <ele>180</ele>
        <time>2013-05-06T08:26:11Z</time>
      </trkpt>
      <trkpt lat="43.40325" lon="-0.52541">
        <ele>180</ele>
        <time>2013-05-06T08:26:12Z</time>
      </trkpt>
      <trkpt lat="43.40327" lon="-0.52542">
        <ele>180</ele>
        <time>2013-05-06T08:26:13Z</time>
      </trkpt>
      <trkpt lat="43.40329" lon="-0.52543">
        <ele>180</ele>
        <time>2013-05-06T08:26:14Z</time>
      </trkpt>
      <trkpt lat="43.40331" lon="-0.52545">
        <ele>180</ele>
        <time>2013-05-06T08:26:15Z</time>
      </trkpt>
      <trkpt lat="43.40333" lon="-0.52548">
        <ele>179</ele>
        <time>2013-05-06T08:26:16Z</time>
      </trkpt>
      <trkpt lat="43.40334" lon="-0.5255">
        <ele>179</ele>
        <time>2013-05-06T08:26:17Z</time>
      </trkpt>
      <trkpt lat="43.40334" lon="-0.52554">
        <ele>180</ele>
        <time>2013-05-06T08:26:18Z</time>
      </trkpt>
      <trkpt lat="43.40334" lon="-0.52557">
        <ele>179</ele>
        <time>2013-05-06T08:26:19Z</time>
      </trkpt>
      <trkpt lat="43.40335" lon="-0.5256">
        <ele>179</ele>
        <time>2013-05-06T08:26:20Z</time>
      </trkpt>
      <trkpt lat="43.40336" lon="-0.52562">
        <ele>179</ele>
        <time>2013-05-06T08:26:21Z</time>
      </trkpt>
      <trkpt lat="43.40337" lon="-0.52564">
        <ele>178</ele>
        <time>2013-05-06T08:26:22Z</time>
      </trkpt>
      <trkpt lat="43.40338" lon="-0.52566">
        <ele>178</ele>
        <time>2013-05-06T08:26:23Z</time>
      </trkpt>
      <trkpt lat="43.40339" lon="-0.52568">
        <ele>177</ele>
        <time>2013-05-06T08:26:24Z</time>
      </trkpt>
      <trkpt lat="43.4034" lon="-0.5257">
        <ele>177</ele>
        <time>2013-05-06T08:26:25Z</time>
      </trkpt>
      <trkpt lat="43.40341" lon="-0.52572">
        <ele>177</ele>
        <time>2013-05-06T08:26:26Z</time>
      </trkpt>
      <trkpt lat="43.40342" lon="-0.52574">
        <ele>177</ele>
        <time>2013-05-06T08:26:27Z</time>
      </trkpt>
      <trkpt lat="43.40342" lon="-0.52576">
        <ele>176</ele>
        <time>2013-05-06T08:26:28Z</time>
      </trkpt>
      <trkpt lat="43.40343" lon="-0.52579">
        <ele>177</ele>
        <time>2013-05-06T08:26:29Z</time>
      </trkpt>
      <trkpt lat="43.40343" lon="-0.52582">
        <ele>177</ele>
        <time>2013-05-06T08:26:30Z</time>
      </trkpt>
      <trkpt lat="43.40344" lon="-0.52586">
        <ele>176</ele>
        <time>2013-05-06T08:26:31Z</time>
      </trkpt>
      <trkpt lat="43.40344" lon="-0.5259">
        <ele>175</ele>
        <time>2013-05-06T08:26:32Z</time>
      </trkpt>
      <trkpt lat="43.40345" lon="-0.52594">
        <ele>176</ele>
        <time>2013-05-06T08:26:33Z</time>
      </trkpt>
      <trkpt lat="43.40346" lon="-0.52598">
        <ele>176</ele>
        <time>2013-05-06T08:26:34Z</time>
      </trkpt>
      <trkpt lat="43.40347" lon="-0.52602">
        <ele>175</ele>
        <time>2013-05-06T08:26:35Z</time>
      </trkpt>
      <trkpt lat="43.40348" lon="-0.52606">
        <ele>176</ele>
        <time>2013-05-06T08:26:36Z</time>
      </trkpt>
      <trkpt lat="43.40349" lon="-0.5261">
        <ele>176</ele>
        <time>2013-05-06T08:26:37Z</time>
      </trkpt>
      <trkpt lat="43.4035" lon="-0.52614">
        <ele>175</ele>
        <time>2013-05-06T08:26:38Z</time>
      </trkpt>
      <trkpt lat="43.40351" lon="-0.52617">
        <ele>176</ele>
        <time>2013-05-06T08:26:39Z</time>
      </trkpt>
      <trkpt lat="43.40352" lon="-0.5262">
        <ele>176</ele>
        <time>2013-05-06T08:26:40Z</time>
      </trkpt>
      <trkpt lat="43.40353" lon="-0.52623">
        <ele>175</ele>
        <time>2013-05-06T08:26:41Z</time>
      </trkpt>
      <trkpt lat="43.40353" lon="-0.52626">
        <ele>176</ele>
        <time>2013-05-06T08:26:42Z</time>
      </trkpt>
      <trkpt lat="43.40353" lon="-0.52629">
        <ele>176</ele>
        <time>2013-05-06T08:26:43Z</time>
      </trkpt>
      <trkpt lat="43.40354" lon="-0.52633">
        <ele>176</ele>
        <time>2013-05-06T08:26:44Z</time>
      </trkpt>
      <trkpt lat="43.40354" lon="-0.52637">
        <ele>176</ele>
        <time>2013-05-06T08:26:45Z</time>
      </trkpt>
      <trkpt lat="43.40355" lon="-0.52641">
        <ele>176</ele>
        <time>2013-05-06T08:26:46Z</time>
      </trkpt>
      <trkpt lat="43.40355" lon="-0.52646">
        <ele>175</ele>
        <time>2013-05-06T08:26:47Z</time>
      </trkpt>
      <trkpt lat="43.40355" lon="-0.52651">
        <ele>176</ele>
        <time>2013-05-06T08:26:48Z</time>
      </trkpt>
      <trkpt lat="43.40354" lon="-0.52655">
        <ele>176</ele>
        <time>2013-05-06T08:26:49Z</time>
      </trkpt>
      <trkpt lat="43.40353" lon="-0.52659">
        <ele>175</ele>
        <time>2013-05-06T08:26:50Z</time>
      </trkpt>
      <trkpt lat="43.40353" lon="-0.52662">
        <ele>176</ele>
        <time>2013-05-06T08:26:51Z</time>
      </trkpt>
      <trkpt lat="43.40352" lon="-0.52666">
        <ele>175</ele>
        <time>2013-05-06T08:26:52Z</time>
      </trkpt>
      <trkpt lat="43.40351" lon="-0.52669">
        <ele>176</ele>
        <time>2013-05-06T08:26:53Z</time>
      </trkpt>
      <trkpt lat="43.4035" lon="-0.52672">
        <ele>176</ele>
        <time>2013-05-06T08:26:54Z</time>
      </trkpt>
      <trkpt lat="43.40349" lon="-0.52675">
        <ele>175</ele>
        <time>2013-05-06T08:26:55Z</time>
      </trkpt>
      <trkpt lat="43.40348" lon="-0.52678">
        <ele>175</ele>
        <time>2013-05-06T08:26:56Z</time>
      </trkpt>
      <trkpt lat="43.40348" lon="-0.5268">
        <ele>174</ele>
        <time>2013-05-06T08:26:57Z</time>
      </trkpt>
      <trkpt lat="43.40348" lon="-0.52683">
        <ele>174</ele>
        <time>2013-05-06T08:26:58Z</time>
      </trkpt>
      <trkpt lat="43.40348" lon="-0.52686">
        <ele>174</ele>
        <time>2013-05-06T08:26:59Z</time>
      </trkpt>
      <trkpt lat="43.40348" lon="-0.52689">
        <ele>175</ele>
        <time>2013-05-06T08:27:00Z</time>
      </trkpt>
      <trkpt lat="43.40348" lon="-0.52692">
        <ele>176</ele>
        <time>2013-05-06T08:27:01Z</time>
      </trkpt>
      <trkpt lat="43.40349" lon="-0.52695">
        <ele>176</ele>
        <time>2013-05-06T08:27:02Z</time>
      </trkpt>
      <trkpt lat="43.40349" lon="-0.52698">
        <ele>177</ele>
        <time>2013-05-06T08:27:03Z</time>
      </trkpt>
      <trkpt lat="43.40349" lon="-0.52702">
        <ele>176</ele>
        <time>2013-05-06T08:27:04Z</time>
      </trkpt>
      <trkpt lat="43.40349" lon="-0.52705">
        <ele>177</ele>
        <time>2013-05-06T08:27:05Z</time>
      </trkpt>
      <trkpt lat="43.40349" lon="-0.52708">
        <ele>177</ele>
        <time>2013-05-06T08:27:06Z</time>
      </trkpt>
      <trkpt lat="43.40349" lon="-0.52712">
        <ele>177</ele>
        <time>2013-05-06T08:27:07Z</time>
      </trkpt>
      <trkpt lat="43.4035" lon="-0.52715">
        <ele>177</ele>
        <time>2013-05-06T08:27:08Z</time>
      </trkpt>
      <trkpt lat="43.4035" lon="-0.52718">
        <ele>177</ele>
        <time>2013-05-06T08:27:09Z</time>
      </trkpt>
      <trkpt lat="43.4035" lon="-0.52721">
        <ele>177</ele>
        <time>2013-05-06T08:27:10Z</time>
      </trkpt>
      <trkpt lat="43.40351" lon="-0.52724">
        <ele>178</ele>
        <time>2013-05-06T08:27:11Z</time>
      </trkpt>
      <trkpt lat="43.40351" lon="-0.52726">
        <ele>176</ele>
        <time>2013-05-06T08:27:12Z</time>
      </trkpt>
      <trkpt lat="43.40351" lon="-0.52729">
        <ele>177</ele>
        <time>2013-05-06T08:27:13Z</time>
      </trkpt>
      <trkpt lat="43.40351" lon="-0.52731">
        <ele>177</ele>
        <time>2013-05-06T08:27:14Z</time>
      </trkpt>
      <trkpt lat="43.40351" lon="-0.52735">
        <ele>177</ele>
        <time>2013-05-06T08:27:15Z</time>
      </trkpt>
      <trkpt lat="43.4035" lon="-0.52738">
        <ele>177</ele>
        <time>2013-05-06T08:27:16Z</time>
      </trkpt>
      <trkpt lat="43.40349" lon="-0.52741">
        <ele>178</ele>
        <time>2013-05-06T08:27:17Z</time>
      </trkpt>
      <trkpt lat="43.40348" lon="-0.52744">
        <ele>177</ele>
        <time>2013-05-06T08:27:18Z</time>
      </trkpt>
      <trkpt lat="43.40347" lon="-0.52746">
        <ele>177</ele>
        <time>2013-05-06T08:27:19Z</time>
      </trkpt>
      <trkpt lat="43.40345" lon="-0.52747">
        <ele>177</ele>
        <time>2013-05-06T08:27:20Z</time>
      </trkpt>
      <trkpt lat="43.40344" lon="-0.52749">
        <ele>178</ele>
        <time>2013-05-06T08:27:21Z</time>
      </trkpt>
      <trkpt lat="43.40343" lon="-0.5275">
        <ele>178</ele>
        <time>2013-05-06T08:27:22Z</time>
      </trkpt>
      <trkpt lat="43.40343" lon="-0.52752">
        <ele>178</ele>
        <time>2013-05-06T08:27:23Z</time>
      </trkpt>
      <trkpt lat="43.40342" lon="-0.52755">
        <ele>178</ele>
        <time>2013-05-06T08:27:24Z</time>
      </trkpt>
      <trkpt lat="43.40342" lon="-0.52757">
        <ele>179</ele>
        <time>2013-05-06T08:27:25Z</time>
      </trkpt>
      <trkpt lat="43.40342" lon="-0.5276">
        <ele>178</ele>
        <time>2013-05-06T08:27:26Z</time>
      </trkpt>
      <trkpt lat="43.40342" lon="-0.52763">
        <ele>178</ele>
        <time>2013-05-06T08:27:27Z</time>
      </trkpt>
      <trkpt lat="43.40341" lon="-0.52766">
        <ele>178</ele>
        <time>2013-05-06T08:27:28Z</time>
      </trkpt>
      <trkpt lat="43.40341" lon="-0.52768">
        <ele>179</ele>
        <time>2013-05-06T08:27:29Z</time>
      </trkpt>
      <trkpt lat="43.40341" lon="-0.52771">
        <ele>178</ele>
        <time>2013-05-06T08:27:30Z</time>
      </trkpt>
      <trkpt lat="43.40341" lon="-0.52773">
        <ele>179</ele>
        <time>2013-05-06T08:27:31Z</time>
      </trkpt>
      <trkpt lat="43.40341" lon="-0.52775">
        <ele>179</ele>
        <time>2013-05-06T08:27:32Z</time>
      </trkpt>
      <trkpt lat="43.40342" lon="-0.52778">
        <ele>180</ele>
        <time>2013-05-06T08:27:33Z</time>
      </trkpt>
      <trkpt lat="43.40342" lon="-0.5278">
        <ele>181</ele>
        <time>2013-05-06T08:27:34Z</time>
      </trkpt>
      <trkpt lat="43.40342" lon="-0.52784">
        <ele>181</ele>
        <time>2013-05-06T08:27:35Z</time>
      </trkpt>
      <trkpt lat="43.40342" lon="-0.52787">
        <ele>181</ele>
        <time>2013-05-06T08:27:36Z</time>
      </trkpt>
      <trkpt lat="43.40342" lon="-0.52791">
        <ele>180</ele>
        <time>2013-05-06T08:27:37Z</time>
      </trkpt>
      <trkpt lat="43.40343" lon="-0.52795">
        <ele>181</ele>
        <time>2013-05-06T08:27:38Z</time>
      </trkpt>
      <trkpt lat="43.40343" lon="-0.52798">
        <ele>180</ele>
        <time>2013-05-06T08:27:39Z</time>
      </trkpt>
      <trkpt lat="43.40343" lon="-0.52802">
        <ele>180</ele>
        <time>2013-05-06T08:27:40Z</time>
      </trkpt>
      <trkpt lat="43.40343" lon="-0.52805">
        <ele>180</ele>
        <time>2013-05-06T08:27:41Z</time>
      </trkpt>
      <trkpt lat="43.40343" lon="-0.52809">
        <ele>181</ele>
        <time>2013-05-06T08:27:42Z</time>
      </trkpt>
      <trkpt lat="43.40342" lon="-0.52812">
        <ele>181</ele>
        <time>2013-05-06T08:27:43Z</time>
      </trkpt>
      <trkpt lat="43.40342" lon="-0.52815">
        <ele>181</ele>
        <time>2013-05-06T08:27:44Z</time>
      </trkpt>
      <trkpt lat="43.40342" lon="-0.52819">
        <ele>182</ele>
        <time>2013-05-06T08:27:45Z</time>
      </trkpt>
      <trkpt lat="43.40342" lon="-0.52822">
        <ele>182</ele>
        <time>2013-05-06T08:27:46Z</time>
      </trkpt>
      <trkpt lat="43.40342" lon="-0.52826">
        <ele>183</ele>
        <time>2013-05-06T08:27:47Z</time>
      </trkpt>
      <trkpt lat="43.40342" lon="-0.52829">
        <ele>184</ele>
        <time>2013-05-06T08:27:48Z</time>
      </trkpt>
      <trkpt lat="43.40342" lon="-0.52832">
        <ele>182</ele>
        <time>2013-05-06T08:27:49Z</time>
      </trkpt>
      <trkpt lat="43.40341" lon="-0.52837">
        <ele>182</ele>
        <time>2013-05-06T08:27:50Z</time>
      </trkpt>
      <trkpt lat="43.40341" lon="-0.52841">
        <ele>181</ele>
        <time>2013-05-06T08:27:51Z</time>
      </trkpt>
      <trkpt lat="43.4034" lon="-0.52845">
        <ele>181</ele>
        <time>2013-05-06T08:27:52Z</time>
      </trkpt>
      <trkpt lat="43.40339" lon="-0.5285">
        <ele>181</ele>
        <time>2013-05-06T08:27:53Z</time>
      </trkpt>
      <trkpt lat="43.40339" lon="-0.52854">
        <ele>180</ele>
        <time>2013-05-06T08:27:54Z</time>
      </trkpt>
      <trkpt lat="43.40339" lon="-0.52858">
        <ele>180</ele>
        <time>2013-05-06T08:27:55Z</time>
      </trkpt>
      <trkpt lat="43.40338" lon="-0.52862">
        <ele>179</ele>
        <time>2013-05-06T08:27:56Z</time>
      </trkpt>
      <trkpt lat="43.40337" lon="-0.52866">
        <ele>179</ele>
        <time>2013-05-06T08:27:57Z</time>
      </trkpt>
      <trkpt lat="43.40337" lon="-0.52869">
        <ele>179</ele>
        <time>2013-05-06T08:27:58Z</time>
      </trkpt>
      <trkpt lat="43.40336" lon="-0.52872">
        <ele>179</ele>
        <time>2013-05-06T08:27:59Z</time>
      </trkpt>
      <trkpt lat="43.40336" lon="-0.52875">
        <ele>180</ele>
        <time>2013-05-06T08:28:00Z</time>
      </trkpt>
      <trkpt lat="43.40335" lon="-0.52878">
        <ele>181</ele>
        <time>2013-05-06T08:28:01Z</time>
      </trkpt>
      <trkpt lat="43.40334" lon="-0.52881">
        <ele>180</ele>
        <time>2013-05-06T08:28:02Z</time>
      </trkpt>
      <trkpt lat="43.40334" lon="-0.52883">
        <ele>180</ele>
        <time>2013-05-06T08:28:03Z</time>
      </trkpt>
      <trkpt lat="43.40333" lon="-0.52886">
        <ele>181</ele>
        <time>2013-05-06T08:28:04Z</time>
      </trkpt>
      <trkpt lat="43.40333" lon="-0.52889">
        <ele>181</ele>
        <time>2013-05-06T08:28:05Z</time>
      </trkpt>
      <trkpt lat="43.40333" lon="-0.52892">
        <ele>181</ele>
        <time>2013-05-06T08:28:06Z</time>
      </trkpt>
      <trkpt lat="43.40333" lon="-0.52895">
        <ele>180</ele>
        <time>2013-05-06T08:28:07Z</time>
      </trkpt>
      <trkpt lat="43.40333" lon="-0.52898">
        <ele>180</ele>
        <time>2013-05-06T08:28:08Z</time>
      </trkpt>
      <trkpt lat="43.40334" lon="-0.52902">
        <ele>180</ele>
        <time>2013-05-06T08:28:09Z</time>
      </trkpt>
      <trkpt lat="43.40334" lon="-0.52905">
        <ele>181</ele>
        <time>2013-05-06T08:28:10Z</time>
      </trkpt>
      <trkpt lat="43.40334" lon="-0.52908">
        <ele>181</ele>
        <time>2013-05-06T08:28:11Z</time>
      </trkpt>
      <trkpt lat="43.40335" lon="-0.52911">
        <ele>182</ele>
        <time>2013-05-06T08:28:12Z</time>
      </trkpt>
      <trkpt lat="43.40336" lon="-0.52915">
        <ele>182</ele>
        <time>2013-05-06T08:28:13Z</time>
      </trkpt>
      <trkpt lat="43.40336" lon="-0.52918">
        <ele>183</ele>
        <time>2013-05-06T08:28:14Z</time>
      </trkpt>
      <trkpt lat="43.40337" lon="-0.52921">
        <ele>183</ele>
        <time>2013-05-06T08:28:15Z</time>
      </trkpt>
      <trkpt lat="43.40337" lon="-0.52925">
        <ele>184</ele>
        <time>2013-05-06T08:28:16Z</time>
      </trkpt>
      <trkpt lat="43.40338" lon="-0.52928">
        <ele>183</ele>
        <time>2013-05-06T08:28:17Z</time>
      </trkpt>
      <trkpt lat="43.40338" lon="-0.52931">
        <ele>184</ele>
        <time>2013-05-06T08:28:18Z</time>
      </trkpt>
      <trkpt lat="43.40339" lon="-0.52934">
        <ele>184</ele>
        <time>2013-05-06T08:28:19Z</time>
      </trkpt>
      <trkpt lat="43.40339" lon="-0.52937">
        <ele>184</ele>
        <time>2013-05-06T08:28:20Z</time>
      </trkpt>
      <trkpt lat="43.4034" lon="-0.52941">
        <ele>185</ele>
        <time>2013-05-06T08:28:21Z</time>
      </trkpt>
      <trkpt lat="43.4034" lon="-0.52945">
        <ele>183</ele>
        <time>2013-05-06T08:28:22Z</time>
      </trkpt>
      <trkpt lat="43.40341" lon="-0.52948">
        <ele>184</ele>
        <time>2013-05-06T08:28:23Z</time>
      </trkpt>
      <trkpt lat="43.40342" lon="-0.52952">
        <ele>185</ele>
        <time>2013-05-06T08:28:24Z</time>
      </trkpt>
      <trkpt lat="43.40342" lon="-0.52956">
        <ele>185</ele>
        <time>2013-05-06T08:28:25Z</time>
      </trkpt>
      <trkpt lat="43.40342" lon="-0.52958">
        <ele>185</ele>
        <time>2013-05-06T08:28:26Z</time>
      </trkpt>
      <trkpt lat="43.40342" lon="-0.52961">
        <ele>186</ele>
        <time>2013-05-06T08:28:27Z</time>
      </trkpt>
      <trkpt lat="43.40342" lon="-0.52963">
        <ele>186</ele>
        <time>2013-05-06T08:28:28Z</time>
      </trkpt>
      <trkpt lat="43.40342" lon="-0.52965">
        <ele>186</ele>
        <time>2013-05-06T08:28:29Z</time>
      </trkpt>
      <trkpt lat="43.40343" lon="-0.52967">
        <ele>187</ele>
        <time>2013-05-06T08:28:30Z</time>
      </trkpt>
      <trkpt lat="43.40344" lon="-0.5297">
        <ele>187</ele>
        <time>2013-05-06T08:28:31Z</time>
      </trkpt>
      <trkpt lat="43.40345" lon="-0.52974">
        <ele>188</ele>
        <time>2013-05-06T08:28:32Z</time>
      </trkpt>
      <trkpt lat="43.40346" lon="-0.52978">
        <ele>187</ele>
        <time>2013-05-06T08:28:33Z</time>
      </trkpt>
      <trkpt lat="43.40347" lon="-0.52981">
        <ele>187</ele>
        <time>2013-05-06T08:28:34Z</time>
      </trkpt>
      <trkpt lat="43.40348" lon="-0.52985">
        <ele>187</ele>
        <time>2013-05-06T08:28:35Z</time>
      </trkpt>
      <trkpt lat="43.40348" lon="-0.52988">
        <ele>187</ele>
        <time>2013-05-06T08:28:36Z</time>
      </trkpt>
      <trkpt lat="43.40349" lon="-0.52992">
        <ele>187</ele>
        <time>2013-05-06T08:28:37Z</time>
      </trkpt>
      <trkpt lat="43.4035" lon="-0.52995">
        <ele>187</ele>
        <time>2013-05-06T08:28:38Z</time>
      </trkpt>
      <trkpt lat="43.40351" lon="-0.52999">
        <ele>188</ele>
        <time>2013-05-06T08:28:39Z</time>
      </trkpt>
      <trkpt lat="43.40352" lon="-0.53003">
        <ele>187</ele>
        <time>2013-05-06T08:28:40Z</time>
      </trkpt>
      <trkpt lat="43.40353" lon="-0.53007">
        <ele>187</ele>
        <time>2013-05-06T08:28:41Z</time>
      </trkpt>
      <trkpt lat="43.40354" lon="-0.53011">
        <ele>187</ele>
        <time>2013-05-06T08:28:42Z</time>
      </trkpt>
      <trkpt lat="43.40356" lon="-0.53015">
        <ele>187</ele>
        <time>2013-05-06T08:28:43Z</time>
      </trkpt>
      <trkpt lat="43.40358" lon="-0.53018">
        <ele>188</ele>
        <time>2013-05-06T08:28:44Z</time>
      </trkpt>
      <trkpt lat="43.40359" lon="-0.53022">
        <ele>189</ele>
        <time>2013-05-06T08:28:45Z</time>
      </trkpt>
      <trkpt lat="43.4036" lon="-0.53026">
        <ele>189</ele>
        <time>2013-05-06T08:28:46Z</time>
      </trkpt>
      <trkpt lat="43.40362" lon="-0.53029">
        <ele>190</ele>
        <time>2013-05-06T08:28:47Z</time>
      </trkpt>
      <trkpt lat="43.40363" lon="-0.53034">
        <ele>189</ele>
        <time>2013-05-06T08:28:48Z</time>
      </trkpt>
      <trkpt lat="43.40364" lon="-0.53037">
        <ele>189</ele>
        <time>2013-05-06T08:28:49Z</time>
      </trkpt>
      <trkpt lat="43.40364" lon="-0.5304">
        <ele>189</ele>
        <time>2013-05-06T08:28:50Z</time>
      </trkpt>
      <trkpt lat="43.40365" lon="-0.53042">
        <ele>189</ele>
        <time>2013-05-06T08:28:51Z</time>
      </trkpt>
      <trkpt lat="43.40366" lon="-0.53045">
        <ele>189</ele>
        <time>2013-05-06T08:28:52Z</time>
      </trkpt>
      <trkpt lat="43.40368" lon="-0.53047">
        <ele>189</ele>
        <time>2013-05-06T08:28:53Z</time>
      </trkpt>
      <trkpt lat="43.40368" lon="-0.5305">
        <ele>189</ele>
        <time>2013-05-06T08:28:54Z</time>
      </trkpt>
      <trkpt lat="43.40369" lon="-0.53053">
        <ele>189</ele>
        <time>2013-05-06T08:28:55Z</time>
      </trkpt>
      <trkpt lat="43.40369" lon="-0.53057">
        <ele>189</ele>
        <time>2013-05-06T08:28:56Z</time>
      </trkpt>
      <trkpt lat="43.4037" lon="-0.5306">
        <ele>190</ele>
        <time>2013-05-06T08:28:57Z</time>
      </trkpt>
      <trkpt lat="43.40371" lon="-0.53063">
        <ele>191</ele>
        <time>2013-05-06T08:28:58Z</time>
      </trkpt>
      <trkpt lat="43.40373" lon="-0.53067">
        <ele>191</ele>
        <time>2013-05-06T08:28:59Z</time>
      </trkpt>
      <trkpt lat="43.40373" lon="-0.5307">
        <ele>191</ele>
        <time>2013-05-06T08:29:00Z</time>
      </trkpt>
      <trkpt lat="43.40374" lon="-0.53074">
        <ele>190</ele>
        <time>2013-05-06T08:29:01Z</time>
      </trkpt>
      <trkpt lat="43.40376" lon="-0.53079">
        <ele>190</ele>
        <time>2013-05-06T08:29:02Z</time>
      </trkpt>
      <trkpt lat="43.40377" lon="-0.53082">
        <ele>190</ele>
        <time>2013-05-06T08:29:03Z</time>
      </trkpt>
      <trkpt lat="43.40378" lon="-0.53086">
        <ele>190</ele>
        <time>2013-05-06T08:29:04Z</time>
      </trkpt>
      <trkpt lat="43.40379" lon="-0.53089">
        <ele>191</ele>
        <time>2013-05-06T08:29:05Z</time>
      </trkpt>
      <trkpt lat="43.40379" lon="-0.53092">
        <ele>191</ele>
        <time>2013-05-06T08:29:06Z</time>
      </trkpt>
      <trkpt lat="43.4038" lon="-0.53096">
        <ele>191</ele>
        <time>2013-05-06T08:29:07Z</time>
      </trkpt>
      <trkpt lat="43.40381" lon="-0.531">
        <ele>191</ele>
        <time>2013-05-06T08:29:08Z</time>
      </trkpt>
      <trkpt lat="43.40381" lon="-0.53103">
        <ele>190</ele>
        <time>2013-05-06T08:29:09Z</time>
      </trkpt>
      <trkpt lat="43.4038" lon="-0.53106">
        <ele>191</ele>
        <time>2013-05-06T08:29:10Z</time>
      </trkpt>
      <trkpt lat="43.4038" lon="-0.53109">
        <ele>192</ele>
        <time>2013-05-06T08:29:11Z</time>
      </trkpt>
      <trkpt lat="43.4038" lon="-0.53112">
        <ele>192</ele>
        <time>2013-05-06T08:29:12Z</time>
      </trkpt>
      <trkpt lat="43.40379" lon="-0.53115">
        <ele>192</ele>
        <time>2013-05-06T08:29:13Z</time>
      </trkpt>
      <trkpt lat="43.40379" lon="-0.53118">
        <ele>192</ele>
        <time>2013-05-06T08:29:14Z</time>
      </trkpt>
      <trkpt lat="43.40379" lon="-0.5312">
        <ele>192</ele>
        <time>2013-05-06T08:29:15Z</time>
      </trkpt>
      <trkpt lat="43.40379" lon="-0.53124">
        <ele>192</ele>
        <time>2013-05-06T08:29:16Z</time>
      </trkpt>
      <trkpt lat="43.40379" lon="-0.53127">
        <ele>192</ele>
        <time>2013-05-06T08:29:17Z</time>
      </trkpt>
      <trkpt lat="43.40379" lon="-0.53131">
        <ele>192</ele>
        <time>2013-05-06T08:29:18Z</time>
      </trkpt>
      <trkpt lat="43.40379" lon="-0.53136">
        <ele>192</ele>
        <time>2013-05-06T08:29:19Z</time>
      </trkpt>
      <trkpt lat="43.40379" lon="-0.53141">
        <ele>192</ele>
        <time>2013-05-06T08:29:20Z</time>
      </trkpt>
      <trkpt lat="43.40378" lon="-0.53148">
        <ele>193</ele>
        <time>2013-05-06T08:29:21Z</time>
      </trkpt>
      <trkpt lat="43.40378" lon="-0.53155">
        <ele>192</ele>
        <time>2013-05-06T08:29:22Z</time>
      </trkpt>
      <trkpt lat="43.40377" lon="-0.53163">
        <ele>192</ele>
        <time>2013-05-06T08:29:23Z</time>
      </trkpt>
      <trkpt lat="43.40377" lon="-0.5317">
        <ele>193</ele>
        <time>2013-05-06T08:29:24Z</time>
      </trkpt>
      <trkpt lat="43.40376" lon="-0.53177">
        <ele>192</ele>
        <time>2013-05-06T08:29:25Z</time>
      </trkpt>
      <trkpt lat="43.40376" lon="-0.53184">
        <ele>193</ele>
        <time>2013-05-06T08:29:26Z</time>
      </trkpt>
      <trkpt lat="43.40376" lon="-0.53191">
        <ele>193</ele>
        <time>2013-05-06T08:29:27Z</time>
      </trkpt>
      <trkpt lat="43.40376" lon="-0.53197">
        <ele>193</ele>
        <time>2013-05-06T08:29:28Z</time>
      </trkpt>
      <trkpt lat="43.40376" lon="-0.53202">
        <ele>194</ele>
        <time>2013-05-06T08:29:29Z</time>
      </trkpt>
      <trkpt lat="43.40376" lon="-0.53207">
        <ele>195</ele>
        <time>2013-05-06T08:29:30Z</time>
      </trkpt>
      <trkpt lat="43.40377" lon="-0.5321">
        <ele>195</ele>
        <time>2013-05-06T08:29:31Z</time>
      </trkpt>
      <trkpt lat="43.40377" lon="-0.53214">
        <ele>196</ele>
        <time>2013-05-06T08:29:32Z</time>
      </trkpt>
      <trkpt lat="43.40378" lon="-0.53217">
        <ele>197</ele>
        <time>2013-05-06T08:29:33Z</time>
      </trkpt>
      <trkpt lat="43.40379" lon="-0.53221">
        <ele>197</ele>
        <time>2013-05-06T08:29:34Z</time>
      </trkpt>
      <trkpt lat="43.40381" lon="-0.53224">
        <ele>197</ele>
        <time>2013-05-06T08:29:35Z</time>
      </trkpt>
      <trkpt lat="43.40382" lon="-0.53228">
        <ele>196</ele>
        <time>2013-05-06T08:29:36Z</time>
      </trkpt>
      <trkpt lat="43.40383" lon="-0.53232">
        <ele>194</ele>
        <time>2013-05-06T08:29:37Z</time>
      </trkpt>
      <trkpt lat="43.40384" lon="-0.53237">
        <ele>192</ele>
        <time>2013-05-06T08:29:38Z</time>
      </trkpt>
      <trkpt lat="43.40385" lon="-0.53241">
        <ele>193</ele>
        <time>2013-05-06T08:29:39Z</time>
      </trkpt>
      <trkpt lat="43.40386" lon="-0.53247">
        <ele>193</ele>
        <time>2013-05-06T08:29:40Z</time>
      </trkpt>
      <trkpt lat="43.40387" lon="-0.53252">
        <ele>193</ele>
        <time>2013-05-06T08:29:41Z</time>
      </trkpt>
      <trkpt lat="43.40388" lon="-0.53256">
        <ele>192</ele>
        <time>2013-05-06T08:29:42Z</time>
      </trkpt>
      <trkpt lat="43.40389" lon="-0.5326">
        <ele>193</ele>
        <time>2013-05-06T08:29:43Z</time>
      </trkpt>
      <trkpt lat="43.4039" lon="-0.53264">
        <ele>194</ele>
        <time>2013-05-06T08:29:44Z</time>
      </trkpt>
      <trkpt lat="43.40391" lon="-0.53267">
        <ele>194</ele>
        <time>2013-05-06T08:29:45Z</time>
      </trkpt>
      <trkpt lat="43.40392" lon="-0.53271">
        <ele>195</ele>
        <time>2013-05-06T08:29:46Z</time>
      </trkpt>
      <trkpt lat="43.40393" lon="-0.53274">
        <ele>195</ele>
        <time>2013-05-06T08:29:47Z</time>
      </trkpt>
      <trkpt lat="43.40394" lon="-0.53278">
        <ele>195</ele>
        <time>2013-05-06T08:29:48Z</time>
      </trkpt>
      <trkpt lat="43.40395" lon="-0.53282">
        <ele>195</ele>
        <time>2013-05-06T08:29:49Z</time>
      </trkpt>
      <trkpt lat="43.40395" lon="-0.53285">
        <ele>195</ele>
        <time>2013-05-06T08:29:50Z</time>
      </trkpt>
      <trkpt lat="43.40397" lon="-0.53289">
        <ele>193</ele>
        <time>2013-05-06T08:29:51Z</time>
      </trkpt>
      <trkpt lat="43.40397" lon="-0.53292">
        <ele>193</ele>
        <time>2013-05-06T08:29:52Z</time>
      </trkpt>
      <trkpt lat="43.40398" lon="-0.53296">
        <ele>193</ele>
        <time>2013-05-06T08:29:53Z</time>
      </trkpt>
      <trkpt lat="43.40399" lon="-0.53299">
        <ele>193</ele>
        <time>2013-05-06T08:29:54Z</time>
      </trkpt>
      <trkpt lat="43.404" lon="-0.53303">
        <ele>192</ele>
        <time>2013-05-06T08:29:55Z</time>
      </trkpt>
      <trkpt lat="43.404" lon="-0.53306">
        <ele>193</ele>
        <time>2013-05-06T08:29:56Z</time>
      </trkpt>
      <trkpt lat="43.40402" lon="-0.5331">
        <ele>194</ele>
        <time>2013-05-06T08:29:57Z</time>
      </trkpt>
      <trkpt lat="43.40402" lon="-0.53313">
        <ele>195</ele>
        <time>2013-05-06T08:29:58Z</time>
      </trkpt>
      <trkpt lat="43.40404" lon="-0.53317">
        <ele>194</ele>
        <time>2013-05-06T08:29:59Z</time>
      </trkpt>
      <trkpt lat="43.40405" lon="-0.53321">
        <ele>194</ele>
        <time>2013-05-06T08:30:00Z</time>
      </trkpt>
      <trkpt lat="43.40406" lon="-0.53324">
        <ele>194</ele>
        <time>2013-05-06T08:30:01Z</time>
      </trkpt>
      <trkpt lat="43.40406" lon="-0.53326">
        <ele>191</ele>
        <time>2013-05-06T08:30:02Z</time>
      </trkpt>
      <trkpt lat="43.40407" lon="-0.5333">
        <ele>193</ele>
        <time>2013-05-06T08:30:03Z</time>
      </trkpt>
      <trkpt lat="43.40407" lon="-0.53333">
        <ele>195</ele>
        <time>2013-05-06T08:30:04Z</time>
      </trkpt>
      <trkpt lat="43.40408" lon="-0.53337">
        <ele>196</ele>
        <time>2013-05-06T08:30:05Z</time>
      </trkpt>
      <trkpt lat="43.40408" lon="-0.5334">
        <ele>195</ele>
        <time>2013-05-06T08:30:06Z</time>
      </trkpt>
      <trkpt lat="43.40408" lon="-0.53342">
        <ele>195</ele>
        <time>2013-05-06T08:30:07Z</time>
      </trkpt>
      <trkpt lat="43.40407" lon="-0.53343">
        <ele>195</ele>
        <time>2013-05-06T08:30:08Z</time>
      </trkpt>
      <trkpt lat="43.40406" lon="-0.53345">
        <ele>194</ele>
        <time>2013-05-06T08:30:09Z</time>
      </trkpt>
      <trkpt lat="43.40406" lon="-0.53345">
        <ele>194</ele>
        <time>2013-05-06T08:30:10Z</time>
      </trkpt>
      <trkpt lat="43.40405" lon="-0.53345">
        <ele>194</ele>
        <time>2013-05-06T08:30:11Z</time>
      </trkpt>
      <trkpt lat="43.40405" lon="-0.53346">
        <ele>194</ele>
        <time>2013-05-06T08:30:12Z</time>
      </trkpt>
      <trkpt lat="43.40405" lon="-0.53346">
        <ele>193</ele>
        <time>2013-05-06T08:30:13Z</time>
      </trkpt>
      <trkpt lat="43.40405" lon="-0.53346">
        <ele>192</ele>
        <time>2013-05-06T08:30:14Z</time>
      </trkpt>
      <trkpt lat="43.40405" lon="-0.53346">
        <ele>192</ele>
        <time>2013-05-06T08:30:15Z</time>
      </trkpt>
      <trkpt lat="43.40405" lon="-0.53346">
        <ele>192</ele>
        <time>2013-05-06T08:30:16Z</time>
      </trkpt>
      <trkpt lat="43.40404" lon="-0.53346">
        <ele>192</ele>
        <time>2013-05-06T08:30:17Z</time>
      </trkpt>
      <trkpt lat="43.40404" lon="-0.53347">
        <ele>192</ele>
        <time>2013-05-06T08:30:18Z</time>
      </trkpt>
      <trkpt lat="43.40402" lon="-0.53347">
        <ele>190</ele>
        <time>2013-05-06T08:30:19Z</time>
      </trkpt>
      <trkpt lat="43.40398" lon="-0.5335">
        <ele>189</ele>
        <time>2013-05-06T08:30:26Z</time>
      </trkpt>
      <trkpt lat="43.40398" lon="-0.53352">
        <ele>190</ele>
        <time>2013-05-06T08:30:34Z</time>
      </trkpt>
      <trkpt lat="43.40399" lon="-0.53353">
        <ele>191</ele>
        <time>2013-05-06T08:30:35Z</time>
      </trkpt>
      <trkpt lat="43.40399" lon="-0.53355">
        <ele>191</ele>
        <time>2013-05-06T08:30:36Z</time>
      </trkpt>
      <trkpt lat="43.40398" lon="-0.53357">
        <ele>191</ele>
        <time>2013-05-06T08:30:37Z</time>
      </trkpt>
      <trkpt lat="43.40398" lon="-0.53359">
        <ele>192</ele>
        <time>2013-05-06T08:30:38Z</time>
      </trkpt>
      <trkpt lat="43.40398" lon="-0.53362">
        <ele>191</ele>
        <time>2013-05-06T08:30:39Z</time>
      </trkpt>
      <trkpt lat="43.40397" lon="-0.53366">
        <ele>191</ele>
        <time>2013-05-06T08:30:40Z</time>
      </trkpt>
      <trkpt lat="43.40397" lon="-0.53369">
        <ele>191</ele>
        <time>2013-05-06T08:30:41Z</time>
      </trkpt>
      <trkpt lat="43.40397" lon="-0.53373">
        <ele>191</ele>
        <time>2013-05-06T08:30:42Z</time>
      </trkpt>
      <trkpt lat="43.40396" lon="-0.53377">
        <ele>192</ele>
        <time>2013-05-06T08:30:43Z</time>
      </trkpt>
      <trkpt lat="43.40395" lon="-0.53382">
        <ele>191</ele>
        <time>2013-05-06T08:30:44Z</time>
      </trkpt>
      <trkpt lat="43.40395" lon="-0.53386">
        <ele>191</ele>
        <time>2013-05-06T08:30:45Z</time>
      </trkpt>
      <trkpt lat="43.40394" lon="-0.53391">
        <ele>191</ele>
        <time>2013-05-06T08:30:46Z</time>
      </trkpt>
      <trkpt lat="43.40393" lon="-0.53396">
        <ele>190</ele>
        <time>2013-05-06T08:30:47Z</time>
      </trkpt>
      <trkpt lat="43.40392" lon="-0.53401">
        <ele>190</ele>
        <time>2013-05-06T08:30:48Z</time>
      </trkpt>
      <trkpt lat="43.40392" lon="-0.53405">
        <ele>191</ele>
        <time>2013-05-06T08:30:49Z</time>
      </trkpt>
      <trkpt lat="43.40392" lon="-0.53409">
        <ele>191</ele>
        <time>2013-05-06T08:30:50Z</time>
      </trkpt>
      <trkpt lat="43.40392" lon="-0.53413">
        <ele>191</ele>
        <time>2013-05-06T08:30:51Z</time>
      </trkpt>
      <trkpt lat="43.40393" lon="-0.53417">
        <ele>191</ele>
        <time>2013-05-06T08:30:52Z</time>
      </trkpt>
      <trkpt lat="43.40393" lon="-0.53422">
        <ele>191</ele>
        <time>2013-05-06T08:30:53Z</time>
      </trkpt>
      <trkpt lat="43.40394" lon="-0.53426">
        <ele>192</ele>
        <time>2013-05-06T08:30:54Z</time>
      </trkpt>
      <trkpt lat="43.40396" lon="-0.53431">
        <ele>192</ele>
        <time>2013-05-06T08:30:55Z</time>
      </trkpt>
      <trkpt lat="43.40397" lon="-0.53435">
        <ele>192</ele>
        <time>2013-05-06T08:30:56Z</time>
      </trkpt>
      <trkpt lat="43.40398" lon="-0.53439">
        <ele>192</ele>
        <time>2013-05-06T08:30:57Z</time>
      </trkpt>
      <trkpt lat="43.40399" lon="-0.53443">
        <ele>192</ele>
        <time>2013-05-06T08:30:58Z</time>
      </trkpt>
      <trkpt lat="43.404" lon="-0.53448">
        <ele>192</ele>
        <time>2013-05-06T08:30:59Z</time>
      </trkpt>
      <trkpt lat="43.40401" lon="-0.53453">
        <ele>192</ele>
        <time>2013-05-06T08:31:00Z</time>
      </trkpt>
      <trkpt lat="43.40401" lon="-0.53458">
        <ele>192</ele>
        <time>2013-05-06T08:31:01Z</time>
      </trkpt>
      <trkpt lat="43.40401" lon="-0.53462">
        <ele>193</ele>
        <time>2013-05-06T08:31:02Z</time>
      </trkpt>
      <trkpt lat="43.40401" lon="-0.53466">
        <ele>194</ele>
        <time>2013-05-06T08:31:03Z</time>
      </trkpt>
      <trkpt lat="43.404" lon="-0.5347">
        <ele>194</ele>
        <time>2013-05-06T08:31:04Z</time>
      </trkpt>
      <trkpt lat="43.40398" lon="-0.53475">
        <ele>193</ele>
        <time>2013-05-06T08:31:05Z</time>
      </trkpt>
      <trkpt lat="43.40398" lon="-0.5348">
        <ele>193</ele>
        <time>2013-05-06T08:31:06Z</time>
      </trkpt>
      <trkpt lat="43.40397" lon="-0.53484">
        <ele>194</ele>
        <time>2013-05-06T08:31:07Z</time>
      </trkpt>
      <trkpt lat="43.40397" lon="-0.53488">
        <ele>194</ele>
        <time>2013-05-06T08:31:08Z</time>
      </trkpt>
      <trkpt lat="43.40397" lon="-0.53492">
        <ele>194</ele>
        <time>2013-05-06T08:31:09Z</time>
      </trkpt>
      <trkpt lat="43.40397" lon="-0.53496">
        <ele>193</ele>
        <time>2013-05-06T08:31:10Z</time>
      </trkpt>
      <trkpt lat="43.40396" lon="-0.535">
        <ele>193</ele>
        <time>2013-05-06T08:31:11Z</time>
      </trkpt>
      <trkpt lat="43.40396" lon="-0.53504">
        <ele>193</ele>
        <time>2013-05-06T08:31:12Z</time>
      </trkpt>
      <trkpt lat="43.40395" lon="-0.53507">
        <ele>193</ele>
        <time>2013-05-06T08:31:13Z</time>
      </trkpt>
      <trkpt lat="43.40395" lon="-0.53512">
        <ele>193</ele>
        <time>2013-05-06T08:31:14Z</time>
      </trkpt>
      <trkpt lat="43.40394" lon="-0.53517">
        <ele>192</ele>
        <time>2013-05-06T08:31:15Z</time>
      </trkpt>
      <trkpt lat="43.40393" lon="-0.53523">
        <ele>193</ele>
        <time>2013-05-06T08:31:16Z</time>
      </trkpt>
      <trkpt lat="43.40392" lon="-0.53529">
        <ele>193</ele>
        <time>2013-05-06T08:31:17Z</time>
      </trkpt>
      <trkpt lat="43.40391" lon="-0.53535">
        <ele>193</ele>
        <time>2013-05-06T08:31:18Z</time>
      </trkpt>
      <trkpt lat="43.4039" lon="-0.53542">
        <ele>194</ele>
        <time>2013-05-06T08:31:19Z</time>
      </trkpt>
      <trkpt lat="43.4039" lon="-0.53547">
        <ele>193</ele>
        <time>2013-05-06T08:31:20Z</time>
      </trkpt>
      <trkpt lat="43.4039" lon="-0.53552">
        <ele>194</ele>
        <time>2013-05-06T08:31:21Z</time>
      </trkpt>
      <trkpt lat="43.4039" lon="-0.53556">
        <ele>194</ele>
        <time>2013-05-06T08:31:22Z</time>
      </trkpt>
      <trkpt lat="43.4039" lon="-0.5356">
        <ele>194</ele>
        <time>2013-05-06T08:31:23Z</time>
      </trkpt>
      <trkpt lat="43.4039" lon="-0.53564">
        <ele>193</ele>
        <time>2013-05-06T08:31:24Z</time>
      </trkpt>
      <trkpt lat="43.4039" lon="-0.53567">
        <ele>193</ele>
        <time>2013-05-06T08:31:25Z</time>
      </trkpt>
      <trkpt lat="43.40391" lon="-0.53571">
        <ele>193</ele>
        <time>2013-05-06T08:31:26Z</time>
      </trkpt>
      <trkpt lat="43.4039" lon="-0.53574">
        <ele>193</ele>
        <time>2013-05-06T08:31:27Z</time>
      </trkpt>
      <trkpt lat="43.4039" lon="-0.53577">
        <ele>193</ele>
        <time>2013-05-06T08:31:28Z</time>
      </trkpt>
      <trkpt lat="43.4039" lon="-0.5358">
        <ele>193</ele>
        <time>2013-05-06T08:31:29Z</time>
      </trkpt>
      <trkpt lat="43.40389" lon="-0.53583">
        <ele>193</ele>
        <time>2013-05-06T08:31:30Z</time>
      </trkpt>
      <trkpt lat="43.40389" lon="-0.53586">
        <ele>193</ele>
        <time>2013-05-06T08:31:31Z</time>
      </trkpt>
      <trkpt lat="43.40387" lon="-0.53588">
        <ele>195</ele>
        <time>2013-05-06T08:31:32Z</time>
      </trkpt>
      <trkpt lat="43.40386" lon="-0.53591">
        <ele>194</ele>
        <time>2013-05-06T08:31:33Z</time>
      </trkpt>
      <trkpt lat="43.40386" lon="-0.53595">
        <ele>194</ele>
        <time>2013-05-06T08:31:34Z</time>
      </trkpt>
      <trkpt lat="43.40386" lon="-0.53598">
        <ele>194</ele>
        <time>2013-05-06T08:31:35Z</time>
      </trkpt>
      <trkpt lat="43.40386" lon="-0.53601">
        <ele>194</ele>
        <time>2013-05-06T08:31:36Z</time>
      </trkpt>
      <trkpt lat="43.40387" lon="-0.53604">
        <ele>194</ele>
        <time>2013-05-06T08:31:37Z</time>
      </trkpt>
      <trkpt lat="43.40387" lon="-0.53607">
        <ele>194</ele>
        <time>2013-05-06T08:31:38Z</time>
      </trkpt>
      <trkpt lat="43.40389" lon="-0.5361">
        <ele>195</ele>
        <time>2013-05-06T08:31:39Z</time>
      </trkpt>
      <trkpt lat="43.4039" lon="-0.53613">
        <ele>196</ele>
        <time>2013-05-06T08:31:40Z</time>
      </trkpt>
      <trkpt lat="43.40391" lon="-0.53615">
        <ele>195</ele>
        <time>2013-05-06T08:31:41Z</time>
      </trkpt>
      <trkpt lat="43.40392" lon="-0.53617">
        <ele>195</ele>
        <time>2013-05-06T08:31:42Z</time>
      </trkpt>
      <trkpt lat="43.40393" lon="-0.53619">
        <ele>194</ele>
        <time>2013-05-06T08:31:43Z</time>
      </trkpt>
      <trkpt lat="43.40394" lon="-0.5362">
        <ele>195</ele>
        <time>2013-05-06T08:31:44Z</time>
      </trkpt>
      <trkpt lat="43.40396" lon="-0.5362">
        <ele>193</ele>
        <time>2013-05-06T08:31:45Z</time>
      </trkpt>
      <trkpt lat="43.40398" lon="-0.5362">
        <ele>192</ele>
        <time>2013-05-06T08:31:46Z</time>
      </trkpt>
      <trkpt lat="43.404" lon="-0.5362">
        <ele>191</ele>
        <time>2013-05-06T08:31:47Z</time>
      </trkpt>
      <trkpt lat="43.40403" lon="-0.53621">
        <ele>192</ele>
        <time>2013-05-06T08:31:48Z</time>
      </trkpt>
      <trkpt lat="43.40405" lon="-0.53621">
        <ele>191</ele>
        <time>2013-05-06T08:31:49Z</time>
      </trkpt>
      <trkpt lat="43.40407" lon="-0.53623">
        <ele>191</ele>
        <time>2013-05-06T08:31:50Z</time>
      </trkpt>
      <trkpt lat="43.40409" lon="-0.53624">
        <ele>191</ele>
        <time>2013-05-06T08:31:51Z</time>
      </trkpt>
      <trkpt lat="43.40411" lon="-0.53627">
        <ele>190</ele>
        <time>2013-05-06T08:31:52Z</time>
      </trkpt>
      <trkpt lat="43.40413" lon="-0.53631">
        <ele>190</ele>
        <time>2013-05-06T08:31:53Z</time>
      </trkpt>
      <trkpt lat="43.40414" lon="-0.53635">
        <ele>190</ele>
        <time>2013-05-06T08:31:54Z</time>
      </trkpt>
      <trkpt lat="43.40415" lon="-0.53638">
        <ele>190</ele>
        <time>2013-05-06T08:31:55Z</time>
      </trkpt>
      <trkpt lat="43.40416" lon="-0.53642">
        <ele>190</ele>
        <time>2013-05-06T08:31:56Z</time>
      </trkpt>
      <trkpt lat="43.40416" lon="-0.53645">
        <ele>189</ele>
        <time>2013-05-06T08:31:57Z</time>
      </trkpt>
      <trkpt lat="43.40415" lon="-0.53648">
        <ele>189</ele>
        <time>2013-05-06T08:31:58Z</time>
      </trkpt>
      <trkpt lat="43.40415" lon="-0.53651">
        <ele>190</ele>
        <time>2013-05-06T08:31:59Z</time>
      </trkpt>
      <trkpt lat="43.40415" lon="-0.53653">
        <ele>190</ele>
        <time>2013-05-06T08:32:00Z</time>
      </trkpt>
      <trkpt lat="43.40413" lon="-0.53657">
        <ele>189</ele>
        <time>2013-05-06T08:32:01Z</time>
      </trkpt>
      <trkpt lat="43.40413" lon="-0.53659">
        <ele>188</ele>
        <time>2013-05-06T08:32:02Z</time>
      </trkpt>
      <trkpt lat="43.40412" lon="-0.53661">
        <ele>188</ele>
        <time>2013-05-06T08:32:03Z</time>
      </trkpt>
      <trkpt lat="43.40413" lon="-0.53663">
        <ele>187</ele>
        <time>2013-05-06T08:32:04Z</time>
      </trkpt>
      <trkpt lat="43.40413" lon="-0.53665">
        <ele>186</ele>
        <time>2013-05-06T08:32:05Z</time>
      </trkpt>
      <trkpt lat="43.40414" lon="-0.53667">
        <ele>186</ele>
        <time>2013-05-06T08:32:06Z</time>
      </trkpt>
      <trkpt lat="43.40416" lon="-0.53669">
        <ele>185</ele>
        <time>2013-05-06T08:32:07Z</time>
      </trkpt>
      <trkpt lat="43.40418" lon="-0.53671">
        <ele>185</ele>
        <time>2013-05-06T08:32:08Z</time>
      </trkpt>
      <trkpt lat="43.40418" lon="-0.53673">
        <ele>185</ele>
        <time>2013-05-06T08:32:09Z</time>
      </trkpt>
      <trkpt lat="43.40421" lon="-0.53674">
        <ele>185</ele>
        <time>2013-05-06T08:32:10Z</time>
      </trkpt>
      <trkpt lat="43.40423" lon="-0.53677">
        <ele>184</ele>
        <time>2013-05-06T08:32:11Z</time>
      </trkpt>
      <trkpt lat="43.40425" lon="-0.53679">
        <ele>184</ele>
        <time>2013-05-06T08:32:12Z</time>
      </trkpt>
      <trkpt lat="43.40427" lon="-0.53682">
        <ele>183</ele>
        <time>2013-05-06T08:32:13Z</time>
      </trkpt>
      <trkpt lat="43.40428" lon="-0.53685">
        <ele>183</ele>
        <time>2013-05-06T08:32:14Z</time>
      </trkpt>
      <trkpt lat="43.40429" lon="-0.53688">
        <ele>183</ele>
        <time>2013-05-06T08:32:15Z</time>
      </trkpt>
      <trkpt lat="43.40429" lon="-0.53691">
        <ele>183</ele>
        <time>2013-05-06T08:32:16Z</time>
      </trkpt>
      <trkpt lat="43.40429" lon="-0.53694">
        <ele>182</ele>
        <time>2013-05-06T08:32:17Z</time>
      </trkpt>
      <trkpt lat="43.40429" lon="-0.53698">
        <ele>181</ele>
        <time>2013-05-06T08:32:18Z</time>
      </trkpt>
      <trkpt lat="43.40429" lon="-0.537">
        <ele>181</ele>
        <time>2013-05-06T08:32:19Z</time>
      </trkpt>
      <trkpt lat="43.40429" lon="-0.53703">
        <ele>182</ele>
        <time>2013-05-06T08:32:20Z</time>
      </trkpt>
      <trkpt lat="43.40429" lon="-0.53706">
        <ele>181</ele>
        <time>2013-05-06T08:32:21Z</time>
      </trkpt>
      <trkpt lat="43.40429" lon="-0.53708">
        <ele>181</ele>
        <time>2013-05-06T08:32:22Z</time>
      </trkpt>
      <trkpt lat="43.40428" lon="-0.5371">
        <ele>180</ele>
        <time>2013-05-06T08:32:23Z</time>
      </trkpt>
      <trkpt lat="43.40428" lon="-0.53711">
        <ele>179</ele>
        <time>2013-05-06T08:32:24Z</time>
      </trkpt>
      <trkpt lat="43.40428" lon="-0.53713">
        <ele>179</ele>
        <time>2013-05-06T08:32:25Z</time>
      </trkpt>
      <trkpt lat="43.40428" lon="-0.53712">
        <ele>176</ele>
        <time>2013-05-06T08:32:26Z</time>
      </trkpt>
      <trkpt lat="43.40428" lon="-0.53713">
        <ele>175</ele>
        <time>2013-05-06T08:32:27Z</time>
      </trkpt>
      <trkpt lat="43.40428" lon="-0.53713">
        <ele>175</ele>
        <time>2013-05-06T08:32:28Z</time>
      </trkpt>
      <trkpt lat="43.40428" lon="-0.53713">
        <ele>174</ele>
        <time>2013-05-06T08:32:29Z</time>
      </trkpt>
      <trkpt lat="43.40427" lon="-0.53713">
        <ele>175</ele>
        <time>2013-05-06T08:32:30Z</time>
      </trkpt>
      <trkpt lat="43.40426" lon="-0.53714">
        <ele>175</ele>
        <time>2013-05-06T08:32:31Z</time>
      </trkpt>
      <trkpt lat="43.40425" lon="-0.53715">
        <ele>176</ele>
        <time>2013-05-06T08:32:32Z</time>
      </trkpt>
      <trkpt lat="43.40424" lon="-0.53718">
        <ele>175</ele>
        <time>2013-05-06T08:32:33Z</time>
      </trkpt>
      <trkpt lat="43.40423" lon="-0.53721">
        <ele>175</ele>
        <time>2013-05-06T08:32:34Z</time>
      </trkpt>
      <trkpt lat="43.40423" lon="-0.53723">
        <ele>175</ele>
        <time>2013-05-06T08:32:35Z</time>
      </trkpt>
      <trkpt lat="43.40422" lon="-0.53726">
        <ele>174</ele>
        <time>2013-05-06T08:32:36Z</time>
      </trkpt>
      <trkpt lat="43.40423" lon="-0.5373">
        <ele>173</ele>
        <time>2013-05-06T08:32:37Z</time>
      </trkpt>
      <trkpt lat="43.40422" lon="-0.53733">
        <ele>173</ele>
        <time>2013-05-06T08:32:38Z</time>
      </trkpt>
      <trkpt lat="43.40422" lon="-0.53735">
        <ele>173</ele>
        <time>2013-05-06T08:32:39Z</time>
      </trkpt>
      <trkpt lat="43.40422" lon="-0.53738">
        <ele>172</ele>
        <time>2013-05-06T08:32:40Z</time>
      </trkpt>
      <trkpt lat="43.40422" lon="-0.53741">
        <ele>172</ele>
        <time>2013-05-06T08:32:41Z</time>
      </trkpt>
      <trkpt lat="43.40422" lon="-0.53743">
        <ele>172</ele>
        <time>2013-05-06T08:32:42Z</time>
      </trkpt>
      <trkpt lat="43.40422" lon="-0.53744">
        <ele>171</ele>
        <time>2013-05-06T08:32:43Z</time>
      </trkpt>
      <trkpt lat="43.40421" lon="-0.53746">
        <ele>170</ele>
        <time>2013-05-06T08:32:44Z</time>
      </trkpt>
      <trkpt lat="43.40421" lon="-0.53748">
        <ele>171</ele>
        <time>2013-05-06T08:32:45Z</time>
      </trkpt>
      <trkpt lat="43.4042" lon="-0.5375">
        <ele>171</ele>
        <time>2013-05-06T08:32:46Z</time>
      </trkpt>
      <trkpt lat="43.4042" lon="-0.53752">
        <ele>171</ele>
        <time>2013-05-06T08:32:47Z</time>
      </trkpt>
      <trkpt lat="43.40421" lon="-0.53755">
        <ele>171</ele>
        <time>2013-05-06T08:32:48Z</time>
      </trkpt>
      <trkpt lat="43.40422" lon="-0.53758">
        <ele>171</ele>
        <time>2013-05-06T08:32:49Z</time>
      </trkpt>
      <trkpt lat="43.40422" lon="-0.5376">
        <ele>170</ele>
        <time>2013-05-06T08:32:50Z</time>
      </trkpt>
      <trkpt lat="43.40424" lon="-0.53762">
        <ele>169</ele>
        <time>2013-05-06T08:32:51Z</time>
      </trkpt>
      <trkpt lat="43.40426" lon="-0.53763">
        <ele>169</ele>
        <time>2013-05-06T08:32:52Z</time>
      </trkpt>
      <trkpt lat="43.40428" lon="-0.53765">
        <ele>169</ele>
        <time>2013-05-06T08:32:53Z</time>
      </trkpt>
      <trkpt lat="43.40431" lon="-0.53766">
        <ele>170</ele>
        <time>2013-05-06T08:32:54Z</time>
      </trkpt>
      <trkpt lat="43.40434" lon="-0.53767">
        <ele>169</ele>
        <time>2013-05-06T08:32:55Z</time>
      </trkpt>
      <trkpt lat="43.40436" lon="-0.53768">
        <ele>168</ele>
        <time>2013-05-06T08:32:56Z</time>
      </trkpt>
      <trkpt lat="43.40438" lon="-0.53769">
        <ele>168</ele>
        <time>2013-05-06T08:32:57Z</time>
      </trkpt>
      <trkpt lat="43.4044" lon="-0.5377">
        <ele>167</ele>
        <time>2013-05-06T08:32:58Z</time>
      </trkpt>
      <trkpt lat="43.40442" lon="-0.53771">
        <ele>167</ele>
        <time>2013-05-06T08:32:59Z</time>
      </trkpt>
      <trkpt lat="43.40443" lon="-0.53772">
        <ele>167</ele>
        <time>2013-05-06T08:33:00Z</time>
      </trkpt>
      <trkpt lat="43.40445" lon="-0.53775">
        <ele>167</ele>
        <time>2013-05-06T08:33:01Z</time>
      </trkpt>
      <trkpt lat="43.40445" lon="-0.53778">
        <ele>166</ele>
        <time>2013-05-06T08:33:02Z</time>
      </trkpt>
      <trkpt lat="43.40446" lon="-0.5378">
        <ele>165</ele>
        <time>2013-05-06T08:33:03Z</time>
      </trkpt>
      <trkpt lat="43.40446" lon="-0.53783">
        <ele>163</ele>
        <time>2013-05-06T08:33:04Z</time>
      </trkpt>
      <trkpt lat="43.40446" lon="-0.53785">
        <ele>163</ele>
        <time>2013-05-06T08:33:05Z</time>
      </trkpt>
      <trkpt lat="43.40447" lon="-0.53788">
        <ele>163</ele>
        <time>2013-05-06T08:33:06Z</time>
      </trkpt>
      <trkpt lat="43.40447" lon="-0.53791">
        <ele>163</ele>
        <time>2013-05-06T08:33:07Z</time>
      </trkpt>
      <trkpt lat="43.40447" lon="-0.53793">
        <ele>163</ele>
        <time>2013-05-06T08:33:08Z</time>
      </trkpt>
      <trkpt lat="43.40448" lon="-0.53796">
        <ele>164</ele>
        <time>2013-05-06T08:33:09Z</time>
      </trkpt>
      <trkpt lat="43.40449" lon="-0.53798">
        <ele>161</ele>
        <time>2013-05-06T08:33:10Z</time>
      </trkpt>
      <trkpt lat="43.4045" lon="-0.538">
        <ele>160</ele>
        <time>2013-05-06T08:33:11Z</time>
      </trkpt>
      <trkpt lat="43.40451" lon="-0.53802">
        <ele>161</ele>
        <time>2013-05-06T08:33:12Z</time>
      </trkpt>
      <trkpt lat="43.40454" lon="-0.53805">
        <ele>160</ele>
        <time>2013-05-06T08:33:13Z</time>
      </trkpt>
      <trkpt lat="43.40455" lon="-0.53807">
        <ele>160</ele>
        <time>2013-05-06T08:33:14Z</time>
      </trkpt>
      <trkpt lat="43.40457" lon="-0.53809">
        <ele>159</ele>
        <time>2013-05-06T08:33:15Z</time>
      </trkpt>
      <trkpt lat="43.4046" lon="-0.53811">
        <ele>159</ele>
        <time>2013-05-06T08:33:16Z</time>
      </trkpt>
      <trkpt lat="43.40462" lon="-0.53813">
        <ele>159</ele>
        <time>2013-05-06T08:33:17Z</time>
      </trkpt>
      <trkpt lat="43.40463" lon="-0.53813">
        <ele>159</ele>
        <time>2013-05-06T08:33:18Z</time>
      </trkpt>
      <trkpt lat="43.40463" lon="-0.53813">
        <ele>159</ele>
        <time>2013-05-06T08:33:19Z</time>
      </trkpt>
      <trkpt lat="43.40464" lon="-0.53813">
        <ele>158</ele>
        <time>2013-05-06T08:33:20Z</time>
      </trkpt>
      <trkpt lat="43.40464" lon="-0.53813">
        <ele>158</ele>
        <time>2013-05-06T08:33:21Z</time>
      </trkpt>
      <trkpt lat="43.40466" lon="-0.53813">
        <ele>161</ele>
        <time>2013-05-06T08:33:22Z</time>
      </trkpt>
      <trkpt lat="43.40468" lon="-0.53813">
        <ele>161</ele>
        <time>2013-05-06T08:33:23Z</time>
      </trkpt>
      <trkpt lat="43.4047" lon="-0.53814">
        <ele>161</ele>
        <time>2013-05-06T08:33:24Z</time>
      </trkpt>
      <trkpt lat="43.40472" lon="-0.53815">
        <ele>161</ele>
        <time>2013-05-06T08:33:25Z</time>
      </trkpt>
      <trkpt lat="43.40474" lon="-0.53815">
        <ele>158</ele>
        <time>2013-05-06T08:33:26Z</time>
      </trkpt>
      <trkpt lat="43.40475" lon="-0.53816">
        <ele>159</ele>
        <time>2013-05-06T08:33:27Z</time>
      </trkpt>
      <trkpt lat="43.40476" lon="-0.53816">
        <ele>158</ele>
        <time>2013-05-06T08:33:28Z</time>
      </trkpt>
      <trkpt lat="43.40477" lon="-0.53817">
        <ele>158</ele>
        <time>2013-05-06T08:33:29Z</time>
      </trkpt>
      <trkpt lat="43.40478" lon="-0.53818">
        <ele>158</ele>
        <time>2013-05-06T08:33:30Z</time>
      </trkpt>
      <trkpt lat="43.4048" lon="-0.5382">
        <ele>157</ele>
        <time>2013-05-06T08:33:31Z</time>
      </trkpt>
      <trkpt lat="43.40482" lon="-0.53823">
        <ele>156</ele>
        <time>2013-05-06T08:33:32Z</time>
      </trkpt>
      <trkpt lat="43.40484" lon="-0.53825">
        <ele>156</ele>
        <time>2013-05-06T08:33:33Z</time>
      </trkpt>
      <trkpt lat="43.40485" lon="-0.53827">
        <ele>156</ele>
        <time>2013-05-06T08:33:34Z</time>
      </trkpt>
      <trkpt lat="43.40487" lon="-0.53829">
        <ele>156</ele>
        <time>2013-05-06T08:33:35Z</time>
      </trkpt>
      <trkpt lat="43.40487" lon="-0.53832">
        <ele>156</ele>
        <time>2013-05-06T08:33:36Z</time>
      </trkpt>
      <trkpt lat="43.40488" lon="-0.53833">
        <ele>155</ele>
        <time>2013-05-06T08:33:37Z</time>
      </trkpt>
      <trkpt lat="43.40488" lon="-0.53835">
        <ele>155</ele>
        <time>2013-05-06T08:33:38Z</time>
      </trkpt>
      <trkpt lat="43.40487" lon="-0.53835">
        <ele>155</ele>
        <time>2013-05-06T08:33:39Z</time>
      </trkpt>
      <trkpt lat="43.40488" lon="-0.53837">
        <ele>155</ele>
        <time>2013-05-06T08:33:40Z</time>
      </trkpt>
      <trkpt lat="43.40488" lon="-0.53837">
        <ele>154</ele>
        <time>2013-05-06T08:33:41Z</time>
      </trkpt>
      <trkpt lat="43.40489" lon="-0.53838">
        <ele>154</ele>
        <time>2013-05-06T08:33:42Z</time>
      </trkpt>
      <trkpt lat="43.4049" lon="-0.53841">
        <ele>152</ele>
        <time>2013-05-06T08:33:43Z</time>
      </trkpt>
      <trkpt lat="43.40491" lon="-0.53842">
        <ele>153</ele>
        <time>2013-05-06T08:33:44Z</time>
      </trkpt>
      <trkpt lat="43.40492" lon="-0.53844">
        <ele>152</ele>
        <time>2013-05-06T08:33:45Z</time>
      </trkpt>
      <trkpt lat="43.40494" lon="-0.53845">
        <ele>152</ele>
        <time>2013-05-06T08:33:46Z</time>
      </trkpt>
      <trkpt lat="43.40495" lon="-0.53846">
        <ele>151</ele>
        <time>2013-05-06T08:33:47Z</time>
      </trkpt>
      <trkpt lat="43.40498" lon="-0.53846">
        <ele>150</ele>
        <time>2013-05-06T08:33:48Z</time>
      </trkpt>
      <trkpt lat="43.40501" lon="-0.53846">
        <ele>150</ele>
        <time>2013-05-06T08:33:49Z</time>
      </trkpt>
      <trkpt lat="43.40504" lon="-0.53847">
        <ele>149</ele>
        <time>2013-05-06T08:33:50Z</time>
      </trkpt>
      <trkpt lat="43.40508" lon="-0.53848">
        <ele>149</ele>
        <time>2013-05-06T08:33:51Z</time>
      </trkpt>
      <trkpt lat="43.4051" lon="-0.53848">
        <ele>150</ele>
        <time>2013-05-06T08:33:52Z</time>
      </trkpt>
      <trkpt lat="43.40514" lon="-0.53849">
        <ele>150</ele>
        <time>2013-05-06T08:33:53Z</time>
      </trkpt>
      <trkpt lat="43.40518" lon="-0.5385">
        <ele>149</ele>
        <time>2013-05-06T08:33:54Z</time>
      </trkpt>
      <trkpt lat="43.40522" lon="-0.53851">
        <ele>149</ele>
        <time>2013-05-06T08:33:55Z</time>
      </trkpt>
      <trkpt lat="43.40526" lon="-0.53851">
        <ele>150</ele>
        <time>2013-05-06T08:33:56Z</time>
      </trkpt>
      <trkpt lat="43.4053" lon="-0.53851">
        <ele>151</ele>
        <time>2013-05-06T08:33:57Z</time>
      </trkpt>
      <trkpt lat="43.40535" lon="-0.53852">
        <ele>151</ele>
        <time>2013-05-06T08:33:58Z</time>
      </trkpt>
      <trkpt lat="43.40538" lon="-0.53852">
        <ele>151</ele>
        <time>2013-05-06T08:33:59Z</time>
      </trkpt>
      <trkpt lat="43.40543" lon="-0.53853">
        <ele>151</ele>
        <time>2013-05-06T08:34:00Z</time>
      </trkpt>
      <trkpt lat="43.40547" lon="-0.53854">
        <ele>151</ele>
        <time>2013-05-06T08:34:01Z</time>
      </trkpt>
      <trkpt lat="43.40551" lon="-0.53854">
        <ele>151</ele>
        <time>2013-05-06T08:34:02Z</time>
      </trkpt>
      <trkpt lat="43.40555" lon="-0.53855">
        <ele>151</ele>
        <time>2013-05-06T08:34:03Z</time>
      </trkpt>
      <trkpt lat="43.40559" lon="-0.53855">
        <ele>150</ele>
        <time>2013-05-06T08:34:04Z</time>
      </trkpt>
      <trkpt lat="43.4056" lon="-0.53851">
        <ele>150</ele>
        <time>2013-05-06T08:34:05Z</time>
      </trkpt>
      <trkpt lat="43.40563" lon="-0.53851">
        <ele>150</ele>
        <time>2013-05-06T08:34:06Z</time>
      </trkpt>
      <trkpt lat="43.40563" lon="-0.53845">
        <ele>148</ele>
        <time>2013-05-06T08:34:07Z</time>
      </trkpt>
      <trkpt lat="43.40563" lon="-0.5384">
        <ele>149</ele>
        <time>2013-05-06T08:34:08Z</time>
      </trkpt>
      <trkpt lat="43.40563" lon="-0.53834">
        <ele>151</ele>
        <time>2013-05-06T08:34:09Z</time>
      </trkpt>
      <trkpt lat="43.40564" lon="-0.5383">
        <ele>151</ele>
        <time>2013-05-06T08:34:10Z</time>
      </trkpt>
      <trkpt lat="43.40565" lon="-0.53824">
        <ele>151</ele>
        <time>2013-05-06T08:34:11Z</time>
      </trkpt>
      <trkpt lat="43.40565" lon="-0.53818">
        <ele>152</ele>
        <time>2013-05-06T08:34:12Z</time>
      </trkpt>
      <trkpt lat="43.40566" lon="-0.53814">
        <ele>152</ele>
        <time>2013-05-06T08:34:13Z</time>
      </trkpt>
      <trkpt lat="43.40566" lon="-0.53807">
        <ele>152</ele>
        <time>2013-05-06T08:34:14Z</time>
      </trkpt>
      <trkpt lat="43.40567" lon="-0.53802">
        <ele>152</ele>
        <time>2013-05-06T08:34:15Z</time>
      </trkpt>
      <trkpt lat="43.40567" lon="-0.53797">
        <ele>151</ele>
        <time>2013-05-06T08:34:16Z</time>
      </trkpt>
      <trkpt lat="43.40568" lon="-0.53792">
        <ele>151</ele>
        <time>2013-05-06T08:34:17Z</time>
      </trkpt>
      <trkpt lat="43.40569" lon="-0.53787">
        <ele>151</ele>
        <time>2013-05-06T08:34:18Z</time>
      </trkpt>
      <trkpt lat="43.4057" lon="-0.53781">
        <ele>151</ele>
        <time>2013-05-06T08:34:19Z</time>
      </trkpt>
      <trkpt lat="43.40571" lon="-0.53776">
        <ele>151</ele>
        <time>2013-05-06T08:34:20Z</time>
      </trkpt>
      <trkpt lat="43.40572" lon="-0.53771">
        <ele>151</ele>
        <time>2013-05-06T08:34:21Z</time>
      </trkpt>
      <trkpt lat="43.40574" lon="-0.53766">
        <ele>151</ele>
        <time>2013-05-06T08:34:22Z</time>
      </trkpt>
      <trkpt lat="43.40576" lon="-0.53761">
        <ele>151</ele>
        <time>2013-05-06T08:34:23Z</time>
      </trkpt>
      <trkpt lat="43.40577" lon="-0.53756">
        <ele>151</ele>
        <time>2013-05-06T08:34:24Z</time>
      </trkpt>
      <trkpt lat="43.40579" lon="-0.53751">
        <ele>151</ele>
        <time>2013-05-06T08:34:25Z</time>
      </trkpt>
      <trkpt lat="43.40581" lon="-0.53747">
        <ele>152</ele>
        <time>2013-05-06T08:34:26Z</time>
      </trkpt>
      <trkpt lat="43.40583" lon="-0.53742">
        <ele>151</ele>
        <time>2013-05-06T08:34:27Z</time>
      </trkpt>
      <trkpt lat="43.40587" lon="-0.53738">
        <ele>151</ele>
        <time>2013-05-06T08:34:28Z</time>
      </trkpt>
      <trkpt lat="43.4059" lon="-0.53737">
        <ele>150</ele>
        <time>2013-05-06T08:34:29Z</time>
      </trkpt>
      <trkpt lat="43.40595" lon="-0.53736">
        <ele>152</ele>
        <time>2013-05-06T08:34:30Z</time>
      </trkpt>
      <trkpt lat="43.40599" lon="-0.53737">
        <ele>152</ele>
        <time>2013-05-06T08:34:31Z</time>
      </trkpt>
      <trkpt lat="43.40604" lon="-0.53738">
        <ele>152</ele>
        <time>2013-05-06T08:34:32Z</time>
      </trkpt>
      <trkpt lat="43.40618" lon="-0.53752">
        <ele>151</ele>
        <time>2013-05-06T08:34:33Z</time>
      </trkpt>
      <trkpt lat="43.40622" lon="-0.53753">
        <ele>150</ele>
        <time>2013-05-06T08:34:34Z</time>
      </trkpt>
      <trkpt lat="43.40627" lon="-0.53753">
        <ele>150</ele>
        <time>2013-05-06T08:34:35Z</time>
      </trkpt>
      <trkpt lat="43.40632" lon="-0.53754">
        <ele>150</ele>
        <time>2013-05-06T08:34:36Z</time>
      </trkpt>
      <trkpt lat="43.40636" lon="-0.53753">
        <ele>150</ele>
        <time>2013-05-06T08:34:37Z</time>
      </trkpt>
      <trkpt lat="43.4064" lon="-0.53752">
        <ele>150</ele>
        <time>2013-05-06T08:34:38Z</time>
      </trkpt>
      <trkpt lat="43.40645" lon="-0.53751">
        <ele>150</ele>
        <time>2013-05-06T08:34:39Z</time>
      </trkpt>
      <trkpt lat="43.4065" lon="-0.5375">
        <ele>150</ele>
        <time>2013-05-06T08:34:40Z</time>
      </trkpt>
      <trkpt lat="43.40654" lon="-0.53749">
        <ele>150</ele>
        <time>2013-05-06T08:34:41Z</time>
      </trkpt>
      <trkpt lat="43.40658" lon="-0.53746">
        <ele>150</ele>
        <time>2013-05-06T08:34:42Z</time>
      </trkpt>
      <trkpt lat="43.40661" lon="-0.53746">
        <ele>150</ele>
        <time>2013-05-06T08:34:43Z</time>
      </trkpt>
      <trkpt lat="43.40665" lon="-0.53745">
        <ele>150</ele>
        <time>2013-05-06T08:34:44Z</time>
      </trkpt>
      <trkpt lat="43.40668" lon="-0.53745">
        <ele>150</ele>
        <time>2013-05-06T08:34:45Z</time>
      </trkpt>
      <trkpt lat="43.40672" lon="-0.53744">
        <ele>149</ele>
        <time>2013-05-06T08:34:46Z</time>
      </trkpt>
      <trkpt lat="43.40675" lon="-0.53744">
        <ele>150</ele>
        <time>2013-05-06T08:34:47Z</time>
      </trkpt>
      <trkpt lat="43.40678" lon="-0.53743">
        <ele>149</ele>
        <time>2013-05-06T08:34:48Z</time>
      </trkpt>
      <trkpt lat="43.40682" lon="-0.53742">
        <ele>149</ele>
        <time>2013-05-06T08:34:49Z</time>
      </trkpt>
      <trkpt lat="43.40684" lon="-0.53739">
        <ele>151</ele>
        <time>2013-05-06T08:34:50Z</time>
      </trkpt>
      <trkpt lat="43.40687" lon="-0.53737">
        <ele>151</ele>
        <time>2013-05-06T08:34:51Z</time>
      </trkpt>
      <trkpt lat="43.40689" lon="-0.53733">
        <ele>151</ele>
        <time>2013-05-06T08:34:52Z</time>
      </trkpt>
      <trkpt lat="43.4069" lon="-0.53728">
        <ele>150</ele>
        <time>2013-05-06T08:34:53Z</time>
      </trkpt>
      <trkpt lat="43.40693" lon="-0.53726">
        <ele>150</ele>
        <time>2013-05-06T08:34:54Z</time>
      </trkpt>
      <trkpt lat="43.40693" lon="-0.53721">
        <ele>151</ele>
        <time>2013-05-06T08:34:55Z</time>
      </trkpt>
      <trkpt lat="43.40694" lon="-0.53718">
        <ele>150</ele>
        <time>2013-05-06T08:34:56Z</time>
      </trkpt>
      <trkpt lat="43.40697" lon="-0.53716">
        <ele>151</ele>
        <time>2013-05-06T08:34:57Z</time>
      </trkpt>
      <trkpt lat="43.40699" lon="-0.53714">
        <ele>150</ele>
        <time>2013-05-06T08:34:58Z</time>
      </trkpt>
      <trkpt lat="43.40702" lon="-0.53713">
        <ele>150</ele>
        <time>2013-05-06T08:34:59Z</time>
      </trkpt>
      <trkpt lat="43.40706" lon="-0.53711">
        <ele>150</ele>
        <time>2013-05-06T08:35:00Z</time>
      </trkpt>
      <trkpt lat="43.40708" lon="-0.53709">
        <ele>151</ele>
        <time>2013-05-06T08:35:01Z</time>
      </trkpt>
      <trkpt lat="43.40711" lon="-0.53707">
        <ele>151</ele>
        <time>2013-05-06T08:35:02Z</time>
      </trkpt>
      <trkpt lat="43.40714" lon="-0.53705">
        <ele>151</ele>
        <time>2013-05-06T08:35:03Z</time>
      </trkpt>
      <trkpt lat="43.40716" lon="-0.53705">
        <ele>151</ele>
        <time>2013-05-06T08:35:04Z</time>
      </trkpt>
      <trkpt lat="43.40719" lon="-0.53704">
        <ele>152</ele>
        <time>2013-05-06T08:35:05Z</time>
      </trkpt>
      <trkpt lat="43.40722" lon="-0.53703">
        <ele>152</ele>
        <time>2013-05-06T08:35:06Z</time>
      </trkpt>
      <trkpt lat="43.40725" lon="-0.53703">
        <ele>153</ele>
        <time>2013-05-06T08:35:07Z</time>
      </trkpt>
      <trkpt lat="43.40728" lon="-0.53702">
        <ele>153</ele>
        <time>2013-05-06T08:35:08Z</time>
      </trkpt>
      <trkpt lat="43.40731" lon="-0.53701">
        <ele>152</ele>
        <time>2013-05-06T08:35:09Z</time>
      </trkpt>
      <trkpt lat="43.40734" lon="-0.53701">
        <ele>153</ele>
        <time>2013-05-06T08:35:10Z</time>
      </trkpt>
      <trkpt lat="43.40737" lon="-0.53701">
        <ele>154</ele>
        <time>2013-05-06T08:35:11Z</time>
      </trkpt>
      <trkpt lat="43.4074" lon="-0.537">
        <ele>154</ele>
        <time>2013-05-06T08:35:12Z</time>
      </trkpt>
      <trkpt lat="43.40743" lon="-0.53699">
        <ele>156</ele>
        <time>2013-05-06T08:35:13Z</time>
      </trkpt>
      <trkpt lat="43.40746" lon="-0.53696">
        <ele>156</ele>
        <time>2013-05-06T08:35:14Z</time>
      </trkpt>
      <trkpt lat="43.40749" lon="-0.53691">
        <ele>158</ele>
        <time>2013-05-06T08:35:15Z</time>
      </trkpt>
      <trkpt lat="43.40751" lon="-0.53688">
        <ele>158</ele>
        <time>2013-05-06T08:35:16Z</time>
      </trkpt>
      <trkpt lat="43.40754" lon="-0.53686">
        <ele>159</ele>
        <time>2013-05-06T08:35:17Z</time>
      </trkpt>
      <trkpt lat="43.40756" lon="-0.53684">
        <ele>158</ele>
        <time>2013-05-06T08:35:18Z</time>
      </trkpt>
      <trkpt lat="43.40759" lon="-0.53682">
        <ele>158</ele>
        <time>2013-05-06T08:35:19Z</time>
      </trkpt>
      <trkpt lat="43.40761" lon="-0.5368">
        <ele>159</ele>
        <time>2013-05-06T08:35:20Z</time>
      </trkpt>
      <trkpt lat="43.40764" lon="-0.53679">
        <ele>158</ele>
        <time>2013-05-06T08:35:21Z</time>
      </trkpt>
      <trkpt lat="43.40767" lon="-0.53679">
        <ele>158</ele>
        <time>2013-05-06T08:35:22Z</time>
      </trkpt>
      <trkpt lat="43.40769" lon="-0.53678">
        <ele>158</ele>
        <time>2013-05-06T08:35:23Z</time>
      </trkpt>
      <trkpt lat="43.40772" lon="-0.53677">
        <ele>158</ele>
        <time>2013-05-06T08:35:24Z</time>
      </trkpt>
      <trkpt lat="43.40773" lon="-0.53675">
        <ele>158</ele>
        <time>2013-05-06T08:35:25Z</time>
      </trkpt>
      <trkpt lat="43.40776" lon="-0.53674">
        <ele>158</ele>
        <time>2013-05-06T08:35:26Z</time>
      </trkpt>
      <trkpt lat="43.40778" lon="-0.53673">
        <ele>158</ele>
        <time>2013-05-06T08:35:27Z</time>
      </trkpt>
      <trkpt lat="43.4078" lon="-0.53672">
        <ele>158</ele>
        <time>2013-05-06T08:35:28Z</time>
      </trkpt>
      <trkpt lat="43.40783" lon="-0.53672">
        <ele>157</ele>
        <time>2013-05-06T08:35:29Z</time>
      </trkpt>
      <trkpt lat="43.40785" lon="-0.53671">
        <ele>157</ele>
        <time>2013-05-06T08:35:30Z</time>
      </trkpt>
      <trkpt lat="43.40786" lon="-0.53671">
        <ele>157</ele>
        <time>2013-05-06T08:35:31Z</time>
      </trkpt>
      <trkpt lat="43.40788" lon="-0.53671">
        <ele>158</ele>
        <time>2013-05-06T08:35:32Z</time>
      </trkpt>
      <trkpt lat="43.4079" lon="-0.5367">
        <ele>158</ele>
        <time>2013-05-06T08:35:33Z</time>
      </trkpt>
      <trkpt lat="43.40792" lon="-0.5367">
        <ele>157</ele>
        <time>2013-05-06T08:35:34Z</time>
      </trkpt>
      <trkpt lat="43.40794" lon="-0.5367">
        <ele>157</ele>
        <time>2013-05-06T08:35:35Z</time>
      </trkpt>
      <trkpt lat="43.40796" lon="-0.53671">
        <ele>156</ele>
        <time>2013-05-06T08:35:36Z</time>
      </trkpt>
      <trkpt lat="43.40796" lon="-0.53672">
        <ele>157</ele>
        <time>2013-05-06T08:35:37Z</time>
      </trkpt>
      <trkpt lat="43.40798" lon="-0.53672">
        <ele>157</ele>
        <time>2013-05-06T08:35:38Z</time>
      </trkpt>
      <trkpt lat="43.40799" lon="-0.53674">
        <ele>156</ele>
        <time>2013-05-06T08:35:39Z</time>
      </trkpt>
      <trkpt lat="43.40799" lon="-0.53677">
        <ele>157</ele>
        <time>2013-05-06T08:35:40Z</time>
      </trkpt>
      <trkpt lat="43.408" lon="-0.53681">
        <ele>156</ele>
        <time>2013-05-06T08:35:41Z</time>
      </trkpt>
      <trkpt lat="43.40801" lon="-0.53684">
        <ele>156</ele>
        <time>2013-05-06T08:35:42Z</time>
      </trkpt>
      <trkpt lat="43.40801" lon="-0.53686">
        <ele>157</ele>
        <time>2013-05-06T08:35:43Z</time>
      </trkpt>
      <trkpt lat="43.40802" lon="-0.53689">
        <ele>157</ele>
        <time>2013-05-06T08:35:44Z</time>
      </trkpt>
      <trkpt lat="43.40802" lon="-0.53692">
        <ele>157</ele>
        <time>2013-05-06T08:35:45Z</time>
      </trkpt>
      <trkpt lat="43.40802" lon="-0.53694">
        <ele>156</ele>
        <time>2013-05-06T08:35:46Z</time>
      </trkpt>
      <trkpt lat="43.40802" lon="-0.53696">
        <ele>157</ele>
        <time>2013-05-06T08:35:47Z</time>
      </trkpt>
      <trkpt lat="43.40801" lon="-0.53699">
        <ele>157</ele>
        <time>2013-05-06T08:35:48Z</time>
      </trkpt>
      <trkpt lat="43.40801" lon="-0.53702">
        <ele>157</ele>
        <time>2013-05-06T08:35:49Z</time>
      </trkpt>
      <trkpt lat="43.40801" lon="-0.53704">
        <ele>157</ele>
        <time>2013-05-06T08:35:50Z</time>
      </trkpt>
      <trkpt lat="43.40801" lon="-0.53707">
        <ele>157</ele>
        <time>2013-05-06T08:35:51Z</time>
      </trkpt>
      <trkpt lat="43.40801" lon="-0.5371">
        <ele>156</ele>
        <time>2013-05-06T08:35:52Z</time>
      </trkpt>
      <trkpt lat="43.40801" lon="-0.53714">
        <ele>156</ele>
        <time>2013-05-06T08:35:53Z</time>
      </trkpt>
      <trkpt lat="43.40801" lon="-0.53716">
        <ele>156</ele>
        <time>2013-05-06T08:35:54Z</time>
      </trkpt>
      <trkpt lat="43.40801" lon="-0.53719">
        <ele>155</ele>
        <time>2013-05-06T08:35:55Z</time>
      </trkpt>
      <trkpt lat="43.40802" lon="-0.53722">
        <ele>156</ele>
        <time>2013-05-06T08:35:56Z</time>
      </trkpt>
      <trkpt lat="43.40803" lon="-0.53724">
        <ele>157</ele>
        <time>2013-05-06T08:35:57Z</time>
      </trkpt>
      <trkpt lat="43.40804" lon="-0.53726">
        <ele>157</ele>
        <time>2013-05-06T08:35:58Z</time>
      </trkpt>
      <trkpt lat="43.40805" lon="-0.53729">
        <ele>158</ele>
        <time>2013-05-06T08:35:59Z</time>
      </trkpt>
      <trkpt lat="43.40806" lon="-0.53731">
        <ele>158</ele>
        <time>2013-05-06T08:36:00Z</time>
      </trkpt>
      <trkpt lat="43.40807" lon="-0.53733">
        <ele>158</ele>
        <time>2013-05-06T08:36:01Z</time>
      </trkpt>
      <trkpt lat="43.40808" lon="-0.53735">
        <ele>158</ele>
        <time>2013-05-06T08:36:02Z</time>
      </trkpt>
      <trkpt lat="43.40809" lon="-0.53738">
        <ele>158</ele>
        <time>2013-05-06T08:36:03Z</time>
      </trkpt>
      <trkpt lat="43.40809" lon="-0.5374">
        <ele>158</ele>
        <time>2013-05-06T08:36:04Z</time>
      </trkpt>
      <trkpt lat="43.4081" lon="-0.53743">
        <ele>158</ele>
        <time>2013-05-06T08:36:05Z</time>
      </trkpt>
      <trkpt lat="43.40811" lon="-0.53746">
        <ele>160</ele>
        <time>2013-05-06T08:36:06Z</time>
      </trkpt>
      <trkpt lat="43.40812" lon="-0.53748">
        <ele>159</ele>
        <time>2013-05-06T08:36:07Z</time>
      </trkpt>
      <trkpt lat="43.40813" lon="-0.5375">
        <ele>159</ele>
        <time>2013-05-06T08:36:08Z</time>
      </trkpt>
      <trkpt lat="43.40813" lon="-0.53752">
        <ele>159</ele>
        <time>2013-05-06T08:36:09Z</time>
      </trkpt>
      <trkpt lat="43.40814" lon="-0.53754">
        <ele>159</ele>
        <time>2013-05-06T08:36:10Z</time>
      </trkpt>
      <trkpt lat="43.40814" lon="-0.53755">
        <ele>160</ele>
        <time>2013-05-06T08:36:11Z</time>
      </trkpt>
      <trkpt lat="43.40814" lon="-0.53757">
        <ele>159</ele>
        <time>2013-05-06T08:36:12Z</time>
      </trkpt>
      <trkpt lat="43.40815" lon="-0.5376">
        <ele>159</ele>
        <time>2013-05-06T08:36:13Z</time>
      </trkpt>
      <trkpt lat="43.40815" lon="-0.53762">
        <ele>159</ele>
        <time>2013-05-06T08:36:14Z</time>
      </trkpt>
      <trkpt lat="43.40816" lon="-0.53764">
        <ele>160</ele>
        <time>2013-05-06T08:36:15Z</time>
      </trkpt>
      <trkpt lat="43.40817" lon="-0.53765">
        <ele>158</ele>
        <time>2013-05-06T08:36:16Z</time>
      </trkpt>
      <trkpt lat="43.40817" lon="-0.53767">
        <ele>158</ele>
        <time>2013-05-06T08:36:17Z</time>
      </trkpt>
      <trkpt lat="43.40818" lon="-0.53769">
        <ele>157</ele>
        <time>2013-05-06T08:36:18Z</time>
      </trkpt>
      <trkpt lat="43.40819" lon="-0.53771">
        <ele>158</ele>
        <time>2013-05-06T08:36:19Z</time>
      </trkpt>
      <trkpt lat="43.4082" lon="-0.53774">
        <ele>157</ele>
        <time>2013-05-06T08:36:20Z</time>
      </trkpt>
      <trkpt lat="43.4082" lon="-0.53777">
        <ele>157</ele>
        <time>2013-05-06T08:36:21Z</time>
      </trkpt>
      <trkpt lat="43.40821" lon="-0.53779">
        <ele>157</ele>
        <time>2013-05-06T08:36:22Z</time>
      </trkpt>
      <trkpt lat="43.40822" lon="-0.53782">
        <ele>157</ele>
        <time>2013-05-06T08:36:23Z</time>
      </trkpt>
      <trkpt lat="43.40823" lon="-0.53785">
        <ele>158</ele>
        <time>2013-05-06T08:36:24Z</time>
      </trkpt>
      <trkpt lat="43.40823" lon="-0.53787">
        <ele>158</ele>
        <time>2013-05-06T08:36:25Z</time>
      </trkpt>
      <trkpt lat="43.40823" lon="-0.53789">
        <ele>158</ele>
        <time>2013-05-06T08:36:26Z</time>
      </trkpt>
      <trkpt lat="43.40824" lon="-0.53791">
        <ele>160</ele>
        <time>2013-05-06T08:36:27Z</time>
      </trkpt>
      <trkpt lat="43.40825" lon="-0.53794">
        <ele>160</ele>
        <time>2013-05-06T08:36:28Z</time>
      </trkpt>
      <trkpt lat="43.40826" lon="-0.53796">
        <ele>160</ele>
        <time>2013-05-06T08:36:29Z</time>
      </trkpt>
      <trkpt lat="43.40827" lon="-0.53799">
        <ele>161</ele>
        <time>2013-05-06T08:36:30Z</time>
      </trkpt>
      <trkpt lat="43.40829" lon="-0.53802">
        <ele>162</ele>
        <time>2013-05-06T08:36:31Z</time>
      </trkpt>
      <trkpt lat="43.4083" lon="-0.53804">
        <ele>162</ele>
        <time>2013-05-06T08:36:32Z</time>
      </trkpt>
      <trkpt lat="43.40831" lon="-0.53806">
        <ele>163</ele>
        <time>2013-05-06T08:36:33Z</time>
      </trkpt>
      <trkpt lat="43.40833" lon="-0.53808">
        <ele>163</ele>
        <time>2013-05-06T08:36:34Z</time>
      </trkpt>
      <trkpt lat="43.40834" lon="-0.53809">
        <ele>163</ele>
        <time>2013-05-06T08:36:35Z</time>
      </trkpt>
      <trkpt lat="43.40835" lon="-0.5381">
        <ele>162</ele>
        <time>2013-05-06T08:36:36Z</time>
      </trkpt>
      <trkpt lat="43.40838" lon="-0.5381">
        <ele>163</ele>
        <time>2013-05-06T08:36:37Z</time>
      </trkpt>
      <trkpt lat="43.4084" lon="-0.53811">
        <ele>162</ele>
        <time>2013-05-06T08:36:38Z</time>
      </trkpt>
      <trkpt lat="43.40842" lon="-0.53811">
        <ele>162</ele>
        <time>2013-05-06T08:36:39Z</time>
      </trkpt>
      <trkpt lat="43.40846" lon="-0.53811">
        <ele>165</ele>
        <time>2013-05-06T08:36:40Z</time>
      </trkpt>
      <trkpt lat="43.40848" lon="-0.5381">
        <ele>165</ele>
        <time>2013-05-06T08:36:41Z</time>
      </trkpt>
      <trkpt lat="43.4085" lon="-0.5381">
        <ele>163</ele>
        <time>2013-05-06T08:36:42Z</time>
      </trkpt>
      <trkpt lat="43.40852" lon="-0.53809">
        <ele>163</ele>
        <time>2013-05-06T08:36:43Z</time>
      </trkpt>
      <trkpt lat="43.40854" lon="-0.53808">
        <ele>163</ele>
        <time>2013-05-06T08:36:44Z</time>
      </trkpt>
      <trkpt lat="43.40856" lon="-0.53807">
        <ele>163</ele>
        <time>2013-05-06T08:36:45Z</time>
      </trkpt>
      <trkpt lat="43.40859" lon="-0.53807">
        <ele>164</ele>
        <time>2013-05-06T08:36:46Z</time>
      </trkpt>
      <trkpt lat="43.40861" lon="-0.53806">
        <ele>163</ele>
        <time>2013-05-06T08:36:47Z</time>
      </trkpt>
      <trkpt lat="43.40863" lon="-0.53806">
        <ele>164</ele>
        <time>2013-05-06T08:36:48Z</time>
      </trkpt>
      <trkpt lat="43.40865" lon="-0.53805">
        <ele>163</ele>
        <time>2013-05-06T08:36:49Z</time>
      </trkpt>
      <trkpt lat="43.40868" lon="-0.53805">
        <ele>162</ele>
        <time>2013-05-06T08:36:50Z</time>
      </trkpt>
      <trkpt lat="43.4087" lon="-0.53805">
        <ele>162</ele>
        <time>2013-05-06T08:36:51Z</time>
      </trkpt>
      <trkpt lat="43.40873" lon="-0.53805">
        <ele>162</ele>
        <time>2013-05-06T08:36:52Z</time>
      </trkpt>
      <trkpt lat="43.40875" lon="-0.53805">
        <ele>163</ele>
        <time>2013-05-06T08:36:53Z</time>
      </trkpt>
      <trkpt lat="43.40877" lon="-0.53804">
        <ele>163</ele>
        <time>2013-05-06T08:36:54Z</time>
      </trkpt>
      <trkpt lat="43.40879" lon="-0.53804">
        <ele>163</ele>
        <time>2013-05-06T08:36:55Z</time>
      </trkpt>
      <trkpt lat="43.40881" lon="-0.53804">
        <ele>164</ele>
        <time>2013-05-06T08:36:56Z</time>
      </trkpt>
      <trkpt lat="43.40883" lon="-0.53803">
        <ele>163</ele>
        <time>2013-05-06T08:36:57Z</time>
      </trkpt>
      <trkpt lat="43.40886" lon="-0.53803">
        <ele>164</ele>
        <time>2013-05-06T08:36:58Z</time>
      </trkpt>
      <trkpt lat="43.40888" lon="-0.53803">
        <ele>163</ele>
        <time>2013-05-06T08:36:59Z</time>
      </trkpt>
      <trkpt lat="43.4089" lon="-0.53803">
        <ele>164</ele>
        <time>2013-05-06T08:37:00Z</time>
      </trkpt>
      <trkpt lat="43.40891" lon="-0.53801">
        <ele>164</ele>
        <time>2013-05-06T08:37:01Z</time>
      </trkpt>
      <trkpt lat="43.40893" lon="-0.538">
        <ele>165</ele>
        <time>2013-05-06T08:37:02Z</time>
      </trkpt>
      <trkpt lat="43.40895" lon="-0.538">
        <ele>165</ele>
        <time>2013-05-06T08:37:03Z</time>
      </trkpt>
      <trkpt lat="43.40897" lon="-0.53798">
        <ele>166</ele>
        <time>2013-05-06T08:37:04Z</time>
      </trkpt>
      <trkpt lat="43.40898" lon="-0.53796">
        <ele>167</ele>
        <time>2013-05-06T08:37:05Z</time>
      </trkpt>
      <trkpt lat="43.40899" lon="-0.53795">
        <ele>168</ele>
        <time>2013-05-06T08:37:06Z</time>
      </trkpt>
      <trkpt lat="43.409" lon="-0.53793">
        <ele>168</ele>
        <time>2013-05-06T08:37:07Z</time>
      </trkpt>
      <trkpt lat="43.40901" lon="-0.53792">
        <ele>168</ele>
        <time>2013-05-06T08:37:08Z</time>
      </trkpt>
      <trkpt lat="43.40902" lon="-0.53791">
        <ele>168</ele>
        <time>2013-05-06T08:37:09Z</time>
      </trkpt>
      <trkpt lat="43.40903" lon="-0.53791">
        <ele>168</ele>
        <time>2013-05-06T08:37:10Z</time>
      </trkpt>
      <trkpt lat="43.40904" lon="-0.5379">
        <ele>168</ele>
        <time>2013-05-06T08:37:11Z</time>
      </trkpt>
      <trkpt lat="43.40905" lon="-0.5379">
        <ele>168</ele>
        <time>2013-05-06T08:37:12Z</time>
      </trkpt>
      <trkpt lat="43.40906" lon="-0.5379">
        <ele>169</ele>
        <time>2013-05-06T08:37:13Z</time>
      </trkpt>
      <trkpt lat="43.40907" lon="-0.53789">
        <ele>169</ele>
        <time>2013-05-06T08:37:14Z</time>
      </trkpt>
      <trkpt lat="43.40909" lon="-0.5379">
        <ele>169</ele>
        <time>2013-05-06T08:37:15Z</time>
      </trkpt>
      <trkpt lat="43.4091" lon="-0.53789">
        <ele>169</ele>
        <time>2013-05-06T08:37:16Z</time>
      </trkpt>
      <trkpt lat="43.40912" lon="-0.53789">
        <ele>168</ele>
        <time>2013-05-06T08:37:17Z</time>
      </trkpt>
      <trkpt lat="43.40913" lon="-0.53789">
        <ele>169</ele>
        <time>2013-05-06T08:37:18Z</time>
      </trkpt>
      <trkpt lat="43.40914" lon="-0.53787">
        <ele>170</ele>
        <time>2013-05-06T08:37:19Z</time>
      </trkpt>
      <trkpt lat="43.40916" lon="-0.53787">
        <ele>171</ele>
        <time>2013-05-06T08:37:20Z</time>
      </trkpt>
      <trkpt lat="43.40916" lon="-0.53785">
        <ele>170</ele>
        <time>2013-05-06T08:37:21Z</time>
      </trkpt>
      <trkpt lat="43.40917" lon="-0.53784">
        <ele>171</ele>
        <time>2013-05-06T08:37:22Z</time>
      </trkpt>
      <trkpt lat="43.40918" lon="-0.53782">
        <ele>172</ele>
        <time>2013-05-06T08:37:23Z</time>
      </trkpt>
      <trkpt lat="43.40918" lon="-0.53781">
        <ele>172</ele>
        <time>2013-05-06T08:37:24Z</time>
      </trkpt>
      <trkpt lat="43.40919" lon="-0.53779">
        <ele>172</ele>
        <time>2013-05-06T08:37:25Z</time>
      </trkpt>
      <trkpt lat="43.4092" lon="-0.53778">
        <ele>172</ele>
        <time>2013-05-06T08:37:26Z</time>
      </trkpt>
      <trkpt lat="43.40921" lon="-0.53777">
        <ele>172</ele>
        <time>2013-05-06T08:37:27Z</time>
      </trkpt>
      <trkpt lat="43.40921" lon="-0.53776">
        <ele>172</ele>
        <time>2013-05-06T08:37:28Z</time>
      </trkpt>
      <trkpt lat="43.40923" lon="-0.53775">
        <ele>172</ele>
        <time>2013-05-06T08:37:29Z</time>
      </trkpt>
      <trkpt lat="43.40925" lon="-0.53775">
        <ele>172</ele>
        <time>2013-05-06T08:37:30Z</time>
      </trkpt>
      <trkpt lat="43.40926" lon="-0.53775">
        <ele>172</ele>
        <time>2013-05-06T08:37:31Z</time>
      </trkpt>
      <trkpt lat="43.40928" lon="-0.53776">
        <ele>172</ele>
        <time>2013-05-06T08:37:32Z</time>
      </trkpt>
      <trkpt lat="43.40929" lon="-0.53776">
        <ele>173</ele>
        <time>2013-05-06T08:37:33Z</time>
      </trkpt>
      <trkpt lat="43.40931" lon="-0.53776">
        <ele>173</ele>
        <time>2013-05-06T08:37:34Z</time>
      </trkpt>
      <trkpt lat="43.40932" lon="-0.53775">
        <ele>172</ele>
        <time>2013-05-06T08:37:35Z</time>
      </trkpt>
      <trkpt lat="43.40932" lon="-0.53773">
        <ele>171</ele>
        <time>2013-05-06T08:37:36Z</time>
      </trkpt>
      <trkpt lat="43.40933" lon="-0.53771">
        <ele>172</ele>
        <time>2013-05-06T08:37:37Z</time>
      </trkpt>
      <trkpt lat="43.40934" lon="-0.53768">
        <ele>172</ele>
        <time>2013-05-06T08:37:38Z</time>
      </trkpt>
      <trkpt lat="43.40936" lon="-0.53767">
        <ele>173</ele>
        <time>2013-05-06T08:37:39Z</time>
      </trkpt>
      <trkpt lat="43.40937" lon="-0.53766">
        <ele>173</ele>
        <time>2013-05-06T08:37:40Z</time>
      </trkpt>
      <trkpt lat="43.40938" lon="-0.53765">
        <ele>173</ele>
        <time>2013-05-06T08:37:41Z</time>
      </trkpt>
      <trkpt lat="43.40939" lon="-0.53764">
        <ele>173</ele>
        <time>2013-05-06T08:37:42Z</time>
      </trkpt>
      <trkpt lat="43.40941" lon="-0.53764">
        <ele>173</ele>
        <time>2013-05-06T08:37:43Z</time>
      </trkpt>
      <trkpt lat="43.40942" lon="-0.53764">
        <ele>173</ele>
        <time>2013-05-06T08:37:44Z</time>
      </trkpt>
      <trkpt lat="43.40943" lon="-0.53765">
        <ele>173</ele>
        <time>2013-05-06T08:37:45Z</time>
      </trkpt>
      <trkpt lat="43.40944" lon="-0.53765">
        <ele>173</ele>
        <time>2013-05-06T08:37:46Z</time>
      </trkpt>
      <trkpt lat="43.40945" lon="-0.53766">
        <ele>173</ele>
        <time>2013-05-06T08:37:47Z</time>
      </trkpt>
      <trkpt lat="43.40946" lon="-0.53766">
        <ele>173</ele>
        <time>2013-05-06T08:37:48Z</time>
      </trkpt>
      <trkpt lat="43.40947" lon="-0.53767">
        <ele>173</ele>
        <time>2013-05-06T08:37:49Z</time>
      </trkpt>
      <trkpt lat="43.40948" lon="-0.53768">
        <ele>173</ele>
        <time>2013-05-06T08:37:50Z</time>
      </trkpt>
      <trkpt lat="43.40949" lon="-0.53769">
        <ele>173</ele>
        <time>2013-05-06T08:37:51Z</time>
      </trkpt>
      <trkpt lat="43.4095" lon="-0.53769">
        <ele>173</ele>
        <time>2013-05-06T08:37:52Z</time>
      </trkpt>
      <trkpt lat="43.40951" lon="-0.5377">
        <ele>173</ele>
        <time>2013-05-06T08:37:53Z</time>
      </trkpt>
      <trkpt lat="43.40952" lon="-0.53771">
        <ele>173</ele>
        <time>2013-05-06T08:37:54Z</time>
      </trkpt>
      <trkpt lat="43.40953" lon="-0.53772">
        <ele>173</ele>
        <time>2013-05-06T08:37:55Z</time>
      </trkpt>
      <trkpt lat="43.40953" lon="-0.53772">
        <ele>172</ele>
        <time>2013-05-06T08:37:56Z</time>
      </trkpt>
      <trkpt lat="43.40954" lon="-0.53773">
        <ele>172</ele>
        <time>2013-05-06T08:37:57Z</time>
      </trkpt>
      <trkpt lat="43.40955" lon="-0.53774">
        <ele>172</ele>
        <time>2013-05-06T08:37:58Z</time>
      </trkpt>
      <trkpt lat="43.40956" lon="-0.53774">
        <ele>171</ele>
        <time>2013-05-06T08:37:59Z</time>
      </trkpt>
      <trkpt lat="43.40957" lon="-0.53775">
        <ele>171</ele>
        <time>2013-05-06T08:38:00Z</time>
      </trkpt>
      <trkpt lat="43.40957" lon="-0.53776">
        <ele>170</ele>
        <time>2013-05-06T08:38:01Z</time>
      </trkpt>
      <trkpt lat="43.40958" lon="-0.53777">
        <ele>170</ele>
        <time>2013-05-06T08:38:02Z</time>
      </trkpt>
      <trkpt lat="43.40959" lon="-0.53778">
        <ele>170</ele>
        <time>2013-05-06T08:38:03Z</time>
      </trkpt>
      <trkpt lat="43.4096" lon="-0.53778">
        <ele>171</ele>
        <time>2013-05-06T08:38:04Z</time>
      </trkpt>
      <trkpt lat="43.40961" lon="-0.53779">
        <ele>171</ele>
        <time>2013-05-06T08:38:05Z</time>
      </trkpt>
      <trkpt lat="43.40963" lon="-0.53779">
        <ele>172</ele>
        <time>2013-05-06T08:38:06Z</time>
      </trkpt>
      <trkpt lat="43.40964" lon="-0.53779">
        <ele>172</ele>
        <time>2013-05-06T08:38:07Z</time>
      </trkpt>
      <trkpt lat="43.40965" lon="-0.5378">
        <ele>172</ele>
        <time>2013-05-06T08:38:08Z</time>
      </trkpt>
      <trkpt lat="43.40966" lon="-0.53781">
        <ele>172</ele>
        <time>2013-05-06T08:38:09Z</time>
      </trkpt>
      <trkpt lat="43.40966" lon="-0.53781">
        <ele>173</ele>
        <time>2013-05-06T08:38:10Z</time>
      </trkpt>
      <trkpt lat="43.40968" lon="-0.53782">
        <ele>173</ele>
        <time>2013-05-06T08:38:11Z</time>
      </trkpt>
      <trkpt lat="43.40969" lon="-0.53783">
        <ele>173</ele>
        <time>2013-05-06T08:38:12Z</time>
      </trkpt>
      <trkpt lat="43.4097" lon="-0.53783">
        <ele>173</ele>
        <time>2013-05-06T08:38:13Z</time>
      </trkpt>
      <trkpt lat="43.40971" lon="-0.53784">
        <ele>173</ele>
        <time>2013-05-06T08:38:14Z</time>
      </trkpt>
      <trkpt lat="43.40972" lon="-0.53785">
        <ele>173</ele>
        <time>2013-05-06T08:38:15Z</time>
      </trkpt>
      <trkpt lat="43.40973" lon="-0.53786">
        <ele>174</ele>
        <time>2013-05-06T08:38:16Z</time>
      </trkpt>
      <trkpt lat="43.40973" lon="-0.53786">
        <ele>174</ele>
        <time>2013-05-06T08:38:17Z</time>
      </trkpt>
      <trkpt lat="43.40974" lon="-0.53787">
        <ele>173</ele>
        <time>2013-05-06T08:38:18Z</time>
      </trkpt>
      <trkpt lat="43.40975" lon="-0.53788">
        <ele>172</ele>
        <time>2013-05-06T08:38:19Z</time>
      </trkpt>
      <trkpt lat="43.40976" lon="-0.53788">
        <ele>173</ele>
        <time>2013-05-06T08:38:20Z</time>
      </trkpt>
      <trkpt lat="43.40978" lon="-0.53789">
        <ele>173</ele>
        <time>2013-05-06T08:38:21Z</time>
      </trkpt>
      <trkpt lat="43.40979" lon="-0.53789">
        <ele>174</ele>
        <time>2013-05-06T08:38:22Z</time>
      </trkpt>
      <trkpt lat="43.40979" lon="-0.5379">
        <ele>174</ele>
        <time>2013-05-06T08:38:23Z</time>
      </trkpt>
      <trkpt lat="43.40981" lon="-0.53791">
        <ele>174</ele>
        <time>2013-05-06T08:38:24Z</time>
      </trkpt>
      <trkpt lat="43.40982" lon="-0.53791">
        <ele>174</ele>
        <time>2013-05-06T08:38:25Z</time>
      </trkpt>
      <trkpt lat="43.40982" lon="-0.53792">
        <ele>174</ele>
        <time>2013-05-06T08:38:26Z</time>
      </trkpt>
      <trkpt lat="43.40984" lon="-0.53792">
        <ele>174</ele>
        <time>2013-05-06T08:38:27Z</time>
      </trkpt>
      <trkpt lat="43.40985" lon="-0.53792">
        <ele>175</ele>
        <time>2013-05-06T08:38:28Z</time>
      </trkpt>
      <trkpt lat="43.40986" lon="-0.53793">
        <ele>175</ele>
        <time>2013-05-06T08:38:29Z</time>
      </trkpt>
      <trkpt lat="43.40987" lon="-0.53793">
        <ele>176</ele>
        <time>2013-05-06T08:38:30Z</time>
      </trkpt>
      <trkpt lat="43.40988" lon="-0.53795">
        <ele>180</ele>
        <time>2013-05-06T08:38:31Z</time>
      </trkpt>
      <trkpt lat="43.40989" lon="-0.53797">
        <ele>181</ele>
        <time>2013-05-06T08:38:32Z</time>
      </trkpt>
      <trkpt lat="43.4099" lon="-0.538">
        <ele>182</ele>
        <time>2013-05-06T08:38:33Z</time>
      </trkpt>
      <trkpt lat="43.40991" lon="-0.53802">
        <ele>182</ele>
        <time>2013-05-06T08:38:34Z</time>
      </trkpt>
      <trkpt lat="43.40992" lon="-0.53803">
        <ele>182</ele>
        <time>2013-05-06T08:38:35Z</time>
      </trkpt>
      <trkpt lat="43.40993" lon="-0.53803">
        <ele>182</ele>
        <time>2013-05-06T08:38:36Z</time>
      </trkpt>
      <trkpt lat="43.40994" lon="-0.53804">
        <ele>182</ele>
        <time>2013-05-06T08:38:37Z</time>
      </trkpt>
      <trkpt lat="43.40995" lon="-0.53804">
        <ele>183</ele>
        <time>2013-05-06T08:38:38Z</time>
      </trkpt>
      <trkpt lat="43.40996" lon="-0.53804">
        <ele>183</ele>
        <time>2013-05-06T08:38:39Z</time>
      </trkpt>
      <trkpt lat="43.40997" lon="-0.53804">
        <ele>183</ele>
        <time>2013-05-06T08:38:40Z</time>
      </trkpt>
      <trkpt lat="43.40998" lon="-0.53805">
        <ele>183</ele>
        <time>2013-05-06T08:38:41Z</time>
      </trkpt>
      <trkpt lat="43.40999" lon="-0.53805">
        <ele>180</ele>
        <time>2013-05-06T08:38:42Z</time>
      </trkpt>
      <trkpt lat="43.41" lon="-0.53805">
        <ele>179</ele>
        <time>2013-05-06T08:38:43Z</time>
      </trkpt>
      <trkpt lat="43.41002" lon="-0.53805">
        <ele>180</ele>
        <time>2013-05-06T08:38:44Z</time>
      </trkpt>
      <trkpt lat="43.41004" lon="-0.53805">
        <ele>180</ele>
        <time>2013-05-06T08:38:45Z</time>
      </trkpt>
      <trkpt lat="43.41005" lon="-0.53804">
        <ele>180</ele>
        <time>2013-05-06T08:38:46Z</time>
      </trkpt>
      <trkpt lat="43.41006" lon="-0.53803">
        <ele>180</ele>
        <time>2013-05-06T08:38:47Z</time>
      </trkpt>
      <trkpt lat="43.41007" lon="-0.53801">
        <ele>181</ele>
        <time>2013-05-06T08:38:48Z</time>
      </trkpt>
      <trkpt lat="43.41007" lon="-0.53799">
        <ele>180</ele>
        <time>2013-05-06T08:38:49Z</time>
      </trkpt>
      <trkpt lat="43.41008" lon="-0.53797">
        <ele>180</ele>
        <time>2013-05-06T08:38:50Z</time>
      </trkpt>
      <trkpt lat="43.41008" lon="-0.53795">
        <ele>180</ele>
        <time>2013-05-06T08:38:51Z</time>
      </trkpt>
      <trkpt lat="43.41008" lon="-0.53792">
        <ele>180</ele>
        <time>2013-05-06T08:38:52Z</time>
      </trkpt>
      <trkpt lat="43.41008" lon="-0.5379">
        <ele>180</ele>
        <time>2013-05-06T08:38:53Z</time>
      </trkpt>
      <trkpt lat="43.41009" lon="-0.53788">
        <ele>180</ele>
        <time>2013-05-06T08:38:54Z</time>
      </trkpt>
      <trkpt lat="43.4101" lon="-0.53786">
        <ele>181</ele>
        <time>2013-05-06T08:38:55Z</time>
      </trkpt>
      <trkpt lat="43.41012" lon="-0.53785">
        <ele>184</ele>
        <time>2013-05-06T08:38:56Z</time>
      </trkpt>
      <trkpt lat="43.41013" lon="-0.53784">
        <ele>185</ele>
        <time>2013-05-06T08:38:57Z</time>
      </trkpt>
      <trkpt lat="43.41015" lon="-0.53784">
        <ele>185</ele>
        <time>2013-05-06T08:38:58Z</time>
      </trkpt>
      <trkpt lat="43.41018" lon="-0.53784">
        <ele>185</ele>
        <time>2013-05-06T08:38:59Z</time>
      </trkpt>
      <trkpt lat="43.41019" lon="-0.53784">
        <ele>185</ele>
        <time>2013-05-06T08:39:00Z</time>
      </trkpt>
      <trkpt lat="43.41021" lon="-0.53784">
        <ele>185</ele>
        <time>2013-05-06T08:39:01Z</time>
      </trkpt>
      <trkpt lat="43.41021" lon="-0.53784">
        <ele>186</ele>
        <time>2013-05-06T08:39:02Z</time>
      </trkpt>
      <trkpt lat="43.41021" lon="-0.53785">
        <ele>188</ele>
        <time>2013-05-06T08:39:03Z</time>
      </trkpt>
      <trkpt lat="43.41021" lon="-0.53784">
        <ele>188</ele>
        <time>2013-05-06T08:39:04Z</time>
      </trkpt>
      <trkpt lat="43.41021" lon="-0.53784">
        <ele>190</ele>
        <time>2013-05-06T08:39:05Z</time>
      </trkpt>
      <trkpt lat="43.41021" lon="-0.53784">
        <ele>190</ele>
        <time>2013-05-06T08:39:06Z</time>
      </trkpt>
      <trkpt lat="43.41021" lon="-0.53783">
        <ele>190</ele>
        <time>2013-05-06T08:39:07Z</time>
      </trkpt>
      <trkpt lat="43.41021" lon="-0.53783">
        <ele>190</ele>
        <time>2013-05-06T08:39:08Z</time>
      </trkpt>
      <trkpt lat="43.41021" lon="-0.53783">
        <ele>190</ele>
        <time>2013-05-06T08:39:09Z</time>
      </trkpt>
      <trkpt lat="43.41021" lon="-0.53783">
        <ele>191</ele>
        <time>2013-05-06T08:39:10Z</time>
      </trkpt>
      <trkpt lat="43.41021" lon="-0.53783">
        <ele>191</ele>
        <time>2013-05-06T08:39:11Z</time>
      </trkpt>
      <trkpt lat="43.41021" lon="-0.53784">
        <ele>191</ele>
        <time>2013-05-06T08:39:12Z</time>
      </trkpt>
      <trkpt lat="43.41022" lon="-0.53784">
        <ele>191</ele>
        <time>2013-05-06T08:39:13Z</time>
      </trkpt>
      <trkpt lat="43.41023" lon="-0.53785">
        <ele>190</ele>
        <time>2013-05-06T08:39:14Z</time>
      </trkpt>
      <trkpt lat="43.41023" lon="-0.53785">
        <ele>188</ele>
        <time>2013-05-06T08:39:15Z</time>
      </trkpt>
      <trkpt lat="43.41024" lon="-0.53785">
        <ele>188</ele>
        <time>2013-05-06T08:39:16Z</time>
      </trkpt>
      <trkpt lat="43.41026" lon="-0.53785">
        <ele>187</ele>
        <time>2013-05-06T08:39:17Z</time>
      </trkpt>
      <trkpt lat="43.41028" lon="-0.53786">
        <ele>188</ele>
        <time>2013-05-06T08:39:18Z</time>
      </trkpt>
      <trkpt lat="43.4103" lon="-0.53786">
        <ele>188</ele>
        <time>2013-05-06T08:39:19Z</time>
      </trkpt>
      <trkpt lat="43.41032" lon="-0.53787">
        <ele>188</ele>
        <time>2013-05-06T08:39:20Z</time>
      </trkpt>
      <trkpt lat="43.41034" lon="-0.53786">
        <ele>188</ele>
        <time>2013-05-06T08:39:21Z</time>
      </trkpt>
      <trkpt lat="43.41036" lon="-0.53786">
        <ele>189</ele>
        <time>2013-05-06T08:39:22Z</time>
      </trkpt>
      <trkpt lat="43.41037" lon="-0.53785">
        <ele>189</ele>
        <time>2013-05-06T08:39:23Z</time>
      </trkpt>
      <trkpt lat="43.41039" lon="-0.53784">
        <ele>189</ele>
        <time>2013-05-06T08:39:24Z</time>
      </trkpt>
      <trkpt lat="43.4104" lon="-0.53783">
        <ele>189</ele>
        <time>2013-05-06T08:39:25Z</time>
      </trkpt>
      <trkpt lat="43.41041" lon="-0.53782">
        <ele>189</ele>
        <time>2013-05-06T08:39:26Z</time>
      </trkpt>
      <trkpt lat="43.41042" lon="-0.53781">
        <ele>188</ele>
        <time>2013-05-06T08:39:27Z</time>
      </trkpt>
      <trkpt lat="43.41043" lon="-0.53781">
        <ele>189</ele>
        <time>2013-05-06T08:39:28Z</time>
      </trkpt>
      <trkpt lat="43.41044" lon="-0.5378">
        <ele>188</ele>
        <time>2013-05-06T08:39:29Z</time>
      </trkpt>
      <trkpt lat="43.41046" lon="-0.53779">
        <ele>188</ele>
        <time>2013-05-06T08:39:30Z</time>
      </trkpt>
      <trkpt lat="43.41048" lon="-0.53778">
        <ele>188</ele>
        <time>2013-05-06T08:39:31Z</time>
      </trkpt>
      <trkpt lat="43.41048" lon="-0.53776">
        <ele>193</ele>
        <time>2013-05-06T08:39:32Z</time>
      </trkpt>
      <trkpt lat="43.4105" lon="-0.53775">
        <ele>195</ele>
        <time>2013-05-06T08:39:33Z</time>
      </trkpt>
      <trkpt lat="43.4105" lon="-0.53772">
        <ele>196</ele>
        <time>2013-05-06T08:39:34Z</time>
      </trkpt>
      <trkpt lat="43.4105" lon="-0.5377">
        <ele>196</ele>
        <time>2013-05-06T08:39:35Z</time>
      </trkpt>
      <trkpt lat="43.4105" lon="-0.53768">
        <ele>197</ele>
        <time>2013-05-06T08:39:36Z</time>
      </trkpt>
      <trkpt lat="43.4105" lon="-0.53766">
        <ele>197</ele>
        <time>2013-05-06T08:39:37Z</time>
      </trkpt>
      <trkpt lat="43.41049" lon="-0.53764">
        <ele>196</ele>
        <time>2013-05-06T08:39:38Z</time>
      </trkpt>
      <trkpt lat="43.41049" lon="-0.53763">
        <ele>196</ele>
        <time>2013-05-06T08:39:39Z</time>
      </trkpt>
      <trkpt lat="43.4105" lon="-0.53763">
        <ele>196</ele>
        <time>2013-05-06T08:39:40Z</time>
      </trkpt>
      <trkpt lat="43.41052" lon="-0.53762">
        <ele>197</ele>
        <time>2013-05-06T08:39:41Z</time>
      </trkpt>
      <trkpt lat="43.41053" lon="-0.53762">
        <ele>196</ele>
        <time>2013-05-06T08:39:42Z</time>
      </trkpt>
      <trkpt lat="43.41055" lon="-0.53762">
        <ele>196</ele>
        <time>2013-05-06T08:39:43Z</time>
      </trkpt>
      <trkpt lat="43.41056" lon="-0.53761">
        <ele>196</ele>
        <time>2013-05-06T08:39:44Z</time>
      </trkpt>
      <trkpt lat="43.41057" lon="-0.53761">
        <ele>197</ele>
        <time>2013-05-06T08:39:45Z</time>
      </trkpt>
      <trkpt lat="43.41058" lon="-0.53761">
        <ele>197</ele>
        <time>2013-05-06T08:39:46Z</time>
      </trkpt>
      <trkpt lat="43.4106" lon="-0.53761">
        <ele>198</ele>
        <time>2013-05-06T08:39:47Z</time>
      </trkpt>
      <trkpt lat="43.41062" lon="-0.53763">
        <ele>199</ele>
        <time>2013-05-06T08:39:48Z</time>
      </trkpt>
      <trkpt lat="43.41064" lon="-0.53763">
        <ele>199</ele>
        <time>2013-05-06T08:39:49Z</time>
      </trkpt>
      <trkpt lat="43.41065" lon="-0.53764">
        <ele>200</ele>
        <time>2013-05-06T08:39:50Z</time>
      </trkpt>
      <trkpt lat="43.41067" lon="-0.53765">
        <ele>200</ele>
        <time>2013-05-06T08:39:51Z</time>
      </trkpt>
      <trkpt lat="43.4107" lon="-0.53765">
        <ele>200</ele>
        <time>2013-05-06T08:39:52Z</time>
      </trkpt>
      <trkpt lat="43.41073" lon="-0.53766">
        <ele>201</ele>
        <time>2013-05-06T08:39:53Z</time>
      </trkpt>
      <trkpt lat="43.41075" lon="-0.53767">
        <ele>200</ele>
        <time>2013-05-06T08:39:54Z</time>
      </trkpt>
      <trkpt lat="43.41077" lon="-0.53768">
        <ele>200</ele>
        <time>2013-05-06T08:39:55Z</time>
      </trkpt>
      <trkpt lat="43.4108" lon="-0.53769">
        <ele>200</ele>
        <time>2013-05-06T08:39:56Z</time>
      </trkpt>
      <trkpt lat="43.41084" lon="-0.53768">
        <ele>196</ele>
        <time>2013-05-06T08:39:57Z</time>
      </trkpt>
      <trkpt lat="43.41086" lon="-0.53769">
        <ele>197</ele>
        <time>2013-05-06T08:39:58Z</time>
      </trkpt>
      <trkpt lat="43.41089" lon="-0.53768">
        <ele>197</ele>
        <time>2013-05-06T08:39:59Z</time>
      </trkpt>
      <trkpt lat="43.41092" lon="-0.53769">
        <ele>197</ele>
        <time>2013-05-06T08:40:00Z</time>
      </trkpt>
      <trkpt lat="43.41094" lon="-0.53769">
        <ele>197</ele>
        <time>2013-05-06T08:40:01Z</time>
      </trkpt>
      <trkpt lat="43.41098" lon="-0.5377">
        <ele>196</ele>
        <time>2013-05-06T08:40:02Z</time>
      </trkpt>
      <trkpt lat="43.41101" lon="-0.53771">
        <ele>195</ele>
        <time>2013-05-06T08:40:03Z</time>
      </trkpt>
      <trkpt lat="43.41104" lon="-0.53772">
        <ele>195</ele>
        <time>2013-05-06T08:40:04Z</time>
      </trkpt>
      <trkpt lat="43.41106" lon="-0.53774">
        <ele>195</ele>
        <time>2013-05-06T08:40:05Z</time>
      </trkpt>
      <trkpt lat="43.41109" lon="-0.53776">
        <ele>195</ele>
        <time>2013-05-06T08:40:06Z</time>
      </trkpt>
      <trkpt lat="43.41111" lon="-0.53778">
        <ele>195</ele>
        <time>2013-05-06T08:40:07Z</time>
      </trkpt>
      <trkpt lat="43.41114" lon="-0.53779">
        <ele>196</ele>
        <time>2013-05-06T08:40:08Z</time>
      </trkpt>
      <trkpt lat="43.41116" lon="-0.5378">
        <ele>195</ele>
        <time>2013-05-06T08:40:09Z</time>
      </trkpt>
      <trkpt lat="43.41119" lon="-0.53781">
        <ele>196</ele>
        <time>2013-05-06T08:40:10Z</time>
      </trkpt>
      <trkpt lat="43.41121" lon="-0.53781">
        <ele>195</ele>
        <time>2013-05-06T08:40:11Z</time>
      </trkpt>
      <trkpt lat="43.41124" lon="-0.53781">
        <ele>195</ele>
        <time>2013-05-06T08:40:12Z</time>
      </trkpt>
      <trkpt lat="43.41127" lon="-0.53781">
        <ele>195</ele>
        <time>2013-05-06T08:40:13Z</time>
      </trkpt>
      <trkpt lat="43.41129" lon="-0.53781">
        <ele>195</ele>
        <time>2013-05-06T08:40:14Z</time>
      </trkpt>
      <trkpt lat="43.41132" lon="-0.53782">
        <ele>195</ele>
        <time>2013-05-06T08:40:15Z</time>
      </trkpt>
      <trkpt lat="43.41135" lon="-0.53782">
        <ele>194</ele>
        <time>2013-05-06T08:40:16Z</time>
      </trkpt>
      <trkpt lat="43.41137" lon="-0.53782">
        <ele>194</ele>
        <time>2013-05-06T08:40:17Z</time>
      </trkpt>
      <trkpt lat="43.4114" lon="-0.53783">
        <ele>194</ele>
        <time>2013-05-06T08:40:18Z</time>
      </trkpt>
      <trkpt lat="43.41142" lon="-0.53783">
        <ele>194</ele>
        <time>2013-05-06T08:40:19Z</time>
      </trkpt>
      <trkpt lat="43.41145" lon="-0.53783">
        <ele>194</ele>
        <time>2013-05-06T08:40:20Z</time>
      </trkpt>
      <trkpt lat="43.41148" lon="-0.53784">
        <ele>195</ele>
        <time>2013-05-06T08:40:21Z</time>
      </trkpt>
      <trkpt lat="43.4115" lon="-0.53785">
        <ele>196</ele>
        <time>2013-05-06T08:40:22Z</time>
      </trkpt>
      <trkpt lat="43.41154" lon="-0.53786">
        <ele>196</ele>
        <time>2013-05-06T08:40:23Z</time>
      </trkpt>
      <trkpt lat="43.41156" lon="-0.53787">
        <ele>196</ele>
        <time>2013-05-06T08:40:24Z</time>
      </trkpt>
      <trkpt lat="43.41159" lon="-0.53788">
        <ele>197</ele>
        <time>2013-05-06T08:40:25Z</time>
      </trkpt>
      <trkpt lat="43.41162" lon="-0.53789">
        <ele>196</ele>
        <time>2013-05-06T08:40:26Z</time>
      </trkpt>
      <trkpt lat="43.41164" lon="-0.53789">
        <ele>198</ele>
        <time>2013-05-06T08:40:27Z</time>
      </trkpt>
      <trkpt lat="43.41166" lon="-0.5379">
        <ele>198</ele>
        <time>2013-05-06T08:40:28Z</time>
      </trkpt>
      <trkpt lat="43.41169" lon="-0.5379">
        <ele>198</ele>
        <time>2013-05-06T08:40:29Z</time>
      </trkpt>
      <trkpt lat="43.41171" lon="-0.5379">
        <ele>198</ele>
        <time>2013-05-06T08:40:30Z</time>
      </trkpt>
      <trkpt lat="43.41173" lon="-0.53791">
        <ele>198</ele>
        <time>2013-05-06T08:40:31Z</time>
      </trkpt>
      <trkpt lat="43.41175" lon="-0.53791">
        <ele>199</ele>
        <time>2013-05-06T08:40:32Z</time>
      </trkpt>
      <trkpt lat="43.41177" lon="-0.53792">
        <ele>200</ele>
        <time>2013-05-06T08:40:33Z</time>
      </trkpt>
      <trkpt lat="43.41179" lon="-0.53793">
        <ele>200</ele>
        <time>2013-05-06T08:40:34Z</time>
      </trkpt>
      <trkpt lat="43.41181" lon="-0.53793">
        <ele>201</ele>
        <time>2013-05-06T08:40:35Z</time>
      </trkpt>
      <trkpt lat="43.41184" lon="-0.53794">
        <ele>201</ele>
        <time>2013-05-06T08:40:36Z</time>
      </trkpt>
      <trkpt lat="43.41185" lon="-0.53795">
        <ele>201</ele>
        <time>2013-05-06T08:40:37Z</time>
      </trkpt>
      <trkpt lat="43.41187" lon="-0.53795">
        <ele>201</ele>
        <time>2013-05-06T08:40:38Z</time>
      </trkpt>
      <trkpt lat="43.4119" lon="-0.53796">
        <ele>201</ele>
        <time>2013-05-06T08:40:39Z</time>
      </trkpt>
      <trkpt lat="43.41192" lon="-0.53797">
        <ele>202</ele>
        <time>2013-05-06T08:40:40Z</time>
      </trkpt>
      <trkpt lat="43.41195" lon="-0.53798">
        <ele>201</ele>
        <time>2013-05-06T08:40:41Z</time>
      </trkpt>
      <trkpt lat="43.41198" lon="-0.53799">
        <ele>202</ele>
        <time>2013-05-06T08:40:42Z</time>
      </trkpt>
      <trkpt lat="43.41201" lon="-0.53799">
        <ele>202</ele>
        <time>2013-05-06T08:40:43Z</time>
      </trkpt>
      <trkpt lat="43.41204" lon="-0.53799">
        <ele>203</ele>
        <time>2013-05-06T08:40:44Z</time>
      </trkpt>
      <trkpt lat="43.41206" lon="-0.53799">
        <ele>203</ele>
        <time>2013-05-06T08:40:45Z</time>
      </trkpt>
      <trkpt lat="43.41208" lon="-0.538">
        <ele>203</ele>
        <time>2013-05-06T08:40:46Z</time>
      </trkpt>
      <trkpt lat="43.41211" lon="-0.538">
        <ele>203</ele>
        <time>2013-05-06T08:40:47Z</time>
      </trkpt>
      <trkpt lat="43.41213" lon="-0.538">
        <ele>204</ele>
        <time>2013-05-06T08:40:48Z</time>
      </trkpt>
      <trkpt lat="43.41215" lon="-0.538">
        <ele>204</ele>
        <time>2013-05-06T08:40:49Z</time>
      </trkpt>
      <trkpt lat="43.41218" lon="-0.53801">
        <ele>205</ele>
        <time>2013-05-06T08:40:50Z</time>
      </trkpt>
      <trkpt lat="43.4122" lon="-0.53801">
        <ele>205</ele>
        <time>2013-05-06T08:40:51Z</time>
      </trkpt>
      <trkpt lat="43.41222" lon="-0.53802">
        <ele>205</ele>
        <time>2013-05-06T08:40:52Z</time>
      </trkpt>
      <trkpt lat="43.41225" lon="-0.53803">
        <ele>205</ele>
        <time>2013-05-06T08:40:53Z</time>
      </trkpt>
      <trkpt lat="43.41228" lon="-0.53804">
        <ele>205</ele>
        <time>2013-05-06T08:40:54Z</time>
      </trkpt>
      <trkpt lat="43.4123" lon="-0.53804">
        <ele>206</ele>
        <time>2013-05-06T08:40:55Z</time>
      </trkpt>
      <trkpt lat="43.41232" lon="-0.53805">
        <ele>206</ele>
        <time>2013-05-06T08:40:56Z</time>
      </trkpt>
      <trkpt lat="43.41234" lon="-0.53805">
        <ele>205</ele>
        <time>2013-05-06T08:40:57Z</time>
      </trkpt>
      <trkpt lat="43.41236" lon="-0.53805">
        <ele>205</ele>
        <time>2013-05-06T08:40:58Z</time>
      </trkpt>
      <trkpt lat="43.41237" lon="-0.53805">
        <ele>205</ele>
        <time>2013-05-06T08:40:59Z</time>
      </trkpt>
      <trkpt lat="43.41239" lon="-0.53806">
        <ele>205</ele>
        <time>2013-05-06T08:41:00Z</time>
      </trkpt>
      <trkpt lat="43.41241" lon="-0.53806">
        <ele>205</ele>
        <time>2013-05-06T08:41:01Z</time>
      </trkpt>
      <trkpt lat="43.41243" lon="-0.53807">
        <ele>206</ele>
        <time>2013-05-06T08:41:02Z</time>
      </trkpt>
      <trkpt lat="43.41244" lon="-0.53807">
        <ele>206</ele>
        <time>2013-05-06T08:41:03Z</time>
      </trkpt>
      <trkpt lat="43.41246" lon="-0.53808">
        <ele>206</ele>
        <time>2013-05-06T08:41:04Z</time>
      </trkpt>
      <trkpt lat="43.41249" lon="-0.53808">
        <ele>205</ele>
        <time>2013-05-06T08:41:05Z</time>
      </trkpt>
      <trkpt lat="43.41251" lon="-0.53809">
        <ele>205</ele>
        <time>2013-05-06T08:41:06Z</time>
      </trkpt>
      <trkpt lat="43.41253" lon="-0.53809">
        <ele>206</ele>
        <time>2013-05-06T08:41:07Z</time>
      </trkpt>
      <trkpt lat="43.41256" lon="-0.53809">
        <ele>206</ele>
        <time>2013-05-06T08:41:08Z</time>
      </trkpt>
      <trkpt lat="43.41258" lon="-0.53809">
        <ele>206</ele>
        <time>2013-05-06T08:41:09Z</time>
      </trkpt>
      <trkpt lat="43.41259" lon="-0.5381">
        <ele>207</ele>
        <time>2013-05-06T08:41:10Z</time>
      </trkpt>
      <trkpt lat="43.41261" lon="-0.53811">
        <ele>207</ele>
        <time>2013-05-06T08:41:11Z</time>
      </trkpt>
      <trkpt lat="43.41263" lon="-0.53811">
        <ele>207</ele>
        <time>2013-05-06T08:41:12Z</time>
      </trkpt>
      <trkpt lat="43.41265" lon="-0.53812">
        <ele>206</ele>
        <time>2013-05-06T08:41:13Z</time>
      </trkpt>
      <trkpt lat="43.41266" lon="-0.53812">
        <ele>206</ele>
        <time>2013-05-06T08:41:14Z</time>
      </trkpt>
      <trkpt lat="43.41267" lon="-0.53813">
        <ele>206</ele>
        <time>2013-05-06T08:41:15Z</time>
      </trkpt>
      <trkpt lat="43.41269" lon="-0.53813">
        <ele>206</ele>
        <time>2013-05-06T08:41:16Z</time>
      </trkpt>
      <trkpt lat="43.4127" lon="-0.53813">
        <ele>206</ele>
        <time>2013-05-06T08:41:17Z</time>
      </trkpt>
      <trkpt lat="43.41272" lon="-0.53813">
        <ele>207</ele>
        <time>2013-05-06T08:41:18Z</time>
      </trkpt>
      <trkpt lat="43.41274" lon="-0.53814">
        <ele>207</ele>
        <time>2013-05-06T08:41:19Z</time>
      </trkpt>
      <trkpt lat="43.41276" lon="-0.53815">
        <ele>207</ele>
        <time>2013-05-06T08:41:20Z</time>
      </trkpt>
      <trkpt lat="43.41279" lon="-0.53815">
        <ele>206</ele>
        <time>2013-05-06T08:41:21Z</time>
      </trkpt>
      <trkpt lat="43.4128" lon="-0.53816">
        <ele>207</ele>
        <time>2013-05-06T08:41:22Z</time>
      </trkpt>
      <trkpt lat="43.41283" lon="-0.53817">
        <ele>207</ele>
        <time>2013-05-06T08:41:23Z</time>
      </trkpt>
      <trkpt lat="43.41285" lon="-0.53817">
        <ele>207</ele>
        <time>2013-05-06T08:41:24Z</time>
      </trkpt>
      <trkpt lat="43.41287" lon="-0.53817">
        <ele>208</ele>
        <time>2013-05-06T08:41:25Z</time>
      </trkpt>
      <trkpt lat="43.41289" lon="-0.53818">
        <ele>207</ele>
        <time>2013-05-06T08:41:26Z</time>
      </trkpt>
      <trkpt lat="43.41291" lon="-0.53818">
        <ele>207</ele>
        <time>2013-05-06T08:41:27Z</time>
      </trkpt>
      <trkpt lat="43.41293" lon="-0.53818">
        <ele>206</ele>
        <time>2013-05-06T08:41:28Z</time>
      </trkpt>
      <trkpt lat="43.41295" lon="-0.53818">
        <ele>207</ele>
        <time>2013-05-06T08:41:29Z</time>
      </trkpt>
      <trkpt lat="43.41297" lon="-0.53819">
        <ele>207</ele>
        <time>2013-05-06T08:41:30Z</time>
      </trkpt>
      <trkpt lat="43.41299" lon="-0.53819">
        <ele>208</ele>
        <time>2013-05-06T08:41:31Z</time>
      </trkpt>
      <trkpt lat="43.41301" lon="-0.5382">
        <ele>209</ele>
        <time>2013-05-06T08:41:32Z</time>
      </trkpt>
      <trkpt lat="43.41303" lon="-0.5382">
        <ele>209</ele>
        <time>2013-05-06T08:41:33Z</time>
      </trkpt>
      <trkpt lat="43.41304" lon="-0.53822">
        <ele>209</ele>
        <time>2013-05-06T08:41:34Z</time>
      </trkpt>
      <trkpt lat="43.41306" lon="-0.53822">
        <ele>210</ele>
        <time>2013-05-06T08:41:35Z</time>
      </trkpt>
      <trkpt lat="43.41308" lon="-0.53823">
        <ele>211</ele>
        <time>2013-05-06T08:41:36Z</time>
      </trkpt>
      <trkpt lat="43.4131" lon="-0.53825">
        <ele>211</ele>
        <time>2013-05-06T08:41:37Z</time>
      </trkpt>
      <trkpt lat="43.41312" lon="-0.53826">
        <ele>211</ele>
        <time>2013-05-06T08:41:38Z</time>
      </trkpt>
      <trkpt lat="43.41314" lon="-0.53826">
        <ele>211</ele>
        <time>2013-05-06T08:41:39Z</time>
      </trkpt>
      <trkpt lat="43.41316" lon="-0.53826">
        <ele>212</ele>
        <time>2013-05-06T08:41:40Z</time>
      </trkpt>
      <trkpt lat="43.41318" lon="-0.53826">
        <ele>213</ele>
        <time>2013-05-06T08:41:41Z</time>
      </trkpt>
      <trkpt lat="43.4132" lon="-0.53826">
        <ele>212</ele>
        <time>2013-05-06T08:41:42Z</time>
      </trkpt>
      <trkpt lat="43.41322" lon="-0.53826">
        <ele>213</ele>
        <time>2013-05-06T08:41:43Z</time>
      </trkpt>
      <trkpt lat="43.41324" lon="-0.53826">
        <ele>214</ele>
        <time>2013-05-06T08:41:44Z</time>
      </trkpt>
      <trkpt lat="43.41326" lon="-0.53826">
        <ele>214</ele>
        <time>2013-05-06T08:41:45Z</time>
      </trkpt>
      <trkpt lat="43.41328" lon="-0.53826">
        <ele>216</ele>
        <time>2013-05-06T08:41:46Z</time>
      </trkpt>
      <trkpt lat="43.41331" lon="-0.53825">
        <ele>217</ele>
        <time>2013-05-06T08:41:47Z</time>
      </trkpt>
      <trkpt lat="43.41333" lon="-0.53824">
        <ele>219</ele>
        <time>2013-05-06T08:41:48Z</time>
      </trkpt>
      <trkpt lat="43.41335" lon="-0.53823">
        <ele>220</ele>
        <time>2013-05-06T08:41:49Z</time>
      </trkpt>
      <trkpt lat="43.41338" lon="-0.53823">
        <ele>220</ele>
        <time>2013-05-06T08:41:50Z</time>
      </trkpt>
      <trkpt lat="43.4134" lon="-0.53822">
        <ele>221</ele>
        <time>2013-05-06T08:41:51Z</time>
      </trkpt>
      <trkpt lat="43.41342" lon="-0.53822">
        <ele>222</ele>
        <time>2013-05-06T08:41:52Z</time>
      </trkpt>
      <trkpt lat="43.41344" lon="-0.53821">
        <ele>221</ele>
        <time>2013-05-06T08:41:53Z</time>
      </trkpt>
      <trkpt lat="43.41346" lon="-0.53821">
        <ele>221</ele>
        <time>2013-05-06T08:41:54Z</time>
      </trkpt>
      <trkpt lat="43.41349" lon="-0.53821">
        <ele>220</ele>
        <time>2013-05-06T08:41:55Z</time>
      </trkpt>
      <trkpt lat="43.41351" lon="-0.5382">
        <ele>220</ele>
        <time>2013-05-06T08:41:56Z</time>
      </trkpt>
      <trkpt lat="43.41353" lon="-0.53819">
        <ele>219</ele>
        <time>2013-05-06T08:41:57Z</time>
      </trkpt>
      <trkpt lat="43.41355" lon="-0.53818">
        <ele>218</ele>
        <time>2013-05-06T08:41:58Z</time>
      </trkpt>
      <trkpt lat="43.41356" lon="-0.53816">
        <ele>219</ele>
        <time>2013-05-06T08:41:59Z</time>
      </trkpt>
      <trkpt lat="43.41357" lon="-0.53814">
        <ele>219</ele>
        <time>2013-05-06T08:42:00Z</time>
      </trkpt>
      <trkpt lat="43.41359" lon="-0.53812">
        <ele>219</ele>
        <time>2013-05-06T08:42:01Z</time>
      </trkpt>
      <trkpt lat="43.4136" lon="-0.53809">
        <ele>219</ele>
        <time>2013-05-06T08:42:02Z</time>
      </trkpt>
      <trkpt lat="43.41361" lon="-0.53808">
        <ele>219</ele>
        <time>2013-05-06T08:42:03Z</time>
      </trkpt>
      <trkpt lat="43.41361" lon="-0.53806">
        <ele>218</ele>
        <time>2013-05-06T08:42:04Z</time>
      </trkpt>
      <trkpt lat="43.41362" lon="-0.53803">
        <ele>218</ele>
        <time>2013-05-06T08:42:05Z</time>
      </trkpt>
      <trkpt lat="43.41362" lon="-0.53801">
        <ele>218</ele>
        <time>2013-05-06T08:42:06Z</time>
      </trkpt>
      <trkpt lat="43.41363" lon="-0.53798">
        <ele>219</ele>
        <time>2013-05-06T08:42:07Z</time>
      </trkpt>
      <trkpt lat="43.41364" lon="-0.53796">
        <ele>219</ele>
        <time>2013-05-06T08:42:08Z</time>
      </trkpt>
      <trkpt lat="43.41365" lon="-0.53794">
        <ele>219</ele>
        <time>2013-05-06T08:42:09Z</time>
      </trkpt>
      <trkpt lat="43.41365" lon="-0.53791">
        <ele>219</ele>
        <time>2013-05-06T08:42:10Z</time>
      </trkpt>
      <trkpt lat="43.41367" lon="-0.5379">
        <ele>219</ele>
        <time>2013-05-06T08:42:11Z</time>
      </trkpt>
      <trkpt lat="43.41369" lon="-0.53788">
        <ele>220</ele>
        <time>2013-05-06T08:42:12Z</time>
      </trkpt>
      <trkpt lat="43.4137" lon="-0.53786">
        <ele>219</ele>
        <time>2013-05-06T08:42:13Z</time>
      </trkpt>
      <trkpt lat="43.41372" lon="-0.53786">
        <ele>219</ele>
        <time>2013-05-06T08:42:14Z</time>
      </trkpt>
      <trkpt lat="43.41373" lon="-0.53786">
        <ele>220</ele>
        <time>2013-05-06T08:42:15Z</time>
      </trkpt>
      <trkpt lat="43.41374" lon="-0.53787">
        <ele>221</ele>
        <time>2013-05-06T08:42:16Z</time>
      </trkpt>
      <trkpt lat="43.41375" lon="-0.53788">
        <ele>222</ele>
        <time>2013-05-06T08:42:17Z</time>
      </trkpt>
      <trkpt lat="43.41377" lon="-0.53789">
        <ele>222</ele>
        <time>2013-05-06T08:42:18Z</time>
      </trkpt>
      <trkpt lat="43.41378" lon="-0.53791">
        <ele>224</ele>
        <time>2013-05-06T08:42:19Z</time>
      </trkpt>
      <trkpt lat="43.41379" lon="-0.53792">
        <ele>224</ele>
        <time>2013-05-06T08:42:20Z</time>
      </trkpt>
      <trkpt lat="43.41381" lon="-0.53793">
        <ele>224</ele>
        <time>2013-05-06T08:42:21Z</time>
      </trkpt>
      <trkpt lat="43.41383" lon="-0.53795">
        <ele>224</ele>
        <time>2013-05-06T08:42:22Z</time>
      </trkpt>
      <trkpt lat="43.41385" lon="-0.53797">
        <ele>224</ele>
        <time>2013-05-06T08:42:23Z</time>
      </trkpt>
      <trkpt lat="43.41388" lon="-0.53798">
        <ele>225</ele>
        <time>2013-05-06T08:42:24Z</time>
      </trkpt>
      <trkpt lat="43.4139" lon="-0.538">
        <ele>225</ele>
        <time>2013-05-06T08:42:25Z</time>
      </trkpt>
      <trkpt lat="43.41392" lon="-0.53802">
        <ele>225</ele>
        <time>2013-05-06T08:42:26Z</time>
      </trkpt>
      <trkpt lat="43.41394" lon="-0.53804">
        <ele>225</ele>
        <time>2013-05-06T08:42:27Z</time>
      </trkpt>
      <trkpt lat="43.41396" lon="-0.53805">
        <ele>225</ele>
        <time>2013-05-06T08:42:28Z</time>
      </trkpt>
      <trkpt lat="43.41398" lon="-0.53806">
        <ele>226</ele>
        <time>2013-05-06T08:42:29Z</time>
      </trkpt>
      <trkpt lat="43.41401" lon="-0.53807">
        <ele>226</ele>
        <time>2013-05-06T08:42:30Z</time>
      </trkpt>
      <trkpt lat="43.41402" lon="-0.53808">
        <ele>226</ele>
        <time>2013-05-06T08:42:31Z</time>
      </trkpt>
      <trkpt lat="43.41404" lon="-0.53809">
        <ele>226</ele>
        <time>2013-05-06T08:42:32Z</time>
      </trkpt>
      <trkpt lat="43.41406" lon="-0.5381">
        <ele>225</ele>
        <time>2013-05-06T08:42:33Z</time>
      </trkpt>
      <trkpt lat="43.41409" lon="-0.53812">
        <ele>226</ele>
        <time>2013-05-06T08:42:34Z</time>
      </trkpt>
      <trkpt lat="43.41411" lon="-0.53814">
        <ele>226</ele>
        <time>2013-05-06T08:42:35Z</time>
      </trkpt>
      <trkpt lat="43.41414" lon="-0.53815">
        <ele>226</ele>
        <time>2013-05-06T08:42:36Z</time>
      </trkpt>
      <trkpt lat="43.41416" lon="-0.53817">
        <ele>226</ele>
        <time>2013-05-06T08:42:37Z</time>
      </trkpt>
      <trkpt lat="43.41419" lon="-0.53819">
        <ele>226</ele>
        <time>2013-05-06T08:42:38Z</time>
      </trkpt>
      <trkpt lat="43.41421" lon="-0.53821">
        <ele>226</ele>
        <time>2013-05-06T08:42:39Z</time>
      </trkpt>
      <trkpt lat="43.41423" lon="-0.53823">
        <ele>227</ele>
        <time>2013-05-06T08:42:40Z</time>
      </trkpt>
      <trkpt lat="43.41425" lon="-0.53826">
        <ele>227</ele>
        <time>2013-05-06T08:42:41Z</time>
      </trkpt>
      <trkpt lat="43.41426" lon="-0.53828">
        <ele>226</ele>
        <time>2013-05-06T08:42:42Z</time>
      </trkpt>
      <trkpt lat="43.41427" lon="-0.53831">
        <ele>226</ele>
        <time>2013-05-06T08:42:43Z</time>
      </trkpt>
      <trkpt lat="43.41428" lon="-0.53833">
        <ele>225</ele>
        <time>2013-05-06T08:42:44Z</time>
      </trkpt>
      <trkpt lat="43.4143" lon="-0.53836">
        <ele>224</ele>
        <time>2013-05-06T08:42:45Z</time>
      </trkpt>
      <trkpt lat="43.41431" lon="-0.53839">
        <ele>224</ele>
        <time>2013-05-06T08:42:46Z</time>
      </trkpt>
      <trkpt lat="43.41431" lon="-0.53842">
        <ele>224</ele>
        <time>2013-05-06T08:42:47Z</time>
      </trkpt>
      <trkpt lat="43.41432" lon="-0.53845">
        <ele>224</ele>
        <time>2013-05-06T08:42:48Z</time>
      </trkpt>
      <trkpt lat="43.41433" lon="-0.53848">
        <ele>225</ele>
        <time>2013-05-06T08:42:49Z</time>
      </trkpt>
      <trkpt lat="43.41434" lon="-0.53851">
        <ele>225</ele>
        <time>2013-05-06T08:42:50Z</time>
      </trkpt>
      <trkpt lat="43.41435" lon="-0.53854">
        <ele>225</ele>
        <time>2013-05-06T08:42:51Z</time>
      </trkpt>
      <trkpt lat="43.41436" lon="-0.53857">
        <ele>225</ele>
        <time>2013-05-06T08:42:52Z</time>
      </trkpt>
      <trkpt lat="43.41436" lon="-0.53861">
        <ele>225</ele>
        <time>2013-05-06T08:42:53Z</time>
      </trkpt>
      <trkpt lat="43.41437" lon="-0.53865">
        <ele>226</ele>
        <time>2013-05-06T08:42:54Z</time>
      </trkpt>
      <trkpt lat="43.41437" lon="-0.53868">
        <ele>227</ele>
        <time>2013-05-06T08:42:55Z</time>
      </trkpt>
      <trkpt lat="43.41437" lon="-0.53872">
        <ele>227</ele>
        <time>2013-05-06T08:42:56Z</time>
      </trkpt>
      <trkpt lat="43.41438" lon="-0.53875">
        <ele>228</ele>
        <time>2013-05-06T08:42:57Z</time>
      </trkpt>
      <trkpt lat="43.41438" lon="-0.53879">
        <ele>228</ele>
        <time>2013-05-06T08:42:58Z</time>
      </trkpt>
      <trkpt lat="43.41438" lon="-0.53882">
        <ele>228</ele>
        <time>2013-05-06T08:42:59Z</time>
      </trkpt>
      <trkpt lat="43.41439" lon="-0.53886">
        <ele>229</ele>
        <time>2013-05-06T08:43:00Z</time>
      </trkpt>
      <trkpt lat="43.41439" lon="-0.5389">
        <ele>229</ele>
        <time>2013-05-06T08:43:01Z</time>
      </trkpt>
      <trkpt lat="43.41438" lon="-0.53893">
        <ele>229</ele>
        <time>2013-05-06T08:43:02Z</time>
      </trkpt>
      <trkpt lat="43.41438" lon="-0.53896">
        <ele>228</ele>
        <time>2013-05-06T08:43:03Z</time>
      </trkpt>
      <trkpt lat="43.41438" lon="-0.539">
        <ele>229</ele>
        <time>2013-05-06T08:43:04Z</time>
      </trkpt>
      <trkpt lat="43.41437" lon="-0.53903">
        <ele>229</ele>
        <time>2013-05-06T08:43:05Z</time>
      </trkpt>
      <trkpt lat="43.41436" lon="-0.53906">
        <ele>229</ele>
        <time>2013-05-06T08:43:06Z</time>
      </trkpt>
      <trkpt lat="43.41435" lon="-0.53909">
        <ele>229</ele>
        <time>2013-05-06T08:43:07Z</time>
      </trkpt>
      <trkpt lat="43.41435" lon="-0.53912">
        <ele>229</ele>
        <time>2013-05-06T08:43:08Z</time>
      </trkpt>
      <trkpt lat="43.41434" lon="-0.53915">
        <ele>229</ele>
        <time>2013-05-06T08:43:09Z</time>
      </trkpt>
      <trkpt lat="43.41433" lon="-0.53918">
        <ele>228</ele>
        <time>2013-05-06T08:43:10Z</time>
      </trkpt>
      <trkpt lat="43.41432" lon="-0.53921">
        <ele>229</ele>
        <time>2013-05-06T08:43:11Z</time>
      </trkpt>
      <trkpt lat="43.41431" lon="-0.53923">
        <ele>229</ele>
        <time>2013-05-06T08:43:12Z</time>
      </trkpt>
      <trkpt lat="43.41431" lon="-0.53926">
        <ele>229</ele>
        <time>2013-05-06T08:43:13Z</time>
      </trkpt>
      <trkpt lat="43.4143" lon="-0.53929">
        <ele>229</ele>
        <time>2013-05-06T08:43:14Z</time>
      </trkpt>
      <trkpt lat="43.4143" lon="-0.53932">
        <ele>227</ele>
        <time>2013-05-06T08:43:15Z</time>
      </trkpt>
      <trkpt lat="43.4143" lon="-0.53935">
        <ele>228</ele>
        <time>2013-05-06T08:43:16Z</time>
      </trkpt>
      <trkpt lat="43.41429" lon="-0.53938">
        <ele>228</ele>
        <time>2013-05-06T08:43:17Z</time>
      </trkpt>
      <trkpt lat="43.41429" lon="-0.53941">
        <ele>227</ele>
        <time>2013-05-06T08:43:18Z</time>
      </trkpt>
      <trkpt lat="43.41428" lon="-0.53944">
        <ele>228</ele>
        <time>2013-05-06T08:43:19Z</time>
      </trkpt>
      <trkpt lat="43.41428" lon="-0.53947">
        <ele>228</ele>
        <time>2013-05-06T08:43:20Z</time>
      </trkpt>
      <trkpt lat="43.41427" lon="-0.5395">
        <ele>228</ele>
        <time>2013-05-06T08:43:21Z</time>
      </trkpt>
      <trkpt lat="43.41427" lon="-0.53953">
        <ele>229</ele>
        <time>2013-05-06T08:43:22Z</time>
      </trkpt>
      <trkpt lat="43.41426" lon="-0.53956">
        <ele>229</ele>
        <time>2013-05-06T08:43:23Z</time>
      </trkpt>
      <trkpt lat="43.41426" lon="-0.5396">
        <ele>228</ele>
        <time>2013-05-06T08:43:24Z</time>
      </trkpt>
      <trkpt lat="43.41427" lon="-0.53963">
        <ele>227</ele>
        <time>2013-05-06T08:43:25Z</time>
      </trkpt>
      <trkpt lat="43.41427" lon="-0.53965">
        <ele>228</ele>
        <time>2013-05-06T08:43:26Z</time>
      </trkpt>
      <trkpt lat="43.41428" lon="-0.53968">
        <ele>228</ele>
        <time>2013-05-06T08:43:27Z</time>
      </trkpt>
      <trkpt lat="43.41429" lon="-0.53971">
        <ele>227</ele>
        <time>2013-05-06T08:43:28Z</time>
      </trkpt>
      <trkpt lat="43.4143" lon="-0.53975">
        <ele>227</ele>
        <time>2013-05-06T08:43:29Z</time>
      </trkpt>
      <trkpt lat="43.4143" lon="-0.53979">
        <ele>228</ele>
        <time>2013-05-06T08:43:30Z</time>
      </trkpt>
      <trkpt lat="43.4143" lon="-0.53982">
        <ele>227</ele>
        <time>2013-05-06T08:43:31Z</time>
      </trkpt>
      <trkpt lat="43.41429" lon="-0.53986">
        <ele>226</ele>
        <time>2013-05-06T08:43:32Z</time>
      </trkpt>
      <trkpt lat="43.41427" lon="-0.53989">
        <ele>226</ele>
        <time>2013-05-06T08:43:33Z</time>
      </trkpt>
      <trkpt lat="43.41426" lon="-0.53992">
        <ele>226</ele>
        <time>2013-05-06T08:43:34Z</time>
      </trkpt>
      <trkpt lat="43.41426" lon="-0.53995">
        <ele>226</ele>
        <time>2013-05-06T08:43:35Z</time>
      </trkpt>
      <trkpt lat="43.41426" lon="-0.53997">
        <ele>227</ele>
        <time>2013-05-06T08:43:36Z</time>
      </trkpt>
      <trkpt lat="43.41426" lon="-0.54">
        <ele>227</ele>
        <time>2013-05-06T08:43:37Z</time>
      </trkpt>
      <trkpt lat="43.41426" lon="-0.54004">
        <ele>227</ele>
        <time>2013-05-06T08:43:38Z</time>
      </trkpt>
      <trkpt lat="43.41427" lon="-0.54008">
        <ele>226</ele>
        <time>2013-05-06T08:43:39Z</time>
      </trkpt>
      <trkpt lat="43.41428" lon="-0.54012">
        <ele>226</ele>
        <time>2013-05-06T08:43:40Z</time>
      </trkpt>
      <trkpt lat="43.41428" lon="-0.54016">
        <ele>226</ele>
        <time>2013-05-06T08:43:41Z</time>
      </trkpt>
      <trkpt lat="43.41429" lon="-0.5402">
        <ele>226</ele>
        <time>2013-05-06T08:43:42Z</time>
      </trkpt>
      <trkpt lat="43.41429" lon="-0.54024">
        <ele>226</ele>
        <time>2013-05-06T08:43:43Z</time>
      </trkpt>
      <trkpt lat="43.4143" lon="-0.54027">
        <ele>226</ele>
        <time>2013-05-06T08:43:44Z</time>
      </trkpt>
      <trkpt lat="43.4143" lon="-0.54031">
        <ele>226</ele>
        <time>2013-05-06T08:43:45Z</time>
      </trkpt>
      <trkpt lat="43.41431" lon="-0.54034">
        <ele>227</ele>
        <time>2013-05-06T08:43:46Z</time>
      </trkpt>
      <trkpt lat="43.41431" lon="-0.54037">
        <ele>227</ele>
        <time>2013-05-06T08:43:47Z</time>
      </trkpt>
      <trkpt lat="43.41432" lon="-0.54039">
        <ele>227</ele>
        <time>2013-05-06T08:43:48Z</time>
      </trkpt>
      <trkpt lat="43.41432" lon="-0.54042">
        <ele>227</ele>
        <time>2013-05-06T08:43:49Z</time>
      </trkpt>
      <trkpt lat="43.41433" lon="-0.54045">
        <ele>228</ele>
        <time>2013-05-06T08:43:50Z</time>
      </trkpt>
      <trkpt lat="43.41434" lon="-0.54048">
        <ele>229</ele>
        <time>2013-05-06T08:43:51Z</time>
      </trkpt>
      <trkpt lat="43.41435" lon="-0.5405">
        <ele>229</ele>
        <time>2013-05-06T08:43:52Z</time>
      </trkpt>
      <trkpt lat="43.41436" lon="-0.54052">
        <ele>230</ele>
        <time>2013-05-06T08:43:53Z</time>
      </trkpt>
      <trkpt lat="43.41438" lon="-0.54055">
        <ele>230</ele>
        <time>2013-05-06T08:43:54Z</time>
      </trkpt>
      <trkpt lat="43.41439" lon="-0.54057">
        <ele>231</ele>
        <time>2013-05-06T08:43:55Z</time>
      </trkpt>
      <trkpt lat="43.4144" lon="-0.5406">
        <ele>231</ele>
        <time>2013-05-06T08:43:56Z</time>
      </trkpt>
      <trkpt lat="43.41441" lon="-0.54062">
        <ele>231</ele>
        <time>2013-05-06T08:43:57Z</time>
      </trkpt>
      <trkpt lat="43.41443" lon="-0.54065">
        <ele>231</ele>
        <time>2013-05-06T08:43:58Z</time>
      </trkpt>
      <trkpt lat="43.41444" lon="-0.54067">
        <ele>232</ele>
        <time>2013-05-06T08:43:59Z</time>
      </trkpt>
      <trkpt lat="43.41445" lon="-0.5407">
        <ele>231</ele>
        <time>2013-05-06T08:44:00Z</time>
      </trkpt>
      <trkpt lat="43.41446" lon="-0.54072">
        <ele>232</ele>
        <time>2013-05-06T08:44:01Z</time>
      </trkpt>
      <trkpt lat="43.41448" lon="-0.54075">
        <ele>233</ele>
        <time>2013-05-06T08:44:02Z</time>
      </trkpt>
      <trkpt lat="43.41449" lon="-0.54078">
        <ele>233</ele>
        <time>2013-05-06T08:44:03Z</time>
      </trkpt>
      <trkpt lat="43.41451" lon="-0.54081">
        <ele>233</ele>
        <time>2013-05-06T08:44:04Z</time>
      </trkpt>
      <trkpt lat="43.41452" lon="-0.54084">
        <ele>232</ele>
        <time>2013-05-06T08:44:05Z</time>
      </trkpt>
      <trkpt lat="43.41453" lon="-0.54087">
        <ele>231</ele>
        <time>2013-05-06T08:44:06Z</time>
      </trkpt>
      <trkpt lat="43.41454" lon="-0.5409">
        <ele>233</ele>
        <time>2013-05-06T08:44:07Z</time>
      </trkpt>
      <trkpt lat="43.41455" lon="-0.54093">
        <ele>234</ele>
        <time>2013-05-06T08:44:08Z</time>
      </trkpt>
      <trkpt lat="43.41457" lon="-0.54095">
        <ele>233</ele>
        <time>2013-05-06T08:44:09Z</time>
      </trkpt>
      <trkpt lat="43.41458" lon="-0.54097">
        <ele>234</ele>
        <time>2013-05-06T08:44:10Z</time>
      </trkpt>
      <trkpt lat="43.41459" lon="-0.541">
        <ele>234</ele>
        <time>2013-05-06T08:44:11Z</time>
      </trkpt>
      <trkpt lat="43.4146" lon="-0.54103">
        <ele>234</ele>
        <time>2013-05-06T08:44:12Z</time>
      </trkpt>
      <trkpt lat="43.4146" lon="-0.54105">
        <ele>234</ele>
        <time>2013-05-06T08:44:13Z</time>
      </trkpt>
      <trkpt lat="43.41461" lon="-0.54108">
        <ele>234</ele>
        <time>2013-05-06T08:44:14Z</time>
      </trkpt>
      <trkpt lat="43.41461" lon="-0.54111">
        <ele>234</ele>
        <time>2013-05-06T08:44:15Z</time>
      </trkpt>
      <trkpt lat="43.41462" lon="-0.54115">
        <ele>234</ele>
        <time>2013-05-06T08:44:16Z</time>
      </trkpt>
      <trkpt lat="43.41463" lon="-0.54118">
        <ele>234</ele>
        <time>2013-05-06T08:44:17Z</time>
      </trkpt>
      <trkpt lat="43.41464" lon="-0.54122">
        <ele>234</ele>
        <time>2013-05-06T08:44:18Z</time>
      </trkpt>
      <trkpt lat="43.41464" lon="-0.54126">
        <ele>234</ele>
        <time>2013-05-06T08:44:19Z</time>
      </trkpt>
      <trkpt lat="43.41465" lon="-0.5413">
        <ele>234</ele>
        <time>2013-05-06T08:44:20Z</time>
      </trkpt>
      <trkpt lat="43.41465" lon="-0.54134">
        <ele>233</ele>
        <time>2013-05-06T08:44:21Z</time>
      </trkpt>
      <trkpt lat="43.41465" lon="-0.54138">
        <ele>234</ele>
        <time>2013-05-06T08:44:22Z</time>
      </trkpt>
      <trkpt lat="43.41466" lon="-0.54143">
        <ele>234</ele>
        <time>2013-05-06T08:44:23Z</time>
      </trkpt>
      <trkpt lat="43.41467" lon="-0.54146">
        <ele>234</ele>
        <time>2013-05-06T08:44:24Z</time>
      </trkpt>
      <trkpt lat="43.41468" lon="-0.54152">
        <ele>236</ele>
        <time>2013-05-06T08:44:25Z</time>
      </trkpt>
      <trkpt lat="43.41469" lon="-0.54156">
        <ele>235</ele>
        <time>2013-05-06T08:44:26Z</time>
      </trkpt>
      <trkpt lat="43.4147" lon="-0.54161">
        <ele>236</ele>
        <time>2013-05-06T08:44:27Z</time>
      </trkpt>
      <trkpt lat="43.41471" lon="-0.54165">
        <ele>236</ele>
        <time>2013-05-06T08:44:28Z</time>
      </trkpt>
      <trkpt lat="43.41472" lon="-0.54168">
        <ele>236</ele>
        <time>2013-05-06T08:44:29Z</time>
      </trkpt>
      <trkpt lat="43.41473" lon="-0.54172">
        <ele>236</ele>
        <time>2013-05-06T08:44:30Z</time>
      </trkpt>
      <trkpt lat="43.41473" lon="-0.54176">
        <ele>237</ele>
        <time>2013-05-06T08:44:31Z</time>
      </trkpt>
      <trkpt lat="43.41474" lon="-0.5418">
        <ele>237</ele>
        <time>2013-05-06T08:44:32Z</time>
      </trkpt>
      <trkpt lat="43.41474" lon="-0.54184">
        <ele>236</ele>
        <time>2013-05-06T08:44:33Z</time>
      </trkpt>
      <trkpt lat="43.41474" lon="-0.54189">
        <ele>237</ele>
        <time>2013-05-06T08:44:34Z</time>
      </trkpt>
      <trkpt lat="43.41473" lon="-0.54193">
        <ele>237</ele>
        <time>2013-05-06T08:44:35Z</time>
      </trkpt>
      <trkpt lat="43.41473" lon="-0.54198">
        <ele>238</ele>
        <time>2013-05-06T08:44:36Z</time>
      </trkpt>
      <trkpt lat="43.41472" lon="-0.54202">
        <ele>239</ele>
        <time>2013-05-06T08:44:37Z</time>
      </trkpt>
      <trkpt lat="43.41472" lon="-0.54207">
        <ele>239</ele>
        <time>2013-05-06T08:44:38Z</time>
      </trkpt>
      <trkpt lat="43.4147" lon="-0.54211">
        <ele>240</ele>
        <time>2013-05-06T08:44:39Z</time>
      </trkpt>
      <trkpt lat="43.41469" lon="-0.54215">
        <ele>242</ele>
        <time>2013-05-06T08:44:40Z</time>
      </trkpt>
      <trkpt lat="43.41468" lon="-0.5422">
        <ele>242</ele>
        <time>2013-05-06T08:44:41Z</time>
      </trkpt>
      <trkpt lat="43.41467" lon="-0.54224">
        <ele>242</ele>
        <time>2013-05-06T08:44:42Z</time>
      </trkpt>
      <trkpt lat="43.41466" lon="-0.54229">
        <ele>243</ele>
        <time>2013-05-06T08:44:43Z</time>
      </trkpt>
      <trkpt lat="43.41465" lon="-0.54233">
        <ele>243</ele>
        <time>2013-05-06T08:44:44Z</time>
      </trkpt>
      <trkpt lat="43.41464" lon="-0.54237">
        <ele>243</ele>
        <time>2013-05-06T08:44:45Z</time>
      </trkpt>
      <trkpt lat="43.41463" lon="-0.54241">
        <ele>244</ele>
        <time>2013-05-06T08:44:46Z</time>
      </trkpt>
      <trkpt lat="43.41462" lon="-0.54245">
        <ele>244</ele>
        <time>2013-05-06T08:44:47Z</time>
      </trkpt>
      <trkpt lat="43.41461" lon="-0.54249">
        <ele>244</ele>
        <time>2013-05-06T08:44:48Z</time>
      </trkpt>
      <trkpt lat="43.41459" lon="-0.54253">
        <ele>244</ele>
        <time>2013-05-06T08:44:49Z</time>
      </trkpt>
      <trkpt lat="43.41458" lon="-0.54256">
        <ele>245</ele>
        <time>2013-05-06T08:44:50Z</time>
      </trkpt>
      <trkpt lat="43.41456" lon="-0.5426">
        <ele>245</ele>
        <time>2013-05-06T08:44:51Z</time>
      </trkpt>
      <trkpt lat="43.41454" lon="-0.54263">
        <ele>245</ele>
        <time>2013-05-06T08:44:52Z</time>
      </trkpt>
      <trkpt lat="43.41451" lon="-0.54266">
        <ele>245</ele>
        <time>2013-05-06T08:44:53Z</time>
      </trkpt>
      <trkpt lat="43.41449" lon="-0.54269">
        <ele>246</ele>
        <time>2013-05-06T08:44:54Z</time>
      </trkpt>
      <trkpt lat="43.41447" lon="-0.54272">
        <ele>246</ele>
        <time>2013-05-06T08:44:55Z</time>
      </trkpt>
      <trkpt lat="43.41445" lon="-0.54275">
        <ele>246</ele>
        <time>2013-05-06T08:44:56Z</time>
      </trkpt>
      <trkpt lat="43.41443" lon="-0.54278">
        <ele>245</ele>
        <time>2013-05-06T08:44:57Z</time>
      </trkpt>
      <trkpt lat="43.41441" lon="-0.54281">
        <ele>246</ele>
        <time>2013-05-06T08:44:58Z</time>
      </trkpt>
      <trkpt lat="43.41439" lon="-0.54284">
        <ele>246</ele>
        <time>2013-05-06T08:44:59Z</time>
      </trkpt>
      <trkpt lat="43.41437" lon="-0.54287">
        <ele>246</ele>
        <time>2013-05-06T08:45:00Z</time>
      </trkpt>
      <trkpt lat="43.41435" lon="-0.5429">
        <ele>246</ele>
        <time>2013-05-06T08:45:01Z</time>
      </trkpt>
      <trkpt lat="43.41433" lon="-0.54293">
        <ele>246</ele>
        <time>2013-05-06T08:45:02Z</time>
      </trkpt>
      <trkpt lat="43.41432" lon="-0.54296">
        <ele>246</ele>
        <time>2013-05-06T08:45:03Z</time>
      </trkpt>
      <trkpt lat="43.4143" lon="-0.54299">
        <ele>244</ele>
        <time>2013-05-06T08:45:04Z</time>
      </trkpt>
      <trkpt lat="43.41429" lon="-0.54303">
        <ele>244</ele>
        <time>2013-05-06T08:45:05Z</time>
      </trkpt>
      <trkpt lat="43.41428" lon="-0.54306">
        <ele>245</ele>
        <time>2013-05-06T08:45:06Z</time>
      </trkpt>
      <trkpt lat="43.41427" lon="-0.54309">
        <ele>245</ele>
        <time>2013-05-06T08:45:07Z</time>
      </trkpt>
      <trkpt lat="43.41425" lon="-0.54313">
        <ele>246</ele>
        <time>2013-05-06T08:45:08Z</time>
      </trkpt>
      <trkpt lat="43.41424" lon="-0.54315">
        <ele>245</ele>
        <time>2013-05-06T08:45:09Z</time>
      </trkpt>
      <trkpt lat="43.41423" lon="-0.54318">
        <ele>245</ele>
        <time>2013-05-06T08:45:10Z</time>
      </trkpt>
      <trkpt lat="43.41421" lon="-0.5432">
        <ele>244</ele>
        <time>2013-05-06T08:45:11Z</time>
      </trkpt>
      <trkpt lat="43.4142" lon="-0.54322">
        <ele>244</ele>
        <time>2013-05-06T08:45:12Z</time>
      </trkpt>
      <trkpt lat="43.41418" lon="-0.54325">
        <ele>245</ele>
        <time>2013-05-06T08:45:13Z</time>
      </trkpt>
      <trkpt lat="43.41416" lon="-0.54328">
        <ele>245</ele>
        <time>2013-05-06T08:45:14Z</time>
      </trkpt>
      <trkpt lat="43.41414" lon="-0.54331">
        <ele>246</ele>
        <time>2013-05-06T08:45:15Z</time>
      </trkpt>
      <trkpt lat="43.41413" lon="-0.54334">
        <ele>247</ele>
        <time>2013-05-06T08:45:16Z</time>
      </trkpt>
      <trkpt lat="43.41411" lon="-0.54337">
        <ele>247</ele>
        <time>2013-05-06T08:45:17Z</time>
      </trkpt>
      <trkpt lat="43.41409" lon="-0.54339">
        <ele>247</ele>
        <time>2013-05-06T08:45:18Z</time>
      </trkpt>
      <trkpt lat="43.41407" lon="-0.54342">
        <ele>247</ele>
        <time>2013-05-06T08:45:19Z</time>
      </trkpt>
      <trkpt lat="43.41404" lon="-0.54345">
        <ele>248</ele>
        <time>2013-05-06T08:45:20Z</time>
      </trkpt>
      <trkpt lat="43.41402" lon="-0.54348">
        <ele>248</ele>
        <time>2013-05-06T08:45:21Z</time>
      </trkpt>
      <trkpt lat="43.41399" lon="-0.54351">
        <ele>248</ele>
        <time>2013-05-06T08:45:22Z</time>
      </trkpt>
      <trkpt lat="43.41397" lon="-0.54356">
        <ele>249</ele>
        <time>2013-05-06T08:45:23Z</time>
      </trkpt>
      <trkpt lat="43.41395" lon="-0.5436">
        <ele>249</ele>
        <time>2013-05-06T08:45:24Z</time>
      </trkpt>
      <trkpt lat="43.41393" lon="-0.54365">
        <ele>250</ele>
        <time>2013-05-06T08:45:25Z</time>
      </trkpt>
      <trkpt lat="43.41393" lon="-0.54371">
        <ele>250</ele>
        <time>2013-05-06T08:45:26Z</time>
      </trkpt>
      <trkpt lat="43.41393" lon="-0.54376">
        <ele>251</ele>
        <time>2013-05-06T08:45:27Z</time>
      </trkpt>
      <trkpt lat="43.41393" lon="-0.54381">
        <ele>251</ele>
        <time>2013-05-06T08:45:28Z</time>
      </trkpt>
      <trkpt lat="43.41393" lon="-0.54387">
        <ele>252</ele>
        <time>2013-05-06T08:45:29Z</time>
      </trkpt>
      <trkpt lat="43.41393" lon="-0.54391">
        <ele>252</ele>
        <time>2013-05-06T08:45:30Z</time>
      </trkpt>
      <trkpt lat="43.41393" lon="-0.54395">
        <ele>252</ele>
        <time>2013-05-06T08:45:31Z</time>
      </trkpt>
      <trkpt lat="43.41393" lon="-0.54399">
        <ele>252</ele>
        <time>2013-05-06T08:45:32Z</time>
      </trkpt>
      <trkpt lat="43.41393" lon="-0.54403">
        <ele>252</ele>
        <time>2013-05-06T08:45:33Z</time>
      </trkpt>
      <trkpt lat="43.41392" lon="-0.54406">
        <ele>253</ele>
        <time>2013-05-06T08:45:34Z</time>
      </trkpt>
      <trkpt lat="43.41392" lon="-0.5441">
        <ele>253</ele>
        <time>2013-05-06T08:45:35Z</time>
      </trkpt>
      <trkpt lat="43.41391" lon="-0.54415">
        <ele>253</ele>
        <time>2013-05-06T08:45:36Z</time>
      </trkpt>
      <trkpt lat="43.41391" lon="-0.54419">
        <ele>253</ele>
        <time>2013-05-06T08:45:37Z</time>
      </trkpt>
      <trkpt lat="43.4139" lon="-0.54424">
        <ele>253</ele>
        <time>2013-05-06T08:45:38Z</time>
      </trkpt>
      <trkpt lat="43.4139" lon="-0.54429">
        <ele>253</ele>
        <time>2013-05-06T08:45:39Z</time>
      </trkpt>
      <trkpt lat="43.4139" lon="-0.54435">
        <ele>251</ele>
        <time>2013-05-06T08:45:40Z</time>
      </trkpt>
      <trkpt lat="43.41389" lon="-0.54442">
        <ele>250</ele>
        <time>2013-05-06T08:45:41Z</time>
      </trkpt>
      <trkpt lat="43.41388" lon="-0.54448">
        <ele>249</ele>
        <time>2013-05-06T08:45:42Z</time>
      </trkpt>
      <trkpt lat="43.41387" lon="-0.54455">
        <ele>248</ele>
        <time>2013-05-06T08:45:43Z</time>
      </trkpt>
      <trkpt lat="43.41383" lon="-0.54468">
        <ele>247</ele>
        <time>2013-05-06T08:45:44Z</time>
      </trkpt>
      <trkpt lat="43.41382" lon="-0.54475">
        <ele>247</ele>
        <time>2013-05-06T08:45:45Z</time>
      </trkpt>
      <trkpt lat="43.4138" lon="-0.54482">
        <ele>247</ele>
        <time>2013-05-06T08:45:46Z</time>
      </trkpt>
      <trkpt lat="43.41379" lon="-0.5449">
        <ele>247</ele>
        <time>2013-05-06T08:45:47Z</time>
      </trkpt>
      <trkpt lat="43.41377" lon="-0.54496">
        <ele>246</ele>
        <time>2013-05-06T08:45:48Z</time>
      </trkpt>
      <trkpt lat="43.41377" lon="-0.54502">
        <ele>245</ele>
        <time>2013-05-06T08:45:49Z</time>
      </trkpt>
      <trkpt lat="43.41377" lon="-0.54506">
        <ele>245</ele>
        <time>2013-05-06T08:45:50Z</time>
      </trkpt>
      <trkpt lat="43.4138" lon="-0.54514">
        <ele>243</ele>
        <time>2013-05-06T08:45:51Z</time>
      </trkpt>
      <trkpt lat="43.4138" lon="-0.5452">
        <ele>242</ele>
        <time>2013-05-06T08:45:52Z</time>
      </trkpt>
      <trkpt lat="43.4138" lon="-0.54526">
        <ele>242</ele>
        <time>2013-05-06T08:45:53Z</time>
      </trkpt>
      <trkpt lat="43.41378" lon="-0.54534">
        <ele>242</ele>
        <time>2013-05-06T08:45:54Z</time>
      </trkpt>
      <trkpt lat="43.41372" lon="-0.54542">
        <ele>241</ele>
        <time>2013-05-06T08:45:55Z</time>
      </trkpt>
      <trkpt lat="43.41367" lon="-0.54552">
        <ele>240</ele>
        <time>2013-05-06T08:45:56Z</time>
      </trkpt>
      <trkpt lat="43.41364" lon="-0.54564">
        <ele>239</ele>
        <time>2013-05-06T08:45:57Z</time>
      </trkpt>
      <trkpt lat="43.41361" lon="-0.54577">
        <ele>237</ele>
        <time>2013-05-06T08:45:58Z</time>
      </trkpt>
      <trkpt lat="43.41364" lon="-0.54593">
        <ele>235</ele>
        <time>2013-05-06T08:45:59Z</time>
      </trkpt>
      <trkpt lat="43.41364" lon="-0.54606">
        <ele>234</ele>
        <time>2013-05-06T08:46:00Z</time>
      </trkpt>
      <trkpt lat="43.41365" lon="-0.54616">
        <ele>233</ele>
        <time>2013-05-06T08:46:01Z</time>
      </trkpt>
      <trkpt lat="43.41369" lon="-0.54625">
        <ele>232</ele>
        <time>2013-05-06T08:46:02Z</time>
      </trkpt>
      <trkpt lat="43.41373" lon="-0.54634">
        <ele>231</ele>
        <time>2013-05-06T08:46:03Z</time>
      </trkpt>
      <trkpt lat="43.41375" lon="-0.54642">
        <ele>230</ele>
        <time>2013-05-06T08:46:04Z</time>
      </trkpt>
      <trkpt lat="43.41378" lon="-0.54651">
        <ele>230</ele>
        <time>2013-05-06T08:46:05Z</time>
      </trkpt>
      <trkpt lat="43.41382" lon="-0.54657">
        <ele>229</ele>
        <time>2013-05-06T08:46:06Z</time>
      </trkpt>
      <trkpt lat="43.41381" lon="-0.5467">
        <ele>229</ele>
        <time>2013-05-06T08:46:07Z</time>
      </trkpt>
      <trkpt lat="43.41385" lon="-0.54677">
        <ele>229</ele>
        <time>2013-05-06T08:46:08Z</time>
      </trkpt>
      <trkpt lat="43.4139" lon="-0.54685">
        <ele>229</ele>
        <time>2013-05-06T08:46:09Z</time>
      </trkpt>
      <trkpt lat="43.41393" lon="-0.54691">
        <ele>229</ele>
        <time>2013-05-06T08:46:10Z</time>
      </trkpt>
      <trkpt lat="43.41396" lon="-0.54699">
        <ele>229</ele>
        <time>2013-05-06T08:46:11Z</time>
      </trkpt>
      <trkpt lat="43.414" lon="-0.54707">
        <ele>230</ele>
        <time>2013-05-06T08:46:12Z</time>
      </trkpt>
      <trkpt lat="43.41402" lon="-0.54714">
        <ele>230</ele>
        <time>2013-05-06T08:46:13Z</time>
      </trkpt>
      <trkpt lat="43.41406" lon="-0.54722">
        <ele>231</ele>
        <time>2013-05-06T08:46:14Z</time>
      </trkpt>
      <trkpt lat="43.4141" lon="-0.5473">
        <ele>232</ele>
        <time>2013-05-06T08:46:15Z</time>
      </trkpt>
      <trkpt lat="43.41413" lon="-0.54737">
        <ele>232</ele>
        <time>2013-05-06T08:46:16Z</time>
      </trkpt>
      <trkpt lat="43.41416" lon="-0.54745">
        <ele>232</ele>
        <time>2013-05-06T08:46:17Z</time>
      </trkpt>
      <trkpt lat="43.41419" lon="-0.54751">
        <ele>233</ele>
        <time>2013-05-06T08:46:18Z</time>
      </trkpt>
      <trkpt lat="43.41422" lon="-0.54759">
        <ele>233</ele>
        <time>2013-05-06T08:46:19Z</time>
      </trkpt>
      <trkpt lat="43.41426" lon="-0.54767">
        <ele>232</ele>
        <time>2013-05-06T08:46:20Z</time>
      </trkpt>
      <trkpt lat="43.41429" lon="-0.54774">
        <ele>232</ele>
        <time>2013-05-06T08:46:21Z</time>
      </trkpt>
      <trkpt lat="43.41432" lon="-0.5478">
        <ele>232</ele>
        <time>2013-05-06T08:46:22Z</time>
      </trkpt>
      <trkpt lat="43.41435" lon="-0.54786">
        <ele>232</ele>
        <time>2013-05-06T08:46:23Z</time>
      </trkpt>
      <trkpt lat="43.41438" lon="-0.54793">
        <ele>232</ele>
        <time>2013-05-06T08:46:24Z</time>
      </trkpt>
      <trkpt lat="43.4144" lon="-0.54798">
        <ele>232</ele>
        <time>2013-05-06T08:46:25Z</time>
      </trkpt>
      <trkpt lat="43.41443" lon="-0.54803">
        <ele>231</ele>
        <time>2013-05-06T08:46:26Z</time>
      </trkpt>
      <trkpt lat="43.41446" lon="-0.54809">
        <ele>231</ele>
        <time>2013-05-06T08:46:27Z</time>
      </trkpt>
      <trkpt lat="43.41453" lon="-0.54819">
        <ele>231</ele>
        <time>2013-05-06T08:46:28Z</time>
      </trkpt>
      <trkpt lat="43.4146" lon="-0.54829">
        <ele>231</ele>
        <time>2013-05-06T08:46:29Z</time>
      </trkpt>
      <trkpt lat="43.41464" lon="-0.54833">
        <ele>232</ele>
        <time>2013-05-06T08:46:30Z</time>
      </trkpt>
      <trkpt lat="43.41475" lon="-0.54843">
        <ele>232</ele>
        <time>2013-05-06T08:46:31Z</time>
      </trkpt>
      <trkpt lat="43.41471" lon="-0.5484">
        <ele>232</ele>
        <time>2013-05-06T08:46:32Z</time>
      </trkpt>
      <trkpt lat="43.41472" lon="-0.5484">
        <ele>231</ele>
        <time>2013-05-06T08:46:33Z</time>
      </trkpt>
      <trkpt lat="43.41473" lon="-0.54841">
        <ele>231</ele>
        <time>2013-05-06T08:46:34Z</time>
      </trkpt>
      <trkpt lat="43.41473" lon="-0.54841">
        <ele>231</ele>
        <time>2013-05-06T08:46:35Z</time>
      </trkpt>
      <trkpt lat="43.41473" lon="-0.54841">
        <ele>231</ele>
        <time>2013-05-06T08:46:36Z</time>
      </trkpt>
      <trkpt lat="43.41479" lon="-0.54846">
        <ele>231</ele>
        <time>2013-05-06T08:46:37Z</time>
      </trkpt>
      <trkpt lat="43.41483" lon="-0.5485">
        <ele>230</ele>
        <time>2013-05-06T08:46:38Z</time>
      </trkpt>
      <trkpt lat="43.41484" lon="-0.5485">
        <ele>230</ele>
        <time>2013-05-06T08:46:40Z</time>
      </trkpt>
      <trkpt lat="43.41489" lon="-0.54855">
        <ele>229</ele>
        <time>2013-05-06T08:46:41Z</time>
      </trkpt>
      <trkpt lat="43.41493" lon="-0.54857">
        <ele>228</ele>
        <time>2013-05-06T08:46:42Z</time>
      </trkpt>
      <trkpt lat="43.41496" lon="-0.5486">
        <ele>229</ele>
        <time>2013-05-06T08:46:43Z</time>
      </trkpt>
      <trkpt lat="43.41499" lon="-0.54863">
        <ele>229</ele>
        <time>2013-05-06T08:46:44Z</time>
      </trkpt>
      <trkpt lat="43.41503" lon="-0.54867">
        <ele>229</ele>
        <time>2013-05-06T08:46:45Z</time>
      </trkpt>
      <trkpt lat="43.41505" lon="-0.5487">
        <ele>229</ele>
        <time>2013-05-06T08:46:46Z</time>
      </trkpt>
      <trkpt lat="43.41509" lon="-0.54874">
        <ele>228</ele>
        <time>2013-05-06T08:46:47Z</time>
      </trkpt>
      <trkpt lat="43.41512" lon="-0.54878">
        <ele>228</ele>
        <time>2013-05-06T08:46:48Z</time>
      </trkpt>
      <trkpt lat="43.41515" lon="-0.54882">
        <ele>230</ele>
        <time>2013-05-06T08:46:49Z</time>
      </trkpt>
      <trkpt lat="43.41517" lon="-0.54885">
        <ele>229</ele>
        <time>2013-05-06T08:46:50Z</time>
      </trkpt>
      <trkpt lat="43.41519" lon="-0.54888">
        <ele>230</ele>
        <time>2013-05-06T08:46:51Z</time>
      </trkpt>
      <trkpt lat="43.41522" lon="-0.54893">
        <ele>231</ele>
        <time>2013-05-06T08:46:52Z</time>
      </trkpt>
      <trkpt lat="43.41524" lon="-0.54896">
        <ele>231</ele>
        <time>2013-05-06T08:46:53Z</time>
      </trkpt>
      <trkpt lat="43.41527" lon="-0.549">
        <ele>232</ele>
        <time>2013-05-06T08:46:54Z</time>
      </trkpt>
      <trkpt lat="43.41529" lon="-0.54905">
        <ele>232</ele>
        <time>2013-05-06T08:46:55Z</time>
      </trkpt>
      <trkpt lat="43.41531" lon="-0.54908">
        <ele>232</ele>
        <time>2013-05-06T08:46:56Z</time>
      </trkpt>
      <trkpt lat="43.41533" lon="-0.54912">
        <ele>231</ele>
        <time>2013-05-06T08:46:57Z</time>
      </trkpt>
      <trkpt lat="43.41535" lon="-0.54915">
        <ele>229</ele>
        <time>2013-05-06T08:46:58Z</time>
      </trkpt>
      <trkpt lat="43.41537" lon="-0.54918">
        <ele>231</ele>
        <time>2013-05-06T08:46:59Z</time>
      </trkpt>
      <trkpt lat="43.41539" lon="-0.54922">
        <ele>232</ele>
        <time>2013-05-06T08:47:00Z</time>
      </trkpt>
      <trkpt lat="43.4155" lon="-0.54941">
        <ele>231</ele>
        <time>2013-05-06T08:47:01Z</time>
      </trkpt>
      <trkpt lat="43.41554" lon="-0.54947">
        <ele>231</ele>
        <time>2013-05-06T08:47:02Z</time>
      </trkpt>
      <trkpt lat="43.41558" lon="-0.54954">
        <ele>232</ele>
        <time>2013-05-06T08:47:03Z</time>
      </trkpt>
      <trkpt lat="43.4156" lon="-0.54958">
        <ele>232</ele>
        <time>2013-05-06T08:47:04Z</time>
      </trkpt>
      <trkpt lat="43.41564" lon="-0.54965">
        <ele>232</ele>
        <time>2013-05-06T08:47:05Z</time>
      </trkpt>
      <trkpt lat="43.41567" lon="-0.54969">
        <ele>231</ele>
        <time>2013-05-06T08:47:06Z</time>
      </trkpt>
      <trkpt lat="43.41572" lon="-0.54975">
        <ele>231</ele>
        <time>2013-05-06T08:47:07Z</time>
      </trkpt>
      <trkpt lat="43.41577" lon="-0.54981">
        <ele>230</ele>
        <time>2013-05-06T08:47:08Z</time>
      </trkpt>
      <trkpt lat="43.41579" lon="-0.54983">
        <ele>230</ele>
        <time>2013-05-06T08:47:09Z</time>
      </trkpt>
      <trkpt lat="43.41585" lon="-0.54989">
        <ele>230</ele>
        <time>2013-05-06T08:47:10Z</time>
      </trkpt>
      <trkpt lat="43.41591" lon="-0.54993">
        <ele>230</ele>
        <time>2013-05-06T08:47:11Z</time>
      </trkpt>
      <trkpt lat="43.41592" lon="-0.54994">
        <ele>229</ele>
        <time>2013-05-06T08:47:12Z</time>
      </trkpt>
      <trkpt lat="43.41591" lon="-0.54993">
        <ele>229</ele>
        <time>2013-05-06T08:47:13Z</time>
      </trkpt>
      <trkpt lat="43.4162" lon="-0.54994">
        <ele>229</ele>
        <time>2013-05-06T08:47:15Z</time>
      </trkpt>
      <trkpt lat="43.41626" lon="-0.54994">
        <ele>228</ele>
        <time>2013-05-06T08:47:16Z</time>
      </trkpt>
      <trkpt lat="43.41637" lon="-0.54993">
        <ele>226</ele>
        <time>2013-05-06T08:47:17Z</time>
      </trkpt>
      <trkpt lat="43.41647" lon="-0.54992">
        <ele>224</ele>
        <time>2013-05-06T08:47:18Z</time>
      </trkpt>
      <trkpt lat="43.41658" lon="-0.54991">
        <ele>223</ele>
        <time>2013-05-06T08:47:19Z</time>
      </trkpt>
      <trkpt lat="43.41667" lon="-0.5499">
        <ele>223</ele>
        <time>2013-05-06T08:47:20Z</time>
      </trkpt>
      <trkpt lat="43.41675" lon="-0.54989">
        <ele>223</ele>
        <time>2013-05-06T08:47:21Z</time>
      </trkpt>
      <trkpt lat="43.41688" lon="-0.54988">
        <ele>223</ele>
        <time>2013-05-06T08:47:22Z</time>
      </trkpt>
      <trkpt lat="43.41697" lon="-0.54988">
        <ele>223</ele>
        <time>2013-05-06T08:47:23Z</time>
      </trkpt>
      <trkpt lat="43.41708" lon="-0.54988">
        <ele>223</ele>
        <time>2013-05-06T08:47:24Z</time>
      </trkpt>
      <trkpt lat="43.41719" lon="-0.54989">
        <ele>223</ele>
        <time>2013-05-06T08:47:25Z</time>
      </trkpt>
      <trkpt lat="43.41729" lon="-0.5499">
        <ele>224</ele>
        <time>2013-05-06T08:47:26Z</time>
      </trkpt>
      <trkpt lat="43.41736" lon="-0.54991">
        <ele>223</ele>
        <time>2013-05-06T08:47:27Z</time>
      </trkpt>
      <trkpt lat="43.41742" lon="-0.54992">
        <ele>223</ele>
        <time>2013-05-06T08:47:28Z</time>
      </trkpt>
      <trkpt lat="43.4175" lon="-0.54994">
        <ele>223</ele>
        <time>2013-05-06T08:47:29Z</time>
      </trkpt>
      <trkpt lat="43.4176" lon="-0.54997">
        <ele>223</ele>
        <time>2013-05-06T08:47:30Z</time>
      </trkpt>
      <trkpt lat="43.41771" lon="-0.55002">
        <ele>219</ele>
        <time>2013-05-06T08:47:31Z</time>
      </trkpt>
      <trkpt lat="43.41776" lon="-0.55004">
        <ele>218</ele>
        <time>2013-05-06T08:47:32Z</time>
      </trkpt>
      <trkpt lat="43.41782" lon="-0.55007">
        <ele>216</ele>
        <time>2013-05-06T08:47:33Z</time>
      </trkpt>
      <trkpt lat="43.4179" lon="-0.55011">
        <ele>215</ele>
        <time>2013-05-06T08:47:34Z</time>
      </trkpt>
      <trkpt lat="43.41794" lon="-0.55013">
        <ele>213</ele>
        <time>2013-05-06T08:47:35Z</time>
      </trkpt>
      <trkpt lat="43.41802" lon="-0.55016">
        <ele>212</ele>
        <time>2013-05-06T08:47:36Z</time>
      </trkpt>
      <trkpt lat="43.41808" lon="-0.55019">
        <ele>211</ele>
        <time>2013-05-06T08:47:37Z</time>
      </trkpt>
      <trkpt lat="43.41814" lon="-0.55022">
        <ele>210</ele>
        <time>2013-05-06T08:47:38Z</time>
      </trkpt>
      <trkpt lat="43.41819" lon="-0.55024">
        <ele>210</ele>
        <time>2013-05-06T08:47:39Z</time>
      </trkpt>
      <trkpt lat="43.4182" lon="-0.55024">
        <ele>210</ele>
        <time>2013-05-06T08:47:40Z</time>
      </trkpt>
      <trkpt lat="43.41819" lon="-0.55025">
        <ele>211</ele>
        <time>2013-05-06T08:47:41Z</time>
      </trkpt>
      <trkpt lat="43.4182" lon="-0.55026">
        <ele>211</ele>
        <time>2013-05-06T08:47:42Z</time>
      </trkpt>
      <trkpt lat="43.41828" lon="-0.55065">
        <ele>211</ele>
        <time>2013-05-06T08:47:43Z</time>
      </trkpt>
      <trkpt lat="43.41832" lon="-0.55072">
        <ele>211</ele>
        <time>2013-05-06T08:47:44Z</time>
      </trkpt>
      <trkpt lat="43.41835" lon="-0.55079">
        <ele>211</ele>
        <time>2013-05-06T08:47:45Z</time>
      </trkpt>
      <trkpt lat="43.41837" lon="-0.55084">
        <ele>211</ele>
        <time>2013-05-06T08:47:46Z</time>
      </trkpt>
      <trkpt lat="43.41845" lon="-0.55092">
        <ele>211</ele>
        <time>2013-05-06T08:47:47Z</time>
      </trkpt>
      <trkpt lat="43.41846" lon="-0.55097">
        <ele>211</ele>
        <time>2013-05-06T08:47:48Z</time>
      </trkpt>
      <trkpt lat="43.41846" lon="-0.551">
        <ele>211</ele>
        <time>2013-05-06T08:47:49Z</time>
      </trkpt>
      <trkpt lat="43.41848" lon="-0.55101">
        <ele>210</ele>
        <time>2013-05-06T08:47:50Z</time>
      </trkpt>
      <trkpt lat="43.4185" lon="-0.55101">
        <ele>210</ele>
        <time>2013-05-06T08:47:51Z</time>
      </trkpt>
      <trkpt lat="43.41853" lon="-0.55102">
        <ele>210</ele>
        <time>2013-05-06T08:47:52Z</time>
      </trkpt>
      <trkpt lat="43.41857" lon="-0.551">
        <ele>211</ele>
        <time>2013-05-06T08:47:53Z</time>
      </trkpt>
      <trkpt lat="43.41859" lon="-0.55101">
        <ele>211</ele>
        <time>2013-05-06T08:47:54Z</time>
      </trkpt>
      <trkpt lat="43.41869" lon="-0.55101">
        <ele>210</ele>
        <time>2013-05-06T08:47:55Z</time>
      </trkpt>
      <trkpt lat="43.41873" lon="-0.55102">
        <ele>210</ele>
        <time>2013-05-06T08:47:56Z</time>
      </trkpt>
      <trkpt lat="43.41877" lon="-0.55101">
        <ele>210</ele>
        <time>2013-05-06T08:47:57Z</time>
      </trkpt>
      <trkpt lat="43.4188" lon="-0.55102">
        <ele>210</ele>
        <time>2013-05-06T08:47:58Z</time>
      </trkpt>
      <trkpt lat="43.41883" lon="-0.55103">
        <ele>210</ele>
        <time>2013-05-06T08:47:59Z</time>
      </trkpt>
      <trkpt lat="43.41885" lon="-0.55104">
        <ele>210</ele>
        <time>2013-05-06T08:48:00Z</time>
      </trkpt>
      <trkpt lat="43.41887" lon="-0.55105">
        <ele>209</ele>
        <time>2013-05-06T08:48:01Z</time>
      </trkpt>
      <trkpt lat="43.41889" lon="-0.55106">
        <ele>209</ele>
        <time>2013-05-06T08:48:02Z</time>
      </trkpt>
      <trkpt lat="43.41891" lon="-0.55107">
        <ele>210</ele>
        <time>2013-05-06T08:48:03Z</time>
      </trkpt>
      <trkpt lat="43.41893" lon="-0.55107">
        <ele>208</ele>
        <time>2013-05-06T08:48:04Z</time>
      </trkpt>
      <trkpt lat="43.41896" lon="-0.55107">
        <ele>208</ele>
        <time>2013-05-06T08:48:05Z</time>
      </trkpt>
      <trkpt lat="43.41899" lon="-0.55107">
        <ele>209</ele>
        <time>2013-05-06T08:48:06Z</time>
      </trkpt>
      <trkpt lat="43.41902" lon="-0.55107">
        <ele>210</ele>
        <time>2013-05-06T08:48:07Z</time>
      </trkpt>
      <trkpt lat="43.41904" lon="-0.55107">
        <ele>210</ele>
        <time>2013-05-06T08:48:08Z</time>
      </trkpt>
      <trkpt lat="43.41908" lon="-0.55107">
        <ele>210</ele>
        <time>2013-05-06T08:48:09Z</time>
      </trkpt>
      <trkpt lat="43.41911" lon="-0.55107">
        <ele>210</ele>
        <time>2013-05-06T08:48:10Z</time>
      </trkpt>
      <trkpt lat="43.41914" lon="-0.55108">
        <ele>210</ele>
        <time>2013-05-06T08:48:11Z</time>
      </trkpt>
      <trkpt lat="43.41916" lon="-0.55109">
        <ele>211</ele>
        <time>2013-05-06T08:48:12Z</time>
      </trkpt>
      <trkpt lat="43.41917" lon="-0.55109">
        <ele>211</ele>
        <time>2013-05-06T08:48:13Z</time>
      </trkpt>
      <trkpt lat="43.41918" lon="-0.55111">
        <ele>211</ele>
        <time>2013-05-06T08:48:14Z</time>
      </trkpt>
      <trkpt lat="43.41918" lon="-0.5511">
        <ele>211</ele>
        <time>2013-05-06T08:48:15Z</time>
      </trkpt>
      <trkpt lat="43.41919" lon="-0.55109">
        <ele>211</ele>
        <time>2013-05-06T08:48:16Z</time>
      </trkpt>
      <trkpt lat="43.4192" lon="-0.55109">
        <ele>212</ele>
        <time>2013-05-06T08:48:17Z</time>
      </trkpt>
      <trkpt lat="43.41921" lon="-0.55108">
        <ele>213</ele>
        <time>2013-05-06T08:48:18Z</time>
      </trkpt>
      <trkpt lat="43.41923" lon="-0.55108">
        <ele>213</ele>
        <time>2013-05-06T08:48:19Z</time>
      </trkpt>
      <trkpt lat="43.41925" lon="-0.55108">
        <ele>213</ele>
        <time>2013-05-06T08:48:20Z</time>
      </trkpt>
      <trkpt lat="43.41928" lon="-0.55108">
        <ele>213</ele>
        <time>2013-05-06T08:48:21Z</time>
      </trkpt>
      <trkpt lat="43.4193" lon="-0.55108">
        <ele>213</ele>
        <time>2013-05-06T08:48:22Z</time>
      </trkpt>
      <trkpt lat="43.41933" lon="-0.55109">
        <ele>213</ele>
        <time>2013-05-06T08:48:23Z</time>
      </trkpt>
      <trkpt lat="43.41935" lon="-0.55109">
        <ele>213</ele>
        <time>2013-05-06T08:48:24Z</time>
      </trkpt>
      <trkpt lat="43.41937" lon="-0.5511">
        <ele>213</ele>
        <time>2013-05-06T08:48:25Z</time>
      </trkpt>
      <trkpt lat="43.4194" lon="-0.55112">
        <ele>213</ele>
        <time>2013-05-06T08:48:26Z</time>
      </trkpt>
      <trkpt lat="43.41942" lon="-0.55113">
        <ele>213</ele>
        <time>2013-05-06T08:48:27Z</time>
      </trkpt>
      <trkpt lat="43.41946" lon="-0.55114">
        <ele>214</ele>
        <time>2013-05-06T08:48:28Z</time>
      </trkpt>
      <trkpt lat="43.41949" lon="-0.55115">
        <ele>215</ele>
        <time>2013-05-06T08:48:29Z</time>
      </trkpt>
      <trkpt lat="43.41952" lon="-0.55116">
        <ele>215</ele>
        <time>2013-05-06T08:48:30Z</time>
      </trkpt>
      <trkpt lat="43.41954" lon="-0.55118">
        <ele>214</ele>
        <time>2013-05-06T08:48:31Z</time>
      </trkpt>
      <trkpt lat="43.41956" lon="-0.55121">
        <ele>215</ele>
        <time>2013-05-06T08:48:32Z</time>
      </trkpt>
      <trkpt lat="43.41958" lon="-0.55124">
        <ele>215</ele>
        <time>2013-05-06T08:48:33Z</time>
      </trkpt>
      <trkpt lat="43.4196" lon="-0.55127">
        <ele>216</ele>
        <time>2013-05-06T08:48:34Z</time>
      </trkpt>
      <trkpt lat="43.41962" lon="-0.5513">
        <ele>216</ele>
        <time>2013-05-06T08:48:35Z</time>
      </trkpt>
      <trkpt lat="43.41964" lon="-0.55133">
        <ele>216</ele>
        <time>2013-05-06T08:48:36Z</time>
      </trkpt>
      <trkpt lat="43.41966" lon="-0.55136">
        <ele>217</ele>
        <time>2013-05-06T08:48:37Z</time>
      </trkpt>
      <trkpt lat="43.41968" lon="-0.55138">
        <ele>218</ele>
        <time>2013-05-06T08:48:38Z</time>
      </trkpt>
      <trkpt lat="43.4197" lon="-0.5514">
        <ele>218</ele>
        <time>2013-05-06T08:48:39Z</time>
      </trkpt>
      <trkpt lat="43.41971" lon="-0.55143">
        <ele>219</ele>
        <time>2013-05-06T08:48:40Z</time>
      </trkpt>
      <trkpt lat="43.41972" lon="-0.55146">
        <ele>220</ele>
        <time>2013-05-06T08:48:41Z</time>
      </trkpt>
      <trkpt lat="43.41974" lon="-0.55149">
        <ele>220</ele>
        <time>2013-05-06T08:48:42Z</time>
      </trkpt>
      <trkpt lat="43.41975" lon="-0.55153">
        <ele>221</ele>
        <time>2013-05-06T08:48:43Z</time>
      </trkpt>
      <trkpt lat="43.41977" lon="-0.55156">
        <ele>221</ele>
        <time>2013-05-06T08:48:44Z</time>
      </trkpt>
      <trkpt lat="43.41979" lon="-0.5516">
        <ele>221</ele>
        <time>2013-05-06T08:48:45Z</time>
      </trkpt>
      <trkpt lat="43.4198" lon="-0.55162">
        <ele>223</ele>
        <time>2013-05-06T08:48:46Z</time>
      </trkpt>
      <trkpt lat="43.41982" lon="-0.55165">
        <ele>222</ele>
        <time>2013-05-06T08:48:47Z</time>
      </trkpt>
      <trkpt lat="43.41983" lon="-0.55167">
        <ele>222</ele>
        <time>2013-05-06T08:48:48Z</time>
      </trkpt>
      <trkpt lat="43.41985" lon="-0.55169">
        <ele>222</ele>
        <time>2013-05-06T08:48:49Z</time>
      </trkpt>
      <trkpt lat="43.41987" lon="-0.55172">
        <ele>222</ele>
        <time>2013-05-06T08:48:50Z</time>
      </trkpt>
      <trkpt lat="43.41989" lon="-0.55174">
        <ele>222</ele>
        <time>2013-05-06T08:48:51Z</time>
      </trkpt>
      <trkpt lat="43.41991" lon="-0.55177">
        <ele>222</ele>
        <time>2013-05-06T08:48:52Z</time>
      </trkpt>
      <trkpt lat="43.41993" lon="-0.55179">
        <ele>221</ele>
        <time>2013-05-06T08:48:53Z</time>
      </trkpt>
      <trkpt lat="43.41995" lon="-0.55182">
        <ele>222</ele>
        <time>2013-05-06T08:48:54Z</time>
      </trkpt>
      <trkpt lat="43.41997" lon="-0.55185">
        <ele>222</ele>
        <time>2013-05-06T08:48:55Z</time>
      </trkpt>
      <trkpt lat="43.41999" lon="-0.55187">
        <ele>222</ele>
        <time>2013-05-06T08:48:56Z</time>
      </trkpt>
      <trkpt lat="43.42001" lon="-0.5519">
        <ele>222</ele>
        <time>2013-05-06T08:48:57Z</time>
      </trkpt>
      <trkpt lat="43.42004" lon="-0.55194">
        <ele>222</ele>
        <time>2013-05-06T08:48:58Z</time>
      </trkpt>
      <trkpt lat="43.42006" lon="-0.55197">
        <ele>222</ele>
        <time>2013-05-06T08:48:59Z</time>
      </trkpt>
      <trkpt lat="43.42009" lon="-0.552">
        <ele>223</ele>
        <time>2013-05-06T08:49:00Z</time>
      </trkpt>
      <trkpt lat="43.42011" lon="-0.55204">
        <ele>224</ele>
        <time>2013-05-06T08:49:01Z</time>
      </trkpt>
      <trkpt lat="43.42014" lon="-0.55208">
        <ele>223</ele>
        <time>2013-05-06T08:49:02Z</time>
      </trkpt>
      <trkpt lat="43.42016" lon="-0.55212">
        <ele>223</ele>
        <time>2013-05-06T08:49:03Z</time>
      </trkpt>
      <trkpt lat="43.42019" lon="-0.55216">
        <ele>224</ele>
        <time>2013-05-06T08:49:04Z</time>
      </trkpt>
      <trkpt lat="43.42021" lon="-0.55221">
        <ele>224</ele>
        <time>2013-05-06T08:49:05Z</time>
      </trkpt>
      <trkpt lat="43.42024" lon="-0.55225">
        <ele>224</ele>
        <time>2013-05-06T08:49:06Z</time>
      </trkpt>
      <trkpt lat="43.42025" lon="-0.5523">
        <ele>224</ele>
        <time>2013-05-06T08:49:07Z</time>
      </trkpt>
      <trkpt lat="43.42027" lon="-0.55234">
        <ele>225</ele>
        <time>2013-05-06T08:49:08Z</time>
      </trkpt>
      <trkpt lat="43.42029" lon="-0.55239">
        <ele>225</ele>
        <time>2013-05-06T08:49:09Z</time>
      </trkpt>
      <trkpt lat="43.4203" lon="-0.55243">
        <ele>225</ele>
        <time>2013-05-06T08:49:10Z</time>
      </trkpt>
      <trkpt lat="43.42031" lon="-0.55248">
        <ele>224</ele>
        <time>2013-05-06T08:49:11Z</time>
      </trkpt>
      <trkpt lat="43.42032" lon="-0.55253">
        <ele>223</ele>
        <time>2013-05-06T08:49:12Z</time>
      </trkpt>
      <trkpt lat="43.42033" lon="-0.55257">
        <ele>223</ele>
        <time>2013-05-06T08:49:13Z</time>
      </trkpt>
      <trkpt lat="43.42034" lon="-0.55261">
        <ele>223</ele>
        <time>2013-05-06T08:49:14Z</time>
      </trkpt>
      <trkpt lat="43.42035" lon="-0.55265">
        <ele>223</ele>
        <time>2013-05-06T08:49:15Z</time>
      </trkpt>
      <trkpt lat="43.42035" lon="-0.55269">
        <ele>223</ele>
        <time>2013-05-06T08:49:16Z</time>
      </trkpt>
      <trkpt lat="43.42036" lon="-0.55273">
        <ele>224</ele>
        <time>2013-05-06T08:49:17Z</time>
      </trkpt>
      <trkpt lat="43.42037" lon="-0.55278">
        <ele>224</ele>
        <time>2013-05-06T08:49:18Z</time>
      </trkpt>
      <trkpt lat="43.42038" lon="-0.55282">
        <ele>223</ele>
        <time>2013-05-06T08:49:19Z</time>
      </trkpt>
      <trkpt lat="43.42039" lon="-0.55287">
        <ele>223</ele>
        <time>2013-05-06T08:49:20Z</time>
      </trkpt>
      <trkpt lat="43.4204" lon="-0.55292">
        <ele>224</ele>
        <time>2013-05-06T08:49:21Z</time>
      </trkpt>
      <trkpt lat="43.42041" lon="-0.55298">
        <ele>224</ele>
        <time>2013-05-06T08:49:22Z</time>
      </trkpt>
      <trkpt lat="43.42043" lon="-0.55305">
        <ele>225</ele>
        <time>2013-05-06T08:49:23Z</time>
      </trkpt>
      <trkpt lat="43.42045" lon="-0.55312">
        <ele>223</ele>
        <time>2013-05-06T08:49:24Z</time>
      </trkpt>
      <trkpt lat="43.42047" lon="-0.55317">
        <ele>223</ele>
        <time>2013-05-06T08:49:25Z</time>
      </trkpt>
      <trkpt lat="43.4205" lon="-0.55323">
        <ele>222</ele>
        <time>2013-05-06T08:49:26Z</time>
      </trkpt>
      <trkpt lat="43.42052" lon="-0.55328">
        <ele>223</ele>
        <time>2013-05-06T08:49:27Z</time>
      </trkpt>
      <trkpt lat="43.42054" lon="-0.55332">
        <ele>223</ele>
        <time>2013-05-06T08:49:28Z</time>
      </trkpt>
      <trkpt lat="43.42056" lon="-0.55336">
        <ele>223</ele>
        <time>2013-05-06T08:49:29Z</time>
      </trkpt>
      <trkpt lat="43.42057" lon="-0.5534">
        <ele>224</ele>
        <time>2013-05-06T08:49:30Z</time>
      </trkpt>
      <trkpt lat="43.42057" lon="-0.55344">
        <ele>223</ele>
        <time>2013-05-06T08:49:31Z</time>
      </trkpt>
      <trkpt lat="43.42059" lon="-0.55349">
        <ele>223</ele>
        <time>2013-05-06T08:49:32Z</time>
      </trkpt>
      <trkpt lat="43.42062" lon="-0.55354">
        <ele>224</ele>
        <time>2013-05-06T08:49:33Z</time>
      </trkpt>
      <trkpt lat="43.42064" lon="-0.55358">
        <ele>224</ele>
        <time>2013-05-06T08:49:34Z</time>
      </trkpt>
      <trkpt lat="43.42066" lon="-0.55363">
        <ele>224</ele>
        <time>2013-05-06T08:49:35Z</time>
      </trkpt>
      <trkpt lat="43.42067" lon="-0.55367">
        <ele>224</ele>
        <time>2013-05-06T08:49:36Z</time>
      </trkpt>
      <trkpt lat="43.42069" lon="-0.55371">
        <ele>229</ele>
        <time>2013-05-06T08:49:37Z</time>
      </trkpt>
      <trkpt lat="43.42069" lon="-0.55375">
        <ele>230</ele>
        <time>2013-05-06T08:49:38Z</time>
      </trkpt>
      <trkpt lat="43.4207" lon="-0.55378">
        <ele>230</ele>
        <time>2013-05-06T08:49:39Z</time>
      </trkpt>
      <trkpt lat="43.42071" lon="-0.55382">
        <ele>230</ele>
        <time>2013-05-06T08:49:40Z</time>
      </trkpt>
      <trkpt lat="43.42072" lon="-0.55386">
        <ele>229</ele>
        <time>2013-05-06T08:49:41Z</time>
      </trkpt>
      <trkpt lat="43.42072" lon="-0.55389">
        <ele>229</ele>
        <time>2013-05-06T08:49:42Z</time>
      </trkpt>
      <trkpt lat="43.42073" lon="-0.55393">
        <ele>229</ele>
        <time>2013-05-06T08:49:43Z</time>
      </trkpt>
      <trkpt lat="43.42074" lon="-0.55397">
        <ele>229</ele>
        <time>2013-05-06T08:49:44Z</time>
      </trkpt>
      <trkpt lat="43.42076" lon="-0.55401">
        <ele>229</ele>
        <time>2013-05-06T08:49:45Z</time>
      </trkpt>
      <trkpt lat="43.42078" lon="-0.55405">
        <ele>230</ele>
        <time>2013-05-06T08:49:46Z</time>
      </trkpt>
      <trkpt lat="43.42079" lon="-0.55409">
        <ele>230</ele>
        <time>2013-05-06T08:49:47Z</time>
      </trkpt>
      <trkpt lat="43.4208" lon="-0.55413">
        <ele>229</ele>
        <time>2013-05-06T08:49:48Z</time>
      </trkpt>
      <trkpt lat="43.42082" lon="-0.55417">
        <ele>230</ele>
        <time>2013-05-06T08:49:49Z</time>
      </trkpt>
      <trkpt lat="43.42083" lon="-0.55421">
        <ele>229</ele>
        <time>2013-05-06T08:49:50Z</time>
      </trkpt>
      <trkpt lat="43.42084" lon="-0.55425">
        <ele>229</ele>
        <time>2013-05-06T08:49:51Z</time>
      </trkpt>
      <trkpt lat="43.42086" lon="-0.55429">
        <ele>228</ele>
        <time>2013-05-06T08:49:52Z</time>
      </trkpt>
      <trkpt lat="43.42088" lon="-0.55432">
        <ele>228</ele>
        <time>2013-05-06T08:49:53Z</time>
      </trkpt>
      <trkpt lat="43.4209" lon="-0.55436">
        <ele>228</ele>
        <time>2013-05-06T08:49:54Z</time>
      </trkpt>
      <trkpt lat="43.42091" lon="-0.55439">
        <ele>228</ele>
        <time>2013-05-06T08:49:55Z</time>
      </trkpt>
      <trkpt lat="43.42091" lon="-0.55443">
        <ele>228</ele>
        <time>2013-05-06T08:49:56Z</time>
      </trkpt>
      <trkpt lat="43.42093" lon="-0.55447">
        <ele>229</ele>
        <time>2013-05-06T08:49:57Z</time>
      </trkpt>
      <trkpt lat="43.42093" lon="-0.5545">
        <ele>228</ele>
        <time>2013-05-06T08:49:58Z</time>
      </trkpt>
      <trkpt lat="43.42094" lon="-0.55454">
        <ele>228</ele>
        <time>2013-05-06T08:49:59Z</time>
      </trkpt>
      <trkpt lat="43.42095" lon="-0.55458">
        <ele>228</ele>
        <time>2013-05-06T08:50:00Z</time>
      </trkpt>
      <trkpt lat="43.42096" lon="-0.55462">
        <ele>227</ele>
        <time>2013-05-06T08:50:01Z</time>
      </trkpt>
      <trkpt lat="43.42096" lon="-0.55466">
        <ele>229</ele>
        <time>2013-05-06T08:50:02Z</time>
      </trkpt>
      <trkpt lat="43.42097" lon="-0.5547">
        <ele>227</ele>
        <time>2013-05-06T08:50:03Z</time>
      </trkpt>
      <trkpt lat="43.42098" lon="-0.55475">
        <ele>228</ele>
        <time>2013-05-06T08:50:04Z</time>
      </trkpt>
      <trkpt lat="43.42099" lon="-0.5548">
        <ele>227</ele>
        <time>2013-05-06T08:50:05Z</time>
      </trkpt>
      <trkpt lat="43.42101" lon="-0.55485">
        <ele>228</ele>
        <time>2013-05-06T08:50:06Z</time>
      </trkpt>
      <trkpt lat="43.42102" lon="-0.5549">
        <ele>228</ele>
        <time>2013-05-06T08:50:07Z</time>
      </trkpt>
      <trkpt lat="43.42104" lon="-0.55494">
        <ele>228</ele>
        <time>2013-05-06T08:50:08Z</time>
      </trkpt>
      <trkpt lat="43.42105" lon="-0.55499">
        <ele>227</ele>
        <time>2013-05-06T08:50:09Z</time>
      </trkpt>
      <trkpt lat="43.42106" lon="-0.55505">
        <ele>226</ele>
        <time>2013-05-06T08:50:10Z</time>
      </trkpt>
      <trkpt lat="43.42108" lon="-0.5551">
        <ele>225</ele>
        <time>2013-05-06T08:50:11Z</time>
      </trkpt>
      <trkpt lat="43.42109" lon="-0.55515">
        <ele>226</ele>
        <time>2013-05-06T08:50:12Z</time>
      </trkpt>
      <trkpt lat="43.42111" lon="-0.5552">
        <ele>226</ele>
        <time>2013-05-06T08:50:13Z</time>
      </trkpt>
      <trkpt lat="43.42112" lon="-0.55525">
        <ele>227</ele>
        <time>2013-05-06T08:50:14Z</time>
      </trkpt>
      <trkpt lat="43.42114" lon="-0.5553">
        <ele>227</ele>
        <time>2013-05-06T08:50:15Z</time>
      </trkpt>
      <trkpt lat="43.42115" lon="-0.55535">
        <ele>227</ele>
        <time>2013-05-06T08:50:16Z</time>
      </trkpt>
      <trkpt lat="43.42117" lon="-0.5554">
        <ele>227</ele>
        <time>2013-05-06T08:50:17Z</time>
      </trkpt>
      <trkpt lat="43.42118" lon="-0.55545">
        <ele>226</ele>
        <time>2013-05-06T08:50:18Z</time>
      </trkpt>
      <trkpt lat="43.4212" lon="-0.55549">
        <ele>226</ele>
        <time>2013-05-06T08:50:19Z</time>
      </trkpt>
      <trkpt lat="43.42121" lon="-0.55554">
        <ele>227</ele>
        <time>2013-05-06T08:50:20Z</time>
      </trkpt>
      <trkpt lat="43.42123" lon="-0.55559">
        <ele>226</ele>
        <time>2013-05-06T08:50:21Z</time>
      </trkpt>
      <trkpt lat="43.42125" lon="-0.55563">
        <ele>226</ele>
        <time>2013-05-06T08:50:22Z</time>
      </trkpt>
      <trkpt lat="43.42127" lon="-0.55569">
        <ele>227</ele>
        <time>2013-05-06T08:50:23Z</time>
      </trkpt>
      <trkpt lat="43.42129" lon="-0.55574">
        <ele>227</ele>
        <time>2013-05-06T08:50:24Z</time>
      </trkpt>
      <trkpt lat="43.4213" lon="-0.55579">
        <ele>226</ele>
        <time>2013-05-06T08:50:25Z</time>
      </trkpt>
      <trkpt lat="43.42132" lon="-0.55585">
        <ele>227</ele>
        <time>2013-05-06T08:50:26Z</time>
      </trkpt>
      <trkpt lat="43.42133" lon="-0.55591">
        <ele>226</ele>
        <time>2013-05-06T08:50:27Z</time>
      </trkpt>
      <trkpt lat="43.42135" lon="-0.55596">
        <ele>226</ele>
        <time>2013-05-06T08:50:28Z</time>
      </trkpt>
      <trkpt lat="43.42136" lon="-0.55602">
        <ele>225</ele>
        <time>2013-05-06T08:50:29Z</time>
      </trkpt>
      <trkpt lat="43.42137" lon="-0.55608">
        <ele>225</ele>
        <time>2013-05-06T08:50:30Z</time>
      </trkpt>
      <trkpt lat="43.42139" lon="-0.55613">
        <ele>225</ele>
        <time>2013-05-06T08:50:31Z</time>
      </trkpt>
      <trkpt lat="43.4214" lon="-0.55618">
        <ele>226</ele>
        <time>2013-05-06T08:50:32Z</time>
      </trkpt>
      <trkpt lat="43.42141" lon="-0.55624">
        <ele>226</ele>
        <time>2013-05-06T08:50:33Z</time>
      </trkpt>
      <trkpt lat="43.42141" lon="-0.5563">
        <ele>226</ele>
        <time>2013-05-06T08:50:34Z</time>
      </trkpt>
      <trkpt lat="43.42142" lon="-0.55636">
        <ele>226</ele>
        <time>2013-05-06T08:50:35Z</time>
      </trkpt>
      <trkpt lat="43.42142" lon="-0.55642">
        <ele>226</ele>
        <time>2013-05-06T08:50:36Z</time>
      </trkpt>
      <trkpt lat="43.42143" lon="-0.55648">
        <ele>226</ele>
        <time>2013-05-06T08:50:37Z</time>
      </trkpt>
      <trkpt lat="43.42143" lon="-0.55654">
        <ele>226</ele>
        <time>2013-05-06T08:50:38Z</time>
      </trkpt>
      <trkpt lat="43.42144" lon="-0.5566">
        <ele>226</ele>
        <time>2013-05-06T08:50:39Z</time>
      </trkpt>
      <trkpt lat="43.42145" lon="-0.55666">
        <ele>226</ele>
        <time>2013-05-06T08:50:40Z</time>
      </trkpt>
      <trkpt lat="43.42147" lon="-0.55671">
        <ele>227</ele>
        <time>2013-05-06T08:50:41Z</time>
      </trkpt>
      <trkpt lat="43.42149" lon="-0.55676">
        <ele>227</ele>
        <time>2013-05-06T08:50:42Z</time>
      </trkpt>
      <trkpt lat="43.42151" lon="-0.55682">
        <ele>227</ele>
        <time>2013-05-06T08:50:43Z</time>
      </trkpt>
      <trkpt lat="43.42152" lon="-0.55687">
        <ele>227</ele>
        <time>2013-05-06T08:50:44Z</time>
      </trkpt>
      <trkpt lat="43.42154" lon="-0.55692">
        <ele>227</ele>
        <time>2013-05-06T08:50:45Z</time>
      </trkpt>
      <trkpt lat="43.42155" lon="-0.55698">
        <ele>227</ele>
        <time>2013-05-06T08:50:46Z</time>
      </trkpt>
      <trkpt lat="43.42156" lon="-0.55703">
        <ele>227</ele>
        <time>2013-05-06T08:50:47Z</time>
      </trkpt>
      <trkpt lat="43.42158" lon="-0.55709">
        <ele>227</ele>
        <time>2013-05-06T08:50:48Z</time>
      </trkpt>
      <trkpt lat="43.42159" lon="-0.55714">
        <ele>227</ele>
        <time>2013-05-06T08:50:49Z</time>
      </trkpt>
      <trkpt lat="43.42161" lon="-0.55719">
        <ele>228</ele>
        <time>2013-05-06T08:50:50Z</time>
      </trkpt>
      <trkpt lat="43.42163" lon="-0.55724">
        <ele>227</ele>
        <time>2013-05-06T08:50:51Z</time>
      </trkpt>
      <trkpt lat="43.42164" lon="-0.55729">
        <ele>228</ele>
        <time>2013-05-06T08:50:52Z</time>
      </trkpt>
      <trkpt lat="43.42166" lon="-0.55734">
        <ele>228</ele>
        <time>2013-05-06T08:50:53Z</time>
      </trkpt>
      <trkpt lat="43.42168" lon="-0.55739">
        <ele>228</ele>
        <time>2013-05-06T08:50:54Z</time>
      </trkpt>
      <trkpt lat="43.4217" lon="-0.55745">
        <ele>228</ele>
        <time>2013-05-06T08:50:55Z</time>
      </trkpt>
      <trkpt lat="43.42172" lon="-0.5575">
        <ele>228</ele>
        <time>2013-05-06T08:50:56Z</time>
      </trkpt>
      <trkpt lat="43.42173" lon="-0.55755">
        <ele>228</ele>
        <time>2013-05-06T08:50:57Z</time>
      </trkpt>
      <trkpt lat="43.42175" lon="-0.5576">
        <ele>228</ele>
        <time>2013-05-06T08:50:58Z</time>
      </trkpt>
      <trkpt lat="43.42176" lon="-0.55765">
        <ele>229</ele>
        <time>2013-05-06T08:50:59Z</time>
      </trkpt>
      <trkpt lat="43.42178" lon="-0.55769">
        <ele>229</ele>
        <time>2013-05-06T08:51:00Z</time>
      </trkpt>
      <trkpt lat="43.4218" lon="-0.55773">
        <ele>230</ele>
        <time>2013-05-06T08:51:01Z</time>
      </trkpt>
      <trkpt lat="43.42181" lon="-0.55778">
        <ele>230</ele>
        <time>2013-05-06T08:51:02Z</time>
      </trkpt>
      <trkpt lat="43.42183" lon="-0.55782">
        <ele>230</ele>
        <time>2013-05-06T08:51:03Z</time>
      </trkpt>
      <trkpt lat="43.42185" lon="-0.55787">
        <ele>231</ele>
        <time>2013-05-06T08:51:04Z</time>
      </trkpt>
      <trkpt lat="43.42187" lon="-0.55791">
        <ele>231</ele>
        <time>2013-05-06T08:51:05Z</time>
      </trkpt>
      <trkpt lat="43.42189" lon="-0.55794">
        <ele>231</ele>
        <time>2013-05-06T08:51:06Z</time>
      </trkpt>
      <trkpt lat="43.42191" lon="-0.55798">
        <ele>231</ele>
        <time>2013-05-06T08:51:07Z</time>
      </trkpt>
      <trkpt lat="43.42194" lon="-0.55801">
        <ele>231</ele>
        <time>2013-05-06T08:51:08Z</time>
      </trkpt>
      <trkpt lat="43.42197" lon="-0.55805">
        <ele>231</ele>
        <time>2013-05-06T08:51:09Z</time>
      </trkpt>
      <trkpt lat="43.42199" lon="-0.55809">
        <ele>231</ele>
        <time>2013-05-06T08:51:10Z</time>
      </trkpt>
      <trkpt lat="43.42202" lon="-0.55813">
        <ele>231</ele>
        <time>2013-05-06T08:51:11Z</time>
      </trkpt>
      <trkpt lat="43.42205" lon="-0.55817">
        <ele>231</ele>
        <time>2013-05-06T08:51:12Z</time>
      </trkpt>
      <trkpt lat="43.42207" lon="-0.55822">
        <ele>231</ele>
        <time>2013-05-06T08:51:13Z</time>
      </trkpt>
      <trkpt lat="43.42209" lon="-0.55827">
        <ele>231</ele>
        <time>2013-05-06T08:51:14Z</time>
      </trkpt>
      <trkpt lat="43.4221" lon="-0.55833">
        <ele>231</ele>
        <time>2013-05-06T08:51:15Z</time>
      </trkpt>
      <trkpt lat="43.42211" lon="-0.55839">
        <ele>231</ele>
        <time>2013-05-06T08:51:16Z</time>
      </trkpt>
      <trkpt lat="43.42212" lon="-0.55844">
        <ele>232</ele>
        <time>2013-05-06T08:51:17Z</time>
      </trkpt>
      <trkpt lat="43.42213" lon="-0.55849">
        <ele>231</ele>
        <time>2013-05-06T08:51:18Z</time>
      </trkpt>
      <trkpt lat="43.42213" lon="-0.55853">
        <ele>231</ele>
        <time>2013-05-06T08:51:19Z</time>
      </trkpt>
      <trkpt lat="43.42214" lon="-0.55858">
        <ele>231</ele>
        <time>2013-05-06T08:51:20Z</time>
      </trkpt>
      <trkpt lat="43.42215" lon="-0.55863">
        <ele>231</ele>
        <time>2013-05-06T08:51:21Z</time>
      </trkpt>
      <trkpt lat="43.42217" lon="-0.55868">
        <ele>230</ele>
        <time>2013-05-06T08:51:22Z</time>
      </trkpt>
      <trkpt lat="43.42219" lon="-0.55874">
        <ele>230</ele>
        <time>2013-05-06T08:51:23Z</time>
      </trkpt>
      <trkpt lat="43.42222" lon="-0.55881">
        <ele>229</ele>
        <time>2013-05-06T08:51:24Z</time>
      </trkpt>
      <trkpt lat="43.42223" lon="-0.55887">
        <ele>229</ele>
        <time>2013-05-06T08:51:25Z</time>
      </trkpt>
      <trkpt lat="43.42226" lon="-0.55893">
        <ele>230</ele>
        <time>2013-05-06T08:51:26Z</time>
      </trkpt>
      <trkpt lat="43.42229" lon="-0.559">
        <ele>230</ele>
        <time>2013-05-06T08:51:27Z</time>
      </trkpt>
      <trkpt lat="43.42231" lon="-0.55906">
        <ele>229</ele>
        <time>2013-05-06T08:51:28Z</time>
      </trkpt>
      <trkpt lat="43.42241" lon="-0.55915">
        <ele>228</ele>
        <time>2013-05-06T08:51:29Z</time>
      </trkpt>
      <trkpt lat="43.42247" lon="-0.55922">
        <ele>227</ele>
        <time>2013-05-06T08:51:30Z</time>
      </trkpt>
      <trkpt lat="43.42251" lon="-0.55931">
        <ele>227</ele>
        <time>2013-05-06T08:51:31Z</time>
      </trkpt>
      <trkpt lat="43.42258" lon="-0.55941">
        <ele>227</ele>
        <time>2013-05-06T08:51:32Z</time>
      </trkpt>
      <trkpt lat="43.42265" lon="-0.5595">
        <ele>227</ele>
        <time>2013-05-06T08:51:33Z</time>
      </trkpt>
      <trkpt lat="43.42275" lon="-0.55957">
        <ele>227</ele>
        <time>2013-05-06T08:51:34Z</time>
      </trkpt>
      <trkpt lat="43.42281" lon="-0.55964">
        <ele>227</ele>
        <time>2013-05-06T08:51:35Z</time>
      </trkpt>
      <trkpt lat="43.4229" lon="-0.55974">
        <ele>228</ele>
        <time>2013-05-06T08:51:36Z</time>
      </trkpt>
      <trkpt lat="43.42299" lon="-0.55983">
        <ele>228</ele>
        <time>2013-05-06T08:51:37Z</time>
      </trkpt>
      <trkpt lat="43.42304" lon="-0.55999">
        <ele>227</ele>
        <time>2013-05-06T08:51:38Z</time>
      </trkpt>
      <trkpt lat="43.4231" lon="-0.5601">
        <ele>227</ele>
        <time>2013-05-06T08:51:39Z</time>
      </trkpt>
      <trkpt lat="43.42315" lon="-0.5602">
        <ele>227</ele>
        <time>2013-05-06T08:51:40Z</time>
      </trkpt>
      <trkpt lat="43.4232" lon="-0.5603">
        <ele>226</ele>
        <time>2013-05-06T08:51:41Z</time>
      </trkpt>
      <trkpt lat="43.42326" lon="-0.56042">
        <ele>226</ele>
        <time>2013-05-06T08:51:42Z</time>
      </trkpt>
      <trkpt lat="43.42331" lon="-0.56053">
        <ele>226</ele>
        <time>2013-05-06T08:51:43Z</time>
      </trkpt>
      <trkpt lat="43.42335" lon="-0.5606">
        <ele>226</ele>
        <time>2013-05-06T08:51:44Z</time>
      </trkpt>
      <trkpt lat="43.4234" lon="-0.5607">
        <ele>226</ele>
        <time>2013-05-06T08:51:45Z</time>
      </trkpt>
      <trkpt lat="43.42344" lon="-0.56079">
        <ele>225</ele>
        <time>2013-05-06T08:51:46Z</time>
      </trkpt>
      <trkpt lat="43.4235" lon="-0.56092">
        <ele>224</ele>
        <time>2013-05-06T08:51:47Z</time>
      </trkpt>
      <trkpt lat="43.42353" lon="-0.561">
        <ele>224</ele>
        <time>2013-05-06T08:51:48Z</time>
      </trkpt>
      <trkpt lat="43.42356" lon="-0.56105">
        <ele>224</ele>
        <time>2013-05-06T08:51:49Z</time>
      </trkpt>
      <trkpt lat="43.42359" lon="-0.56111">
        <ele>223</ele>
        <time>2013-05-06T08:51:50Z</time>
      </trkpt>
      <trkpt lat="43.42362" lon="-0.56117">
        <ele>224</ele>
        <time>2013-05-06T08:51:51Z</time>
      </trkpt>
      <trkpt lat="43.42365" lon="-0.56123">
        <ele>224</ele>
        <time>2013-05-06T08:51:52Z</time>
      </trkpt>
      <trkpt lat="43.42368" lon="-0.5613">
        <ele>224</ele>
        <time>2013-05-06T08:51:53Z</time>
      </trkpt>
      <trkpt lat="43.4237" lon="-0.56134">
        <ele>223</ele>
        <time>2013-05-06T08:51:54Z</time>
      </trkpt>
      <trkpt lat="43.42373" lon="-0.56142">
        <ele>224</ele>
        <time>2013-05-06T08:51:55Z</time>
      </trkpt>
      <trkpt lat="43.42374" lon="-0.56145">
        <ele>225</ele>
        <time>2013-05-06T08:51:56Z</time>
      </trkpt>
      <trkpt lat="43.42376" lon="-0.56149">
        <ele>225</ele>
        <time>2013-05-06T08:51:57Z</time>
      </trkpt>
      <trkpt lat="43.42377" lon="-0.56151">
        <ele>225</ele>
        <time>2013-05-06T08:51:58Z</time>
      </trkpt>
      <trkpt lat="43.4238" lon="-0.56158">
        <ele>225</ele>
        <time>2013-05-06T08:51:59Z</time>
      </trkpt>
      <trkpt lat="43.42384" lon="-0.56167">
        <ele>225</ele>
        <time>2013-05-06T08:52:00Z</time>
      </trkpt>
      <trkpt lat="43.42387" lon="-0.56172">
        <ele>225</ele>
        <time>2013-05-06T08:52:01Z</time>
      </trkpt>
      <trkpt lat="43.42388" lon="-0.56175">
        <ele>225</ele>
        <time>2013-05-06T08:52:02Z</time>
      </trkpt>
      <trkpt lat="43.42389" lon="-0.56178">
        <ele>224</ele>
        <time>2013-05-06T08:52:03Z</time>
      </trkpt>
      <trkpt lat="43.4239" lon="-0.56181">
        <ele>224</ele>
        <time>2013-05-06T08:52:04Z</time>
      </trkpt>
      <trkpt lat="43.42392" lon="-0.56184">
        <ele>223</ele>
        <time>2013-05-06T08:52:05Z</time>
      </trkpt>
      <trkpt lat="43.42394" lon="-0.56189">
        <ele>224</ele>
        <time>2013-05-06T08:52:06Z</time>
      </trkpt>
      <trkpt lat="43.42396" lon="-0.56193">
        <ele>223</ele>
        <time>2013-05-06T08:52:07Z</time>
      </trkpt>
      <trkpt lat="43.42397" lon="-0.56197">
        <ele>222</ele>
        <time>2013-05-06T08:52:08Z</time>
      </trkpt>
      <trkpt lat="43.42399" lon="-0.56201">
        <ele>222</ele>
        <time>2013-05-06T08:52:09Z</time>
      </trkpt>
      <trkpt lat="43.42401" lon="-0.56205">
        <ele>222</ele>
        <time>2013-05-06T08:52:10Z</time>
      </trkpt>
      <trkpt lat="43.42402" lon="-0.56207">
        <ele>222</ele>
        <time>2013-05-06T08:52:11Z</time>
      </trkpt>
      <trkpt lat="43.42402" lon="-0.56219">
        <ele>222</ele>
        <time>2013-05-06T08:52:12Z</time>
      </trkpt>
      <trkpt lat="43.42403" lon="-0.5621">
        <ele>222</ele>
        <time>2013-05-06T08:52:13Z</time>
      </trkpt>
      <trkpt lat="43.42411" lon="-0.5623">
        <ele>221</ele>
        <time>2013-05-06T08:52:15Z</time>
      </trkpt>
      <trkpt lat="43.42413" lon="-0.56236">
        <ele>221</ele>
        <time>2013-05-06T08:52:16Z</time>
      </trkpt>
      <trkpt lat="43.42416" lon="-0.56244">
        <ele>221</ele>
        <time>2013-05-06T08:52:17Z</time>
      </trkpt>
      <trkpt lat="43.42417" lon="-0.56247">
        <ele>221</ele>
        <time>2013-05-06T08:52:18Z</time>
      </trkpt>
      <trkpt lat="43.42419" lon="-0.56253">
        <ele>221</ele>
        <time>2013-05-06T08:52:19Z</time>
      </trkpt>
      <trkpt lat="43.42421" lon="-0.56259">
        <ele>221</ele>
        <time>2013-05-06T08:52:20Z</time>
      </trkpt>
      <trkpt lat="43.42426" lon="-0.56273">
        <ele>220</ele>
        <time>2013-05-06T08:52:21Z</time>
      </trkpt>
      <trkpt lat="43.42428" lon="-0.56278">
        <ele>219</ele>
        <time>2013-05-06T08:52:22Z</time>
      </trkpt>
      <trkpt lat="43.4243" lon="-0.56283">
        <ele>219</ele>
        <time>2013-05-06T08:52:23Z</time>
      </trkpt>
      <trkpt lat="43.42432" lon="-0.56289">
        <ele>219</ele>
        <time>2013-05-06T08:52:24Z</time>
      </trkpt>
      <trkpt lat="43.42434" lon="-0.56295">
        <ele>218</ele>
        <time>2013-05-06T08:52:25Z</time>
      </trkpt>
      <trkpt lat="43.42437" lon="-0.56304">
        <ele>220</ele>
        <time>2013-05-06T08:52:26Z</time>
      </trkpt>
      <trkpt lat="43.4244" lon="-0.56313">
        <ele>222</ele>
        <time>2013-05-06T08:52:27Z</time>
      </trkpt>
      <trkpt lat="43.42442" lon="-0.5632">
        <ele>222</ele>
        <time>2013-05-06T08:52:28Z</time>
      </trkpt>
      <trkpt lat="43.42444" lon="-0.56326">
        <ele>221</ele>
        <time>2013-05-06T08:52:29Z</time>
      </trkpt>
      <trkpt lat="43.42446" lon="-0.56331">
        <ele>221</ele>
        <time>2013-05-06T08:52:30Z</time>
      </trkpt>
      <trkpt lat="43.42448" lon="-0.56337">
        <ele>221</ele>
        <time>2013-05-06T08:52:31Z</time>
      </trkpt>
      <trkpt lat="43.4245" lon="-0.5634">
        <ele>221</ele>
        <time>2013-05-06T08:52:32Z</time>
      </trkpt>
      <trkpt lat="43.42451" lon="-0.56345">
        <ele>222</ele>
        <time>2013-05-06T08:52:33Z</time>
      </trkpt>
      <trkpt lat="43.42452" lon="-0.56349">
        <ele>221</ele>
        <time>2013-05-06T08:52:34Z</time>
      </trkpt>
      <trkpt lat="43.42454" lon="-0.56353">
        <ele>224</ele>
        <time>2013-05-06T08:52:35Z</time>
      </trkpt>
      <trkpt lat="43.42456" lon="-0.56359">
        <ele>224</ele>
        <time>2013-05-06T08:52:36Z</time>
      </trkpt>
      <trkpt lat="43.42458" lon="-0.56364">
        <ele>225</ele>
        <time>2013-05-06T08:52:37Z</time>
      </trkpt>
      <trkpt lat="43.42459" lon="-0.56369">
        <ele>224</ele>
        <time>2013-05-06T08:52:38Z</time>
      </trkpt>
      <trkpt lat="43.4246" lon="-0.56372">
        <ele>225</ele>
        <time>2013-05-06T08:52:39Z</time>
      </trkpt>
      <trkpt lat="43.42462" lon="-0.56377">
        <ele>225</ele>
        <time>2013-05-06T08:52:40Z</time>
      </trkpt>
      <trkpt lat="43.42463" lon="-0.56379">
        <ele>224</ele>
        <time>2013-05-06T08:52:41Z</time>
      </trkpt>
      <trkpt lat="43.42464" lon="-0.56383">
        <ele>225</ele>
        <time>2013-05-06T08:52:42Z</time>
      </trkpt>
      <trkpt lat="43.42465" lon="-0.56386">
        <ele>225</ele>
        <time>2013-05-06T08:52:43Z</time>
      </trkpt>
      <trkpt lat="43.42467" lon="-0.5639">
        <ele>226</ele>
        <time>2013-05-06T08:52:44Z</time>
      </trkpt>
      <trkpt lat="43.42468" lon="-0.56393">
        <ele>226</ele>
        <time>2013-05-06T08:52:45Z</time>
      </trkpt>
      <trkpt lat="43.42469" lon="-0.56397">
        <ele>228</ele>
        <time>2013-05-06T08:52:46Z</time>
      </trkpt>
      <trkpt lat="43.4247" lon="-0.56399">
        <ele>228</ele>
        <time>2013-05-06T08:52:47Z</time>
      </trkpt>
      <trkpt lat="43.42471" lon="-0.56402">
        <ele>228</ele>
        <time>2013-05-06T08:52:48Z</time>
      </trkpt>
      <trkpt lat="43.42471" lon="-0.56404">
        <ele>228</ele>
        <time>2013-05-06T08:52:49Z</time>
      </trkpt>
      <trkpt lat="43.42473" lon="-0.56407">
        <ele>228</ele>
        <time>2013-05-06T08:52:50Z</time>
      </trkpt>
      <trkpt lat="43.42473" lon="-0.5641">
        <ele>228</ele>
        <time>2013-05-06T08:52:51Z</time>
      </trkpt>
      <trkpt lat="43.42474" lon="-0.56411">
        <ele>227</ele>
        <time>2013-05-06T08:52:52Z</time>
      </trkpt>
      <trkpt lat="43.42475" lon="-0.56413">
        <ele>227</ele>
        <time>2013-05-06T08:52:53Z</time>
      </trkpt>
      <trkpt lat="43.42476" lon="-0.56416">
        <ele>226</ele>
        <time>2013-05-06T08:52:54Z</time>
      </trkpt>
      <trkpt lat="43.42477" lon="-0.56421">
        <ele>226</ele>
        <time>2013-05-06T08:52:55Z</time>
      </trkpt>
      <trkpt lat="43.42478" lon="-0.56422">
        <ele>226</ele>
        <time>2013-05-06T08:52:56Z</time>
      </trkpt>
      <trkpt lat="43.4248" lon="-0.56428">
        <ele>226</ele>
        <time>2013-05-06T08:52:57Z</time>
      </trkpt>
      <trkpt lat="43.42481" lon="-0.56429">
        <ele>226</ele>
        <time>2013-05-06T08:52:58Z</time>
      </trkpt>
      <trkpt lat="43.42482" lon="-0.56433">
        <ele>225</ele>
        <time>2013-05-06T08:52:59Z</time>
      </trkpt>
      <trkpt lat="43.42482" lon="-0.56433">
        <ele>225</ele>
        <time>2013-05-06T08:53:00Z</time>
      </trkpt>
      <trkpt lat="43.42487" lon="-0.5644">
        <ele>224</ele>
        <time>2013-05-06T08:53:01Z</time>
      </trkpt>
      <trkpt lat="43.42487" lon="-0.5644">
        <ele>224</ele>
        <time>2013-05-06T08:53:02Z</time>
      </trkpt>
      <trkpt lat="43.42487" lon="-0.5644">
        <ele>224</ele>
        <time>2013-05-06T08:53:03Z</time>
      </trkpt>
      <trkpt lat="43.4249" lon="-0.56445">
        <ele>224</ele>
        <time>2013-05-06T08:53:04Z</time>
      </trkpt>
      <trkpt lat="43.42495" lon="-0.56451">
        <ele>223</ele>
        <time>2013-05-06T08:53:05Z</time>
      </trkpt>
      <trkpt lat="43.42498" lon="-0.56453">
        <ele>223</ele>
        <time>2013-05-06T08:53:06Z</time>
      </trkpt>
      <trkpt lat="43.425" lon="-0.56456">
        <ele>223</ele>
        <time>2013-05-06T08:53:07Z</time>
      </trkpt>
      <trkpt lat="43.42502" lon="-0.56459">
        <ele>222</ele>
        <time>2013-05-06T08:53:08Z</time>
      </trkpt>
      <trkpt lat="43.42505" lon="-0.56462">
        <ele>222</ele>
        <time>2013-05-06T08:53:09Z</time>
      </trkpt>
      <trkpt lat="43.42507" lon="-0.56465">
        <ele>222</ele>
        <time>2013-05-06T08:53:10Z</time>
      </trkpt>
      <trkpt lat="43.4251" lon="-0.56469">
        <ele>221</ele>
        <time>2013-05-06T08:53:11Z</time>
      </trkpt>
      <trkpt lat="43.42514" lon="-0.56473">
        <ele>221</ele>
        <time>2013-05-06T08:53:12Z</time>
      </trkpt>
      <trkpt lat="43.42518" lon="-0.56478">
        <ele>220</ele>
        <time>2013-05-06T08:53:13Z</time>
      </trkpt>
      <trkpt lat="43.42521" lon="-0.56482">
        <ele>219</ele>
        <time>2013-05-06T08:53:14Z</time>
      </trkpt>
      <trkpt lat="43.42525" lon="-0.56487">
        <ele>219</ele>
        <time>2013-05-06T08:53:15Z</time>
      </trkpt>
      <trkpt lat="43.4253" lon="-0.56493">
        <ele>219</ele>
        <time>2013-05-06T08:53:16Z</time>
      </trkpt>
      <trkpt lat="43.42532" lon="-0.56495">
        <ele>219</ele>
        <time>2013-05-06T08:53:17Z</time>
      </trkpt>
      <trkpt lat="43.42535" lon="-0.565">
        <ele>219</ele>
        <time>2013-05-06T08:53:18Z</time>
      </trkpt>
      <trkpt lat="43.42545" lon="-0.56513">
        <ele>218</ele>
        <time>2013-05-06T08:53:19Z</time>
      </trkpt>
      <trkpt lat="43.42548" lon="-0.56518">
        <ele>217</ele>
        <time>2013-05-06T08:53:20Z</time>
      </trkpt>
      <trkpt lat="43.42555" lon="-0.56528">
        <ele>217</ele>
        <time>2013-05-06T08:53:21Z</time>
      </trkpt>
      <trkpt lat="43.42559" lon="-0.56533">
        <ele>217</ele>
        <time>2013-05-06T08:53:22Z</time>
      </trkpt>
      <trkpt lat="43.42564" lon="-0.56541">
        <ele>217</ele>
        <time>2013-05-06T08:53:23Z</time>
      </trkpt>
      <trkpt lat="43.42566" lon="-0.56546">
        <ele>217</ele>
        <time>2013-05-06T08:53:24Z</time>
      </trkpt>
      <trkpt lat="43.42572" lon="-0.56557">
        <ele>217</ele>
        <time>2013-05-06T08:53:25Z</time>
      </trkpt>
      <trkpt lat="43.42556" lon="-0.56573">
        <ele>217</ele>
        <time>2013-05-06T08:53:26Z</time>
      </trkpt>
      <trkpt lat="43.42555" lon="-0.56582">
        <ele>217</ele>
        <time>2013-05-06T08:53:27Z</time>
      </trkpt>
      <trkpt lat="43.42557" lon="-0.56591">
        <ele>218</ele>
        <time>2013-05-06T08:53:28Z</time>
      </trkpt>
      <trkpt lat="43.42566" lon="-0.56621">
        <ele>218</ele>
        <time>2013-05-06T08:53:29Z</time>
      </trkpt>
      <trkpt lat="43.42572" lon="-0.56624">
        <ele>219</ele>
        <time>2013-05-06T08:53:30Z</time>
      </trkpt>
      <trkpt lat="43.4258" lon="-0.56629">
        <ele>219</ele>
        <time>2013-05-06T08:53:31Z</time>
      </trkpt>
      <trkpt lat="43.42582" lon="-0.56631">
        <ele>219</ele>
        <time>2013-05-06T08:53:32Z</time>
      </trkpt>
      <trkpt lat="43.42587" lon="-0.56634">
        <ele>219</ele>
        <time>2013-05-06T08:53:33Z</time>
      </trkpt>
      <trkpt lat="43.4259" lon="-0.5664">
        <ele>218</ele>
        <time>2013-05-06T08:53:34Z</time>
      </trkpt>
      <trkpt lat="43.42592" lon="-0.56647">
        <ele>218</ele>
        <time>2013-05-06T08:53:35Z</time>
      </trkpt>
      <trkpt lat="43.42598" lon="-0.56652">
        <ele>217</ele>
        <time>2013-05-06T08:53:36Z</time>
      </trkpt>
      <trkpt lat="43.42602" lon="-0.56658">
        <ele>217</ele>
        <time>2013-05-06T08:53:37Z</time>
      </trkpt>
      <trkpt lat="43.42606" lon="-0.56662">
        <ele>217</ele>
        <time>2013-05-06T08:53:38Z</time>
      </trkpt>
      <trkpt lat="43.42609" lon="-0.56668">
        <ele>217</ele>
        <time>2013-05-06T08:53:39Z</time>
      </trkpt>
      <trkpt lat="43.42613" lon="-0.56675">
        <ele>216</ele>
        <time>2013-05-06T08:53:40Z</time>
      </trkpt>
      <trkpt lat="43.42617" lon="-0.56683">
        <ele>216</ele>
        <time>2013-05-06T08:53:41Z</time>
      </trkpt>
      <trkpt lat="43.42619" lon="-0.56689">
        <ele>215</ele>
        <time>2013-05-06T08:53:42Z</time>
      </trkpt>
      <trkpt lat="43.42623" lon="-0.56696">
        <ele>216</ele>
        <time>2013-05-06T08:53:43Z</time>
      </trkpt>
      <trkpt lat="43.42625" lon="-0.56702">
        <ele>215</ele>
        <time>2013-05-06T08:53:44Z</time>
      </trkpt>
      <trkpt lat="43.42626" lon="-0.56706">
        <ele>214</ele>
        <time>2013-05-06T08:53:45Z</time>
      </trkpt>
      <trkpt lat="43.42629" lon="-0.56709">
        <ele>214</ele>
        <time>2013-05-06T08:53:46Z</time>
      </trkpt>
      <trkpt lat="43.42632" lon="-0.56712">
        <ele>214</ele>
        <time>2013-05-06T08:53:47Z</time>
      </trkpt>
      <trkpt lat="43.42633" lon="-0.56717">
        <ele>214</ele>
        <time>2013-05-06T08:53:48Z</time>
      </trkpt>
      <trkpt lat="43.42635" lon="-0.56719">
        <ele>213</ele>
        <time>2013-05-06T08:53:49Z</time>
      </trkpt>
      <trkpt lat="43.42635" lon="-0.56722">
        <ele>213</ele>
        <time>2013-05-06T08:53:50Z</time>
      </trkpt>
      <trkpt lat="43.42634" lon="-0.56728">
        <ele>212</ele>
        <time>2013-05-06T08:53:51Z</time>
      </trkpt>
      <trkpt lat="43.42635" lon="-0.56733">
        <ele>212</ele>
        <time>2013-05-06T08:53:52Z</time>
      </trkpt>
      <trkpt lat="43.42636" lon="-0.56734">
        <ele>212</ele>
        <time>2013-05-06T08:53:53Z</time>
      </trkpt>
      <trkpt lat="43.42637" lon="-0.56736">
        <ele>213</ele>
        <time>2013-05-06T08:53:54Z</time>
      </trkpt>
      <trkpt lat="43.42636" lon="-0.56736">
        <ele>215</ele>
        <time>2013-05-06T08:53:55Z</time>
      </trkpt>
      <trkpt lat="43.42636" lon="-0.56736">
        <ele>215</ele>
        <time>2013-05-06T08:53:56Z</time>
      </trkpt>
      <trkpt lat="43.42635" lon="-0.56736">
        <ele>215</ele>
        <time>2013-05-06T08:53:57Z</time>
      </trkpt>
      <trkpt lat="43.42635" lon="-0.56736">
        <ele>215</ele>
        <time>2013-05-06T08:53:58Z</time>
      </trkpt>
      <trkpt lat="43.42634" lon="-0.56736">
        <ele>215</ele>
        <time>2013-05-06T08:53:59Z</time>
      </trkpt>
      <trkpt lat="43.42634" lon="-0.56735">
        <ele>215</ele>
        <time>2013-05-06T08:54:00Z</time>
      </trkpt>
      <trkpt lat="43.42633" lon="-0.56734">
        <ele>215</ele>
        <time>2013-05-06T08:54:01Z</time>
      </trkpt>
      <trkpt lat="43.42633" lon="-0.56733">
        <ele>216</ele>
        <time>2013-05-06T08:54:02Z</time>
      </trkpt>
      <trkpt lat="43.4265" lon="-0.56694">
        <ele>89</ele>
        <time>2013-05-06T09:14:28Z</time>
      </trkpt>
      <trkpt lat="43.42641" lon="-0.56707">
        <ele>134</ele>
        <time>2013-05-06T09:14:29Z</time>
      </trkpt>
      <trkpt lat="43.42637" lon="-0.56712">
        <ele>150</ele>
        <time>2013-05-06T09:14:30Z</time>
      </trkpt>
      <trkpt lat="43.42635" lon="-0.56717">
        <ele>165</ele>
        <time>2013-05-06T09:14:31Z</time>
      </trkpt>
      <trkpt lat="43.42639" lon="-0.56717">
        <ele>164</ele>
        <time>2013-05-06T09:14:32Z</time>
      </trkpt>
      <trkpt lat="43.4264" lon="-0.56716">
        <ele>160</ele>
        <time>2013-05-06T09:14:33Z</time>
      </trkpt>
      <trkpt lat="43.42641" lon="-0.56717">
        <ele>163</ele>
        <time>2013-05-06T09:14:34Z</time>
      </trkpt>
      <trkpt lat="43.4264" lon="-0.56719">
        <ele>166</ele>
        <time>2013-05-06T09:14:35Z</time>
      </trkpt>
      <trkpt lat="43.42643" lon="-0.56721">
        <ele>168</ele>
        <time>2013-05-06T09:14:43Z</time>
      </trkpt>
      <trkpt lat="43.42643" lon="-0.56723">
        <ele>167</ele>
        <time>2013-05-06T09:14:44Z</time>
      </trkpt>
      <trkpt lat="43.42644" lon="-0.56726">
        <ele>168</ele>
        <time>2013-05-06T09:14:45Z</time>
      </trkpt>
      <trkpt lat="43.42644" lon="-0.56728">
        <ele>170</ele>
        <time>2013-05-06T09:14:46Z</time>
      </trkpt>
      <trkpt lat="43.42644" lon="-0.56732">
        <ele>171</ele>
        <time>2013-05-06T09:14:47Z</time>
      </trkpt>
      <trkpt lat="43.42645" lon="-0.56737">
        <ele>172</ele>
        <time>2013-05-06T09:14:48Z</time>
      </trkpt>
      <trkpt lat="43.42646" lon="-0.56742">
        <ele>173</ele>
        <time>2013-05-06T09:14:49Z</time>
      </trkpt>
      <trkpt lat="43.42646" lon="-0.56748">
        <ele>173</ele>
        <time>2013-05-06T09:14:50Z</time>
      </trkpt>
      <trkpt lat="43.42647" lon="-0.56752">
        <ele>176</ele>
        <time>2013-05-06T09:14:51Z</time>
      </trkpt>
      <trkpt lat="43.42649" lon="-0.56757">
        <ele>180</ele>
        <time>2013-05-06T09:14:52Z</time>
      </trkpt>
      <trkpt lat="43.4265" lon="-0.56761">
        <ele>182</ele>
        <time>2013-05-06T09:14:53Z</time>
      </trkpt>
      <trkpt lat="43.42651" lon="-0.56765">
        <ele>187</ele>
        <time>2013-05-06T09:14:54Z</time>
      </trkpt>
      <trkpt lat="43.42653" lon="-0.56769">
        <ele>187</ele>
        <time>2013-05-06T09:14:55Z</time>
      </trkpt>
      <trkpt lat="43.42654" lon="-0.56773">
        <ele>187</ele>
        <time>2013-05-06T09:14:56Z</time>
      </trkpt>
      <trkpt lat="43.42655" lon="-0.56776">
        <ele>187</ele>
        <time>2013-05-06T09:14:57Z</time>
      </trkpt>
      <trkpt lat="43.42656" lon="-0.56779">
        <ele>187</ele>
        <time>2013-05-06T09:14:58Z</time>
      </trkpt>
      <trkpt lat="43.42658" lon="-0.56783">
        <ele>188</ele>
        <time>2013-05-06T09:14:59Z</time>
      </trkpt>
      <trkpt lat="43.42659" lon="-0.56786">
        <ele>188</ele>
        <time>2013-05-06T09:15:00Z</time>
      </trkpt>
      <trkpt lat="43.42659" lon="-0.56789">
        <ele>189</ele>
        <time>2013-05-06T09:15:01Z</time>
      </trkpt>
      <trkpt lat="43.42661" lon="-0.56792">
        <ele>189</ele>
        <time>2013-05-06T09:15:02Z</time>
      </trkpt>
      <trkpt lat="43.42662" lon="-0.56794">
        <ele>189</ele>
        <time>2013-05-06T09:15:03Z</time>
      </trkpt>
      <trkpt lat="43.42663" lon="-0.56797">
        <ele>189</ele>
        <time>2013-05-06T09:15:04Z</time>
      </trkpt>
      <trkpt lat="43.42665" lon="-0.56799">
        <ele>190</ele>
        <time>2013-05-06T09:15:05Z</time>
      </trkpt>
      <trkpt lat="43.42667" lon="-0.56801">
        <ele>190</ele>
        <time>2013-05-06T09:15:06Z</time>
      </trkpt>
      <trkpt lat="43.42668" lon="-0.56803">
        <ele>190</ele>
        <time>2013-05-06T09:15:07Z</time>
      </trkpt>
      <trkpt lat="43.4267" lon="-0.56806">
        <ele>190</ele>
        <time>2013-05-06T09:15:08Z</time>
      </trkpt>
      <trkpt lat="43.42672" lon="-0.56808">
        <ele>190</ele>
        <time>2013-05-06T09:15:09Z</time>
      </trkpt>
      <trkpt lat="43.42673" lon="-0.5681">
        <ele>190</ele>
        <time>2013-05-06T09:15:10Z</time>
      </trkpt>
      <trkpt lat="43.42675" lon="-0.56813">
        <ele>189</ele>
        <time>2013-05-06T09:15:11Z</time>
      </trkpt>
      <trkpt lat="43.42677" lon="-0.56815">
        <ele>190</ele>
        <time>2013-05-06T09:15:12Z</time>
      </trkpt>
      <trkpt lat="43.42679" lon="-0.56817">
        <ele>190</ele>
        <time>2013-05-06T09:15:13Z</time>
      </trkpt>
      <trkpt lat="43.42681" lon="-0.56821">
        <ele>190</ele>
        <time>2013-05-06T09:15:14Z</time>
      </trkpt>
      <trkpt lat="43.42682" lon="-0.56824">
        <ele>191</ele>
        <time>2013-05-06T09:15:15Z</time>
      </trkpt>
      <trkpt lat="43.42683" lon="-0.56827">
        <ele>191</ele>
        <time>2013-05-06T09:15:16Z</time>
      </trkpt>
      <trkpt lat="43.42684" lon="-0.56829">
        <ele>191</ele>
        <time>2013-05-06T09:15:17Z</time>
      </trkpt>
      <trkpt lat="43.42685" lon="-0.56832">
        <ele>191</ele>
        <time>2013-05-06T09:15:18Z</time>
      </trkpt>
      <trkpt lat="43.42687" lon="-0.56834">
        <ele>191</ele>
        <time>2013-05-06T09:15:19Z</time>
      </trkpt>
      <trkpt lat="43.42688" lon="-0.56835">
        <ele>191</ele>
        <time>2013-05-06T09:15:20Z</time>
      </trkpt>
      <trkpt lat="43.42688" lon="-0.56837">
        <ele>191</ele>
        <time>2013-05-06T09:15:21Z</time>
      </trkpt>
      <trkpt lat="43.42689" lon="-0.56839">
        <ele>190</ele>
        <time>2013-05-06T09:15:22Z</time>
      </trkpt>
      <trkpt lat="43.4269" lon="-0.56841">
        <ele>191</ele>
        <time>2013-05-06T09:15:23Z</time>
      </trkpt>
      <trkpt lat="43.4269" lon="-0.56843">
        <ele>191</ele>
        <time>2013-05-06T09:15:24Z</time>
      </trkpt>
      <trkpt lat="43.4269" lon="-0.56846">
        <ele>191</ele>
        <time>2013-05-06T09:15:25Z</time>
      </trkpt>
      <trkpt lat="43.4269" lon="-0.56849">
        <ele>192</ele>
        <time>2013-05-06T09:15:26Z</time>
      </trkpt>
      <trkpt lat="43.4269" lon="-0.56851">
        <ele>191</ele>
        <time>2013-05-06T09:15:27Z</time>
      </trkpt>
      <trkpt lat="43.4269" lon="-0.56854">
        <ele>191</ele>
        <time>2013-05-06T09:15:28Z</time>
      </trkpt>
      <trkpt lat="43.42689" lon="-0.56856">
        <ele>190</ele>
        <time>2013-05-06T09:15:29Z</time>
      </trkpt>
      <trkpt lat="43.42689" lon="-0.56859">
        <ele>190</ele>
        <time>2013-05-06T09:15:30Z</time>
      </trkpt>
      <trkpt lat="43.42688" lon="-0.56863">
        <ele>190</ele>
        <time>2013-05-06T09:15:31Z</time>
      </trkpt>
      <trkpt lat="43.42688" lon="-0.56866">
        <ele>191</ele>
        <time>2013-05-06T09:15:32Z</time>
      </trkpt>
      <trkpt lat="43.42687" lon="-0.56871">
        <ele>190</ele>
        <time>2013-05-06T09:15:33Z</time>
      </trkpt>
      <trkpt lat="43.42687" lon="-0.56874">
        <ele>190</ele>
        <time>2013-05-06T09:15:34Z</time>
      </trkpt>
      <trkpt lat="43.42687" lon="-0.56878">
        <ele>189</ele>
        <time>2013-05-06T09:15:35Z</time>
      </trkpt>
      <trkpt lat="43.42687" lon="-0.56882">
        <ele>190</ele>
        <time>2013-05-06T09:15:36Z</time>
      </trkpt>
      <trkpt lat="43.42687" lon="-0.56885">
        <ele>190</ele>
        <time>2013-05-06T09:15:37Z</time>
      </trkpt>
      <trkpt lat="43.42687" lon="-0.56889">
        <ele>190</ele>
        <time>2013-05-06T09:15:38Z</time>
      </trkpt>
      <trkpt lat="43.42688" lon="-0.56892">
        <ele>190</ele>
        <time>2013-05-06T09:15:39Z</time>
      </trkpt>
      <trkpt lat="43.42688" lon="-0.56894">
        <ele>190</ele>
        <time>2013-05-06T09:15:40Z</time>
      </trkpt>
      <trkpt lat="43.42689" lon="-0.56897">
        <ele>190</ele>
        <time>2013-05-06T09:15:41Z</time>
      </trkpt>
      <trkpt lat="43.4269" lon="-0.56899">
        <ele>191</ele>
        <time>2013-05-06T09:15:42Z</time>
      </trkpt>
      <trkpt lat="43.42691" lon="-0.56902">
        <ele>191</ele>
        <time>2013-05-06T09:15:43Z</time>
      </trkpt>
      <trkpt lat="43.42693" lon="-0.56905">
        <ele>191</ele>
        <time>2013-05-06T09:15:44Z</time>
      </trkpt>
      <trkpt lat="43.42694" lon="-0.56907">
        <ele>191</ele>
        <time>2013-05-06T09:15:45Z</time>
      </trkpt>
      <trkpt lat="43.42696" lon="-0.5691">
        <ele>191</ele>
        <time>2013-05-06T09:15:46Z</time>
      </trkpt>
      <trkpt lat="43.42697" lon="-0.56913">
        <ele>192</ele>
        <time>2013-05-06T09:15:47Z</time>
      </trkpt>
      <trkpt lat="43.42698" lon="-0.56916">
        <ele>192</ele>
        <time>2013-05-06T09:15:48Z</time>
      </trkpt>
      <trkpt lat="43.42699" lon="-0.56918">
        <ele>193</ele>
        <time>2013-05-06T09:15:49Z</time>
      </trkpt>
      <trkpt lat="43.42701" lon="-0.56921">
        <ele>193</ele>
        <time>2013-05-06T09:15:50Z</time>
      </trkpt>
      <trkpt lat="43.42703" lon="-0.56923">
        <ele>194</ele>
        <time>2013-05-06T09:15:51Z</time>
      </trkpt>
      <trkpt lat="43.42704" lon="-0.56924">
        <ele>195</ele>
        <time>2013-05-06T09:15:52Z</time>
      </trkpt>
      <trkpt lat="43.42704" lon="-0.56924">
        <ele>196</ele>
        <time>2013-05-06T09:15:53Z</time>
      </trkpt>
      <trkpt lat="43.42706" lon="-0.56924">
        <ele>197</ele>
        <time>2013-05-06T09:15:54Z</time>
      </trkpt>
      <trkpt lat="43.42707" lon="-0.56924">
        <ele>196</ele>
        <time>2013-05-06T09:15:55Z</time>
      </trkpt>
      <trkpt lat="43.42708" lon="-0.56924">
        <ele>196</ele>
        <time>2013-05-06T09:15:56Z</time>
      </trkpt>
      <trkpt lat="43.42709" lon="-0.56924">
        <ele>196</ele>
        <time>2013-05-06T09:15:57Z</time>
      </trkpt>
      <trkpt lat="43.4271" lon="-0.56923">
        <ele>196</ele>
        <time>2013-05-06T09:15:58Z</time>
      </trkpt>
      <trkpt lat="43.42711" lon="-0.56922">
        <ele>197</ele>
        <time>2013-05-06T09:15:59Z</time>
      </trkpt>
      <trkpt lat="43.42711" lon="-0.56921">
        <ele>198</ele>
        <time>2013-05-06T09:16:00Z</time>
      </trkpt>
      <trkpt lat="43.42712" lon="-0.56919">
        <ele>198</ele>
        <time>2013-05-06T09:16:01Z</time>
      </trkpt>
      <trkpt lat="43.42713" lon="-0.56918">
        <ele>198</ele>
        <time>2013-05-06T09:16:02Z</time>
      </trkpt>
      <trkpt lat="43.42714" lon="-0.56914">
        <ele>198</ele>
        <time>2013-05-06T09:16:03Z</time>
      </trkpt>
      <trkpt lat="43.42715" lon="-0.56913">
        <ele>197</ele>
        <time>2013-05-06T09:16:04Z</time>
      </trkpt>
      <trkpt lat="43.42717" lon="-0.56911">
        <ele>196</ele>
        <time>2013-05-06T09:16:05Z</time>
      </trkpt>
      <trkpt lat="43.42718" lon="-0.56909">
        <ele>194</ele>
        <time>2013-05-06T09:16:06Z</time>
      </trkpt>
      <trkpt lat="43.42719" lon="-0.56907">
        <ele>195</ele>
        <time>2013-05-06T09:16:07Z</time>
      </trkpt>
      <trkpt lat="43.42721" lon="-0.56906">
        <ele>193</ele>
        <time>2013-05-06T09:16:08Z</time>
      </trkpt>
      <trkpt lat="43.42724" lon="-0.56903">
        <ele>193</ele>
        <time>2013-05-06T09:16:09Z</time>
      </trkpt>
      <trkpt lat="43.42727" lon="-0.569">
        <ele>192</ele>
        <time>2013-05-06T09:16:10Z</time>
      </trkpt>
      <trkpt lat="43.4273" lon="-0.56896">
        <ele>192</ele>
        <time>2013-05-06T09:16:11Z</time>
      </trkpt>
      <trkpt lat="43.42734" lon="-0.56892">
        <ele>191</ele>
        <time>2013-05-06T09:16:12Z</time>
      </trkpt>
      <trkpt lat="43.42738" lon="-0.56888">
        <ele>190</ele>
        <time>2013-05-06T09:16:13Z</time>
      </trkpt>
      <trkpt lat="43.42742" lon="-0.56885">
        <ele>189</ele>
        <time>2013-05-06T09:16:14Z</time>
      </trkpt>
      <trkpt lat="43.42746" lon="-0.56883">
        <ele>188</ele>
        <time>2013-05-06T09:16:15Z</time>
      </trkpt>
      <trkpt lat="43.42749" lon="-0.56881">
        <ele>186</ele>
        <time>2013-05-06T09:16:16Z</time>
      </trkpt>
      <trkpt lat="43.42753" lon="-0.5688">
        <ele>185</ele>
        <time>2013-05-06T09:16:17Z</time>
      </trkpt>
      <trkpt lat="43.42756" lon="-0.56879">
        <ele>185</ele>
        <time>2013-05-06T09:16:18Z</time>
      </trkpt>
      <trkpt lat="43.42757" lon="-0.56879">
        <ele>184</ele>
        <time>2013-05-06T09:16:19Z</time>
      </trkpt>
      <trkpt lat="43.42758" lon="-0.56879">
        <ele>184</ele>
        <time>2013-05-06T09:16:20Z</time>
      </trkpt>
      <trkpt lat="43.42758" lon="-0.5688">
        <ele>184</ele>
        <time>2013-05-06T09:16:21Z</time>
      </trkpt>
      <trkpt lat="43.42758" lon="-0.56881">
        <ele>184</ele>
        <time>2013-05-06T09:16:22Z</time>
      </trkpt>
      <trkpt lat="43.42757" lon="-0.56882">
        <ele>183</ele>
        <time>2013-05-06T09:16:23Z</time>
      </trkpt>
      <trkpt lat="43.42756" lon="-0.56883">
        <ele>183</ele>
        <time>2013-05-06T09:16:24Z</time>
      </trkpt>
      <trkpt lat="43.42756" lon="-0.56885">
        <ele>183</ele>
        <time>2013-05-06T09:16:25Z</time>
      </trkpt>
      <trkpt lat="43.42756" lon="-0.56887">
        <ele>183</ele>
        <time>2013-05-06T09:16:26Z</time>
      </trkpt>
      <trkpt lat="43.42757" lon="-0.56888">
        <ele>184</ele>
        <time>2013-05-06T09:16:27Z</time>
      </trkpt>
      <trkpt lat="43.42757" lon="-0.56889">
        <ele>184</ele>
        <time>2013-05-06T09:16:28Z</time>
      </trkpt>
      <trkpt lat="43.42759" lon="-0.56891">
        <ele>184</ele>
        <time>2013-05-06T09:16:29Z</time>
      </trkpt>
      <trkpt lat="43.4276" lon="-0.56892">
        <ele>185</ele>
        <time>2013-05-06T09:16:30Z</time>
      </trkpt>
      <trkpt lat="43.42761" lon="-0.56892">
        <ele>185</ele>
        <time>2013-05-06T09:16:31Z</time>
      </trkpt>
      <trkpt lat="43.42761" lon="-0.56892">
        <ele>185</ele>
        <time>2013-05-06T09:16:32Z</time>
      </trkpt>
      <trkpt lat="43.42762" lon="-0.56892">
        <ele>185</ele>
        <time>2013-05-06T09:16:33Z</time>
      </trkpt>
      <trkpt lat="43.42762" lon="-0.56892">
        <ele>185</ele>
        <time>2013-05-06T09:16:34Z</time>
      </trkpt>
      <trkpt lat="43.42763" lon="-0.56891">
        <ele>185</ele>
        <time>2013-05-06T09:16:35Z</time>
      </trkpt>
      <trkpt lat="43.42763" lon="-0.56891">
        <ele>185</ele>
        <time>2013-05-06T09:16:36Z</time>
      </trkpt>
      <trkpt lat="43.42763" lon="-0.56892">
        <ele>185</ele>
        <time>2013-05-06T09:16:37Z</time>
      </trkpt>
      <trkpt lat="43.42764" lon="-0.56893">
        <ele>186</ele>
        <time>2013-05-06T09:16:38Z</time>
      </trkpt>
      <trkpt lat="43.42764" lon="-0.56894">
        <ele>185</ele>
        <time>2013-05-06T09:16:39Z</time>
      </trkpt>
      <trkpt lat="43.42765" lon="-0.56895">
        <ele>185</ele>
        <time>2013-05-06T09:16:40Z</time>
      </trkpt>
      <trkpt lat="43.42765" lon="-0.56896">
        <ele>185</ele>
        <time>2013-05-06T09:16:41Z</time>
      </trkpt>
      <trkpt lat="43.42765" lon="-0.56897">
        <ele>185</ele>
        <time>2013-05-06T09:16:42Z</time>
      </trkpt>
      <trkpt lat="43.42765" lon="-0.56898">
        <ele>184</ele>
        <time>2013-05-06T09:16:43Z</time>
      </trkpt>
      <trkpt lat="43.42764" lon="-0.56898">
        <ele>182</ele>
        <time>2013-05-06T09:16:44Z</time>
      </trkpt>
      <trkpt lat="43.42764" lon="-0.56898">
        <ele>181</ele>
        <time>2013-05-06T09:16:45Z</time>
      </trkpt>
      <trkpt lat="43.42763" lon="-0.56897">
        <ele>180</ele>
        <time>2013-05-06T09:16:46Z</time>
      </trkpt>
      <trkpt lat="43.42763" lon="-0.56897">
        <ele>180</ele>
        <time>2013-05-06T09:16:47Z</time>
      </trkpt>
      <trkpt lat="43.42763" lon="-0.56896">
        <ele>180</ele>
        <time>2013-05-06T09:16:48Z</time>
      </trkpt>
      <trkpt lat="43.42762" lon="-0.56896">
        <ele>180</ele>
        <time>2013-05-06T09:16:49Z</time>
      </trkpt>
      <trkpt lat="43.42761" lon="-0.56895">
        <ele>180</ele>
        <time>2013-05-06T09:16:50Z</time>
      </trkpt>
      <trkpt lat="43.42761" lon="-0.56894">
        <ele>179</ele>
        <time>2013-05-06T09:16:51Z</time>
      </trkpt>
      <trkpt lat="43.4276" lon="-0.56894">
        <ele>180</ele>
        <time>2013-05-06T09:16:52Z</time>
      </trkpt>
      <trkpt lat="43.42759" lon="-0.56894">
        <ele>179</ele>
        <time>2013-05-06T09:16:53Z</time>
      </trkpt>
      <trkpt lat="43.42759" lon="-0.56894">
        <ele>179</ele>
        <time>2013-05-06T09:16:54Z</time>
      </trkpt>
      <trkpt lat="43.42759" lon="-0.56894">
        <ele>179</ele>
        <time>2013-05-06T09:16:55Z</time>
      </trkpt>
      <trkpt lat="43.42759" lon="-0.56896">
        <ele>179</ele>
        <time>2013-05-06T09:16:57Z</time>
      </trkpt>
      <trkpt lat="43.42759" lon="-0.56896">
        <ele>179</ele>
        <time>2013-05-06T09:16:58Z</time>
      </trkpt>
      <trkpt lat="43.42759" lon="-0.56896">
        <ele>178</ele>
        <time>2013-05-06T09:16:59Z</time>
      </trkpt>
      <trkpt lat="43.42759" lon="-0.56896">
        <ele>179</ele>
        <time>2013-05-06T09:17:00Z</time>
      </trkpt>
      <trkpt lat="43.42759" lon="-0.56896">
        <ele>180</ele>
        <time>2013-05-06T09:17:03Z</time>
      </trkpt>
      <trkpt lat="43.4276" lon="-0.56896">
        <ele>180</ele>
        <time>2013-05-06T09:17:04Z</time>
      </trkpt>
      <trkpt lat="43.4276" lon="-0.56896">
        <ele>180</ele>
        <time>2013-05-06T09:17:05Z</time>
      </trkpt>
      <trkpt lat="43.4276" lon="-0.56893">
        <ele>181</ele>
        <time>2013-05-06T09:17:08Z</time>
      </trkpt>
      <trkpt lat="43.4276" lon="-0.56892">
        <ele>180</ele>
        <time>2013-05-06T09:17:09Z</time>
      </trkpt>
      <trkpt lat="43.4276" lon="-0.56891">
        <ele>179</ele>
        <time>2013-05-06T09:17:10Z</time>
      </trkpt>
      <trkpt lat="43.4276" lon="-0.56891">
        <ele>181</ele>
        <time>2013-05-06T09:17:11Z</time>
      </trkpt>
      <trkpt lat="43.42761" lon="-0.56891">
        <ele>180</ele>
        <time>2013-05-06T09:17:12Z</time>
      </trkpt>
      <trkpt lat="43.42761" lon="-0.5689">
        <ele>180</ele>
        <time>2013-05-06T09:17:13Z</time>
      </trkpt>
      <trkpt lat="43.42762" lon="-0.5689">
        <ele>180</ele>
        <time>2013-05-06T09:17:14Z</time>
      </trkpt>
      <trkpt lat="43.42762" lon="-0.56889">
        <ele>181</ele>
        <time>2013-05-06T09:17:15Z</time>
      </trkpt>
      <trkpt lat="43.42762" lon="-0.56888">
        <ele>181</ele>
        <time>2013-05-06T09:17:16Z</time>
      </trkpt>
      <trkpt lat="43.42763" lon="-0.56887">
        <ele>182</ele>
        <time>2013-05-06T09:17:17Z</time>
      </trkpt>
      <trkpt lat="43.42763" lon="-0.56886">
        <ele>182</ele>
        <time>2013-05-06T09:17:18Z</time>
      </trkpt>
      <trkpt lat="43.42763" lon="-0.56886">
        <ele>182</ele>
        <time>2013-05-06T09:17:19Z</time>
      </trkpt>
      <trkpt lat="43.42763" lon="-0.56886">
        <ele>182</ele>
        <time>2013-05-06T09:17:20Z</time>
      </trkpt>
      <trkpt lat="43.42764" lon="-0.56886">
        <ele>183</ele>
        <time>2013-05-06T09:17:21Z</time>
      </trkpt>
      <trkpt lat="43.42765" lon="-0.56886">
        <ele>183</ele>
        <time>2013-05-06T09:17:22Z</time>
      </trkpt>
      <trkpt lat="43.42766" lon="-0.56887">
        <ele>184</ele>
        <time>2013-05-06T09:17:23Z</time>
      </trkpt>
      <trkpt lat="43.42767" lon="-0.56888">
        <ele>184</ele>
        <time>2013-05-06T09:17:24Z</time>
      </trkpt>
      <trkpt lat="43.42768" lon="-0.56889">
        <ele>185</ele>
        <time>2013-05-06T09:17:25Z</time>
      </trkpt>
      <trkpt lat="43.4277" lon="-0.5689">
        <ele>185</ele>
        <time>2013-05-06T09:17:26Z</time>
      </trkpt>
      <trkpt lat="43.42771" lon="-0.56891">
        <ele>184</ele>
        <time>2013-05-06T09:17:27Z</time>
      </trkpt>
      <trkpt lat="43.42772" lon="-0.5689">
        <ele>182</ele>
        <time>2013-05-06T09:17:28Z</time>
      </trkpt>
      <trkpt lat="43.42774" lon="-0.5689">
        <ele>181</ele>
        <time>2013-05-06T09:17:29Z</time>
      </trkpt>
      <trkpt lat="43.42775" lon="-0.56889">
        <ele>181</ele>
        <time>2013-05-06T09:17:30Z</time>
      </trkpt>
      <trkpt lat="43.42776" lon="-0.56888">
        <ele>181</ele>
        <time>2013-05-06T09:17:31Z</time>
      </trkpt>
      <trkpt lat="43.42778" lon="-0.56887">
        <ele>181</ele>
        <time>2013-05-06T09:17:32Z</time>
      </trkpt>
      <trkpt lat="43.42779" lon="-0.56887">
        <ele>181</ele>
        <time>2013-05-06T09:17:33Z</time>
      </trkpt>
      <trkpt lat="43.4278" lon="-0.56886">
        <ele>182</ele>
        <time>2013-05-06T09:17:34Z</time>
      </trkpt>
      <trkpt lat="43.42782" lon="-0.56885">
        <ele>181</ele>
        <time>2013-05-06T09:17:35Z</time>
      </trkpt>
      <trkpt lat="43.42784" lon="-0.56885">
        <ele>181</ele>
        <time>2013-05-06T09:17:36Z</time>
      </trkpt>
      <trkpt lat="43.42786" lon="-0.56884">
        <ele>180</ele>
        <time>2013-05-06T09:17:37Z</time>
      </trkpt>
      <trkpt lat="43.42788" lon="-0.56884">
        <ele>180</ele>
        <time>2013-05-06T09:17:38Z</time>
      </trkpt>
      <trkpt lat="43.42789" lon="-0.56883">
        <ele>179</ele>
        <time>2013-05-06T09:17:39Z</time>
      </trkpt>
      <trkpt lat="43.42791" lon="-0.56882">
        <ele>179</ele>
        <time>2013-05-06T09:17:40Z</time>
      </trkpt>
      <trkpt lat="43.42793" lon="-0.56881">
        <ele>178</ele>
        <time>2013-05-06T09:17:41Z</time>
      </trkpt>
      <trkpt lat="43.42794" lon="-0.5688">
        <ele>178</ele>
        <time>2013-05-06T09:17:42Z</time>
      </trkpt>
      <trkpt lat="43.42796" lon="-0.56878">
        <ele>177</ele>
        <time>2013-05-06T09:17:43Z</time>
      </trkpt>
      <trkpt lat="43.42798" lon="-0.56877">
        <ele>173</ele>
        <time>2013-05-06T09:17:44Z</time>
      </trkpt>
      <trkpt lat="43.428" lon="-0.56876">
        <ele>172</ele>
        <time>2013-05-06T09:17:45Z</time>
      </trkpt>
      <trkpt lat="43.42802" lon="-0.56875">
        <ele>172</ele>
        <time>2013-05-06T09:17:46Z</time>
      </trkpt>
      <trkpt lat="43.42804" lon="-0.56874">
        <ele>171</ele>
        <time>2013-05-06T09:17:47Z</time>
      </trkpt>
      <trkpt lat="43.42807" lon="-0.56873">
        <ele>169</ele>
        <time>2013-05-06T09:17:48Z</time>
      </trkpt>
      <trkpt lat="43.42809" lon="-0.56873">
        <ele>168</ele>
        <time>2013-05-06T09:17:49Z</time>
      </trkpt>
      <trkpt lat="43.42812" lon="-0.56872">
        <ele>168</ele>
        <time>2013-05-06T09:17:50Z</time>
      </trkpt>
      <trkpt lat="43.42814" lon="-0.5687">
        <ele>168</ele>
        <time>2013-05-06T09:17:51Z</time>
      </trkpt>
      <trkpt lat="43.42817" lon="-0.56869">
        <ele>168</ele>
        <time>2013-05-06T09:17:52Z</time>
      </trkpt>
      <trkpt lat="43.42819" lon="-0.56868">
        <ele>167</ele>
        <time>2013-05-06T09:17:53Z</time>
      </trkpt>
      <trkpt lat="43.42821" lon="-0.56867">
        <ele>166</ele>
        <time>2013-05-06T09:17:54Z</time>
      </trkpt>
      <trkpt lat="43.42823" lon="-0.56867">
        <ele>167</ele>
        <time>2013-05-06T09:17:55Z</time>
      </trkpt>
      <trkpt lat="43.42824" lon="-0.56866">
        <ele>166</ele>
        <time>2013-05-06T09:17:56Z</time>
      </trkpt>
      <trkpt lat="43.42825" lon="-0.56865">
        <ele>165</ele>
        <time>2013-05-06T09:17:57Z</time>
      </trkpt>
      <trkpt lat="43.42826" lon="-0.56863">
        <ele>165</ele>
        <time>2013-05-06T09:17:58Z</time>
      </trkpt>
      <trkpt lat="43.42827" lon="-0.56861">
        <ele>165</ele>
        <time>2013-05-06T09:17:59Z</time>
      </trkpt>
      <trkpt lat="43.42828" lon="-0.5686">
        <ele>165</ele>
        <time>2013-05-06T09:18:00Z</time>
      </trkpt>
      <trkpt lat="43.4283" lon="-0.56858">
        <ele>165</ele>
        <time>2013-05-06T09:18:01Z</time>
      </trkpt>
      <trkpt lat="43.42831" lon="-0.56856">
        <ele>166</ele>
        <time>2013-05-06T09:18:02Z</time>
      </trkpt>
      <trkpt lat="43.42834" lon="-0.56855">
        <ele>166</ele>
        <time>2013-05-06T09:18:03Z</time>
      </trkpt>
      <trkpt lat="43.42836" lon="-0.56855">
        <ele>166</ele>
        <time>2013-05-06T09:18:04Z</time>
      </trkpt>
      <trkpt lat="43.42837" lon="-0.56855">
        <ele>165</ele>
        <time>2013-05-06T09:18:05Z</time>
      </trkpt>
      <trkpt lat="43.42838" lon="-0.56855">
        <ele>166</ele>
        <time>2013-05-06T09:18:06Z</time>
      </trkpt>
      <trkpt lat="43.42839" lon="-0.56855">
        <ele>166</ele>
        <time>2013-05-06T09:18:07Z</time>
      </trkpt>
      <trkpt lat="43.42841" lon="-0.56855">
        <ele>166</ele>
        <time>2013-05-06T09:18:08Z</time>
      </trkpt>
      <trkpt lat="43.42841" lon="-0.56855">
        <ele>166</ele>
        <time>2013-05-06T09:18:09Z</time>
      </trkpt>
      <trkpt lat="43.42842" lon="-0.56855">
        <ele>166</ele>
        <time>2013-05-06T09:18:10Z</time>
      </trkpt>
      <trkpt lat="43.42843" lon="-0.56855">
        <ele>167</ele>
        <time>2013-05-06T09:18:11Z</time>
      </trkpt>
      <trkpt lat="43.42844" lon="-0.56854">
        <ele>169</ele>
        <time>2013-05-06T09:18:12Z</time>
      </trkpt>
      <trkpt lat="43.42845" lon="-0.56853">
        <ele>170</ele>
        <time>2013-05-06T09:18:13Z</time>
      </trkpt>
      <trkpt lat="43.42847" lon="-0.56852">
        <ele>170</ele>
        <time>2013-05-06T09:18:14Z</time>
      </trkpt>
      <trkpt lat="43.42849" lon="-0.56851">
        <ele>167</ele>
        <time>2013-05-06T09:18:15Z</time>
      </trkpt>
      <trkpt lat="43.42851" lon="-0.5685">
        <ele>167</ele>
        <time>2013-05-06T09:18:16Z</time>
      </trkpt>
      <trkpt lat="43.42854" lon="-0.56849">
        <ele>167</ele>
        <time>2013-05-06T09:18:17Z</time>
      </trkpt>
      <trkpt lat="43.42856" lon="-0.56848">
        <ele>167</ele>
        <time>2013-05-06T09:18:18Z</time>
      </trkpt>
      <trkpt lat="43.42857" lon="-0.56848">
        <ele>165</ele>
        <time>2013-05-06T09:18:19Z</time>
      </trkpt>
      <trkpt lat="43.42859" lon="-0.56847">
        <ele>164</ele>
        <time>2013-05-06T09:18:20Z</time>
      </trkpt>
      <trkpt lat="43.42861" lon="-0.56847">
        <ele>164</ele>
        <time>2013-05-06T09:18:21Z</time>
      </trkpt>
      <trkpt lat="43.42863" lon="-0.56847">
        <ele>162</ele>
        <time>2013-05-06T09:18:22Z</time>
      </trkpt>
      <trkpt lat="43.42865" lon="-0.56846">
        <ele>162</ele>
        <time>2013-05-06T09:18:23Z</time>
      </trkpt>
      <trkpt lat="43.42867" lon="-0.56846">
        <ele>162</ele>
        <time>2013-05-06T09:18:24Z</time>
      </trkpt>
      <trkpt lat="43.42868" lon="-0.56845">
        <ele>162</ele>
        <time>2013-05-06T09:18:25Z</time>
      </trkpt>
      <trkpt lat="43.42871" lon="-0.56845">
        <ele>163</ele>
        <time>2013-05-06T09:18:26Z</time>
      </trkpt>
      <trkpt lat="43.42873" lon="-0.56845">
        <ele>162</ele>
        <time>2013-05-06T09:18:27Z</time>
      </trkpt>
      <trkpt lat="43.42876" lon="-0.56845">
        <ele>162</ele>
        <time>2013-05-06T09:18:28Z</time>
      </trkpt>
      <trkpt lat="43.42878" lon="-0.56845">
        <ele>161</ele>
        <time>2013-05-06T09:18:29Z</time>
      </trkpt>
      <trkpt lat="43.4288" lon="-0.56847">
        <ele>160</ele>
        <time>2013-05-06T09:18:30Z</time>
      </trkpt>
      <trkpt lat="43.42881" lon="-0.5685">
        <ele>159</ele>
        <time>2013-05-06T09:18:31Z</time>
      </trkpt>
      <trkpt lat="43.42883" lon="-0.56851">
        <ele>158</ele>
        <time>2013-05-06T09:18:32Z</time>
      </trkpt>
      <trkpt lat="43.42884" lon="-0.56852">
        <ele>158</ele>
        <time>2013-05-06T09:18:33Z</time>
      </trkpt>
      <trkpt lat="43.42884" lon="-0.56853">
        <ele>157</ele>
        <time>2013-05-06T09:18:34Z</time>
      </trkpt>
      <trkpt lat="43.42886" lon="-0.56854">
        <ele>157</ele>
        <time>2013-05-06T09:18:35Z</time>
      </trkpt>
      <trkpt lat="43.42888" lon="-0.56853">
        <ele>156</ele>
        <time>2013-05-06T09:18:36Z</time>
      </trkpt>
      <trkpt lat="43.42888" lon="-0.56853">
        <ele>154</ele>
        <time>2013-05-06T09:18:37Z</time>
      </trkpt>
      <trkpt lat="43.42889" lon="-0.56852">
        <ele>152</ele>
        <time>2013-05-06T09:18:38Z</time>
      </trkpt>
      <trkpt lat="43.42889" lon="-0.56851">
        <ele>152</ele>
        <time>2013-05-06T09:18:39Z</time>
      </trkpt>
      <trkpt lat="43.42889" lon="-0.56849">
        <ele>151</ele>
        <time>2013-05-06T09:18:40Z</time>
      </trkpt>
      <trkpt lat="43.42889" lon="-0.56847">
        <ele>150</ele>
        <time>2013-05-06T09:18:41Z</time>
      </trkpt>
      <trkpt lat="43.4289" lon="-0.56846">
        <ele>150</ele>
        <time>2013-05-06T09:18:42Z</time>
      </trkpt>
      <trkpt lat="43.4289" lon="-0.56845">
        <ele>149</ele>
        <time>2013-05-06T09:18:43Z</time>
      </trkpt>
      <trkpt lat="43.42891" lon="-0.56843">
        <ele>149</ele>
        <time>2013-05-06T09:18:44Z</time>
      </trkpt>
      <trkpt lat="43.42891" lon="-0.56842">
        <ele>149</ele>
        <time>2013-05-06T09:18:45Z</time>
      </trkpt>
      <trkpt lat="43.42892" lon="-0.56841">
        <ele>149</ele>
        <time>2013-05-06T09:18:46Z</time>
      </trkpt>
      <trkpt lat="43.42893" lon="-0.5684">
        <ele>149</ele>
        <time>2013-05-06T09:18:47Z</time>
      </trkpt>
      <trkpt lat="43.42893" lon="-0.56839">
        <ele>149</ele>
        <time>2013-05-06T09:18:48Z</time>
      </trkpt>
      <trkpt lat="43.42893" lon="-0.56835">
        <ele>150</ele>
        <time>2013-05-06T09:18:49Z</time>
      </trkpt>
      <trkpt lat="43.42894" lon="-0.56834">
        <ele>150</ele>
        <time>2013-05-06T09:18:50Z</time>
      </trkpt>
      <trkpt lat="43.42894" lon="-0.56829">
        <ele>150</ele>
        <time>2013-05-06T09:18:51Z</time>
      </trkpt>
      <trkpt lat="43.42895" lon="-0.56824">
        <ele>148</ele>
        <time>2013-05-06T09:18:52Z</time>
      </trkpt>
      <trkpt lat="43.42896" lon="-0.5682">
        <ele>148</ele>
        <time>2013-05-06T09:18:53Z</time>
      </trkpt>
      <trkpt lat="43.42898" lon="-0.56816">
        <ele>147</ele>
        <time>2013-05-06T09:18:54Z</time>
      </trkpt>
      <trkpt lat="43.429" lon="-0.56813">
        <ele>146</ele>
        <time>2013-05-06T09:18:55Z</time>
      </trkpt>
      <trkpt lat="43.42902" lon="-0.5681">
        <ele>145</ele>
        <time>2013-05-06T09:18:56Z</time>
      </trkpt>
      <trkpt lat="43.42905" lon="-0.56808">
        <ele>145</ele>
        <time>2013-05-06T09:18:57Z</time>
      </trkpt>
      <trkpt lat="43.42907" lon="-0.56805">
        <ele>144</ele>
        <time>2013-05-06T09:18:58Z</time>
      </trkpt>
      <trkpt lat="43.42909" lon="-0.56803">
        <ele>144</ele>
        <time>2013-05-06T09:18:59Z</time>
      </trkpt>
      <trkpt lat="43.42911" lon="-0.56801">
        <ele>142</ele>
        <time>2013-05-06T09:19:00Z</time>
      </trkpt>
      <trkpt lat="43.42913" lon="-0.56799">
        <ele>142</ele>
        <time>2013-05-06T09:19:01Z</time>
      </trkpt>
      <trkpt lat="43.42915" lon="-0.56798">
        <ele>141</ele>
        <time>2013-05-06T09:19:02Z</time>
      </trkpt>
      <trkpt lat="43.42917" lon="-0.56797">
        <ele>141</ele>
        <time>2013-05-06T09:19:03Z</time>
      </trkpt>
      <trkpt lat="43.4292" lon="-0.56795">
        <ele>141</ele>
        <time>2013-05-06T09:19:04Z</time>
      </trkpt>
      <trkpt lat="43.42922" lon="-0.56793">
        <ele>141</ele>
        <time>2013-05-06T09:19:05Z</time>
      </trkpt>
      <trkpt lat="43.42925" lon="-0.56791">
        <ele>141</ele>
        <time>2013-05-06T09:19:06Z</time>
      </trkpt>
      <trkpt lat="43.42927" lon="-0.56789">
        <ele>141</ele>
        <time>2013-05-06T09:19:07Z</time>
      </trkpt>
      <trkpt lat="43.42929" lon="-0.56787">
        <ele>141</ele>
        <time>2013-05-06T09:19:08Z</time>
      </trkpt>
      <trkpt lat="43.42931" lon="-0.56785">
        <ele>140</ele>
        <time>2013-05-06T09:19:09Z</time>
      </trkpt>
      <trkpt lat="43.42932" lon="-0.56783">
        <ele>139</ele>
        <time>2013-05-06T09:19:10Z</time>
      </trkpt>
      <trkpt lat="43.42933" lon="-0.56781">
        <ele>139</ele>
        <time>2013-05-06T09:19:11Z</time>
      </trkpt>
      <trkpt lat="43.42934" lon="-0.56779">
        <ele>139</ele>
        <time>2013-05-06T09:19:12Z</time>
      </trkpt>
      <trkpt lat="43.42935" lon="-0.56777">
        <ele>138</ele>
        <time>2013-05-06T09:19:13Z</time>
      </trkpt>
      <trkpt lat="43.42936" lon="-0.56776">
        <ele>138</ele>
        <time>2013-05-06T09:19:14Z</time>
      </trkpt>
      <trkpt lat="43.42938" lon="-0.56775">
        <ele>138</ele>
        <time>2013-05-06T09:19:15Z</time>
      </trkpt>
      <trkpt lat="43.42939" lon="-0.56773">
        <ele>137</ele>
        <time>2013-05-06T09:19:16Z</time>
      </trkpt>
      <trkpt lat="43.4294" lon="-0.56772">
        <ele>137</ele>
        <time>2013-05-06T09:19:17Z</time>
      </trkpt>
      <trkpt lat="43.42941" lon="-0.56771">
        <ele>136</ele>
        <time>2013-05-06T09:19:18Z</time>
      </trkpt>
      <trkpt lat="43.42942" lon="-0.5677">
        <ele>136</ele>
        <time>2013-05-06T09:19:19Z</time>
      </trkpt>
      <trkpt lat="43.42943" lon="-0.5677">
        <ele>137</ele>
        <time>2013-05-06T09:19:20Z</time>
      </trkpt>
      <trkpt lat="43.42944" lon="-0.56769">
        <ele>136</ele>
        <time>2013-05-06T09:19:21Z</time>
      </trkpt>
      <trkpt lat="43.42945" lon="-0.56768">
        <ele>136</ele>
        <time>2013-05-06T09:19:22Z</time>
      </trkpt>
      <trkpt lat="43.42945" lon="-0.56766">
        <ele>136</ele>
        <time>2013-05-06T09:19:23Z</time>
      </trkpt>
      <trkpt lat="43.42946" lon="-0.56765">
        <ele>137</ele>
        <time>2013-05-06T09:19:24Z</time>
      </trkpt>
      <trkpt lat="43.42946" lon="-0.56763">
        <ele>136</ele>
        <time>2013-05-06T09:19:25Z</time>
      </trkpt>
      <trkpt lat="43.42947" lon="-0.56762">
        <ele>136</ele>
        <time>2013-05-06T09:19:26Z</time>
      </trkpt>
      <trkpt lat="43.42948" lon="-0.56761">
        <ele>136</ele>
        <time>2013-05-06T09:19:27Z</time>
      </trkpt>
      <trkpt lat="43.42949" lon="-0.5676">
        <ele>136</ele>
        <time>2013-05-06T09:19:28Z</time>
      </trkpt>
      <trkpt lat="43.4295" lon="-0.5676">
        <ele>136</ele>
        <time>2013-05-06T09:19:29Z</time>
      </trkpt>
      <trkpt lat="43.42952" lon="-0.56759">
        <ele>137</ele>
        <time>2013-05-06T09:19:30Z</time>
      </trkpt>
      <trkpt lat="43.42954" lon="-0.56759">
        <ele>136</ele>
        <time>2013-05-06T09:19:31Z</time>
      </trkpt>
      <trkpt lat="43.42955" lon="-0.56759">
        <ele>136</ele>
        <time>2013-05-06T09:19:32Z</time>
      </trkpt>
      <trkpt lat="43.42957" lon="-0.56759">
        <ele>135</ele>
        <time>2013-05-06T09:19:33Z</time>
      </trkpt>
      <trkpt lat="43.42959" lon="-0.5676">
        <ele>136</ele>
        <time>2013-05-06T09:19:34Z</time>
      </trkpt>
      <trkpt lat="43.42961" lon="-0.56761">
        <ele>135</ele>
        <time>2013-05-06T09:19:35Z</time>
      </trkpt>
      <trkpt lat="43.42963" lon="-0.56762">
        <ele>135</ele>
        <time>2013-05-06T09:19:36Z</time>
      </trkpt>
      <trkpt lat="43.42965" lon="-0.56764">
        <ele>135</ele>
        <time>2013-05-06T09:19:37Z</time>
      </trkpt>
      <trkpt lat="43.42966" lon="-0.56765">
        <ele>135</ele>
        <time>2013-05-06T09:19:38Z</time>
      </trkpt>
      <trkpt lat="43.42968" lon="-0.56766">
        <ele>135</ele>
        <time>2013-05-06T09:19:39Z</time>
      </trkpt>
      <trkpt lat="43.42969" lon="-0.56767">
        <ele>134</ele>
        <time>2013-05-06T09:19:40Z</time>
      </trkpt>
      <trkpt lat="43.42969" lon="-0.56768">
        <ele>134</ele>
        <time>2013-05-06T09:19:41Z</time>
      </trkpt>
      <trkpt lat="43.4297" lon="-0.56769">
        <ele>134</ele>
        <time>2013-05-06T09:19:42Z</time>
      </trkpt>
      <trkpt lat="43.42971" lon="-0.5677">
        <ele>134</ele>
        <time>2013-05-06T09:19:43Z</time>
      </trkpt>
      <trkpt lat="43.42971" lon="-0.5677">
        <ele>135</ele>
        <time>2013-05-06T09:19:44Z</time>
      </trkpt>
      <trkpt lat="43.42972" lon="-0.56771">
        <ele>133</ele>
        <time>2013-05-06T09:19:45Z</time>
      </trkpt>
      <trkpt lat="43.42972" lon="-0.56771">
        <ele>133</ele>
        <time>2013-05-06T09:19:46Z</time>
      </trkpt>
      <trkpt lat="43.42973" lon="-0.56772">
        <ele>134</ele>
        <time>2013-05-06T09:19:47Z</time>
      </trkpt>
      <trkpt lat="43.42973" lon="-0.56772">
        <ele>133</ele>
        <time>2013-05-06T09:19:48Z</time>
      </trkpt>
      <trkpt lat="43.42974" lon="-0.56773">
        <ele>133</ele>
        <time>2013-05-06T09:19:49Z</time>
      </trkpt>
      <trkpt lat="43.42975" lon="-0.56773">
        <ele>131</ele>
        <time>2013-05-06T09:19:50Z</time>
      </trkpt>
      <trkpt lat="43.42975" lon="-0.56774">
        <ele>131</ele>
        <time>2013-05-06T09:19:51Z</time>
      </trkpt>
      <trkpt lat="43.42975" lon="-0.56774">
        <ele>130</ele>
        <time>2013-05-06T09:19:52Z</time>
      </trkpt>
      <trkpt lat="43.42976" lon="-0.56774">
        <ele>130</ele>
        <time>2013-05-06T09:19:53Z</time>
      </trkpt>
      <trkpt lat="43.42976" lon="-0.56775">
        <ele>130</ele>
        <time>2013-05-06T09:19:54Z</time>
      </trkpt>
      <trkpt lat="43.42978" lon="-0.56772">
        <ele>129</ele>
        <time>2013-05-06T09:20:01Z</time>
      </trkpt>
      <trkpt lat="43.42979" lon="-0.56772">
        <ele>130</ele>
        <time>2013-05-06T09:20:02Z</time>
      </trkpt>
      <trkpt lat="43.4298" lon="-0.56772">
        <ele>130</ele>
        <time>2013-05-06T09:20:03Z</time>
      </trkpt>
      <trkpt lat="43.42981" lon="-0.56772">
        <ele>130</ele>
        <time>2013-05-06T09:20:04Z</time>
      </trkpt>
      <trkpt lat="43.42981" lon="-0.56772">
        <ele>130</ele>
        <time>2013-05-06T09:20:05Z</time>
      </trkpt>
      <trkpt lat="43.42982" lon="-0.56773">
        <ele>131</ele>
        <time>2013-05-06T09:20:06Z</time>
      </trkpt>
      <trkpt lat="43.42983" lon="-0.56773">
        <ele>131</ele>
        <time>2013-05-06T09:20:07Z</time>
      </trkpt>
      <trkpt lat="43.42984" lon="-0.56774">
        <ele>132</ele>
        <time>2013-05-06T09:20:08Z</time>
      </trkpt>
      <trkpt lat="43.42984" lon="-0.56774">
        <ele>132</ele>
        <time>2013-05-06T09:20:09Z</time>
      </trkpt>
      <trkpt lat="43.42984" lon="-0.56773">
        <ele>130</ele>
        <time>2013-05-06T09:20:10Z</time>
      </trkpt>
      <trkpt lat="43.42984" lon="-0.56772">
        <ele>130</ele>
        <time>2013-05-06T09:20:11Z</time>
      </trkpt>
      <trkpt lat="43.42984" lon="-0.56772">
        <ele>129</ele>
        <time>2013-05-06T09:20:12Z</time>
      </trkpt>
      <trkpt lat="43.42983" lon="-0.56771">
        <ele>128</ele>
        <time>2013-05-06T09:20:13Z</time>
      </trkpt>
      <trkpt lat="43.42983" lon="-0.56771">
        <ele>127</ele>
        <time>2013-05-06T09:20:14Z</time>
      </trkpt>
      <trkpt lat="43.42983" lon="-0.5677">
        <ele>127</ele>
        <time>2013-05-06T09:20:15Z</time>
      </trkpt>
      <trkpt lat="43.42983" lon="-0.56769">
        <ele>127</ele>
        <time>2013-05-06T09:20:16Z</time>
      </trkpt>
      <trkpt lat="43.42984" lon="-0.56768">
        <ele>128</ele>
        <time>2013-05-06T09:20:17Z</time>
      </trkpt>
      <trkpt lat="43.42984" lon="-0.56767">
        <ele>129</ele>
        <time>2013-05-06T09:20:18Z</time>
      </trkpt>
      <trkpt lat="43.42985" lon="-0.56767">
        <ele>130</ele>
        <time>2013-05-06T09:20:19Z</time>
      </trkpt>
      <trkpt lat="43.42985" lon="-0.56766">
        <ele>129</ele>
        <time>2013-05-06T09:20:20Z</time>
      </trkpt>
      <trkpt lat="43.42986" lon="-0.56766">
        <ele>130</ele>
        <time>2013-05-06T09:20:21Z</time>
      </trkpt>
      <trkpt lat="43.42987" lon="-0.56767">
        <ele>130</ele>
        <time>2013-05-06T09:20:22Z</time>
      </trkpt>
      <trkpt lat="43.42987" lon="-0.56767">
        <ele>130</ele>
        <time>2013-05-06T09:20:23Z</time>
      </trkpt>
      <trkpt lat="43.42987" lon="-0.56766">
        <ele>130</ele>
        <time>2013-05-06T09:20:24Z</time>
      </trkpt>
      <trkpt lat="43.42988" lon="-0.56766">
        <ele>130</ele>
        <time>2013-05-06T09:20:25Z</time>
      </trkpt>
      <trkpt lat="43.42988" lon="-0.56765">
        <ele>129</ele>
        <time>2013-05-06T09:20:26Z</time>
      </trkpt>
      <trkpt lat="43.42989" lon="-0.56764">
        <ele>129</ele>
        <time>2013-05-06T09:20:27Z</time>
      </trkpt>
      <trkpt lat="43.42991" lon="-0.56762">
        <ele>129</ele>
        <time>2013-05-06T09:20:28Z</time>
      </trkpt>
      <trkpt lat="43.42992" lon="-0.56761">
        <ele>129</ele>
        <time>2013-05-06T09:20:29Z</time>
      </trkpt>
      <trkpt lat="43.42993" lon="-0.5676">
        <ele>129</ele>
        <time>2013-05-06T09:20:30Z</time>
      </trkpt>
      <trkpt lat="43.42994" lon="-0.56758">
        <ele>128</ele>
        <time>2013-05-06T09:20:31Z</time>
      </trkpt>
      <trkpt lat="43.42995" lon="-0.56757">
        <ele>129</ele>
        <time>2013-05-06T09:20:32Z</time>
      </trkpt>
      <trkpt lat="43.42996" lon="-0.56755">
        <ele>129</ele>
        <time>2013-05-06T09:20:33Z</time>
      </trkpt>
      <trkpt lat="43.42997" lon="-0.56754">
        <ele>128</ele>
        <time>2013-05-06T09:20:34Z</time>
      </trkpt>
      <trkpt lat="43.42998" lon="-0.56753">
        <ele>128</ele>
        <time>2013-05-06T09:20:35Z</time>
      </trkpt>
      <trkpt lat="43.42999" lon="-0.56753">
        <ele>128</ele>
        <time>2013-05-06T09:20:36Z</time>
      </trkpt>
      <trkpt lat="43.42999" lon="-0.56752">
        <ele>128</ele>
        <time>2013-05-06T09:20:37Z</time>
      </trkpt>
      <trkpt lat="43.43" lon="-0.56751">
        <ele>128</ele>
        <time>2013-05-06T09:20:38Z</time>
      </trkpt>
      <trkpt lat="43.43001" lon="-0.56751">
        <ele>128</ele>
        <time>2013-05-06T09:20:39Z</time>
      </trkpt>
      <trkpt lat="43.43002" lon="-0.5675">
        <ele>127</ele>
        <time>2013-05-06T09:20:40Z</time>
      </trkpt>
      <trkpt lat="43.43004" lon="-0.56749">
        <ele>129</ele>
        <time>2013-05-06T09:20:41Z</time>
      </trkpt>
      <trkpt lat="43.43004" lon="-0.56749">
        <ele>129</ele>
        <time>2013-05-06T09:20:42Z</time>
      </trkpt>
      <trkpt lat="43.43005" lon="-0.56748">
        <ele>129</ele>
        <time>2013-05-06T09:20:43Z</time>
      </trkpt>
      <trkpt lat="43.43006" lon="-0.56747">
        <ele>128</ele>
        <time>2013-05-06T09:20:44Z</time>
      </trkpt>
      <trkpt lat="43.43007" lon="-0.56747">
        <ele>130</ele>
        <time>2013-05-06T09:20:45Z</time>
      </trkpt>
      <trkpt lat="43.43008" lon="-0.56746">
        <ele>130</ele>
        <time>2013-05-06T09:20:46Z</time>
      </trkpt>
      <trkpt lat="43.4301" lon="-0.56746">
        <ele>130</ele>
        <time>2013-05-06T09:20:47Z</time>
      </trkpt>
      <trkpt lat="43.43011" lon="-0.56746">
        <ele>130</ele>
        <time>2013-05-06T09:20:48Z</time>
      </trkpt>
      <trkpt lat="43.43012" lon="-0.56746">
        <ele>130</ele>
        <time>2013-05-06T09:20:49Z</time>
      </trkpt>
      <trkpt lat="43.43013" lon="-0.56745">
        <ele>130</ele>
        <time>2013-05-06T09:20:50Z</time>
      </trkpt>
      <trkpt lat="43.43014" lon="-0.56744">
        <ele>130</ele>
        <time>2013-05-06T09:20:51Z</time>
      </trkpt>
      <trkpt lat="43.43015" lon="-0.56743">
        <ele>129</ele>
        <time>2013-05-06T09:20:52Z</time>
      </trkpt>
      <trkpt lat="43.43016" lon="-0.56743">
        <ele>130</ele>
        <time>2013-05-06T09:20:53Z</time>
      </trkpt>
      <trkpt lat="43.43017" lon="-0.56742">
        <ele>130</ele>
        <time>2013-05-06T09:20:54Z</time>
      </trkpt>
      <trkpt lat="43.43018" lon="-0.5674">
        <ele>130</ele>
        <time>2013-05-06T09:20:55Z</time>
      </trkpt>
      <trkpt lat="43.4302" lon="-0.56739">
        <ele>130</ele>
        <time>2013-05-06T09:20:56Z</time>
      </trkpt>
      <trkpt lat="43.43021" lon="-0.56738">
        <ele>130</ele>
        <time>2013-05-06T09:20:57Z</time>
      </trkpt>
      <trkpt lat="43.43023" lon="-0.56736">
        <ele>129</ele>
        <time>2013-05-06T09:20:58Z</time>
      </trkpt>
      <trkpt lat="43.43025" lon="-0.56734">
        <ele>130</ele>
        <time>2013-05-06T09:20:59Z</time>
      </trkpt>
      <trkpt lat="43.43026" lon="-0.56733">
        <ele>129</ele>
        <time>2013-05-06T09:21:00Z</time>
      </trkpt>
      <trkpt lat="43.43028" lon="-0.56732">
        <ele>130</ele>
        <time>2013-05-06T09:21:01Z</time>
      </trkpt>
      <trkpt lat="43.4303" lon="-0.56733">
        <ele>130</ele>
        <time>2013-05-06T09:21:02Z</time>
      </trkpt>
      <trkpt lat="43.43032" lon="-0.56734">
        <ele>131</ele>
        <time>2013-05-06T09:21:03Z</time>
      </trkpt>
      <trkpt lat="43.43034" lon="-0.56736">
        <ele>131</ele>
        <time>2013-05-06T09:21:04Z</time>
      </trkpt>
      <trkpt lat="43.43036" lon="-0.56739">
        <ele>131</ele>
        <time>2013-05-06T09:21:05Z</time>
      </trkpt>
      <trkpt lat="43.43038" lon="-0.56741">
        <ele>130</ele>
        <time>2013-05-06T09:21:06Z</time>
      </trkpt>
      <trkpt lat="43.43041" lon="-0.56744">
        <ele>130</ele>
        <time>2013-05-06T09:21:07Z</time>
      </trkpt>
      <trkpt lat="43.43044" lon="-0.56749">
        <ele>130</ele>
        <time>2013-05-06T09:21:08Z</time>
      </trkpt>
      <trkpt lat="43.43045" lon="-0.56752">
        <ele>130</ele>
        <time>2013-05-06T09:21:09Z</time>
      </trkpt>
      <trkpt lat="43.43046" lon="-0.56754">
        <ele>130</ele>
        <time>2013-05-06T09:21:10Z</time>
      </trkpt>
      <trkpt lat="43.43048" lon="-0.56755">
        <ele>130</ele>
        <time>2013-05-06T09:21:11Z</time>
      </trkpt>
      <trkpt lat="43.43049" lon="-0.56755">
        <ele>130</ele>
        <time>2013-05-06T09:21:12Z</time>
      </trkpt>
      <trkpt lat="43.4305" lon="-0.56754">
        <ele>130</ele>
        <time>2013-05-06T09:21:13Z</time>
      </trkpt>
      <trkpt lat="43.43052" lon="-0.56754">
        <ele>130</ele>
        <time>2013-05-06T09:21:14Z</time>
      </trkpt>
      <trkpt lat="43.43053" lon="-0.56754">
        <ele>131</ele>
        <time>2013-05-06T09:21:15Z</time>
      </trkpt>
      <trkpt lat="43.43055" lon="-0.56754">
        <ele>130</ele>
        <time>2013-05-06T09:21:16Z</time>
      </trkpt>
      <trkpt lat="43.43057" lon="-0.56755">
        <ele>130</ele>
        <time>2013-05-06T09:21:17Z</time>
      </trkpt>
      <trkpt lat="43.43058" lon="-0.56757">
        <ele>130</ele>
        <time>2013-05-06T09:21:18Z</time>
      </trkpt>
      <trkpt lat="43.43059" lon="-0.56758">
        <ele>129</ele>
        <time>2013-05-06T09:21:19Z</time>
      </trkpt>
      <trkpt lat="43.4306" lon="-0.56759">
        <ele>130</ele>
        <time>2013-05-06T09:21:20Z</time>
      </trkpt>
      <trkpt lat="43.43061" lon="-0.56761">
        <ele>129</ele>
        <time>2013-05-06T09:21:21Z</time>
      </trkpt>
      <trkpt lat="43.43062" lon="-0.56762">
        <ele>129</ele>
        <time>2013-05-06T09:21:22Z</time>
      </trkpt>
      <trkpt lat="43.43064" lon="-0.56764">
        <ele>129</ele>
        <time>2013-05-06T09:21:23Z</time>
      </trkpt>
      <trkpt lat="43.43066" lon="-0.56767">
        <ele>129</ele>
        <time>2013-05-06T09:21:24Z</time>
      </trkpt>
      <trkpt lat="43.43068" lon="-0.56769">
        <ele>129</ele>
        <time>2013-05-06T09:21:25Z</time>
      </trkpt>
      <trkpt lat="43.4307" lon="-0.56772">
        <ele>128</ele>
        <time>2013-05-06T09:21:26Z</time>
      </trkpt>
      <trkpt lat="43.43072" lon="-0.56774">
        <ele>128</ele>
        <time>2013-05-06T09:21:27Z</time>
      </trkpt>
      <trkpt lat="43.43074" lon="-0.56777">
        <ele>128</ele>
        <time>2013-05-06T09:21:28Z</time>
      </trkpt>
      <trkpt lat="43.43077" lon="-0.56779">
        <ele>128</ele>
        <time>2013-05-06T09:21:29Z</time>
      </trkpt>
      <trkpt lat="43.43079" lon="-0.5678">
        <ele>127</ele>
        <time>2013-05-06T09:21:30Z</time>
      </trkpt>
      <trkpt lat="43.43081" lon="-0.56782">
        <ele>127</ele>
        <time>2013-05-06T09:21:31Z</time>
      </trkpt>
      <trkpt lat="43.43083" lon="-0.56783">
        <ele>127</ele>
        <time>2013-05-06T09:21:32Z</time>
      </trkpt>
      <trkpt lat="43.43085" lon="-0.56783">
        <ele>127</ele>
        <time>2013-05-06T09:21:33Z</time>
      </trkpt>
      <trkpt lat="43.43087" lon="-0.56784">
        <ele>128</ele>
        <time>2013-05-06T09:21:34Z</time>
      </trkpt>
      <trkpt lat="43.4309" lon="-0.56783">
        <ele>128</ele>
        <time>2013-05-06T09:21:35Z</time>
      </trkpt>
      <trkpt lat="43.43092" lon="-0.56783">
        <ele>126</ele>
        <time>2013-05-06T09:21:36Z</time>
      </trkpt>
      <trkpt lat="43.43095" lon="-0.56783">
        <ele>124</ele>
        <time>2013-05-06T09:21:37Z</time>
      </trkpt>
      <trkpt lat="43.43098" lon="-0.56783">
        <ele>125</ele>
        <time>2013-05-06T09:21:38Z</time>
      </trkpt>
      <trkpt lat="43.431" lon="-0.56784">
        <ele>124</ele>
        <time>2013-05-06T09:21:39Z</time>
      </trkpt>
      <trkpt lat="43.43103" lon="-0.56784">
        <ele>123</ele>
        <time>2013-05-06T09:21:40Z</time>
      </trkpt>
      <trkpt lat="43.43106" lon="-0.56785">
        <ele>123</ele>
        <time>2013-05-06T09:21:41Z</time>
      </trkpt>
      <trkpt lat="43.43108" lon="-0.56786">
        <ele>122</ele>
        <time>2013-05-06T09:21:42Z</time>
      </trkpt>
      <trkpt lat="43.43111" lon="-0.56787">
        <ele>121</ele>
        <time>2013-05-06T09:21:43Z</time>
      </trkpt>
      <trkpt lat="43.43113" lon="-0.56788">
        <ele>123</ele>
        <time>2013-05-06T09:21:44Z</time>
      </trkpt>
      <trkpt lat="43.43115" lon="-0.56789">
        <ele>123</ele>
        <time>2013-05-06T09:21:45Z</time>
      </trkpt>
      <trkpt lat="43.43118" lon="-0.5679">
        <ele>125</ele>
        <time>2013-05-06T09:21:46Z</time>
      </trkpt>
      <trkpt lat="43.43119" lon="-0.56792">
        <ele>125</ele>
        <time>2013-05-06T09:21:47Z</time>
      </trkpt>
      <trkpt lat="43.43121" lon="-0.56794">
        <ele>127</ele>
        <time>2013-05-06T09:21:48Z</time>
      </trkpt>
      <trkpt lat="43.43123" lon="-0.56795">
        <ele>129</ele>
        <time>2013-05-06T09:21:49Z</time>
      </trkpt>
      <trkpt lat="43.43126" lon="-0.56797">
        <ele>129</ele>
        <time>2013-05-06T09:21:50Z</time>
      </trkpt>
      <trkpt lat="43.43128" lon="-0.56798">
        <ele>130</ele>
        <time>2013-05-06T09:21:51Z</time>
      </trkpt>
      <trkpt lat="43.4313" lon="-0.56798">
        <ele>129</ele>
        <time>2013-05-06T09:21:52Z</time>
      </trkpt>
      <trkpt lat="43.43132" lon="-0.56797">
        <ele>130</ele>
        <time>2013-05-06T09:21:53Z</time>
      </trkpt>
      <trkpt lat="43.43134" lon="-0.56796">
        <ele>130</ele>
        <time>2013-05-06T09:21:54Z</time>
      </trkpt>
      <trkpt lat="43.43137" lon="-0.56794">
        <ele>132</ele>
        <time>2013-05-06T09:21:55Z</time>
      </trkpt>
      <trkpt lat="43.43139" lon="-0.56792">
        <ele>133</ele>
        <time>2013-05-06T09:21:56Z</time>
      </trkpt>
      <trkpt lat="43.43142" lon="-0.5679">
        <ele>133</ele>
        <time>2013-05-06T09:21:57Z</time>
      </trkpt>
      <trkpt lat="43.43142" lon="-0.56789">
        <ele>132</ele>
        <time>2013-05-06T09:21:58Z</time>
      </trkpt>
      <trkpt lat="43.43143" lon="-0.56788">
        <ele>133</ele>
        <time>2013-05-06T09:21:59Z</time>
      </trkpt>
      <trkpt lat="43.43144" lon="-0.56787">
        <ele>133</ele>
        <time>2013-05-06T09:22:00Z</time>
      </trkpt>
      <trkpt lat="43.43144" lon="-0.56783">
        <ele>134</ele>
        <time>2013-05-06T09:22:01Z</time>
      </trkpt>
      <trkpt lat="43.43145" lon="-0.56779">
        <ele>136</ele>
        <time>2013-05-06T09:22:02Z</time>
      </trkpt>
      <trkpt lat="43.43147" lon="-0.56776">
        <ele>136</ele>
        <time>2013-05-06T09:22:03Z</time>
      </trkpt>
      <trkpt lat="43.43149" lon="-0.56775">
        <ele>135</ele>
        <time>2013-05-06T09:22:04Z</time>
      </trkpt>
      <trkpt lat="43.43152" lon="-0.56775">
        <ele>135</ele>
        <time>2013-05-06T09:22:05Z</time>
      </trkpt>
      <trkpt lat="43.43155" lon="-0.56776">
        <ele>135</ele>
        <time>2013-05-06T09:22:06Z</time>
      </trkpt>
      <trkpt lat="43.43159" lon="-0.5678">
        <ele>135</ele>
        <time>2013-05-06T09:22:07Z</time>
      </trkpt>
      <trkpt lat="43.43161" lon="-0.56781">
        <ele>136</ele>
        <time>2013-05-06T09:22:08Z</time>
      </trkpt>
      <trkpt lat="43.43163" lon="-0.56781">
        <ele>136</ele>
        <time>2013-05-06T09:22:09Z</time>
      </trkpt>
      <trkpt lat="43.43165" lon="-0.5678">
        <ele>136</ele>
        <time>2013-05-06T09:22:10Z</time>
      </trkpt>
      <trkpt lat="43.43166" lon="-0.5678">
        <ele>136</ele>
        <time>2013-05-06T09:22:11Z</time>
      </trkpt>
      <trkpt lat="43.43166" lon="-0.56781">
        <ele>135</ele>
        <time>2013-05-06T09:22:12Z</time>
      </trkpt>
      <trkpt lat="43.43167" lon="-0.5678">
        <ele>134</ele>
        <time>2013-05-06T09:22:13Z</time>
      </trkpt>
      <trkpt lat="43.43168" lon="-0.56781">
        <ele>133</ele>
        <time>2013-05-06T09:22:14Z</time>
      </trkpt>
      <trkpt lat="43.43167" lon="-0.56783">
        <ele>132</ele>
        <time>2013-05-06T09:22:15Z</time>
      </trkpt>
      <trkpt lat="43.43167" lon="-0.56785">
        <ele>132</ele>
        <time>2013-05-06T09:22:16Z</time>
      </trkpt>
      <trkpt lat="43.43167" lon="-0.56787">
        <ele>133</ele>
        <time>2013-05-06T09:22:17Z</time>
      </trkpt>
      <trkpt lat="43.43167" lon="-0.56788">
        <ele>132</ele>
        <time>2013-05-06T09:22:18Z</time>
      </trkpt>
      <trkpt lat="43.43168" lon="-0.56789">
        <ele>131</ele>
        <time>2013-05-06T09:22:19Z</time>
      </trkpt>
      <trkpt lat="43.43168" lon="-0.5679">
        <ele>131</ele>
        <time>2013-05-06T09:22:20Z</time>
      </trkpt>
      <trkpt lat="43.43169" lon="-0.5679">
        <ele>131</ele>
        <time>2013-05-06T09:22:21Z</time>
      </trkpt>
      <trkpt lat="43.43169" lon="-0.5679">
        <ele>131</ele>
        <time>2013-05-06T09:22:22Z</time>
      </trkpt>
      <trkpt lat="43.43169" lon="-0.5679">
        <ele>131</ele>
        <time>2013-05-06T09:22:23Z</time>
      </trkpt>
      <trkpt lat="43.4317" lon="-0.5679">
        <ele>131</ele>
        <time>2013-05-06T09:22:24Z</time>
      </trkpt>
      <trkpt lat="43.4317" lon="-0.5679">
        <ele>131</ele>
        <time>2013-05-06T09:22:25Z</time>
      </trkpt>
      <trkpt lat="43.43171" lon="-0.56791">
        <ele>130</ele>
        <time>2013-05-06T09:22:26Z</time>
      </trkpt>
      <trkpt lat="43.43172" lon="-0.5679">
        <ele>130</ele>
        <time>2013-05-06T09:22:27Z</time>
      </trkpt>
      <trkpt lat="43.43173" lon="-0.56791">
        <ele>130</ele>
        <time>2013-05-06T09:22:28Z</time>
      </trkpt>
      <trkpt lat="43.43174" lon="-0.5679">
        <ele>131</ele>
        <time>2013-05-06T09:22:29Z</time>
      </trkpt>
      <trkpt lat="43.43174" lon="-0.5679">
        <ele>130</ele>
        <time>2013-05-06T09:22:30Z</time>
      </trkpt>
      <trkpt lat="43.43174" lon="-0.56789">
        <ele>131</ele>
        <time>2013-05-06T09:22:31Z</time>
      </trkpt>
      <trkpt lat="43.43174" lon="-0.56788">
        <ele>132</ele>
        <time>2013-05-06T09:22:32Z</time>
      </trkpt>
      <trkpt lat="43.43174" lon="-0.56787">
        <ele>133</ele>
        <time>2013-05-06T09:22:33Z</time>
      </trkpt>
      <trkpt lat="43.43174" lon="-0.56787">
        <ele>131</ele>
        <time>2013-05-06T09:22:34Z</time>
      </trkpt>
      <trkpt lat="43.43174" lon="-0.56786">
        <ele>131</ele>
        <time>2013-05-06T09:22:35Z</time>
      </trkpt>
      <trkpt lat="43.43175" lon="-0.56786">
        <ele>130</ele>
        <time>2013-05-06T09:22:36Z</time>
      </trkpt>
      <trkpt lat="43.43176" lon="-0.56786">
        <ele>130</ele>
        <time>2013-05-06T09:22:37Z</time>
      </trkpt>
      <trkpt lat="43.43177" lon="-0.56785">
        <ele>129</ele>
        <time>2013-05-06T09:22:38Z</time>
      </trkpt>
      <trkpt lat="43.43179" lon="-0.56784">
        <ele>129</ele>
        <time>2013-05-06T09:22:39Z</time>
      </trkpt>
      <trkpt lat="43.4318" lon="-0.56783">
        <ele>129</ele>
        <time>2013-05-06T09:22:40Z</time>
      </trkpt>
      <trkpt lat="43.43183" lon="-0.56782">
        <ele>129</ele>
        <time>2013-05-06T09:22:41Z</time>
      </trkpt>
      <trkpt lat="43.43185" lon="-0.56781">
        <ele>129</ele>
        <time>2013-05-06T09:22:42Z</time>
      </trkpt>
      <trkpt lat="43.43188" lon="-0.5678">
        <ele>129</ele>
        <time>2013-05-06T09:22:43Z</time>
      </trkpt>
      <trkpt lat="43.4319" lon="-0.5678">
        <ele>129</ele>
        <time>2013-05-06T09:22:44Z</time>
      </trkpt>
      <trkpt lat="43.43193" lon="-0.5678">
        <ele>128</ele>
        <time>2013-05-06T09:22:45Z</time>
      </trkpt>
      <trkpt lat="43.43195" lon="-0.56779">
        <ele>128</ele>
        <time>2013-05-06T09:22:46Z</time>
      </trkpt>
      <trkpt lat="43.43197" lon="-0.56779">
        <ele>130</ele>
        <time>2013-05-06T09:22:47Z</time>
      </trkpt>
      <trkpt lat="43.43199" lon="-0.56779">
        <ele>130</ele>
        <time>2013-05-06T09:22:48Z</time>
      </trkpt>
      <trkpt lat="43.43201" lon="-0.56778">
        <ele>130</ele>
        <time>2013-05-06T09:22:49Z</time>
      </trkpt>
      <trkpt lat="43.43202" lon="-0.56777">
        <ele>130</ele>
        <time>2013-05-06T09:22:50Z</time>
      </trkpt>
      <trkpt lat="43.43204" lon="-0.56777">
        <ele>130</ele>
        <time>2013-05-06T09:22:51Z</time>
      </trkpt>
      <trkpt lat="43.43206" lon="-0.56777">
        <ele>130</ele>
        <time>2013-05-06T09:22:52Z</time>
      </trkpt>
      <trkpt lat="43.43208" lon="-0.56778">
        <ele>129</ele>
        <time>2013-05-06T09:22:53Z</time>
      </trkpt>
      <trkpt lat="43.4321" lon="-0.5678">
        <ele>129</ele>
        <time>2013-05-06T09:22:54Z</time>
      </trkpt>
      <trkpt lat="43.43211" lon="-0.5678">
        <ele>128</ele>
        <time>2013-05-06T09:22:55Z</time>
      </trkpt>
      <trkpt lat="43.43213" lon="-0.56778">
        <ele>128</ele>
        <time>2013-05-06T09:22:56Z</time>
      </trkpt>
      <trkpt lat="43.43215" lon="-0.56775">
        <ele>128</ele>
        <time>2013-05-06T09:22:57Z</time>
      </trkpt>
      <trkpt lat="43.43217" lon="-0.56772">
        <ele>129</ele>
        <time>2013-05-06T09:22:58Z</time>
      </trkpt>
      <trkpt lat="43.43219" lon="-0.56768">
        <ele>130</ele>
        <time>2013-05-06T09:22:59Z</time>
      </trkpt>
      <trkpt lat="43.4322" lon="-0.56765">
        <ele>130</ele>
        <time>2013-05-06T09:23:00Z</time>
      </trkpt>
      <trkpt lat="43.43222" lon="-0.56762">
        <ele>130</ele>
        <time>2013-05-06T09:23:01Z</time>
      </trkpt>
      <trkpt lat="43.43224" lon="-0.56759">
        <ele>131</ele>
        <time>2013-05-06T09:23:02Z</time>
      </trkpt>
      <trkpt lat="43.43226" lon="-0.56757">
        <ele>130</ele>
        <time>2013-05-06T09:23:03Z</time>
      </trkpt>
      <trkpt lat="43.43228" lon="-0.56754">
        <ele>130</ele>
        <time>2013-05-06T09:23:04Z</time>
      </trkpt>
      <trkpt lat="43.4323" lon="-0.56752">
        <ele>131</ele>
        <time>2013-05-06T09:23:05Z</time>
      </trkpt>
      <trkpt lat="43.43232" lon="-0.56749">
        <ele>132</ele>
        <time>2013-05-06T09:23:06Z</time>
      </trkpt>
      <trkpt lat="43.43235" lon="-0.56747">
        <ele>132</ele>
        <time>2013-05-06T09:23:07Z</time>
      </trkpt>
      <trkpt lat="43.43237" lon="-0.56745">
        <ele>131</ele>
        <time>2013-05-06T09:23:08Z</time>
      </trkpt>
      <trkpt lat="43.4324" lon="-0.56743">
        <ele>131</ele>
        <time>2013-05-06T09:23:09Z</time>
      </trkpt>
      <trkpt lat="43.43242" lon="-0.56742">
        <ele>131</ele>
        <time>2013-05-06T09:23:10Z</time>
      </trkpt>
      <trkpt lat="43.43245" lon="-0.5674">
        <ele>131</ele>
        <time>2013-05-06T09:23:11Z</time>
      </trkpt>
      <trkpt lat="43.43247" lon="-0.56739">
        <ele>130</ele>
        <time>2013-05-06T09:23:12Z</time>
      </trkpt>
      <trkpt lat="43.43249" lon="-0.56738">
        <ele>130</ele>
        <time>2013-05-06T09:23:13Z</time>
      </trkpt>
      <trkpt lat="43.43251" lon="-0.56737">
        <ele>129</ele>
        <time>2013-05-06T09:23:14Z</time>
      </trkpt>
      <trkpt lat="43.43254" lon="-0.56736">
        <ele>129</ele>
        <time>2013-05-06T09:23:15Z</time>
      </trkpt>
      <trkpt lat="43.43256" lon="-0.56734">
        <ele>129</ele>
        <time>2013-05-06T09:23:16Z</time>
      </trkpt>
      <trkpt lat="43.43259" lon="-0.56732">
        <ele>129</ele>
        <time>2013-05-06T09:23:17Z</time>
      </trkpt>
      <trkpt lat="43.43262" lon="-0.5673">
        <ele>128</ele>
        <time>2013-05-06T09:23:18Z</time>
      </trkpt>
      <trkpt lat="43.43264" lon="-0.56728">
        <ele>129</ele>
        <time>2013-05-06T09:23:19Z</time>
      </trkpt>
      <trkpt lat="43.43267" lon="-0.56725">
        <ele>130</ele>
        <time>2013-05-06T09:23:20Z</time>
      </trkpt>
      <trkpt lat="43.4327" lon="-0.56723">
        <ele>130</ele>
        <time>2013-05-06T09:23:21Z</time>
      </trkpt>
      <trkpt lat="43.43272" lon="-0.5672">
        <ele>130</ele>
        <time>2013-05-06T09:23:22Z</time>
      </trkpt>
      <trkpt lat="43.43274" lon="-0.56718">
        <ele>130</ele>
        <time>2013-05-06T09:23:23Z</time>
      </trkpt>
      <trkpt lat="43.43277" lon="-0.56715">
        <ele>131</ele>
        <time>2013-05-06T09:23:24Z</time>
      </trkpt>
      <trkpt lat="43.43279" lon="-0.56712">
        <ele>132</ele>
        <time>2013-05-06T09:23:25Z</time>
      </trkpt>
      <trkpt lat="43.43281" lon="-0.56709">
        <ele>132</ele>
        <time>2013-05-06T09:23:26Z</time>
      </trkpt>
      <trkpt lat="43.43283" lon="-0.56706">
        <ele>132</ele>
        <time>2013-05-06T09:23:27Z</time>
      </trkpt>
      <trkpt lat="43.43286" lon="-0.56703">
        <ele>133</ele>
        <time>2013-05-06T09:23:28Z</time>
      </trkpt>
      <trkpt lat="43.43288" lon="-0.56701">
        <ele>133</ele>
        <time>2013-05-06T09:23:29Z</time>
      </trkpt>
      <trkpt lat="43.4329" lon="-0.56699">
        <ele>133</ele>
        <time>2013-05-06T09:23:30Z</time>
      </trkpt>
      <trkpt lat="43.43293" lon="-0.56697">
        <ele>133</ele>
        <time>2013-05-06T09:23:31Z</time>
      </trkpt>
      <trkpt lat="43.43295" lon="-0.56695">
        <ele>132</ele>
        <time>2013-05-06T09:23:32Z</time>
      </trkpt>
      <trkpt lat="43.43298" lon="-0.56693">
        <ele>133</ele>
        <time>2013-05-06T09:23:33Z</time>
      </trkpt>
      <trkpt lat="43.433" lon="-0.5669">
        <ele>134</ele>
        <time>2013-05-06T09:23:34Z</time>
      </trkpt>
      <trkpt lat="43.43303" lon="-0.56688">
        <ele>133</ele>
        <time>2013-05-06T09:23:35Z</time>
      </trkpt>
      <trkpt lat="43.43306" lon="-0.56686">
        <ele>133</ele>
        <time>2013-05-06T09:23:36Z</time>
      </trkpt>
      <trkpt lat="43.43308" lon="-0.56684">
        <ele>134</ele>
        <time>2013-05-06T09:23:37Z</time>
      </trkpt>
      <trkpt lat="43.43311" lon="-0.56682">
        <ele>134</ele>
        <time>2013-05-06T09:23:38Z</time>
      </trkpt>
      <trkpt lat="43.43314" lon="-0.5668">
        <ele>134</ele>
        <time>2013-05-06T09:23:39Z</time>
      </trkpt>
      <trkpt lat="43.43317" lon="-0.56678">
        <ele>134</ele>
        <time>2013-05-06T09:23:40Z</time>
      </trkpt>
      <trkpt lat="43.43319" lon="-0.56676">
        <ele>134</ele>
        <time>2013-05-06T09:23:41Z</time>
      </trkpt>
      <trkpt lat="43.43322" lon="-0.56674">
        <ele>134</ele>
        <time>2013-05-06T09:23:42Z</time>
      </trkpt>
      <trkpt lat="43.43324" lon="-0.56673">
        <ele>134</ele>
        <time>2013-05-06T09:23:43Z</time>
      </trkpt>
      <trkpt lat="43.43327" lon="-0.56671">
        <ele>133</ele>
        <time>2013-05-06T09:23:44Z</time>
      </trkpt>
      <trkpt lat="43.43329" lon="-0.56669">
        <ele>133</ele>
        <time>2013-05-06T09:23:45Z</time>
      </trkpt>
      <trkpt lat="43.43332" lon="-0.56666">
        <ele>133</ele>
        <time>2013-05-06T09:23:46Z</time>
      </trkpt>
      <trkpt lat="43.43335" lon="-0.56664">
        <ele>133</ele>
        <time>2013-05-06T09:23:47Z</time>
      </trkpt>
      <trkpt lat="43.43337" lon="-0.56662">
        <ele>133</ele>
        <time>2013-05-06T09:23:48Z</time>
      </trkpt>
      <trkpt lat="43.4334" lon="-0.5666">
        <ele>133</ele>
        <time>2013-05-06T09:23:49Z</time>
      </trkpt>
      <trkpt lat="43.43342" lon="-0.56657">
        <ele>133</ele>
        <time>2013-05-06T09:23:50Z</time>
      </trkpt>
      <trkpt lat="43.43345" lon="-0.56655">
        <ele>133</ele>
        <time>2013-05-06T09:23:51Z</time>
      </trkpt>
      <trkpt lat="43.43347" lon="-0.56653">
        <ele>133</ele>
        <time>2013-05-06T09:23:52Z</time>
      </trkpt>
      <trkpt lat="43.4335" lon="-0.56651">
        <ele>131</ele>
        <time>2013-05-06T09:23:53Z</time>
      </trkpt>
      <trkpt lat="43.43353" lon="-0.56649">
        <ele>130</ele>
        <time>2013-05-06T09:23:54Z</time>
      </trkpt>
      <trkpt lat="43.43356" lon="-0.56648">
        <ele>131</ele>
        <time>2013-05-06T09:23:55Z</time>
      </trkpt>
      <trkpt lat="43.43359" lon="-0.56646">
        <ele>131</ele>
        <time>2013-05-06T09:23:56Z</time>
      </trkpt>
      <trkpt lat="43.43362" lon="-0.56643">
        <ele>132</ele>
        <time>2013-05-06T09:23:57Z</time>
      </trkpt>
      <trkpt lat="43.43364" lon="-0.56641">
        <ele>133</ele>
        <time>2013-05-06T09:23:58Z</time>
      </trkpt>
      <trkpt lat="43.43367" lon="-0.56638">
        <ele>131</ele>
        <time>2013-05-06T09:23:59Z</time>
      </trkpt>
      <trkpt lat="43.4337" lon="-0.56636">
        <ele>131</ele>
        <time>2013-05-06T09:24:00Z</time>
      </trkpt>
      <trkpt lat="43.43372" lon="-0.56634">
        <ele>130</ele>
        <time>2013-05-06T09:24:01Z</time>
      </trkpt>
      <trkpt lat="43.43374" lon="-0.56632">
        <ele>132</ele>
        <time>2013-05-06T09:24:02Z</time>
      </trkpt>
      <trkpt lat="43.43376" lon="-0.5663">
        <ele>133</ele>
        <time>2013-05-06T09:24:03Z</time>
      </trkpt>
      <trkpt lat="43.43378" lon="-0.56628">
        <ele>134</ele>
        <time>2013-05-06T09:24:04Z</time>
      </trkpt>
      <trkpt lat="43.43378" lon="-0.56625">
        <ele>138</ele>
        <time>2013-05-06T09:24:05Z</time>
      </trkpt>
      <trkpt lat="43.4338" lon="-0.56623">
        <ele>140</ele>
        <time>2013-05-06T09:24:06Z</time>
      </trkpt>
      <trkpt lat="43.43383" lon="-0.56621">
        <ele>135</ele>
        <time>2013-05-06T09:24:07Z</time>
      </trkpt>
      <trkpt lat="43.43385" lon="-0.5662">
        <ele>134</ele>
        <time>2013-05-06T09:24:08Z</time>
      </trkpt>
      <trkpt lat="43.43389" lon="-0.56619">
        <ele>133</ele>
        <time>2013-05-06T09:24:09Z</time>
      </trkpt>
      <trkpt lat="43.43393" lon="-0.56618">
        <ele>133</ele>
        <time>2013-05-06T09:24:10Z</time>
      </trkpt>
      <trkpt lat="43.43397" lon="-0.56617">
        <ele>133</ele>
        <time>2013-05-06T09:24:11Z</time>
      </trkpt>
      <trkpt lat="43.43399" lon="-0.56616">
        <ele>133</ele>
        <time>2013-05-06T09:24:12Z</time>
      </trkpt>
      <trkpt lat="43.43402" lon="-0.56615">
        <ele>134</ele>
        <time>2013-05-06T09:24:13Z</time>
      </trkpt>
      <trkpt lat="43.43403" lon="-0.56614">
        <ele>134</ele>
        <time>2013-05-06T09:24:14Z</time>
      </trkpt>
      <trkpt lat="43.43404" lon="-0.56612">
        <ele>133</ele>
        <time>2013-05-06T09:24:15Z</time>
      </trkpt>
      <trkpt lat="43.43406" lon="-0.5661">
        <ele>134</ele>
        <time>2013-05-06T09:24:16Z</time>
      </trkpt>
      <trkpt lat="43.43407" lon="-0.56607">
        <ele>134</ele>
        <time>2013-05-06T09:24:17Z</time>
      </trkpt>
      <trkpt lat="43.43408" lon="-0.56605">
        <ele>134</ele>
        <time>2013-05-06T09:24:18Z</time>
      </trkpt>
      <trkpt lat="43.4341" lon="-0.56603">
        <ele>134</ele>
        <time>2013-05-06T09:24:19Z</time>
      </trkpt>
      <trkpt lat="43.43412" lon="-0.566">
        <ele>134</ele>
        <time>2013-05-06T09:24:20Z</time>
      </trkpt>
      <trkpt lat="43.43414" lon="-0.56598">
        <ele>133</ele>
        <time>2013-05-06T09:24:21Z</time>
      </trkpt>
      <trkpt lat="43.43417" lon="-0.56596">
        <ele>133</ele>
        <time>2013-05-06T09:24:22Z</time>
      </trkpt>
      <trkpt lat="43.4342" lon="-0.56594">
        <ele>130</ele>
        <time>2013-05-06T09:24:23Z</time>
      </trkpt>
      <trkpt lat="43.43422" lon="-0.56592">
        <ele>128</ele>
        <time>2013-05-06T09:24:24Z</time>
      </trkpt>
      <trkpt lat="43.43426" lon="-0.5659">
        <ele>129</ele>
        <time>2013-05-06T09:24:25Z</time>
      </trkpt>
      <trkpt lat="43.4343" lon="-0.56586">
        <ele>129</ele>
        <time>2013-05-06T09:24:26Z</time>
      </trkpt>
      <trkpt lat="43.43433" lon="-0.56584">
        <ele>129</ele>
        <time>2013-05-06T09:24:27Z</time>
      </trkpt>
      <trkpt lat="43.43436" lon="-0.56581">
        <ele>129</ele>
        <time>2013-05-06T09:24:28Z</time>
      </trkpt>
      <trkpt lat="43.43438" lon="-0.56578">
        <ele>129</ele>
        <time>2013-05-06T09:24:29Z</time>
      </trkpt>
      <trkpt lat="43.4344" lon="-0.56577">
        <ele>129</ele>
        <time>2013-05-06T09:24:30Z</time>
      </trkpt>
      <trkpt lat="43.43442" lon="-0.56576">
        <ele>129</ele>
        <time>2013-05-06T09:24:31Z</time>
      </trkpt>
      <trkpt lat="43.43444" lon="-0.56574">
        <ele>129</ele>
        <time>2013-05-06T09:24:32Z</time>
      </trkpt>
      <trkpt lat="43.43447" lon="-0.56572">
        <ele>128</ele>
        <time>2013-05-06T09:24:33Z</time>
      </trkpt>
      <trkpt lat="43.43448" lon="-0.5657">
        <ele>128</ele>
        <time>2013-05-06T09:24:34Z</time>
      </trkpt>
      <trkpt lat="43.4345" lon="-0.56569">
        <ele>129</ele>
        <time>2013-05-06T09:24:35Z</time>
      </trkpt>
      <trkpt lat="43.43451" lon="-0.56567">
        <ele>129</ele>
        <time>2013-05-06T09:24:36Z</time>
      </trkpt>
      <trkpt lat="43.43452" lon="-0.56565">
        <ele>129</ele>
        <time>2013-05-06T09:24:37Z</time>
      </trkpt>
      <trkpt lat="43.43453" lon="-0.56563">
        <ele>128</ele>
        <time>2013-05-06T09:24:38Z</time>
      </trkpt>
      <trkpt lat="43.43455" lon="-0.56561">
        <ele>127</ele>
        <time>2013-05-06T09:24:39Z</time>
      </trkpt>
      <trkpt lat="43.43457" lon="-0.5656">
        <ele>128</ele>
        <time>2013-05-06T09:24:40Z</time>
      </trkpt>
      <trkpt lat="43.43459" lon="-0.56559">
        <ele>132</ele>
        <time>2013-05-06T09:24:41Z</time>
      </trkpt>
      <trkpt lat="43.43462" lon="-0.56558">
        <ele>132</ele>
        <time>2013-05-06T09:24:42Z</time>
      </trkpt>
      <trkpt lat="43.43464" lon="-0.56557">
        <ele>132</ele>
        <time>2013-05-06T09:24:43Z</time>
      </trkpt>
      <trkpt lat="43.43467" lon="-0.56556">
        <ele>132</ele>
        <time>2013-05-06T09:24:44Z</time>
      </trkpt>
      <trkpt lat="43.43469" lon="-0.56556">
        <ele>131</ele>
        <time>2013-05-06T09:24:45Z</time>
      </trkpt>
      <trkpt lat="43.43471" lon="-0.56558">
        <ele>130</ele>
        <time>2013-05-06T09:24:46Z</time>
      </trkpt>
      <trkpt lat="43.43473" lon="-0.56559">
        <ele>130</ele>
        <time>2013-05-06T09:24:47Z</time>
      </trkpt>
      <trkpt lat="43.43476" lon="-0.56561">
        <ele>131</ele>
        <time>2013-05-06T09:24:48Z</time>
      </trkpt>
      <trkpt lat="43.43478" lon="-0.56563">
        <ele>132</ele>
        <time>2013-05-06T09:24:49Z</time>
      </trkpt>
      <trkpt lat="43.4348" lon="-0.56566">
        <ele>134</ele>
        <time>2013-05-06T09:24:50Z</time>
      </trkpt>
      <trkpt lat="43.43482" lon="-0.5657">
        <ele>135</ele>
        <time>2013-05-06T09:24:51Z</time>
      </trkpt>
      <trkpt lat="43.43484" lon="-0.56574">
        <ele>135</ele>
        <time>2013-05-06T09:24:52Z</time>
      </trkpt>
      <trkpt lat="43.43485" lon="-0.56578">
        <ele>135</ele>
        <time>2013-05-06T09:24:53Z</time>
      </trkpt>
      <trkpt lat="43.43487" lon="-0.56582">
        <ele>136</ele>
        <time>2013-05-06T09:24:54Z</time>
      </trkpt>
      <trkpt lat="43.43489" lon="-0.56586">
        <ele>136</ele>
        <time>2013-05-06T09:24:55Z</time>
      </trkpt>
      <trkpt lat="43.43491" lon="-0.5659">
        <ele>136</ele>
        <time>2013-05-06T09:24:56Z</time>
      </trkpt>
      <trkpt lat="43.43492" lon="-0.56594">
        <ele>136</ele>
        <time>2013-05-06T09:24:57Z</time>
      </trkpt>
      <trkpt lat="43.43493" lon="-0.56598">
        <ele>135</ele>
        <time>2013-05-06T09:24:58Z</time>
      </trkpt>
      <trkpt lat="43.43494" lon="-0.56602">
        <ele>135</ele>
        <time>2013-05-06T09:24:59Z</time>
      </trkpt>
      <trkpt lat="43.43496" lon="-0.56606">
        <ele>134</ele>
        <time>2013-05-06T09:25:00Z</time>
      </trkpt>
      <trkpt lat="43.43496" lon="-0.5661">
        <ele>133</ele>
        <time>2013-05-06T09:25:01Z</time>
      </trkpt>
      <trkpt lat="43.43497" lon="-0.56614">
        <ele>135</ele>
        <time>2013-05-06T09:25:02Z</time>
      </trkpt>
      <trkpt lat="43.43498" lon="-0.56617">
        <ele>136</ele>
        <time>2013-05-06T09:25:03Z</time>
      </trkpt>
      <trkpt lat="43.43499" lon="-0.5662">
        <ele>136</ele>
        <time>2013-05-06T09:25:04Z</time>
      </trkpt>
      <trkpt lat="43.43499" lon="-0.56624">
        <ele>136</ele>
        <time>2013-05-06T09:25:05Z</time>
      </trkpt>
      <trkpt lat="43.43501" lon="-0.56627">
        <ele>136</ele>
        <time>2013-05-06T09:25:06Z</time>
      </trkpt>
      <trkpt lat="43.43503" lon="-0.56632">
        <ele>138</ele>
        <time>2013-05-06T09:25:07Z</time>
      </trkpt>
      <trkpt lat="43.43505" lon="-0.56637">
        <ele>138</ele>
        <time>2013-05-06T09:25:08Z</time>
      </trkpt>
      <trkpt lat="43.43508" lon="-0.56641">
        <ele>138</ele>
        <time>2013-05-06T09:25:09Z</time>
      </trkpt>
      <trkpt lat="43.43511" lon="-0.56645">
        <ele>137</ele>
        <time>2013-05-06T09:25:10Z</time>
      </trkpt>
      <trkpt lat="43.43514" lon="-0.56649">
        <ele>138</ele>
        <time>2013-05-06T09:25:11Z</time>
      </trkpt>
      <trkpt lat="43.43515" lon="-0.56653">
        <ele>139</ele>
        <time>2013-05-06T09:25:12Z</time>
      </trkpt>
      <trkpt lat="43.43517" lon="-0.56657">
        <ele>138</ele>
        <time>2013-05-06T09:25:13Z</time>
      </trkpt>
      <trkpt lat="43.43519" lon="-0.56661">
        <ele>140</ele>
        <time>2013-05-06T09:25:14Z</time>
      </trkpt>
      <trkpt lat="43.43521" lon="-0.56664">
        <ele>141</ele>
        <time>2013-05-06T09:25:15Z</time>
      </trkpt>
      <trkpt lat="43.43523" lon="-0.56668">
        <ele>142</ele>
        <time>2013-05-06T09:25:16Z</time>
      </trkpt>
      <trkpt lat="43.43525" lon="-0.56671">
        <ele>143</ele>
        <time>2013-05-06T09:25:17Z</time>
      </trkpt>
      <trkpt lat="43.43527" lon="-0.56674">
        <ele>142</ele>
        <time>2013-05-06T09:25:18Z</time>
      </trkpt>
      <trkpt lat="43.43529" lon="-0.56678">
        <ele>142</ele>
        <time>2013-05-06T09:25:19Z</time>
      </trkpt>
      <trkpt lat="43.43531" lon="-0.56683">
        <ele>141</ele>
        <time>2013-05-06T09:25:20Z</time>
      </trkpt>
      <trkpt lat="43.43533" lon="-0.56687">
        <ele>141</ele>
        <time>2013-05-06T09:25:21Z</time>
      </trkpt>
      <trkpt lat="43.43533" lon="-0.56693">
        <ele>140</ele>
        <time>2013-05-06T09:25:22Z</time>
      </trkpt>
      <trkpt lat="43.43533" lon="-0.56698">
        <ele>140</ele>
        <time>2013-05-06T09:25:23Z</time>
      </trkpt>
      <trkpt lat="43.43533" lon="-0.56704">
        <ele>140</ele>
        <time>2013-05-06T09:25:24Z</time>
      </trkpt>
      <trkpt lat="43.43532" lon="-0.56711">
        <ele>140</ele>
        <time>2013-05-06T09:25:25Z</time>
      </trkpt>
      <trkpt lat="43.43532" lon="-0.56717">
        <ele>140</ele>
        <time>2013-05-06T09:25:26Z</time>
      </trkpt>
      <trkpt lat="43.43532" lon="-0.56723">
        <ele>139</ele>
        <time>2013-05-06T09:25:27Z</time>
      </trkpt>
      <trkpt lat="43.43533" lon="-0.56729">
        <ele>140</ele>
        <time>2013-05-06T09:25:28Z</time>
      </trkpt>
      <trkpt lat="43.43534" lon="-0.56734">
        <ele>141</ele>
        <time>2013-05-06T09:25:29Z</time>
      </trkpt>
      <trkpt lat="43.43535" lon="-0.5674">
        <ele>140</ele>
        <time>2013-05-06T09:25:30Z</time>
      </trkpt>
      <trkpt lat="43.43536" lon="-0.56745">
        <ele>140</ele>
        <time>2013-05-06T09:25:31Z</time>
      </trkpt>
      <trkpt lat="43.43537" lon="-0.56751">
        <ele>139</ele>
        <time>2013-05-06T09:25:32Z</time>
      </trkpt>
      <trkpt lat="43.43539" lon="-0.56756">
        <ele>139</ele>
        <time>2013-05-06T09:25:33Z</time>
      </trkpt>
      <trkpt lat="43.43541" lon="-0.56762">
        <ele>138</ele>
        <time>2013-05-06T09:25:34Z</time>
      </trkpt>
      <trkpt lat="43.43544" lon="-0.56767">
        <ele>139</ele>
        <time>2013-05-06T09:25:35Z</time>
      </trkpt>
      <trkpt lat="43.43547" lon="-0.56773">
        <ele>137</ele>
        <time>2013-05-06T09:25:36Z</time>
      </trkpt>
      <trkpt lat="43.43549" lon="-0.56778">
        <ele>137</ele>
        <time>2013-05-06T09:25:37Z</time>
      </trkpt>
      <trkpt lat="43.43552" lon="-0.56783">
        <ele>137</ele>
        <time>2013-05-06T09:25:38Z</time>
      </trkpt>
      <trkpt lat="43.43554" lon="-0.56788">
        <ele>136</ele>
        <time>2013-05-06T09:25:39Z</time>
      </trkpt>
      <trkpt lat="43.43556" lon="-0.56793">
        <ele>136</ele>
        <time>2013-05-06T09:25:40Z</time>
      </trkpt>
      <trkpt lat="43.43558" lon="-0.56797">
        <ele>136</ele>
        <time>2013-05-06T09:25:41Z</time>
      </trkpt>
      <trkpt lat="43.43559" lon="-0.568">
        <ele>136</ele>
        <time>2013-05-06T09:25:42Z</time>
      </trkpt>
      <trkpt lat="43.43561" lon="-0.56803">
        <ele>135</ele>
        <time>2013-05-06T09:25:43Z</time>
      </trkpt>
      <trkpt lat="43.43562" lon="-0.56806">
        <ele>137</ele>
        <time>2013-05-06T09:25:44Z</time>
      </trkpt>
      <trkpt lat="43.43563" lon="-0.56809">
        <ele>138</ele>
        <time>2013-05-06T09:25:45Z</time>
      </trkpt>
      <trkpt lat="43.43564" lon="-0.56813">
        <ele>138</ele>
        <time>2013-05-06T09:25:46Z</time>
      </trkpt>
      <trkpt lat="43.43565" lon="-0.56817">
        <ele>139</ele>
        <time>2013-05-06T09:25:47Z</time>
      </trkpt>
      <trkpt lat="43.43567" lon="-0.56821">
        <ele>139</ele>
        <time>2013-05-06T09:25:48Z</time>
      </trkpt>
      <trkpt lat="43.43568" lon="-0.56824">
        <ele>139</ele>
        <time>2013-05-06T09:25:49Z</time>
      </trkpt>
      <trkpt lat="43.43569" lon="-0.56828">
        <ele>138</ele>
        <time>2013-05-06T09:25:50Z</time>
      </trkpt>
      <trkpt lat="43.4357" lon="-0.56831">
        <ele>137</ele>
        <time>2013-05-06T09:25:51Z</time>
      </trkpt>
      <trkpt lat="43.43572" lon="-0.56833">
        <ele>138</ele>
        <time>2013-05-06T09:25:52Z</time>
      </trkpt>
      <trkpt lat="43.43573" lon="-0.56836">
        <ele>140</ele>
        <time>2013-05-06T09:25:53Z</time>
      </trkpt>
      <trkpt lat="43.43574" lon="-0.56838">
        <ele>141</ele>
        <time>2013-05-06T09:25:54Z</time>
      </trkpt>
      <trkpt lat="43.43575" lon="-0.5684">
        <ele>141</ele>
        <time>2013-05-06T09:25:55Z</time>
      </trkpt>
      <trkpt lat="43.43576" lon="-0.56841">
        <ele>141</ele>
        <time>2013-05-06T09:25:56Z</time>
      </trkpt>
      <trkpt lat="43.43578" lon="-0.56841">
        <ele>140</ele>
        <time>2013-05-06T09:25:57Z</time>
      </trkpt>
      <trkpt lat="43.43578" lon="-0.56839">
        <ele>143</ele>
        <time>2013-05-06T09:25:58Z</time>
      </trkpt>
      <trkpt lat="43.43579" lon="-0.56837">
        <ele>142</ele>
        <time>2013-05-06T09:25:59Z</time>
      </trkpt>
      <trkpt lat="43.4358" lon="-0.56837">
        <ele>141</ele>
        <time>2013-05-06T09:26:00Z</time>
      </trkpt>
      <trkpt lat="43.4358" lon="-0.56833">
        <ele>142</ele>
        <time>2013-05-06T09:26:01Z</time>
      </trkpt>
      <trkpt lat="43.4358" lon="-0.5683">
        <ele>142</ele>
        <time>2013-05-06T09:26:02Z</time>
      </trkpt>
      <trkpt lat="43.43581" lon="-0.56827">
        <ele>142</ele>
        <time>2013-05-06T09:26:03Z</time>
      </trkpt>
      <trkpt lat="43.43581" lon="-0.56825">
        <ele>142</ele>
        <time>2013-05-06T09:26:04Z</time>
      </trkpt>
      <trkpt lat="43.43581" lon="-0.56823">
        <ele>142</ele>
        <time>2013-05-06T09:26:05Z</time>
      </trkpt>
      <trkpt lat="43.43582" lon="-0.56821">
        <ele>141</ele>
        <time>2013-05-06T09:26:06Z</time>
      </trkpt>
      <trkpt lat="43.43582" lon="-0.5682">
        <ele>142</ele>
        <time>2013-05-06T09:26:07Z</time>
      </trkpt>
      <trkpt lat="43.43583" lon="-0.56818">
        <ele>141</ele>
        <time>2013-05-06T09:26:08Z</time>
      </trkpt>
      <trkpt lat="43.43584" lon="-0.56817">
        <ele>141</ele>
        <time>2013-05-06T09:26:09Z</time>
      </trkpt>
      <trkpt lat="43.43585" lon="-0.56816">
        <ele>141</ele>
        <time>2013-05-06T09:26:10Z</time>
      </trkpt>
      <trkpt lat="43.43587" lon="-0.56814">
        <ele>141</ele>
        <time>2013-05-06T09:26:11Z</time>
      </trkpt>
      <trkpt lat="43.43588" lon="-0.56813">
        <ele>142</ele>
        <time>2013-05-06T09:26:12Z</time>
      </trkpt>
      <trkpt lat="43.43589" lon="-0.56811">
        <ele>143</ele>
        <time>2013-05-06T09:26:13Z</time>
      </trkpt>
      <trkpt lat="43.43591" lon="-0.56812">
        <ele>142</ele>
        <time>2013-05-06T09:26:14Z</time>
      </trkpt>
      <trkpt lat="43.43593" lon="-0.56812">
        <ele>143</ele>
        <time>2013-05-06T09:26:15Z</time>
      </trkpt>
      <trkpt lat="43.43595" lon="-0.56814">
        <ele>143</ele>
        <time>2013-05-06T09:26:16Z</time>
      </trkpt>
      <trkpt lat="43.43597" lon="-0.56813">
        <ele>144</ele>
        <time>2013-05-06T09:26:17Z</time>
      </trkpt>
      <trkpt lat="43.43598" lon="-0.56813">
        <ele>143</ele>
        <time>2013-05-06T09:26:18Z</time>
      </trkpt>
      <trkpt lat="43.43599" lon="-0.56813">
        <ele>144</ele>
        <time>2013-05-06T09:26:19Z</time>
      </trkpt>
      <trkpt lat="43.43601" lon="-0.56811">
        <ele>143</ele>
        <time>2013-05-06T09:26:20Z</time>
      </trkpt>
      <trkpt lat="43.43603" lon="-0.56809">
        <ele>143</ele>
        <time>2013-05-06T09:26:21Z</time>
      </trkpt>
      <trkpt lat="43.43605" lon="-0.56809">
        <ele>142</ele>
        <time>2013-05-06T09:26:22Z</time>
      </trkpt>
      <trkpt lat="43.43607" lon="-0.56808">
        <ele>142</ele>
        <time>2013-05-06T09:26:23Z</time>
      </trkpt>
      <trkpt lat="43.43609" lon="-0.56808">
        <ele>141</ele>
        <time>2013-05-06T09:26:24Z</time>
      </trkpt>
      <trkpt lat="43.4361" lon="-0.56807">
        <ele>141</ele>
        <time>2013-05-06T09:26:25Z</time>
      </trkpt>
      <trkpt lat="43.43611" lon="-0.56807">
        <ele>141</ele>
        <time>2013-05-06T09:26:26Z</time>
      </trkpt>
      <trkpt lat="43.43612" lon="-0.56806">
        <ele>141</ele>
        <time>2013-05-06T09:26:27Z</time>
      </trkpt>
      <trkpt lat="43.43613" lon="-0.56804">
        <ele>141</ele>
        <time>2013-05-06T09:26:28Z</time>
      </trkpt>
      <trkpt lat="43.43615" lon="-0.56802">
        <ele>140</ele>
        <time>2013-05-06T09:26:29Z</time>
      </trkpt>
      <trkpt lat="43.43615" lon="-0.56799">
        <ele>141</ele>
        <time>2013-05-06T09:26:30Z</time>
      </trkpt>
      <trkpt lat="43.43616" lon="-0.56797">
        <ele>141</ele>
        <time>2013-05-06T09:26:31Z</time>
      </trkpt>
      <trkpt lat="43.43616" lon="-0.56794">
        <ele>142</ele>
        <time>2013-05-06T09:26:32Z</time>
      </trkpt>
      <trkpt lat="43.43617" lon="-0.56793">
        <ele>142</ele>
        <time>2013-05-06T09:26:33Z</time>
      </trkpt>
      <trkpt lat="43.43617" lon="-0.5679">
        <ele>143</ele>
        <time>2013-05-06T09:26:34Z</time>
      </trkpt>
      <trkpt lat="43.43618" lon="-0.56788">
        <ele>142</ele>
        <time>2013-05-06T09:26:35Z</time>
      </trkpt>
      <trkpt lat="43.43618" lon="-0.56786">
        <ele>143</ele>
        <time>2013-05-06T09:26:36Z</time>
      </trkpt>
      <trkpt lat="43.43619" lon="-0.56784">
        <ele>143</ele>
        <time>2013-05-06T09:26:37Z</time>
      </trkpt>
      <trkpt lat="43.4362" lon="-0.56782">
        <ele>144</ele>
        <time>2013-05-06T09:26:38Z</time>
      </trkpt>
      <trkpt lat="43.43621" lon="-0.56779">
        <ele>145</ele>
        <time>2013-05-06T09:26:39Z</time>
      </trkpt>
      <trkpt lat="43.43622" lon="-0.56777">
        <ele>145</ele>
        <time>2013-05-06T09:26:40Z</time>
      </trkpt>
      <trkpt lat="43.43623" lon="-0.56775">
        <ele>146</ele>
        <time>2013-05-06T09:26:41Z</time>
      </trkpt>
      <trkpt lat="43.43624" lon="-0.56774">
        <ele>147</ele>
        <time>2013-05-06T09:26:42Z</time>
      </trkpt>
      <trkpt lat="43.43625" lon="-0.56772">
        <ele>147</ele>
        <time>2013-05-06T09:26:43Z</time>
      </trkpt>
      <trkpt lat="43.43625" lon="-0.5677">
        <ele>147</ele>
        <time>2013-05-06T09:26:44Z</time>
      </trkpt>
      <trkpt lat="43.43626" lon="-0.56769">
        <ele>148</ele>
        <time>2013-05-06T09:26:45Z</time>
      </trkpt>
      <trkpt lat="43.43626" lon="-0.56767">
        <ele>149</ele>
        <time>2013-05-06T09:26:46Z</time>
      </trkpt>
      <trkpt lat="43.43627" lon="-0.56765">
        <ele>150</ele>
        <time>2013-05-06T09:26:47Z</time>
      </trkpt>
      <trkpt lat="43.43627" lon="-0.56763">
        <ele>152</ele>
        <time>2013-05-06T09:26:48Z</time>
      </trkpt>
      <trkpt lat="43.43628" lon="-0.56762">
        <ele>151</ele>
        <time>2013-05-06T09:26:49Z</time>
      </trkpt>
      <trkpt lat="43.43628" lon="-0.5676">
        <ele>152</ele>
        <time>2013-05-06T09:26:50Z</time>
      </trkpt>
      <trkpt lat="43.43629" lon="-0.56759">
        <ele>152</ele>
        <time>2013-05-06T09:26:51Z</time>
      </trkpt>
      <trkpt lat="43.4363" lon="-0.56759">
        <ele>152</ele>
        <time>2013-05-06T09:26:52Z</time>
      </trkpt>
      <trkpt lat="43.43632" lon="-0.56758">
        <ele>152</ele>
        <time>2013-05-06T09:26:53Z</time>
      </trkpt>
      <trkpt lat="43.43633" lon="-0.56758">
        <ele>152</ele>
        <time>2013-05-06T09:26:54Z</time>
      </trkpt>
      <trkpt lat="43.43634" lon="-0.56757">
        <ele>152</ele>
        <time>2013-05-06T09:26:55Z</time>
      </trkpt>
      <trkpt lat="43.43636" lon="-0.56757">
        <ele>151</ele>
        <time>2013-05-06T09:26:56Z</time>
      </trkpt>
      <trkpt lat="43.43638" lon="-0.56757">
        <ele>152</ele>
        <time>2013-05-06T09:26:57Z</time>
      </trkpt>
      <trkpt lat="43.43639" lon="-0.56756">
        <ele>153</ele>
        <time>2013-05-06T09:26:58Z</time>
      </trkpt>
      <trkpt lat="43.43641" lon="-0.56756">
        <ele>153</ele>
        <time>2013-05-06T09:26:59Z</time>
      </trkpt>
      <trkpt lat="43.43642" lon="-0.56756">
        <ele>153</ele>
        <time>2013-05-06T09:27:00Z</time>
      </trkpt>
      <trkpt lat="43.43643" lon="-0.56757">
        <ele>152</ele>
        <time>2013-05-06T09:27:01Z</time>
      </trkpt>
      <trkpt lat="43.43644" lon="-0.56758">
        <ele>152</ele>
        <time>2013-05-06T09:27:02Z</time>
      </trkpt>
      <trkpt lat="43.43645" lon="-0.5676">
        <ele>152</ele>
        <time>2013-05-06T09:27:03Z</time>
      </trkpt>
      <trkpt lat="43.43646" lon="-0.56763">
        <ele>151</ele>
        <time>2013-05-06T09:27:04Z</time>
      </trkpt>
      <trkpt lat="43.43647" lon="-0.56767">
        <ele>151</ele>
        <time>2013-05-06T09:27:05Z</time>
      </trkpt>
      <trkpt lat="43.43649" lon="-0.56772">
        <ele>151</ele>
        <time>2013-05-06T09:27:06Z</time>
      </trkpt>
      <trkpt lat="43.43651" lon="-0.56777">
        <ele>151</ele>
        <time>2013-05-06T09:27:07Z</time>
      </trkpt>
      <trkpt lat="43.43653" lon="-0.56782">
        <ele>150</ele>
        <time>2013-05-06T09:27:08Z</time>
      </trkpt>
      <trkpt lat="43.43655" lon="-0.56787">
        <ele>150</ele>
        <time>2013-05-06T09:27:09Z</time>
      </trkpt>
      <trkpt lat="43.43657" lon="-0.56791">
        <ele>150</ele>
        <time>2013-05-06T09:27:10Z</time>
      </trkpt>
      <trkpt lat="43.43658" lon="-0.56795">
        <ele>149</ele>
        <time>2013-05-06T09:27:11Z</time>
      </trkpt>
      <trkpt lat="43.4366" lon="-0.56798">
        <ele>149</ele>
        <time>2013-05-06T09:27:12Z</time>
      </trkpt>
      <trkpt lat="43.43662" lon="-0.568">
        <ele>149</ele>
        <time>2013-05-06T09:27:13Z</time>
      </trkpt>
      <trkpt lat="43.43664" lon="-0.56801">
        <ele>149</ele>
        <time>2013-05-06T09:27:14Z</time>
      </trkpt>
      <trkpt lat="43.43666" lon="-0.56802">
        <ele>149</ele>
        <time>2013-05-06T09:27:15Z</time>
      </trkpt>
      <trkpt lat="43.43667" lon="-0.56803">
        <ele>149</ele>
        <time>2013-05-06T09:27:16Z</time>
      </trkpt>
      <trkpt lat="43.43668" lon="-0.56803">
        <ele>149</ele>
        <time>2013-05-06T09:27:17Z</time>
      </trkpt>
      <trkpt lat="43.43669" lon="-0.56804">
        <ele>149</ele>
        <time>2013-05-06T09:27:18Z</time>
      </trkpt>
      <trkpt lat="43.43671" lon="-0.56803">
        <ele>148</ele>
        <time>2013-05-06T09:27:19Z</time>
      </trkpt>
      <trkpt lat="43.43672" lon="-0.56802">
        <ele>148</ele>
        <time>2013-05-06T09:27:20Z</time>
      </trkpt>
      <trkpt lat="43.43673" lon="-0.56802">
        <ele>149</ele>
        <time>2013-05-06T09:27:21Z</time>
      </trkpt>
      <trkpt lat="43.43675" lon="-0.56801">
        <ele>149</ele>
        <time>2013-05-06T09:27:22Z</time>
      </trkpt>
      <trkpt lat="43.43677" lon="-0.56801">
        <ele>150</ele>
        <time>2013-05-06T09:27:23Z</time>
      </trkpt>
      <trkpt lat="43.43678" lon="-0.56801">
        <ele>150</ele>
        <time>2013-05-06T09:27:24Z</time>
      </trkpt>
      <trkpt lat="43.4368" lon="-0.568">
        <ele>151</ele>
        <time>2013-05-06T09:27:25Z</time>
      </trkpt>
      <trkpt lat="43.43682" lon="-0.568">
        <ele>151</ele>
        <time>2013-05-06T09:27:26Z</time>
      </trkpt>
      <trkpt lat="43.43683" lon="-0.568">
        <ele>151</ele>
        <time>2013-05-06T09:27:27Z</time>
      </trkpt>
      <trkpt lat="43.43684" lon="-0.568">
        <ele>151</ele>
        <time>2013-05-06T09:27:28Z</time>
      </trkpt>
      <trkpt lat="43.43686" lon="-0.568">
        <ele>152</ele>
        <time>2013-05-06T09:27:29Z</time>
      </trkpt>
      <trkpt lat="43.43687" lon="-0.568">
        <ele>152</ele>
        <time>2013-05-06T09:27:30Z</time>
      </trkpt>
      <trkpt lat="43.43689" lon="-0.568">
        <ele>152</ele>
        <time>2013-05-06T09:27:31Z</time>
      </trkpt>
      <trkpt lat="43.4369" lon="-0.56801">
        <ele>152</ele>
        <time>2013-05-06T09:27:32Z</time>
      </trkpt>
      <trkpt lat="43.43692" lon="-0.56801">
        <ele>152</ele>
        <time>2013-05-06T09:27:33Z</time>
      </trkpt>
      <trkpt lat="43.43694" lon="-0.56802">
        <ele>151</ele>
        <time>2013-05-06T09:27:34Z</time>
      </trkpt>
      <trkpt lat="43.43697" lon="-0.56803">
        <ele>151</ele>
        <time>2013-05-06T09:27:35Z</time>
      </trkpt>
      <trkpt lat="43.43699" lon="-0.56804">
        <ele>151</ele>
        <time>2013-05-06T09:27:36Z</time>
      </trkpt>
      <trkpt lat="43.43702" lon="-0.56805">
        <ele>151</ele>
        <time>2013-05-06T09:27:37Z</time>
      </trkpt>
      <trkpt lat="43.43704" lon="-0.56806">
        <ele>151</ele>
        <time>2013-05-06T09:27:38Z</time>
      </trkpt>
      <trkpt lat="43.43705" lon="-0.56806">
        <ele>151</ele>
        <time>2013-05-06T09:27:39Z</time>
      </trkpt>
      <trkpt lat="43.43707" lon="-0.56807">
        <ele>152</ele>
        <time>2013-05-06T09:27:40Z</time>
      </trkpt>
      <trkpt lat="43.43708" lon="-0.56808">
        <ele>152</ele>
        <time>2013-05-06T09:27:41Z</time>
      </trkpt>
      <trkpt lat="43.4371" lon="-0.56808">
        <ele>152</ele>
        <time>2013-05-06T09:27:42Z</time>
      </trkpt>
      <trkpt lat="43.43712" lon="-0.56808">
        <ele>152</ele>
        <time>2013-05-06T09:27:43Z</time>
      </trkpt>
      <trkpt lat="43.43714" lon="-0.56809">
        <ele>152</ele>
        <time>2013-05-06T09:27:44Z</time>
      </trkpt>
      <trkpt lat="43.43716" lon="-0.56809">
        <ele>152</ele>
        <time>2013-05-06T09:27:45Z</time>
      </trkpt>
      <trkpt lat="43.43718" lon="-0.56809">
        <ele>151</ele>
        <time>2013-05-06T09:27:46Z</time>
      </trkpt>
      <trkpt lat="43.43719" lon="-0.56809">
        <ele>151</ele>
        <time>2013-05-06T09:27:47Z</time>
      </trkpt>
      <trkpt lat="43.43721" lon="-0.56809">
        <ele>151</ele>
        <time>2013-05-06T09:27:48Z</time>
      </trkpt>
      <trkpt lat="43.43723" lon="-0.5681">
        <ele>150</ele>
        <time>2013-05-06T09:27:49Z</time>
      </trkpt>
      <trkpt lat="43.43724" lon="-0.5681">
        <ele>150</ele>
        <time>2013-05-06T09:27:50Z</time>
      </trkpt>
      <trkpt lat="43.43726" lon="-0.5681">
        <ele>150</ele>
        <time>2013-05-06T09:27:51Z</time>
      </trkpt>
      <trkpt lat="43.43727" lon="-0.56811">
        <ele>151</ele>
        <time>2013-05-06T09:27:52Z</time>
      </trkpt>
      <trkpt lat="43.43728" lon="-0.56811">
        <ele>150</ele>
        <time>2013-05-06T09:27:53Z</time>
      </trkpt>
      <trkpt lat="43.43731" lon="-0.56812">
        <ele>148</ele>
        <time>2013-05-06T09:27:54Z</time>
      </trkpt>
      <trkpt lat="43.43734" lon="-0.56812">
        <ele>148</ele>
        <time>2013-05-06T09:27:55Z</time>
      </trkpt>
      <trkpt lat="43.43737" lon="-0.56812">
        <ele>148</ele>
        <time>2013-05-06T09:27:56Z</time>
      </trkpt>
      <trkpt lat="43.4374" lon="-0.56812">
        <ele>147</ele>
        <time>2013-05-06T09:27:57Z</time>
      </trkpt>
      <trkpt lat="43.43742" lon="-0.56812">
        <ele>147</ele>
        <time>2013-05-06T09:27:58Z</time>
      </trkpt>
      <trkpt lat="43.43744" lon="-0.56812">
        <ele>148</ele>
        <time>2013-05-06T09:27:59Z</time>
      </trkpt>
      <trkpt lat="43.43745" lon="-0.56812">
        <ele>148</ele>
        <time>2013-05-06T09:28:00Z</time>
      </trkpt>
      <trkpt lat="43.43746" lon="-0.56811">
        <ele>148</ele>
        <time>2013-05-06T09:28:01Z</time>
      </trkpt>
      <trkpt lat="43.43747" lon="-0.56811">
        <ele>149</ele>
        <time>2013-05-06T09:28:02Z</time>
      </trkpt>
      <trkpt lat="43.43749" lon="-0.56812">
        <ele>150</ele>
        <time>2013-05-06T09:28:03Z</time>
      </trkpt>
      <trkpt lat="43.4375" lon="-0.56812">
        <ele>150</ele>
        <time>2013-05-06T09:28:04Z</time>
      </trkpt>
      <trkpt lat="43.43751" lon="-0.56812">
        <ele>150</ele>
        <time>2013-05-06T09:28:05Z</time>
      </trkpt>
      <trkpt lat="43.43753" lon="-0.56812">
        <ele>150</ele>
        <time>2013-05-06T09:28:06Z</time>
      </trkpt>
      <trkpt lat="43.43754" lon="-0.56813">
        <ele>150</ele>
        <time>2013-05-06T09:28:07Z</time>
      </trkpt>
      <trkpt lat="43.43755" lon="-0.56814">
        <ele>150</ele>
        <time>2013-05-06T09:28:08Z</time>
      </trkpt>
      <trkpt lat="43.43757" lon="-0.56815">
        <ele>150</ele>
        <time>2013-05-06T09:28:09Z</time>
      </trkpt>
      <trkpt lat="43.43758" lon="-0.56816">
        <ele>150</ele>
        <time>2013-05-06T09:28:10Z</time>
      </trkpt>
      <trkpt lat="43.4376" lon="-0.56817">
        <ele>150</ele>
        <time>2013-05-06T09:28:11Z</time>
      </trkpt>
      <trkpt lat="43.43761" lon="-0.56817">
        <ele>149</ele>
        <time>2013-05-06T09:28:12Z</time>
      </trkpt>
      <trkpt lat="43.43762" lon="-0.56818">
        <ele>150</ele>
        <time>2013-05-06T09:28:13Z</time>
      </trkpt>
      <trkpt lat="43.43763" lon="-0.56818">
        <ele>151</ele>
        <time>2013-05-06T09:28:14Z</time>
      </trkpt>
      <trkpt lat="43.43765" lon="-0.56818">
        <ele>151</ele>
        <time>2013-05-06T09:28:15Z</time>
      </trkpt>
      <trkpt lat="43.43766" lon="-0.56817">
        <ele>152</ele>
        <time>2013-05-06T09:28:16Z</time>
      </trkpt>
      <trkpt lat="43.43768" lon="-0.56817">
        <ele>152</ele>
        <time>2013-05-06T09:28:17Z</time>
      </trkpt>
      <trkpt lat="43.43769" lon="-0.56817">
        <ele>152</ele>
        <time>2013-05-06T09:28:18Z</time>
      </trkpt>
      <trkpt lat="43.4377" lon="-0.56817">
        <ele>152</ele>
        <time>2013-05-06T09:28:19Z</time>
      </trkpt>
      <trkpt lat="43.43772" lon="-0.56817">
        <ele>153</ele>
        <time>2013-05-06T09:28:20Z</time>
      </trkpt>
      <trkpt lat="43.43773" lon="-0.56816">
        <ele>153</ele>
        <time>2013-05-06T09:28:21Z</time>
      </trkpt>
      <trkpt lat="43.43775" lon="-0.56816">
        <ele>154</ele>
        <time>2013-05-06T09:28:22Z</time>
      </trkpt>
      <trkpt lat="43.43777" lon="-0.56816">
        <ele>154</ele>
        <time>2013-05-06T09:28:23Z</time>
      </trkpt>
      <trkpt lat="43.43778" lon="-0.56817">
        <ele>155</ele>
        <time>2013-05-06T09:28:24Z</time>
      </trkpt>
      <trkpt lat="43.43779" lon="-0.56817">
        <ele>156</ele>
        <time>2013-05-06T09:28:25Z</time>
      </trkpt>
      <trkpt lat="43.43781" lon="-0.56817">
        <ele>157</ele>
        <time>2013-05-06T09:28:26Z</time>
      </trkpt>
      <trkpt lat="43.43783" lon="-0.56819">
        <ele>158</ele>
        <time>2013-05-06T09:28:27Z</time>
      </trkpt>
      <trkpt lat="43.43785" lon="-0.5682">
        <ele>158</ele>
        <time>2013-05-06T09:28:28Z</time>
      </trkpt>
      <trkpt lat="43.43787" lon="-0.56821">
        <ele>157</ele>
        <time>2013-05-06T09:28:29Z</time>
      </trkpt>
      <trkpt lat="43.43788" lon="-0.56823">
        <ele>157</ele>
        <time>2013-05-06T09:28:30Z</time>
      </trkpt>
      <trkpt lat="43.4379" lon="-0.56824">
        <ele>158</ele>
        <time>2013-05-06T09:28:31Z</time>
      </trkpt>
      <trkpt lat="43.43791" lon="-0.56826">
        <ele>158</ele>
        <time>2013-05-06T09:28:32Z</time>
      </trkpt>
      <trkpt lat="43.43792" lon="-0.56828">
        <ele>159</ele>
        <time>2013-05-06T09:28:33Z</time>
      </trkpt>
      <trkpt lat="43.43794" lon="-0.56831">
        <ele>158</ele>
        <time>2013-05-06T09:28:34Z</time>
      </trkpt>
      <trkpt lat="43.43796" lon="-0.56834">
        <ele>158</ele>
        <time>2013-05-06T09:28:35Z</time>
      </trkpt>
      <trkpt lat="43.43798" lon="-0.56837">
        <ele>158</ele>
        <time>2013-05-06T09:28:36Z</time>
      </trkpt>
      <trkpt lat="43.43798" lon="-0.56839">
        <ele>158</ele>
        <time>2013-05-06T09:28:37Z</time>
      </trkpt>
      <trkpt lat="43.43801" lon="-0.56844">
        <ele>159</ele>
        <time>2013-05-06T09:28:38Z</time>
      </trkpt>
      <trkpt lat="43.43802" lon="-0.56847">
        <ele>159</ele>
        <time>2013-05-06T09:28:39Z</time>
      </trkpt>
      <trkpt lat="43.43804" lon="-0.5685">
        <ele>158</ele>
        <time>2013-05-06T09:28:40Z</time>
      </trkpt>
      <trkpt lat="43.43805" lon="-0.56852">
        <ele>158</ele>
        <time>2013-05-06T09:28:41Z</time>
      </trkpt>
      <trkpt lat="43.43806" lon="-0.56854">
        <ele>157</ele>
        <time>2013-05-06T09:28:42Z</time>
      </trkpt>
      <trkpt lat="43.43807" lon="-0.56856">
        <ele>156</ele>
        <time>2013-05-06T09:28:43Z</time>
      </trkpt>
      <trkpt lat="43.43808" lon="-0.56858">
        <ele>156</ele>
        <time>2013-05-06T09:28:44Z</time>
      </trkpt>
      <trkpt lat="43.43809" lon="-0.5686">
        <ele>156</ele>
        <time>2013-05-06T09:28:45Z</time>
      </trkpt>
      <trkpt lat="43.4381" lon="-0.56862">
        <ele>156</ele>
        <time>2013-05-06T09:28:46Z</time>
      </trkpt>
      <trkpt lat="43.43811" lon="-0.56864">
        <ele>156</ele>
        <time>2013-05-06T09:28:47Z</time>
      </trkpt>
      <trkpt lat="43.43813" lon="-0.56865">
        <ele>157</ele>
        <time>2013-05-06T09:28:48Z</time>
      </trkpt>
      <trkpt lat="43.43814" lon="-0.56868">
        <ele>158</ele>
        <time>2013-05-06T09:28:49Z</time>
      </trkpt>
      <trkpt lat="43.43816" lon="-0.5687">
        <ele>158</ele>
        <time>2013-05-06T09:28:50Z</time>
      </trkpt>
      <trkpt lat="43.43817" lon="-0.56872">
        <ele>157</ele>
        <time>2013-05-06T09:28:51Z</time>
      </trkpt>
      <trkpt lat="43.43819" lon="-0.56875">
        <ele>158</ele>
        <time>2013-05-06T09:28:52Z</time>
      </trkpt>
      <trkpt lat="43.4382" lon="-0.56877">
        <ele>158</ele>
        <time>2013-05-06T09:28:53Z</time>
      </trkpt>
      <trkpt lat="43.43822" lon="-0.5688">
        <ele>158</ele>
        <time>2013-05-06T09:28:54Z</time>
      </trkpt>
      <trkpt lat="43.43823" lon="-0.56882">
        <ele>159</ele>
        <time>2013-05-06T09:28:55Z</time>
      </trkpt>
      <trkpt lat="43.43825" lon="-0.56885">
        <ele>159</ele>
        <time>2013-05-06T09:28:56Z</time>
      </trkpt>
      <trkpt lat="43.43826" lon="-0.56888">
        <ele>159</ele>
        <time>2013-05-06T09:28:57Z</time>
      </trkpt>
      <trkpt lat="43.43827" lon="-0.56891">
        <ele>159</ele>
        <time>2013-05-06T09:28:58Z</time>
      </trkpt>
      <trkpt lat="43.43829" lon="-0.56893">
        <ele>158</ele>
        <time>2013-05-06T09:28:59Z</time>
      </trkpt>
      <trkpt lat="43.4383" lon="-0.56895">
        <ele>157</ele>
        <time>2013-05-06T09:29:00Z</time>
      </trkpt>
      <trkpt lat="43.43831" lon="-0.56897">
        <ele>158</ele>
        <time>2013-05-06T09:29:01Z</time>
      </trkpt>
      <trkpt lat="43.43833" lon="-0.56898">
        <ele>157</ele>
        <time>2013-05-06T09:29:02Z</time>
      </trkpt>
      <trkpt lat="43.43834" lon="-0.56899">
        <ele>157</ele>
        <time>2013-05-06T09:29:03Z</time>
      </trkpt>
      <trkpt lat="43.43835" lon="-0.569">
        <ele>157</ele>
        <time>2013-05-06T09:29:04Z</time>
      </trkpt>
      <trkpt lat="43.43835" lon="-0.56901">
        <ele>158</ele>
        <time>2013-05-06T09:29:05Z</time>
      </trkpt>
      <trkpt lat="43.43836" lon="-0.56902">
        <ele>159</ele>
        <time>2013-05-06T09:29:06Z</time>
      </trkpt>
      <trkpt lat="43.43837" lon="-0.56903">
        <ele>159</ele>
        <time>2013-05-06T09:29:07Z</time>
      </trkpt>
      <trkpt lat="43.43838" lon="-0.56904">
        <ele>160</ele>
        <time>2013-05-06T09:29:08Z</time>
      </trkpt>
      <trkpt lat="43.43839" lon="-0.56905">
        <ele>160</ele>
        <time>2013-05-06T09:29:09Z</time>
      </trkpt>
      <trkpt lat="43.4384" lon="-0.56905">
        <ele>160</ele>
        <time>2013-05-06T09:29:10Z</time>
      </trkpt>
      <trkpt lat="43.43841" lon="-0.56906">
        <ele>160</ele>
        <time>2013-05-06T09:29:11Z</time>
      </trkpt>
      <trkpt lat="43.43842" lon="-0.56906">
        <ele>161</ele>
        <time>2013-05-06T09:29:12Z</time>
      </trkpt>
      <trkpt lat="43.43843" lon="-0.56906">
        <ele>160</ele>
        <time>2013-05-06T09:29:13Z</time>
      </trkpt>
      <trkpt lat="43.43844" lon="-0.56907">
        <ele>160</ele>
        <time>2013-05-06T09:29:14Z</time>
      </trkpt>
      <trkpt lat="43.43845" lon="-0.56907">
        <ele>160</ele>
        <time>2013-05-06T09:29:15Z</time>
      </trkpt>
      <trkpt lat="43.43846" lon="-0.56907">
        <ele>160</ele>
        <time>2013-05-06T09:29:16Z</time>
      </trkpt>
      <trkpt lat="43.43848" lon="-0.56907">
        <ele>160</ele>
        <time>2013-05-06T09:29:17Z</time>
      </trkpt>
      <trkpt lat="43.43849" lon="-0.56907">
        <ele>160</ele>
        <time>2013-05-06T09:29:18Z</time>
      </trkpt>
      <trkpt lat="43.4385" lon="-0.56907">
        <ele>159</ele>
        <time>2013-05-06T09:29:19Z</time>
      </trkpt>
      <trkpt lat="43.43852" lon="-0.56907">
        <ele>159</ele>
        <time>2013-05-06T09:29:20Z</time>
      </trkpt>
      <trkpt lat="43.43853" lon="-0.56906">
        <ele>159</ele>
        <time>2013-05-06T09:29:21Z</time>
      </trkpt>
      <trkpt lat="43.43855" lon="-0.56906">
        <ele>160</ele>
        <time>2013-05-06T09:29:22Z</time>
      </trkpt>
      <trkpt lat="43.43856" lon="-0.56906">
        <ele>161</ele>
        <time>2013-05-06T09:29:23Z</time>
      </trkpt>
      <trkpt lat="43.43858" lon="-0.56905">
        <ele>161</ele>
        <time>2013-05-06T09:29:24Z</time>
      </trkpt>
      <trkpt lat="43.43859" lon="-0.56905">
        <ele>161</ele>
        <time>2013-05-06T09:29:25Z</time>
      </trkpt>
      <trkpt lat="43.43861" lon="-0.56905">
        <ele>161</ele>
        <time>2013-05-06T09:29:26Z</time>
      </trkpt>
      <trkpt lat="43.43863" lon="-0.56905">
        <ele>159</ele>
        <time>2013-05-06T09:29:27Z</time>
      </trkpt>
      <trkpt lat="43.43864" lon="-0.56904">
        <ele>160</ele>
        <time>2013-05-06T09:29:28Z</time>
      </trkpt>
      <trkpt lat="43.43866" lon="-0.56904">
        <ele>160</ele>
        <time>2013-05-06T09:29:29Z</time>
      </trkpt>
      <trkpt lat="43.43868" lon="-0.56904">
        <ele>160</ele>
        <time>2013-05-06T09:29:30Z</time>
      </trkpt>
      <trkpt lat="43.43869" lon="-0.56904">
        <ele>160</ele>
        <time>2013-05-06T09:29:31Z</time>
      </trkpt>
      <trkpt lat="43.4387" lon="-0.56904">
        <ele>160</ele>
        <time>2013-05-06T09:29:32Z</time>
      </trkpt>
      <trkpt lat="43.43872" lon="-0.56905">
        <ele>160</ele>
        <time>2013-05-06T09:29:33Z</time>
      </trkpt>
      <trkpt lat="43.43873" lon="-0.56906">
        <ele>159</ele>
        <time>2013-05-06T09:29:34Z</time>
      </trkpt>
      <trkpt lat="43.43875" lon="-0.56908">
        <ele>160</ele>
        <time>2013-05-06T09:29:35Z</time>
      </trkpt>
      <trkpt lat="43.43877" lon="-0.56909">
        <ele>160</ele>
        <time>2013-05-06T09:29:36Z</time>
      </trkpt>
      <trkpt lat="43.43879" lon="-0.56911">
        <ele>160</ele>
        <time>2013-05-06T09:29:37Z</time>
      </trkpt>
      <trkpt lat="43.43881" lon="-0.56912">
        <ele>161</ele>
        <time>2013-05-06T09:29:38Z</time>
      </trkpt>
      <trkpt lat="43.43883" lon="-0.56914">
        <ele>161</ele>
        <time>2013-05-06T09:29:39Z</time>
      </trkpt>
      <trkpt lat="43.43885" lon="-0.56915">
        <ele>161</ele>
        <time>2013-05-06T09:29:40Z</time>
      </trkpt>
      <trkpt lat="43.43887" lon="-0.56916">
        <ele>161</ele>
        <time>2013-05-06T09:29:41Z</time>
      </trkpt>
      <trkpt lat="43.43889" lon="-0.56917">
        <ele>161</ele>
        <time>2013-05-06T09:29:42Z</time>
      </trkpt>
      <trkpt lat="43.43891" lon="-0.56918">
        <ele>162</ele>
        <time>2013-05-06T09:29:43Z</time>
      </trkpt>
      <trkpt lat="43.43893" lon="-0.56919">
        <ele>163</ele>
        <time>2013-05-06T09:29:44Z</time>
      </trkpt>
      <trkpt lat="43.43895" lon="-0.56919">
        <ele>163</ele>
        <time>2013-05-06T09:29:45Z</time>
      </trkpt>
      <trkpt lat="43.43897" lon="-0.56919">
        <ele>163</ele>
        <time>2013-05-06T09:29:46Z</time>
      </trkpt>
      <trkpt lat="43.43898" lon="-0.56919">
        <ele>162</ele>
        <time>2013-05-06T09:29:47Z</time>
      </trkpt>
      <trkpt lat="43.439" lon="-0.56918">
        <ele>162</ele>
        <time>2013-05-06T09:29:48Z</time>
      </trkpt>
      <trkpt lat="43.43903" lon="-0.56917">
        <ele>163</ele>
        <time>2013-05-06T09:29:49Z</time>
      </trkpt>
      <trkpt lat="43.43905" lon="-0.56917">
        <ele>164</ele>
        <time>2013-05-06T09:29:50Z</time>
      </trkpt>
      <trkpt lat="43.43907" lon="-0.56917">
        <ele>165</ele>
        <time>2013-05-06T09:29:51Z</time>
      </trkpt>
      <trkpt lat="43.4391" lon="-0.56917">
        <ele>164</ele>
        <time>2013-05-06T09:29:52Z</time>
      </trkpt>
      <trkpt lat="43.43912" lon="-0.56917">
        <ele>164</ele>
        <time>2013-05-06T09:29:53Z</time>
      </trkpt>
      <trkpt lat="43.43913" lon="-0.56917">
        <ele>164</ele>
        <time>2013-05-06T09:29:54Z</time>
      </trkpt>
      <trkpt lat="43.43915" lon="-0.56916">
        <ele>164</ele>
        <time>2013-05-06T09:29:55Z</time>
      </trkpt>
      <trkpt lat="43.43916" lon="-0.56915">
        <ele>164</ele>
        <time>2013-05-06T09:29:56Z</time>
      </trkpt>
      <trkpt lat="43.43916" lon="-0.56914">
        <ele>163</ele>
        <time>2013-05-06T09:29:57Z</time>
      </trkpt>
      <trkpt lat="43.43916" lon="-0.56913">
        <ele>162</ele>
        <time>2013-05-06T09:29:58Z</time>
      </trkpt>
      <trkpt lat="43.43916" lon="-0.56912">
        <ele>163</ele>
        <time>2013-05-06T09:29:59Z</time>
      </trkpt>
      <trkpt lat="43.43916" lon="-0.56911">
        <ele>163</ele>
        <time>2013-05-06T09:30:00Z</time>
      </trkpt>
      <trkpt lat="43.43915" lon="-0.56909">
        <ele>163</ele>
        <time>2013-05-06T09:30:01Z</time>
      </trkpt>
      <trkpt lat="43.43914" lon="-0.56908">
        <ele>163</ele>
        <time>2013-05-06T09:30:02Z</time>
      </trkpt>
      <trkpt lat="43.43913" lon="-0.56907">
        <ele>163</ele>
        <time>2013-05-06T09:30:03Z</time>
      </trkpt>
      <trkpt lat="43.43914" lon="-0.56905">
        <ele>161</ele>
        <time>2013-05-06T09:30:04Z</time>
      </trkpt>
      <trkpt lat="43.43914" lon="-0.56903">
        <ele>161</ele>
        <time>2013-05-06T09:30:05Z</time>
      </trkpt>
      <trkpt lat="43.43914" lon="-0.569">
        <ele>160</ele>
        <time>2013-05-06T09:30:06Z</time>
      </trkpt>
      <trkpt lat="43.43915" lon="-0.56898">
        <ele>161</ele>
        <time>2013-05-06T09:30:07Z</time>
      </trkpt>
      <trkpt lat="43.43916" lon="-0.56896">
        <ele>161</ele>
        <time>2013-05-06T09:30:08Z</time>
      </trkpt>
      <trkpt lat="43.43918" lon="-0.56894">
        <ele>161</ele>
        <time>2013-05-06T09:30:09Z</time>
      </trkpt>
      <trkpt lat="43.43919" lon="-0.56892">
        <ele>161</ele>
        <time>2013-05-06T09:30:10Z</time>
      </trkpt>
      <trkpt lat="43.43921" lon="-0.56891">
        <ele>161</ele>
        <time>2013-05-06T09:30:11Z</time>
      </trkpt>
      <trkpt lat="43.43922" lon="-0.56891">
        <ele>162</ele>
        <time>2013-05-06T09:30:12Z</time>
      </trkpt>
      <trkpt lat="43.43923" lon="-0.56889">
        <ele>158</ele>
        <time>2013-05-06T09:30:13Z</time>
      </trkpt>
      <trkpt lat="43.43925" lon="-0.56887">
        <ele>158</ele>
        <time>2013-05-06T09:30:14Z</time>
      </trkpt>
      <trkpt lat="43.43927" lon="-0.56885">
        <ele>159</ele>
        <time>2013-05-06T09:30:15Z</time>
      </trkpt>
      <trkpt lat="43.43929" lon="-0.56883">
        <ele>158</ele>
        <time>2013-05-06T09:30:16Z</time>
      </trkpt>
      <trkpt lat="43.43931" lon="-0.5688">
        <ele>159</ele>
        <time>2013-05-06T09:30:17Z</time>
      </trkpt>
      <trkpt lat="43.43933" lon="-0.56878">
        <ele>159</ele>
        <time>2013-05-06T09:30:18Z</time>
      </trkpt>
      <trkpt lat="43.43934" lon="-0.56876">
        <ele>160</ele>
        <time>2013-05-06T09:30:19Z</time>
      </trkpt>
      <trkpt lat="43.43935" lon="-0.56874">
        <ele>159</ele>
        <time>2013-05-06T09:30:20Z</time>
      </trkpt>
      <trkpt lat="43.43936" lon="-0.56872">
        <ele>159</ele>
        <time>2013-05-06T09:30:21Z</time>
      </trkpt>
      <trkpt lat="43.43937" lon="-0.5687">
        <ele>160</ele>
        <time>2013-05-06T09:30:22Z</time>
      </trkpt>
      <trkpt lat="43.43938" lon="-0.56867">
        <ele>161</ele>
        <time>2013-05-06T09:30:23Z</time>
      </trkpt>
      <trkpt lat="43.4394" lon="-0.56865">
        <ele>163</ele>
        <time>2013-05-06T09:30:24Z</time>
      </trkpt>
      <trkpt lat="43.43941" lon="-0.56864">
        <ele>164</ele>
        <time>2013-05-06T09:30:25Z</time>
      </trkpt>
      <trkpt lat="43.43942" lon="-0.56863">
        <ele>165</ele>
        <time>2013-05-06T09:30:26Z</time>
      </trkpt>
      <trkpt lat="43.43943" lon="-0.56863">
        <ele>165</ele>
        <time>2013-05-06T09:30:27Z</time>
      </trkpt>
      <trkpt lat="43.43944" lon="-0.56862">
        <ele>166</ele>
        <time>2013-05-06T09:30:28Z</time>
      </trkpt>
      <trkpt lat="43.43945" lon="-0.56862">
        <ele>167</ele>
        <time>2013-05-06T09:30:29Z</time>
      </trkpt>
      <trkpt lat="43.43947" lon="-0.56861">
        <ele>167</ele>
        <time>2013-05-06T09:30:30Z</time>
      </trkpt>
      <trkpt lat="43.43948" lon="-0.56861">
        <ele>167</ele>
        <time>2013-05-06T09:30:31Z</time>
      </trkpt>
      <trkpt lat="43.43951" lon="-0.56861">
        <ele>167</ele>
        <time>2013-05-06T09:30:32Z</time>
      </trkpt>
      <trkpt lat="43.43952" lon="-0.5686">
        <ele>167</ele>
        <time>2013-05-06T09:30:33Z</time>
      </trkpt>
      <trkpt lat="43.43953" lon="-0.56859">
        <ele>167</ele>
        <time>2013-05-06T09:30:34Z</time>
      </trkpt>
      <trkpt lat="43.43955" lon="-0.56857">
        <ele>168</ele>
        <time>2013-05-06T09:30:35Z</time>
      </trkpt>
      <trkpt lat="43.43956" lon="-0.56856">
        <ele>169</ele>
        <time>2013-05-06T09:30:36Z</time>
      </trkpt>
      <trkpt lat="43.43957" lon="-0.56854">
        <ele>170</ele>
        <time>2013-05-06T09:30:37Z</time>
      </trkpt>
      <trkpt lat="43.43958" lon="-0.56852">
        <ele>171</ele>
        <time>2013-05-06T09:30:38Z</time>
      </trkpt>
      <trkpt lat="43.43959" lon="-0.5685">
        <ele>170</ele>
        <time>2013-05-06T09:30:39Z</time>
      </trkpt>
      <trkpt lat="43.4396" lon="-0.56848">
        <ele>171</ele>
        <time>2013-05-06T09:30:40Z</time>
      </trkpt>
      <trkpt lat="43.43961" lon="-0.56846">
        <ele>171</ele>
        <time>2013-05-06T09:30:41Z</time>
      </trkpt>
      <trkpt lat="43.43962" lon="-0.56846">
        <ele>171</ele>
        <time>2013-05-06T09:30:42Z</time>
      </trkpt>
      <trkpt lat="43.43963" lon="-0.56845">
        <ele>170</ele>
        <time>2013-05-06T09:30:43Z</time>
      </trkpt>
      <trkpt lat="43.43964" lon="-0.56844">
        <ele>171</ele>
        <time>2013-05-06T09:30:44Z</time>
      </trkpt>
      <trkpt lat="43.43964" lon="-0.56844">
        <ele>170</ele>
        <time>2013-05-06T09:30:45Z</time>
      </trkpt>
      <trkpt lat="43.43964" lon="-0.56843">
        <ele>171</ele>
        <time>2013-05-06T09:30:46Z</time>
      </trkpt>
      <trkpt lat="43.43964" lon="-0.56842">
        <ele>170</ele>
        <time>2013-05-06T09:30:47Z</time>
      </trkpt>
      <trkpt lat="43.43963" lon="-0.56841">
        <ele>172</ele>
        <time>2013-05-06T09:30:48Z</time>
      </trkpt>
      <trkpt lat="43.43963" lon="-0.5684">
        <ele>172</ele>
        <time>2013-05-06T09:30:49Z</time>
      </trkpt>
      <trkpt lat="43.43962" lon="-0.56839">
        <ele>173</ele>
        <time>2013-05-06T09:30:50Z</time>
      </trkpt>
      <trkpt lat="43.4396" lon="-0.56837">
        <ele>174</ele>
        <time>2013-05-06T09:30:51Z</time>
      </trkpt>
      <trkpt lat="43.43958" lon="-0.56835">
        <ele>174</ele>
        <time>2013-05-06T09:30:52Z</time>
      </trkpt>
      <trkpt lat="43.43956" lon="-0.56833">
        <ele>174</ele>
        <time>2013-05-06T09:30:53Z</time>
      </trkpt>
      <trkpt lat="43.43955" lon="-0.56831">
        <ele>176</ele>
        <time>2013-05-06T09:30:54Z</time>
      </trkpt>
      <trkpt lat="43.43953" lon="-0.5683">
        <ele>176</ele>
        <time>2013-05-06T09:30:55Z</time>
      </trkpt>
      <trkpt lat="43.43953" lon="-0.56828">
        <ele>176</ele>
        <time>2013-05-06T09:30:56Z</time>
      </trkpt>
      <trkpt lat="43.43952" lon="-0.56826">
        <ele>177</ele>
        <time>2013-05-06T09:30:57Z</time>
      </trkpt>
      <trkpt lat="43.43951" lon="-0.56824">
        <ele>177</ele>
        <time>2013-05-06T09:30:58Z</time>
      </trkpt>
      <trkpt lat="43.43951" lon="-0.56823">
        <ele>178</ele>
        <time>2013-05-06T09:30:59Z</time>
      </trkpt>
      <trkpt lat="43.4395" lon="-0.56822">
        <ele>179</ele>
        <time>2013-05-06T09:31:00Z</time>
      </trkpt>
      <trkpt lat="43.43949" lon="-0.56821">
        <ele>181</ele>
        <time>2013-05-06T09:31:01Z</time>
      </trkpt>
      <trkpt lat="43.43947" lon="-0.56821">
        <ele>181</ele>
        <time>2013-05-06T09:31:02Z</time>
      </trkpt>
      <trkpt lat="43.43945" lon="-0.5682">
        <ele>181</ele>
        <time>2013-05-06T09:31:03Z</time>
      </trkpt>
      <trkpt lat="43.43944" lon="-0.56819">
        <ele>182</ele>
        <time>2013-05-06T09:31:04Z</time>
      </trkpt>
      <trkpt lat="43.43942" lon="-0.56818">
        <ele>182</ele>
        <time>2013-05-06T09:31:05Z</time>
      </trkpt>
      <trkpt lat="43.4394" lon="-0.56818">
        <ele>182</ele>
        <time>2013-05-06T09:31:06Z</time>
      </trkpt>
      <trkpt lat="43.43938" lon="-0.56816">
        <ele>182</ele>
        <time>2013-05-06T09:31:07Z</time>
      </trkpt>
      <trkpt lat="43.43937" lon="-0.56815">
        <ele>181</ele>
        <time>2013-05-06T09:31:08Z</time>
      </trkpt>
      <trkpt lat="43.43936" lon="-0.56814">
        <ele>181</ele>
        <time>2013-05-06T09:31:09Z</time>
      </trkpt>
      <trkpt lat="43.43935" lon="-0.56813">
        <ele>181</ele>
        <time>2013-05-06T09:31:10Z</time>
      </trkpt>
      <trkpt lat="43.43934" lon="-0.56812">
        <ele>181</ele>
        <time>2013-05-06T09:31:11Z</time>
      </trkpt>
      <trkpt lat="43.43934" lon="-0.56811">
        <ele>181</ele>
        <time>2013-05-06T09:31:12Z</time>
      </trkpt>
      <trkpt lat="43.43933" lon="-0.56811">
        <ele>183</ele>
        <time>2013-05-06T09:31:13Z</time>
      </trkpt>
      <trkpt lat="43.43932" lon="-0.5681">
        <ele>183</ele>
        <time>2013-05-06T09:31:14Z</time>
      </trkpt>
      <trkpt lat="43.43932" lon="-0.56809">
        <ele>183</ele>
        <time>2013-05-06T09:31:15Z</time>
      </trkpt>
      <trkpt lat="43.43931" lon="-0.56808">
        <ele>184</ele>
        <time>2013-05-06T09:31:16Z</time>
      </trkpt>
      <trkpt lat="43.4393" lon="-0.56806">
        <ele>185</ele>
        <time>2013-05-06T09:31:17Z</time>
      </trkpt>
      <trkpt lat="43.4393" lon="-0.56804">
        <ele>186</ele>
        <time>2013-05-06T09:31:18Z</time>
      </trkpt>
      <trkpt lat="43.43929" lon="-0.56803">
        <ele>186</ele>
        <time>2013-05-06T09:31:19Z</time>
      </trkpt>
      <trkpt lat="43.43929" lon="-0.56801">
        <ele>187</ele>
        <time>2013-05-06T09:31:20Z</time>
      </trkpt>
      <trkpt lat="43.43928" lon="-0.568">
        <ele>187</ele>
        <time>2013-05-06T09:31:21Z</time>
      </trkpt>
      <trkpt lat="43.43927" lon="-0.56797">
        <ele>188</ele>
        <time>2013-05-06T09:31:22Z</time>
      </trkpt>
      <trkpt lat="43.43927" lon="-0.56796">
        <ele>188</ele>
        <time>2013-05-06T09:31:23Z</time>
      </trkpt>
      <trkpt lat="43.43927" lon="-0.56793">
        <ele>189</ele>
        <time>2013-05-06T09:31:24Z</time>
      </trkpt>
      <trkpt lat="43.43926" lon="-0.56791">
        <ele>188</ele>
        <time>2013-05-06T09:31:25Z</time>
      </trkpt>
      <trkpt lat="43.43926" lon="-0.56789">
        <ele>188</ele>
        <time>2013-05-06T09:31:26Z</time>
      </trkpt>
      <trkpt lat="43.43926" lon="-0.56787">
        <ele>188</ele>
        <time>2013-05-06T09:31:27Z</time>
      </trkpt>
      <trkpt lat="43.43926" lon="-0.56784">
        <ele>189</ele>
        <time>2013-05-06T09:31:28Z</time>
      </trkpt>
      <trkpt lat="43.43925" lon="-0.56783">
        <ele>189</ele>
        <time>2013-05-06T09:31:29Z</time>
      </trkpt>
      <trkpt lat="43.43925" lon="-0.56781">
        <ele>189</ele>
        <time>2013-05-06T09:31:30Z</time>
      </trkpt>
      <trkpt lat="43.43925" lon="-0.56779">
        <ele>190</ele>
        <time>2013-05-06T09:31:31Z</time>
      </trkpt>
      <trkpt lat="43.43925" lon="-0.56776">
        <ele>190</ele>
        <time>2013-05-06T09:31:32Z</time>
      </trkpt>
      <trkpt lat="43.43925" lon="-0.56773">
        <ele>190</ele>
        <time>2013-05-06T09:31:33Z</time>
      </trkpt>
      <trkpt lat="43.43925" lon="-0.5677">
        <ele>190</ele>
        <time>2013-05-06T09:31:34Z</time>
      </trkpt>
      <trkpt lat="43.43924" lon="-0.56768">
        <ele>190</ele>
        <time>2013-05-06T09:31:35Z</time>
      </trkpt>
      <trkpt lat="43.43925" lon="-0.56765">
        <ele>190</ele>
        <time>2013-05-06T09:31:36Z</time>
      </trkpt>
      <trkpt lat="43.43925" lon="-0.56763">
        <ele>189</ele>
        <time>2013-05-06T09:31:37Z</time>
      </trkpt>
      <trkpt lat="43.43925" lon="-0.56762">
        <ele>189</ele>
        <time>2013-05-06T09:31:38Z</time>
      </trkpt>
      <trkpt lat="43.43925" lon="-0.5676">
        <ele>193</ele>
        <time>2013-05-06T09:31:39Z</time>
      </trkpt>
      <trkpt lat="43.43924" lon="-0.56758">
        <ele>194</ele>
        <time>2013-05-06T09:31:40Z</time>
      </trkpt>
      <trkpt lat="43.43924" lon="-0.56756">
        <ele>194</ele>
        <time>2013-05-06T09:31:41Z</time>
      </trkpt>
      <trkpt lat="43.43924" lon="-0.56753">
        <ele>194</ele>
        <time>2013-05-06T09:31:42Z</time>
      </trkpt>
      <trkpt lat="43.43923" lon="-0.56751">
        <ele>194</ele>
        <time>2013-05-06T09:31:43Z</time>
      </trkpt>
      <trkpt lat="43.43922" lon="-0.56748">
        <ele>193</ele>
        <time>2013-05-06T09:31:44Z</time>
      </trkpt>
      <trkpt lat="43.43922" lon="-0.56746">
        <ele>194</ele>
        <time>2013-05-06T09:31:45Z</time>
      </trkpt>
      <trkpt lat="43.43921" lon="-0.56744">
        <ele>195</ele>
        <time>2013-05-06T09:31:46Z</time>
      </trkpt>
      <trkpt lat="43.4392" lon="-0.56742">
        <ele>195</ele>
        <time>2013-05-06T09:31:47Z</time>
      </trkpt>
      <trkpt lat="43.43919" lon="-0.5674">
        <ele>195</ele>
        <time>2013-05-06T09:31:48Z</time>
      </trkpt>
      <trkpt lat="43.43918" lon="-0.56738">
        <ele>195</ele>
        <time>2013-05-06T09:31:49Z</time>
      </trkpt>
      <trkpt lat="43.43918" lon="-0.56736">
        <ele>196</ele>
        <time>2013-05-06T09:31:50Z</time>
      </trkpt>
      <trkpt lat="43.43917" lon="-0.56733">
        <ele>194</ele>
        <time>2013-05-06T09:31:51Z</time>
      </trkpt>
      <trkpt lat="43.43916" lon="-0.5673">
        <ele>194</ele>
        <time>2013-05-06T09:31:52Z</time>
      </trkpt>
      <trkpt lat="43.43915" lon="-0.56728">
        <ele>195</ele>
        <time>2013-05-06T09:31:53Z</time>
      </trkpt>
      <trkpt lat="43.43915" lon="-0.56724">
        <ele>195</ele>
        <time>2013-05-06T09:31:54Z</time>
      </trkpt>
      <trkpt lat="43.43914" lon="-0.56722">
        <ele>196</ele>
        <time>2013-05-06T09:31:55Z</time>
      </trkpt>
      <trkpt lat="43.43913" lon="-0.5672">
        <ele>196</ele>
        <time>2013-05-06T09:31:56Z</time>
      </trkpt>
      <trkpt lat="43.43914" lon="-0.56718">
        <ele>195</ele>
        <time>2013-05-06T09:31:57Z</time>
      </trkpt>
      <trkpt lat="43.43914" lon="-0.56716">
        <ele>199</ele>
        <time>2013-05-06T09:31:58Z</time>
      </trkpt>
      <trkpt lat="43.43914" lon="-0.56714">
        <ele>200</ele>
        <time>2013-05-06T09:31:59Z</time>
      </trkpt>
      <trkpt lat="43.43914" lon="-0.56712">
        <ele>200</ele>
        <time>2013-05-06T09:32:00Z</time>
      </trkpt>
      <trkpt lat="43.43915" lon="-0.5671">
        <ele>197</ele>
        <time>2013-05-06T09:32:01Z</time>
      </trkpt>
      <trkpt lat="43.43915" lon="-0.56707">
        <ele>197</ele>
        <time>2013-05-06T09:32:02Z</time>
      </trkpt>
      <trkpt lat="43.43915" lon="-0.56705">
        <ele>197</ele>
        <time>2013-05-06T09:32:03Z</time>
      </trkpt>
      <trkpt lat="43.43916" lon="-0.56703">
        <ele>195</ele>
        <time>2013-05-06T09:32:04Z</time>
      </trkpt>
      <trkpt lat="43.43916" lon="-0.56702">
        <ele>193</ele>
        <time>2013-05-06T09:32:05Z</time>
      </trkpt>
      <trkpt lat="43.43916" lon="-0.56701">
        <ele>192</ele>
        <time>2013-05-06T09:32:06Z</time>
      </trkpt>
      <trkpt lat="43.43916" lon="-0.56699">
        <ele>192</ele>
        <time>2013-05-06T09:32:07Z</time>
      </trkpt>
      <trkpt lat="43.43916" lon="-0.56698">
        <ele>193</ele>
        <time>2013-05-06T09:32:08Z</time>
      </trkpt>
      <trkpt lat="43.43916" lon="-0.56698">
        <ele>196</ele>
        <time>2013-05-06T09:32:09Z</time>
      </trkpt>
      <trkpt lat="43.43915" lon="-0.56696">
        <ele>196</ele>
        <time>2013-05-06T09:32:10Z</time>
      </trkpt>
      <trkpt lat="43.43914" lon="-0.56695">
        <ele>196</ele>
        <time>2013-05-06T09:32:11Z</time>
      </trkpt>
      <trkpt lat="43.43914" lon="-0.56694">
        <ele>196</ele>
        <time>2013-05-06T09:32:12Z</time>
      </trkpt>
      <trkpt lat="43.43912" lon="-0.56693">
        <ele>195</ele>
        <time>2013-05-06T09:32:13Z</time>
      </trkpt>
      <trkpt lat="43.43911" lon="-0.56692">
        <ele>195</ele>
        <time>2013-05-06T09:32:14Z</time>
      </trkpt>
      <trkpt lat="43.4391" lon="-0.56692">
        <ele>195</ele>
        <time>2013-05-06T09:32:15Z</time>
      </trkpt>
      <trkpt lat="43.43909" lon="-0.56692">
        <ele>195</ele>
        <time>2013-05-06T09:32:16Z</time>
      </trkpt>
      <trkpt lat="43.43908" lon="-0.56692">
        <ele>195</ele>
        <time>2013-05-06T09:32:17Z</time>
      </trkpt>
      <trkpt lat="43.43907" lon="-0.56692">
        <ele>195</ele>
        <time>2013-05-06T09:32:18Z</time>
      </trkpt>
      <trkpt lat="43.43906" lon="-0.56691">
        <ele>197</ele>
        <time>2013-05-06T09:32:19Z</time>
      </trkpt>
      <trkpt lat="43.43905" lon="-0.5669">
        <ele>197</ele>
        <time>2013-05-06T09:32:20Z</time>
      </trkpt>
      <trkpt lat="43.43904" lon="-0.5669">
        <ele>196</ele>
        <time>2013-05-06T09:32:21Z</time>
      </trkpt>
      <trkpt lat="43.43903" lon="-0.56689">
        <ele>196</ele>
        <time>2013-05-06T09:32:22Z</time>
      </trkpt>
      <trkpt lat="43.43901" lon="-0.56689">
        <ele>197</ele>
        <time>2013-05-06T09:32:23Z</time>
      </trkpt>
      <trkpt lat="43.43901" lon="-0.56689">
        <ele>197</ele>
        <time>2013-05-06T09:32:24Z</time>
      </trkpt>
      <trkpt lat="43.439" lon="-0.56688">
        <ele>197</ele>
        <time>2013-05-06T09:32:25Z</time>
      </trkpt>
      <trkpt lat="43.43899" lon="-0.56687">
        <ele>198</ele>
        <time>2013-05-06T09:32:26Z</time>
      </trkpt>
      <trkpt lat="43.43899" lon="-0.56686">
        <ele>198</ele>
        <time>2013-05-06T09:32:27Z</time>
      </trkpt>
      <trkpt lat="43.43898" lon="-0.56685">
        <ele>198</ele>
        <time>2013-05-06T09:32:28Z</time>
      </trkpt>
      <trkpt lat="43.43898" lon="-0.56684">
        <ele>197</ele>
        <time>2013-05-06T09:32:29Z</time>
      </trkpt>
      <trkpt lat="43.43898" lon="-0.56682">
        <ele>198</ele>
        <time>2013-05-06T09:32:30Z</time>
      </trkpt>
      <trkpt lat="43.43897" lon="-0.56681">
        <ele>198</ele>
        <time>2013-05-06T09:32:31Z</time>
      </trkpt>
      <trkpt lat="43.43897" lon="-0.56679">
        <ele>198</ele>
        <time>2013-05-06T09:32:32Z</time>
      </trkpt>
      <trkpt lat="43.43897" lon="-0.56676">
        <ele>199</ele>
        <time>2013-05-06T09:32:33Z</time>
      </trkpt>
      <trkpt lat="43.43897" lon="-0.56674">
        <ele>199</ele>
        <time>2013-05-06T09:32:34Z</time>
      </trkpt>
      <trkpt lat="43.43897" lon="-0.56671">
        <ele>200</ele>
        <time>2013-05-06T09:32:35Z</time>
      </trkpt>
      <trkpt lat="43.43897" lon="-0.5667">
        <ele>200</ele>
        <time>2013-05-06T09:32:36Z</time>
      </trkpt>
      <trkpt lat="43.43896" lon="-0.56668">
        <ele>200</ele>
        <time>2013-05-06T09:32:37Z</time>
      </trkpt>
      <trkpt lat="43.43896" lon="-0.56667">
        <ele>200</ele>
        <time>2013-05-06T09:32:38Z</time>
      </trkpt>
      <trkpt lat="43.43895" lon="-0.56665">
        <ele>199</ele>
        <time>2013-05-06T09:32:39Z</time>
      </trkpt>
      <trkpt lat="43.43894" lon="-0.56664">
        <ele>200</ele>
        <time>2013-05-06T09:32:40Z</time>
      </trkpt>
      <trkpt lat="43.43893" lon="-0.56662">
        <ele>199</ele>
        <time>2013-05-06T09:32:41Z</time>
      </trkpt>
      <trkpt lat="43.43892" lon="-0.5666">
        <ele>198</ele>
        <time>2013-05-06T09:32:42Z</time>
      </trkpt>
      <trkpt lat="43.43891" lon="-0.56657">
        <ele>198</ele>
        <time>2013-05-06T09:32:43Z</time>
      </trkpt>
      <trkpt lat="43.4389" lon="-0.56656">
        <ele>198</ele>
        <time>2013-05-06T09:32:44Z</time>
      </trkpt>
      <trkpt lat="43.43888" lon="-0.56654">
        <ele>199</ele>
        <time>2013-05-06T09:32:45Z</time>
      </trkpt>
      <trkpt lat="43.43887" lon="-0.56652">
        <ele>198</ele>
        <time>2013-05-06T09:32:46Z</time>
      </trkpt>
      <trkpt lat="43.43884" lon="-0.56649">
        <ele>197</ele>
        <time>2013-05-06T09:32:47Z</time>
      </trkpt>
      <trkpt lat="43.43882" lon="-0.56646">
        <ele>198</ele>
        <time>2013-05-06T09:32:48Z</time>
      </trkpt>
      <trkpt lat="43.43881" lon="-0.56645">
        <ele>198</ele>
        <time>2013-05-06T09:32:49Z</time>
      </trkpt>
      <trkpt lat="43.43879" lon="-0.5664">
        <ele>199</ele>
        <time>2013-05-06T09:32:50Z</time>
      </trkpt>
      <trkpt lat="43.43878" lon="-0.56637">
        <ele>199</ele>
        <time>2013-05-06T09:32:51Z</time>
      </trkpt>
      <trkpt lat="43.43877" lon="-0.56633">
        <ele>199</ele>
        <time>2013-05-06T09:32:52Z</time>
      </trkpt>
      <trkpt lat="43.43876" lon="-0.56629">
        <ele>199</ele>
        <time>2013-05-06T09:32:53Z</time>
      </trkpt>
      <trkpt lat="43.43876" lon="-0.56626">
        <ele>198</ele>
        <time>2013-05-06T09:32:54Z</time>
      </trkpt>
      <trkpt lat="43.43875" lon="-0.56623">
        <ele>198</ele>
        <time>2013-05-06T09:32:55Z</time>
      </trkpt>
      <trkpt lat="43.43874" lon="-0.5662">
        <ele>198</ele>
        <time>2013-05-06T09:32:56Z</time>
      </trkpt>
      <trkpt lat="43.43873" lon="-0.56617">
        <ele>198</ele>
        <time>2013-05-06T09:32:57Z</time>
      </trkpt>
      <trkpt lat="43.43872" lon="-0.56615">
        <ele>198</ele>
        <time>2013-05-06T09:32:58Z</time>
      </trkpt>
      <trkpt lat="43.43871" lon="-0.56612">
        <ele>198</ele>
        <time>2013-05-06T09:32:59Z</time>
      </trkpt>
      <trkpt lat="43.43871" lon="-0.56609">
        <ele>198</ele>
        <time>2013-05-06T09:33:00Z</time>
      </trkpt>
      <trkpt lat="43.4387" lon="-0.56606">
        <ele>198</ele>
        <time>2013-05-06T09:33:01Z</time>
      </trkpt>
      <trkpt lat="43.43869" lon="-0.56604">
        <ele>198</ele>
        <time>2013-05-06T09:33:02Z</time>
      </trkpt>
      <trkpt lat="43.43869" lon="-0.56601">
        <ele>198</ele>
        <time>2013-05-06T09:33:03Z</time>
      </trkpt>
      <trkpt lat="43.43868" lon="-0.56598">
        <ele>200</ele>
        <time>2013-05-06T09:33:04Z</time>
      </trkpt>
      <trkpt lat="43.43866" lon="-0.56594">
        <ele>201</ele>
        <time>2013-05-06T09:33:05Z</time>
      </trkpt>
      <trkpt lat="43.43865" lon="-0.56592">
        <ele>202</ele>
        <time>2013-05-06T09:33:06Z</time>
      </trkpt>
      <trkpt lat="43.43863" lon="-0.5659">
        <ele>201</ele>
        <time>2013-05-06T09:33:07Z</time>
      </trkpt>
      <trkpt lat="43.43863" lon="-0.56589">
        <ele>201</ele>
        <time>2013-05-06T09:33:08Z</time>
      </trkpt>
      <trkpt lat="43.43861" lon="-0.56585">
        <ele>200</ele>
        <time>2013-05-06T09:33:09Z</time>
      </trkpt>
      <trkpt lat="43.4386" lon="-0.56583">
        <ele>200</ele>
        <time>2013-05-06T09:33:10Z</time>
      </trkpt>
      <trkpt lat="43.43859" lon="-0.5658">
        <ele>200</ele>
        <time>2013-05-06T09:33:11Z</time>
      </trkpt>
      <trkpt lat="43.43858" lon="-0.56577">
        <ele>201</ele>
        <time>2013-05-06T09:33:12Z</time>
      </trkpt>
      <trkpt lat="43.43858" lon="-0.56574">
        <ele>201</ele>
        <time>2013-05-06T09:33:13Z</time>
      </trkpt>
      <trkpt lat="43.43857" lon="-0.56572">
        <ele>201</ele>
        <time>2013-05-06T09:33:14Z</time>
      </trkpt>
      <trkpt lat="43.43855" lon="-0.56568">
        <ele>202</ele>
        <time>2013-05-06T09:33:15Z</time>
      </trkpt>
      <trkpt lat="43.43854" lon="-0.56565">
        <ele>202</ele>
        <time>2013-05-06T09:33:16Z</time>
      </trkpt>
      <trkpt lat="43.43853" lon="-0.56561">
        <ele>201</ele>
        <time>2013-05-06T09:33:17Z</time>
      </trkpt>
      <trkpt lat="43.43852" lon="-0.56557">
        <ele>202</ele>
        <time>2013-05-06T09:33:18Z</time>
      </trkpt>
      <trkpt lat="43.43851" lon="-0.56555">
        <ele>202</ele>
        <time>2013-05-06T09:33:19Z</time>
      </trkpt>
      <trkpt lat="43.43851" lon="-0.5655">
        <ele>201</ele>
        <time>2013-05-06T09:33:20Z</time>
      </trkpt>
      <trkpt lat="43.43851" lon="-0.56546">
        <ele>202</ele>
        <time>2013-05-06T09:33:21Z</time>
      </trkpt>
      <trkpt lat="43.43852" lon="-0.56542">
        <ele>201</ele>
        <time>2013-05-06T09:33:22Z</time>
      </trkpt>
      <trkpt lat="43.43851" lon="-0.56539">
        <ele>204</ele>
        <time>2013-05-06T09:33:23Z</time>
      </trkpt>
      <trkpt lat="43.4385" lon="-0.56536">
        <ele>202</ele>
        <time>2013-05-06T09:33:24Z</time>
      </trkpt>
      <trkpt lat="43.43849" lon="-0.56533">
        <ele>203</ele>
        <time>2013-05-06T09:33:25Z</time>
      </trkpt>
      <trkpt lat="43.43848" lon="-0.56531">
        <ele>203</ele>
        <time>2013-05-06T09:33:27Z</time>
      </trkpt>
      <trkpt lat="43.43847" lon="-0.56527">
        <ele>204</ele>
        <time>2013-05-06T09:33:27Z</time>
      </trkpt>
      <trkpt lat="43.43845" lon="-0.56525">
        <ele>205</ele>
        <time>2013-05-06T09:33:28Z</time>
      </trkpt>
      <trkpt lat="43.43844" lon="-0.56523">
        <ele>205</ele>
        <time>2013-05-06T09:33:29Z</time>
      </trkpt>
      <trkpt lat="43.43843" lon="-0.5652">
        <ele>205</ele>
        <time>2013-05-06T09:33:30Z</time>
      </trkpt>
      <trkpt lat="43.43842" lon="-0.56518">
        <ele>205</ele>
        <time>2013-05-06T09:33:31Z</time>
      </trkpt>
      <trkpt lat="43.43842" lon="-0.56515">
        <ele>206</ele>
        <time>2013-05-06T09:33:32Z</time>
      </trkpt>
      <trkpt lat="43.43841" lon="-0.56513">
        <ele>207</ele>
        <time>2013-05-06T09:33:33Z</time>
      </trkpt>
      <trkpt lat="43.4384" lon="-0.56511">
        <ele>207</ele>
        <time>2013-05-06T09:33:34Z</time>
      </trkpt>
      <trkpt lat="43.43839" lon="-0.5651">
        <ele>207</ele>
        <time>2013-05-06T09:33:35Z</time>
      </trkpt>
      <trkpt lat="43.43839" lon="-0.56507">
        <ele>207</ele>
        <time>2013-05-06T09:33:36Z</time>
      </trkpt>
      <trkpt lat="43.43839" lon="-0.56504">
        <ele>210</ele>
        <time>2013-05-06T09:33:37Z</time>
      </trkpt>
      <trkpt lat="43.43838" lon="-0.56501">
        <ele>211</ele>
        <time>2013-05-06T09:33:38Z</time>
      </trkpt>
      <trkpt lat="43.43838" lon="-0.56498">
        <ele>212</ele>
        <time>2013-05-06T09:33:39Z</time>
      </trkpt>
      <trkpt lat="43.43838" lon="-0.56495">
        <ele>212</ele>
        <time>2013-05-06T09:33:40Z</time>
      </trkpt>
      <trkpt lat="43.43838" lon="-0.56492">
        <ele>212</ele>
        <time>2013-05-06T09:33:41Z</time>
      </trkpt>
      <trkpt lat="43.43837" lon="-0.56489">
        <ele>212</ele>
        <time>2013-05-06T09:33:42Z</time>
      </trkpt>
      <trkpt lat="43.43837" lon="-0.56486">
        <ele>212</ele>
        <time>2013-05-06T09:33:43Z</time>
      </trkpt>
      <trkpt lat="43.43836" lon="-0.56484">
        <ele>211</ele>
        <time>2013-05-06T09:33:44Z</time>
      </trkpt>
      <trkpt lat="43.43834" lon="-0.56481">
        <ele>211</ele>
        <time>2013-05-06T09:33:45Z</time>
      </trkpt>
      <trkpt lat="43.43833" lon="-0.5648">
        <ele>211</ele>
        <time>2013-05-06T09:33:46Z</time>
      </trkpt>
      <trkpt lat="43.43831" lon="-0.56477">
        <ele>212</ele>
        <time>2013-05-06T09:33:47Z</time>
      </trkpt>
      <trkpt lat="43.4383" lon="-0.56475">
        <ele>211</ele>
        <time>2013-05-06T09:33:48Z</time>
      </trkpt>
      <trkpt lat="43.43829" lon="-0.56472">
        <ele>210</ele>
        <time>2013-05-06T09:33:49Z</time>
      </trkpt>
      <trkpt lat="43.43827" lon="-0.56469">
        <ele>210</ele>
        <time>2013-05-06T09:33:50Z</time>
      </trkpt>
      <trkpt lat="43.43826" lon="-0.56467">
        <ele>210</ele>
        <time>2013-05-06T09:33:51Z</time>
      </trkpt>
      <trkpt lat="43.43826" lon="-0.56463">
        <ele>210</ele>
        <time>2013-05-06T09:33:52Z</time>
      </trkpt>
      <trkpt lat="43.43826" lon="-0.5646">
        <ele>210</ele>
        <time>2013-05-06T09:33:53Z</time>
      </trkpt>
      <trkpt lat="43.43826" lon="-0.56457">
        <ele>209</ele>
        <time>2013-05-06T09:33:54Z</time>
      </trkpt>
      <trkpt lat="43.43826" lon="-0.56454">
        <ele>209</ele>
        <time>2013-05-06T09:33:55Z</time>
      </trkpt>
      <trkpt lat="43.43826" lon="-0.56452">
        <ele>208</ele>
        <time>2013-05-06T09:33:56Z</time>
      </trkpt>
      <trkpt lat="43.43824" lon="-0.5645">
        <ele>208</ele>
        <time>2013-05-06T09:33:57Z</time>
      </trkpt>
      <trkpt lat="43.43824" lon="-0.56448">
        <ele>208</ele>
        <time>2013-05-06T09:33:58Z</time>
      </trkpt>
      <trkpt lat="43.43823" lon="-0.56447">
        <ele>208</ele>
        <time>2013-05-06T09:33:59Z</time>
      </trkpt>
      <trkpt lat="43.43822" lon="-0.56446">
        <ele>209</ele>
        <time>2013-05-06T09:34:00Z</time>
      </trkpt>
      <trkpt lat="43.43821" lon="-0.56444">
        <ele>207</ele>
        <time>2013-05-06T09:34:01Z</time>
      </trkpt>
      <trkpt lat="43.43821" lon="-0.56443">
        <ele>206</ele>
        <time>2013-05-06T09:34:02Z</time>
      </trkpt>
      <trkpt lat="43.43821" lon="-0.56439">
        <ele>203</ele>
        <time>2013-05-06T09:34:03Z</time>
      </trkpt>
      <trkpt lat="43.4382" lon="-0.56437">
        <ele>201</ele>
        <time>2013-05-06T09:34:04Z</time>
      </trkpt>
      <trkpt lat="43.4382" lon="-0.56434">
        <ele>201</ele>
        <time>2013-05-06T09:34:05Z</time>
      </trkpt>
      <trkpt lat="43.4382" lon="-0.56431">
        <ele>201</ele>
        <time>2013-05-06T09:34:06Z</time>
      </trkpt>
      <trkpt lat="43.4382" lon="-0.56429">
        <ele>201</ele>
        <time>2013-05-06T09:34:07Z</time>
      </trkpt>
      <trkpt lat="43.43819" lon="-0.56427">
        <ele>201</ele>
        <time>2013-05-06T09:34:08Z</time>
      </trkpt>
      <trkpt lat="43.43819" lon="-0.56425">
        <ele>202</ele>
        <time>2013-05-06T09:34:09Z</time>
      </trkpt>
      <trkpt lat="43.43819" lon="-0.56423">
        <ele>201</ele>
        <time>2013-05-06T09:34:10Z</time>
      </trkpt>
      <trkpt lat="43.43819" lon="-0.56421">
        <ele>202</ele>
        <time>2013-05-06T09:34:11Z</time>
      </trkpt>
      <trkpt lat="43.43818" lon="-0.56418">
        <ele>202</ele>
        <time>2013-05-06T09:34:12Z</time>
      </trkpt>
      <trkpt lat="43.43817" lon="-0.56415">
        <ele>202</ele>
        <time>2013-05-06T09:34:13Z</time>
      </trkpt>
      <trkpt lat="43.43816" lon="-0.56412">
        <ele>203</ele>
        <time>2013-05-06T09:34:14Z</time>
      </trkpt>
      <trkpt lat="43.43816" lon="-0.5641">
        <ele>202</ele>
        <time>2013-05-06T09:34:15Z</time>
      </trkpt>
      <trkpt lat="43.43815" lon="-0.56408">
        <ele>200</ele>
        <time>2013-05-06T09:34:16Z</time>
      </trkpt>
      <trkpt lat="43.43813" lon="-0.56404">
        <ele>200</ele>
        <time>2013-05-06T09:34:17Z</time>
      </trkpt>
      <trkpt lat="43.43811" lon="-0.56402">
        <ele>200</ele>
        <time>2013-05-06T09:34:18Z</time>
      </trkpt>
      <trkpt lat="43.43811" lon="-0.564">
        <ele>200</ele>
        <time>2013-05-06T09:34:19Z</time>
      </trkpt>
      <trkpt lat="43.43809" lon="-0.56397">
        <ele>199</ele>
        <time>2013-05-06T09:34:20Z</time>
      </trkpt>
      <trkpt lat="43.43807" lon="-0.56394">
        <ele>200</ele>
        <time>2013-05-06T09:34:21Z</time>
      </trkpt>
      <trkpt lat="43.43806" lon="-0.56393">
        <ele>200</ele>
        <time>2013-05-06T09:34:22Z</time>
      </trkpt>
      <trkpt lat="43.43805" lon="-0.56389">
        <ele>200</ele>
        <time>2013-05-06T09:34:23Z</time>
      </trkpt>
      <trkpt lat="43.43803" lon="-0.56386">
        <ele>201</ele>
        <time>2013-05-06T09:34:24Z</time>
      </trkpt>
      <trkpt lat="43.43803" lon="-0.56384">
        <ele>201</ele>
        <time>2013-05-06T09:34:25Z</time>
      </trkpt>
      <trkpt lat="43.43802" lon="-0.56383">
        <ele>200</ele>
        <time>2013-05-06T09:34:26Z</time>
      </trkpt>
      <trkpt lat="43.43802" lon="-0.56382">
        <ele>199</ele>
        <time>2013-05-06T09:34:27Z</time>
      </trkpt>
      <trkpt lat="43.438" lon="-0.5638">
        <ele>200</ele>
        <time>2013-05-06T09:34:28Z</time>
      </trkpt>
      <trkpt lat="43.43799" lon="-0.56379">
        <ele>199</ele>
        <time>2013-05-06T09:34:29Z</time>
      </trkpt>
      <trkpt lat="43.43798" lon="-0.56378">
        <ele>199</ele>
        <time>2013-05-06T09:34:30Z</time>
      </trkpt>
      <trkpt lat="43.43796" lon="-0.56376">
        <ele>199</ele>
        <time>2013-05-06T09:34:31Z</time>
      </trkpt>
      <trkpt lat="43.43795" lon="-0.56374">
        <ele>200</ele>
        <time>2013-05-06T09:34:32Z</time>
      </trkpt>
      <trkpt lat="43.43793" lon="-0.56372">
        <ele>200</ele>
        <time>2013-05-06T09:34:33Z</time>
      </trkpt>
      <trkpt lat="43.43791" lon="-0.56369">
        <ele>200</ele>
        <time>2013-05-06T09:34:34Z</time>
      </trkpt>
      <trkpt lat="43.43789" lon="-0.56367">
        <ele>200</ele>
        <time>2013-05-06T09:34:35Z</time>
      </trkpt>
      <trkpt lat="43.43787" lon="-0.56365">
        <ele>200</ele>
        <time>2013-05-06T09:34:36Z</time>
      </trkpt>
      <trkpt lat="43.43786" lon="-0.56362">
        <ele>200</ele>
        <time>2013-05-06T09:34:37Z</time>
      </trkpt>
      <trkpt lat="43.43784" lon="-0.5636">
        <ele>201</ele>
        <time>2013-05-06T09:34:38Z</time>
      </trkpt>
      <trkpt lat="43.43782" lon="-0.56358">
        <ele>201</ele>
        <time>2013-05-06T09:34:39Z</time>
      </trkpt>
      <trkpt lat="43.43781" lon="-0.56357">
        <ele>200</ele>
        <time>2013-05-06T09:34:40Z</time>
      </trkpt>
      <trkpt lat="43.43779" lon="-0.56357">
        <ele>200</ele>
        <time>2013-05-06T09:34:41Z</time>
      </trkpt>
      <trkpt lat="43.43778" lon="-0.56355">
        <ele>199</ele>
        <time>2013-05-06T09:34:42Z</time>
      </trkpt>
      <trkpt lat="43.43776" lon="-0.56354">
        <ele>200</ele>
        <time>2013-05-06T09:34:43Z</time>
      </trkpt>
      <trkpt lat="43.43774" lon="-0.56353">
        <ele>200</ele>
        <time>2013-05-06T09:34:44Z</time>
      </trkpt>
      <trkpt lat="43.43773" lon="-0.56353">
        <ele>200</ele>
        <time>2013-05-06T09:34:45Z</time>
      </trkpt>
      <trkpt lat="43.43772" lon="-0.56353">
        <ele>202</ele>
        <time>2013-05-06T09:34:46Z</time>
      </trkpt>
      <trkpt lat="43.4377" lon="-0.56352">
        <ele>203</ele>
        <time>2013-05-06T09:34:47Z</time>
      </trkpt>
      <trkpt lat="43.43768" lon="-0.56351">
        <ele>203</ele>
        <time>2013-05-06T09:34:48Z</time>
      </trkpt>
      <trkpt lat="43.43767" lon="-0.56351">
        <ele>204</ele>
        <time>2013-05-06T09:34:49Z</time>
      </trkpt>
      <trkpt lat="43.43765" lon="-0.56348">
        <ele>203</ele>
        <time>2013-05-06T09:34:50Z</time>
      </trkpt>
      <trkpt lat="43.43763" lon="-0.56346">
        <ele>204</ele>
        <time>2013-05-06T09:34:51Z</time>
      </trkpt>
      <trkpt lat="43.43761" lon="-0.56344">
        <ele>204</ele>
        <time>2013-05-06T09:34:52Z</time>
      </trkpt>
      <trkpt lat="43.4376" lon="-0.56342">
        <ele>203</ele>
        <time>2013-05-06T09:34:53Z</time>
      </trkpt>
      <trkpt lat="43.43757" lon="-0.56338">
        <ele>204</ele>
        <time>2013-05-06T09:34:54Z</time>
      </trkpt>
      <trkpt lat="43.43754" lon="-0.56336">
        <ele>205</ele>
        <time>2013-05-06T09:34:55Z</time>
      </trkpt>
      <trkpt lat="43.43752" lon="-0.56333">
        <ele>205</ele>
        <time>2013-05-06T09:34:56Z</time>
      </trkpt>
      <trkpt lat="43.43749" lon="-0.56329">
        <ele>205</ele>
        <time>2013-05-06T09:34:57Z</time>
      </trkpt>
      <trkpt lat="43.43747" lon="-0.56325">
        <ele>205</ele>
        <time>2013-05-06T09:34:58Z</time>
      </trkpt>
      <trkpt lat="43.43746" lon="-0.56323">
        <ele>205</ele>
        <time>2013-05-06T09:34:59Z</time>
      </trkpt>
      <trkpt lat="43.43743" lon="-0.5632">
        <ele>205</ele>
        <time>2013-05-06T09:35:00Z</time>
      </trkpt>
      <trkpt lat="43.4374" lon="-0.56316">
        <ele>205</ele>
        <time>2013-05-06T09:35:01Z</time>
      </trkpt>
      <trkpt lat="43.43737" lon="-0.56312">
        <ele>205</ele>
        <time>2013-05-06T09:35:02Z</time>
      </trkpt>
      <trkpt lat="43.43733" lon="-0.56308">
        <ele>205</ele>
        <time>2013-05-06T09:35:03Z</time>
      </trkpt>
      <trkpt lat="43.43731" lon="-0.56306">
        <ele>205</ele>
        <time>2013-05-06T09:35:04Z</time>
      </trkpt>
      <trkpt lat="43.43726" lon="-0.56299">
        <ele>206</ele>
        <time>2013-05-06T09:35:05Z</time>
      </trkpt>
      <trkpt lat="43.43723" lon="-0.56294">
        <ele>206</ele>
        <time>2013-05-06T09:35:06Z</time>
      </trkpt>
      <trkpt lat="43.4372" lon="-0.56289">
        <ele>206</ele>
        <time>2013-05-06T09:35:07Z</time>
      </trkpt>
      <trkpt lat="43.43717" lon="-0.56284">
        <ele>207</ele>
        <time>2013-05-06T09:35:08Z</time>
      </trkpt>
      <trkpt lat="43.43714" lon="-0.56278">
        <ele>207</ele>
        <time>2013-05-06T09:35:09Z</time>
      </trkpt>
      <trkpt lat="43.43711" lon="-0.56273">
        <ele>207</ele>
        <time>2013-05-06T09:35:10Z</time>
      </trkpt>
      <trkpt lat="43.43708" lon="-0.5627">
        <ele>207</ele>
        <time>2013-05-06T09:35:11Z</time>
      </trkpt>
      <trkpt lat="43.43704" lon="-0.56263">
        <ele>208</ele>
        <time>2013-05-06T09:35:12Z</time>
      </trkpt>
      <trkpt lat="43.437" lon="-0.56258">
        <ele>206</ele>
        <time>2013-05-06T09:35:13Z</time>
      </trkpt>
      <trkpt lat="43.43697" lon="-0.56256">
        <ele>206</ele>
        <time>2013-05-06T09:35:14Z</time>
      </trkpt>
      <trkpt lat="43.43693" lon="-0.56247">
        <ele>206</ele>
        <time>2013-05-06T09:35:15Z</time>
      </trkpt>
      <trkpt lat="43.43689" lon="-0.56241">
        <ele>207</ele>
        <time>2013-05-06T09:35:16Z</time>
      </trkpt>
      <trkpt lat="43.43686" lon="-0.56235">
        <ele>205</ele>
        <time>2013-05-06T09:35:17Z</time>
      </trkpt>
      <trkpt lat="43.43682" lon="-0.56228">
        <ele>205</ele>
        <time>2013-05-06T09:35:18Z</time>
      </trkpt>
      <trkpt lat="43.43678" lon="-0.56222">
        <ele>205</ele>
        <time>2013-05-06T09:35:19Z</time>
      </trkpt>
      <trkpt lat="43.43673" lon="-0.56216">
        <ele>206</ele>
        <time>2013-05-06T09:35:20Z</time>
      </trkpt>
      <trkpt lat="43.43668" lon="-0.5621">
        <ele>206</ele>
        <time>2013-05-06T09:35:21Z</time>
      </trkpt>
      <trkpt lat="43.43663" lon="-0.56204">
        <ele>206</ele>
        <time>2013-05-06T09:35:22Z</time>
      </trkpt>
      <trkpt lat="43.43658" lon="-0.56198">
        <ele>208</ele>
        <time>2013-05-06T09:35:23Z</time>
      </trkpt>
      <trkpt lat="43.43654" lon="-0.56192">
        <ele>207</ele>
        <time>2013-05-06T09:35:24Z</time>
      </trkpt>
      <trkpt lat="43.43649" lon="-0.56185">
        <ele>210</ele>
        <time>2013-05-06T09:35:25Z</time>
      </trkpt>
      <trkpt lat="43.43645" lon="-0.56178">
        <ele>210</ele>
        <time>2013-05-06T09:35:26Z</time>
      </trkpt>
      <trkpt lat="43.43641" lon="-0.56175">
        <ele>210</ele>
        <time>2013-05-06T09:35:27Z</time>
      </trkpt>
      <trkpt lat="43.43636" lon="-0.56167">
        <ele>209</ele>
        <time>2013-05-06T09:35:28Z</time>
      </trkpt>
      <trkpt lat="43.43633" lon="-0.56161">
        <ele>204</ele>
        <time>2013-05-06T09:35:29Z</time>
      </trkpt>
      <trkpt lat="43.43629" lon="-0.56155">
        <ele>201</ele>
        <time>2013-05-06T09:35:30Z</time>
      </trkpt>
      <trkpt lat="43.43619" lon="-0.5612">
        <ele>204</ele>
        <time>2013-05-06T09:35:31Z</time>
      </trkpt>
      <trkpt lat="43.43616" lon="-0.56111">
        <ele>203</ele>
        <time>2013-05-06T09:35:32Z</time>
      </trkpt>
      <trkpt lat="43.43615" lon="-0.56106">
        <ele>202</ele>
        <time>2013-05-06T09:35:33Z</time>
      </trkpt>
      <trkpt lat="43.43612" lon="-0.56102">
        <ele>202</ele>
        <time>2013-05-06T09:35:34Z</time>
      </trkpt>
      <trkpt lat="43.43609" lon="-0.56096">
        <ele>201</ele>
        <time>2013-05-06T09:35:35Z</time>
      </trkpt>
      <trkpt lat="43.43607" lon="-0.56091">
        <ele>199</ele>
        <time>2013-05-06T09:35:36Z</time>
      </trkpt>
      <trkpt lat="43.43604" lon="-0.56086">
        <ele>198</ele>
        <time>2013-05-06T09:35:37Z</time>
      </trkpt>
      <trkpt lat="43.43602" lon="-0.56083">
        <ele>198</ele>
        <time>2013-05-06T09:35:38Z</time>
      </trkpt>
      <trkpt lat="43.43599" lon="-0.5608">
        <ele>198</ele>
        <time>2013-05-06T09:35:39Z</time>
      </trkpt>
      <trkpt lat="43.43596" lon="-0.56074">
        <ele>199</ele>
        <time>2013-05-06T09:35:40Z</time>
      </trkpt>
      <trkpt lat="43.43593" lon="-0.56071">
        <ele>199</ele>
        <time>2013-05-06T09:35:41Z</time>
      </trkpt>
      <trkpt lat="43.4359" lon="-0.56066">
        <ele>199</ele>
        <time>2013-05-06T09:35:42Z</time>
      </trkpt>
      <trkpt lat="43.43588" lon="-0.56062">
        <ele>199</ele>
        <time>2013-05-06T09:35:43Z</time>
      </trkpt>
      <trkpt lat="43.43585" lon="-0.56058">
        <ele>200</ele>
        <time>2013-05-06T09:35:44Z</time>
      </trkpt>
      <trkpt lat="43.43583" lon="-0.56055">
        <ele>200</ele>
        <time>2013-05-06T09:35:45Z</time>
      </trkpt>
      <trkpt lat="43.43581" lon="-0.56049">
        <ele>200</ele>
        <time>2013-05-06T09:35:46Z</time>
      </trkpt>
      <trkpt lat="43.4358" lon="-0.56045">
        <ele>200</ele>
        <time>2013-05-06T09:35:47Z</time>
      </trkpt>
      <trkpt lat="43.43578" lon="-0.56041">
        <ele>200</ele>
        <time>2013-05-06T09:35:48Z</time>
      </trkpt>
      <trkpt lat="43.43576" lon="-0.56036">
        <ele>201</ele>
        <time>2013-05-06T09:35:49Z</time>
      </trkpt>
      <trkpt lat="43.43574" lon="-0.56032">
        <ele>202</ele>
        <time>2013-05-06T09:35:50Z</time>
      </trkpt>
      <trkpt lat="43.43573" lon="-0.56028">
        <ele>204</ele>
        <time>2013-05-06T09:35:51Z</time>
      </trkpt>
      <trkpt lat="43.43571" lon="-0.56024">
        <ele>204</ele>
        <time>2013-05-06T09:35:52Z</time>
      </trkpt>
      <trkpt lat="43.4357" lon="-0.5602">
        <ele>204</ele>
        <time>2013-05-06T09:35:53Z</time>
      </trkpt>
      <trkpt lat="43.43568" lon="-0.56016">
        <ele>205</ele>
        <time>2013-05-06T09:35:54Z</time>
      </trkpt>
      <trkpt lat="43.43567" lon="-0.56013">
        <ele>205</ele>
        <time>2013-05-06T09:35:55Z</time>
      </trkpt>
      <trkpt lat="43.43565" lon="-0.56009">
        <ele>205</ele>
        <time>2013-05-06T09:35:56Z</time>
      </trkpt>
      <trkpt lat="43.43564" lon="-0.56005">
        <ele>205</ele>
        <time>2013-05-06T09:35:57Z</time>
      </trkpt>
      <trkpt lat="43.43562" lon="-0.56002">
        <ele>205</ele>
        <time>2013-05-06T09:35:58Z</time>
      </trkpt>
      <trkpt lat="43.43561" lon="-0.55998">
        <ele>206</ele>
        <time>2013-05-06T09:35:59Z</time>
      </trkpt>
      <trkpt lat="43.4356" lon="-0.55994">
        <ele>204</ele>
        <time>2013-05-06T09:36:00Z</time>
      </trkpt>
      <trkpt lat="43.43559" lon="-0.5599">
        <ele>203</ele>
        <time>2013-05-06T09:36:01Z</time>
      </trkpt>
      <trkpt lat="43.43559" lon="-0.55985">
        <ele>204</ele>
        <time>2013-05-06T09:36:02Z</time>
      </trkpt>
      <trkpt lat="43.43557" lon="-0.5598">
        <ele>204</ele>
        <time>2013-05-06T09:36:03Z</time>
      </trkpt>
      <trkpt lat="43.43556" lon="-0.55977">
        <ele>205</ele>
        <time>2013-05-06T09:36:04Z</time>
      </trkpt>
      <trkpt lat="43.43555" lon="-0.55974">
        <ele>204</ele>
        <time>2013-05-06T09:36:05Z</time>
      </trkpt>
      <trkpt lat="43.43553" lon="-0.55971">
        <ele>205</ele>
        <time>2013-05-06T09:36:06Z</time>
      </trkpt>
      <trkpt lat="43.43552" lon="-0.55968">
        <ele>205</ele>
        <time>2013-05-06T09:36:07Z</time>
      </trkpt>
      <trkpt lat="43.43549" lon="-0.55964">
        <ele>206</ele>
        <time>2013-05-06T09:36:08Z</time>
      </trkpt>
      <trkpt lat="43.43548" lon="-0.55961">
        <ele>207</ele>
        <time>2013-05-06T09:36:09Z</time>
      </trkpt>
      <trkpt lat="43.43547" lon="-0.55956">
        <ele>206</ele>
        <time>2013-05-06T09:36:10Z</time>
      </trkpt>
      <trkpt lat="43.43547" lon="-0.55951">
        <ele>206</ele>
        <time>2013-05-06T09:36:11Z</time>
      </trkpt>
      <trkpt lat="43.43546" lon="-0.55947">
        <ele>205</ele>
        <time>2013-05-06T09:36:12Z</time>
      </trkpt>
      <trkpt lat="43.43546" lon="-0.55942">
        <ele>206</ele>
        <time>2013-05-06T09:36:13Z</time>
      </trkpt>
      <trkpt lat="43.43546" lon="-0.55938">
        <ele>206</ele>
        <time>2013-05-06T09:36:14Z</time>
      </trkpt>
      <trkpt lat="43.43546" lon="-0.55934">
        <ele>207</ele>
        <time>2013-05-06T09:36:15Z</time>
      </trkpt>
      <trkpt lat="43.43546" lon="-0.55931">
        <ele>206</ele>
        <time>2013-05-06T09:36:16Z</time>
      </trkpt>
      <trkpt lat="43.43546" lon="-0.55927">
        <ele>206</ele>
        <time>2013-05-06T09:36:17Z</time>
      </trkpt>
      <trkpt lat="43.43546" lon="-0.55923">
        <ele>207</ele>
        <time>2013-05-06T09:36:18Z</time>
      </trkpt>
      <trkpt lat="43.43546" lon="-0.5592">
        <ele>207</ele>
        <time>2013-05-06T09:36:19Z</time>
      </trkpt>
      <trkpt lat="43.43546" lon="-0.55917">
        <ele>207</ele>
        <time>2013-05-06T09:36:20Z</time>
      </trkpt>
      <trkpt lat="43.43547" lon="-0.55914">
        <ele>207</ele>
        <time>2013-05-06T09:36:21Z</time>
      </trkpt>
      <trkpt lat="43.43547" lon="-0.55911">
        <ele>206</ele>
        <time>2013-05-06T09:36:22Z</time>
      </trkpt>
      <trkpt lat="43.43547" lon="-0.55908">
        <ele>206</ele>
        <time>2013-05-06T09:36:23Z</time>
      </trkpt>
      <trkpt lat="43.43547" lon="-0.55904">
        <ele>206</ele>
        <time>2013-05-06T09:36:24Z</time>
      </trkpt>
      <trkpt lat="43.43548" lon="-0.55901">
        <ele>207</ele>
        <time>2013-05-06T09:36:25Z</time>
      </trkpt>
      <trkpt lat="43.4355" lon="-0.55894">
        <ele>205</ele>
        <time>2013-05-06T09:36:26Z</time>
      </trkpt>
      <trkpt lat="43.43551" lon="-0.55892">
        <ele>204</ele>
        <time>2013-05-06T09:36:27Z</time>
      </trkpt>
      <trkpt lat="43.43554" lon="-0.55887">
        <ele>202</ele>
        <time>2013-05-06T09:36:28Z</time>
      </trkpt>
      <trkpt lat="43.43556" lon="-0.55884">
        <ele>201</ele>
        <time>2013-05-06T09:36:29Z</time>
      </trkpt>
      <trkpt lat="43.43558" lon="-0.55879">
        <ele>201</ele>
        <time>2013-05-06T09:36:30Z</time>
      </trkpt>
      <trkpt lat="43.43561" lon="-0.55873">
        <ele>201</ele>
        <time>2013-05-06T09:36:31Z</time>
      </trkpt>
      <trkpt lat="43.43564" lon="-0.55865">
        <ele>202</ele>
        <time>2013-05-06T09:36:32Z</time>
      </trkpt>
      <trkpt lat="43.43565" lon="-0.55859">
        <ele>201</ele>
        <time>2013-05-06T09:36:33Z</time>
      </trkpt>
      <trkpt lat="43.43567" lon="-0.55851">
        <ele>202</ele>
        <time>2013-05-06T09:36:34Z</time>
      </trkpt>
      <trkpt lat="43.43567" lon="-0.55844">
        <ele>202</ele>
        <time>2013-05-06T09:36:35Z</time>
      </trkpt>
      <trkpt lat="43.43567" lon="-0.55837">
        <ele>203</ele>
        <time>2013-05-06T09:36:36Z</time>
      </trkpt>
      <trkpt lat="43.43567" lon="-0.5583">
        <ele>203</ele>
        <time>2013-05-06T09:36:37Z</time>
      </trkpt>
      <trkpt lat="43.43566" lon="-0.55823">
        <ele>203</ele>
        <time>2013-05-06T09:36:38Z</time>
      </trkpt>
      <trkpt lat="43.43565" lon="-0.55817">
        <ele>203</ele>
        <time>2013-05-06T09:36:39Z</time>
      </trkpt>
      <trkpt lat="43.43564" lon="-0.55811">
        <ele>202</ele>
        <time>2013-05-06T09:36:40Z</time>
      </trkpt>
      <trkpt lat="43.43563" lon="-0.55805">
        <ele>202</ele>
        <time>2013-05-06T09:36:41Z</time>
      </trkpt>
      <trkpt lat="43.43562" lon="-0.55798">
        <ele>202</ele>
        <time>2013-05-06T09:36:42Z</time>
      </trkpt>
      <trkpt lat="43.43561" lon="-0.55792">
        <ele>201</ele>
        <time>2013-05-06T09:36:43Z</time>
      </trkpt>
      <trkpt lat="43.4356" lon="-0.55788">
        <ele>201</ele>
        <time>2013-05-06T09:36:44Z</time>
      </trkpt>
      <trkpt lat="43.43563" lon="-0.55782">
        <ele>197</ele>
        <time>2013-05-06T09:36:45Z</time>
      </trkpt>
      <trkpt lat="43.43565" lon="-0.55779">
        <ele>195</ele>
        <time>2013-05-06T09:36:46Z</time>
      </trkpt>
      <trkpt lat="43.43569" lon="-0.55777">
        <ele>194</ele>
        <time>2013-05-06T09:36:47Z</time>
      </trkpt>
      <trkpt lat="43.43573" lon="-0.55776">
        <ele>194</ele>
        <time>2013-05-06T09:36:48Z</time>
      </trkpt>
      <trkpt lat="43.43578" lon="-0.55774">
        <ele>194</ele>
        <time>2013-05-06T09:36:49Z</time>
      </trkpt>
      <trkpt lat="43.43582" lon="-0.55773">
        <ele>194</ele>
        <time>2013-05-06T09:36:50Z</time>
      </trkpt>
      <trkpt lat="43.43586" lon="-0.55771">
        <ele>193</ele>
        <time>2013-05-06T09:36:51Z</time>
      </trkpt>
      <trkpt lat="43.43589" lon="-0.55771">
        <ele>192</ele>
        <time>2013-05-06T09:36:52Z</time>
      </trkpt>
      <trkpt lat="43.43593" lon="-0.55772">
        <ele>193</ele>
        <time>2013-05-06T09:36:53Z</time>
      </trkpt>
      <trkpt lat="43.43596" lon="-0.55773">
        <ele>193</ele>
        <time>2013-05-06T09:36:54Z</time>
      </trkpt>
      <trkpt lat="43.43599" lon="-0.55774">
        <ele>194</ele>
        <time>2013-05-06T09:36:55Z</time>
      </trkpt>
      <trkpt lat="43.43602" lon="-0.55775">
        <ele>195</ele>
        <time>2013-05-06T09:36:56Z</time>
      </trkpt>
      <trkpt lat="43.43604" lon="-0.55777">
        <ele>194</ele>
        <time>2013-05-06T09:36:57Z</time>
      </trkpt>
      <trkpt lat="43.43606" lon="-0.55778">
        <ele>194</ele>
        <time>2013-05-06T09:36:58Z</time>
      </trkpt>
      <trkpt lat="43.43608" lon="-0.55779">
        <ele>194</ele>
        <time>2013-05-06T09:36:59Z</time>
      </trkpt>
      <trkpt lat="43.4361" lon="-0.55781">
        <ele>194</ele>
        <time>2013-05-06T09:37:00Z</time>
      </trkpt>
      <trkpt lat="43.43612" lon="-0.55782">
        <ele>194</ele>
        <time>2013-05-06T09:37:01Z</time>
      </trkpt>
      <trkpt lat="43.43613" lon="-0.55783">
        <ele>192</ele>
        <time>2013-05-06T09:37:02Z</time>
      </trkpt>
      <trkpt lat="43.43615" lon="-0.55784">
        <ele>194</ele>
        <time>2013-05-06T09:37:03Z</time>
      </trkpt>
      <trkpt lat="43.43617" lon="-0.55785">
        <ele>194</ele>
        <time>2013-05-06T09:37:04Z</time>
      </trkpt>
      <trkpt lat="43.43619" lon="-0.55787">
        <ele>194</ele>
        <time>2013-05-06T09:37:05Z</time>
      </trkpt>
      <trkpt lat="43.43621" lon="-0.55788">
        <ele>194</ele>
        <time>2013-05-06T09:37:06Z</time>
      </trkpt>
      <trkpt lat="43.43622" lon="-0.55789">
        <ele>194</ele>
        <time>2013-05-06T09:37:07Z</time>
      </trkpt>
      <trkpt lat="43.43624" lon="-0.5579">
        <ele>195</ele>
        <time>2013-05-06T09:37:08Z</time>
      </trkpt>
      <trkpt lat="43.43626" lon="-0.55792">
        <ele>195</ele>
        <time>2013-05-06T09:37:09Z</time>
      </trkpt>
      <trkpt lat="43.43627" lon="-0.55794">
        <ele>196</ele>
        <time>2013-05-06T09:37:10Z</time>
      </trkpt>
      <trkpt lat="43.43629" lon="-0.55795">
        <ele>197</ele>
        <time>2013-05-06T09:37:11Z</time>
      </trkpt>
      <trkpt lat="43.4363" lon="-0.55797">
        <ele>197</ele>
        <time>2013-05-06T09:37:12Z</time>
      </trkpt>
      <trkpt lat="43.43631" lon="-0.55799">
        <ele>197</ele>
        <time>2013-05-06T09:37:13Z</time>
      </trkpt>
      <trkpt lat="43.43633" lon="-0.558">
        <ele>196</ele>
        <time>2013-05-06T09:37:14Z</time>
      </trkpt>
      <trkpt lat="43.43634" lon="-0.55802">
        <ele>195</ele>
        <time>2013-05-06T09:37:15Z</time>
      </trkpt>
      <trkpt lat="43.43636" lon="-0.55804">
        <ele>196</ele>
        <time>2013-05-06T09:37:16Z</time>
      </trkpt>
      <trkpt lat="43.43637" lon="-0.55806">
        <ele>196</ele>
        <time>2013-05-06T09:37:17Z</time>
      </trkpt>
      <trkpt lat="43.43638" lon="-0.55808">
        <ele>196</ele>
        <time>2013-05-06T09:37:18Z</time>
      </trkpt>
      <trkpt lat="43.4364" lon="-0.55809">
        <ele>196</ele>
        <time>2013-05-06T09:37:19Z</time>
      </trkpt>
      <trkpt lat="43.43641" lon="-0.55811">
        <ele>198</ele>
        <time>2013-05-06T09:37:20Z</time>
      </trkpt>
      <trkpt lat="43.43642" lon="-0.55812">
        <ele>198</ele>
        <time>2013-05-06T09:37:21Z</time>
      </trkpt>
      <trkpt lat="43.43644" lon="-0.55814">
        <ele>198</ele>
        <time>2013-05-06T09:37:22Z</time>
      </trkpt>
      <trkpt lat="43.43646" lon="-0.55816">
        <ele>198</ele>
        <time>2013-05-06T09:37:23Z</time>
      </trkpt>
      <trkpt lat="43.43647" lon="-0.55817">
        <ele>198</ele>
        <time>2013-05-06T09:37:24Z</time>
      </trkpt>
      <trkpt lat="43.43648" lon="-0.55818">
        <ele>199</ele>
        <time>2013-05-06T09:37:25Z</time>
      </trkpt>
      <trkpt lat="43.43649" lon="-0.55819">
        <ele>199</ele>
        <time>2013-05-06T09:37:26Z</time>
      </trkpt>
      <trkpt lat="43.43651" lon="-0.5582">
        <ele>200</ele>
        <time>2013-05-06T09:37:27Z</time>
      </trkpt>
      <trkpt lat="43.43653" lon="-0.55822">
        <ele>199</ele>
        <time>2013-05-06T09:37:28Z</time>
      </trkpt>
      <trkpt lat="43.43655" lon="-0.55823">
        <ele>199</ele>
        <time>2013-05-06T09:37:29Z</time>
      </trkpt>
      <trkpt lat="43.43657" lon="-0.55824">
        <ele>200</ele>
        <time>2013-05-06T09:37:30Z</time>
      </trkpt>
      <trkpt lat="43.43658" lon="-0.55825">
        <ele>200</ele>
        <time>2013-05-06T09:37:31Z</time>
      </trkpt>
      <trkpt lat="43.4366" lon="-0.55826">
        <ele>200</ele>
        <time>2013-05-06T09:37:32Z</time>
      </trkpt>
      <trkpt lat="43.43662" lon="-0.55828">
        <ele>200</ele>
        <time>2013-05-06T09:37:33Z</time>
      </trkpt>
      <trkpt lat="43.43663" lon="-0.55829">
        <ele>201</ele>
        <time>2013-05-06T09:37:34Z</time>
      </trkpt>
      <trkpt lat="43.43665" lon="-0.5583">
        <ele>201</ele>
        <time>2013-05-06T09:37:35Z</time>
      </trkpt>
      <trkpt lat="43.43667" lon="-0.55831">
        <ele>202</ele>
        <time>2013-05-06T09:37:36Z</time>
      </trkpt>
      <trkpt lat="43.43668" lon="-0.55833">
        <ele>203</ele>
        <time>2013-05-06T09:37:37Z</time>
      </trkpt>
      <trkpt lat="43.4367" lon="-0.55835">
        <ele>202</ele>
        <time>2013-05-06T09:37:38Z</time>
      </trkpt>
      <trkpt lat="43.43672" lon="-0.55837">
        <ele>202</ele>
        <time>2013-05-06T09:37:39Z</time>
      </trkpt>
      <trkpt lat="43.43675" lon="-0.5584">
        <ele>202</ele>
        <time>2013-05-06T09:37:40Z</time>
      </trkpt>
      <trkpt lat="43.43677" lon="-0.55842">
        <ele>202</ele>
        <time>2013-05-06T09:37:41Z</time>
      </trkpt>
      <trkpt lat="43.4368" lon="-0.55845">
        <ele>202</ele>
        <time>2013-05-06T09:37:42Z</time>
      </trkpt>
      <trkpt lat="43.43682" lon="-0.55847">
        <ele>203</ele>
        <time>2013-05-06T09:37:43Z</time>
      </trkpt>
      <trkpt lat="43.43684" lon="-0.55849">
        <ele>203</ele>
        <time>2013-05-06T09:37:44Z</time>
      </trkpt>
      <trkpt lat="43.43686" lon="-0.55851">
        <ele>202</ele>
        <time>2013-05-06T09:37:45Z</time>
      </trkpt>
      <trkpt lat="43.43687" lon="-0.55854">
        <ele>203</ele>
        <time>2013-05-06T09:37:46Z</time>
      </trkpt>
      <trkpt lat="43.43689" lon="-0.55856">
        <ele>203</ele>
        <time>2013-05-06T09:37:47Z</time>
      </trkpt>
      <trkpt lat="43.4369" lon="-0.55857">
        <ele>203</ele>
        <time>2013-05-06T09:37:48Z</time>
      </trkpt>
      <trkpt lat="43.43692" lon="-0.5586">
        <ele>202</ele>
        <time>2013-05-06T09:37:49Z</time>
      </trkpt>
      <trkpt lat="43.43693" lon="-0.55861">
        <ele>202</ele>
        <time>2013-05-06T09:37:50Z</time>
      </trkpt>
      <trkpt lat="43.43694" lon="-0.55863">
        <ele>203</ele>
        <time>2013-05-06T09:37:51Z</time>
      </trkpt>
      <trkpt lat="43.43696" lon="-0.55863">
        <ele>203</ele>
        <time>2013-05-06T09:37:52Z</time>
      </trkpt>
      <trkpt lat="43.43698" lon="-0.55864">
        <ele>204</ele>
        <time>2013-05-06T09:37:53Z</time>
      </trkpt>
      <trkpt lat="43.437" lon="-0.55864">
        <ele>206</ele>
        <time>2013-05-06T09:37:54Z</time>
      </trkpt>
      <trkpt lat="43.43701" lon="-0.55865">
        <ele>205</ele>
        <time>2013-05-06T09:37:55Z</time>
      </trkpt>
      <trkpt lat="43.43703" lon="-0.55865">
        <ele>205</ele>
        <time>2013-05-06T09:37:56Z</time>
      </trkpt>
      <trkpt lat="43.43704" lon="-0.55865">
        <ele>205</ele>
        <time>2013-05-06T09:37:57Z</time>
      </trkpt>
      <trkpt lat="43.43707" lon="-0.55864">
        <ele>206</ele>
        <time>2013-05-06T09:37:58Z</time>
      </trkpt>
      <trkpt lat="43.43708" lon="-0.55863">
        <ele>206</ele>
        <time>2013-05-06T09:37:59Z</time>
      </trkpt>
      <trkpt lat="43.4371" lon="-0.55862">
        <ele>205</ele>
        <time>2013-05-06T09:38:00Z</time>
      </trkpt>
      <trkpt lat="43.43712" lon="-0.55861">
        <ele>205</ele>
        <time>2013-05-06T09:38:01Z</time>
      </trkpt>
      <trkpt lat="43.43715" lon="-0.55859">
        <ele>203</ele>
        <time>2013-05-06T09:38:02Z</time>
      </trkpt>
      <trkpt lat="43.43716" lon="-0.55857">
        <ele>203</ele>
        <time>2013-05-06T09:38:03Z</time>
      </trkpt>
      <trkpt lat="43.43718" lon="-0.55856">
        <ele>204</ele>
        <time>2013-05-06T09:38:04Z</time>
      </trkpt>
      <trkpt lat="43.4372" lon="-0.55854">
        <ele>204</ele>
        <time>2013-05-06T09:38:05Z</time>
      </trkpt>
      <trkpt lat="43.43722" lon="-0.55853">
        <ele>204</ele>
        <time>2013-05-06T09:38:06Z</time>
      </trkpt>
      <trkpt lat="43.43724" lon="-0.55851">
        <ele>204</ele>
        <time>2013-05-06T09:38:07Z</time>
      </trkpt>
      <trkpt lat="43.43726" lon="-0.55849">
        <ele>205</ele>
        <time>2013-05-06T09:38:08Z</time>
      </trkpt>
      <trkpt lat="43.43728" lon="-0.55847">
        <ele>205</ele>
        <time>2013-05-06T09:38:09Z</time>
      </trkpt>
      <trkpt lat="43.4373" lon="-0.55845">
        <ele>205</ele>
        <time>2013-05-06T09:38:10Z</time>
      </trkpt>
      <trkpt lat="43.43731" lon="-0.55844">
        <ele>205</ele>
        <time>2013-05-06T09:38:11Z</time>
      </trkpt>
      <trkpt lat="43.43733" lon="-0.55842">
        <ele>206</ele>
        <time>2013-05-06T09:38:12Z</time>
      </trkpt>
      <trkpt lat="43.43734" lon="-0.55841">
        <ele>207</ele>
        <time>2013-05-06T09:38:13Z</time>
      </trkpt>
      <trkpt lat="43.43735" lon="-0.5584">
        <ele>206</ele>
        <time>2013-05-06T09:38:14Z</time>
      </trkpt>
      <trkpt lat="43.43736" lon="-0.55838">
        <ele>206</ele>
        <time>2013-05-06T09:38:15Z</time>
      </trkpt>
      <trkpt lat="43.43736" lon="-0.55837">
        <ele>207</ele>
        <time>2013-05-06T09:38:16Z</time>
      </trkpt>
      <trkpt lat="43.43738" lon="-0.55836">
        <ele>207</ele>
        <time>2013-05-06T09:38:17Z</time>
      </trkpt>
      <trkpt lat="43.4374" lon="-0.55835">
        <ele>208</ele>
        <time>2013-05-06T09:38:18Z</time>
      </trkpt>
      <trkpt lat="43.43741" lon="-0.55834">
        <ele>208</ele>
        <time>2013-05-06T09:38:19Z</time>
      </trkpt>
      <trkpt lat="43.43742" lon="-0.55833">
        <ele>208</ele>
        <time>2013-05-06T09:38:20Z</time>
      </trkpt>
      <trkpt lat="43.43745" lon="-0.5583">
        <ele>209</ele>
        <time>2013-05-06T09:38:21Z</time>
      </trkpt>
      <trkpt lat="43.43746" lon="-0.55829">
        <ele>209</ele>
        <time>2013-05-06T09:38:22Z</time>
      </trkpt>
      <trkpt lat="43.43749" lon="-0.55826">
        <ele>209</ele>
        <time>2013-05-06T09:38:23Z</time>
      </trkpt>
      <trkpt lat="43.43751" lon="-0.55824">
        <ele>209</ele>
        <time>2013-05-06T09:38:24Z</time>
      </trkpt>
      <trkpt lat="43.43753" lon="-0.55822">
        <ele>209</ele>
        <time>2013-05-06T09:38:25Z</time>
      </trkpt>
      <trkpt lat="43.43754" lon="-0.5582">
        <ele>209</ele>
        <time>2013-05-06T09:38:26Z</time>
      </trkpt>
      <trkpt lat="43.43755" lon="-0.55818">
        <ele>209</ele>
        <time>2013-05-06T09:38:27Z</time>
      </trkpt>
      <trkpt lat="43.43756" lon="-0.55816">
        <ele>210</ele>
        <time>2013-05-06T09:38:28Z</time>
      </trkpt>
      <trkpt lat="43.43757" lon="-0.55814">
        <ele>211</ele>
        <time>2013-05-06T09:38:29Z</time>
      </trkpt>
      <trkpt lat="43.43759" lon="-0.55813">
        <ele>210</ele>
        <time>2013-05-06T09:38:30Z</time>
      </trkpt>
      <trkpt lat="43.43761" lon="-0.55812">
        <ele>210</ele>
        <time>2013-05-06T09:38:31Z</time>
      </trkpt>
      <trkpt lat="43.43763" lon="-0.5581">
        <ele>208</ele>
        <time>2013-05-06T09:38:32Z</time>
      </trkpt>
      <trkpt lat="43.43766" lon="-0.55808">
        <ele>210</ele>
        <time>2013-05-06T09:38:33Z</time>
      </trkpt>
      <trkpt lat="43.43768" lon="-0.55806">
        <ele>209</ele>
        <time>2013-05-06T09:38:34Z</time>
      </trkpt>
      <trkpt lat="43.4377" lon="-0.55804">
        <ele>208</ele>
        <time>2013-05-06T09:38:35Z</time>
      </trkpt>
      <trkpt lat="43.43772" lon="-0.55802">
        <ele>208</ele>
        <time>2013-05-06T09:38:36Z</time>
      </trkpt>
      <trkpt lat="43.43773" lon="-0.55801">
        <ele>207</ele>
        <time>2013-05-06T09:38:37Z</time>
      </trkpt>
      <trkpt lat="43.43774" lon="-0.55798">
        <ele>209</ele>
        <time>2013-05-06T09:38:38Z</time>
      </trkpt>
      <trkpt lat="43.43776" lon="-0.55796">
        <ele>209</ele>
        <time>2013-05-06T09:38:39Z</time>
      </trkpt>
      <trkpt lat="43.43777" lon="-0.55795">
        <ele>209</ele>
        <time>2013-05-06T09:38:40Z</time>
      </trkpt>
      <trkpt lat="43.43779" lon="-0.55793">
        <ele>209</ele>
        <time>2013-05-06T09:38:41Z</time>
      </trkpt>
      <trkpt lat="43.43781" lon="-0.55791">
        <ele>208</ele>
        <time>2013-05-06T09:38:42Z</time>
      </trkpt>
      <trkpt lat="43.43783" lon="-0.55788">
        <ele>209</ele>
        <time>2013-05-06T09:38:43Z</time>
      </trkpt>
      <trkpt lat="43.43785" lon="-0.55786">
        <ele>209</ele>
        <time>2013-05-06T09:38:44Z</time>
      </trkpt>
      <trkpt lat="43.43787" lon="-0.55783">
        <ele>209</ele>
        <time>2013-05-06T09:38:45Z</time>
      </trkpt>
      <trkpt lat="43.43789" lon="-0.55781">
        <ele>207</ele>
        <time>2013-05-06T09:38:46Z</time>
      </trkpt>
      <trkpt lat="43.4379" lon="-0.55779">
        <ele>207</ele>
        <time>2013-05-06T09:38:47Z</time>
      </trkpt>
      <trkpt lat="43.43791" lon="-0.55777">
        <ele>207</ele>
        <time>2013-05-06T09:38:48Z</time>
      </trkpt>
      <trkpt lat="43.43793" lon="-0.55774">
        <ele>208</ele>
        <time>2013-05-06T09:38:49Z</time>
      </trkpt>
      <trkpt lat="43.43795" lon="-0.55772">
        <ele>209</ele>
        <time>2013-05-06T09:38:50Z</time>
      </trkpt>
      <trkpt lat="43.43796" lon="-0.55769">
        <ele>210</ele>
        <time>2013-05-06T09:38:51Z</time>
      </trkpt>
      <trkpt lat="43.43798" lon="-0.55766">
        <ele>211</ele>
        <time>2013-05-06T09:38:52Z</time>
      </trkpt>
      <trkpt lat="43.43799" lon="-0.55763">
        <ele>213</ele>
        <time>2013-05-06T09:38:53Z</time>
      </trkpt>
      <trkpt lat="43.438" lon="-0.5576">
        <ele>214</ele>
        <time>2013-05-06T09:38:54Z</time>
      </trkpt>
      <trkpt lat="43.43801" lon="-0.55757">
        <ele>215</ele>
        <time>2013-05-06T09:38:55Z</time>
      </trkpt>
      <trkpt lat="43.43802" lon="-0.55755">
        <ele>216</ele>
        <time>2013-05-06T09:38:56Z</time>
      </trkpt>
      <trkpt lat="43.43803" lon="-0.55751">
        <ele>215</ele>
        <time>2013-05-06T09:38:57Z</time>
      </trkpt>
      <trkpt lat="43.43804" lon="-0.55747">
        <ele>216</ele>
        <time>2013-05-06T09:38:58Z</time>
      </trkpt>
      <trkpt lat="43.43805" lon="-0.55745">
        <ele>216</ele>
        <time>2013-05-06T09:38:59Z</time>
      </trkpt>
      <trkpt lat="43.43806" lon="-0.55741">
        <ele>218</ele>
        <time>2013-05-06T09:39:00Z</time>
      </trkpt>
      <trkpt lat="43.43807" lon="-0.55738">
        <ele>218</ele>
        <time>2013-05-06T09:39:01Z</time>
      </trkpt>
      <trkpt lat="43.43808" lon="-0.55735">
        <ele>219</ele>
        <time>2013-05-06T09:39:02Z</time>
      </trkpt>
      <trkpt lat="43.43808" lon="-0.55732">
        <ele>220</ele>
        <time>2013-05-06T09:39:03Z</time>
      </trkpt>
      <trkpt lat="43.43808" lon="-0.55728">
        <ele>221</ele>
        <time>2013-05-06T09:39:04Z</time>
      </trkpt>
      <trkpt lat="43.43809" lon="-0.55724">
        <ele>222</ele>
        <time>2013-05-06T09:39:05Z</time>
      </trkpt>
      <trkpt lat="43.4381" lon="-0.55721">
        <ele>221</ele>
        <time>2013-05-06T09:39:06Z</time>
      </trkpt>
      <trkpt lat="43.43811" lon="-0.55718">
        <ele>221</ele>
        <time>2013-05-06T09:39:07Z</time>
      </trkpt>
      <trkpt lat="43.43813" lon="-0.55716">
        <ele>221</ele>
        <time>2013-05-06T09:39:08Z</time>
      </trkpt>
      <trkpt lat="43.43813" lon="-0.55713">
        <ele>221</ele>
        <time>2013-05-06T09:39:09Z</time>
      </trkpt>
      <trkpt lat="43.43815" lon="-0.5571">
        <ele>221</ele>
        <time>2013-05-06T09:39:10Z</time>
      </trkpt>
      <trkpt lat="43.43814" lon="-0.55707">
        <ele>223</ele>
        <time>2013-05-06T09:39:11Z</time>
      </trkpt>
      <trkpt lat="43.43814" lon="-0.55703">
        <ele>223</ele>
        <time>2013-05-06T09:39:12Z</time>
      </trkpt>
      <trkpt lat="43.43814" lon="-0.557">
        <ele>222</ele>
        <time>2013-05-06T09:39:13Z</time>
      </trkpt>
      <trkpt lat="43.43814" lon="-0.55696">
        <ele>222</ele>
        <time>2013-05-06T09:39:14Z</time>
      </trkpt>
      <trkpt lat="43.43815" lon="-0.55694">
        <ele>223</ele>
        <time>2013-05-06T09:39:15Z</time>
      </trkpt>
      <trkpt lat="43.43815" lon="-0.55691">
        <ele>224</ele>
        <time>2013-05-06T09:39:16Z</time>
      </trkpt>
      <trkpt lat="43.43816" lon="-0.55688">
        <ele>224</ele>
        <time>2013-05-06T09:39:17Z</time>
      </trkpt>
      <trkpt lat="43.43816" lon="-0.55685">
        <ele>224</ele>
        <time>2013-05-06T09:39:18Z</time>
      </trkpt>
      <trkpt lat="43.43817" lon="-0.55682">
        <ele>221</ele>
        <time>2013-05-06T09:39:19Z</time>
      </trkpt>
      <trkpt lat="43.43818" lon="-0.55679">
        <ele>222</ele>
        <time>2013-05-06T09:39:20Z</time>
      </trkpt>
      <trkpt lat="43.43818" lon="-0.55676">
        <ele>222</ele>
        <time>2013-05-06T09:39:21Z</time>
      </trkpt>
      <trkpt lat="43.43819" lon="-0.55672">
        <ele>222</ele>
        <time>2013-05-06T09:39:22Z</time>
      </trkpt>
      <trkpt lat="43.4382" lon="-0.55669">
        <ele>222</ele>
        <time>2013-05-06T09:39:23Z</time>
      </trkpt>
      <trkpt lat="43.43821" lon="-0.55665">
        <ele>222</ele>
        <time>2013-05-06T09:39:24Z</time>
      </trkpt>
      <trkpt lat="43.43822" lon="-0.55662">
        <ele>222</ele>
        <time>2013-05-06T09:39:25Z</time>
      </trkpt>
      <trkpt lat="43.43823" lon="-0.55657">
        <ele>222</ele>
        <time>2013-05-06T09:39:26Z</time>
      </trkpt>
      <trkpt lat="43.43824" lon="-0.55652">
        <ele>222</ele>
        <time>2013-05-06T09:39:27Z</time>
      </trkpt>
      <trkpt lat="43.43824" lon="-0.55647">
        <ele>221</ele>
        <time>2013-05-06T09:39:28Z</time>
      </trkpt>
      <trkpt lat="43.43826" lon="-0.55643">
        <ele>221</ele>
        <time>2013-05-06T09:39:29Z</time>
      </trkpt>
      <trkpt lat="43.43825" lon="-0.55635">
        <ele>220</ele>
        <time>2013-05-06T09:39:30Z</time>
      </trkpt>
      <trkpt lat="43.43826" lon="-0.5563">
        <ele>220</ele>
        <time>2013-05-06T09:39:31Z</time>
      </trkpt>
      <trkpt lat="43.43826" lon="-0.55623">
        <ele>220</ele>
        <time>2013-05-06T09:39:32Z</time>
      </trkpt>
      <trkpt lat="43.43822" lon="-0.55612">
        <ele>220</ele>
        <time>2013-05-06T09:39:33Z</time>
      </trkpt>
      <trkpt lat="43.43824" lon="-0.55606">
        <ele>217</ele>
        <time>2013-05-06T09:39:34Z</time>
      </trkpt>
      <trkpt lat="43.43826" lon="-0.55598">
        <ele>219</ele>
        <time>2013-05-06T09:39:35Z</time>
      </trkpt>
      <trkpt lat="43.43827" lon="-0.55592">
        <ele>219</ele>
        <time>2013-05-06T09:39:36Z</time>
      </trkpt>
      <trkpt lat="43.43829" lon="-0.55586">
        <ele>218</ele>
        <time>2013-05-06T09:39:37Z</time>
      </trkpt>
      <trkpt lat="43.43831" lon="-0.5558">
        <ele>218</ele>
        <time>2013-05-06T09:39:38Z</time>
      </trkpt>
      <trkpt lat="43.43832" lon="-0.55576">
        <ele>218</ele>
        <time>2013-05-06T09:39:39Z</time>
      </trkpt>
      <trkpt lat="43.43834" lon="-0.55571">
        <ele>217</ele>
        <time>2013-05-06T09:39:40Z</time>
      </trkpt>
      <trkpt lat="43.43835" lon="-0.55565">
        <ele>217</ele>
        <time>2013-05-06T09:39:41Z</time>
      </trkpt>
      <trkpt lat="43.43838" lon="-0.5556">
        <ele>218</ele>
        <time>2013-05-06T09:39:42Z</time>
      </trkpt>
      <trkpt lat="43.4384" lon="-0.55555">
        <ele>217</ele>
        <time>2013-05-06T09:39:43Z</time>
      </trkpt>
      <trkpt lat="43.43843" lon="-0.55549">
        <ele>217</ele>
        <time>2013-05-06T09:39:44Z</time>
      </trkpt>
      <trkpt lat="43.43845" lon="-0.55544">
        <ele>217</ele>
        <time>2013-05-06T09:39:45Z</time>
      </trkpt>
      <trkpt lat="43.43847" lon="-0.55538">
        <ele>217</ele>
        <time>2013-05-06T09:39:46Z</time>
      </trkpt>
      <trkpt lat="43.4385" lon="-0.55534">
        <ele>217</ele>
        <time>2013-05-06T09:39:47Z</time>
      </trkpt>
      <trkpt lat="43.43852" lon="-0.55528">
        <ele>218</ele>
        <time>2013-05-06T09:39:48Z</time>
      </trkpt>
      <trkpt lat="43.43854" lon="-0.55523">
        <ele>219</ele>
        <time>2013-05-06T09:39:49Z</time>
      </trkpt>
      <trkpt lat="43.43856" lon="-0.55518">
        <ele>219</ele>
        <time>2013-05-06T09:39:50Z</time>
      </trkpt>
      <trkpt lat="43.43859" lon="-0.55512">
        <ele>219</ele>
        <time>2013-05-06T09:39:51Z</time>
      </trkpt>
      <trkpt lat="43.43861" lon="-0.55508">
        <ele>219</ele>
        <time>2013-05-06T09:39:52Z</time>
      </trkpt>
      <trkpt lat="43.43864" lon="-0.55503">
        <ele>219</ele>
        <time>2013-05-06T09:39:53Z</time>
      </trkpt>
      <trkpt lat="43.43866" lon="-0.55498">
        <ele>220</ele>
        <time>2013-05-06T09:39:54Z</time>
      </trkpt>
      <trkpt lat="43.43868" lon="-0.55493">
        <ele>220</ele>
        <time>2013-05-06T09:39:55Z</time>
      </trkpt>
      <trkpt lat="43.4387" lon="-0.55487">
        <ele>220</ele>
        <time>2013-05-06T09:39:56Z</time>
      </trkpt>
      <trkpt lat="43.43872" lon="-0.55482">
        <ele>221</ele>
        <time>2013-05-06T09:39:57Z</time>
      </trkpt>
      <trkpt lat="43.43873" lon="-0.55474">
        <ele>220</ele>
        <time>2013-05-06T09:39:58Z</time>
      </trkpt>
      <trkpt lat="43.43871" lon="-0.55462">
        <ele>220</ele>
        <time>2013-05-06T09:39:59Z</time>
      </trkpt>
      <trkpt lat="43.43867" lon="-0.55451">
        <ele>220</ele>
        <time>2013-05-06T09:40:00Z</time>
      </trkpt>
      <trkpt lat="43.43864" lon="-0.55444">
        <ele>220</ele>
        <time>2013-05-06T09:40:01Z</time>
      </trkpt>
      <trkpt lat="43.43861" lon="-0.55433">
        <ele>220</ele>
        <time>2013-05-06T09:40:02Z</time>
      </trkpt>
      <trkpt lat="43.43859" lon="-0.55425">
        <ele>220</ele>
        <time>2013-05-06T09:40:03Z</time>
      </trkpt>
      <trkpt lat="43.43856" lon="-0.55414">
        <ele>220</ele>
        <time>2013-05-06T09:40:04Z</time>
      </trkpt>
      <trkpt lat="43.43848" lon="-0.55404">
        <ele>220</ele>
        <time>2013-05-06T09:40:05Z</time>
      </trkpt>
      <trkpt lat="43.4385" lon="-0.55397">
        <ele>220</ele>
        <time>2013-05-06T09:40:06Z</time>
      </trkpt>
      <trkpt lat="43.43853" lon="-0.55391">
        <ele>220</ele>
        <time>2013-05-06T09:40:07Z</time>
      </trkpt>
      <trkpt lat="43.43852" lon="-0.55387">
        <ele>220</ele>
        <time>2013-05-06T09:40:08Z</time>
      </trkpt>
      <trkpt lat="43.43861" lon="-0.55377">
        <ele>216</ele>
        <time>2013-05-06T09:40:09Z</time>
      </trkpt>
      <trkpt lat="43.43866" lon="-0.55381">
        <ele>215</ele>
        <time>2013-05-06T09:40:10Z</time>
      </trkpt>
      <trkpt lat="43.43868" lon="-0.5538">
        <ele>214</ele>
        <time>2013-05-06T09:40:11Z</time>
      </trkpt>
      <trkpt lat="43.43869" lon="-0.5538">
        <ele>214</ele>
        <time>2013-05-06T09:40:12Z</time>
      </trkpt>
      <trkpt lat="43.43871" lon="-0.55383">
        <ele>213</ele>
        <time>2013-05-06T09:40:13Z</time>
      </trkpt>
      <trkpt lat="43.43873" lon="-0.55385">
        <ele>213</ele>
        <time>2013-05-06T09:40:14Z</time>
      </trkpt>
      <trkpt lat="43.43877" lon="-0.55387">
        <ele>213</ele>
        <time>2013-05-06T09:40:15Z</time>
      </trkpt>
      <trkpt lat="43.43881" lon="-0.5539">
        <ele>213</ele>
        <time>2013-05-06T09:40:16Z</time>
      </trkpt>
      <trkpt lat="43.43884" lon="-0.55392">
        <ele>213</ele>
        <time>2013-05-06T09:40:17Z</time>
      </trkpt>
      <trkpt lat="43.43893" lon="-0.55396">
        <ele>212</ele>
        <time>2013-05-06T09:40:18Z</time>
      </trkpt>
      <trkpt lat="43.43898" lon="-0.554">
        <ele>212</ele>
        <time>2013-05-06T09:40:19Z</time>
      </trkpt>
      <trkpt lat="43.43904" lon="-0.55404">
        <ele>211</ele>
        <time>2013-05-06T09:40:20Z</time>
      </trkpt>
      <trkpt lat="43.4391" lon="-0.55408">
        <ele>210</ele>
        <time>2013-05-06T09:40:21Z</time>
      </trkpt>
      <trkpt lat="43.43916" lon="-0.55411">
        <ele>209</ele>
        <time>2013-05-06T09:40:22Z</time>
      </trkpt>
      <trkpt lat="43.43923" lon="-0.55414">
        <ele>209</ele>
        <time>2013-05-06T09:40:23Z</time>
      </trkpt>
      <trkpt lat="43.43933" lon="-0.55411">
        <ele>210</ele>
        <time>2013-05-06T09:40:24Z</time>
      </trkpt>
      <trkpt lat="43.43941" lon="-0.55416">
        <ele>210</ele>
        <time>2013-05-06T09:40:25Z</time>
      </trkpt>
      <trkpt lat="43.43946" lon="-0.55419">
        <ele>211</ele>
        <time>2013-05-06T09:40:26Z</time>
      </trkpt>
      <trkpt lat="43.43954" lon="-0.55421">
        <ele>210</ele>
        <time>2013-05-06T09:40:27Z</time>
      </trkpt>
      <trkpt lat="43.43961" lon="-0.55422">
        <ele>209</ele>
        <time>2013-05-06T09:40:28Z</time>
      </trkpt>
      <trkpt lat="43.43969" lon="-0.55426">
        <ele>208</ele>
        <time>2013-05-06T09:40:29Z</time>
      </trkpt>
      <trkpt lat="43.43975" lon="-0.55432">
        <ele>208</ele>
        <time>2013-05-06T09:40:30Z</time>
      </trkpt>
      <trkpt lat="43.43984" lon="-0.55434">
        <ele>207</ele>
        <time>2013-05-06T09:40:31Z</time>
      </trkpt>
      <trkpt lat="43.43991" lon="-0.55439">
        <ele>207</ele>
        <time>2013-05-06T09:40:32Z</time>
      </trkpt>
      <trkpt lat="43.43999" lon="-0.55443">
        <ele>206</ele>
        <time>2013-05-06T09:40:33Z</time>
      </trkpt>
      <trkpt lat="43.44006" lon="-0.55449">
        <ele>205</ele>
        <time>2013-05-06T09:40:34Z</time>
      </trkpt>
      <trkpt lat="43.44014" lon="-0.55452">
        <ele>206</ele>
        <time>2013-05-06T09:40:35Z</time>
      </trkpt>
      <trkpt lat="43.44019" lon="-0.55458">
        <ele>205</ele>
        <time>2013-05-06T09:40:36Z</time>
      </trkpt>
      <trkpt lat="43.44027" lon="-0.55465">
        <ele>205</ele>
        <time>2013-05-06T09:40:37Z</time>
      </trkpt>
      <trkpt lat="43.44029" lon="-0.5547">
        <ele>205</ele>
        <time>2013-05-06T09:40:38Z</time>
      </trkpt>
      <trkpt lat="43.44037" lon="-0.5548">
        <ele>207</ele>
        <time>2013-05-06T09:40:39Z</time>
      </trkpt>
      <trkpt lat="43.44043" lon="-0.55487">
        <ele>206</ele>
        <time>2013-05-06T09:40:40Z</time>
      </trkpt>
      <trkpt lat="43.44046" lon="-0.55492">
        <ele>206</ele>
        <time>2013-05-06T09:40:41Z</time>
      </trkpt>
      <trkpt lat="43.44053" lon="-0.55502">
        <ele>207</ele>
        <time>2013-05-06T09:40:42Z</time>
      </trkpt>
      <trkpt lat="43.44058" lon="-0.55509">
        <ele>206</ele>
        <time>2013-05-06T09:40:43Z</time>
      </trkpt>
      <trkpt lat="43.44062" lon="-0.55516">
        <ele>206</ele>
        <time>2013-05-06T09:40:44Z</time>
      </trkpt>
      <trkpt lat="43.44067" lon="-0.55527">
        <ele>206</ele>
        <time>2013-05-06T09:40:45Z</time>
      </trkpt>
      <trkpt lat="43.4407" lon="-0.55535">
        <ele>205</ele>
        <time>2013-05-06T09:40:46Z</time>
      </trkpt>
      <trkpt lat="43.44074" lon="-0.55545">
        <ele>204</ele>
        <time>2013-05-06T09:40:47Z</time>
      </trkpt>
      <trkpt lat="43.44077" lon="-0.55552">
        <ele>204</ele>
        <time>2013-05-06T09:40:48Z</time>
      </trkpt>
      <trkpt lat="43.4408" lon="-0.55559">
        <ele>204</ele>
        <time>2013-05-06T09:40:49Z</time>
      </trkpt>
      <trkpt lat="43.44082" lon="-0.55565">
        <ele>204</ele>
        <time>2013-05-06T09:40:50Z</time>
      </trkpt>
      <trkpt lat="43.44085" lon="-0.55572">
        <ele>204</ele>
        <time>2013-05-06T09:40:51Z</time>
      </trkpt>
      <trkpt lat="43.44089" lon="-0.55578">
        <ele>204</ele>
        <time>2013-05-06T09:40:52Z</time>
      </trkpt>
      <trkpt lat="43.44091" lon="-0.55584">
        <ele>204</ele>
        <time>2013-05-06T09:40:53Z</time>
      </trkpt>
      <trkpt lat="43.44091" lon="-0.55589">
        <ele>204</ele>
        <time>2013-05-06T09:40:54Z</time>
      </trkpt>
      <trkpt lat="43.44094" lon="-0.55596">
        <ele>204</ele>
        <time>2013-05-06T09:40:55Z</time>
      </trkpt>
      <trkpt lat="43.44095" lon="-0.55602">
        <ele>204</ele>
        <time>2013-05-06T09:40:56Z</time>
      </trkpt>
      <trkpt lat="43.44097" lon="-0.55607">
        <ele>204</ele>
        <time>2013-05-06T09:40:57Z</time>
      </trkpt>
      <trkpt lat="43.44098" lon="-0.55613">
        <ele>205</ele>
        <time>2013-05-06T09:40:58Z</time>
      </trkpt>
      <trkpt lat="43.44102" lon="-0.55618">
        <ele>206</ele>
        <time>2013-05-06T09:40:59Z</time>
      </trkpt>
      <trkpt lat="43.44105" lon="-0.55621">
        <ele>207</ele>
        <time>2013-05-06T09:41:00Z</time>
      </trkpt>
      <trkpt lat="43.44108" lon="-0.55625">
        <ele>207</ele>
        <time>2013-05-06T09:41:01Z</time>
      </trkpt>
      <trkpt lat="43.44109" lon="-0.5563">
        <ele>207</ele>
        <time>2013-05-06T09:41:02Z</time>
      </trkpt>
      <trkpt lat="43.4411" lon="-0.55635">
        <ele>207</ele>
        <time>2013-05-06T09:41:03Z</time>
      </trkpt>
      <trkpt lat="43.4411" lon="-0.5564">
        <ele>207</ele>
        <time>2013-05-06T09:41:04Z</time>
      </trkpt>
      <trkpt lat="43.44115" lon="-0.55644">
        <ele>207</ele>
        <time>2013-05-06T09:41:05Z</time>
      </trkpt>
      <trkpt lat="43.44119" lon="-0.5565">
        <ele>208</ele>
        <time>2013-05-06T09:41:06Z</time>
      </trkpt>
      <trkpt lat="43.44119" lon="-0.55655">
        <ele>207</ele>
        <time>2013-05-06T09:41:07Z</time>
      </trkpt>
      <trkpt lat="43.44121" lon="-0.5566">
        <ele>207</ele>
        <time>2013-05-06T09:41:08Z</time>
      </trkpt>
      <trkpt lat="43.44123" lon="-0.55665">
        <ele>207</ele>
        <time>2013-05-06T09:41:09Z</time>
      </trkpt>
      <trkpt lat="43.44125" lon="-0.55669">
        <ele>208</ele>
        <time>2013-05-06T09:41:10Z</time>
      </trkpt>
      <trkpt lat="43.44127" lon="-0.55672">
        <ele>208</ele>
        <time>2013-05-06T09:41:11Z</time>
      </trkpt>
      <trkpt lat="43.4413" lon="-0.55678">
        <ele>208</ele>
        <time>2013-05-06T09:41:12Z</time>
      </trkpt>
      <trkpt lat="43.44133" lon="-0.55683">
        <ele>208</ele>
        <time>2013-05-06T09:41:13Z</time>
      </trkpt>
      <trkpt lat="43.44136" lon="-0.55688">
        <ele>207</ele>
        <time>2013-05-06T09:41:14Z</time>
      </trkpt>
      <trkpt lat="43.44138" lon="-0.55694">
        <ele>207</ele>
        <time>2013-05-06T09:41:15Z</time>
      </trkpt>
      <trkpt lat="43.4414" lon="-0.55699">
        <ele>208</ele>
        <time>2013-05-06T09:41:16Z</time>
      </trkpt>
      <trkpt lat="43.44141" lon="-0.55703">
        <ele>208</ele>
        <time>2013-05-06T09:41:17Z</time>
      </trkpt>
      <trkpt lat="43.44142" lon="-0.55707">
        <ele>208</ele>
        <time>2013-05-06T09:41:18Z</time>
      </trkpt>
      <trkpt lat="43.44143" lon="-0.5571">
        <ele>209</ele>
        <time>2013-05-06T09:41:19Z</time>
      </trkpt>
      <trkpt lat="43.44143" lon="-0.55713">
        <ele>209</ele>
        <time>2013-05-06T09:41:20Z</time>
      </trkpt>
      <trkpt lat="43.44144" lon="-0.55717">
        <ele>209</ele>
        <time>2013-05-06T09:41:21Z</time>
      </trkpt>
      <trkpt lat="43.44144" lon="-0.5572">
        <ele>209</ele>
        <time>2013-05-06T09:41:22Z</time>
      </trkpt>
      <trkpt lat="43.44146" lon="-0.55723">
        <ele>208</ele>
        <time>2013-05-06T09:41:23Z</time>
      </trkpt>
      <trkpt lat="43.44148" lon="-0.55727">
        <ele>208</ele>
        <time>2013-05-06T09:41:24Z</time>
      </trkpt>
      <trkpt lat="43.44151" lon="-0.55731">
        <ele>208</ele>
        <time>2013-05-06T09:41:25Z</time>
      </trkpt>
      <trkpt lat="43.44154" lon="-0.55735">
        <ele>207</ele>
        <time>2013-05-06T09:41:26Z</time>
      </trkpt>
      <trkpt lat="43.44156" lon="-0.55738">
        <ele>207</ele>
        <time>2013-05-06T09:41:27Z</time>
      </trkpt>
      <trkpt lat="43.44159" lon="-0.55742">
        <ele>207</ele>
        <time>2013-05-06T09:41:28Z</time>
      </trkpt>
      <trkpt lat="43.44163" lon="-0.55744">
        <ele>207</ele>
        <time>2013-05-06T09:41:29Z</time>
      </trkpt>
      <trkpt lat="43.44167" lon="-0.55747">
        <ele>207</ele>
        <time>2013-05-06T09:41:30Z</time>
      </trkpt>
      <trkpt lat="43.44169" lon="-0.5575">
        <ele>206</ele>
        <time>2013-05-06T09:41:31Z</time>
      </trkpt>
      <trkpt lat="43.44175" lon="-0.55752">
        <ele>208</ele>
        <time>2013-05-06T09:41:32Z</time>
      </trkpt>
      <trkpt lat="43.44179" lon="-0.55754">
        <ele>208</ele>
        <time>2013-05-06T09:41:33Z</time>
      </trkpt>
      <trkpt lat="43.44183" lon="-0.55758">
        <ele>208</ele>
        <time>2013-05-06T09:41:34Z</time>
      </trkpt>
      <trkpt lat="43.44186" lon="-0.55761">
        <ele>208</ele>
        <time>2013-05-06T09:41:35Z</time>
      </trkpt>
      <trkpt lat="43.4419" lon="-0.55763">
        <ele>208</ele>
        <time>2013-05-06T09:41:36Z</time>
      </trkpt>
      <trkpt lat="43.44204" lon="-0.5578">
        <ele>205</ele>
        <time>2013-05-06T09:41:37Z</time>
      </trkpt>
      <trkpt lat="43.44209" lon="-0.55786">
        <ele>205</ele>
        <time>2013-05-06T09:41:38Z</time>
      </trkpt>
      <trkpt lat="43.44212" lon="-0.55791">
        <ele>205</ele>
        <time>2013-05-06T09:41:39Z</time>
      </trkpt>
      <trkpt lat="43.44216" lon="-0.55793">
        <ele>205</ele>
        <time>2013-05-06T09:41:40Z</time>
      </trkpt>
      <trkpt lat="43.4422" lon="-0.55796">
        <ele>204</ele>
        <time>2013-05-06T09:41:41Z</time>
      </trkpt>
      <trkpt lat="43.44225" lon="-0.55799">
        <ele>205</ele>
        <time>2013-05-06T09:41:42Z</time>
      </trkpt>
      <trkpt lat="43.44229" lon="-0.55802">
        <ele>205</ele>
        <time>2013-05-06T09:41:43Z</time>
      </trkpt>
      <trkpt lat="43.44239" lon="-0.55808">
        <ele>205</ele>
        <time>2013-05-06T09:41:44Z</time>
      </trkpt>
      <trkpt lat="43.44245" lon="-0.55816">
        <ele>205</ele>
        <time>2013-05-06T09:41:45Z</time>
      </trkpt>
      <trkpt lat="43.44249" lon="-0.55822">
        <ele>205</ele>
        <time>2013-05-06T09:41:46Z</time>
      </trkpt>
      <trkpt lat="43.44255" lon="-0.55824">
        <ele>204</ele>
        <time>2013-05-06T09:41:47Z</time>
      </trkpt>
      <trkpt lat="43.44261" lon="-0.5583">
        <ele>203</ele>
        <time>2013-05-06T09:41:48Z</time>
      </trkpt>
      <trkpt lat="43.44265" lon="-0.55835">
        <ele>203</ele>
        <time>2013-05-06T09:41:49Z</time>
      </trkpt>
      <trkpt lat="43.4427" lon="-0.55839">
        <ele>203</ele>
        <time>2013-05-06T09:41:50Z</time>
      </trkpt>
      <trkpt lat="43.44274" lon="-0.55844">
        <ele>202</ele>
        <time>2013-05-06T09:41:51Z</time>
      </trkpt>
      <trkpt lat="43.4428" lon="-0.55851">
        <ele>202</ele>
        <time>2013-05-06T09:41:52Z</time>
      </trkpt>
      <trkpt lat="43.44286" lon="-0.55858">
        <ele>202</ele>
        <time>2013-05-06T09:41:53Z</time>
      </trkpt>
      <trkpt lat="43.44291" lon="-0.55864">
        <ele>201</ele>
        <time>2013-05-06T09:41:54Z</time>
      </trkpt>
      <trkpt lat="43.44297" lon="-0.5587">
        <ele>201</ele>
        <time>2013-05-06T09:41:55Z</time>
      </trkpt>
      <trkpt lat="43.44302" lon="-0.55877">
        <ele>202</ele>
        <time>2013-05-06T09:41:56Z</time>
      </trkpt>
      <trkpt lat="43.44307" lon="-0.55884">
        <ele>201</ele>
        <time>2013-05-06T09:41:57Z</time>
      </trkpt>
      <trkpt lat="43.44313" lon="-0.55893">
        <ele>200</ele>
        <time>2013-05-06T09:41:58Z</time>
      </trkpt>
      <trkpt lat="43.44318" lon="-0.55903">
        <ele>200</ele>
        <time>2013-05-06T09:41:59Z</time>
      </trkpt>
      <trkpt lat="43.44322" lon="-0.55912">
        <ele>199</ele>
        <time>2013-05-06T09:42:00Z</time>
      </trkpt>
      <trkpt lat="43.44326" lon="-0.55922">
        <ele>199</ele>
        <time>2013-05-06T09:42:01Z</time>
      </trkpt>
      <trkpt lat="43.4433" lon="-0.55931">
        <ele>198</ele>
        <time>2013-05-06T09:42:02Z</time>
      </trkpt>
      <trkpt lat="43.44333" lon="-0.55938">
        <ele>198</ele>
        <time>2013-05-06T09:42:03Z</time>
      </trkpt>
      <trkpt lat="43.44336" lon="-0.55947">
        <ele>198</ele>
        <time>2013-05-06T09:42:04Z</time>
      </trkpt>
      <trkpt lat="43.4434" lon="-0.55956">
        <ele>198</ele>
        <time>2013-05-06T09:42:05Z</time>
      </trkpt>
      <trkpt lat="43.44342" lon="-0.55964">
        <ele>197</ele>
        <time>2013-05-06T09:42:06Z</time>
      </trkpt>
      <trkpt lat="43.44346" lon="-0.55972">
        <ele>197</ele>
        <time>2013-05-06T09:42:07Z</time>
      </trkpt>
      <trkpt lat="43.44349" lon="-0.55981">
        <ele>196</ele>
        <time>2013-05-06T09:42:08Z</time>
      </trkpt>
      <trkpt lat="43.44352" lon="-0.55988">
        <ele>196</ele>
        <time>2013-05-06T09:42:09Z</time>
      </trkpt>
      <trkpt lat="43.44355" lon="-0.55996">
        <ele>195</ele>
        <time>2013-05-06T09:42:10Z</time>
      </trkpt>
      <trkpt lat="43.44357" lon="-0.56001">
        <ele>194</ele>
        <time>2013-05-06T09:42:11Z</time>
      </trkpt>
      <trkpt lat="43.44359" lon="-0.56004">
        <ele>194</ele>
        <time>2013-05-06T09:42:12Z</time>
      </trkpt>
      <trkpt lat="43.44365" lon="-0.56008">
        <ele>193</ele>
        <time>2013-05-06T09:42:13Z</time>
      </trkpt>
      <trkpt lat="43.44368" lon="-0.56009">
        <ele>193</ele>
        <time>2013-05-06T09:42:14Z</time>
      </trkpt>
      <trkpt lat="43.4438" lon="-0.56009">
        <ele>193</ele>
        <time>2013-05-06T09:42:15Z</time>
      </trkpt>
      <trkpt lat="43.44387" lon="-0.56009">
        <ele>193</ele>
        <time>2013-05-06T09:42:16Z</time>
      </trkpt>
      <trkpt lat="43.44394" lon="-0.5601">
        <ele>192</ele>
        <time>2013-05-06T09:42:17Z</time>
      </trkpt>
      <trkpt lat="43.44401" lon="-0.5601">
        <ele>192</ele>
        <time>2013-05-06T09:42:18Z</time>
      </trkpt>
      <trkpt lat="43.44408" lon="-0.5601">
        <ele>191</ele>
        <time>2013-05-06T09:42:19Z</time>
      </trkpt>
      <trkpt lat="43.44419" lon="-0.5601">
        <ele>190</ele>
        <time>2013-05-06T09:42:20Z</time>
      </trkpt>
      <trkpt lat="43.44428" lon="-0.5601">
        <ele>189</ele>
        <time>2013-05-06T09:42:21Z</time>
      </trkpt>
      <trkpt lat="43.44437" lon="-0.5601">
        <ele>188</ele>
        <time>2013-05-06T09:42:22Z</time>
      </trkpt>
      <trkpt lat="43.44444" lon="-0.56011">
        <ele>187</ele>
        <time>2013-05-06T09:42:23Z</time>
      </trkpt>
      <trkpt lat="43.4445" lon="-0.56011">
        <ele>186</ele>
        <time>2013-05-06T09:42:24Z</time>
      </trkpt>
      <trkpt lat="43.44454" lon="-0.5601">
        <ele>186</ele>
        <time>2013-05-06T09:42:25Z</time>
      </trkpt>
      <trkpt lat="43.4446" lon="-0.5601">
        <ele>185</ele>
        <time>2013-05-06T09:42:26Z</time>
      </trkpt>
      <trkpt lat="43.44465" lon="-0.56009">
        <ele>185</ele>
        <time>2013-05-06T09:42:27Z</time>
      </trkpt>
      <trkpt lat="43.44467" lon="-0.5601">
        <ele>185</ele>
        <time>2013-05-06T09:42:28Z</time>
      </trkpt>
      <trkpt lat="43.4447" lon="-0.55978">
        <ele>184</ele>
        <time>2013-05-06T09:42:29Z</time>
      </trkpt>
      <trkpt lat="43.44475" lon="-0.55974">
        <ele>185</ele>
        <time>2013-05-06T09:42:30Z</time>
      </trkpt>
      <trkpt lat="43.44479" lon="-0.5597">
        <ele>185</ele>
        <time>2013-05-06T09:42:31Z</time>
      </trkpt>
      <trkpt lat="43.44481" lon="-0.55965">
        <ele>185</ele>
        <time>2013-05-06T09:42:32Z</time>
      </trkpt>
      <trkpt lat="43.44486" lon="-0.55957">
        <ele>185</ele>
        <time>2013-05-06T09:42:33Z</time>
      </trkpt>
      <trkpt lat="43.44488" lon="-0.55952">
        <ele>184</ele>
        <time>2013-05-06T09:42:34Z</time>
      </trkpt>
      <trkpt lat="43.4449" lon="-0.55944">
        <ele>182</ele>
        <time>2013-05-06T09:42:35Z</time>
      </trkpt>
      <trkpt lat="43.4449" lon="-0.55938">
        <ele>182</ele>
        <time>2013-05-06T09:42:36Z</time>
      </trkpt>
      <trkpt lat="43.44492" lon="-0.55931">
        <ele>182</ele>
        <time>2013-05-06T09:42:37Z</time>
      </trkpt>
      <trkpt lat="43.44494" lon="-0.55925">
        <ele>182</ele>
        <time>2013-05-06T09:42:38Z</time>
      </trkpt>
      <trkpt lat="43.44494" lon="-0.55919">
        <ele>179</ele>
        <time>2013-05-06T09:42:39Z</time>
      </trkpt>
      <trkpt lat="43.44495" lon="-0.55913">
        <ele>179</ele>
        <time>2013-05-06T09:42:40Z</time>
      </trkpt>
      <trkpt lat="43.44494" lon="-0.55905">
        <ele>178</ele>
        <time>2013-05-06T09:42:41Z</time>
      </trkpt>
      <trkpt lat="43.44495" lon="-0.559">
        <ele>178</ele>
        <time>2013-05-06T09:42:42Z</time>
      </trkpt>
      <trkpt lat="43.44496" lon="-0.55894">
        <ele>177</ele>
        <time>2013-05-06T09:42:43Z</time>
      </trkpt>
      <trkpt lat="43.44497" lon="-0.55889">
        <ele>176</ele>
        <time>2013-05-06T09:42:44Z</time>
      </trkpt>
      <trkpt lat="43.44498" lon="-0.55879">
        <ele>175</ele>
        <time>2013-05-06T09:42:45Z</time>
      </trkpt>
      <trkpt lat="43.44497" lon="-0.55873">
        <ele>175</ele>
        <time>2013-05-06T09:42:46Z</time>
      </trkpt>
      <trkpt lat="43.44497" lon="-0.55869">
        <ele>175</ele>
        <time>2013-05-06T09:42:47Z</time>
      </trkpt>
      <trkpt lat="43.44497" lon="-0.55864">
        <ele>175</ele>
        <time>2013-05-06T09:42:48Z</time>
      </trkpt>
      <trkpt lat="43.44497" lon="-0.55858">
        <ele>174</ele>
        <time>2013-05-06T09:42:49Z</time>
      </trkpt>
      <trkpt lat="43.44495" lon="-0.55851">
        <ele>173</ele>
        <time>2013-05-06T09:42:50Z</time>
      </trkpt>
      <trkpt lat="43.44495" lon="-0.55844">
        <ele>172</ele>
        <time>2013-05-06T09:42:51Z</time>
      </trkpt>
      <trkpt lat="43.44494" lon="-0.55834">
        <ele>172</ele>
        <time>2013-05-06T09:42:52Z</time>
      </trkpt>
      <trkpt lat="43.44494" lon="-0.55826">
        <ele>171</ele>
        <time>2013-05-06T09:42:53Z</time>
      </trkpt>
      <trkpt lat="43.44495" lon="-0.55817">
        <ele>171</ele>
        <time>2013-05-06T09:42:54Z</time>
      </trkpt>
      <trkpt lat="43.44495" lon="-0.55809">
        <ele>172</ele>
        <time>2013-05-06T09:42:55Z</time>
      </trkpt>
      <trkpt lat="43.44492" lon="-0.55801">
        <ele>172</ele>
        <time>2013-05-06T09:42:56Z</time>
      </trkpt>
      <trkpt lat="43.44486" lon="-0.55795">
        <ele>172</ele>
        <time>2013-05-06T09:42:57Z</time>
      </trkpt>
      <trkpt lat="43.44483" lon="-0.55789">
        <ele>172</ele>
        <time>2013-05-06T09:42:58Z</time>
      </trkpt>
      <trkpt lat="43.44478" lon="-0.55783">
        <ele>172</ele>
        <time>2013-05-06T09:42:59Z</time>
      </trkpt>
      <trkpt lat="43.44472" lon="-0.55775">
        <ele>171</ele>
        <time>2013-05-06T09:43:00Z</time>
      </trkpt>
      <trkpt lat="43.4447" lon="-0.55764">
        <ele>169</ele>
        <time>2013-05-06T09:43:01Z</time>
      </trkpt>
      <trkpt lat="43.4447" lon="-0.55756">
        <ele>168</ele>
        <time>2013-05-06T09:43:02Z</time>
      </trkpt>
      <trkpt lat="43.44471" lon="-0.55746">
        <ele>167</ele>
        <time>2013-05-06T09:43:03Z</time>
      </trkpt>
      <trkpt lat="43.44471" lon="-0.55737">
        <ele>168</ele>
        <time>2013-05-06T09:43:04Z</time>
      </trkpt>
      <trkpt lat="43.44476" lon="-0.5573">
        <ele>168</ele>
        <time>2013-05-06T09:43:05Z</time>
      </trkpt>
      <trkpt lat="43.44481" lon="-0.55721">
        <ele>167</ele>
        <time>2013-05-06T09:43:06Z</time>
      </trkpt>
      <trkpt lat="43.44484" lon="-0.55712">
        <ele>167</ele>
        <time>2013-05-06T09:43:07Z</time>
      </trkpt>
      <trkpt lat="43.44496" lon="-0.55707">
        <ele>165</ele>
        <time>2013-05-06T09:43:08Z</time>
      </trkpt>
      <trkpt lat="43.44502" lon="-0.55702">
        <ele>166</ele>
        <time>2013-05-06T09:43:09Z</time>
      </trkpt>
      <trkpt lat="43.44506" lon="-0.55697">
        <ele>166</ele>
        <time>2013-05-06T09:43:10Z</time>
      </trkpt>
      <trkpt lat="43.44512" lon="-0.55691">
        <ele>166</ele>
        <time>2013-05-06T09:43:11Z</time>
      </trkpt>
      <trkpt lat="43.44516" lon="-0.55686">
        <ele>165</ele>
        <time>2013-05-06T09:43:12Z</time>
      </trkpt>
      <trkpt lat="43.44521" lon="-0.5568">
        <ele>165</ele>
        <time>2013-05-06T09:43:13Z</time>
      </trkpt>
      <trkpt lat="43.44525" lon="-0.5567">
        <ele>165</ele>
        <time>2013-05-06T09:43:14Z</time>
      </trkpt>
      <trkpt lat="43.44531" lon="-0.55665">
        <ele>165</ele>
        <time>2013-05-06T09:43:15Z</time>
      </trkpt>
      <trkpt lat="43.44534" lon="-0.5566">
        <ele>165</ele>
        <time>2013-05-06T09:43:16Z</time>
      </trkpt>
      <trkpt lat="43.44536" lon="-0.55656">
        <ele>165</ele>
        <time>2013-05-06T09:43:17Z</time>
      </trkpt>
      <trkpt lat="43.4454" lon="-0.55653">
        <ele>164</ele>
        <time>2013-05-06T09:43:18Z</time>
      </trkpt>
      <trkpt lat="43.44544" lon="-0.55648">
        <ele>163</ele>
        <time>2013-05-06T09:43:19Z</time>
      </trkpt>
      <trkpt lat="43.44547" lon="-0.55643">
        <ele>163</ele>
        <time>2013-05-06T09:43:20Z</time>
      </trkpt>
      <trkpt lat="43.4455" lon="-0.55639">
        <ele>163</ele>
        <time>2013-05-06T09:43:21Z</time>
      </trkpt>
      <trkpt lat="43.44554" lon="-0.55634">
        <ele>163</ele>
        <time>2013-05-06T09:43:22Z</time>
      </trkpt>
      <trkpt lat="43.44557" lon="-0.5563">
        <ele>163</ele>
        <time>2013-05-06T09:43:23Z</time>
      </trkpt>
      <trkpt lat="43.44561" lon="-0.55626">
        <ele>164</ele>
        <time>2013-05-06T09:43:24Z</time>
      </trkpt>
      <trkpt lat="43.44565" lon="-0.55622">
        <ele>162</ele>
        <time>2013-05-06T09:43:25Z</time>
      </trkpt>
      <trkpt lat="43.44568" lon="-0.55617">
        <ele>160</ele>
        <time>2013-05-06T09:43:26Z</time>
      </trkpt>
      <trkpt lat="43.4457" lon="-0.55613">
        <ele>158</ele>
        <time>2013-05-06T09:43:27Z</time>
      </trkpt>
      <trkpt lat="43.44574" lon="-0.55607">
        <ele>159</ele>
        <time>2013-05-06T09:43:28Z</time>
      </trkpt>
      <trkpt lat="43.44576" lon="-0.55606">
        <ele>160</ele>
        <time>2013-05-06T09:43:29Z</time>
      </trkpt>
      <trkpt lat="43.44581" lon="-0.55599">
        <ele>160</ele>
        <time>2013-05-06T09:43:30Z</time>
      </trkpt>
      <trkpt lat="43.44585" lon="-0.55596">
        <ele>161</ele>
        <time>2013-05-06T09:43:31Z</time>
      </trkpt>
      <trkpt lat="43.4459" lon="-0.55593">
        <ele>162</ele>
        <time>2013-05-06T09:43:32Z</time>
      </trkpt>
      <trkpt lat="43.44594" lon="-0.5559">
        <ele>162</ele>
        <time>2013-05-06T09:43:33Z</time>
      </trkpt>
      <trkpt lat="43.44598" lon="-0.55585">
        <ele>161</ele>
        <time>2013-05-06T09:43:34Z</time>
      </trkpt>
      <trkpt lat="43.44602" lon="-0.55579">
        <ele>162</ele>
        <time>2013-05-06T09:43:35Z</time>
      </trkpt>
      <trkpt lat="43.44605" lon="-0.55574">
        <ele>162</ele>
        <time>2013-05-06T09:43:36Z</time>
      </trkpt>
      <trkpt lat="43.4461" lon="-0.55569">
        <ele>161</ele>
        <time>2013-05-06T09:43:37Z</time>
      </trkpt>
      <trkpt lat="43.44614" lon="-0.55565">
        <ele>162</ele>
        <time>2013-05-06T09:43:38Z</time>
      </trkpt>
      <trkpt lat="43.44618" lon="-0.55565">
        <ele>158</ele>
        <time>2013-05-06T09:43:39Z</time>
      </trkpt>
      <trkpt lat="43.44622" lon="-0.55562">
        <ele>155</ele>
        <time>2013-05-06T09:43:40Z</time>
      </trkpt>
      <trkpt lat="43.44626" lon="-0.55556">
        <ele>154</ele>
        <time>2013-05-06T09:43:41Z</time>
      </trkpt>
      <trkpt lat="43.44629" lon="-0.55553">
        <ele>153</ele>
        <time>2013-05-06T09:43:42Z</time>
      </trkpt>
      <trkpt lat="43.44634" lon="-0.55546">
        <ele>154</ele>
        <time>2013-05-06T09:43:43Z</time>
      </trkpt>
      <trkpt lat="43.44637" lon="-0.55544">
        <ele>155</ele>
        <time>2013-05-06T09:43:44Z</time>
      </trkpt>
      <trkpt lat="43.44642" lon="-0.5554">
        <ele>157</ele>
        <time>2013-05-06T09:43:45Z</time>
      </trkpt>
      <trkpt lat="43.44647" lon="-0.55536">
        <ele>158</ele>
        <time>2013-05-06T09:43:46Z</time>
      </trkpt>
      <trkpt lat="43.44651" lon="-0.55533">
        <ele>159</ele>
        <time>2013-05-06T09:43:47Z</time>
      </trkpt>
      <trkpt lat="43.44655" lon="-0.55528">
        <ele>159</ele>
        <time>2013-05-06T09:43:48Z</time>
      </trkpt>
      <trkpt lat="43.44658" lon="-0.55526">
        <ele>160</ele>
        <time>2013-05-06T09:43:49Z</time>
      </trkpt>
      <trkpt lat="43.44662" lon="-0.55523">
        <ele>160</ele>
        <time>2013-05-06T09:43:50Z</time>
      </trkpt>
      <trkpt lat="43.44665" lon="-0.5552">
        <ele>160</ele>
        <time>2013-05-06T09:43:51Z</time>
      </trkpt>
      <trkpt lat="43.44667" lon="-0.55516">
        <ele>161</ele>
        <time>2013-05-06T09:43:52Z</time>
      </trkpt>
      <trkpt lat="43.44671" lon="-0.55515">
        <ele>161</ele>
        <time>2013-05-06T09:43:53Z</time>
      </trkpt>
      <trkpt lat="43.44672" lon="-0.55512">
        <ele>162</ele>
        <time>2013-05-06T09:43:54Z</time>
      </trkpt>
      <trkpt lat="43.44674" lon="-0.55509">
        <ele>163</ele>
        <time>2013-05-06T09:43:55Z</time>
      </trkpt>
      <trkpt lat="43.44676" lon="-0.55507">
        <ele>163</ele>
        <time>2013-05-06T09:43:56Z</time>
      </trkpt>
      <trkpt lat="43.44678" lon="-0.55503">
        <ele>163</ele>
        <time>2013-05-06T09:43:57Z</time>
      </trkpt>
      <trkpt lat="43.4468" lon="-0.55498">
        <ele>164</ele>
        <time>2013-05-06T09:43:58Z</time>
      </trkpt>
      <trkpt lat="43.44682" lon="-0.55493">
        <ele>165</ele>
        <time>2013-05-06T09:43:59Z</time>
      </trkpt>
      <trkpt lat="43.44685" lon="-0.5549">
        <ele>166</ele>
        <time>2013-05-06T09:44:00Z</time>
      </trkpt>
      <trkpt lat="43.44687" lon="-0.55486">
        <ele>166</ele>
        <time>2013-05-06T09:44:01Z</time>
      </trkpt>
      <trkpt lat="43.4469" lon="-0.55483">
        <ele>165</ele>
        <time>2013-05-06T09:44:02Z</time>
      </trkpt>
      <trkpt lat="43.44693" lon="-0.5548">
        <ele>165</ele>
        <time>2013-05-06T09:44:03Z</time>
      </trkpt>
      <trkpt lat="43.44696" lon="-0.55478">
        <ele>165</ele>
        <time>2013-05-06T09:44:04Z</time>
      </trkpt>
      <trkpt lat="43.44699" lon="-0.55475">
        <ele>166</ele>
        <time>2013-05-06T09:44:05Z</time>
      </trkpt>
      <trkpt lat="43.44702" lon="-0.55472">
        <ele>166</ele>
        <time>2013-05-06T09:44:06Z</time>
      </trkpt>
      <trkpt lat="43.44705" lon="-0.55469">
        <ele>165</ele>
        <time>2013-05-06T09:44:07Z</time>
      </trkpt>
      <trkpt lat="43.44708" lon="-0.55464">
        <ele>165</ele>
        <time>2013-05-06T09:44:08Z</time>
      </trkpt>
      <trkpt lat="43.44711" lon="-0.5546">
        <ele>165</ele>
        <time>2013-05-06T09:44:09Z</time>
      </trkpt>
      <trkpt lat="43.44714" lon="-0.55456">
        <ele>165</ele>
        <time>2013-05-06T09:44:10Z</time>
      </trkpt>
      <trkpt lat="43.44717" lon="-0.55452">
        <ele>166</ele>
        <time>2013-05-06T09:44:11Z</time>
      </trkpt>
      <trkpt lat="43.4472" lon="-0.55448">
        <ele>166</ele>
        <time>2013-05-06T09:44:12Z</time>
      </trkpt>
      <trkpt lat="43.44724" lon="-0.55444">
        <ele>166</ele>
        <time>2013-05-06T09:44:13Z</time>
      </trkpt>
      <trkpt lat="43.44727" lon="-0.5544">
        <ele>166</ele>
        <time>2013-05-06T09:44:14Z</time>
      </trkpt>
      <trkpt lat="43.4473" lon="-0.55436">
        <ele>166</ele>
        <time>2013-05-06T09:44:15Z</time>
      </trkpt>
      <trkpt lat="43.44733" lon="-0.55432">
        <ele>166</ele>
        <time>2013-05-06T09:44:16Z</time>
      </trkpt>
      <trkpt lat="43.44737" lon="-0.55427">
        <ele>166</ele>
        <time>2013-05-06T09:44:17Z</time>
      </trkpt>
      <trkpt lat="43.44741" lon="-0.55422">
        <ele>164</ele>
        <time>2013-05-06T09:44:18Z</time>
      </trkpt>
      <trkpt lat="43.44743" lon="-0.55416">
        <ele>163</ele>
        <time>2013-05-06T09:44:19Z</time>
      </trkpt>
      <trkpt lat="43.44745" lon="-0.55412">
        <ele>163</ele>
        <time>2013-05-06T09:44:20Z</time>
      </trkpt>
      <trkpt lat="43.44749" lon="-0.55408">
        <ele>162</ele>
        <time>2013-05-06T09:44:21Z</time>
      </trkpt>
      <trkpt lat="43.44751" lon="-0.55405">
        <ele>163</ele>
        <time>2013-05-06T09:44:22Z</time>
      </trkpt>
      <trkpt lat="43.44754" lon="-0.55401">
        <ele>163</ele>
        <time>2013-05-06T09:44:23Z</time>
      </trkpt>
      <trkpt lat="43.44758" lon="-0.55397">
        <ele>163</ele>
        <time>2013-05-06T09:44:24Z</time>
      </trkpt>
      <trkpt lat="43.44761" lon="-0.55395">
        <ele>163</ele>
        <time>2013-05-06T09:44:25Z</time>
      </trkpt>
      <trkpt lat="43.44763" lon="-0.55391">
        <ele>163</ele>
        <time>2013-05-06T09:44:26Z</time>
      </trkpt>
      <trkpt lat="43.44766" lon="-0.55387">
        <ele>163</ele>
        <time>2013-05-06T09:44:27Z</time>
      </trkpt>
      <trkpt lat="43.44758" lon="-0.55381">
        <ele>166</ele>
        <time>2013-05-06T09:44:28Z</time>
      </trkpt>
      <trkpt lat="43.44753" lon="-0.55377">
        <ele>167</ele>
        <time>2013-05-06T09:44:29Z</time>
      </trkpt>
      <trkpt lat="43.4475" lon="-0.55373">
        <ele>168</ele>
        <time>2013-05-06T09:44:30Z</time>
      </trkpt>
      <trkpt lat="43.44752" lon="-0.55367">
        <ele>160</ele>
        <time>2013-05-06T09:44:31Z</time>
      </trkpt>
      <trkpt lat="43.44751" lon="-0.55364">
        <ele>160</ele>
        <time>2013-05-06T09:44:32Z</time>
      </trkpt>
      <trkpt lat="43.44749" lon="-0.5536">
        <ele>159</ele>
        <time>2013-05-06T09:44:33Z</time>
      </trkpt>
      <trkpt lat="43.44748" lon="-0.55356">
        <ele>159</ele>
        <time>2013-05-06T09:44:34Z</time>
      </trkpt>
      <trkpt lat="43.44745" lon="-0.55353">
        <ele>159</ele>
        <time>2013-05-06T09:44:35Z</time>
      </trkpt>
      <trkpt lat="43.44743" lon="-0.55349">
        <ele>160</ele>
        <time>2013-05-06T09:44:36Z</time>
      </trkpt>
      <trkpt lat="43.44741" lon="-0.55348">
        <ele>159</ele>
        <time>2013-05-06T09:44:37Z</time>
      </trkpt>
      <trkpt lat="43.44739" lon="-0.55346">
        <ele>159</ele>
        <time>2013-05-06T09:44:38Z</time>
      </trkpt>
      <trkpt lat="43.44736" lon="-0.55343">
        <ele>159</ele>
        <time>2013-05-06T09:44:39Z</time>
      </trkpt>
      <trkpt lat="43.44733" lon="-0.5534">
        <ele>159</ele>
        <time>2013-05-06T09:44:40Z</time>
      </trkpt>
      <trkpt lat="43.4473" lon="-0.55338">
        <ele>160</ele>
        <time>2013-05-06T09:44:41Z</time>
      </trkpt>
      <trkpt lat="43.44727" lon="-0.55335">
        <ele>162</ele>
        <time>2013-05-06T09:44:42Z</time>
      </trkpt>
      <trkpt lat="43.44723" lon="-0.55332">
        <ele>162</ele>
        <time>2013-05-06T09:44:43Z</time>
      </trkpt>
      <trkpt lat="43.4472" lon="-0.55329">
        <ele>162</ele>
        <time>2013-05-06T09:44:44Z</time>
      </trkpt>
      <trkpt lat="43.44716" lon="-0.55325">
        <ele>162</ele>
        <time>2013-05-06T09:44:45Z</time>
      </trkpt>
      <trkpt lat="43.44713" lon="-0.55322">
        <ele>159</ele>
        <time>2013-05-06T09:44:46Z</time>
      </trkpt>
      <trkpt lat="43.44708" lon="-0.55314">
        <ele>160</ele>
        <time>2013-05-06T09:44:47Z</time>
      </trkpt>
      <trkpt lat="43.44705" lon="-0.55309">
        <ele>158</ele>
        <time>2013-05-06T09:44:48Z</time>
      </trkpt>
      <trkpt lat="43.44703" lon="-0.55305">
        <ele>156</ele>
        <time>2013-05-06T09:44:49Z</time>
      </trkpt>
      <trkpt lat="43.447" lon="-0.55301">
        <ele>155</ele>
        <time>2013-05-06T09:44:50Z</time>
      </trkpt>
      <trkpt lat="43.44696" lon="-0.55296">
        <ele>155</ele>
        <time>2013-05-06T09:44:51Z</time>
      </trkpt>
      <trkpt lat="43.44693" lon="-0.55291">
        <ele>155</ele>
        <time>2013-05-06T09:44:52Z</time>
      </trkpt>
      <trkpt lat="43.4469" lon="-0.55287">
        <ele>156</ele>
        <time>2013-05-06T09:44:53Z</time>
      </trkpt>
      <trkpt lat="43.44688" lon="-0.55278">
        <ele>155</ele>
        <time>2013-05-06T09:44:54Z</time>
      </trkpt>
      <trkpt lat="43.44687" lon="-0.55273">
        <ele>155</ele>
        <time>2013-05-06T09:44:55Z</time>
      </trkpt>
      <trkpt lat="43.44682" lon="-0.55268">
        <ele>158</ele>
        <time>2013-05-06T09:44:56Z</time>
      </trkpt>
      <trkpt lat="43.44679" lon="-0.55263">
        <ele>158</ele>
        <time>2013-05-06T09:44:57Z</time>
      </trkpt>
      <trkpt lat="43.44676" lon="-0.55258">
        <ele>158</ele>
        <time>2013-05-06T09:44:58Z</time>
      </trkpt>
      <trkpt lat="43.44674" lon="-0.55256">
        <ele>158</ele>
        <time>2013-05-06T09:44:59Z</time>
      </trkpt>
      <trkpt lat="43.44671" lon="-0.55252">
        <ele>158</ele>
        <time>2013-05-06T09:45:00Z</time>
      </trkpt>
      <trkpt lat="43.44669" lon="-0.55249">
        <ele>158</ele>
        <time>2013-05-06T09:45:01Z</time>
      </trkpt>
      <trkpt lat="43.44666" lon="-0.55248">
        <ele>158</ele>
        <time>2013-05-06T09:45:02Z</time>
      </trkpt>
      <trkpt lat="43.44663" lon="-0.55249">
        <ele>158</ele>
        <time>2013-05-06T09:45:03Z</time>
      </trkpt>
      <trkpt lat="43.4466" lon="-0.55249">
        <ele>158</ele>
        <time>2013-05-06T09:45:04Z</time>
      </trkpt>
      <trkpt lat="43.44656" lon="-0.5525">
        <ele>157</ele>
        <time>2013-05-06T09:45:05Z</time>
      </trkpt>
      <trkpt lat="43.4465" lon="-0.5525">
        <ele>157</ele>
        <time>2013-05-06T09:45:06Z</time>
      </trkpt>
      <trkpt lat="43.44644" lon="-0.55251">
        <ele>157</ele>
        <time>2013-05-06T09:45:07Z</time>
      </trkpt>
      <trkpt lat="43.4464" lon="-0.55252">
        <ele>157</ele>
        <time>2013-05-06T09:45:08Z</time>
      </trkpt>
      <trkpt lat="43.44635" lon="-0.55253">
        <ele>158</ele>
        <time>2013-05-06T09:45:09Z</time>
      </trkpt>
      <trkpt lat="43.4463" lon="-0.55254">
        <ele>158</ele>
        <time>2013-05-06T09:45:10Z</time>
      </trkpt>
      <trkpt lat="43.44626" lon="-0.55254">
        <ele>159</ele>
        <time>2013-05-06T09:45:11Z</time>
      </trkpt>
      <trkpt lat="43.44622" lon="-0.55251">
        <ele>159</ele>
        <time>2013-05-06T09:45:12Z</time>
      </trkpt>
      <trkpt lat="43.44618" lon="-0.55251">
        <ele>159</ele>
        <time>2013-05-06T09:45:13Z</time>
      </trkpt>
      <trkpt lat="43.44615" lon="-0.55249">
        <ele>159</ele>
        <time>2013-05-06T09:45:14Z</time>
      </trkpt>
      <trkpt lat="43.44612" lon="-0.55247">
        <ele>160</ele>
        <time>2013-05-06T09:45:15Z</time>
      </trkpt>
      <trkpt lat="43.44609" lon="-0.55244">
        <ele>160</ele>
        <time>2013-05-06T09:45:16Z</time>
      </trkpt>
      <trkpt lat="43.44606" lon="-0.55242">
        <ele>160</ele>
        <time>2013-05-06T09:45:17Z</time>
      </trkpt>
      <trkpt lat="43.44603" lon="-0.55239">
        <ele>160</ele>
        <time>2013-05-06T09:45:18Z</time>
      </trkpt>
      <trkpt lat="43.44601" lon="-0.55234">
        <ele>161</ele>
        <time>2013-05-06T09:45:19Z</time>
      </trkpt>
      <trkpt lat="43.44599" lon="-0.55231">
        <ele>161</ele>
        <time>2013-05-06T09:45:20Z</time>
      </trkpt>
      <trkpt lat="43.44598" lon="-0.55223">
        <ele>162</ele>
        <time>2013-05-06T09:45:21Z</time>
      </trkpt>
      <trkpt lat="43.44596" lon="-0.55217">
        <ele>162</ele>
        <time>2013-05-06T09:45:22Z</time>
      </trkpt>
      <trkpt lat="43.44594" lon="-0.55213">
        <ele>162</ele>
        <time>2013-05-06T09:45:23Z</time>
      </trkpt>
      <trkpt lat="43.44593" lon="-0.55206">
        <ele>162</ele>
        <time>2013-05-06T09:45:24Z</time>
      </trkpt>
      <trkpt lat="43.44592" lon="-0.552">
        <ele>162</ele>
        <time>2013-05-06T09:45:25Z</time>
      </trkpt>
      <trkpt lat="43.4459" lon="-0.55194">
        <ele>162</ele>
        <time>2013-05-06T09:45:26Z</time>
      </trkpt>
      <trkpt lat="43.44585" lon="-0.55185">
        <ele>159</ele>
        <time>2013-05-06T09:45:27Z</time>
      </trkpt>
      <trkpt lat="43.44582" lon="-0.55181">
        <ele>158</ele>
        <time>2013-05-06T09:45:28Z</time>
      </trkpt>
      <trkpt lat="43.4458" lon="-0.55176">
        <ele>157</ele>
        <time>2013-05-06T09:45:29Z</time>
      </trkpt>
      <trkpt lat="43.44579" lon="-0.5517">
        <ele>158</ele>
        <time>2013-05-06T09:45:30Z</time>
      </trkpt>
      <trkpt lat="43.44575" lon="-0.55166">
        <ele>159</ele>
        <time>2013-05-06T09:45:31Z</time>
      </trkpt>
      <trkpt lat="43.44573" lon="-0.55161">
        <ele>159</ele>
        <time>2013-05-06T09:45:32Z</time>
      </trkpt>
      <trkpt lat="43.4457" lon="-0.55154">
        <ele>160</ele>
        <time>2013-05-06T09:45:33Z</time>
      </trkpt>
      <trkpt lat="43.44568" lon="-0.55149">
        <ele>162</ele>
        <time>2013-05-06T09:45:34Z</time>
      </trkpt>
      <trkpt lat="43.44565" lon="-0.55142">
        <ele>161</ele>
        <time>2013-05-06T09:45:35Z</time>
      </trkpt>
      <trkpt lat="43.44563" lon="-0.55135">
        <ele>161</ele>
        <time>2013-05-06T09:45:36Z</time>
      </trkpt>
      <trkpt lat="43.44561" lon="-0.55129">
        <ele>161</ele>
        <time>2013-05-06T09:45:37Z</time>
      </trkpt>
      <trkpt lat="43.44558" lon="-0.55123">
        <ele>161</ele>
        <time>2013-05-06T09:45:38Z</time>
      </trkpt>
      <trkpt lat="43.44557" lon="-0.5512">
        <ele>162</ele>
        <time>2013-05-06T09:45:39Z</time>
      </trkpt>
      <trkpt lat="43.44557" lon="-0.55114">
        <ele>160</ele>
        <time>2013-05-06T09:45:40Z</time>
      </trkpt>
      <trkpt lat="43.44555" lon="-0.5511">
        <ele>159</ele>
        <time>2013-05-06T09:45:41Z</time>
      </trkpt>
      <trkpt lat="43.4455" lon="-0.55104">
        <ele>165</ele>
        <time>2013-05-06T09:45:42Z</time>
      </trkpt>
      <trkpt lat="43.44548" lon="-0.551">
        <ele>164</ele>
        <time>2013-05-06T09:45:43Z</time>
      </trkpt>
      <trkpt lat="43.44548" lon="-0.55094">
        <ele>164</ele>
        <time>2013-05-06T09:45:44Z</time>
      </trkpt>
      <trkpt lat="43.44545" lon="-0.55091">
        <ele>165</ele>
        <time>2013-05-06T09:45:45Z</time>
      </trkpt>
      <trkpt lat="43.44544" lon="-0.55085">
        <ele>165</ele>
        <time>2013-05-06T09:45:46Z</time>
      </trkpt>
      <trkpt lat="43.44542" lon="-0.5508">
        <ele>165</ele>
        <time>2013-05-06T09:45:47Z</time>
      </trkpt>
      <trkpt lat="43.4454" lon="-0.55075">
        <ele>166</ele>
        <time>2013-05-06T09:45:48Z</time>
      </trkpt>
      <trkpt lat="43.44537" lon="-0.55071">
        <ele>166</ele>
        <time>2013-05-06T09:45:49Z</time>
      </trkpt>
      <trkpt lat="43.44536" lon="-0.55066">
        <ele>166</ele>
        <time>2013-05-06T09:45:50Z</time>
      </trkpt>
      <trkpt lat="43.44532" lon="-0.55062">
        <ele>168</ele>
        <time>2013-05-06T09:45:51Z</time>
      </trkpt>
      <trkpt lat="43.44532" lon="-0.55058">
        <ele>169</ele>
        <time>2013-05-06T09:45:52Z</time>
      </trkpt>
      <trkpt lat="43.44531" lon="-0.55054">
        <ele>170</ele>
        <time>2013-05-06T09:45:53Z</time>
      </trkpt>
      <trkpt lat="43.4453" lon="-0.55049">
        <ele>170</ele>
        <time>2013-05-06T09:45:54Z</time>
      </trkpt>
      <trkpt lat="43.44527" lon="-0.55045">
        <ele>170</ele>
        <time>2013-05-06T09:45:55Z</time>
      </trkpt>
      <trkpt lat="43.44526" lon="-0.55041">
        <ele>169</ele>
        <time>2013-05-06T09:45:56Z</time>
      </trkpt>
      <trkpt lat="43.44524" lon="-0.55036">
        <ele>169</ele>
        <time>2013-05-06T09:45:57Z</time>
      </trkpt>
      <trkpt lat="43.44521" lon="-0.55033">
        <ele>169</ele>
        <time>2013-05-06T09:45:58Z</time>
      </trkpt>
      <trkpt lat="43.44519" lon="-0.55029">
        <ele>169</ele>
        <time>2013-05-06T09:45:59Z</time>
      </trkpt>
      <trkpt lat="43.44516" lon="-0.55025">
        <ele>171</ele>
        <time>2013-05-06T09:46:00Z</time>
      </trkpt>
      <trkpt lat="43.44513" lon="-0.55021">
        <ele>172</ele>
        <time>2013-05-06T09:46:01Z</time>
      </trkpt>
      <trkpt lat="43.4451" lon="-0.55018">
        <ele>172</ele>
        <time>2013-05-06T09:46:02Z</time>
      </trkpt>
      <trkpt lat="43.44508" lon="-0.55014">
        <ele>173</ele>
        <time>2013-05-06T09:46:03Z</time>
      </trkpt>
      <trkpt lat="43.44506" lon="-0.55009">
        <ele>173</ele>
        <time>2013-05-06T09:46:04Z</time>
      </trkpt>
      <trkpt lat="43.44503" lon="-0.55006">
        <ele>174</ele>
        <time>2013-05-06T09:46:05Z</time>
      </trkpt>
      <trkpt lat="43.445" lon="-0.55002">
        <ele>174</ele>
        <time>2013-05-06T09:46:06Z</time>
      </trkpt>
      <trkpt lat="43.44498" lon="-0.54998">
        <ele>175</ele>
        <time>2013-05-06T09:46:07Z</time>
      </trkpt>
      <trkpt lat="43.44495" lon="-0.54993">
        <ele>177</ele>
        <time>2013-05-06T09:46:08Z</time>
      </trkpt>
      <trkpt lat="43.44491" lon="-0.54988">
        <ele>179</ele>
        <time>2013-05-06T09:46:09Z</time>
      </trkpt>
      <trkpt lat="43.44488" lon="-0.54983">
        <ele>181</ele>
        <time>2013-05-06T09:46:10Z</time>
      </trkpt>
      <trkpt lat="43.44487" lon="-0.54979">
        <ele>180</ele>
        <time>2013-05-06T09:46:11Z</time>
      </trkpt>
      <trkpt lat="43.44484" lon="-0.54973">
        <ele>180</ele>
        <time>2013-05-06T09:46:12Z</time>
      </trkpt>
      <trkpt lat="43.44484" lon="-0.54966">
        <ele>180</ele>
        <time>2013-05-06T09:46:13Z</time>
      </trkpt>
      <trkpt lat="43.44485" lon="-0.54962">
        <ele>180</ele>
        <time>2013-05-06T09:46:14Z</time>
      </trkpt>
      <trkpt lat="43.44485" lon="-0.54959">
        <ele>180</ele>
        <time>2013-05-06T09:46:15Z</time>
      </trkpt>
      <trkpt lat="43.44483" lon="-0.54954">
        <ele>180</ele>
        <time>2013-05-06T09:46:16Z</time>
      </trkpt>
      <trkpt lat="43.44482" lon="-0.54949">
        <ele>180</ele>
        <time>2013-05-06T09:46:17Z</time>
      </trkpt>
      <trkpt lat="43.44482" lon="-0.54944">
        <ele>180</ele>
        <time>2013-05-06T09:46:18Z</time>
      </trkpt>
      <trkpt lat="43.44481" lon="-0.5494">
        <ele>179</ele>
        <time>2013-05-06T09:46:19Z</time>
      </trkpt>
      <trkpt lat="43.44479" lon="-0.54933">
        <ele>179</ele>
        <time>2013-05-06T09:46:20Z</time>
      </trkpt>
      <trkpt lat="43.44478" lon="-0.54928">
        <ele>178</ele>
        <time>2013-05-06T09:46:21Z</time>
      </trkpt>
      <trkpt lat="43.44476" lon="-0.54923">
        <ele>178</ele>
        <time>2013-05-06T09:46:22Z</time>
      </trkpt>
      <trkpt lat="43.44475" lon="-0.54918">
        <ele>178</ele>
        <time>2013-05-06T09:46:23Z</time>
      </trkpt>
      <trkpt lat="43.44474" lon="-0.54914">
        <ele>178</ele>
        <time>2013-05-06T09:46:24Z</time>
      </trkpt>
      <trkpt lat="43.44473" lon="-0.5491">
        <ele>177</ele>
        <time>2013-05-06T09:46:25Z</time>
      </trkpt>
      <trkpt lat="43.44472" lon="-0.54905">
        <ele>177</ele>
        <time>2013-05-06T09:46:26Z</time>
      </trkpt>
      <trkpt lat="43.4447" lon="-0.54902">
        <ele>176</ele>
        <time>2013-05-06T09:46:27Z</time>
      </trkpt>
      <trkpt lat="43.44469" lon="-0.54899">
        <ele>177</ele>
        <time>2013-05-06T09:46:28Z</time>
      </trkpt>
      <trkpt lat="43.44468" lon="-0.54896">
        <ele>177</ele>
        <time>2013-05-06T09:46:29Z</time>
      </trkpt>
      <trkpt lat="43.44466" lon="-0.54892">
        <ele>178</ele>
        <time>2013-05-06T09:46:30Z</time>
      </trkpt>
      <trkpt lat="43.44465" lon="-0.54888">
        <ele>178</ele>
        <time>2013-05-06T09:46:31Z</time>
      </trkpt>
      <trkpt lat="43.44464" lon="-0.54885">
        <ele>178</ele>
        <time>2013-05-06T09:46:32Z</time>
      </trkpt>
      <trkpt lat="43.44462" lon="-0.54881">
        <ele>178</ele>
        <time>2013-05-06T09:46:33Z</time>
      </trkpt>
      <trkpt lat="43.4446" lon="-0.54877">
        <ele>179</ele>
        <time>2013-05-06T09:46:34Z</time>
      </trkpt>
      <trkpt lat="43.44459" lon="-0.54873">
        <ele>181</ele>
        <time>2013-05-06T09:46:35Z</time>
      </trkpt>
      <trkpt lat="43.44457" lon="-0.5487">
        <ele>179</ele>
        <time>2013-05-06T09:46:36Z</time>
      </trkpt>
      <trkpt lat="43.44456" lon="-0.54866">
        <ele>178</ele>
        <time>2013-05-06T09:46:37Z</time>
      </trkpt>
      <trkpt lat="43.44455" lon="-0.54864">
        <ele>178</ele>
        <time>2013-05-06T09:46:38Z</time>
      </trkpt>
      <trkpt lat="43.44454" lon="-0.54861">
        <ele>178</ele>
        <time>2013-05-06T09:46:39Z</time>
      </trkpt>
      <trkpt lat="43.44453" lon="-0.54858">
        <ele>179</ele>
        <time>2013-05-06T09:46:40Z</time>
      </trkpt>
      <trkpt lat="43.44452" lon="-0.54855">
        <ele>180</ele>
        <time>2013-05-06T09:46:41Z</time>
      </trkpt>
      <trkpt lat="43.44452" lon="-0.54852">
        <ele>180</ele>
        <time>2013-05-06T09:46:42Z</time>
      </trkpt>
      <trkpt lat="43.4445" lon="-0.54849">
        <ele>180</ele>
        <time>2013-05-06T09:46:43Z</time>
      </trkpt>
      <trkpt lat="43.44449" lon="-0.54845">
        <ele>180</ele>
        <time>2013-05-06T09:46:44Z</time>
      </trkpt>
      <trkpt lat="43.44448" lon="-0.54841">
        <ele>182</ele>
        <time>2013-05-06T09:46:45Z</time>
      </trkpt>
      <trkpt lat="43.44447" lon="-0.54838">
        <ele>183</ele>
        <time>2013-05-06T09:46:46Z</time>
      </trkpt>
      <trkpt lat="43.44445" lon="-0.54834">
        <ele>183</ele>
        <time>2013-05-06T09:46:47Z</time>
      </trkpt>
      <trkpt lat="43.44443" lon="-0.54831">
        <ele>184</ele>
        <time>2013-05-06T09:46:48Z</time>
      </trkpt>
      <trkpt lat="43.4444" lon="-0.54828">
        <ele>184</ele>
        <time>2013-05-06T09:46:49Z</time>
      </trkpt>
      <trkpt lat="43.44438" lon="-0.54825">
        <ele>180</ele>
        <time>2013-05-06T09:46:50Z</time>
      </trkpt>
      <trkpt lat="43.44437" lon="-0.54822">
        <ele>179</ele>
        <time>2013-05-06T09:46:51Z</time>
      </trkpt>
      <trkpt lat="43.44436" lon="-0.54818">
        <ele>178</ele>
        <time>2013-05-06T09:46:52Z</time>
      </trkpt>
      <trkpt lat="43.44436" lon="-0.54815">
        <ele>177</ele>
        <time>2013-05-06T09:46:53Z</time>
      </trkpt>
      <trkpt lat="43.44436" lon="-0.54812">
        <ele>177</ele>
        <time>2013-05-06T09:46:54Z</time>
      </trkpt>
      <trkpt lat="43.44434" lon="-0.54808">
        <ele>177</ele>
        <time>2013-05-06T09:46:55Z</time>
      </trkpt>
      <trkpt lat="43.44433" lon="-0.54805">
        <ele>177</ele>
        <time>2013-05-06T09:46:56Z</time>
      </trkpt>
      <trkpt lat="43.44431" lon="-0.54802">
        <ele>177</ele>
        <time>2013-05-06T09:46:57Z</time>
      </trkpt>
      <trkpt lat="43.44428" lon="-0.54798">
        <ele>177</ele>
        <time>2013-05-06T09:46:58Z</time>
      </trkpt>
      <trkpt lat="43.44424" lon="-0.54795">
        <ele>177</ele>
        <time>2013-05-06T09:46:59Z</time>
      </trkpt>
      <trkpt lat="43.44421" lon="-0.54793">
        <ele>178</ele>
        <time>2013-05-06T09:47:00Z</time>
      </trkpt>
      <trkpt lat="43.44418" lon="-0.54789">
        <ele>178</ele>
        <time>2013-05-06T09:47:01Z</time>
      </trkpt>
      <trkpt lat="43.44415" lon="-0.54787">
        <ele>178</ele>
        <time>2013-05-06T09:47:02Z</time>
      </trkpt>
      <trkpt lat="43.44413" lon="-0.54783">
        <ele>178</ele>
        <time>2013-05-06T09:47:03Z</time>
      </trkpt>
      <trkpt lat="43.44411" lon="-0.54778">
        <ele>177</ele>
        <time>2013-05-06T09:47:04Z</time>
      </trkpt>
      <trkpt lat="43.44408" lon="-0.54774">
        <ele>177</ele>
        <time>2013-05-06T09:47:05Z</time>
      </trkpt>
      <trkpt lat="43.44407" lon="-0.54768">
        <ele>177</ele>
        <time>2013-05-06T09:47:06Z</time>
      </trkpt>
      <trkpt lat="43.44405" lon="-0.54762">
        <ele>178</ele>
        <time>2013-05-06T09:47:07Z</time>
      </trkpt>
      <trkpt lat="43.44401" lon="-0.54751">
        <ele>180</ele>
        <time>2013-05-06T09:47:08Z</time>
      </trkpt>
      <trkpt lat="43.44399" lon="-0.54746">
        <ele>181</ele>
        <time>2013-05-06T09:47:09Z</time>
      </trkpt>
      <trkpt lat="43.44397" lon="-0.54741">
        <ele>181</ele>
        <time>2013-05-06T09:47:10Z</time>
      </trkpt>
      <trkpt lat="43.44395" lon="-0.54736">
        <ele>179</ele>
        <time>2013-05-06T09:47:11Z</time>
      </trkpt>
      <trkpt lat="43.44394" lon="-0.54731">
        <ele>179</ele>
        <time>2013-05-06T09:47:12Z</time>
      </trkpt>
      <trkpt lat="43.44391" lon="-0.54726">
        <ele>179</ele>
        <time>2013-05-06T09:47:13Z</time>
      </trkpt>
      <trkpt lat="43.44387" lon="-0.54721">
        <ele>178</ele>
        <time>2013-05-06T09:47:14Z</time>
      </trkpt>
      <trkpt lat="43.44385" lon="-0.54717">
        <ele>179</ele>
        <time>2013-05-06T09:47:15Z</time>
      </trkpt>
      <trkpt lat="43.44382" lon="-0.54713">
        <ele>179</ele>
        <time>2013-05-06T09:47:16Z</time>
      </trkpt>
      <trkpt lat="43.44381" lon="-0.54709">
        <ele>179</ele>
        <time>2013-05-06T09:47:17Z</time>
      </trkpt>
      <trkpt lat="43.4438" lon="-0.54705">
        <ele>179</ele>
        <time>2013-05-06T09:47:18Z</time>
      </trkpt>
      <trkpt lat="43.44378" lon="-0.54702">
        <ele>179</ele>
        <time>2013-05-06T09:47:19Z</time>
      </trkpt>
      <trkpt lat="43.44376" lon="-0.54699">
        <ele>179</ele>
        <time>2013-05-06T09:47:20Z</time>
      </trkpt>
      <trkpt lat="43.44375" lon="-0.54695">
        <ele>179</ele>
        <time>2013-05-06T09:47:21Z</time>
      </trkpt>
      <trkpt lat="43.44374" lon="-0.54692">
        <ele>179</ele>
        <time>2013-05-06T09:47:22Z</time>
      </trkpt>
      <trkpt lat="43.44373" lon="-0.54689">
        <ele>178</ele>
        <time>2013-05-06T09:47:23Z</time>
      </trkpt>
      <trkpt lat="43.44371" lon="-0.54684">
        <ele>174</ele>
        <time>2013-05-06T09:47:24Z</time>
      </trkpt>
      <trkpt lat="43.4437" lon="-0.5468">
        <ele>175</ele>
        <time>2013-05-06T09:47:25Z</time>
      </trkpt>
      <trkpt lat="43.44368" lon="-0.54677">
        <ele>176</ele>
        <time>2013-05-06T09:47:26Z</time>
      </trkpt>
      <trkpt lat="43.44366" lon="-0.54673">
        <ele>176</ele>
        <time>2013-05-06T09:47:27Z</time>
      </trkpt>
      <trkpt lat="43.44365" lon="-0.5467">
        <ele>176</ele>
        <time>2013-05-06T09:47:28Z</time>
      </trkpt>
      <trkpt lat="43.44363" lon="-0.54667">
        <ele>176</ele>
        <time>2013-05-06T09:47:29Z</time>
      </trkpt>
      <trkpt lat="43.44362" lon="-0.54663">
        <ele>176</ele>
        <time>2013-05-06T09:47:30Z</time>
      </trkpt>
      <trkpt lat="43.4436" lon="-0.5466">
        <ele>177</ele>
        <time>2013-05-06T09:47:31Z</time>
      </trkpt>
      <trkpt lat="43.44358" lon="-0.54656">
        <ele>177</ele>
        <time>2013-05-06T09:47:32Z</time>
      </trkpt>
      <trkpt lat="43.44357" lon="-0.54652">
        <ele>177</ele>
        <time>2013-05-06T09:47:33Z</time>
      </trkpt>
      <trkpt lat="43.44356" lon="-0.54647">
        <ele>179</ele>
        <time>2013-05-06T09:47:34Z</time>
      </trkpt>
      <trkpt lat="43.44354" lon="-0.54643">
        <ele>179</ele>
        <time>2013-05-06T09:47:35Z</time>
      </trkpt>
      <trkpt lat="43.44352" lon="-0.54638">
        <ele>179</ele>
        <time>2013-05-06T09:47:36Z</time>
      </trkpt>
      <trkpt lat="43.44347" lon="-0.54632">
        <ele>181</ele>
        <time>2013-05-06T09:47:37Z</time>
      </trkpt>
      <trkpt lat="43.44344" lon="-0.54628">
        <ele>183</ele>
        <time>2013-05-06T09:47:38Z</time>
      </trkpt>
      <trkpt lat="43.44342" lon="-0.54623">
        <ele>183</ele>
        <time>2013-05-06T09:47:39Z</time>
      </trkpt>
      <trkpt lat="43.44339" lon="-0.54618">
        <ele>183</ele>
        <time>2013-05-06T09:47:40Z</time>
      </trkpt>
      <trkpt lat="43.44336" lon="-0.54613">
        <ele>183</ele>
        <time>2013-05-06T09:47:41Z</time>
      </trkpt>
      <trkpt lat="43.44333" lon="-0.54609">
        <ele>183</ele>
        <time>2013-05-06T09:47:42Z</time>
      </trkpt>
      <trkpt lat="43.44331" lon="-0.54604">
        <ele>183</ele>
        <time>2013-05-06T09:47:43Z</time>
      </trkpt>
      <trkpt lat="43.44329" lon="-0.54599">
        <ele>182</ele>
        <time>2013-05-06T09:47:44Z</time>
      </trkpt>
      <trkpt lat="43.44327" lon="-0.54594">
        <ele>182</ele>
        <time>2013-05-06T09:47:45Z</time>
      </trkpt>
      <trkpt lat="43.44324" lon="-0.54591">
        <ele>181</ele>
        <time>2013-05-06T09:47:46Z</time>
      </trkpt>
      <trkpt lat="43.44321" lon="-0.54585">
        <ele>181</ele>
        <time>2013-05-06T09:47:47Z</time>
      </trkpt>
      <trkpt lat="43.44319" lon="-0.5458">
        <ele>181</ele>
        <time>2013-05-06T09:47:48Z</time>
      </trkpt>
      <trkpt lat="43.44316" lon="-0.54575">
        <ele>181</ele>
        <time>2013-05-06T09:47:49Z</time>
      </trkpt>
      <trkpt lat="43.44314" lon="-0.5457">
        <ele>181</ele>
        <time>2013-05-06T09:47:50Z</time>
      </trkpt>
      <trkpt lat="43.44312" lon="-0.54564">
        <ele>180</ele>
        <time>2013-05-06T09:47:51Z</time>
      </trkpt>
      <trkpt lat="43.4431" lon="-0.54557">
        <ele>181</ele>
        <time>2013-05-06T09:47:52Z</time>
      </trkpt>
      <trkpt lat="43.44309" lon="-0.54551">
        <ele>181</ele>
        <time>2013-05-06T09:47:53Z</time>
      </trkpt>
      <trkpt lat="43.44307" lon="-0.54546">
        <ele>181</ele>
        <time>2013-05-06T09:47:54Z</time>
      </trkpt>
      <trkpt lat="43.44306" lon="-0.54541">
        <ele>181</ele>
        <time>2013-05-06T09:47:55Z</time>
      </trkpt>
      <trkpt lat="43.44305" lon="-0.54536">
        <ele>179</ele>
        <time>2013-05-06T09:47:56Z</time>
      </trkpt>
      <trkpt lat="43.44305" lon="-0.5453">
        <ele>179</ele>
        <time>2013-05-06T09:47:57Z</time>
      </trkpt>
      <trkpt lat="43.44303" lon="-0.54527">
        <ele>180</ele>
        <time>2013-05-06T09:47:58Z</time>
      </trkpt>
      <trkpt lat="43.44303" lon="-0.54524">
        <ele>179</ele>
        <time>2013-05-06T09:47:59Z</time>
      </trkpt>
      <trkpt lat="43.44305" lon="-0.54519">
        <ele>176</ele>
        <time>2013-05-06T09:48:00Z</time>
      </trkpt>
      <trkpt lat="43.44304" lon="-0.54515">
        <ele>175</ele>
        <time>2013-05-06T09:48:01Z</time>
      </trkpt>
      <trkpt lat="43.44305" lon="-0.54509">
        <ele>170</ele>
        <time>2013-05-06T09:48:02Z</time>
      </trkpt>
      <trkpt lat="43.44304" lon="-0.54506">
        <ele>169</ele>
        <time>2013-05-06T09:48:03Z</time>
      </trkpt>
      <trkpt lat="43.44304" lon="-0.545">
        <ele>169</ele>
        <time>2013-05-06T09:48:04Z</time>
      </trkpt>
      <trkpt lat="43.44302" lon="-0.54496">
        <ele>168</ele>
        <time>2013-05-06T09:48:05Z</time>
      </trkpt>
      <trkpt lat="43.44301" lon="-0.54492">
        <ele>168</ele>
        <time>2013-05-06T09:48:06Z</time>
      </trkpt>
      <trkpt lat="43.44299" lon="-0.54488">
        <ele>168</ele>
        <time>2013-05-06T09:48:07Z</time>
      </trkpt>
      <trkpt lat="43.44297" lon="-0.54485">
        <ele>167</ele>
        <time>2013-05-06T09:48:08Z</time>
      </trkpt>
      <trkpt lat="43.44296" lon="-0.54481">
        <ele>167</ele>
        <time>2013-05-06T09:48:09Z</time>
      </trkpt>
      <trkpt lat="43.44295" lon="-0.54478">
        <ele>167</ele>
        <time>2013-05-06T09:48:10Z</time>
      </trkpt>
      <trkpt lat="43.44293" lon="-0.54474">
        <ele>167</ele>
        <time>2013-05-06T09:48:11Z</time>
      </trkpt>
      <trkpt lat="43.44293" lon="-0.5447">
        <ele>166</ele>
        <time>2013-05-06T09:48:12Z</time>
      </trkpt>
      <trkpt lat="43.44292" lon="-0.54467">
        <ele>166</ele>
        <time>2013-05-06T09:48:13Z</time>
      </trkpt>
      <trkpt lat="43.44291" lon="-0.54463">
        <ele>166</ele>
        <time>2013-05-06T09:48:14Z</time>
      </trkpt>
      <trkpt lat="43.44291" lon="-0.54461">
        <ele>166</ele>
        <time>2013-05-06T09:48:15Z</time>
      </trkpt>
      <trkpt lat="43.4429" lon="-0.54458">
        <ele>166</ele>
        <time>2013-05-06T09:48:16Z</time>
      </trkpt>
      <trkpt lat="43.44289" lon="-0.54455">
        <ele>166</ele>
        <time>2013-05-06T09:48:17Z</time>
      </trkpt>
      <trkpt lat="43.44288" lon="-0.5445">
        <ele>168</ele>
        <time>2013-05-06T09:48:18Z</time>
      </trkpt>
      <trkpt lat="43.44286" lon="-0.54444">
        <ele>167</ele>
        <time>2013-05-06T09:48:19Z</time>
      </trkpt>
      <trkpt lat="43.44284" lon="-0.54439">
        <ele>167</ele>
        <time>2013-05-06T09:48:20Z</time>
      </trkpt>
      <trkpt lat="43.44283" lon="-0.54434">
        <ele>167</ele>
        <time>2013-05-06T09:48:21Z</time>
      </trkpt>
      <trkpt lat="43.44281" lon="-0.54427">
        <ele>167</ele>
        <time>2013-05-06T09:48:22Z</time>
      </trkpt>
      <trkpt lat="43.4428" lon="-0.54422">
        <ele>166</ele>
        <time>2013-05-06T09:48:23Z</time>
      </trkpt>
      <trkpt lat="43.44278" lon="-0.54417">
        <ele>165</ele>
        <time>2013-05-06T09:48:24Z</time>
      </trkpt>
      <trkpt lat="43.44276" lon="-0.54411">
        <ele>165</ele>
        <time>2013-05-06T09:48:25Z</time>
      </trkpt>
      <trkpt lat="43.44274" lon="-0.54407">
        <ele>166</ele>
        <time>2013-05-06T09:48:26Z</time>
      </trkpt>
      <trkpt lat="43.44272" lon="-0.54403">
        <ele>166</ele>
        <time>2013-05-06T09:48:27Z</time>
      </trkpt>
      <trkpt lat="43.44271" lon="-0.54401">
        <ele>166</ele>
        <time>2013-05-06T09:48:28Z</time>
      </trkpt>
      <trkpt lat="43.4427" lon="-0.54398">
        <ele>166</ele>
        <time>2013-05-06T09:48:29Z</time>
      </trkpt>
      <trkpt lat="43.44269" lon="-0.54396">
        <ele>167</ele>
        <time>2013-05-06T09:48:30Z</time>
      </trkpt>
      <trkpt lat="43.44268" lon="-0.54394">
        <ele>166</ele>
        <time>2013-05-06T09:48:31Z</time>
      </trkpt>
      <trkpt lat="43.44267" lon="-0.54391">
        <ele>166</ele>
        <time>2013-05-06T09:48:32Z</time>
      </trkpt>
      <trkpt lat="43.44267" lon="-0.54389">
        <ele>165</ele>
        <time>2013-05-06T09:48:33Z</time>
      </trkpt>
      <trkpt lat="43.44266" lon="-0.54386">
        <ele>165</ele>
        <time>2013-05-06T09:48:34Z</time>
      </trkpt>
      <trkpt lat="43.44266" lon="-0.54384">
        <ele>165</ele>
        <time>2013-05-06T09:48:35Z</time>
      </trkpt>
      <trkpt lat="43.44265" lon="-0.54382">
        <ele>166</ele>
        <time>2013-05-06T09:48:36Z</time>
      </trkpt>
      <trkpt lat="43.44264" lon="-0.54379">
        <ele>168</ele>
        <time>2013-05-06T09:48:37Z</time>
      </trkpt>
      <trkpt lat="43.44263" lon="-0.54378">
        <ele>168</ele>
        <time>2013-05-06T09:48:38Z</time>
      </trkpt>
      <trkpt lat="43.44262" lon="-0.54376">
        <ele>169</ele>
        <time>2013-05-06T09:48:39Z</time>
      </trkpt>
      <trkpt lat="43.4426" lon="-0.54374">
        <ele>169</ele>
        <time>2013-05-06T09:48:40Z</time>
      </trkpt>
      <trkpt lat="43.4426" lon="-0.54373">
        <ele>169</ele>
        <time>2013-05-06T09:48:41Z</time>
      </trkpt>
      <trkpt lat="43.44259" lon="-0.54371">
        <ele>169</ele>
        <time>2013-05-06T09:48:42Z</time>
      </trkpt>
      <trkpt lat="43.44258" lon="-0.5437">
        <ele>169</ele>
        <time>2013-05-06T09:48:43Z</time>
      </trkpt>
      <trkpt lat="43.44257" lon="-0.54368">
        <ele>169</ele>
        <time>2013-05-06T09:48:44Z</time>
      </trkpt>
      <trkpt lat="43.44256" lon="-0.54367">
        <ele>169</ele>
        <time>2013-05-06T09:48:45Z</time>
      </trkpt>
      <trkpt lat="43.44254" lon="-0.54365">
        <ele>169</ele>
        <time>2013-05-06T09:48:46Z</time>
      </trkpt>
      <trkpt lat="43.44254" lon="-0.54363">
        <ele>169</ele>
        <time>2013-05-06T09:48:47Z</time>
      </trkpt>
      <trkpt lat="43.44252" lon="-0.54362">
        <ele>170</ele>
        <time>2013-05-06T09:48:48Z</time>
      </trkpt>
      <trkpt lat="43.44251" lon="-0.5436">
        <ele>170</ele>
        <time>2013-05-06T09:48:49Z</time>
      </trkpt>
      <trkpt lat="43.4425" lon="-0.54358">
        <ele>169</ele>
        <time>2013-05-06T09:48:50Z</time>
      </trkpt>
      <trkpt lat="43.4425" lon="-0.54356">
        <ele>169</ele>
        <time>2013-05-06T09:48:51Z</time>
      </trkpt>
      <trkpt lat="43.44249" lon="-0.54354">
        <ele>170</ele>
        <time>2013-05-06T09:48:52Z</time>
      </trkpt>
      <trkpt lat="43.44248" lon="-0.54353">
        <ele>170</ele>
        <time>2013-05-06T09:48:53Z</time>
      </trkpt>
      <trkpt lat="43.44248" lon="-0.54351">
        <ele>170</ele>
        <time>2013-05-06T09:48:54Z</time>
      </trkpt>
      <trkpt lat="43.44248" lon="-0.54349">
        <ele>169</ele>
        <time>2013-05-06T09:48:55Z</time>
      </trkpt>
      <trkpt lat="43.44248" lon="-0.54347">
        <ele>168</ele>
        <time>2013-05-06T09:48:56Z</time>
      </trkpt>
      <trkpt lat="43.44248" lon="-0.54345">
        <ele>169</ele>
        <time>2013-05-06T09:48:57Z</time>
      </trkpt>
      <trkpt lat="43.44247" lon="-0.54342">
        <ele>168</ele>
        <time>2013-05-06T09:48:58Z</time>
      </trkpt>
      <trkpt lat="43.44247" lon="-0.5434">
        <ele>169</ele>
        <time>2013-05-06T09:48:59Z</time>
      </trkpt>
      <trkpt lat="43.44247" lon="-0.54338">
        <ele>170</ele>
        <time>2013-05-06T09:49:00Z</time>
      </trkpt>
      <trkpt lat="43.44247" lon="-0.54336">
        <ele>170</ele>
        <time>2013-05-06T09:49:01Z</time>
      </trkpt>
      <trkpt lat="43.44245" lon="-0.54334">
        <ele>170</ele>
        <time>2013-05-06T09:49:02Z</time>
      </trkpt>
      <trkpt lat="43.44244" lon="-0.54332">
        <ele>171</ele>
        <time>2013-05-06T09:49:03Z</time>
      </trkpt>
      <trkpt lat="43.44243" lon="-0.5433">
        <ele>170</ele>
        <time>2013-05-06T09:49:04Z</time>
      </trkpt>
      <trkpt lat="43.44242" lon="-0.54328">
        <ele>170</ele>
        <time>2013-05-06T09:49:05Z</time>
      </trkpt>
      <trkpt lat="43.44241" lon="-0.54327">
        <ele>171</ele>
        <time>2013-05-06T09:49:06Z</time>
      </trkpt>
      <trkpt lat="43.4424" lon="-0.54326">
        <ele>171</ele>
        <time>2013-05-06T09:49:07Z</time>
      </trkpt>
      <trkpt lat="43.44239" lon="-0.54324">
        <ele>171</ele>
        <time>2013-05-06T09:49:08Z</time>
      </trkpt>
      <trkpt lat="43.44239" lon="-0.54322">
        <ele>170</ele>
        <time>2013-05-06T09:49:09Z</time>
      </trkpt>
      <trkpt lat="43.44238" lon="-0.54319">
        <ele>170</ele>
        <time>2013-05-06T09:49:10Z</time>
      </trkpt>
      <trkpt lat="43.44237" lon="-0.54314">
        <ele>170</ele>
        <time>2013-05-06T09:49:11Z</time>
      </trkpt>
      <trkpt lat="43.4423" lon="-0.54301">
        <ele>182</ele>
        <time>2013-05-06T09:49:12Z</time>
      </trkpt>
      <trkpt lat="43.44228" lon="-0.54299">
        <ele>188</ele>
        <time>2013-05-06T09:49:13Z</time>
      </trkpt>
      <trkpt lat="43.44228" lon="-0.54294">
        <ele>185</ele>
        <time>2013-05-06T09:49:14Z</time>
      </trkpt>
      <trkpt lat="43.44227" lon="-0.54289">
        <ele>185</ele>
        <time>2013-05-06T09:49:15Z</time>
      </trkpt>
      <trkpt lat="43.44226" lon="-0.54283">
        <ele>184</ele>
        <time>2013-05-06T09:49:16Z</time>
      </trkpt>
      <trkpt lat="43.44226" lon="-0.54278">
        <ele>183</ele>
        <time>2013-05-06T09:49:17Z</time>
      </trkpt>
      <trkpt lat="43.44224" lon="-0.54273">
        <ele>184</ele>
        <time>2013-05-06T09:49:18Z</time>
      </trkpt>
      <trkpt lat="43.44225" lon="-0.54265">
        <ele>184</ele>
        <time>2013-05-06T09:49:19Z</time>
      </trkpt>
      <trkpt lat="43.44225" lon="-0.54257">
        <ele>185</ele>
        <time>2013-05-06T09:49:20Z</time>
      </trkpt>
      <trkpt lat="43.44224" lon="-0.5425">
        <ele>185</ele>
        <time>2013-05-06T09:49:21Z</time>
      </trkpt>
      <trkpt lat="43.44224" lon="-0.54244">
        <ele>185</ele>
        <time>2013-05-06T09:49:22Z</time>
      </trkpt>
      <trkpt lat="43.44223" lon="-0.54241">
        <ele>185</ele>
        <time>2013-05-06T09:49:23Z</time>
      </trkpt>
      <trkpt lat="43.44223" lon="-0.54236">
        <ele>184</ele>
        <time>2013-05-06T09:49:24Z</time>
      </trkpt>
      <trkpt lat="43.44223" lon="-0.54231">
        <ele>184</ele>
        <time>2013-05-06T09:49:25Z</time>
      </trkpt>
      <trkpt lat="43.44223" lon="-0.54226">
        <ele>182</ele>
        <time>2013-05-06T09:49:26Z</time>
      </trkpt>
      <trkpt lat="43.44223" lon="-0.54221">
        <ele>183</ele>
        <time>2013-05-06T09:49:27Z</time>
      </trkpt>
      <trkpt lat="43.44223" lon="-0.54215">
        <ele>182</ele>
        <time>2013-05-06T09:49:28Z</time>
      </trkpt>
      <trkpt lat="43.44223" lon="-0.5421">
        <ele>182</ele>
        <time>2013-05-06T09:49:29Z</time>
      </trkpt>
      <trkpt lat="43.44223" lon="-0.54204">
        <ele>182</ele>
        <time>2013-05-06T09:49:30Z</time>
      </trkpt>
      <trkpt lat="43.44223" lon="-0.54198">
        <ele>181</ele>
        <time>2013-05-06T09:49:31Z</time>
      </trkpt>
      <trkpt lat="43.44223" lon="-0.54192">
        <ele>180</ele>
        <time>2013-05-06T09:49:32Z</time>
      </trkpt>
      <trkpt lat="43.44223" lon="-0.54187">
        <ele>180</ele>
        <time>2013-05-06T09:49:33Z</time>
      </trkpt>
      <trkpt lat="43.44223" lon="-0.54183">
        <ele>180</ele>
        <time>2013-05-06T09:49:34Z</time>
      </trkpt>
      <trkpt lat="43.44223" lon="-0.54177">
        <ele>180</ele>
        <time>2013-05-06T09:49:35Z</time>
      </trkpt>
      <trkpt lat="43.44224" lon="-0.54172">
        <ele>179</ele>
        <time>2013-05-06T09:49:36Z</time>
      </trkpt>
      <trkpt lat="43.44223" lon="-0.54169">
        <ele>180</ele>
        <time>2013-05-06T09:49:37Z</time>
      </trkpt>
      <trkpt lat="43.44223" lon="-0.54165">
        <ele>181</ele>
        <time>2013-05-06T09:49:38Z</time>
      </trkpt>
      <trkpt lat="43.44223" lon="-0.54161">
        <ele>182</ele>
        <time>2013-05-06T09:49:39Z</time>
      </trkpt>
      <trkpt lat="43.44223" lon="-0.54158">
        <ele>182</ele>
        <time>2013-05-06T09:49:40Z</time>
      </trkpt>
      <trkpt lat="43.44224" lon="-0.54154">
        <ele>182</ele>
        <time>2013-05-06T09:49:41Z</time>
      </trkpt>
      <trkpt lat="43.44224" lon="-0.54151">
        <ele>182</ele>
        <time>2013-05-06T09:49:42Z</time>
      </trkpt>
      <trkpt lat="43.44224" lon="-0.54146">
        <ele>182</ele>
        <time>2013-05-06T09:49:43Z</time>
      </trkpt>
      <trkpt lat="43.44224" lon="-0.54143">
        <ele>182</ele>
        <time>2013-05-06T09:49:44Z</time>
      </trkpt>
      <trkpt lat="43.44225" lon="-0.54138">
        <ele>184</ele>
        <time>2013-05-06T09:49:45Z</time>
      </trkpt>
      <trkpt lat="43.44226" lon="-0.54133">
        <ele>184</ele>
        <time>2013-05-06T09:49:46Z</time>
      </trkpt>
      <trkpt lat="43.44226" lon="-0.54128">
        <ele>185</ele>
        <time>2013-05-06T09:49:47Z</time>
      </trkpt>
      <trkpt lat="43.44227" lon="-0.54124">
        <ele>185</ele>
        <time>2013-05-06T09:49:48Z</time>
      </trkpt>
      <trkpt lat="43.44227" lon="-0.54121">
        <ele>184</ele>
        <time>2013-05-06T09:49:49Z</time>
      </trkpt>
      <trkpt lat="43.44226" lon="-0.54118">
        <ele>185</ele>
        <time>2013-05-06T09:49:50Z</time>
      </trkpt>
      <trkpt lat="43.44225" lon="-0.54116">
        <ele>186</ele>
        <time>2013-05-06T09:49:51Z</time>
      </trkpt>
      <trkpt lat="43.44224" lon="-0.54114">
        <ele>186</ele>
        <time>2013-05-06T09:49:52Z</time>
      </trkpt>
      <trkpt lat="43.44223" lon="-0.54113">
        <ele>186</ele>
        <time>2013-05-06T09:49:53Z</time>
      </trkpt>
      <trkpt lat="43.44222" lon="-0.54111">
        <ele>186</ele>
        <time>2013-05-06T09:49:54Z</time>
      </trkpt>
      <trkpt lat="43.44221" lon="-0.54109">
        <ele>187</ele>
        <time>2013-05-06T09:49:55Z</time>
      </trkpt>
      <trkpt lat="43.4422" lon="-0.54107">
        <ele>186</ele>
        <time>2013-05-06T09:49:56Z</time>
      </trkpt>
      <trkpt lat="43.44219" lon="-0.54103">
        <ele>185</ele>
        <time>2013-05-06T09:49:57Z</time>
      </trkpt>
      <trkpt lat="43.44218" lon="-0.54099">
        <ele>185</ele>
        <time>2013-05-06T09:49:58Z</time>
      </trkpt>
      <trkpt lat="43.44218" lon="-0.54095">
        <ele>184</ele>
        <time>2013-05-06T09:49:59Z</time>
      </trkpt>
      <trkpt lat="43.44218" lon="-0.54091">
        <ele>183</ele>
        <time>2013-05-06T09:50:00Z</time>
      </trkpt>
      <trkpt lat="43.44217" lon="-0.54087">
        <ele>184</ele>
        <time>2013-05-06T09:50:01Z</time>
      </trkpt>
      <trkpt lat="43.44215" lon="-0.54084">
        <ele>185</ele>
        <time>2013-05-06T09:50:02Z</time>
      </trkpt>
      <trkpt lat="43.44213" lon="-0.5408">
        <ele>184</ele>
        <time>2013-05-06T09:50:03Z</time>
      </trkpt>
      <trkpt lat="43.44209" lon="-0.54075">
        <ele>182</ele>
        <time>2013-05-06T09:50:04Z</time>
      </trkpt>
      <trkpt lat="43.44206" lon="-0.5407">
        <ele>182</ele>
        <time>2013-05-06T09:50:05Z</time>
      </trkpt>
      <trkpt lat="43.44203" lon="-0.54065">
        <ele>181</ele>
        <time>2013-05-06T09:50:06Z</time>
      </trkpt>
      <trkpt lat="43.44196" lon="-0.54045">
        <ele>181</ele>
        <time>2013-05-06T09:50:07Z</time>
      </trkpt>
      <trkpt lat="43.44192" lon="-0.54038">
        <ele>178</ele>
        <time>2013-05-06T09:50:08Z</time>
      </trkpt>
      <trkpt lat="43.44188" lon="-0.54032">
        <ele>177</ele>
        <time>2013-05-06T09:50:09Z</time>
      </trkpt>
      <trkpt lat="43.44184" lon="-0.54025">
        <ele>179</ele>
        <time>2013-05-06T09:50:10Z</time>
      </trkpt>
      <trkpt lat="43.4418" lon="-0.54019">
        <ele>181</ele>
        <time>2013-05-06T09:50:11Z</time>
      </trkpt>
      <trkpt lat="43.44177" lon="-0.54014">
        <ele>182</ele>
        <time>2013-05-06T09:50:12Z</time>
      </trkpt>
      <trkpt lat="43.44173" lon="-0.54007">
        <ele>181</ele>
        <time>2013-05-06T09:50:13Z</time>
      </trkpt>
      <trkpt lat="43.44169" lon="-0.54001">
        <ele>181</ele>
        <time>2013-05-06T09:50:14Z</time>
      </trkpt>
      <trkpt lat="43.44165" lon="-0.53994">
        <ele>182</ele>
        <time>2013-05-06T09:50:15Z</time>
      </trkpt>
      <trkpt lat="43.44159" lon="-0.53989">
        <ele>181</ele>
        <time>2013-05-06T09:50:16Z</time>
      </trkpt>
      <trkpt lat="43.44156" lon="-0.53983">
        <ele>181</ele>
        <time>2013-05-06T09:50:17Z</time>
      </trkpt>
      <trkpt lat="43.44152" lon="-0.53978">
        <ele>181</ele>
        <time>2013-05-06T09:50:18Z</time>
      </trkpt>
      <trkpt lat="43.44151" lon="-0.53964">
        <ele>180</ele>
        <time>2013-05-06T09:50:19Z</time>
      </trkpt>
      <trkpt lat="43.44147" lon="-0.53958">
        <ele>180</ele>
        <time>2013-05-06T09:50:20Z</time>
      </trkpt>
      <trkpt lat="43.44145" lon="-0.53949">
        <ele>179</ele>
        <time>2013-05-06T09:50:21Z</time>
      </trkpt>
      <trkpt lat="43.44141" lon="-0.53947">
        <ele>178</ele>
        <time>2013-05-06T09:50:22Z</time>
      </trkpt>
      <trkpt lat="43.44135" lon="-0.53945">
        <ele>182</ele>
        <time>2013-05-06T09:50:23Z</time>
      </trkpt>
      <trkpt lat="43.44133" lon="-0.53943">
        <ele>184</ele>
        <time>2013-05-06T09:50:24Z</time>
      </trkpt>
      <trkpt lat="43.44131" lon="-0.53937">
        <ele>184</ele>
        <time>2013-05-06T09:50:25Z</time>
      </trkpt>
      <trkpt lat="43.4413" lon="-0.53934">
        <ele>185</ele>
        <time>2013-05-06T09:50:26Z</time>
      </trkpt>
      <trkpt lat="43.4413" lon="-0.53932">
        <ele>185</ele>
        <time>2013-05-06T09:50:27Z</time>
      </trkpt>
      <trkpt lat="43.44131" lon="-0.53929">
        <ele>185</ele>
        <time>2013-05-06T09:50:28Z</time>
      </trkpt>
      <trkpt lat="43.44131" lon="-0.53925">
        <ele>184</ele>
        <time>2013-05-06T09:50:29Z</time>
      </trkpt>
      <trkpt lat="43.44132" lon="-0.5392">
        <ele>184</ele>
        <time>2013-05-06T09:50:30Z</time>
      </trkpt>
      <trkpt lat="43.44132" lon="-0.53916">
        <ele>183</ele>
        <time>2013-05-06T09:50:31Z</time>
      </trkpt>
      <trkpt lat="43.44132" lon="-0.53913">
        <ele>182</ele>
        <time>2013-05-06T09:50:32Z</time>
      </trkpt>
      <trkpt lat="43.44132" lon="-0.53907">
        <ele>179</ele>
        <time>2013-05-06T09:50:33Z</time>
      </trkpt>
      <trkpt lat="43.44131" lon="-0.53901">
        <ele>178</ele>
        <time>2013-05-06T09:50:34Z</time>
      </trkpt>
      <trkpt lat="43.44131" lon="-0.53896">
        <ele>177</ele>
        <time>2013-05-06T09:50:35Z</time>
      </trkpt>
      <trkpt lat="43.4413" lon="-0.5389">
        <ele>176</ele>
        <time>2013-05-06T09:50:36Z</time>
      </trkpt>
      <trkpt lat="43.4413" lon="-0.53885">
        <ele>176</ele>
        <time>2013-05-06T09:50:37Z</time>
      </trkpt>
      <trkpt lat="43.44129" lon="-0.5388">
        <ele>177</ele>
        <time>2013-05-06T09:50:38Z</time>
      </trkpt>
      <trkpt lat="43.44128" lon="-0.53875">
        <ele>176</ele>
        <time>2013-05-06T09:50:39Z</time>
      </trkpt>
      <trkpt lat="43.44127" lon="-0.5387">
        <ele>176</ele>
        <time>2013-05-06T09:50:40Z</time>
      </trkpt>
      <trkpt lat="43.44127" lon="-0.53866">
        <ele>176</ele>
        <time>2013-05-06T09:50:41Z</time>
      </trkpt>
      <trkpt lat="43.44125" lon="-0.53862">
        <ele>178</ele>
        <time>2013-05-06T09:50:42Z</time>
      </trkpt>
      <trkpt lat="43.44124" lon="-0.53858">
        <ele>180</ele>
        <time>2013-05-06T09:50:43Z</time>
      </trkpt>
      <trkpt lat="43.44123" lon="-0.53855">
        <ele>180</ele>
        <time>2013-05-06T09:50:44Z</time>
      </trkpt>
      <trkpt lat="43.44121" lon="-0.5385">
        <ele>179</ele>
        <time>2013-05-06T09:50:45Z</time>
      </trkpt>
      <trkpt lat="43.44119" lon="-0.53846">
        <ele>180</ele>
        <time>2013-05-06T09:50:46Z</time>
      </trkpt>
      <trkpt lat="43.44117" lon="-0.53842">
        <ele>181</ele>
        <time>2013-05-06T09:50:47Z</time>
      </trkpt>
      <trkpt lat="43.44115" lon="-0.53837">
        <ele>181</ele>
        <time>2013-05-06T09:50:48Z</time>
      </trkpt>
      <trkpt lat="43.44115" lon="-0.53833">
        <ele>180</ele>
        <time>2013-05-06T09:50:49Z</time>
      </trkpt>
      <trkpt lat="43.44114" lon="-0.53829">
        <ele>181</ele>
        <time>2013-05-06T09:50:50Z</time>
      </trkpt>
      <trkpt lat="43.44113" lon="-0.53824">
        <ele>181</ele>
        <time>2013-05-06T09:50:51Z</time>
      </trkpt>
      <trkpt lat="43.44111" lon="-0.5382">
        <ele>181</ele>
        <time>2013-05-06T09:50:52Z</time>
      </trkpt>
      <trkpt lat="43.4411" lon="-0.53816">
        <ele>181</ele>
        <time>2013-05-06T09:50:53Z</time>
      </trkpt>
      <trkpt lat="43.44108" lon="-0.53813">
        <ele>182</ele>
        <time>2013-05-06T09:50:54Z</time>
      </trkpt>
      <trkpt lat="43.44107" lon="-0.5381">
        <ele>182</ele>
        <time>2013-05-06T09:50:55Z</time>
      </trkpt>
      <trkpt lat="43.44106" lon="-0.53806">
        <ele>177</ele>
        <time>2013-05-06T09:50:56Z</time>
      </trkpt>
      <trkpt lat="43.44105" lon="-0.53803">
        <ele>177</ele>
        <time>2013-05-06T09:50:57Z</time>
      </trkpt>
      <trkpt lat="43.44104" lon="-0.53799">
        <ele>176</ele>
        <time>2013-05-06T09:50:58Z</time>
      </trkpt>
      <trkpt lat="43.44104" lon="-0.53796">
        <ele>175</ele>
        <time>2013-05-06T09:50:59Z</time>
      </trkpt>
      <trkpt lat="43.44103" lon="-0.53792">
        <ele>175</ele>
        <time>2013-05-06T09:51:00Z</time>
      </trkpt>
      <trkpt lat="43.44101" lon="-0.53788">
        <ele>176</ele>
        <time>2013-05-06T09:51:01Z</time>
      </trkpt>
      <trkpt lat="43.441" lon="-0.53785">
        <ele>176</ele>
        <time>2013-05-06T09:51:02Z</time>
      </trkpt>
      <trkpt lat="43.44099" lon="-0.5378">
        <ele>176</ele>
        <time>2013-05-06T09:51:03Z</time>
      </trkpt>
      <trkpt lat="43.44097" lon="-0.53776">
        <ele>176</ele>
        <time>2013-05-06T09:51:04Z</time>
      </trkpt>
      <trkpt lat="43.44096" lon="-0.5377">
        <ele>174</ele>
        <time>2013-05-06T09:51:05Z</time>
      </trkpt>
      <trkpt lat="43.44095" lon="-0.53766">
        <ele>173</ele>
        <time>2013-05-06T09:51:06Z</time>
      </trkpt>
      <trkpt lat="43.44092" lon="-0.53756">
        <ele>171</ele>
        <time>2013-05-06T09:51:07Z</time>
      </trkpt>
      <trkpt lat="43.44092" lon="-0.5375">
        <ele>171</ele>
        <time>2013-05-06T09:51:08Z</time>
      </trkpt>
      <trkpt lat="43.4409" lon="-0.53746">
        <ele>171</ele>
        <time>2013-05-06T09:51:09Z</time>
      </trkpt>
      <trkpt lat="43.44088" lon="-0.53741">
        <ele>172</ele>
        <time>2013-05-06T09:51:10Z</time>
      </trkpt>
      <trkpt lat="43.44087" lon="-0.53737">
        <ele>172</ele>
        <time>2013-05-06T09:51:11Z</time>
      </trkpt>
      <trkpt lat="43.44086" lon="-0.53733">
        <ele>172</ele>
        <time>2013-05-06T09:51:12Z</time>
      </trkpt>
      <trkpt lat="43.44084" lon="-0.53731">
        <ele>172</ele>
        <time>2013-05-06T09:51:13Z</time>
      </trkpt>
      <trkpt lat="43.44081" lon="-0.53729">
        <ele>171</ele>
        <time>2013-05-06T09:51:14Z</time>
      </trkpt>
      <trkpt lat="43.44076" lon="-0.53731">
        <ele>174</ele>
        <time>2013-05-06T09:51:15Z</time>
      </trkpt>
      <trkpt lat="43.44072" lon="-0.53726">
        <ele>175</ele>
        <time>2013-05-06T09:51:16Z</time>
      </trkpt>
      <trkpt lat="43.4407" lon="-0.53724">
        <ele>175</ele>
        <time>2013-05-06T09:51:17Z</time>
      </trkpt>
      <trkpt lat="43.44069" lon="-0.53721">
        <ele>177</ele>
        <time>2013-05-06T09:51:18Z</time>
      </trkpt>
      <trkpt lat="43.44067" lon="-0.53718">
        <ele>177</ele>
        <time>2013-05-06T09:51:19Z</time>
      </trkpt>
      <trkpt lat="43.44065" lon="-0.53715">
        <ele>177</ele>
        <time>2013-05-06T09:51:20Z</time>
      </trkpt>
      <trkpt lat="43.44063" lon="-0.53711">
        <ele>177</ele>
        <time>2013-05-06T09:51:21Z</time>
      </trkpt>
      <trkpt lat="43.44062" lon="-0.53708">
        <ele>176</ele>
        <time>2013-05-06T09:51:22Z</time>
      </trkpt>
      <trkpt lat="43.4406" lon="-0.53704">
        <ele>176</ele>
        <time>2013-05-06T09:51:23Z</time>
      </trkpt>
      <trkpt lat="43.44058" lon="-0.53701">
        <ele>176</ele>
        <time>2013-05-06T09:51:24Z</time>
      </trkpt>
      <trkpt lat="43.44057" lon="-0.53698">
        <ele>177</ele>
        <time>2013-05-06T09:51:25Z</time>
      </trkpt>
      <trkpt lat="43.44056" lon="-0.53694">
        <ele>176</ele>
        <time>2013-05-06T09:51:26Z</time>
      </trkpt>
      <trkpt lat="43.44056" lon="-0.5369">
        <ele>176</ele>
        <time>2013-05-06T09:51:27Z</time>
      </trkpt>
      <trkpt lat="43.44055" lon="-0.53687">
        <ele>177</ele>
        <time>2013-05-06T09:51:28Z</time>
      </trkpt>
      <trkpt lat="43.44055" lon="-0.53683">
        <ele>176</ele>
        <time>2013-05-06T09:51:29Z</time>
      </trkpt>
      <trkpt lat="43.44055" lon="-0.53677">
        <ele>176</ele>
        <time>2013-05-06T09:51:30Z</time>
      </trkpt>
      <trkpt lat="43.44054" lon="-0.53673">
        <ele>176</ele>
        <time>2013-05-06T09:51:31Z</time>
      </trkpt>
      <trkpt lat="43.44054" lon="-0.53669">
        <ele>177</ele>
        <time>2013-05-06T09:51:32Z</time>
      </trkpt>
      <trkpt lat="43.44053" lon="-0.53664">
        <ele>177</ele>
        <time>2013-05-06T09:51:33Z</time>
      </trkpt>
      <trkpt lat="43.44053" lon="-0.53658">
        <ele>177</ele>
        <time>2013-05-06T09:51:34Z</time>
      </trkpt>
      <trkpt lat="43.44052" lon="-0.53653">
        <ele>178</ele>
        <time>2013-05-06T09:51:35Z</time>
      </trkpt>
      <trkpt lat="43.44052" lon="-0.53648">
        <ele>177</ele>
        <time>2013-05-06T09:51:36Z</time>
      </trkpt>
      <trkpt lat="43.44051" lon="-0.53642">
        <ele>177</ele>
        <time>2013-05-06T09:51:37Z</time>
      </trkpt>
      <trkpt lat="43.44051" lon="-0.53637">
        <ele>175</ele>
        <time>2013-05-06T09:51:38Z</time>
      </trkpt>
      <trkpt lat="43.4405" lon="-0.53631">
        <ele>174</ele>
        <time>2013-05-06T09:51:39Z</time>
      </trkpt>
      <trkpt lat="43.4405" lon="-0.53627">
        <ele>174</ele>
        <time>2013-05-06T09:51:40Z</time>
      </trkpt>
      <trkpt lat="43.44049" lon="-0.53622">
        <ele>173</ele>
        <time>2013-05-06T09:51:41Z</time>
      </trkpt>
      <trkpt lat="43.44048" lon="-0.53617">
        <ele>174</ele>
        <time>2013-05-06T09:51:42Z</time>
      </trkpt>
      <trkpt lat="43.44047" lon="-0.53612">
        <ele>174</ele>
        <time>2013-05-06T09:51:43Z</time>
      </trkpt>
      <trkpt lat="43.44046" lon="-0.53608">
        <ele>173</ele>
        <time>2013-05-06T09:51:44Z</time>
      </trkpt>
      <trkpt lat="43.44045" lon="-0.53605">
        <ele>172</ele>
        <time>2013-05-06T09:51:45Z</time>
      </trkpt>
      <trkpt lat="43.44043" lon="-0.53601">
        <ele>172</ele>
        <time>2013-05-06T09:51:46Z</time>
      </trkpt>
      <trkpt lat="43.44042" lon="-0.53597">
        <ele>172</ele>
        <time>2013-05-06T09:51:47Z</time>
      </trkpt>
      <trkpt lat="43.44041" lon="-0.53593">
        <ele>173</ele>
        <time>2013-05-06T09:51:48Z</time>
      </trkpt>
      <trkpt lat="43.4404" lon="-0.5359">
        <ele>173</ele>
        <time>2013-05-06T09:51:49Z</time>
      </trkpt>
      <trkpt lat="43.4404" lon="-0.53585">
        <ele>173</ele>
        <time>2013-05-06T09:51:50Z</time>
      </trkpt>
      <trkpt lat="43.44039" lon="-0.53582">
        <ele>175</ele>
        <time>2013-05-06T09:51:51Z</time>
      </trkpt>
      <trkpt lat="43.44038" lon="-0.53578">
        <ele>176</ele>
        <time>2013-05-06T09:51:52Z</time>
      </trkpt>
      <trkpt lat="43.44037" lon="-0.53575">
        <ele>176</ele>
        <time>2013-05-06T09:51:53Z</time>
      </trkpt>
      <trkpt lat="43.44037" lon="-0.53572">
        <ele>179</ele>
        <time>2013-05-06T09:51:54Z</time>
      </trkpt>
      <trkpt lat="43.44036" lon="-0.53569">
        <ele>179</ele>
        <time>2013-05-06T09:51:55Z</time>
      </trkpt>
      <trkpt lat="43.44036" lon="-0.53565">
        <ele>179</ele>
        <time>2013-05-06T09:51:56Z</time>
      </trkpt>
      <trkpt lat="43.44035" lon="-0.53562">
        <ele>179</ele>
        <time>2013-05-06T09:51:57Z</time>
      </trkpt>
      <trkpt lat="43.44033" lon="-0.53556">
        <ele>180</ele>
        <time>2013-05-06T09:51:58Z</time>
      </trkpt>
      <trkpt lat="43.44032" lon="-0.5355">
        <ele>180</ele>
        <time>2013-05-06T09:51:59Z</time>
      </trkpt>
      <trkpt lat="43.44031" lon="-0.53546">
        <ele>180</ele>
        <time>2013-05-06T09:52:00Z</time>
      </trkpt>
      <trkpt lat="43.44028" lon="-0.5354">
        <ele>182</ele>
        <time>2013-05-06T09:52:01Z</time>
      </trkpt>
      <trkpt lat="43.44025" lon="-0.53535">
        <ele>182</ele>
        <time>2013-05-06T09:52:02Z</time>
      </trkpt>
      <trkpt lat="43.44022" lon="-0.53529">
        <ele>181</ele>
        <time>2013-05-06T09:52:03Z</time>
      </trkpt>
      <trkpt lat="43.4402" lon="-0.53522">
        <ele>180</ele>
        <time>2013-05-06T09:52:04Z</time>
      </trkpt>
      <trkpt lat="43.44017" lon="-0.53518">
        <ele>180</ele>
        <time>2013-05-06T09:52:05Z</time>
      </trkpt>
      <trkpt lat="43.44016" lon="-0.5351">
        <ele>180</ele>
        <time>2013-05-06T09:52:06Z</time>
      </trkpt>
      <trkpt lat="43.44016" lon="-0.53491">
        <ele>180</ele>
        <time>2013-05-06T09:52:07Z</time>
      </trkpt>
      <trkpt lat="43.44016" lon="-0.53485">
        <ele>180</ele>
        <time>2013-05-06T09:52:08Z</time>
      </trkpt>
      <trkpt lat="43.44014" lon="-0.53479">
        <ele>179</ele>
        <time>2013-05-06T09:52:09Z</time>
      </trkpt>
      <trkpt lat="43.44013" lon="-0.53473">
        <ele>180</ele>
        <time>2013-05-06T09:52:10Z</time>
      </trkpt>
      <trkpt lat="43.44013" lon="-0.53467">
        <ele>180</ele>
        <time>2013-05-06T09:52:11Z</time>
      </trkpt>
      <trkpt lat="43.44013" lon="-0.53461">
        <ele>180</ele>
        <time>2013-05-06T09:52:12Z</time>
      </trkpt>
      <trkpt lat="43.44011" lon="-0.53456">
        <ele>180</ele>
        <time>2013-05-06T09:52:13Z</time>
      </trkpt>
      <trkpt lat="43.4401" lon="-0.53451">
        <ele>180</ele>
        <time>2013-05-06T09:52:14Z</time>
      </trkpt>
      <trkpt lat="43.4401" lon="-0.53446">
        <ele>179</ele>
        <time>2013-05-06T09:52:15Z</time>
      </trkpt>
      <trkpt lat="43.44009" lon="-0.53442">
        <ele>179</ele>
        <time>2013-05-06T09:52:16Z</time>
      </trkpt>
      <trkpt lat="43.44009" lon="-0.53436">
        <ele>179</ele>
        <time>2013-05-06T09:52:17Z</time>
      </trkpt>
      <trkpt lat="43.44014" lon="-0.53428">
        <ele>179</ele>
        <time>2013-05-06T09:52:18Z</time>
      </trkpt>
      <trkpt lat="43.44016" lon="-0.5342">
        <ele>179</ele>
        <time>2013-05-06T09:52:19Z</time>
      </trkpt>
      <trkpt lat="43.44014" lon="-0.53416">
        <ele>179</ele>
        <time>2013-05-06T09:52:20Z</time>
      </trkpt>
      <trkpt lat="43.44014" lon="-0.53413">
        <ele>179</ele>
        <time>2013-05-06T09:52:21Z</time>
      </trkpt>
      <trkpt lat="43.44013" lon="-0.53406">
        <ele>179</ele>
        <time>2013-05-06T09:52:22Z</time>
      </trkpt>
      <trkpt lat="43.44011" lon="-0.53403">
        <ele>180</ele>
        <time>2013-05-06T09:52:23Z</time>
      </trkpt>
      <trkpt lat="43.4401" lon="-0.53395">
        <ele>180</ele>
        <time>2013-05-06T09:52:24Z</time>
      </trkpt>
      <trkpt lat="43.44009" lon="-0.5339">
        <ele>181</ele>
        <time>2013-05-06T09:52:25Z</time>
      </trkpt>
      <trkpt lat="43.44009" lon="-0.53389">
        <ele>181</ele>
        <time>2013-05-06T09:52:26Z</time>
      </trkpt>
      <trkpt lat="43.44007" lon="-0.53386">
        <ele>182</ele>
        <time>2013-05-06T09:52:27Z</time>
      </trkpt>
      <trkpt lat="43.44007" lon="-0.53381">
        <ele>182</ele>
        <time>2013-05-06T09:52:28Z</time>
      </trkpt>
      <trkpt lat="43.44007" lon="-0.53377">
        <ele>183</ele>
        <time>2013-05-06T09:52:29Z</time>
      </trkpt>
      <trkpt lat="43.44006" lon="-0.53372">
        <ele>183</ele>
        <time>2013-05-06T09:52:30Z</time>
      </trkpt>
      <trkpt lat="43.44006" lon="-0.53368">
        <ele>183</ele>
        <time>2013-05-06T09:52:31Z</time>
      </trkpt>
      <trkpt lat="43.44006" lon="-0.53365">
        <ele>183</ele>
        <time>2013-05-06T09:52:32Z</time>
      </trkpt>
      <trkpt lat="43.44006" lon="-0.53361">
        <ele>182</ele>
        <time>2013-05-06T09:52:33Z</time>
      </trkpt>
      <trkpt lat="43.44005" lon="-0.53358">
        <ele>182</ele>
        <time>2013-05-06T09:52:34Z</time>
      </trkpt>
      <trkpt lat="43.44004" lon="-0.53354">
        <ele>182</ele>
        <time>2013-05-06T09:52:35Z</time>
      </trkpt>
      <trkpt lat="43.44003" lon="-0.5335">
        <ele>182</ele>
        <time>2013-05-06T09:52:36Z</time>
      </trkpt>
      <trkpt lat="43.44002" lon="-0.53347">
        <ele>183</ele>
        <time>2013-05-06T09:52:37Z</time>
      </trkpt>
      <trkpt lat="43.44001" lon="-0.53343">
        <ele>184</ele>
        <time>2013-05-06T09:52:38Z</time>
      </trkpt>
      <trkpt lat="43.44" lon="-0.5334">
        <ele>184</ele>
        <time>2013-05-06T09:52:39Z</time>
      </trkpt>
      <trkpt lat="43.44" lon="-0.53337">
        <ele>184</ele>
        <time>2013-05-06T09:52:40Z</time>
      </trkpt>
      <trkpt lat="43.44" lon="-0.53335">
        <ele>185</ele>
        <time>2013-05-06T09:52:41Z</time>
      </trkpt>
      <trkpt lat="43.43999" lon="-0.53333">
        <ele>185</ele>
        <time>2013-05-06T09:52:42Z</time>
      </trkpt>
      <trkpt lat="43.43999" lon="-0.53329">
        <ele>185</ele>
        <time>2013-05-06T09:52:43Z</time>
      </trkpt>
      <trkpt lat="43.43998" lon="-0.53325">
        <ele>186</ele>
        <time>2013-05-06T09:52:44Z</time>
      </trkpt>
      <trkpt lat="43.43998" lon="-0.53322">
        <ele>187</ele>
        <time>2013-05-06T09:52:45Z</time>
      </trkpt>
      <trkpt lat="43.43996" lon="-0.53319">
        <ele>186</ele>
        <time>2013-05-06T09:52:46Z</time>
      </trkpt>
      <trkpt lat="43.43995" lon="-0.53315">
        <ele>186</ele>
        <time>2013-05-06T09:52:47Z</time>
      </trkpt>
      <trkpt lat="43.43994" lon="-0.53312">
        <ele>186</ele>
        <time>2013-05-06T09:52:48Z</time>
      </trkpt>
      <trkpt lat="43.43992" lon="-0.5331">
        <ele>186</ele>
        <time>2013-05-06T09:52:49Z</time>
      </trkpt>
      <trkpt lat="43.43995" lon="-0.53305">
        <ele>189</ele>
        <time>2013-05-06T09:52:50Z</time>
      </trkpt>
      <trkpt lat="43.43993" lon="-0.53302">
        <ele>190</ele>
        <time>2013-05-06T09:52:51Z</time>
      </trkpt>
      <trkpt lat="43.43992" lon="-0.53298">
        <ele>190</ele>
        <time>2013-05-06T09:52:52Z</time>
      </trkpt>
      <trkpt lat="43.43991" lon="-0.53296">
        <ele>190</ele>
        <time>2013-05-06T09:52:53Z</time>
      </trkpt>
      <trkpt lat="43.43989" lon="-0.53291">
        <ele>190</ele>
        <time>2013-05-06T09:52:54Z</time>
      </trkpt>
      <trkpt lat="43.43987" lon="-0.53288">
        <ele>189</ele>
        <time>2013-05-06T09:52:55Z</time>
      </trkpt>
      <trkpt lat="43.43985" lon="-0.53283">
        <ele>189</ele>
        <time>2013-05-06T09:52:56Z</time>
      </trkpt>
      <trkpt lat="43.43984" lon="-0.5328">
        <ele>189</ele>
        <time>2013-05-06T09:52:57Z</time>
      </trkpt>
      <trkpt lat="43.43979" lon="-0.5328">
        <ele>191</ele>
        <time>2013-05-06T09:52:58Z</time>
      </trkpt>
      <trkpt lat="43.43978" lon="-0.53276">
        <ele>192</ele>
        <time>2013-05-06T09:52:59Z</time>
      </trkpt>
      <trkpt lat="43.43978" lon="-0.53271">
        <ele>191</ele>
        <time>2013-05-06T09:53:00Z</time>
      </trkpt>
      <trkpt lat="43.43977" lon="-0.53268">
        <ele>193</ele>
        <time>2013-05-06T09:53:01Z</time>
      </trkpt>
      <trkpt lat="43.43977" lon="-0.53264">
        <ele>193</ele>
        <time>2013-05-06T09:53:02Z</time>
      </trkpt>
      <trkpt lat="43.43975" lon="-0.5326">
        <ele>193</ele>
        <time>2013-05-06T09:53:03Z</time>
      </trkpt>
      <trkpt lat="43.43974" lon="-0.53257">
        <ele>193</ele>
        <time>2013-05-06T09:53:04Z</time>
      </trkpt>
      <trkpt lat="43.43974" lon="-0.53254">
        <ele>191</ele>
        <time>2013-05-06T09:53:05Z</time>
      </trkpt>
      <trkpt lat="43.43974" lon="-0.5325">
        <ele>191</ele>
        <time>2013-05-06T09:53:06Z</time>
      </trkpt>
      <trkpt lat="43.43974" lon="-0.53247">
        <ele>190</ele>
        <time>2013-05-06T09:53:07Z</time>
      </trkpt>
      <trkpt lat="43.43974" lon="-0.53243">
        <ele>190</ele>
        <time>2013-05-06T09:53:08Z</time>
      </trkpt>
      <trkpt lat="43.43973" lon="-0.53239">
        <ele>189</ele>
        <time>2013-05-06T09:53:09Z</time>
      </trkpt>
      <trkpt lat="43.43972" lon="-0.53235">
        <ele>189</ele>
        <time>2013-05-06T09:53:10Z</time>
      </trkpt>
      <trkpt lat="43.43972" lon="-0.5323">
        <ele>188</ele>
        <time>2013-05-06T09:53:11Z</time>
      </trkpt>
      <trkpt lat="43.43971" lon="-0.53226">
        <ele>189</ele>
        <time>2013-05-06T09:53:12Z</time>
      </trkpt>
      <trkpt lat="43.43969" lon="-0.53221">
        <ele>187</ele>
        <time>2013-05-06T09:53:13Z</time>
      </trkpt>
      <trkpt lat="43.43968" lon="-0.53217">
        <ele>186</ele>
        <time>2013-05-06T09:53:14Z</time>
      </trkpt>
      <trkpt lat="43.43967" lon="-0.53213">
        <ele>186</ele>
        <time>2013-05-06T09:53:15Z</time>
      </trkpt>
      <trkpt lat="43.43965" lon="-0.53209">
        <ele>186</ele>
        <time>2013-05-06T09:53:16Z</time>
      </trkpt>
      <trkpt lat="43.43963" lon="-0.53204">
        <ele>187</ele>
        <time>2013-05-06T09:53:17Z</time>
      </trkpt>
      <trkpt lat="43.43961" lon="-0.532">
        <ele>186</ele>
        <time>2013-05-06T09:53:18Z</time>
      </trkpt>
      <trkpt lat="43.43959" lon="-0.53195">
        <ele>186</ele>
        <time>2013-05-06T09:53:19Z</time>
      </trkpt>
      <trkpt lat="43.43958" lon="-0.53191">
        <ele>186</ele>
        <time>2013-05-06T09:53:20Z</time>
      </trkpt>
      <trkpt lat="43.43956" lon="-0.53186">
        <ele>186</ele>
        <time>2013-05-06T09:53:21Z</time>
      </trkpt>
      <trkpt lat="43.43953" lon="-0.53181">
        <ele>186</ele>
        <time>2013-05-06T09:53:22Z</time>
      </trkpt>
      <trkpt lat="43.43952" lon="-0.53176">
        <ele>186</ele>
        <time>2013-05-06T09:53:23Z</time>
      </trkpt>
      <trkpt lat="43.43943" lon="-0.53165">
        <ele>173</ele>
        <time>2013-05-06T09:53:24Z</time>
      </trkpt>
      <trkpt lat="43.43941" lon="-0.5316">
        <ele>174</ele>
        <time>2013-05-06T09:53:25Z</time>
      </trkpt>
      <trkpt lat="43.43938" lon="-0.53155">
        <ele>175</ele>
        <time>2013-05-06T09:53:26Z</time>
      </trkpt>
      <trkpt lat="43.43935" lon="-0.5315">
        <ele>174</ele>
        <time>2013-05-06T09:53:27Z</time>
      </trkpt>
      <trkpt lat="43.43933" lon="-0.53146">
        <ele>175</ele>
        <time>2013-05-06T09:53:28Z</time>
      </trkpt>
      <trkpt lat="43.43931" lon="-0.53141">
        <ele>175</ele>
        <time>2013-05-06T09:53:29Z</time>
      </trkpt>
      <trkpt lat="43.43929" lon="-0.53138">
        <ele>177</ele>
        <time>2013-05-06T09:53:30Z</time>
      </trkpt>
      <trkpt lat="43.43928" lon="-0.53133">
        <ele>178</ele>
        <time>2013-05-06T09:53:31Z</time>
      </trkpt>
      <trkpt lat="43.43926" lon="-0.53129">
        <ele>178</ele>
        <time>2013-05-06T09:53:32Z</time>
      </trkpt>
      <trkpt lat="43.43924" lon="-0.53125">
        <ele>181</ele>
        <time>2013-05-06T09:53:33Z</time>
      </trkpt>
      <trkpt lat="43.43921" lon="-0.53125">
        <ele>183</ele>
        <time>2013-05-06T09:53:34Z</time>
      </trkpt>
      <trkpt lat="43.43919" lon="-0.53123">
        <ele>186</ele>
        <time>2013-05-06T09:53:35Z</time>
      </trkpt>
      <trkpt lat="43.43917" lon="-0.53122">
        <ele>188</ele>
        <time>2013-05-06T09:53:36Z</time>
      </trkpt>
      <trkpt lat="43.43915" lon="-0.53119">
        <ele>189</ele>
        <time>2013-05-06T09:53:37Z</time>
      </trkpt>
      <trkpt lat="43.43912" lon="-0.53116">
        <ele>188</ele>
        <time>2013-05-06T09:53:38Z</time>
      </trkpt>
      <trkpt lat="43.43911" lon="-0.53111">
        <ele>188</ele>
        <time>2013-05-06T09:53:39Z</time>
      </trkpt>
      <trkpt lat="43.4391" lon="-0.53105">
        <ele>189</ele>
        <time>2013-05-06T09:53:40Z</time>
      </trkpt>
      <trkpt lat="43.43908" lon="-0.53102">
        <ele>190</ele>
        <time>2013-05-06T09:53:41Z</time>
      </trkpt>
      <trkpt lat="43.43908" lon="-0.53096">
        <ele>190</ele>
        <time>2013-05-06T09:53:42Z</time>
      </trkpt>
      <trkpt lat="43.43908" lon="-0.5309">
        <ele>190</ele>
        <time>2013-05-06T09:53:43Z</time>
      </trkpt>
      <trkpt lat="43.43908" lon="-0.53085">
        <ele>190</ele>
        <time>2013-05-06T09:53:44Z</time>
      </trkpt>
      <trkpt lat="43.43909" lon="-0.5308">
        <ele>191</ele>
        <time>2013-05-06T09:53:45Z</time>
      </trkpt>
      <trkpt lat="43.4391" lon="-0.53075">
        <ele>191</ele>
        <time>2013-05-06T09:53:46Z</time>
      </trkpt>
      <trkpt lat="43.43911" lon="-0.53071">
        <ele>192</ele>
        <time>2013-05-06T09:53:47Z</time>
      </trkpt>
      <trkpt lat="43.43912" lon="-0.53066">
        <ele>192</ele>
        <time>2013-05-06T09:53:48Z</time>
      </trkpt>
      <trkpt lat="43.43913" lon="-0.53062">
        <ele>192</ele>
        <time>2013-05-06T09:53:49Z</time>
      </trkpt>
      <trkpt lat="43.43914" lon="-0.53057">
        <ele>193</ele>
        <time>2013-05-06T09:53:50Z</time>
      </trkpt>
      <trkpt lat="43.43914" lon="-0.53053">
        <ele>193</ele>
        <time>2013-05-06T09:53:51Z</time>
      </trkpt>
      <trkpt lat="43.43915" lon="-0.53049">
        <ele>192</ele>
        <time>2013-05-06T09:53:52Z</time>
      </trkpt>
      <trkpt lat="43.43916" lon="-0.53046">
        <ele>192</ele>
        <time>2013-05-06T09:53:53Z</time>
      </trkpt>
      <trkpt lat="43.43916" lon="-0.53043">
        <ele>192</ele>
        <time>2013-05-06T09:53:54Z</time>
      </trkpt>
      <trkpt lat="43.43917" lon="-0.53041">
        <ele>192</ele>
        <time>2013-05-06T09:53:55Z</time>
      </trkpt>
      <trkpt lat="43.43918" lon="-0.53038">
        <ele>191</ele>
        <time>2013-05-06T09:53:56Z</time>
      </trkpt>
      <trkpt lat="43.43918" lon="-0.53036">
        <ele>191</ele>
        <time>2013-05-06T09:53:57Z</time>
      </trkpt>
      <trkpt lat="43.43918" lon="-0.53034">
        <ele>195</ele>
        <time>2013-05-06T09:53:58Z</time>
      </trkpt>
      <trkpt lat="43.43918" lon="-0.53032">
        <ele>196</ele>
        <time>2013-05-06T09:53:59Z</time>
      </trkpt>
      <trkpt lat="43.43918" lon="-0.5303">
        <ele>197</ele>
        <time>2013-05-06T09:54:00Z</time>
      </trkpt>
      <trkpt lat="43.43918" lon="-0.53027">
        <ele>196</ele>
        <time>2013-05-06T09:54:01Z</time>
      </trkpt>
      <trkpt lat="43.43918" lon="-0.53025">
        <ele>199</ele>
        <time>2013-05-06T09:54:02Z</time>
      </trkpt>
      <trkpt lat="43.43918" lon="-0.53023">
        <ele>201</ele>
        <time>2013-05-06T09:54:03Z</time>
      </trkpt>
      <trkpt lat="43.43918" lon="-0.5302">
        <ele>202</ele>
        <time>2013-05-06T09:54:04Z</time>
      </trkpt>
      <trkpt lat="43.43918" lon="-0.53017">
        <ele>202</ele>
        <time>2013-05-06T09:54:05Z</time>
      </trkpt>
      <trkpt lat="43.43918" lon="-0.53014">
        <ele>202</ele>
        <time>2013-05-06T09:54:06Z</time>
      </trkpt>
      <trkpt lat="43.43918" lon="-0.53011">
        <ele>202</ele>
        <time>2013-05-06T09:54:07Z</time>
      </trkpt>
      <trkpt lat="43.43918" lon="-0.53008">
        <ele>202</ele>
        <time>2013-05-06T09:54:08Z</time>
      </trkpt>
      <trkpt lat="43.43919" lon="-0.53005">
        <ele>201</ele>
        <time>2013-05-06T09:54:09Z</time>
      </trkpt>
      <trkpt lat="43.43919" lon="-0.53002">
        <ele>201</ele>
        <time>2013-05-06T09:54:10Z</time>
      </trkpt>
      <trkpt lat="43.43919" lon="-0.52999">
        <ele>202</ele>
        <time>2013-05-06T09:54:11Z</time>
      </trkpt>
      <trkpt lat="43.43919" lon="-0.52997">
        <ele>203</ele>
        <time>2013-05-06T09:54:12Z</time>
      </trkpt>
      <trkpt lat="43.43919" lon="-0.52994">
        <ele>204</ele>
        <time>2013-05-06T09:54:13Z</time>
      </trkpt>
      <trkpt lat="43.43918" lon="-0.52992">
        <ele>204</ele>
        <time>2013-05-06T09:54:14Z</time>
      </trkpt>
      <trkpt lat="43.43918" lon="-0.5299">
        <ele>208</ele>
        <time>2013-05-06T09:54:15Z</time>
      </trkpt>
      <trkpt lat="43.43918" lon="-0.52988">
        <ele>211</ele>
        <time>2013-05-06T09:54:16Z</time>
      </trkpt>
      <trkpt lat="43.43919" lon="-0.52986">
        <ele>208</ele>
        <time>2013-05-06T09:54:17Z</time>
      </trkpt>
      <trkpt lat="43.43919" lon="-0.52984">
        <ele>209</ele>
        <time>2013-05-06T09:54:18Z</time>
      </trkpt>
      <trkpt lat="43.4392" lon="-0.52982">
        <ele>210</ele>
        <time>2013-05-06T09:54:19Z</time>
      </trkpt>
      <trkpt lat="43.4392" lon="-0.5298">
        <ele>213</ele>
        <time>2013-05-06T09:54:20Z</time>
      </trkpt>
      <trkpt lat="43.43921" lon="-0.52979">
        <ele>216</ele>
        <time>2013-05-06T09:54:21Z</time>
      </trkpt>
      <trkpt lat="43.4392" lon="-0.52977">
        <ele>215</ele>
        <time>2013-05-06T09:54:22Z</time>
      </trkpt>
      <trkpt lat="43.43919" lon="-0.52974">
        <ele>213</ele>
        <time>2013-05-06T09:54:23Z</time>
      </trkpt>
      <trkpt lat="43.43919" lon="-0.52971">
        <ele>213</ele>
        <time>2013-05-06T09:54:24Z</time>
      </trkpt>
      <trkpt lat="43.43918" lon="-0.52967">
        <ele>213</ele>
        <time>2013-05-06T09:54:25Z</time>
      </trkpt>
      <trkpt lat="43.43917" lon="-0.52963">
        <ele>211</ele>
        <time>2013-05-06T09:54:26Z</time>
      </trkpt>
      <trkpt lat="43.43917" lon="-0.5296">
        <ele>210</ele>
        <time>2013-05-06T09:54:27Z</time>
      </trkpt>
      <trkpt lat="43.43917" lon="-0.52956">
        <ele>209</ele>
        <time>2013-05-06T09:54:28Z</time>
      </trkpt>
      <trkpt lat="43.43917" lon="-0.52954">
        <ele>208</ele>
        <time>2013-05-06T09:54:29Z</time>
      </trkpt>
      <trkpt lat="43.43917" lon="-0.52951">
        <ele>208</ele>
        <time>2013-05-06T09:54:30Z</time>
      </trkpt>
      <trkpt lat="43.43917" lon="-0.52949">
        <ele>207</ele>
        <time>2013-05-06T09:54:31Z</time>
      </trkpt>
      <trkpt lat="43.43917" lon="-0.52947">
        <ele>206</ele>
        <time>2013-05-06T09:54:32Z</time>
      </trkpt>
      <trkpt lat="43.43916" lon="-0.52944">
        <ele>205</ele>
        <time>2013-05-06T09:54:33Z</time>
      </trkpt>
      <trkpt lat="43.43916" lon="-0.52942">
        <ele>205</ele>
        <time>2013-05-06T09:54:34Z</time>
      </trkpt>
      <trkpt lat="43.43915" lon="-0.5294">
        <ele>205</ele>
        <time>2013-05-06T09:54:35Z</time>
      </trkpt>
      <trkpt lat="43.43914" lon="-0.52937">
        <ele>206</ele>
        <time>2013-05-06T09:54:36Z</time>
      </trkpt>
      <trkpt lat="43.43914" lon="-0.52934">
        <ele>205</ele>
        <time>2013-05-06T09:54:37Z</time>
      </trkpt>
      <trkpt lat="43.43913" lon="-0.52932">
        <ele>206</ele>
        <time>2013-05-06T09:54:38Z</time>
      </trkpt>
      <trkpt lat="43.43913" lon="-0.52929">
        <ele>205</ele>
        <time>2013-05-06T09:54:39Z</time>
      </trkpt>
      <trkpt lat="43.43912" lon="-0.52926">
        <ele>206</ele>
        <time>2013-05-06T09:54:40Z</time>
      </trkpt>
      <trkpt lat="43.43912" lon="-0.52924">
        <ele>207</ele>
        <time>2013-05-06T09:54:41Z</time>
      </trkpt>
      <trkpt lat="43.43911" lon="-0.52921">
        <ele>207</ele>
        <time>2013-05-06T09:54:42Z</time>
      </trkpt>
      <trkpt lat="43.43911" lon="-0.52917">
        <ele>208</ele>
        <time>2013-05-06T09:54:43Z</time>
      </trkpt>
      <trkpt lat="43.43911" lon="-0.52915">
        <ele>208</ele>
        <time>2013-05-06T09:54:44Z</time>
      </trkpt>
      <trkpt lat="43.4391" lon="-0.52912">
        <ele>209</ele>
        <time>2013-05-06T09:54:45Z</time>
      </trkpt>
      <trkpt lat="43.43909" lon="-0.5291">
        <ele>209</ele>
        <time>2013-05-06T09:54:46Z</time>
      </trkpt>
      <trkpt lat="43.43908" lon="-0.52908">
        <ele>209</ele>
        <time>2013-05-06T09:54:47Z</time>
      </trkpt>
      <trkpt lat="43.43907" lon="-0.52906">
        <ele>211</ele>
        <time>2013-05-06T09:54:48Z</time>
      </trkpt>
      <trkpt lat="43.43907" lon="-0.52904">
        <ele>212</ele>
        <time>2013-05-06T09:54:49Z</time>
      </trkpt>
      <trkpt lat="43.43906" lon="-0.52902">
        <ele>213</ele>
        <time>2013-05-06T09:54:50Z</time>
      </trkpt>
      <trkpt lat="43.43905" lon="-0.52899">
        <ele>213</ele>
        <time>2013-05-06T09:54:51Z</time>
      </trkpt>
      <trkpt lat="43.4391" lon="-0.52897">
        <ele>213</ele>
        <time>2013-05-06T09:54:52Z</time>
      </trkpt>
      <trkpt lat="43.4391" lon="-0.52894">
        <ele>212</ele>
        <time>2013-05-06T09:54:53Z</time>
      </trkpt>
      <trkpt lat="43.4391" lon="-0.5289">
        <ele>212</ele>
        <time>2013-05-06T09:54:54Z</time>
      </trkpt>
      <trkpt lat="43.4391" lon="-0.52887">
        <ele>214</ele>
        <time>2013-05-06T09:54:55Z</time>
      </trkpt>
      <trkpt lat="43.4391" lon="-0.52884">
        <ele>215</ele>
        <time>2013-05-06T09:54:56Z</time>
      </trkpt>
      <trkpt lat="43.43903" lon="-0.52881">
        <ele>214</ele>
        <time>2013-05-06T09:54:57Z</time>
      </trkpt>
      <trkpt lat="43.43903" lon="-0.52879">
        <ele>215</ele>
        <time>2013-05-06T09:54:58Z</time>
      </trkpt>
      <trkpt lat="43.43903" lon="-0.52877">
        <ele>214</ele>
        <time>2013-05-06T09:54:59Z</time>
      </trkpt>
      <trkpt lat="43.43903" lon="-0.52875">
        <ele>214</ele>
        <time>2013-05-06T09:55:00Z</time>
      </trkpt>
      <trkpt lat="43.43903" lon="-0.52874">
        <ele>216</ele>
        <time>2013-05-06T09:55:01Z</time>
      </trkpt>
      <trkpt lat="43.43902" lon="-0.52872">
        <ele>217</ele>
        <time>2013-05-06T09:55:02Z</time>
      </trkpt>
      <trkpt lat="43.43901" lon="-0.52871">
        <ele>217</ele>
        <time>2013-05-06T09:55:03Z</time>
      </trkpt>
      <trkpt lat="43.43901" lon="-0.52869">
        <ele>217</ele>
        <time>2013-05-06T09:55:04Z</time>
      </trkpt>
      <trkpt lat="43.43901" lon="-0.52867">
        <ele>217</ele>
        <time>2013-05-06T09:55:05Z</time>
      </trkpt>
      <trkpt lat="43.439" lon="-0.52865">
        <ele>217</ele>
        <time>2013-05-06T09:55:06Z</time>
      </trkpt>
      <trkpt lat="43.439" lon="-0.52863">
        <ele>217</ele>
        <time>2013-05-06T09:55:07Z</time>
      </trkpt>
      <trkpt lat="43.439" lon="-0.52861">
        <ele>217</ele>
        <time>2013-05-06T09:55:08Z</time>
      </trkpt>
      <trkpt lat="43.43901" lon="-0.5286">
        <ele>217</ele>
        <time>2013-05-06T09:55:09Z</time>
      </trkpt>
      <trkpt lat="43.43901" lon="-0.52858">
        <ele>217</ele>
        <time>2013-05-06T09:55:10Z</time>
      </trkpt>
      <trkpt lat="43.43901" lon="-0.52857">
        <ele>217</ele>
        <time>2013-05-06T09:55:11Z</time>
      </trkpt>
      <trkpt lat="43.43901" lon="-0.52855">
        <ele>218</ele>
        <time>2013-05-06T09:55:12Z</time>
      </trkpt>
      <trkpt lat="43.43901" lon="-0.52854">
        <ele>218</ele>
        <time>2013-05-06T09:55:13Z</time>
      </trkpt>
      <trkpt lat="43.43901" lon="-0.52852">
        <ele>219</ele>
        <time>2013-05-06T09:55:14Z</time>
      </trkpt>
      <trkpt lat="43.43901" lon="-0.5285">
        <ele>218</ele>
        <time>2013-05-06T09:55:15Z</time>
      </trkpt>
      <trkpt lat="43.43899" lon="-0.52847">
        <ele>217</ele>
        <time>2013-05-06T09:55:16Z</time>
      </trkpt>
      <trkpt lat="43.43898" lon="-0.52845">
        <ele>217</ele>
        <time>2013-05-06T09:55:17Z</time>
      </trkpt>
      <trkpt lat="43.43897" lon="-0.52845">
        <ele>217</ele>
        <time>2013-05-06T09:55:18Z</time>
      </trkpt>
      <trkpt lat="43.43895" lon="-0.52847">
        <ele>217</ele>
        <time>2013-05-06T09:55:19Z</time>
      </trkpt>
      <trkpt lat="43.43893" lon="-0.52847">
        <ele>216</ele>
        <time>2013-05-06T09:55:20Z</time>
      </trkpt>
      <trkpt lat="43.43892" lon="-0.52847">
        <ele>216</ele>
        <time>2013-05-06T09:55:21Z</time>
      </trkpt>
      <trkpt lat="43.43892" lon="-0.52845">
        <ele>214</ele>
        <time>2013-05-06T09:55:22Z</time>
      </trkpt>
      <trkpt lat="43.43893" lon="-0.52842">
        <ele>213</ele>
        <time>2013-05-06T09:55:23Z</time>
      </trkpt>
      <trkpt lat="43.43894" lon="-0.52837">
        <ele>213</ele>
        <time>2013-05-06T09:55:24Z</time>
      </trkpt>
      <trkpt lat="43.43896" lon="-0.52834">
        <ele>213</ele>
        <time>2013-05-06T09:55:25Z</time>
      </trkpt>
      <trkpt lat="43.43897" lon="-0.52831">
        <ele>213</ele>
        <time>2013-05-06T09:55:26Z</time>
      </trkpt>
      <trkpt lat="43.43898" lon="-0.52828">
        <ele>214</ele>
        <time>2013-05-06T09:55:27Z</time>
      </trkpt>
      <trkpt lat="43.43898" lon="-0.52825">
        <ele>213</ele>
        <time>2013-05-06T09:55:28Z</time>
      </trkpt>
      <trkpt lat="43.43899" lon="-0.52822">
        <ele>214</ele>
        <time>2013-05-06T09:55:29Z</time>
      </trkpt>
      <trkpt lat="43.43899" lon="-0.52819">
        <ele>214</ele>
        <time>2013-05-06T09:55:30Z</time>
      </trkpt>
      <trkpt lat="43.439" lon="-0.52815">
        <ele>215</ele>
        <time>2013-05-06T09:55:31Z</time>
      </trkpt>
      <trkpt lat="43.439" lon="-0.52811">
        <ele>215</ele>
        <time>2013-05-06T09:55:32Z</time>
      </trkpt>
      <trkpt lat="43.43899" lon="-0.52809">
        <ele>216</ele>
        <time>2013-05-06T09:55:33Z</time>
      </trkpt>
      <trkpt lat="43.43898" lon="-0.52807">
        <ele>216</ele>
        <time>2013-05-06T09:55:34Z</time>
      </trkpt>
      <trkpt lat="43.43897" lon="-0.52804">
        <ele>217</ele>
        <time>2013-05-06T09:55:35Z</time>
      </trkpt>
      <trkpt lat="43.43895" lon="-0.52802">
        <ele>217</ele>
        <time>2013-05-06T09:55:36Z</time>
      </trkpt>
      <trkpt lat="43.43895" lon="-0.528">
        <ele>217</ele>
        <time>2013-05-06T09:55:37Z</time>
      </trkpt>
      <trkpt lat="43.43894" lon="-0.52798">
        <ele>217</ele>
        <time>2013-05-06T09:55:38Z</time>
      </trkpt>
      <trkpt lat="43.43894" lon="-0.52796">
        <ele>217</ele>
        <time>2013-05-06T09:55:39Z</time>
      </trkpt>
      <trkpt lat="43.43893" lon="-0.52794">
        <ele>216</ele>
        <time>2013-05-06T09:55:40Z</time>
      </trkpt>
      <trkpt lat="43.43893" lon="-0.52791">
        <ele>216</ele>
        <time>2013-05-06T09:55:41Z</time>
      </trkpt>
      <trkpt lat="43.43892" lon="-0.52789">
        <ele>215</ele>
        <time>2013-05-06T09:55:42Z</time>
      </trkpt>
      <trkpt lat="43.43892" lon="-0.52787">
        <ele>215</ele>
        <time>2013-05-06T09:55:43Z</time>
      </trkpt>
      <trkpt lat="43.43891" lon="-0.52785">
        <ele>215</ele>
        <time>2013-05-06T09:55:44Z</time>
      </trkpt>
      <trkpt lat="43.43891" lon="-0.52783">
        <ele>217</ele>
        <time>2013-05-06T09:55:45Z</time>
      </trkpt>
      <trkpt lat="43.4389" lon="-0.52779">
        <ele>216</ele>
        <time>2013-05-06T09:55:46Z</time>
      </trkpt>
      <trkpt lat="43.43889" lon="-0.52776">
        <ele>216</ele>
        <time>2013-05-06T09:55:47Z</time>
      </trkpt>
      <trkpt lat="43.43888" lon="-0.52773">
        <ele>215</ele>
        <time>2013-05-06T09:55:48Z</time>
      </trkpt>
      <trkpt lat="43.43887" lon="-0.52771">
        <ele>215</ele>
        <time>2013-05-06T09:55:49Z</time>
      </trkpt>
      <trkpt lat="43.43886" lon="-0.52769">
        <ele>215</ele>
        <time>2013-05-06T09:55:50Z</time>
      </trkpt>
      <trkpt lat="43.43885" lon="-0.52767">
        <ele>215</ele>
        <time>2013-05-06T09:55:51Z</time>
      </trkpt>
      <trkpt lat="43.43882" lon="-0.52762">
        <ele>216</ele>
        <time>2013-05-06T09:55:52Z</time>
      </trkpt>
      <trkpt lat="43.43881" lon="-0.52758">
        <ele>217</ele>
        <time>2013-05-06T09:55:53Z</time>
      </trkpt>
      <trkpt lat="43.43879" lon="-0.52754">
        <ele>219</ele>
        <time>2013-05-06T09:55:54Z</time>
      </trkpt>
      <trkpt lat="43.43878" lon="-0.5275">
        <ele>220</ele>
        <time>2013-05-06T09:55:55Z</time>
      </trkpt>
      <trkpt lat="43.43876" lon="-0.52746">
        <ele>220</ele>
        <time>2013-05-06T09:55:56Z</time>
      </trkpt>
      <trkpt lat="43.43875" lon="-0.52742">
        <ele>219</ele>
        <time>2013-05-06T09:55:57Z</time>
      </trkpt>
      <trkpt lat="43.43874" lon="-0.52739">
        <ele>220</ele>
        <time>2013-05-06T09:55:58Z</time>
      </trkpt>
      <trkpt lat="43.43872" lon="-0.52735">
        <ele>217</ele>
        <time>2013-05-06T09:55:59Z</time>
      </trkpt>
      <trkpt lat="43.43871" lon="-0.52732">
        <ele>215</ele>
        <time>2013-05-06T09:56:00Z</time>
      </trkpt>
      <trkpt lat="43.43868" lon="-0.52728">
        <ele>217</ele>
        <time>2013-05-06T09:56:01Z</time>
      </trkpt>
      <trkpt lat="43.43866" lon="-0.52725">
        <ele>217</ele>
        <time>2013-05-06T09:56:02Z</time>
      </trkpt>
      <trkpt lat="43.43864" lon="-0.52721">
        <ele>216</ele>
        <time>2013-05-06T09:56:03Z</time>
      </trkpt>
      <trkpt lat="43.43863" lon="-0.52716">
        <ele>215</ele>
        <time>2013-05-06T09:56:04Z</time>
      </trkpt>
      <trkpt lat="43.43862" lon="-0.52713">
        <ele>215</ele>
        <time>2013-05-06T09:56:05Z</time>
      </trkpt>
      <trkpt lat="43.43861" lon="-0.52708">
        <ele>214</ele>
        <time>2013-05-06T09:56:06Z</time>
      </trkpt>
      <trkpt lat="43.43861" lon="-0.52704">
        <ele>215</ele>
        <time>2013-05-06T09:56:07Z</time>
      </trkpt>
      <trkpt lat="43.4386" lon="-0.52699">
        <ele>215</ele>
        <time>2013-05-06T09:56:08Z</time>
      </trkpt>
      <trkpt lat="43.43859" lon="-0.52696">
        <ele>216</ele>
        <time>2013-05-06T09:56:09Z</time>
      </trkpt>
      <trkpt lat="43.43858" lon="-0.52692">
        <ele>216</ele>
        <time>2013-05-06T09:56:10Z</time>
      </trkpt>
      <trkpt lat="43.43857" lon="-0.52689">
        <ele>216</ele>
        <time>2013-05-06T09:56:11Z</time>
      </trkpt>
      <trkpt lat="43.43856" lon="-0.52685">
        <ele>215</ele>
        <time>2013-05-06T09:56:12Z</time>
      </trkpt>
      <trkpt lat="43.43855" lon="-0.52681">
        <ele>216</ele>
        <time>2013-05-06T09:56:13Z</time>
      </trkpt>
      <trkpt lat="43.43855" lon="-0.52677">
        <ele>216</ele>
        <time>2013-05-06T09:56:14Z</time>
      </trkpt>
      <trkpt lat="43.43855" lon="-0.52674">
        <ele>217</ele>
        <time>2013-05-06T09:56:15Z</time>
      </trkpt>
      <trkpt lat="43.43855" lon="-0.52671">
        <ele>217</ele>
        <time>2013-05-06T09:56:16Z</time>
      </trkpt>
      <trkpt lat="43.43856" lon="-0.52667">
        <ele>219</ele>
        <time>2013-05-06T09:56:17Z</time>
      </trkpt>
      <trkpt lat="43.43856" lon="-0.52664">
        <ele>219</ele>
        <time>2013-05-06T09:56:18Z</time>
      </trkpt>
      <trkpt lat="43.43855" lon="-0.52661">
        <ele>218</ele>
        <time>2013-05-06T09:56:19Z</time>
      </trkpt>
      <trkpt lat="43.43852" lon="-0.52658">
        <ele>218</ele>
        <time>2013-05-06T09:56:20Z</time>
      </trkpt>
      <trkpt lat="43.4385" lon="-0.52655">
        <ele>217</ele>
        <time>2013-05-06T09:56:21Z</time>
      </trkpt>
      <trkpt lat="43.43845" lon="-0.52653">
        <ele>218</ele>
        <time>2013-05-06T09:56:22Z</time>
      </trkpt>
      <trkpt lat="43.43843" lon="-0.5265">
        <ele>218</ele>
        <time>2013-05-06T09:56:23Z</time>
      </trkpt>
      <trkpt lat="43.43841" lon="-0.52648">
        <ele>219</ele>
        <time>2013-05-06T09:56:24Z</time>
      </trkpt>
      <trkpt lat="43.4384" lon="-0.52645">
        <ele>219</ele>
        <time>2013-05-06T09:56:25Z</time>
      </trkpt>
      <trkpt lat="43.43839" lon="-0.52643">
        <ele>220</ele>
        <time>2013-05-06T09:56:26Z</time>
      </trkpt>
      <trkpt lat="43.43838" lon="-0.5264">
        <ele>220</ele>
        <time>2013-05-06T09:56:27Z</time>
      </trkpt>
      <trkpt lat="43.43837" lon="-0.52637">
        <ele>221</ele>
        <time>2013-05-06T09:56:28Z</time>
      </trkpt>
      <trkpt lat="43.43837" lon="-0.52633">
        <ele>221</ele>
        <time>2013-05-06T09:56:29Z</time>
      </trkpt>
      <trkpt lat="43.43836" lon="-0.5263">
        <ele>220</ele>
        <time>2013-05-06T09:56:30Z</time>
      </trkpt>
      <trkpt lat="43.43835" lon="-0.52627">
        <ele>220</ele>
        <time>2013-05-06T09:56:31Z</time>
      </trkpt>
      <trkpt lat="43.43834" lon="-0.52622">
        <ele>221</ele>
        <time>2013-05-06T09:56:32Z</time>
      </trkpt>
      <trkpt lat="43.43833" lon="-0.52618">
        <ele>220</ele>
        <time>2013-05-06T09:56:33Z</time>
      </trkpt>
      <trkpt lat="43.43832" lon="-0.52614">
        <ele>219</ele>
        <time>2013-05-06T09:56:34Z</time>
      </trkpt>
      <trkpt lat="43.43831" lon="-0.52611">
        <ele>220</ele>
        <time>2013-05-06T09:56:35Z</time>
      </trkpt>
      <trkpt lat="43.43831" lon="-0.52608">
        <ele>220</ele>
        <time>2013-05-06T09:56:36Z</time>
      </trkpt>
      <trkpt lat="43.4383" lon="-0.52605">
        <ele>221</ele>
        <time>2013-05-06T09:56:37Z</time>
      </trkpt>
      <trkpt lat="43.43829" lon="-0.52603">
        <ele>221</ele>
        <time>2013-05-06T09:56:38Z</time>
      </trkpt>
      <trkpt lat="43.43828" lon="-0.526">
        <ele>222</ele>
        <time>2013-05-06T09:56:39Z</time>
      </trkpt>
      <trkpt lat="43.43826" lon="-0.52597">
        <ele>223</ele>
        <time>2013-05-06T09:56:40Z</time>
      </trkpt>
      <trkpt lat="43.43824" lon="-0.52594">
        <ele>223</ele>
        <time>2013-05-06T09:56:41Z</time>
      </trkpt>
      <trkpt lat="43.43823" lon="-0.52591">
        <ele>224</ele>
        <time>2013-05-06T09:56:42Z</time>
      </trkpt>
      <trkpt lat="43.43822" lon="-0.52588">
        <ele>223</ele>
        <time>2013-05-06T09:56:43Z</time>
      </trkpt>
      <trkpt lat="43.43821" lon="-0.52586">
        <ele>223</ele>
        <time>2013-05-06T09:56:44Z</time>
      </trkpt>
      <trkpt lat="43.43819" lon="-0.52583">
        <ele>224</ele>
        <time>2013-05-06T09:56:45Z</time>
      </trkpt>
      <trkpt lat="43.43827" lon="-0.52572">
        <ele>224</ele>
        <time>2013-05-06T09:56:46Z</time>
      </trkpt>
      <trkpt lat="43.43827" lon="-0.52572">
        <ele>226</ele>
        <time>2013-05-06T09:56:47Z</time>
      </trkpt>
      <trkpt lat="43.43824" lon="-0.52564">
        <ele>226</ele>
        <time>2013-05-06T09:56:48Z</time>
      </trkpt>
      <trkpt lat="43.43823" lon="-0.5256">
        <ele>225</ele>
        <time>2013-05-06T09:56:49Z</time>
      </trkpt>
      <trkpt lat="43.43811" lon="-0.52564">
        <ele>225</ele>
        <time>2013-05-06T09:56:50Z</time>
      </trkpt>
      <trkpt lat="43.4381" lon="-0.52561">
        <ele>225</ele>
        <time>2013-05-06T09:56:51Z</time>
      </trkpt>
      <trkpt lat="43.43808" lon="-0.52556">
        <ele>223</ele>
        <time>2013-05-06T09:56:52Z</time>
      </trkpt>
      <trkpt lat="43.43807" lon="-0.52552">
        <ele>224</ele>
        <time>2013-05-06T09:56:53Z</time>
      </trkpt>
      <trkpt lat="43.43806" lon="-0.52548">
        <ele>224</ele>
        <time>2013-05-06T09:56:54Z</time>
      </trkpt>
      <trkpt lat="43.43804" lon="-0.52544">
        <ele>224</ele>
        <time>2013-05-06T09:56:55Z</time>
      </trkpt>
      <trkpt lat="43.43803" lon="-0.5254">
        <ele>225</ele>
        <time>2013-05-06T09:56:56Z</time>
      </trkpt>
      <trkpt lat="43.43801" lon="-0.52537">
        <ele>225</ele>
        <time>2013-05-06T09:56:57Z</time>
      </trkpt>
      <trkpt lat="43.438" lon="-0.52533">
        <ele>227</ele>
        <time>2013-05-06T09:56:58Z</time>
      </trkpt>
      <trkpt lat="43.43799" lon="-0.52529">
        <ele>227</ele>
        <time>2013-05-06T09:56:59Z</time>
      </trkpt>
      <trkpt lat="43.43797" lon="-0.52527">
        <ele>227</ele>
        <time>2013-05-06T09:57:00Z</time>
      </trkpt>
      <trkpt lat="43.43795" lon="-0.52524">
        <ele>227</ele>
        <time>2013-05-06T09:57:01Z</time>
      </trkpt>
      <trkpt lat="43.43792" lon="-0.52519">
        <ele>227</ele>
        <time>2013-05-06T09:57:02Z</time>
      </trkpt>
      <trkpt lat="43.43789" lon="-0.52504">
        <ele>226</ele>
        <time>2013-05-06T09:57:03Z</time>
      </trkpt>
      <trkpt lat="43.43787" lon="-0.52494">
        <ele>226</ele>
        <time>2013-05-06T09:57:04Z</time>
      </trkpt>
      <trkpt lat="43.43786" lon="-0.5248">
        <ele>226</ele>
        <time>2013-05-06T09:57:05Z</time>
      </trkpt>
      <trkpt lat="43.43781" lon="-0.5247">
        <ele>225</ele>
        <time>2013-05-06T09:57:06Z</time>
      </trkpt>
      <trkpt lat="43.43771" lon="-0.52465">
        <ele>223</ele>
        <time>2013-05-06T09:57:07Z</time>
      </trkpt>
      <trkpt lat="43.43766" lon="-0.52458">
        <ele>223</ele>
        <time>2013-05-06T09:57:08Z</time>
      </trkpt>
      <trkpt lat="43.4376" lon="-0.5245">
        <ele>223</ele>
        <time>2013-05-06T09:57:09Z</time>
      </trkpt>
      <trkpt lat="43.43755" lon="-0.52442">
        <ele>222</ele>
        <time>2013-05-06T09:57:10Z</time>
      </trkpt>
      <trkpt lat="43.4375" lon="-0.52434">
        <ele>222</ele>
        <time>2013-05-06T09:57:11Z</time>
      </trkpt>
      <trkpt lat="43.43742" lon="-0.52425">
        <ele>223</ele>
        <time>2013-05-06T09:57:12Z</time>
      </trkpt>
      <trkpt lat="43.43735" lon="-0.52415">
        <ele>223</ele>
        <time>2013-05-06T09:57:13Z</time>
      </trkpt>
      <trkpt lat="43.43731" lon="-0.52411">
        <ele>224</ele>
        <time>2013-05-06T09:57:14Z</time>
      </trkpt>
      <trkpt lat="43.43728" lon="-0.52407">
        <ele>223</ele>
        <time>2013-05-06T09:57:15Z</time>
      </trkpt>
      <trkpt lat="43.43715" lon="-0.52392">
        <ele>223</ele>
        <time>2013-05-06T09:57:16Z</time>
      </trkpt>
      <trkpt lat="43.43707" lon="-0.52381">
        <ele>223</ele>
        <time>2013-05-06T09:57:17Z</time>
      </trkpt>
      <trkpt lat="43.43703" lon="-0.52375">
        <ele>222</ele>
        <time>2013-05-06T09:57:18Z</time>
      </trkpt>
      <trkpt lat="43.43699" lon="-0.52369">
        <ele>221</ele>
        <time>2013-05-06T09:57:19Z</time>
      </trkpt>
      <trkpt lat="43.43695" lon="-0.52362">
        <ele>221</ele>
        <time>2013-05-06T09:57:20Z</time>
      </trkpt>
      <trkpt lat="43.4369" lon="-0.52354">
        <ele>221</ele>
        <time>2013-05-06T09:57:21Z</time>
      </trkpt>
      <trkpt lat="43.43685" lon="-0.52346">
        <ele>221</ele>
        <time>2013-05-06T09:57:22Z</time>
      </trkpt>
      <trkpt lat="43.43679" lon="-0.52338">
        <ele>220</ele>
        <time>2013-05-06T09:57:23Z</time>
      </trkpt>
      <trkpt lat="43.43674" lon="-0.52329">
        <ele>220</ele>
        <time>2013-05-06T09:57:24Z</time>
      </trkpt>
      <trkpt lat="43.4367" lon="-0.52321">
        <ele>221</ele>
        <time>2013-05-06T09:57:25Z</time>
      </trkpt>
      <trkpt lat="43.43657" lon="-0.52322">
        <ele>221</ele>
        <time>2013-05-06T09:57:26Z</time>
      </trkpt>
      <trkpt lat="43.43654" lon="-0.52311">
        <ele>220</ele>
        <time>2013-05-06T09:57:27Z</time>
      </trkpt>
      <trkpt lat="43.4365" lon="-0.52304">
        <ele>220</ele>
        <time>2013-05-06T09:57:28Z</time>
      </trkpt>
      <trkpt lat="43.43645" lon="-0.52299">
        <ele>220</ele>
        <time>2013-05-06T09:57:29Z</time>
      </trkpt>
      <trkpt lat="43.43641" lon="-0.52293">
        <ele>220</ele>
        <time>2013-05-06T09:57:30Z</time>
      </trkpt>
      <trkpt lat="43.43636" lon="-0.5229">
        <ele>219</ele>
        <time>2013-05-06T09:57:31Z</time>
      </trkpt>
      <trkpt lat="43.43631" lon="-0.52284">
        <ele>219</ele>
        <time>2013-05-06T09:57:32Z</time>
      </trkpt>
      <trkpt lat="43.43637" lon="-0.52269">
        <ele>219</ele>
        <time>2013-05-06T09:57:33Z</time>
      </trkpt>
      <trkpt lat="43.43633" lon="-0.52263">
        <ele>219</ele>
        <time>2013-05-06T09:57:34Z</time>
      </trkpt>
      <trkpt lat="43.43629" lon="-0.52258">
        <ele>219</ele>
        <time>2013-05-06T09:57:35Z</time>
      </trkpt>
      <trkpt lat="43.43625" lon="-0.52252">
        <ele>218</ele>
        <time>2013-05-06T09:57:36Z</time>
      </trkpt>
      <trkpt lat="43.43621" lon="-0.52247">
        <ele>219</ele>
        <time>2013-05-06T09:57:37Z</time>
      </trkpt>
      <trkpt lat="43.43618" lon="-0.52242">
        <ele>219</ele>
        <time>2013-05-06T09:57:38Z</time>
      </trkpt>
      <trkpt lat="43.43615" lon="-0.52238">
        <ele>219</ele>
        <time>2013-05-06T09:57:39Z</time>
      </trkpt>
      <trkpt lat="43.43611" lon="-0.52231">
        <ele>219</ele>
        <time>2013-05-06T09:57:40Z</time>
      </trkpt>
      <trkpt lat="43.43608" lon="-0.52227">
        <ele>217</ele>
        <time>2013-05-06T09:57:41Z</time>
      </trkpt>
      <trkpt lat="43.43605" lon="-0.5222">
        <ele>217</ele>
        <time>2013-05-06T09:57:42Z</time>
      </trkpt>
      <trkpt lat="43.43602" lon="-0.52215">
        <ele>217</ele>
        <time>2013-05-06T09:57:43Z</time>
      </trkpt>
      <trkpt lat="43.436" lon="-0.52211">
        <ele>217</ele>
        <time>2013-05-06T09:57:44Z</time>
      </trkpt>
      <trkpt lat="43.43597" lon="-0.52206">
        <ele>217</ele>
        <time>2013-05-06T09:57:45Z</time>
      </trkpt>
      <trkpt lat="43.43594" lon="-0.522">
        <ele>216</ele>
        <time>2013-05-06T09:57:46Z</time>
      </trkpt>
      <trkpt lat="43.43588" lon="-0.52204">
        <ele>216</ele>
        <time>2013-05-06T09:57:47Z</time>
      </trkpt>
      <trkpt lat="43.43585" lon="-0.522">
        <ele>216</ele>
        <time>2013-05-06T09:57:48Z</time>
      </trkpt>
      <trkpt lat="43.43584" lon="-0.52193">
        <ele>216</ele>
        <time>2013-05-06T09:57:49Z</time>
      </trkpt>
      <trkpt lat="43.43582" lon="-0.52187">
        <ele>217</ele>
        <time>2013-05-06T09:57:50Z</time>
      </trkpt>
      <trkpt lat="43.43581" lon="-0.52183">
        <ele>217</ele>
        <time>2013-05-06T09:57:51Z</time>
      </trkpt>
      <trkpt lat="43.43578" lon="-0.52179">
        <ele>217</ele>
        <time>2013-05-06T09:57:52Z</time>
      </trkpt>
      <trkpt lat="43.43576" lon="-0.52175">
        <ele>219</ele>
        <time>2013-05-06T09:57:53Z</time>
      </trkpt>
      <trkpt lat="43.43574" lon="-0.52171">
        <ele>219</ele>
        <time>2013-05-06T09:57:54Z</time>
      </trkpt>
      <trkpt lat="43.43573" lon="-0.52166">
        <ele>219</ele>
        <time>2013-05-06T09:57:55Z</time>
      </trkpt>
      <trkpt lat="43.43575" lon="-0.52162">
        <ele>227</ele>
        <time>2013-05-06T09:57:56Z</time>
      </trkpt>
      <trkpt lat="43.43574" lon="-0.52158">
        <ele>230</ele>
        <time>2013-05-06T09:57:57Z</time>
      </trkpt>
      <trkpt lat="43.43571" lon="-0.52155">
        <ele>228</ele>
        <time>2013-05-06T09:57:58Z</time>
      </trkpt>
      <trkpt lat="43.43568" lon="-0.52149">
        <ele>228</ele>
        <time>2013-05-06T09:57:59Z</time>
      </trkpt>
      <trkpt lat="43.43567" lon="-0.52146">
        <ele>227</ele>
        <time>2013-05-06T09:58:00Z</time>
      </trkpt>
      <trkpt lat="43.43565" lon="-0.52142">
        <ele>227</ele>
        <time>2013-05-06T09:58:01Z</time>
      </trkpt>
      <trkpt lat="43.43562" lon="-0.52139">
        <ele>225</ele>
        <time>2013-05-06T09:58:02Z</time>
      </trkpt>
      <trkpt lat="43.4356" lon="-0.52135">
        <ele>226</ele>
        <time>2013-05-06T09:58:03Z</time>
      </trkpt>
      <trkpt lat="43.43559" lon="-0.5213">
        <ele>225</ele>
        <time>2013-05-06T09:58:04Z</time>
      </trkpt>
      <trkpt lat="43.43558" lon="-0.52126">
        <ele>225</ele>
        <time>2013-05-06T09:58:05Z</time>
      </trkpt>
      <trkpt lat="43.43557" lon="-0.52122">
        <ele>226</ele>
        <time>2013-05-06T09:58:06Z</time>
      </trkpt>
      <trkpt lat="43.43556" lon="-0.52119">
        <ele>225</ele>
        <time>2013-05-06T09:58:07Z</time>
      </trkpt>
      <trkpt lat="43.43554" lon="-0.52115">
        <ele>224</ele>
        <time>2013-05-06T09:58:08Z</time>
      </trkpt>
      <trkpt lat="43.43554" lon="-0.52112">
        <ele>224</ele>
        <time>2013-05-06T09:58:09Z</time>
      </trkpt>
      <trkpt lat="43.43552" lon="-0.52109">
        <ele>225</ele>
        <time>2013-05-06T09:58:10Z</time>
      </trkpt>
      <trkpt lat="43.43551" lon="-0.52106">
        <ele>226</ele>
        <time>2013-05-06T09:58:11Z</time>
      </trkpt>
      <trkpt lat="43.4355" lon="-0.52102">
        <ele>227</ele>
        <time>2013-05-06T09:58:12Z</time>
      </trkpt>
      <trkpt lat="43.43549" lon="-0.52098">
        <ele>227</ele>
        <time>2013-05-06T09:58:13Z</time>
      </trkpt>
      <trkpt lat="43.43544" lon="-0.52098">
        <ele>227</ele>
        <time>2013-05-06T09:58:14Z</time>
      </trkpt>
      <trkpt lat="43.43542" lon="-0.52095">
        <ele>227</ele>
        <time>2013-05-06T09:58:15Z</time>
      </trkpt>
      <trkpt lat="43.4354" lon="-0.52091">
        <ele>227</ele>
        <time>2013-05-06T09:58:16Z</time>
      </trkpt>
      <trkpt lat="43.43538" lon="-0.52088">
        <ele>227</ele>
        <time>2013-05-06T09:58:17Z</time>
      </trkpt>
      <trkpt lat="43.43537" lon="-0.52084">
        <ele>228</ele>
        <time>2013-05-06T09:58:18Z</time>
      </trkpt>
      <trkpt lat="43.43535" lon="-0.52081">
        <ele>228</ele>
        <time>2013-05-06T09:58:19Z</time>
      </trkpt>
      <trkpt lat="43.43533" lon="-0.52077">
        <ele>227</ele>
        <time>2013-05-06T09:58:20Z</time>
      </trkpt>
      <trkpt lat="43.43532" lon="-0.52074">
        <ele>226</ele>
        <time>2013-05-06T09:58:21Z</time>
      </trkpt>
      <trkpt lat="43.4353" lon="-0.5207">
        <ele>226</ele>
        <time>2013-05-06T09:58:22Z</time>
      </trkpt>
      <trkpt lat="43.43528" lon="-0.52066">
        <ele>226</ele>
        <time>2013-05-06T09:58:23Z</time>
      </trkpt>
      <trkpt lat="43.43526" lon="-0.52062">
        <ele>226</ele>
        <time>2013-05-06T09:58:24Z</time>
      </trkpt>
      <trkpt lat="43.43525" lon="-0.52059">
        <ele>226</ele>
        <time>2013-05-06T09:58:25Z</time>
      </trkpt>
      <trkpt lat="43.43523" lon="-0.52055">
        <ele>228</ele>
        <time>2013-05-06T09:58:26Z</time>
      </trkpt>
      <trkpt lat="43.43521" lon="-0.52051">
        <ele>228</ele>
        <time>2013-05-06T09:58:27Z</time>
      </trkpt>
      <trkpt lat="43.43519" lon="-0.52047">
        <ele>228</ele>
        <time>2013-05-06T09:58:28Z</time>
      </trkpt>
      <trkpt lat="43.43517" lon="-0.52044">
        <ele>228</ele>
        <time>2013-05-06T09:58:29Z</time>
      </trkpt>
      <trkpt lat="43.43516" lon="-0.5204">
        <ele>227</ele>
        <time>2013-05-06T09:58:30Z</time>
      </trkpt>
      <trkpt lat="43.43514" lon="-0.52036">
        <ele>227</ele>
        <time>2013-05-06T09:58:31Z</time>
      </trkpt>
      <trkpt lat="43.43512" lon="-0.52032">
        <ele>227</ele>
        <time>2013-05-06T09:58:32Z</time>
      </trkpt>
      <trkpt lat="43.4351" lon="-0.52029">
        <ele>227</ele>
        <time>2013-05-06T09:58:33Z</time>
      </trkpt>
      <trkpt lat="43.43508" lon="-0.52025">
        <ele>229</ele>
        <time>2013-05-06T09:58:34Z</time>
      </trkpt>
      <trkpt lat="43.43506" lon="-0.52021">
        <ele>228</ele>
        <time>2013-05-06T09:58:35Z</time>
      </trkpt>
      <trkpt lat="43.43504" lon="-0.52019">
        <ele>230</ele>
        <time>2013-05-06T09:58:36Z</time>
      </trkpt>
      <trkpt lat="43.43503" lon="-0.52015">
        <ele>231</ele>
        <time>2013-05-06T09:58:37Z</time>
      </trkpt>
      <trkpt lat="43.43501" lon="-0.52013">
        <ele>232</ele>
        <time>2013-05-06T09:58:38Z</time>
      </trkpt>
      <trkpt lat="43.43499" lon="-0.5201">
        <ele>232</ele>
        <time>2013-05-06T09:58:39Z</time>
      </trkpt>
      <trkpt lat="43.43498" lon="-0.52007">
        <ele>232</ele>
        <time>2013-05-06T09:58:40Z</time>
      </trkpt>
      <trkpt lat="43.43496" lon="-0.52004">
        <ele>232</ele>
        <time>2013-05-06T09:58:41Z</time>
      </trkpt>
      <trkpt lat="43.43495" lon="-0.52002">
        <ele>233</ele>
        <time>2013-05-06T09:58:42Z</time>
      </trkpt>
      <trkpt lat="43.43494" lon="-0.51999">
        <ele>233</ele>
        <time>2013-05-06T09:58:43Z</time>
      </trkpt>
      <trkpt lat="43.43491" lon="-0.51996">
        <ele>233</ele>
        <time>2013-05-06T09:58:44Z</time>
      </trkpt>
      <trkpt lat="43.4349" lon="-0.51992">
        <ele>232</ele>
        <time>2013-05-06T09:58:45Z</time>
      </trkpt>
      <trkpt lat="43.43488" lon="-0.51989">
        <ele>233</ele>
        <time>2013-05-06T09:58:46Z</time>
      </trkpt>
      <trkpt lat="43.43486" lon="-0.51986">
        <ele>233</ele>
        <time>2013-05-06T09:58:47Z</time>
      </trkpt>
      <trkpt lat="43.43483" lon="-0.51982">
        <ele>232</ele>
        <time>2013-05-06T09:58:48Z</time>
      </trkpt>
      <trkpt lat="43.4348" lon="-0.5198">
        <ele>232</ele>
        <time>2013-05-06T09:58:49Z</time>
      </trkpt>
      <trkpt lat="43.43478" lon="-0.51977">
        <ele>232</ele>
        <time>2013-05-06T09:58:50Z</time>
      </trkpt>
      <trkpt lat="43.43477" lon="-0.51973">
        <ele>234</ele>
        <time>2013-05-06T09:58:51Z</time>
      </trkpt>
      <trkpt lat="43.43475" lon="-0.5197">
        <ele>234</ele>
        <time>2013-05-06T09:58:52Z</time>
      </trkpt>
      <trkpt lat="43.43472" lon="-0.51967">
        <ele>234</ele>
        <time>2013-05-06T09:58:53Z</time>
      </trkpt>
      <trkpt lat="43.4347" lon="-0.51964">
        <ele>234</ele>
        <time>2013-05-06T09:58:54Z</time>
      </trkpt>
      <trkpt lat="43.43468" lon="-0.51962">
        <ele>233</ele>
        <time>2013-05-06T09:58:55Z</time>
      </trkpt>
      <trkpt lat="43.43465" lon="-0.51959">
        <ele>233</ele>
        <time>2013-05-06T09:58:56Z</time>
      </trkpt>
      <trkpt lat="43.43463" lon="-0.51956">
        <ele>233</ele>
        <time>2013-05-06T09:58:57Z</time>
      </trkpt>
      <trkpt lat="43.43461" lon="-0.51952">
        <ele>234</ele>
        <time>2013-05-06T09:58:58Z</time>
      </trkpt>
      <trkpt lat="43.43458" lon="-0.51949">
        <ele>234</ele>
        <time>2013-05-06T09:58:59Z</time>
      </trkpt>
      <trkpt lat="43.43455" lon="-0.51945">
        <ele>233</ele>
        <time>2013-05-06T09:59:00Z</time>
      </trkpt>
      <trkpt lat="43.43451" lon="-0.51942">
        <ele>233</ele>
        <time>2013-05-06T09:59:01Z</time>
      </trkpt>
      <trkpt lat="43.43448" lon="-0.51938">
        <ele>232</ele>
        <time>2013-05-06T09:59:02Z</time>
      </trkpt>
      <trkpt lat="43.43444" lon="-0.5193">
        <ele>231</ele>
        <time>2013-05-06T09:59:03Z</time>
      </trkpt>
      <trkpt lat="43.4344" lon="-0.51925">
        <ele>230</ele>
        <time>2013-05-06T09:59:04Z</time>
      </trkpt>
      <trkpt lat="43.43436" lon="-0.5192">
        <ele>231</ele>
        <time>2013-05-06T09:59:05Z</time>
      </trkpt>
      <trkpt lat="43.43432" lon="-0.51917">
        <ele>231</ele>
        <time>2013-05-06T09:59:06Z</time>
      </trkpt>
      <trkpt lat="43.43429" lon="-0.51915">
        <ele>232</ele>
        <time>2013-05-06T09:59:07Z</time>
      </trkpt>
      <trkpt lat="43.43425" lon="-0.5191">
        <ele>232</ele>
        <time>2013-05-06T09:59:08Z</time>
      </trkpt>
      <trkpt lat="43.43423" lon="-0.51907">
        <ele>232</ele>
        <time>2013-05-06T09:59:09Z</time>
      </trkpt>
      <trkpt lat="43.4342" lon="-0.51903">
        <ele>232</ele>
        <time>2013-05-06T09:59:10Z</time>
      </trkpt>
      <trkpt lat="43.43417" lon="-0.519">
        <ele>231</ele>
        <time>2013-05-06T09:59:11Z</time>
      </trkpt>
      <trkpt lat="43.43412" lon="-0.51896">
        <ele>232</ele>
        <time>2013-05-06T09:59:12Z</time>
      </trkpt>
      <trkpt lat="43.43409" lon="-0.51892">
        <ele>232</ele>
        <time>2013-05-06T09:59:13Z</time>
      </trkpt>
      <trkpt lat="43.43405" lon="-0.5189">
        <ele>231</ele>
        <time>2013-05-06T09:59:14Z</time>
      </trkpt>
      <trkpt lat="43.43403" lon="-0.51883">
        <ele>230</ele>
        <time>2013-05-06T09:59:15Z</time>
      </trkpt>
      <trkpt lat="43.434" lon="-0.51878">
        <ele>230</ele>
        <time>2013-05-06T09:59:16Z</time>
      </trkpt>
      <trkpt lat="43.43397" lon="-0.51874">
        <ele>231</ele>
        <time>2013-05-06T09:59:17Z</time>
      </trkpt>
      <trkpt lat="43.43393" lon="-0.5187">
        <ele>231</ele>
        <time>2013-05-06T09:59:18Z</time>
      </trkpt>
      <trkpt lat="43.4339" lon="-0.51864">
        <ele>232</ele>
        <time>2013-05-06T09:59:19Z</time>
      </trkpt>
      <trkpt lat="43.43387" lon="-0.5186">
        <ele>232</ele>
        <time>2013-05-06T09:59:20Z</time>
      </trkpt>
      <trkpt lat="43.43381" lon="-0.51856">
        <ele>232</ele>
        <time>2013-05-06T09:59:21Z</time>
      </trkpt>
      <trkpt lat="43.43378" lon="-0.51852">
        <ele>232</ele>
        <time>2013-05-06T09:59:22Z</time>
      </trkpt>
      <trkpt lat="43.43373" lon="-0.5185">
        <ele>233</ele>
        <time>2013-05-06T09:59:23Z</time>
      </trkpt>
      <trkpt lat="43.43372" lon="-0.51847">
        <ele>232</ele>
        <time>2013-05-06T09:59:24Z</time>
      </trkpt>
      <trkpt lat="43.43368" lon="-0.51843">
        <ele>233</ele>
        <time>2013-05-06T09:59:25Z</time>
      </trkpt>
      <trkpt lat="43.43366" lon="-0.5184">
        <ele>233</ele>
        <time>2013-05-06T09:59:26Z</time>
      </trkpt>
      <trkpt lat="43.43363" lon="-0.51836">
        <ele>233</ele>
        <time>2013-05-06T09:59:27Z</time>
      </trkpt>
      <trkpt lat="43.43359" lon="-0.51834">
        <ele>233</ele>
        <time>2013-05-06T09:59:28Z</time>
      </trkpt>
      <trkpt lat="43.43356" lon="-0.51831">
        <ele>233</ele>
        <time>2013-05-06T09:59:29Z</time>
      </trkpt>
      <trkpt lat="43.43356" lon="-0.51827">
        <ele>234</ele>
        <time>2013-05-06T09:59:30Z</time>
      </trkpt>
      <trkpt lat="43.43353" lon="-0.51824">
        <ele>234</ele>
        <time>2013-05-06T09:59:31Z</time>
      </trkpt>
      <trkpt lat="43.43351" lon="-0.51822">
        <ele>235</ele>
        <time>2013-05-06T09:59:32Z</time>
      </trkpt>
      <trkpt lat="43.4335" lon="-0.51821">
        <ele>236</ele>
        <time>2013-05-06T09:59:33Z</time>
      </trkpt>
      <trkpt lat="43.43347" lon="-0.51818">
        <ele>236</ele>
        <time>2013-05-06T09:59:34Z</time>
      </trkpt>
      <trkpt lat="43.43345" lon="-0.51809">
        <ele>237</ele>
        <time>2013-05-06T09:59:35Z</time>
      </trkpt>
      <trkpt lat="43.43343" lon="-0.51806">
        <ele>238</ele>
        <time>2013-05-06T09:59:36Z</time>
      </trkpt>
      <trkpt lat="43.43341" lon="-0.51802">
        <ele>237</ele>
        <time>2013-05-06T09:59:37Z</time>
      </trkpt>
      <trkpt lat="43.43339" lon="-0.51798">
        <ele>238</ele>
        <time>2013-05-06T09:59:38Z</time>
      </trkpt>
      <trkpt lat="43.43337" lon="-0.51794">
        <ele>238</ele>
        <time>2013-05-06T09:59:39Z</time>
      </trkpt>
      <trkpt lat="43.43334" lon="-0.5179">
        <ele>238</ele>
        <time>2013-05-06T09:59:40Z</time>
      </trkpt>
      <trkpt lat="43.43332" lon="-0.51787">
        <ele>239</ele>
        <time>2013-05-06T09:59:41Z</time>
      </trkpt>
      <trkpt lat="43.43329" lon="-0.51784">
        <ele>239</ele>
        <time>2013-05-06T09:59:42Z</time>
      </trkpt>
      <trkpt lat="43.43326" lon="-0.51781">
        <ele>240</ele>
        <time>2013-05-06T09:59:43Z</time>
      </trkpt>
      <trkpt lat="43.43324" lon="-0.51778">
        <ele>240</ele>
        <time>2013-05-06T09:59:44Z</time>
      </trkpt>
      <trkpt lat="43.43321" lon="-0.51775">
        <ele>238</ele>
        <time>2013-05-06T09:59:45Z</time>
      </trkpt>
      <trkpt lat="43.43318" lon="-0.51772">
        <ele>238</ele>
        <time>2013-05-06T09:59:46Z</time>
      </trkpt>
      <trkpt lat="43.43316" lon="-0.51769">
        <ele>237</ele>
        <time>2013-05-06T09:59:47Z</time>
      </trkpt>
      <trkpt lat="43.43314" lon="-0.51766">
        <ele>237</ele>
        <time>2013-05-06T09:59:48Z</time>
      </trkpt>
      <trkpt lat="43.43311" lon="-0.51763">
        <ele>237</ele>
        <time>2013-05-06T09:59:49Z</time>
      </trkpt>
      <trkpt lat="43.43309" lon="-0.5176">
        <ele>238</ele>
        <time>2013-05-06T09:59:50Z</time>
      </trkpt>
      <trkpt lat="43.43306" lon="-0.51756">
        <ele>239</ele>
        <time>2013-05-06T09:59:51Z</time>
      </trkpt>
      <trkpt lat="43.43304" lon="-0.51752">
        <ele>239</ele>
        <time>2013-05-06T09:59:52Z</time>
      </trkpt>
      <trkpt lat="43.43303" lon="-0.51748">
        <ele>238</ele>
        <time>2013-05-06T09:59:53Z</time>
      </trkpt>
      <trkpt lat="43.43301" lon="-0.51744">
        <ele>238</ele>
        <time>2013-05-06T09:59:54Z</time>
      </trkpt>
      <trkpt lat="43.43299" lon="-0.5174">
        <ele>238</ele>
        <time>2013-05-06T09:59:55Z</time>
      </trkpt>
      <trkpt lat="43.43298" lon="-0.51736">
        <ele>239</ele>
        <time>2013-05-06T09:59:56Z</time>
      </trkpt>
      <trkpt lat="43.43296" lon="-0.51732">
        <ele>239</ele>
        <time>2013-05-06T09:59:57Z</time>
      </trkpt>
      <trkpt lat="43.43294" lon="-0.51729">
        <ele>239</ele>
        <time>2013-05-06T09:59:58Z</time>
      </trkpt>
      <trkpt lat="43.43293" lon="-0.51725">
        <ele>239</ele>
        <time>2013-05-06T09:59:59Z</time>
      </trkpt>
      <trkpt lat="43.43292" lon="-0.51721">
        <ele>239</ele>
        <time>2013-05-06T10:00:00Z</time>
      </trkpt>
      <trkpt lat="43.4329" lon="-0.51717">
        <ele>239</ele>
        <time>2013-05-06T10:00:01Z</time>
      </trkpt>
      <trkpt lat="43.43289" lon="-0.51714">
        <ele>238</ele>
        <time>2013-05-06T10:00:02Z</time>
      </trkpt>
      <trkpt lat="43.43287" lon="-0.5171">
        <ele>239</ele>
        <time>2013-05-06T10:00:03Z</time>
      </trkpt>
      <trkpt lat="43.43285" lon="-0.51706">
        <ele>239</ele>
        <time>2013-05-06T10:00:04Z</time>
      </trkpt>
      <trkpt lat="43.43284" lon="-0.51702">
        <ele>241</ele>
        <time>2013-05-06T10:00:05Z</time>
      </trkpt>
      <trkpt lat="43.43283" lon="-0.51699">
        <ele>239</ele>
        <time>2013-05-06T10:00:06Z</time>
      </trkpt>
      <trkpt lat="43.43281" lon="-0.51696">
        <ele>239</ele>
        <time>2013-05-06T10:00:07Z</time>
      </trkpt>
      <trkpt lat="43.4328" lon="-0.51693">
        <ele>240</ele>
        <time>2013-05-06T10:00:08Z</time>
      </trkpt>
      <trkpt lat="43.43278" lon="-0.5169">
        <ele>240</ele>
        <time>2013-05-06T10:00:09Z</time>
      </trkpt>
      <trkpt lat="43.43276" lon="-0.51686">
        <ele>240</ele>
        <time>2013-05-06T10:00:10Z</time>
      </trkpt>
      <trkpt lat="43.43275" lon="-0.51682">
        <ele>239</ele>
        <time>2013-05-06T10:00:11Z</time>
      </trkpt>
      <trkpt lat="43.43273" lon="-0.51678">
        <ele>239</ele>
        <time>2013-05-06T10:00:12Z</time>
      </trkpt>
      <trkpt lat="43.43271" lon="-0.51674">
        <ele>239</ele>
        <time>2013-05-06T10:00:13Z</time>
      </trkpt>
      <trkpt lat="43.43269" lon="-0.5167">
        <ele>239</ele>
        <time>2013-05-06T10:00:14Z</time>
      </trkpt>
      <trkpt lat="43.43267" lon="-0.51666">
        <ele>239</ele>
        <time>2013-05-06T10:00:15Z</time>
      </trkpt>
      <trkpt lat="43.43265" lon="-0.51662">
        <ele>239</ele>
        <time>2013-05-06T10:00:16Z</time>
      </trkpt>
      <trkpt lat="43.43263" lon="-0.51658">
        <ele>239</ele>
        <time>2013-05-06T10:00:17Z</time>
      </trkpt>
      <trkpt lat="43.4326" lon="-0.51654">
        <ele>240</ele>
        <time>2013-05-06T10:00:18Z</time>
      </trkpt>
      <trkpt lat="43.43258" lon="-0.5165">
        <ele>240</ele>
        <time>2013-05-06T10:00:19Z</time>
      </trkpt>
      <trkpt lat="43.43256" lon="-0.51647">
        <ele>241</ele>
        <time>2013-05-06T10:00:20Z</time>
      </trkpt>
      <trkpt lat="43.43255" lon="-0.51643">
        <ele>241</ele>
        <time>2013-05-06T10:00:21Z</time>
      </trkpt>
      <trkpt lat="43.43253" lon="-0.51637">
        <ele>240</ele>
        <time>2013-05-06T10:00:22Z</time>
      </trkpt>
      <trkpt lat="43.43252" lon="-0.51633">
        <ele>240</ele>
        <time>2013-05-06T10:00:23Z</time>
      </trkpt>
      <trkpt lat="43.4325" lon="-0.51628">
        <ele>241</ele>
        <time>2013-05-06T10:00:24Z</time>
      </trkpt>
      <trkpt lat="43.43248" lon="-0.51624">
        <ele>241</ele>
        <time>2013-05-06T10:00:25Z</time>
      </trkpt>
      <trkpt lat="43.43247" lon="-0.5162">
        <ele>241</ele>
        <time>2013-05-06T10:00:26Z</time>
      </trkpt>
      <trkpt lat="43.43245" lon="-0.51615">
        <ele>241</ele>
        <time>2013-05-06T10:00:27Z</time>
      </trkpt>
      <trkpt lat="43.43243" lon="-0.51609">
        <ele>240</ele>
        <time>2013-05-06T10:00:28Z</time>
      </trkpt>
      <trkpt lat="43.43242" lon="-0.51602">
        <ele>239</ele>
        <time>2013-05-06T10:00:29Z</time>
      </trkpt>
      <trkpt lat="43.43242" lon="-0.51594">
        <ele>238</ele>
        <time>2013-05-06T10:00:30Z</time>
      </trkpt>
      <trkpt lat="43.43241" lon="-0.51588">
        <ele>238</ele>
        <time>2013-05-06T10:00:31Z</time>
      </trkpt>
      <trkpt lat="43.4324" lon="-0.51581">
        <ele>237</ele>
        <time>2013-05-06T10:00:32Z</time>
      </trkpt>
      <trkpt lat="43.4324" lon="-0.51573">
        <ele>238</ele>
        <time>2013-05-06T10:00:33Z</time>
      </trkpt>
      <trkpt lat="43.43238" lon="-0.51566">
        <ele>240</ele>
        <time>2013-05-06T10:00:34Z</time>
      </trkpt>
      <trkpt lat="43.43237" lon="-0.5156">
        <ele>240</ele>
        <time>2013-05-06T10:00:35Z</time>
      </trkpt>
      <trkpt lat="43.43235" lon="-0.51553">
        <ele>242</ele>
        <time>2013-05-06T10:00:36Z</time>
      </trkpt>
      <trkpt lat="43.43234" lon="-0.51548">
        <ele>242</ele>
        <time>2013-05-06T10:00:37Z</time>
      </trkpt>
      <trkpt lat="43.43233" lon="-0.51541">
        <ele>241</ele>
        <time>2013-05-06T10:00:38Z</time>
      </trkpt>
      <trkpt lat="43.43232" lon="-0.51536">
        <ele>241</ele>
        <time>2013-05-06T10:00:39Z</time>
      </trkpt>
      <trkpt lat="43.4323" lon="-0.5153">
        <ele>241</ele>
        <time>2013-05-06T10:00:40Z</time>
      </trkpt>
      <trkpt lat="43.43228" lon="-0.51525">
        <ele>241</ele>
        <time>2013-05-06T10:00:41Z</time>
      </trkpt>
      <trkpt lat="43.43226" lon="-0.5152">
        <ele>241</ele>
        <time>2013-05-06T10:00:42Z</time>
      </trkpt>
      <trkpt lat="43.43224" lon="-0.51515">
        <ele>241</ele>
        <time>2013-05-06T10:00:43Z</time>
      </trkpt>
      <trkpt lat="43.43222" lon="-0.5151">
        <ele>241</ele>
        <time>2013-05-06T10:00:44Z</time>
      </trkpt>
      <trkpt lat="43.4322" lon="-0.51505">
        <ele>240</ele>
        <time>2013-05-06T10:00:45Z</time>
      </trkpt>
      <trkpt lat="43.43218" lon="-0.51501">
        <ele>240</ele>
        <time>2013-05-06T10:00:46Z</time>
      </trkpt>
      <trkpt lat="43.43214" lon="-0.51497">
        <ele>241</ele>
        <time>2013-05-06T10:00:47Z</time>
      </trkpt>
      <trkpt lat="43.43211" lon="-0.51494">
        <ele>241</ele>
        <time>2013-05-06T10:00:48Z</time>
      </trkpt>
      <trkpt lat="43.43208" lon="-0.5149">
        <ele>240</ele>
        <time>2013-05-06T10:00:49Z</time>
      </trkpt>
      <trkpt lat="43.43205" lon="-0.51487">
        <ele>240</ele>
        <time>2013-05-06T10:00:50Z</time>
      </trkpt>
      <trkpt lat="43.43201" lon="-0.51485">
        <ele>240</ele>
        <time>2013-05-06T10:00:51Z</time>
      </trkpt>
      <trkpt lat="43.43198" lon="-0.51484">
        <ele>240</ele>
        <time>2013-05-06T10:00:52Z</time>
      </trkpt>
      <trkpt lat="43.43195" lon="-0.51482">
        <ele>239</ele>
        <time>2013-05-06T10:00:53Z</time>
      </trkpt>
      <trkpt lat="43.43193" lon="-0.51479">
        <ele>238</ele>
        <time>2013-05-06T10:00:54Z</time>
      </trkpt>
      <trkpt lat="43.4319" lon="-0.51477">
        <ele>238</ele>
        <time>2013-05-06T10:00:55Z</time>
      </trkpt>
      <trkpt lat="43.43187" lon="-0.51474">
        <ele>238</ele>
        <time>2013-05-06T10:00:56Z</time>
      </trkpt>
      <trkpt lat="43.43185" lon="-0.5147">
        <ele>238</ele>
        <time>2013-05-06T10:00:57Z</time>
      </trkpt>
      <trkpt lat="43.43182" lon="-0.51466">
        <ele>239</ele>
        <time>2013-05-06T10:00:58Z</time>
      </trkpt>
      <trkpt lat="43.43179" lon="-0.51462">
        <ele>239</ele>
        <time>2013-05-06T10:00:59Z</time>
      </trkpt>
      <trkpt lat="43.43175" lon="-0.51458">
        <ele>238</ele>
        <time>2013-05-06T10:01:00Z</time>
      </trkpt>
      <trkpt lat="43.43171" lon="-0.51454">
        <ele>237</ele>
        <time>2013-05-06T10:01:01Z</time>
      </trkpt>
      <trkpt lat="43.43165" lon="-0.51448">
        <ele>237</ele>
        <time>2013-05-06T10:01:02Z</time>
      </trkpt>
      <trkpt lat="43.43159" lon="-0.51444">
        <ele>238</ele>
        <time>2013-05-06T10:01:03Z</time>
      </trkpt>
      <trkpt lat="43.43153" lon="-0.51439">
        <ele>237</ele>
        <time>2013-05-06T10:01:04Z</time>
      </trkpt>
      <trkpt lat="43.43149" lon="-0.51436">
        <ele>236</ele>
        <time>2013-05-06T10:01:05Z</time>
      </trkpt>
      <trkpt lat="43.43145" lon="-0.51432">
        <ele>236</ele>
        <time>2013-05-06T10:01:06Z</time>
      </trkpt>
      <trkpt lat="43.43139" lon="-0.51429">
        <ele>236</ele>
        <time>2013-05-06T10:01:07Z</time>
      </trkpt>
      <trkpt lat="43.43135" lon="-0.51424">
        <ele>236</ele>
        <time>2013-05-06T10:01:08Z</time>
      </trkpt>
      <trkpt lat="43.43131" lon="-0.51418">
        <ele>235</ele>
        <time>2013-05-06T10:01:09Z</time>
      </trkpt>
      <trkpt lat="43.43126" lon="-0.51414">
        <ele>234</ele>
        <time>2013-05-06T10:01:10Z</time>
      </trkpt>
      <trkpt lat="43.43124" lon="-0.51404">
        <ele>234</ele>
        <time>2013-05-06T10:01:11Z</time>
      </trkpt>
      <trkpt lat="43.43118" lon="-0.51396">
        <ele>233</ele>
        <time>2013-05-06T10:01:12Z</time>
      </trkpt>
      <trkpt lat="43.43115" lon="-0.51391">
        <ele>233</ele>
        <time>2013-05-06T10:01:13Z</time>
      </trkpt>
      <trkpt lat="43.4311" lon="-0.51385">
        <ele>235</ele>
        <time>2013-05-06T10:01:14Z</time>
      </trkpt>
      <trkpt lat="43.43107" lon="-0.5138">
        <ele>234</ele>
        <time>2013-05-06T10:01:15Z</time>
      </trkpt>
      <trkpt lat="43.43103" lon="-0.51372">
        <ele>234</ele>
        <time>2013-05-06T10:01:16Z</time>
      </trkpt>
      <trkpt lat="43.43099" lon="-0.51364">
        <ele>234</ele>
        <time>2013-05-06T10:01:17Z</time>
      </trkpt>
      <trkpt lat="43.43096" lon="-0.51357">
        <ele>233</ele>
        <time>2013-05-06T10:01:18Z</time>
      </trkpt>
      <trkpt lat="43.43092" lon="-0.51349">
        <ele>233</ele>
        <time>2013-05-06T10:01:19Z</time>
      </trkpt>
      <trkpt lat="43.43091" lon="-0.51347">
        <ele>233</ele>
        <time>2013-05-06T10:01:20Z</time>
      </trkpt>
      <trkpt lat="43.43079" lon="-0.51334">
        <ele>232</ele>
        <time>2013-05-06T10:01:22Z</time>
      </trkpt>
      <trkpt lat="43.43075" lon="-0.51327">
        <ele>232</ele>
        <time>2013-05-06T10:01:23Z</time>
      </trkpt>
      <trkpt lat="43.43071" lon="-0.5132">
        <ele>233</ele>
        <time>2013-05-06T10:01:24Z</time>
      </trkpt>
      <trkpt lat="43.43067" lon="-0.51314">
        <ele>233</ele>
        <time>2013-05-06T10:01:25Z</time>
      </trkpt>
      <trkpt lat="43.43064" lon="-0.51308">
        <ele>234</ele>
        <time>2013-05-06T10:01:26Z</time>
      </trkpt>
      <trkpt lat="43.4306" lon="-0.51302">
        <ele>233</ele>
        <time>2013-05-06T10:01:27Z</time>
      </trkpt>
      <trkpt lat="43.43057" lon="-0.51297">
        <ele>233</ele>
        <time>2013-05-06T10:01:28Z</time>
      </trkpt>
      <trkpt lat="43.43053" lon="-0.5129">
        <ele>233</ele>
        <time>2013-05-06T10:01:29Z</time>
      </trkpt>
      <trkpt lat="43.43049" lon="-0.51283">
        <ele>233</ele>
        <time>2013-05-06T10:01:30Z</time>
      </trkpt>
      <trkpt lat="43.43045" lon="-0.51277">
        <ele>234</ele>
        <time>2013-05-06T10:01:31Z</time>
      </trkpt>
      <trkpt lat="43.43042" lon="-0.51271">
        <ele>234</ele>
        <time>2013-05-06T10:01:32Z</time>
      </trkpt>
      <trkpt lat="43.43038" lon="-0.51264">
        <ele>234</ele>
        <time>2013-05-06T10:01:33Z</time>
      </trkpt>
      <trkpt lat="43.43034" lon="-0.51257">
        <ele>234</ele>
        <time>2013-05-06T10:01:34Z</time>
      </trkpt>
      <trkpt lat="43.43031" lon="-0.51251">
        <ele>234</ele>
        <time>2013-05-06T10:01:35Z</time>
      </trkpt>
      <trkpt lat="43.43027" lon="-0.51245">
        <ele>234</ele>
        <time>2013-05-06T10:01:36Z</time>
      </trkpt>
      <trkpt lat="43.43024" lon="-0.5124">
        <ele>233</ele>
        <time>2013-05-06T10:01:37Z</time>
      </trkpt>
      <trkpt lat="43.43021" lon="-0.51235">
        <ele>233</ele>
        <time>2013-05-06T10:01:38Z</time>
      </trkpt>
      <trkpt lat="43.43017" lon="-0.51228">
        <ele>233</ele>
        <time>2013-05-06T10:01:39Z</time>
      </trkpt>
      <trkpt lat="43.43015" lon="-0.51224">
        <ele>233</ele>
        <time>2013-05-06T10:01:40Z</time>
      </trkpt>
      <trkpt lat="43.43012" lon="-0.51218">
        <ele>232</ele>
        <time>2013-05-06T10:01:41Z</time>
      </trkpt>
      <trkpt lat="43.43008" lon="-0.51212">
        <ele>232</ele>
        <time>2013-05-06T10:01:42Z</time>
      </trkpt>
      <trkpt lat="43.43006" lon="-0.51208">
        <ele>233</ele>
        <time>2013-05-06T10:01:43Z</time>
      </trkpt>
      <trkpt lat="43.43002" lon="-0.51201">
        <ele>233</ele>
        <time>2013-05-06T10:01:44Z</time>
      </trkpt>
      <trkpt lat="43.42999" lon="-0.51196">
        <ele>233</ele>
        <time>2013-05-06T10:01:45Z</time>
      </trkpt>
      <trkpt lat="43.42995" lon="-0.51189">
        <ele>234</ele>
        <time>2013-05-06T10:01:46Z</time>
      </trkpt>
      <trkpt lat="43.42991" lon="-0.51184">
        <ele>234</ele>
        <time>2013-05-06T10:01:47Z</time>
      </trkpt>
      <trkpt lat="43.42989" lon="-0.51179">
        <ele>235</ele>
        <time>2013-05-06T10:01:48Z</time>
      </trkpt>
      <trkpt lat="43.42987" lon="-0.51176">
        <ele>234</ele>
        <time>2013-05-06T10:01:49Z</time>
      </trkpt>
      <trkpt lat="43.42983" lon="-0.5117">
        <ele>234</ele>
        <time>2013-05-06T10:01:50Z</time>
      </trkpt>
      <trkpt lat="43.4298" lon="-0.51166">
        <ele>235</ele>
        <time>2013-05-06T10:01:51Z</time>
      </trkpt>
      <trkpt lat="43.42978" lon="-0.51162">
        <ele>234</ele>
        <time>2013-05-06T10:01:52Z</time>
      </trkpt>
      <trkpt lat="43.42975" lon="-0.51157">
        <ele>234</ele>
        <time>2013-05-06T10:01:53Z</time>
      </trkpt>
      <trkpt lat="43.42967" lon="-0.51159">
        <ele>234</ele>
        <time>2013-05-06T10:01:54Z</time>
      </trkpt>
      <trkpt lat="43.42965" lon="-0.51151">
        <ele>234</ele>
        <time>2013-05-06T10:01:55Z</time>
      </trkpt>
      <trkpt lat="43.42963" lon="-0.51144">
        <ele>234</ele>
        <time>2013-05-06T10:01:56Z</time>
      </trkpt>
      <trkpt lat="43.42964" lon="-0.51139">
        <ele>234</ele>
        <time>2013-05-06T10:01:57Z</time>
      </trkpt>
      <trkpt lat="43.4296" lon="-0.51133">
        <ele>234</ele>
        <time>2013-05-06T10:01:58Z</time>
      </trkpt>
      <trkpt lat="43.42956" lon="-0.51125">
        <ele>232</ele>
        <time>2013-05-06T10:01:59Z</time>
      </trkpt>
      <trkpt lat="43.42956" lon="-0.5112">
        <ele>233</ele>
        <time>2013-05-06T10:02:00Z</time>
      </trkpt>
      <trkpt lat="43.42953" lon="-0.51115">
        <ele>232</ele>
        <time>2013-05-06T10:02:01Z</time>
      </trkpt>
      <trkpt lat="43.4295" lon="-0.51113">
        <ele>232</ele>
        <time>2013-05-06T10:02:02Z</time>
      </trkpt>
      <trkpt lat="43.42947" lon="-0.51109">
        <ele>232</ele>
        <time>2013-05-06T10:02:03Z</time>
      </trkpt>
      <trkpt lat="43.42944" lon="-0.51105">
        <ele>232</ele>
        <time>2013-05-06T10:02:04Z</time>
      </trkpt>
      <trkpt lat="43.42942" lon="-0.51103">
        <ele>232</ele>
        <time>2013-05-06T10:02:05Z</time>
      </trkpt>
      <trkpt lat="43.42938" lon="-0.51102">
        <ele>232</ele>
        <time>2013-05-06T10:02:06Z</time>
      </trkpt>
      <trkpt lat="43.42935" lon="-0.51101">
        <ele>232</ele>
        <time>2013-05-06T10:02:07Z</time>
      </trkpt>
      <trkpt lat="43.42932" lon="-0.51095">
        <ele>232</ele>
        <time>2013-05-06T10:02:08Z</time>
      </trkpt>
      <trkpt lat="43.42929" lon="-0.5109">
        <ele>232</ele>
        <time>2013-05-06T10:02:09Z</time>
      </trkpt>
      <trkpt lat="43.42927" lon="-0.51085">
        <ele>231</ele>
        <time>2013-05-06T10:02:10Z</time>
      </trkpt>
      <trkpt lat="43.42924" lon="-0.5108">
        <ele>231</ele>
        <time>2013-05-06T10:02:11Z</time>
      </trkpt>
      <trkpt lat="43.42921" lon="-0.51075">
        <ele>231</ele>
        <time>2013-05-06T10:02:12Z</time>
      </trkpt>
      <trkpt lat="43.42918" lon="-0.51071">
        <ele>231</ele>
        <time>2013-05-06T10:02:13Z</time>
      </trkpt>
      <trkpt lat="43.42915" lon="-0.51067">
        <ele>231</ele>
        <time>2013-05-06T10:02:14Z</time>
      </trkpt>
      <trkpt lat="43.42912" lon="-0.51064">
        <ele>231</ele>
        <time>2013-05-06T10:02:15Z</time>
      </trkpt>
      <trkpt lat="43.42902" lon="-0.51056">
        <ele>230</ele>
        <time>2013-05-06T10:02:16Z</time>
      </trkpt>
      <trkpt lat="43.42899" lon="-0.51054">
        <ele>230</ele>
        <time>2013-05-06T10:02:17Z</time>
      </trkpt>
      <trkpt lat="43.42895" lon="-0.51051">
        <ele>230</ele>
        <time>2013-05-06T10:02:18Z</time>
      </trkpt>
      <trkpt lat="43.42891" lon="-0.51048">
        <ele>230</ele>
        <time>2013-05-06T10:02:19Z</time>
      </trkpt>
      <trkpt lat="43.42888" lon="-0.51042">
        <ele>231</ele>
        <time>2013-05-06T10:02:20Z</time>
      </trkpt>
      <trkpt lat="43.42884" lon="-0.51037">
        <ele>231</ele>
        <time>2013-05-06T10:02:21Z</time>
      </trkpt>
      <trkpt lat="43.4288" lon="-0.51032">
        <ele>230</ele>
        <time>2013-05-06T10:02:22Z</time>
      </trkpt>
      <trkpt lat="43.42876" lon="-0.51027">
        <ele>230</ele>
        <time>2013-05-06T10:02:23Z</time>
      </trkpt>
      <trkpt lat="43.42873" lon="-0.51024">
        <ele>230</ele>
        <time>2013-05-06T10:02:24Z</time>
      </trkpt>
      <trkpt lat="43.4287" lon="-0.51021">
        <ele>230</ele>
        <time>2013-05-06T10:02:25Z</time>
      </trkpt>
      <trkpt lat="43.42866" lon="-0.51016">
        <ele>230</ele>
        <time>2013-05-06T10:02:26Z</time>
      </trkpt>
      <trkpt lat="43.42861" lon="-0.51012">
        <ele>230</ele>
        <time>2013-05-06T10:02:27Z</time>
      </trkpt>
      <trkpt lat="43.42857" lon="-0.51007">
        <ele>230</ele>
        <time>2013-05-06T10:02:28Z</time>
      </trkpt>
      <trkpt lat="43.42853" lon="-0.51003">
        <ele>229</ele>
        <time>2013-05-06T10:02:29Z</time>
      </trkpt>
      <trkpt lat="43.42849" lon="-0.50999">
        <ele>229</ele>
        <time>2013-05-06T10:02:30Z</time>
      </trkpt>
      <trkpt lat="43.42843" lon="-0.50992">
        <ele>229</ele>
        <time>2013-05-06T10:02:31Z</time>
      </trkpt>
      <trkpt lat="43.42838" lon="-0.50986">
        <ele>229</ele>
        <time>2013-05-06T10:02:32Z</time>
      </trkpt>
      <trkpt lat="43.42832" lon="-0.5098">
        <ele>229</ele>
        <time>2013-05-06T10:02:33Z</time>
      </trkpt>
      <trkpt lat="43.42828" lon="-0.50972">
        <ele>229</ele>
        <time>2013-05-06T10:02:34Z</time>
      </trkpt>
      <trkpt lat="43.42823" lon="-0.50964">
        <ele>229</ele>
        <time>2013-05-06T10:02:35Z</time>
      </trkpt>
      <trkpt lat="43.42817" lon="-0.50959">
        <ele>229</ele>
        <time>2013-05-06T10:02:36Z</time>
      </trkpt>
      <trkpt lat="43.42813" lon="-0.50951">
        <ele>229</ele>
        <time>2013-05-06T10:02:37Z</time>
      </trkpt>
      <trkpt lat="43.42805" lon="-0.50945">
        <ele>229</ele>
        <time>2013-05-06T10:02:38Z</time>
      </trkpt>
      <trkpt lat="43.42801" lon="-0.50937">
        <ele>228</ele>
        <time>2013-05-06T10:02:39Z</time>
      </trkpt>
      <trkpt lat="43.42797" lon="-0.50929">
        <ele>227</ele>
        <time>2013-05-06T10:02:40Z</time>
      </trkpt>
      <trkpt lat="43.42791" lon="-0.50921">
        <ele>226</ele>
        <time>2013-05-06T10:02:41Z</time>
      </trkpt>
      <trkpt lat="43.42786" lon="-0.50914">
        <ele>226</ele>
        <time>2013-05-06T10:02:42Z</time>
      </trkpt>
      <trkpt lat="43.4278" lon="-0.50908">
        <ele>225</ele>
        <time>2013-05-06T10:02:43Z</time>
      </trkpt>
      <trkpt lat="43.42775" lon="-0.50901">
        <ele>225</ele>
        <time>2013-05-06T10:02:44Z</time>
      </trkpt>
      <trkpt lat="43.42767" lon="-0.50893">
        <ele>225</ele>
        <time>2013-05-06T10:02:45Z</time>
      </trkpt>
      <trkpt lat="43.42765" lon="-0.50894">
        <ele>223</ele>
        <time>2013-05-06T10:02:46Z</time>
      </trkpt>
      <trkpt lat="43.42762" lon="-0.50889">
        <ele>223</ele>
        <time>2013-05-06T10:02:47Z</time>
      </trkpt>
      <trkpt lat="43.42755" lon="-0.50872">
        <ele>221</ele>
        <time>2013-05-06T10:02:48Z</time>
      </trkpt>
      <trkpt lat="43.42753" lon="-0.50868">
        <ele>221</ele>
        <time>2013-05-06T10:02:49Z</time>
      </trkpt>
      <trkpt lat="43.42754" lon="-0.50858">
        <ele>219</ele>
        <time>2013-05-06T10:02:50Z</time>
      </trkpt>
      <trkpt lat="43.42755" lon="-0.50852">
        <ele>219</ele>
        <time>2013-05-06T10:02:51Z</time>
      </trkpt>
      <trkpt lat="43.42756" lon="-0.5085">
        <ele>218</ele>
        <time>2013-05-06T10:02:52Z</time>
      </trkpt>
      <trkpt lat="43.42757" lon="-0.5085">
        <ele>218</ele>
        <time>2013-05-06T10:02:53Z</time>
      </trkpt>
      <trkpt lat="43.42757" lon="-0.5085">
        <ele>219</ele>
        <time>2013-05-06T10:02:54Z</time>
      </trkpt>
      <trkpt lat="43.42759" lon="-0.5085">
        <ele>218</ele>
        <time>2013-05-06T10:02:55Z</time>
      </trkpt>
      <trkpt lat="43.4276" lon="-0.50854">
        <ele>219</ele>
        <time>2013-05-06T10:02:56Z</time>
      </trkpt>
      <trkpt lat="43.42761" lon="-0.50858">
        <ele>218</ele>
        <time>2013-05-06T10:02:57Z</time>
      </trkpt>
      <trkpt lat="43.42762" lon="-0.50862">
        <ele>217</ele>
        <time>2013-05-06T10:02:58Z</time>
      </trkpt>
      <trkpt lat="43.42762" lon="-0.50866">
        <ele>217</ele>
        <time>2013-05-06T10:02:59Z</time>
      </trkpt>
      <trkpt lat="43.42761" lon="-0.5087">
        <ele>217</ele>
        <time>2013-05-06T10:03:00Z</time>
      </trkpt>
      <trkpt lat="43.42761" lon="-0.50874">
        <ele>217</ele>
        <time>2013-05-06T10:03:01Z</time>
      </trkpt>
      <trkpt lat="43.42761" lon="-0.50878">
        <ele>216</ele>
        <time>2013-05-06T10:03:02Z</time>
      </trkpt>
      <trkpt lat="43.4276" lon="-0.50883">
        <ele>215</ele>
        <time>2013-05-06T10:03:03Z</time>
      </trkpt>
      <trkpt lat="43.42759" lon="-0.5089">
        <ele>216</ele>
        <time>2013-05-06T10:03:04Z</time>
      </trkpt>
      <trkpt lat="43.42752" lon="-0.50912">
        <ele>216</ele>
        <time>2013-05-06T10:03:05Z</time>
      </trkpt>
      <trkpt lat="43.42753" lon="-0.50921">
        <ele>216</ele>
        <time>2013-05-06T10:03:06Z</time>
      </trkpt>
      <trkpt lat="43.42753" lon="-0.50934">
        <ele>215</ele>
        <time>2013-05-06T10:03:07Z</time>
      </trkpt>
      <trkpt lat="43.42753" lon="-0.50943">
        <ele>215</ele>
        <time>2013-05-06T10:03:08Z</time>
      </trkpt>
      <trkpt lat="43.42751" lon="-0.50962">
        <ele>215</ele>
        <time>2013-05-06T10:03:09Z</time>
      </trkpt>
      <trkpt lat="43.42741" lon="-0.5097">
        <ele>216</ele>
        <time>2013-05-06T10:03:10Z</time>
      </trkpt>
      <trkpt lat="43.42741" lon="-0.50978">
        <ele>216</ele>
        <time>2013-05-06T10:03:11Z</time>
      </trkpt>
      <trkpt lat="43.42741" lon="-0.50988">
        <ele>216</ele>
        <time>2013-05-06T10:03:12Z</time>
      </trkpt>
      <trkpt lat="43.4274" lon="-0.51">
        <ele>216</ele>
        <time>2013-05-06T10:03:13Z</time>
      </trkpt>
      <trkpt lat="43.42739" lon="-0.51014">
        <ele>215</ele>
        <time>2013-05-06T10:03:14Z</time>
      </trkpt>
      <trkpt lat="43.42738" lon="-0.51031">
        <ele>215</ele>
        <time>2013-05-06T10:03:15Z</time>
      </trkpt>
      <trkpt lat="43.42737" lon="-0.51046">
        <ele>214</ele>
        <time>2013-05-06T10:03:16Z</time>
      </trkpt>
      <trkpt lat="43.42736" lon="-0.51062">
        <ele>214</ele>
        <time>2013-05-06T10:03:17Z</time>
      </trkpt>
      <trkpt lat="43.42736" lon="-0.51075">
        <ele>211</ele>
        <time>2013-05-06T10:03:18Z</time>
      </trkpt>
      <trkpt lat="43.42734" lon="-0.51088">
        <ele>209</ele>
        <time>2013-05-06T10:03:19Z</time>
      </trkpt>
      <trkpt lat="43.42732" lon="-0.51097">
        <ele>209</ele>
        <time>2013-05-06T10:03:20Z</time>
      </trkpt>
      <trkpt lat="43.4273" lon="-0.51108">
        <ele>210</ele>
        <time>2013-05-06T10:03:21Z</time>
      </trkpt>
      <trkpt lat="43.42727" lon="-0.51117">
        <ele>210</ele>
        <time>2013-05-06T10:03:22Z</time>
      </trkpt>
      <trkpt lat="43.42725" lon="-0.51122">
        <ele>209</ele>
        <time>2013-05-06T10:03:23Z</time>
      </trkpt>
      <trkpt lat="43.42725" lon="-0.51123">
        <ele>207</ele>
        <time>2013-05-06T10:03:24Z</time>
      </trkpt>
      <trkpt lat="43.42716" lon="-0.51131">
        <ele>207</ele>
        <time>2013-05-06T10:03:25Z</time>
      </trkpt>
      <trkpt lat="43.42707" lon="-0.51139">
        <ele>206</ele>
        <time>2013-05-06T10:03:26Z</time>
      </trkpt>
      <trkpt lat="43.42703" lon="-0.51143">
        <ele>206</ele>
        <time>2013-05-06T10:03:27Z</time>
      </trkpt>
      <trkpt lat="43.42701" lon="-0.51147">
        <ele>205</ele>
        <time>2013-05-06T10:03:28Z</time>
      </trkpt>
      <trkpt lat="43.42697" lon="-0.51154">
        <ele>206</ele>
        <time>2013-05-06T10:03:29Z</time>
      </trkpt>
      <trkpt lat="43.42701" lon="-0.51147">
        <ele>206</ele>
        <time>2013-05-06T10:03:30Z</time>
      </trkpt>
      <trkpt lat="43.42695" lon="-0.5116">
        <ele>206</ele>
        <time>2013-05-06T10:03:31Z</time>
      </trkpt>
      <trkpt lat="43.42692" lon="-0.51169">
        <ele>206</ele>
        <time>2013-05-06T10:03:32Z</time>
      </trkpt>
      <trkpt lat="43.42691" lon="-0.51173">
        <ele>206</ele>
        <time>2013-05-06T10:03:33Z</time>
      </trkpt>
      <trkpt lat="43.42691" lon="-0.51175">
        <ele>206</ele>
        <time>2013-05-06T10:03:34Z</time>
      </trkpt>
      <trkpt lat="43.42688" lon="-0.51182">
        <ele>205</ele>
        <time>2013-05-06T10:03:35Z</time>
      </trkpt>
      <trkpt lat="43.42688" lon="-0.51184">
        <ele>205</ele>
        <time>2013-05-06T10:03:36Z</time>
      </trkpt>
      <trkpt lat="43.42687" lon="-0.5119">
        <ele>205</ele>
        <time>2013-05-06T10:03:37Z</time>
      </trkpt>
      <trkpt lat="43.42686" lon="-0.51193">
        <ele>205</ele>
        <time>2013-05-06T10:03:38Z</time>
      </trkpt>
      <trkpt lat="43.42685" lon="-0.51195">
        <ele>205</ele>
        <time>2013-05-06T10:03:39Z</time>
      </trkpt>
      <trkpt lat="43.42685" lon="-0.51197">
        <ele>205</ele>
        <time>2013-05-06T10:03:40Z</time>
      </trkpt>
      <trkpt lat="43.42684" lon="-0.512">
        <ele>205</ele>
        <time>2013-05-06T10:03:41Z</time>
      </trkpt>
      <trkpt lat="43.42691" lon="-0.51206">
        <ele>205</ele>
        <time>2013-05-06T10:03:42Z</time>
      </trkpt>
      <trkpt lat="43.4269" lon="-0.51208">
        <ele>205</ele>
        <time>2013-05-06T10:03:43Z</time>
      </trkpt>
      <trkpt lat="43.42689" lon="-0.51211">
        <ele>205</ele>
        <time>2013-05-06T10:03:44Z</time>
      </trkpt>
      <trkpt lat="43.42687" lon="-0.51215">
        <ele>205</ele>
        <time>2013-05-06T10:03:45Z</time>
      </trkpt>
      <trkpt lat="43.42686" lon="-0.51217">
        <ele>205</ele>
        <time>2013-05-06T10:03:46Z</time>
      </trkpt>
      <trkpt lat="43.42685" lon="-0.5122">
        <ele>205</ele>
        <time>2013-05-06T10:03:47Z</time>
      </trkpt>
      <trkpt lat="43.42685" lon="-0.51222">
        <ele>205</ele>
        <time>2013-05-06T10:03:48Z</time>
      </trkpt>
      <trkpt lat="43.42685" lon="-0.51225">
        <ele>205</ele>
        <time>2013-05-06T10:03:49Z</time>
      </trkpt>
      <trkpt lat="43.42684" lon="-0.51227">
        <ele>204</ele>
        <time>2013-05-06T10:03:50Z</time>
      </trkpt>
      <trkpt lat="43.42684" lon="-0.5123">
        <ele>204</ele>
        <time>2013-05-06T10:03:51Z</time>
      </trkpt>
      <trkpt lat="43.42683" lon="-0.51232">
        <ele>204</ele>
        <time>2013-05-06T10:03:52Z</time>
      </trkpt>
      <trkpt lat="43.42683" lon="-0.51233">
        <ele>204</ele>
        <time>2013-05-06T10:03:53Z</time>
      </trkpt>
      <trkpt lat="43.42683" lon="-0.51236">
        <ele>204</ele>
        <time>2013-05-06T10:03:54Z</time>
      </trkpt>
      <trkpt lat="43.42682" lon="-0.51237">
        <ele>204</ele>
        <time>2013-05-06T10:03:55Z</time>
      </trkpt>
      <trkpt lat="43.42682" lon="-0.5124">
        <ele>204</ele>
        <time>2013-05-06T10:03:56Z</time>
      </trkpt>
      <trkpt lat="43.42683" lon="-0.51243">
        <ele>203</ele>
        <time>2013-05-06T10:03:57Z</time>
      </trkpt>
      <trkpt lat="43.42684" lon="-0.51247">
        <ele>203</ele>
        <time>2013-05-06T10:03:58Z</time>
      </trkpt>
      <trkpt lat="43.42685" lon="-0.51251">
        <ele>204</ele>
        <time>2013-05-06T10:03:59Z</time>
      </trkpt>
      <trkpt lat="43.42685" lon="-0.51253">
        <ele>204</ele>
        <time>2013-05-06T10:04:00Z</time>
      </trkpt>
      <trkpt lat="43.42684" lon="-0.51256">
        <ele>204</ele>
        <time>2013-05-06T10:04:01Z</time>
      </trkpt>
      <trkpt lat="43.42683" lon="-0.51258">
        <ele>203</ele>
        <time>2013-05-06T10:04:02Z</time>
      </trkpt>
      <trkpt lat="43.42683" lon="-0.51259">
        <ele>204</ele>
        <time>2013-05-06T10:04:03Z</time>
      </trkpt>
      <trkpt lat="43.42682" lon="-0.5126">
        <ele>204</ele>
        <time>2013-05-06T10:04:04Z</time>
      </trkpt>
      <trkpt lat="43.42681" lon="-0.51261">
        <ele>204</ele>
        <time>2013-05-06T10:04:05Z</time>
      </trkpt>
      <trkpt lat="43.4268" lon="-0.51263">
        <ele>204</ele>
        <time>2013-05-06T10:04:06Z</time>
      </trkpt>
      <trkpt lat="43.42679" lon="-0.51266">
        <ele>204</ele>
        <time>2013-05-06T10:04:07Z</time>
      </trkpt>
      <trkpt lat="43.42679" lon="-0.51268">
        <ele>204</ele>
        <time>2013-05-06T10:04:08Z</time>
      </trkpt>
      <trkpt lat="43.42678" lon="-0.5127">
        <ele>204</ele>
        <time>2013-05-06T10:04:09Z</time>
      </trkpt>
      <trkpt lat="43.42677" lon="-0.51272">
        <ele>205</ele>
        <time>2013-05-06T10:04:10Z</time>
      </trkpt>
      <trkpt lat="43.42676" lon="-0.51275">
        <ele>204</ele>
        <time>2013-05-06T10:04:11Z</time>
      </trkpt>
      <trkpt lat="43.42676" lon="-0.51277">
        <ele>204</ele>
        <time>2013-05-06T10:04:12Z</time>
      </trkpt>
      <trkpt lat="43.42675" lon="-0.5128">
        <ele>204</ele>
        <time>2013-05-06T10:04:13Z</time>
      </trkpt>
      <trkpt lat="43.42675" lon="-0.51282">
        <ele>204</ele>
        <time>2013-05-06T10:04:14Z</time>
      </trkpt>
      <trkpt lat="43.42675" lon="-0.51285">
        <ele>203</ele>
        <time>2013-05-06T10:04:15Z</time>
      </trkpt>
      <trkpt lat="43.42674" lon="-0.51288">
        <ele>203</ele>
        <time>2013-05-06T10:04:16Z</time>
      </trkpt>
      <trkpt lat="43.42674" lon="-0.51291">
        <ele>204</ele>
        <time>2013-05-06T10:04:17Z</time>
      </trkpt>
      <trkpt lat="43.42673" lon="-0.51293">
        <ele>204</ele>
        <time>2013-05-06T10:04:18Z</time>
      </trkpt>
      <trkpt lat="43.42672" lon="-0.51296">
        <ele>204</ele>
        <time>2013-05-06T10:04:19Z</time>
      </trkpt>
      <trkpt lat="43.42671" lon="-0.51298">
        <ele>204</ele>
        <time>2013-05-06T10:04:20Z</time>
      </trkpt>
      <trkpt lat="43.42669" lon="-0.513">
        <ele>205</ele>
        <time>2013-05-06T10:04:21Z</time>
      </trkpt>
      <trkpt lat="43.42669" lon="-0.51302">
        <ele>205</ele>
        <time>2013-05-06T10:04:22Z</time>
      </trkpt>
      <trkpt lat="43.42667" lon="-0.51305">
        <ele>205</ele>
        <time>2013-05-06T10:04:23Z</time>
      </trkpt>
      <trkpt lat="43.42666" lon="-0.51307">
        <ele>205</ele>
        <time>2013-05-06T10:04:24Z</time>
      </trkpt>
      <trkpt lat="43.42665" lon="-0.5131">
        <ele>205</ele>
        <time>2013-05-06T10:04:25Z</time>
      </trkpt>
      <trkpt lat="43.42663" lon="-0.51313">
        <ele>205</ele>
        <time>2013-05-06T10:04:26Z</time>
      </trkpt>
      <trkpt lat="43.42662" lon="-0.51315">
        <ele>205</ele>
        <time>2013-05-06T10:04:27Z</time>
      </trkpt>
      <trkpt lat="43.42661" lon="-0.51317">
        <ele>206</ele>
        <time>2013-05-06T10:04:28Z</time>
      </trkpt>
      <trkpt lat="43.4266" lon="-0.51319">
        <ele>206</ele>
        <time>2013-05-06T10:04:29Z</time>
      </trkpt>
      <trkpt lat="43.42659" lon="-0.51321">
        <ele>206</ele>
        <time>2013-05-06T10:04:30Z</time>
      </trkpt>
      <trkpt lat="43.42658" lon="-0.51323">
        <ele>206</ele>
        <time>2013-05-06T10:04:31Z</time>
      </trkpt>
      <trkpt lat="43.42657" lon="-0.51324">
        <ele>207</ele>
        <time>2013-05-06T10:04:32Z</time>
      </trkpt>
      <trkpt lat="43.42656" lon="-0.51326">
        <ele>207</ele>
        <time>2013-05-06T10:04:33Z</time>
      </trkpt>
      <trkpt lat="43.42655" lon="-0.51327">
        <ele>207</ele>
        <time>2013-05-06T10:04:34Z</time>
      </trkpt>
      <trkpt lat="43.42655" lon="-0.51328">
        <ele>207</ele>
        <time>2013-05-06T10:04:35Z</time>
      </trkpt>
      <trkpt lat="43.42654" lon="-0.51329">
        <ele>207</ele>
        <time>2013-05-06T10:04:36Z</time>
      </trkpt>
      <trkpt lat="43.42654" lon="-0.5133">
        <ele>207</ele>
        <time>2013-05-06T10:04:37Z</time>
      </trkpt>
      <trkpt lat="43.42653" lon="-0.51331">
        <ele>208</ele>
        <time>2013-05-06T10:04:38Z</time>
      </trkpt>
      <trkpt lat="43.42652" lon="-0.51332">
        <ele>208</ele>
        <time>2013-05-06T10:04:39Z</time>
      </trkpt>
      <trkpt lat="43.42652" lon="-0.51334">
        <ele>208</ele>
        <time>2013-05-06T10:04:40Z</time>
      </trkpt>
      <trkpt lat="43.42651" lon="-0.51335">
        <ele>208</ele>
        <time>2013-05-06T10:04:41Z</time>
      </trkpt>
      <trkpt lat="43.4265" lon="-0.51336">
        <ele>208</ele>
        <time>2013-05-06T10:04:42Z</time>
      </trkpt>
      <trkpt lat="43.42649" lon="-0.51338">
        <ele>208</ele>
        <time>2013-05-06T10:04:43Z</time>
      </trkpt>
      <trkpt lat="43.42648" lon="-0.51339">
        <ele>209</ele>
        <time>2013-05-06T10:04:44Z</time>
      </trkpt>
      <trkpt lat="43.42648" lon="-0.5134">
        <ele>209</ele>
        <time>2013-05-06T10:04:45Z</time>
      </trkpt>
      <trkpt lat="43.42648" lon="-0.51342">
        <ele>211</ele>
        <time>2013-05-06T10:04:46Z</time>
      </trkpt>
      <trkpt lat="43.42647" lon="-0.51343">
        <ele>211</ele>
        <time>2013-05-06T10:04:47Z</time>
      </trkpt>
      <trkpt lat="43.42647" lon="-0.51345">
        <ele>211</ele>
        <time>2013-05-06T10:04:48Z</time>
      </trkpt>
      <trkpt lat="43.42647" lon="-0.51347">
        <ele>211</ele>
        <time>2013-05-06T10:04:49Z</time>
      </trkpt>
      <trkpt lat="43.42646" lon="-0.51349">
        <ele>211</ele>
        <time>2013-05-06T10:04:50Z</time>
      </trkpt>
      <trkpt lat="43.42646" lon="-0.5135">
        <ele>211</ele>
        <time>2013-05-06T10:04:51Z</time>
      </trkpt>
      <trkpt lat="43.42645" lon="-0.51352">
        <ele>211</ele>
        <time>2013-05-06T10:04:52Z</time>
      </trkpt>
      <trkpt lat="43.42645" lon="-0.51354">
        <ele>212</ele>
        <time>2013-05-06T10:04:53Z</time>
      </trkpt>
      <trkpt lat="43.42645" lon="-0.51356">
        <ele>213</ele>
        <time>2013-05-06T10:04:54Z</time>
      </trkpt>
      <trkpt lat="43.42644" lon="-0.51357">
        <ele>213</ele>
        <time>2013-05-06T10:04:55Z</time>
      </trkpt>
      <trkpt lat="43.42644" lon="-0.51359">
        <ele>214</ele>
        <time>2013-05-06T10:04:56Z</time>
      </trkpt>
      <trkpt lat="43.42643" lon="-0.5136">
        <ele>214</ele>
        <time>2013-05-06T10:04:57Z</time>
      </trkpt>
      <trkpt lat="43.42643" lon="-0.51362">
        <ele>215</ele>
        <time>2013-05-06T10:04:58Z</time>
      </trkpt>
      <trkpt lat="43.42643" lon="-0.51363">
        <ele>215</ele>
        <time>2013-05-06T10:04:59Z</time>
      </trkpt>
      <trkpt lat="43.42642" lon="-0.51365">
        <ele>216</ele>
        <time>2013-05-06T10:05:00Z</time>
      </trkpt>
      <trkpt lat="43.42642" lon="-0.51367">
        <ele>216</ele>
        <time>2013-05-06T10:05:01Z</time>
      </trkpt>
      <trkpt lat="43.42641" lon="-0.51369">
        <ele>216</ele>
        <time>2013-05-06T10:05:02Z</time>
      </trkpt>
      <trkpt lat="43.42641" lon="-0.51371">
        <ele>217</ele>
        <time>2013-05-06T10:05:03Z</time>
      </trkpt>
      <trkpt lat="43.4264" lon="-0.51372">
        <ele>217</ele>
        <time>2013-05-06T10:05:04Z</time>
      </trkpt>
      <trkpt lat="43.42639" lon="-0.51373">
        <ele>217</ele>
        <time>2013-05-06T10:05:05Z</time>
      </trkpt>
      <trkpt lat="43.42639" lon="-0.51375">
        <ele>218</ele>
        <time>2013-05-06T10:05:06Z</time>
      </trkpt>
      <trkpt lat="43.42638" lon="-0.51377">
        <ele>219</ele>
        <time>2013-05-06T10:05:07Z</time>
      </trkpt>
      <trkpt lat="43.42637" lon="-0.5138">
        <ele>221</ele>
        <time>2013-05-06T10:05:08Z</time>
      </trkpt>
      <trkpt lat="43.42637" lon="-0.51381">
        <ele>221</ele>
        <time>2013-05-06T10:05:09Z</time>
      </trkpt>
      <trkpt lat="43.42637" lon="-0.51382">
        <ele>221</ele>
        <time>2013-05-06T10:05:10Z</time>
      </trkpt>
      <trkpt lat="43.42637" lon="-0.51384">
        <ele>222</ele>
        <time>2013-05-06T10:05:11Z</time>
      </trkpt>
      <trkpt lat="43.42637" lon="-0.51385">
        <ele>222</ele>
        <time>2013-05-06T10:05:12Z</time>
      </trkpt>
      <trkpt lat="43.42637" lon="-0.51387">
        <ele>222</ele>
        <time>2013-05-06T10:05:13Z</time>
      </trkpt>
      <trkpt lat="43.42637" lon="-0.51388">
        <ele>222</ele>
        <time>2013-05-06T10:05:14Z</time>
      </trkpt>
      <trkpt lat="43.42636" lon="-0.5139">
        <ele>222</ele>
        <time>2013-05-06T10:05:15Z</time>
      </trkpt>
      <trkpt lat="43.42635" lon="-0.51391">
        <ele>222</ele>
        <time>2013-05-06T10:05:16Z</time>
      </trkpt>
      <trkpt lat="43.42635" lon="-0.51392">
        <ele>222</ele>
        <time>2013-05-06T10:05:17Z</time>
      </trkpt>
      <trkpt lat="43.42633" lon="-0.51392">
        <ele>223</ele>
        <time>2013-05-06T10:05:18Z</time>
      </trkpt>
      <trkpt lat="43.42633" lon="-0.51393">
        <ele>223</ele>
        <time>2013-05-06T10:05:19Z</time>
      </trkpt>
      <trkpt lat="43.42632" lon="-0.51394">
        <ele>223</ele>
        <time>2013-05-06T10:05:20Z</time>
      </trkpt>
      <trkpt lat="43.42631" lon="-0.51395">
        <ele>223</ele>
        <time>2013-05-06T10:05:21Z</time>
      </trkpt>
      <trkpt lat="43.4263" lon="-0.51396">
        <ele>223</ele>
        <time>2013-05-06T10:05:22Z</time>
      </trkpt>
      <trkpt lat="43.42629" lon="-0.51397">
        <ele>223</ele>
        <time>2013-05-06T10:05:23Z</time>
      </trkpt>
      <trkpt lat="43.42628" lon="-0.51399">
        <ele>222</ele>
        <time>2013-05-06T10:05:24Z</time>
      </trkpt>
      <trkpt lat="43.42627" lon="-0.514">
        <ele>222</ele>
        <time>2013-05-06T10:05:25Z</time>
      </trkpt>
      <trkpt lat="43.42627" lon="-0.51402">
        <ele>222</ele>
        <time>2013-05-06T10:05:26Z</time>
      </trkpt>
      <trkpt lat="43.42626" lon="-0.51403">
        <ele>221</ele>
        <time>2013-05-06T10:05:27Z</time>
      </trkpt>
      <trkpt lat="43.42625" lon="-0.51404">
        <ele>221</ele>
        <time>2013-05-06T10:05:28Z</time>
      </trkpt>
      <trkpt lat="43.42624" lon="-0.51406">
        <ele>221</ele>
        <time>2013-05-06T10:05:29Z</time>
      </trkpt>
      <trkpt lat="43.42624" lon="-0.51407">
        <ele>221</ele>
        <time>2013-05-06T10:05:30Z</time>
      </trkpt>
      <trkpt lat="43.42623" lon="-0.51409">
        <ele>220</ele>
        <time>2013-05-06T10:05:31Z</time>
      </trkpt>
      <trkpt lat="43.42622" lon="-0.5141">
        <ele>221</ele>
        <time>2013-05-06T10:05:32Z</time>
      </trkpt>
      <trkpt lat="43.42622" lon="-0.51412">
        <ele>221</ele>
        <time>2013-05-06T10:05:33Z</time>
      </trkpt>
      <trkpt lat="43.42621" lon="-0.51414">
        <ele>222</ele>
        <time>2013-05-06T10:05:34Z</time>
      </trkpt>
      <trkpt lat="43.42621" lon="-0.51415">
        <ele>222</ele>
        <time>2013-05-06T10:05:35Z</time>
      </trkpt>
      <trkpt lat="43.4262" lon="-0.51416">
        <ele>222</ele>
        <time>2013-05-06T10:05:36Z</time>
      </trkpt>
      <trkpt lat="43.42618" lon="-0.51418">
        <ele>223</ele>
        <time>2013-05-06T10:05:37Z</time>
      </trkpt>
      <trkpt lat="43.42617" lon="-0.5142">
        <ele>222</ele>
        <time>2013-05-06T10:05:38Z</time>
      </trkpt>
      <trkpt lat="43.42616" lon="-0.51421">
        <ele>222</ele>
        <time>2013-05-06T10:05:39Z</time>
      </trkpt>
      <trkpt lat="43.42614" lon="-0.51423">
        <ele>222</ele>
        <time>2013-05-06T10:05:40Z</time>
      </trkpt>
      <trkpt lat="43.42613" lon="-0.51424">
        <ele>222</ele>
        <time>2013-05-06T10:05:41Z</time>
      </trkpt>
      <trkpt lat="43.42613" lon="-0.51425">
        <ele>222</ele>
        <time>2013-05-06T10:05:42Z</time>
      </trkpt>
      <trkpt lat="43.42612" lon="-0.51426">
        <ele>221</ele>
        <time>2013-05-06T10:05:43Z</time>
      </trkpt>
      <trkpt lat="43.42611" lon="-0.51429">
        <ele>219</ele>
        <time>2013-05-06T10:05:44Z</time>
      </trkpt>
      <trkpt lat="43.42611" lon="-0.51431">
        <ele>218</ele>
        <time>2013-05-06T10:05:45Z</time>
      </trkpt>
      <trkpt lat="43.42611" lon="-0.51434">
        <ele>219</ele>
        <time>2013-05-06T10:05:46Z</time>
      </trkpt>
      <trkpt lat="43.4261" lon="-0.51436">
        <ele>219</ele>
        <time>2013-05-06T10:05:47Z</time>
      </trkpt>
      <trkpt lat="43.4261" lon="-0.51438">
        <ele>219</ele>
        <time>2013-05-06T10:05:48Z</time>
      </trkpt>
      <trkpt lat="43.4261" lon="-0.51441">
        <ele>218</ele>
        <time>2013-05-06T10:05:49Z</time>
      </trkpt>
      <trkpt lat="43.42609" lon="-0.51443">
        <ele>218</ele>
        <time>2013-05-06T10:05:50Z</time>
      </trkpt>
      <trkpt lat="43.42609" lon="-0.51445">
        <ele>219</ele>
        <time>2013-05-06T10:05:51Z</time>
      </trkpt>
      <trkpt lat="43.42608" lon="-0.51447">
        <ele>221</ele>
        <time>2013-05-06T10:05:52Z</time>
      </trkpt>
      <trkpt lat="43.42608" lon="-0.51449">
        <ele>222</ele>
        <time>2013-05-06T10:05:53Z</time>
      </trkpt>
      <trkpt lat="43.42608" lon="-0.51451">
        <ele>222</ele>
        <time>2013-05-06T10:05:54Z</time>
      </trkpt>
      <trkpt lat="43.42608" lon="-0.51452">
        <ele>221</ele>
        <time>2013-05-06T10:05:55Z</time>
      </trkpt>
      <trkpt lat="43.42609" lon="-0.51452">
        <ele>222</ele>
        <time>2013-05-06T10:05:56Z</time>
      </trkpt>
      <trkpt lat="43.42609" lon="-0.51453">
        <ele>223</ele>
        <time>2013-05-06T10:05:57Z</time>
      </trkpt>
      <trkpt lat="43.42609" lon="-0.51454">
        <ele>223</ele>
        <time>2013-05-06T10:05:58Z</time>
      </trkpt>
      <trkpt lat="43.42609" lon="-0.51455">
        <ele>223</ele>
        <time>2013-05-06T10:05:59Z</time>
      </trkpt>
      <trkpt lat="43.42608" lon="-0.51456">
        <ele>224</ele>
        <time>2013-05-06T10:06:00Z</time>
      </trkpt>
      <trkpt lat="43.42608" lon="-0.51458">
        <ele>226</ele>
        <time>2013-05-06T10:06:01Z</time>
      </trkpt>
      <trkpt lat="43.42606" lon="-0.51461">
        <ele>226</ele>
        <time>2013-05-06T10:06:02Z</time>
      </trkpt>
      <trkpt lat="43.42604" lon="-0.51463">
        <ele>226</ele>
        <time>2013-05-06T10:06:03Z</time>
      </trkpt>
      <trkpt lat="43.42604" lon="-0.51465">
        <ele>227</ele>
        <time>2013-05-06T10:06:04Z</time>
      </trkpt>
      <trkpt lat="43.42603" lon="-0.51468">
        <ele>226</ele>
        <time>2013-05-06T10:06:05Z</time>
      </trkpt>
      <trkpt lat="43.42602" lon="-0.51469">
        <ele>226</ele>
        <time>2013-05-06T10:06:06Z</time>
      </trkpt>
      <trkpt lat="43.426" lon="-0.51471">
        <ele>225</ele>
        <time>2013-05-06T10:06:07Z</time>
      </trkpt>
      <trkpt lat="43.42599" lon="-0.51472">
        <ele>225</ele>
        <time>2013-05-06T10:06:08Z</time>
      </trkpt>
      <trkpt lat="43.42598" lon="-0.51474">
        <ele>224</ele>
        <time>2013-05-06T10:06:09Z</time>
      </trkpt>
      <trkpt lat="43.42597" lon="-0.51475">
        <ele>224</ele>
        <time>2013-05-06T10:06:10Z</time>
      </trkpt>
      <trkpt lat="43.42594" lon="-0.51478">
        <ele>223</ele>
        <time>2013-05-06T10:06:11Z</time>
      </trkpt>
      <trkpt lat="43.42592" lon="-0.5148">
        <ele>225</ele>
        <time>2013-05-06T10:06:12Z</time>
      </trkpt>
      <trkpt lat="43.42591" lon="-0.51482">
        <ele>226</ele>
        <time>2013-05-06T10:06:13Z</time>
      </trkpt>
      <trkpt lat="43.42589" lon="-0.51484">
        <ele>226</ele>
        <time>2013-05-06T10:06:14Z</time>
      </trkpt>
      <trkpt lat="43.42587" lon="-0.51485">
        <ele>227</ele>
        <time>2013-05-06T10:06:15Z</time>
      </trkpt>
      <trkpt lat="43.42584" lon="-0.51486">
        <ele>229</ele>
        <time>2013-05-06T10:06:16Z</time>
      </trkpt>
      <trkpt lat="43.42582" lon="-0.51487">
        <ele>229</ele>
        <time>2013-05-06T10:06:17Z</time>
      </trkpt>
      <trkpt lat="43.42581" lon="-0.51487">
        <ele>229</ele>
        <time>2013-05-06T10:06:18Z</time>
      </trkpt>
      <trkpt lat="43.42579" lon="-0.51489">
        <ele>231</ele>
        <time>2013-05-06T10:06:19Z</time>
      </trkpt>
      <trkpt lat="43.42578" lon="-0.5149">
        <ele>232</ele>
        <time>2013-05-06T10:06:20Z</time>
      </trkpt>
      <trkpt lat="43.42577" lon="-0.51491">
        <ele>232</ele>
        <time>2013-05-06T10:06:21Z</time>
      </trkpt>
      <trkpt lat="43.42576" lon="-0.51493">
        <ele>230</ele>
        <time>2013-05-06T10:06:22Z</time>
      </trkpt>
      <trkpt lat="43.42574" lon="-0.51495">
        <ele>231</ele>
        <time>2013-05-06T10:06:23Z</time>
      </trkpt>
      <trkpt lat="43.42573" lon="-0.51497">
        <ele>232</ele>
        <time>2013-05-06T10:06:24Z</time>
      </trkpt>
      <trkpt lat="43.42571" lon="-0.515">
        <ele>232</ele>
        <time>2013-05-06T10:06:25Z</time>
      </trkpt>
      <trkpt lat="43.42569" lon="-0.51502">
        <ele>232</ele>
        <time>2013-05-06T10:06:26Z</time>
      </trkpt>
      <trkpt lat="43.42567" lon="-0.51505">
        <ele>231</ele>
        <time>2013-05-06T10:06:27Z</time>
      </trkpt>
      <trkpt lat="43.42565" lon="-0.51508">
        <ele>230</ele>
        <time>2013-05-06T10:06:28Z</time>
      </trkpt>
      <trkpt lat="43.42563" lon="-0.51511">
        <ele>230</ele>
        <time>2013-05-06T10:06:29Z</time>
      </trkpt>
      <trkpt lat="43.42562" lon="-0.51513">
        <ele>229</ele>
        <time>2013-05-06T10:06:30Z</time>
      </trkpt>
      <trkpt lat="43.42561" lon="-0.51515">
        <ele>229</ele>
        <time>2013-05-06T10:06:31Z</time>
      </trkpt>
      <trkpt lat="43.4256" lon="-0.51516">
        <ele>229</ele>
        <time>2013-05-06T10:06:32Z</time>
      </trkpt>
      <trkpt lat="43.42559" lon="-0.51517">
        <ele>229</ele>
        <time>2013-05-06T10:06:33Z</time>
      </trkpt>
      <trkpt lat="43.42559" lon="-0.51518">
        <ele>230</ele>
        <time>2013-05-06T10:06:34Z</time>
      </trkpt>
      <trkpt lat="43.42558" lon="-0.51519">
        <ele>231</ele>
        <time>2013-05-06T10:06:35Z</time>
      </trkpt>
      <trkpt lat="43.42558" lon="-0.5152">
        <ele>231</ele>
        <time>2013-05-06T10:06:36Z</time>
      </trkpt>
      <trkpt lat="43.42557" lon="-0.5152">
        <ele>232</ele>
        <time>2013-05-06T10:06:37Z</time>
      </trkpt>
      <trkpt lat="43.42556" lon="-0.51521">
        <ele>233</ele>
        <time>2013-05-06T10:06:38Z</time>
      </trkpt>
      <trkpt lat="43.42554" lon="-0.51522">
        <ele>234</ele>
        <time>2013-05-06T10:06:39Z</time>
      </trkpt>
      <trkpt lat="43.42553" lon="-0.51524">
        <ele>234</ele>
        <time>2013-05-06T10:06:40Z</time>
      </trkpt>
      <trkpt lat="43.42551" lon="-0.51525">
        <ele>234</ele>
        <time>2013-05-06T10:06:41Z</time>
      </trkpt>
      <trkpt lat="43.42549" lon="-0.51526">
        <ele>234</ele>
        <time>2013-05-06T10:06:42Z</time>
      </trkpt>
      <trkpt lat="43.42547" lon="-0.51527">
        <ele>235</ele>
        <time>2013-05-06T10:06:43Z</time>
      </trkpt>
      <trkpt lat="43.42544" lon="-0.51528">
        <ele>235</ele>
        <time>2013-05-06T10:06:44Z</time>
      </trkpt>
      <trkpt lat="43.42541" lon="-0.5153">
        <ele>237</ele>
        <time>2013-05-06T10:06:45Z</time>
      </trkpt>
      <trkpt lat="43.42539" lon="-0.51531">
        <ele>237</ele>
        <time>2013-05-06T10:06:46Z</time>
      </trkpt>
      <trkpt lat="43.42536" lon="-0.51532">
        <ele>238</ele>
        <time>2013-05-06T10:06:47Z</time>
      </trkpt>
      <trkpt lat="43.42533" lon="-0.51533">
        <ele>238</ele>
        <time>2013-05-06T10:06:48Z</time>
      </trkpt>
      <trkpt lat="43.4253" lon="-0.51534">
        <ele>240</ele>
        <time>2013-05-06T10:06:49Z</time>
      </trkpt>
      <trkpt lat="43.42527" lon="-0.51535">
        <ele>240</ele>
        <time>2013-05-06T10:06:50Z</time>
      </trkpt>
      <trkpt lat="43.42523" lon="-0.51535">
        <ele>240</ele>
        <time>2013-05-06T10:06:51Z</time>
      </trkpt>
      <trkpt lat="43.4252" lon="-0.51535">
        <ele>240</ele>
        <time>2013-05-06T10:06:52Z</time>
      </trkpt>
      <trkpt lat="43.42516" lon="-0.51535">
        <ele>241</ele>
        <time>2013-05-06T10:06:53Z</time>
      </trkpt>
      <trkpt lat="43.42514" lon="-0.51536">
        <ele>240</ele>
        <time>2013-05-06T10:06:54Z</time>
      </trkpt>
      <trkpt lat="43.42511" lon="-0.51536">
        <ele>240</ele>
        <time>2013-05-06T10:06:55Z</time>
      </trkpt>
      <trkpt lat="43.42508" lon="-0.51536">
        <ele>240</ele>
        <time>2013-05-06T10:06:56Z</time>
      </trkpt>
      <trkpt lat="43.42506" lon="-0.51536">
        <ele>240</ele>
        <time>2013-05-06T10:06:57Z</time>
      </trkpt>
      <trkpt lat="43.42502" lon="-0.51536">
        <ele>240</ele>
        <time>2013-05-06T10:06:58Z</time>
      </trkpt>
      <trkpt lat="43.42498" lon="-0.51536">
        <ele>240</ele>
        <time>2013-05-06T10:06:59Z</time>
      </trkpt>
      <trkpt lat="43.42493" lon="-0.51536">
        <ele>239</ele>
        <time>2013-05-06T10:07:00Z</time>
      </trkpt>
      <trkpt lat="43.4249" lon="-0.51537">
        <ele>239</ele>
        <time>2013-05-06T10:07:01Z</time>
      </trkpt>
      <trkpt lat="43.42486" lon="-0.51538">
        <ele>239</ele>
        <time>2013-05-06T10:07:02Z</time>
      </trkpt>
      <trkpt lat="43.42483" lon="-0.51539">
        <ele>239</ele>
        <time>2013-05-06T10:07:03Z</time>
      </trkpt>
      <trkpt lat="43.42481" lon="-0.51541">
        <ele>240</ele>
        <time>2013-05-06T10:07:04Z</time>
      </trkpt>
      <trkpt lat="43.42477" lon="-0.51543">
        <ele>240</ele>
        <time>2013-05-06T10:07:05Z</time>
      </trkpt>
      <trkpt lat="43.42473" lon="-0.51544">
        <ele>239</ele>
        <time>2013-05-06T10:07:06Z</time>
      </trkpt>
      <trkpt lat="43.42469" lon="-0.51545">
        <ele>239</ele>
        <time>2013-05-06T10:07:07Z</time>
      </trkpt>
      <trkpt lat="43.42464" lon="-0.51544">
        <ele>238</ele>
        <time>2013-05-06T10:07:08Z</time>
      </trkpt>
      <trkpt lat="43.4246" lon="-0.51544">
        <ele>238</ele>
        <time>2013-05-06T10:07:09Z</time>
      </trkpt>
      <trkpt lat="43.42455" lon="-0.51544">
        <ele>238</ele>
        <time>2013-05-06T10:07:10Z</time>
      </trkpt>
      <trkpt lat="43.42452" lon="-0.51543">
        <ele>239</ele>
        <time>2013-05-06T10:07:11Z</time>
      </trkpt>
      <trkpt lat="43.42448" lon="-0.51542">
        <ele>239</ele>
        <time>2013-05-06T10:07:12Z</time>
      </trkpt>
      <trkpt lat="43.42444" lon="-0.51542">
        <ele>240</ele>
        <time>2013-05-06T10:07:13Z</time>
      </trkpt>
      <trkpt lat="43.4244" lon="-0.51542">
        <ele>240</ele>
        <time>2013-05-06T10:07:14Z</time>
      </trkpt>
      <trkpt lat="43.42437" lon="-0.51543">
        <ele>240</ele>
        <time>2013-05-06T10:07:15Z</time>
      </trkpt>
      <trkpt lat="43.42434" lon="-0.51544">
        <ele>239</ele>
        <time>2013-05-06T10:07:16Z</time>
      </trkpt>
      <trkpt lat="43.4243" lon="-0.51546">
        <ele>238</ele>
        <time>2013-05-06T10:07:17Z</time>
      </trkpt>
      <trkpt lat="43.42427" lon="-0.51547">
        <ele>238</ele>
        <time>2013-05-06T10:07:18Z</time>
      </trkpt>
      <trkpt lat="43.42424" lon="-0.51549">
        <ele>238</ele>
        <time>2013-05-06T10:07:19Z</time>
      </trkpt>
      <trkpt lat="43.42421" lon="-0.51551">
        <ele>238</ele>
        <time>2013-05-06T10:07:20Z</time>
      </trkpt>
      <trkpt lat="43.42418" lon="-0.51553">
        <ele>239</ele>
        <time>2013-05-06T10:07:21Z</time>
      </trkpt>
      <trkpt lat="43.42415" lon="-0.51556">
        <ele>241</ele>
        <time>2013-05-06T10:07:22Z</time>
      </trkpt>
      <trkpt lat="43.42413" lon="-0.51559">
        <ele>241</ele>
        <time>2013-05-06T10:07:23Z</time>
      </trkpt>
      <trkpt lat="43.42411" lon="-0.51563">
        <ele>241</ele>
        <time>2013-05-06T10:07:24Z</time>
      </trkpt>
      <trkpt lat="43.42409" lon="-0.51566">
        <ele>241</ele>
        <time>2013-05-06T10:07:25Z</time>
      </trkpt>
      <trkpt lat="43.42407" lon="-0.5157">
        <ele>241</ele>
        <time>2013-05-06T10:07:26Z</time>
      </trkpt>
      <trkpt lat="43.42405" lon="-0.51574">
        <ele>240</ele>
        <time>2013-05-06T10:07:27Z</time>
      </trkpt>
      <trkpt lat="43.42403" lon="-0.51578">
        <ele>241</ele>
        <time>2013-05-06T10:07:28Z</time>
      </trkpt>
      <trkpt lat="43.42402" lon="-0.51582">
        <ele>241</ele>
        <time>2013-05-06T10:07:29Z</time>
      </trkpt>
      <trkpt lat="43.424" lon="-0.51586">
        <ele>242</ele>
        <time>2013-05-06T10:07:30Z</time>
      </trkpt>
      <trkpt lat="43.42397" lon="-0.51589">
        <ele>241</ele>
        <time>2013-05-06T10:07:31Z</time>
      </trkpt>
      <trkpt lat="43.42395" lon="-0.51593">
        <ele>241</ele>
        <time>2013-05-06T10:07:32Z</time>
      </trkpt>
      <trkpt lat="43.42393" lon="-0.51597">
        <ele>242</ele>
        <time>2013-05-06T10:07:33Z</time>
      </trkpt>
      <trkpt lat="43.4239" lon="-0.51601">
        <ele>241</ele>
        <time>2013-05-06T10:07:34Z</time>
      </trkpt>
      <trkpt lat="43.42389" lon="-0.51605">
        <ele>241</ele>
        <time>2013-05-06T10:07:35Z</time>
      </trkpt>
      <trkpt lat="43.42386" lon="-0.5161">
        <ele>241</ele>
        <time>2013-05-06T10:07:36Z</time>
      </trkpt>
      <trkpt lat="43.42384" lon="-0.51614">
        <ele>241</ele>
        <time>2013-05-06T10:07:37Z</time>
      </trkpt>
      <trkpt lat="43.42382" lon="-0.51618">
        <ele>241</ele>
        <time>2013-05-06T10:07:38Z</time>
      </trkpt>
      <trkpt lat="43.42381" lon="-0.51621">
        <ele>240</ele>
        <time>2013-05-06T10:07:39Z</time>
      </trkpt>
      <trkpt lat="43.42379" lon="-0.51625">
        <ele>240</ele>
        <time>2013-05-06T10:07:40Z</time>
      </trkpt>
      <trkpt lat="43.42378" lon="-0.51629">
        <ele>240</ele>
        <time>2013-05-06T10:07:41Z</time>
      </trkpt>
      <trkpt lat="43.42376" lon="-0.51634">
        <ele>239</ele>
        <time>2013-05-06T10:07:42Z</time>
      </trkpt>
      <trkpt lat="43.42374" lon="-0.51638">
        <ele>240</ele>
        <time>2013-05-06T10:07:43Z</time>
      </trkpt>
      <trkpt lat="43.42373" lon="-0.51643">
        <ele>241</ele>
        <time>2013-05-06T10:07:44Z</time>
      </trkpt>
      <trkpt lat="43.42371" lon="-0.51648">
        <ele>242</ele>
        <time>2013-05-06T10:07:45Z</time>
      </trkpt>
      <trkpt lat="43.42369" lon="-0.51652">
        <ele>242</ele>
        <time>2013-05-06T10:07:46Z</time>
      </trkpt>
      <trkpt lat="43.42367" lon="-0.51657">
        <ele>242</ele>
        <time>2013-05-06T10:07:47Z</time>
      </trkpt>
      <trkpt lat="43.42365" lon="-0.51661">
        <ele>243</ele>
        <time>2013-05-06T10:07:48Z</time>
      </trkpt>
      <trkpt lat="43.42363" lon="-0.51665">
        <ele>242</ele>
        <time>2013-05-06T10:07:49Z</time>
      </trkpt>
      <trkpt lat="43.42362" lon="-0.51669">
        <ele>242</ele>
        <time>2013-05-06T10:07:50Z</time>
      </trkpt>
      <trkpt lat="43.4236" lon="-0.51674">
        <ele>243</ele>
        <time>2013-05-06T10:07:51Z</time>
      </trkpt>
      <trkpt lat="43.42358" lon="-0.51678">
        <ele>243</ele>
        <time>2013-05-06T10:07:52Z</time>
      </trkpt>
      <trkpt lat="43.42357" lon="-0.51681">
        <ele>243</ele>
        <time>2013-05-06T10:07:53Z</time>
      </trkpt>
      <trkpt lat="43.42355" lon="-0.51685">
        <ele>244</ele>
        <time>2013-05-06T10:07:54Z</time>
      </trkpt>
      <trkpt lat="43.42353" lon="-0.51689">
        <ele>245</ele>
        <time>2013-05-06T10:07:55Z</time>
      </trkpt>
      <trkpt lat="43.42351" lon="-0.51694">
        <ele>246</ele>
        <time>2013-05-06T10:07:56Z</time>
      </trkpt>
      <trkpt lat="43.42349" lon="-0.51698">
        <ele>246</ele>
        <time>2013-05-06T10:07:57Z</time>
      </trkpt>
      <trkpt lat="43.42348" lon="-0.51703">
        <ele>246</ele>
        <time>2013-05-06T10:07:58Z</time>
      </trkpt>
      <trkpt lat="43.42347" lon="-0.51707">
        <ele>246</ele>
        <time>2013-05-06T10:07:59Z</time>
      </trkpt>
      <trkpt lat="43.42345" lon="-0.51711">
        <ele>246</ele>
        <time>2013-05-06T10:08:00Z</time>
      </trkpt>
      <trkpt lat="43.42344" lon="-0.51715">
        <ele>247</ele>
        <time>2013-05-06T10:08:01Z</time>
      </trkpt>
      <trkpt lat="43.42342" lon="-0.51719">
        <ele>247</ele>
        <time>2013-05-06T10:08:02Z</time>
      </trkpt>
      <trkpt lat="43.42341" lon="-0.51723">
        <ele>246</ele>
        <time>2013-05-06T10:08:03Z</time>
      </trkpt>
      <trkpt lat="43.42339" lon="-0.51727">
        <ele>247</ele>
        <time>2013-05-06T10:08:04Z</time>
      </trkpt>
      <trkpt lat="43.42337" lon="-0.51731">
        <ele>248</ele>
        <time>2013-05-06T10:08:05Z</time>
      </trkpt>
      <trkpt lat="43.42336" lon="-0.51735">
        <ele>247</ele>
        <time>2013-05-06T10:08:06Z</time>
      </trkpt>
      <trkpt lat="43.42334" lon="-0.51739">
        <ele>248</ele>
        <time>2013-05-06T10:08:07Z</time>
      </trkpt>
      <trkpt lat="43.42332" lon="-0.51743">
        <ele>248</ele>
        <time>2013-05-06T10:08:08Z</time>
      </trkpt>
      <trkpt lat="43.4233" lon="-0.51746">
        <ele>249</ele>
        <time>2013-05-06T10:08:09Z</time>
      </trkpt>
      <trkpt lat="43.42327" lon="-0.5175">
        <ele>249</ele>
        <time>2013-05-06T10:08:10Z</time>
      </trkpt>
      <trkpt lat="43.42324" lon="-0.51752">
        <ele>249</ele>
        <time>2013-05-06T10:08:11Z</time>
      </trkpt>
      <trkpt lat="43.42321" lon="-0.51755">
        <ele>249</ele>
        <time>2013-05-06T10:08:12Z</time>
      </trkpt>
      <trkpt lat="43.42318" lon="-0.51758">
        <ele>249</ele>
        <time>2013-05-06T10:08:13Z</time>
      </trkpt>
      <trkpt lat="43.42314" lon="-0.5176">
        <ele>248</ele>
        <time>2013-05-06T10:08:14Z</time>
      </trkpt>
      <trkpt lat="43.4231" lon="-0.51763">
        <ele>248</ele>
        <time>2013-05-06T10:08:15Z</time>
      </trkpt>
      <trkpt lat="43.42307" lon="-0.51765">
        <ele>247</ele>
        <time>2013-05-06T10:08:16Z</time>
      </trkpt>
      <trkpt lat="43.42303" lon="-0.51768">
        <ele>247</ele>
        <time>2013-05-06T10:08:17Z</time>
      </trkpt>
      <trkpt lat="43.42299" lon="-0.5177">
        <ele>245</ele>
        <time>2013-05-06T10:08:18Z</time>
      </trkpt>
      <trkpt lat="43.42296" lon="-0.51772">
        <ele>246</ele>
        <time>2013-05-06T10:08:19Z</time>
      </trkpt>
      <trkpt lat="43.42293" lon="-0.51774">
        <ele>246</ele>
        <time>2013-05-06T10:08:20Z</time>
      </trkpt>
      <trkpt lat="43.42291" lon="-0.51776">
        <ele>246</ele>
        <time>2013-05-06T10:08:21Z</time>
      </trkpt>
      <trkpt lat="43.42291" lon="-0.51776">
        <ele>246</ele>
        <time>2013-05-06T10:08:21Z</time>
      </trkpt>
      <trkpt lat="43.42286" lon="-0.51775">
        <ele>244</ele>
        <time>2013-05-06T10:08:22Z</time>
      </trkpt>
    </trkseg>
  </trk>
</gpx>